<?xml version="1.0" encoding="UTF-8" standalone="no" ?>
<gpx xmlns="http://www.topografix.com/GPX/1/1" xmlns:xsi="http://www.w3.org/2001/XMLSchema-instance" xsi:schemaLocation="http://www.topografix.com/GPX/1/1 http://www.topografix.com/GPX/1/1/gpx.xsd" version="1.1" creator="VisuGPX - https://www.visugpx.com">
  <metadata>
    <name>Ailly-sur-somme</name>
    <desc><![CDATA[Boucle en forme de lunette ]]></desc>
  </metadata>
  <trk>
    <name><![CDATA[Ailly-sur-somme_1]]></name>
    <trkseg>
      <trkpt lat="49.92428" lon="2.1906">
        <ele>64.9</ele>
        <time>2022-11-09T12:58:46Z</time>
      </trkpt>
      <trkpt lat="49.92428" lon="2.1906">
        <ele>64.9</ele>
        <time>2022-11-09T12:58:47Z</time>
      </trkpt>
      <trkpt lat="49.92428" lon="2.1906">
        <ele>64.9</ele>
        <time>2022-11-09T12:58:48Z</time>
      </trkpt>
      <trkpt lat="49.92428" lon="2.1906">
        <ele>64.9</ele>
        <time>2022-11-09T12:58:49Z</time>
      </trkpt>
      <trkpt lat="49.92428" lon="2.1906">
        <ele>64.9</ele>
        <time>2022-11-09T12:58:50Z</time>
      </trkpt>
      <trkpt lat="49.92428" lon="2.1906">
        <ele>64.9</ele>
        <time>2022-11-09T12:58:51Z</time>
      </trkpt>
      <trkpt lat="49.92428" lon="2.1906">
        <ele>64.9</ele>
        <time>2022-11-09T12:58:52Z</time>
      </trkpt>
      <trkpt lat="49.92428" lon="2.1906">
        <ele>64.9</ele>
        <time>2022-11-09T12:58:53Z</time>
      </trkpt>
      <trkpt lat="49.92428" lon="2.1906">
        <ele>64.9</ele>
        <time>2022-11-09T12:58:54Z</time>
      </trkpt>
      <trkpt lat="49.92428" lon="2.1906">
        <ele>64.9</ele>
        <time>2022-11-09T12:58:55Z</time>
      </trkpt>
      <trkpt lat="49.92428" lon="2.1906">
        <ele>64.9</ele>
        <time>2022-11-09T12:58:56Z</time>
      </trkpt>
      <trkpt lat="49.92428" lon="2.1906">
        <ele>64.9</ele>
        <time>2022-11-09T12:58:57Z</time>
      </trkpt>
      <trkpt lat="49.92428" lon="2.1906">
        <ele>64.9</ele>
        <time>2022-11-09T12:58:58Z</time>
      </trkpt>
      <trkpt lat="49.92428" lon="2.1906">
        <ele>64.9</ele>
        <time>2022-11-09T12:58:59Z</time>
      </trkpt>
      <trkpt lat="49.92428" lon="2.1906">
        <ele>64.9</ele>
        <time>2022-11-09T12:59:00Z</time>
      </trkpt>
      <trkpt lat="49.92428" lon="2.1906">
        <ele>64.9</ele>
        <time>2022-11-09T12:59:01Z</time>
      </trkpt>
      <trkpt lat="49.92428" lon="2.1906">
        <ele>64.9</ele>
        <time>2022-11-09T12:59:02Z</time>
      </trkpt>
      <trkpt lat="49.92428" lon="2.1906">
        <ele>64.9</ele>
        <time>2022-11-09T12:59:03Z</time>
      </trkpt>
      <trkpt lat="49.92428" lon="2.1906">
        <ele>64.9</ele>
        <time>2022-11-09T12:59:04Z</time>
      </trkpt>
      <trkpt lat="49.92428" lon="2.1906">
        <ele>64.9</ele>
        <time>2022-11-09T12:59:05Z</time>
      </trkpt>
      <trkpt lat="49.92428" lon="2.1906">
        <ele>64.9</ele>
        <time>2022-11-09T12:59:06Z</time>
      </trkpt>
      <trkpt lat="49.92428" lon="2.1906">
        <ele>64.9</ele>
        <time>2022-11-09T12:59:07Z</time>
      </trkpt>
      <trkpt lat="49.92428" lon="2.1906">
        <ele>64.9</ele>
        <time>2022-11-09T12:59:08Z</time>
      </trkpt>
      <trkpt lat="49.92428" lon="2.1906">
        <ele>64.9</ele>
        <time>2022-11-09T12:59:09Z</time>
      </trkpt>
      <trkpt lat="49.92428" lon="2.1906">
        <ele>64.9</ele>
        <time>2022-11-09T12:59:10Z</time>
      </trkpt>
      <trkpt lat="49.92428" lon="2.1906">
        <ele>64.9</ele>
        <time>2022-11-09T12:59:11Z</time>
      </trkpt>
      <trkpt lat="49.92428" lon="2.1906">
        <ele>64.9</ele>
        <time>2022-11-09T12:59:12Z</time>
      </trkpt>
      <trkpt lat="49.92428" lon="2.19059">
        <ele>64.9</ele>
        <time>2022-11-09T12:59:13Z</time>
      </trkpt>
      <trkpt lat="49.92428" lon="2.19059">
        <ele>64.9</ele>
        <time>2022-11-09T12:59:14Z</time>
      </trkpt>
      <trkpt lat="49.92428" lon="2.19059">
        <ele>64.9</ele>
        <time>2022-11-09T12:59:15Z</time>
      </trkpt>
      <trkpt lat="49.92428" lon="2.19059">
        <ele>64.9</ele>
        <time>2022-11-09T12:59:16Z</time>
      </trkpt>
      <trkpt lat="49.92428" lon="2.19059">
        <ele>64.9</ele>
        <time>2022-11-09T12:59:17Z</time>
      </trkpt>
      <trkpt lat="49.92428" lon="2.19059">
        <ele>64.9</ele>
        <time>2022-11-09T12:59:18Z</time>
      </trkpt>
      <trkpt lat="49.92428" lon="2.19059">
        <ele>64.9</ele>
        <time>2022-11-09T12:59:19Z</time>
      </trkpt>
      <trkpt lat="49.92428" lon="2.19059">
        <ele>64.9</ele>
        <time>2022-11-09T12:59:20Z</time>
      </trkpt>
      <trkpt lat="49.92428" lon="2.19059">
        <ele>64.9</ele>
        <time>2022-11-09T12:59:21Z</time>
      </trkpt>
      <trkpt lat="49.92428" lon="2.19059">
        <ele>64.9</ele>
        <time>2022-11-09T12:59:22Z</time>
      </trkpt>
      <trkpt lat="49.92428" lon="2.19059">
        <ele>64.9</ele>
        <time>2022-11-09T12:59:23Z</time>
      </trkpt>
      <trkpt lat="49.92428" lon="2.19059">
        <ele>64.9</ele>
        <time>2022-11-09T12:59:24Z</time>
      </trkpt>
      <trkpt lat="49.92428" lon="2.19059">
        <ele>64.9</ele>
        <time>2022-11-09T12:59:25Z</time>
      </trkpt>
      <trkpt lat="49.92428" lon="2.19059">
        <ele>64.9</ele>
        <time>2022-11-09T12:59:26Z</time>
      </trkpt>
      <trkpt lat="49.92428" lon="2.19059">
        <ele>64.9</ele>
        <time>2022-11-09T12:59:27Z</time>
      </trkpt>
      <trkpt lat="49.92428" lon="2.19059">
        <ele>64.9</ele>
        <time>2022-11-09T12:59:28Z</time>
      </trkpt>
      <trkpt lat="49.92428" lon="2.19059">
        <ele>64.9</ele>
        <time>2022-11-09T12:59:29Z</time>
      </trkpt>
      <trkpt lat="49.92428" lon="2.19059">
        <ele>64.9</ele>
        <time>2022-11-09T12:59:30Z</time>
      </trkpt>
      <trkpt lat="49.92428" lon="2.19059">
        <ele>64.9</ele>
        <time>2022-11-09T12:59:31Z</time>
      </trkpt>
      <trkpt lat="49.92428" lon="2.19059">
        <ele>64.9</ele>
        <time>2022-11-09T12:59:32Z</time>
      </trkpt>
      <trkpt lat="49.92428" lon="2.19059">
        <ele>64.9</ele>
        <time>2022-11-09T12:59:33Z</time>
      </trkpt>
      <trkpt lat="49.92428" lon="2.19059">
        <ele>64.9</ele>
        <time>2022-11-09T12:59:34Z</time>
      </trkpt>
      <trkpt lat="49.92428" lon="2.19059">
        <ele>64.9</ele>
        <time>2022-11-09T12:59:35Z</time>
      </trkpt>
      <trkpt lat="49.92428" lon="2.19059">
        <ele>64.9</ele>
        <time>2022-11-09T12:59:36Z</time>
      </trkpt>
      <trkpt lat="49.92428" lon="2.19059">
        <ele>64.9</ele>
        <time>2022-11-09T12:59:37Z</time>
      </trkpt>
      <trkpt lat="49.92428" lon="2.19059">
        <ele>64.9</ele>
        <time>2022-11-09T12:59:38Z</time>
      </trkpt>
      <trkpt lat="49.92428" lon="2.19059">
        <ele>64.9</ele>
        <time>2022-11-09T12:59:39Z</time>
      </trkpt>
      <trkpt lat="49.92428" lon="2.19059">
        <ele>64.9</ele>
        <time>2022-11-09T12:59:40Z</time>
      </trkpt>
      <trkpt lat="49.92428" lon="2.19059">
        <ele>64.9</ele>
        <time>2022-11-09T12:59:41Z</time>
      </trkpt>
      <trkpt lat="49.92428" lon="2.19059">
        <ele>64.9</ele>
        <time>2022-11-09T12:59:42Z</time>
      </trkpt>
      <trkpt lat="49.92428" lon="2.19059">
        <ele>64.9</ele>
        <time>2022-11-09T12:59:43Z</time>
      </trkpt>
      <trkpt lat="49.92428" lon="2.19059">
        <ele>64.9</ele>
        <time>2022-11-09T12:59:44Z</time>
      </trkpt>
      <trkpt lat="49.92428" lon="2.19059">
        <ele>64.9</ele>
        <time>2022-11-09T12:59:45Z</time>
      </trkpt>
      <trkpt lat="49.92428" lon="2.19059">
        <ele>64.9</ele>
        <time>2022-11-09T12:59:46Z</time>
      </trkpt>
      <trkpt lat="49.92428" lon="2.19059">
        <ele>64.9</ele>
        <time>2022-11-09T12:59:47Z</time>
      </trkpt>
      <trkpt lat="49.92428" lon="2.19059">
        <ele>64.9</ele>
        <time>2022-11-09T12:59:48Z</time>
      </trkpt>
      <trkpt lat="49.92428" lon="2.19059">
        <ele>64.9</ele>
        <time>2022-11-09T12:59:49Z</time>
      </trkpt>
      <trkpt lat="49.92428" lon="2.19059">
        <ele>64.9</ele>
        <time>2022-11-09T12:59:50Z</time>
      </trkpt>
      <trkpt lat="49.92428" lon="2.19059">
        <ele>64.9</ele>
        <time>2022-11-09T12:59:51Z</time>
      </trkpt>
      <trkpt lat="49.92428" lon="2.19059">
        <ele>64.9</ele>
        <time>2022-11-09T12:59:52Z</time>
      </trkpt>
      <trkpt lat="49.92428" lon="2.19059">
        <ele>64.9</ele>
        <time>2022-11-09T12:59:53Z</time>
      </trkpt>
      <trkpt lat="49.92428" lon="2.19059">
        <ele>64.9</ele>
        <time>2022-11-09T12:59:54Z</time>
      </trkpt>
      <trkpt lat="49.92428" lon="2.19059">
        <ele>64.9</ele>
        <time>2022-11-09T12:59:55Z</time>
      </trkpt>
      <trkpt lat="49.92428" lon="2.19059">
        <ele>64.9</ele>
        <time>2022-11-09T12:59:56Z</time>
      </trkpt>
      <trkpt lat="49.92428" lon="2.19059">
        <ele>64.9</ele>
        <time>2022-11-09T12:59:57Z</time>
      </trkpt>
      <trkpt lat="49.92428" lon="2.19059">
        <ele>64.9</ele>
        <time>2022-11-09T12:59:58Z</time>
      </trkpt>
      <trkpt lat="49.92428" lon="2.19059">
        <ele>64.9</ele>
        <time>2022-11-09T12:59:59Z</time>
      </trkpt>
      <trkpt lat="49.92428" lon="2.19059">
        <ele>64.9</ele>
        <time>2022-11-09T13:00:00Z</time>
      </trkpt>
      <trkpt lat="49.92428" lon="2.19059">
        <ele>64.9</ele>
        <time>2022-11-09T13:00:01Z</time>
      </trkpt>
      <trkpt lat="49.92428" lon="2.19059">
        <ele>64.9</ele>
        <time>2022-11-09T13:00:02Z</time>
      </trkpt>
      <trkpt lat="49.92428" lon="2.19059">
        <ele>64.9</ele>
        <time>2022-11-09T13:00:03Z</time>
      </trkpt>
      <trkpt lat="49.92428" lon="2.19059">
        <ele>64.9</ele>
        <time>2022-11-09T13:00:04Z</time>
      </trkpt>
      <trkpt lat="49.92428" lon="2.19059">
        <ele>64.9</ele>
        <time>2022-11-09T13:00:05Z</time>
      </trkpt>
      <trkpt lat="49.92428" lon="2.19059">
        <ele>64.9</ele>
        <time>2022-11-09T13:00:06Z</time>
      </trkpt>
      <trkpt lat="49.92428" lon="2.19059">
        <ele>64.9</ele>
        <time>2022-11-09T13:00:07Z</time>
      </trkpt>
      <trkpt lat="49.92428" lon="2.19059">
        <ele>64.9</ele>
        <time>2022-11-09T13:00:08Z</time>
      </trkpt>
      <trkpt lat="49.92428" lon="2.19059">
        <ele>64.9</ele>
        <time>2022-11-09T13:00:09Z</time>
      </trkpt>
      <trkpt lat="49.92428" lon="2.19059">
        <ele>64.9</ele>
        <time>2022-11-09T13:00:10Z</time>
      </trkpt>
      <trkpt lat="49.92428" lon="2.19058">
        <ele>64.9</ele>
        <time>2022-11-09T13:00:11Z</time>
      </trkpt>
      <trkpt lat="49.92428" lon="2.19058">
        <ele>64.9</ele>
        <time>2022-11-09T13:00:12Z</time>
      </trkpt>
      <trkpt lat="49.92428" lon="2.19058">
        <ele>64.9</ele>
        <time>2022-11-09T13:00:13Z</time>
      </trkpt>
      <trkpt lat="49.92428" lon="2.19058">
        <ele>64.9</ele>
        <time>2022-11-09T13:00:14Z</time>
      </trkpt>
      <trkpt lat="49.92428" lon="2.19058">
        <ele>64.9</ele>
        <time>2022-11-09T13:00:15Z</time>
      </trkpt>
      <trkpt lat="49.92428" lon="2.19058">
        <ele>64.9</ele>
        <time>2022-11-09T13:00:16Z</time>
      </trkpt>
      <trkpt lat="49.92428" lon="2.19058">
        <ele>64.9</ele>
        <time>2022-11-09T13:00:17Z</time>
      </trkpt>
      <trkpt lat="49.92428" lon="2.19058">
        <ele>64.9</ele>
        <time>2022-11-09T13:00:18Z</time>
      </trkpt>
      <trkpt lat="49.92428" lon="2.19058">
        <ele>64.9</ele>
        <time>2022-11-09T13:00:19Z</time>
      </trkpt>
      <trkpt lat="49.92428" lon="2.19058">
        <ele>64.9</ele>
        <time>2022-11-09T13:00:20Z</time>
      </trkpt>
      <trkpt lat="49.92428" lon="2.19058">
        <ele>64.9</ele>
        <time>2022-11-09T13:00:21Z</time>
      </trkpt>
      <trkpt lat="49.92428" lon="2.19058">
        <ele>64.9</ele>
        <time>2022-11-09T13:00:22Z</time>
      </trkpt>
      <trkpt lat="49.92428" lon="2.19058">
        <ele>64.9</ele>
        <time>2022-11-09T13:00:23Z</time>
      </trkpt>
      <trkpt lat="49.92428" lon="2.19058">
        <ele>64.9</ele>
        <time>2022-11-09T13:00:24Z</time>
      </trkpt>
      <trkpt lat="49.92428" lon="2.19058">
        <ele>64.9</ele>
        <time>2022-11-09T13:00:25Z</time>
      </trkpt>
      <trkpt lat="49.92428" lon="2.19058">
        <ele>64.9</ele>
        <time>2022-11-09T13:00:26Z</time>
      </trkpt>
      <trkpt lat="49.92428" lon="2.19058">
        <ele>64.9</ele>
        <time>2022-11-09T13:00:27Z</time>
      </trkpt>
      <trkpt lat="49.92428" lon="2.19058">
        <ele>64.9</ele>
        <time>2022-11-09T13:00:28Z</time>
      </trkpt>
      <trkpt lat="49.92428" lon="2.19058">
        <ele>64.9</ele>
        <time>2022-11-09T13:00:29Z</time>
      </trkpt>
      <trkpt lat="49.92428" lon="2.19058">
        <ele>64.9</ele>
        <time>2022-11-09T13:00:30Z</time>
      </trkpt>
      <trkpt lat="49.92428" lon="2.19058">
        <ele>64.9</ele>
        <time>2022-11-09T13:00:31Z</time>
      </trkpt>
      <trkpt lat="49.92428" lon="2.19058">
        <ele>64.9</ele>
        <time>2022-11-09T13:00:32Z</time>
      </trkpt>
      <trkpt lat="49.92428" lon="2.19058">
        <ele>64.9</ele>
        <time>2022-11-09T13:00:33Z</time>
      </trkpt>
      <trkpt lat="49.92428" lon="2.19058">
        <ele>64.9</ele>
        <time>2022-11-09T13:00:34Z</time>
      </trkpt>
      <trkpt lat="49.92428" lon="2.19058">
        <ele>64.9</ele>
        <time>2022-11-09T13:00:35Z</time>
      </trkpt>
      <trkpt lat="49.92428" lon="2.19058">
        <ele>64.9</ele>
        <time>2022-11-09T13:00:36Z</time>
      </trkpt>
      <trkpt lat="49.92428" lon="2.19058">
        <ele>64.9</ele>
        <time>2022-11-09T13:00:37Z</time>
      </trkpt>
      <trkpt lat="49.92428" lon="2.19058">
        <ele>64.9</ele>
        <time>2022-11-09T13:00:38Z</time>
      </trkpt>
      <trkpt lat="49.92428" lon="2.19058">
        <ele>64.9</ele>
        <time>2022-11-09T13:00:39Z</time>
      </trkpt>
      <trkpt lat="49.92428" lon="2.19058">
        <ele>64.9</ele>
        <time>2022-11-09T13:00:40Z</time>
      </trkpt>
      <trkpt lat="49.92428" lon="2.19058">
        <ele>64.9</ele>
        <time>2022-11-09T13:00:41Z</time>
      </trkpt>
      <trkpt lat="49.92428" lon="2.19058">
        <ele>64.9</ele>
        <time>2022-11-09T13:00:42Z</time>
      </trkpt>
      <trkpt lat="49.92428" lon="2.19058">
        <ele>64.9</ele>
        <time>2022-11-09T13:00:43Z</time>
      </trkpt>
      <trkpt lat="49.92428" lon="2.19058">
        <ele>64.9</ele>
        <time>2022-11-09T13:00:44Z</time>
      </trkpt>
      <trkpt lat="49.92428" lon="2.19058">
        <ele>64.9</ele>
        <time>2022-11-09T13:00:45Z</time>
      </trkpt>
      <trkpt lat="49.92428" lon="2.19058">
        <ele>64.9</ele>
        <time>2022-11-09T13:00:46Z</time>
      </trkpt>
      <trkpt lat="49.92428" lon="2.19058">
        <ele>64.9</ele>
        <time>2022-11-09T13:00:47Z</time>
      </trkpt>
      <trkpt lat="49.92428" lon="2.19058">
        <ele>64.9</ele>
        <time>2022-11-09T13:00:48Z</time>
      </trkpt>
      <trkpt lat="49.92428" lon="2.19058">
        <ele>64.9</ele>
        <time>2022-11-09T13:00:49Z</time>
      </trkpt>
      <trkpt lat="49.92428" lon="2.19058">
        <ele>64.9</ele>
        <time>2022-11-09T13:00:50Z</time>
      </trkpt>
      <trkpt lat="49.92428" lon="2.19058">
        <ele>64.9</ele>
        <time>2022-11-09T13:00:51Z</time>
      </trkpt>
      <trkpt lat="49.92428" lon="2.19058">
        <ele>64.9</ele>
        <time>2022-11-09T13:00:52Z</time>
      </trkpt>
      <trkpt lat="49.92428" lon="2.19058">
        <ele>64.9</ele>
        <time>2022-11-09T13:00:53Z</time>
      </trkpt>
      <trkpt lat="49.92428" lon="2.19058">
        <ele>64.9</ele>
        <time>2022-11-09T13:00:54Z</time>
      </trkpt>
      <trkpt lat="49.92428" lon="2.19058">
        <ele>64.9</ele>
        <time>2022-11-09T13:00:55Z</time>
      </trkpt>
      <trkpt lat="49.92428" lon="2.19058">
        <ele>64.9</ele>
        <time>2022-11-09T13:00:56Z</time>
      </trkpt>
      <trkpt lat="49.92428" lon="2.19058">
        <ele>64.9</ele>
        <time>2022-11-09T13:00:57Z</time>
      </trkpt>
      <trkpt lat="49.92428" lon="2.19058">
        <ele>64.9</ele>
        <time>2022-11-09T13:00:58Z</time>
      </trkpt>
      <trkpt lat="49.92428" lon="2.19058">
        <ele>64.9</ele>
        <time>2022-11-09T13:00:59Z</time>
      </trkpt>
      <trkpt lat="49.92428" lon="2.19058">
        <ele>64.9</ele>
        <time>2022-11-09T13:01:00Z</time>
      </trkpt>
      <trkpt lat="49.92428" lon="2.19058">
        <ele>64.9</ele>
        <time>2022-11-09T13:01:01Z</time>
      </trkpt>
      <trkpt lat="49.92428" lon="2.19058">
        <ele>64.9</ele>
        <time>2022-11-09T13:01:02Z</time>
      </trkpt>
      <trkpt lat="49.92428" lon="2.19058">
        <ele>64.9</ele>
        <time>2022-11-09T13:01:03Z</time>
      </trkpt>
      <trkpt lat="49.92428" lon="2.19058">
        <ele>64.9</ele>
        <time>2022-11-09T13:01:04Z</time>
      </trkpt>
      <trkpt lat="49.92428" lon="2.19058">
        <ele>64.9</ele>
        <time>2022-11-09T13:01:05Z</time>
      </trkpt>
      <trkpt lat="49.92428" lon="2.19058">
        <ele>64.9</ele>
        <time>2022-11-09T13:01:06Z</time>
      </trkpt>
      <trkpt lat="49.92428" lon="2.19058">
        <ele>64.9</ele>
        <time>2022-11-09T13:01:07Z</time>
      </trkpt>
      <trkpt lat="49.92428" lon="2.19058">
        <ele>64.9</ele>
        <time>2022-11-09T13:01:08Z</time>
      </trkpt>
      <trkpt lat="49.92428" lon="2.19058">
        <ele>64.9</ele>
        <time>2022-11-09T13:01:09Z</time>
      </trkpt>
      <trkpt lat="49.92428" lon="2.19057">
        <ele>64.9</ele>
        <time>2022-11-09T13:01:10Z</time>
      </trkpt>
      <trkpt lat="49.92428" lon="2.19057">
        <ele>64.9</ele>
        <time>2022-11-09T13:01:11Z</time>
      </trkpt>
      <trkpt lat="49.92428" lon="2.19057">
        <ele>64.9</ele>
        <time>2022-11-09T13:01:12Z</time>
      </trkpt>
      <trkpt lat="49.92428" lon="2.19057">
        <ele>64.9</ele>
        <time>2022-11-09T13:01:13Z</time>
      </trkpt>
      <trkpt lat="49.92428" lon="2.19057">
        <ele>64.9</ele>
        <time>2022-11-09T13:01:14Z</time>
      </trkpt>
      <trkpt lat="49.92428" lon="2.19057">
        <ele>64.9</ele>
        <time>2022-11-09T13:01:15Z</time>
      </trkpt>
      <trkpt lat="49.92428" lon="2.19057">
        <ele>64.9</ele>
        <time>2022-11-09T13:01:16Z</time>
      </trkpt>
      <trkpt lat="49.92428" lon="2.19057">
        <ele>64.9</ele>
        <time>2022-11-09T13:01:17Z</time>
      </trkpt>
      <trkpt lat="49.92428" lon="2.19057">
        <ele>64.9</ele>
        <time>2022-11-09T13:01:18Z</time>
      </trkpt>
      <trkpt lat="49.92428" lon="2.19057">
        <ele>64.9</ele>
        <time>2022-11-09T13:01:19Z</time>
      </trkpt>
      <trkpt lat="49.92428" lon="2.19057">
        <ele>64.9</ele>
        <time>2022-11-09T13:01:20Z</time>
      </trkpt>
      <trkpt lat="49.92428" lon="2.19057">
        <ele>64.9</ele>
        <time>2022-11-09T13:01:21Z</time>
      </trkpt>
      <trkpt lat="49.92428" lon="2.19057">
        <ele>64.9</ele>
        <time>2022-11-09T13:01:22Z</time>
      </trkpt>
      <trkpt lat="49.92428" lon="2.19057">
        <ele>64.9</ele>
        <time>2022-11-09T13:01:23Z</time>
      </trkpt>
      <trkpt lat="49.92428" lon="2.19057">
        <ele>64.9</ele>
        <time>2022-11-09T13:01:24Z</time>
      </trkpt>
      <trkpt lat="49.92428" lon="2.19057">
        <ele>64.9</ele>
        <time>2022-11-09T13:01:25Z</time>
      </trkpt>
      <trkpt lat="49.92428" lon="2.19057">
        <ele>64.9</ele>
        <time>2022-11-09T13:01:26Z</time>
      </trkpt>
      <trkpt lat="49.92428" lon="2.19057">
        <ele>64.9</ele>
        <time>2022-11-09T13:01:27Z</time>
      </trkpt>
      <trkpt lat="49.92428" lon="2.19057">
        <ele>64.9</ele>
        <time>2022-11-09T13:01:28Z</time>
      </trkpt>
      <trkpt lat="49.92428" lon="2.19057">
        <ele>64.9</ele>
        <time>2022-11-09T13:01:29Z</time>
      </trkpt>
      <trkpt lat="49.92428" lon="2.19057">
        <ele>64.9</ele>
        <time>2022-11-09T13:01:30Z</time>
      </trkpt>
      <trkpt lat="49.92428" lon="2.19057">
        <ele>64.9</ele>
        <time>2022-11-09T13:01:31Z</time>
      </trkpt>
      <trkpt lat="49.92428" lon="2.19057">
        <ele>64.9</ele>
        <time>2022-11-09T13:01:32Z</time>
      </trkpt>
      <trkpt lat="49.92428" lon="2.19057">
        <ele>64.9</ele>
        <time>2022-11-09T13:01:33Z</time>
      </trkpt>
      <trkpt lat="49.92428" lon="2.19057">
        <ele>64.9</ele>
        <time>2022-11-09T13:01:34Z</time>
      </trkpt>
      <trkpt lat="49.92428" lon="2.19057">
        <ele>64.9</ele>
        <time>2022-11-09T13:01:35Z</time>
      </trkpt>
      <trkpt lat="49.92428" lon="2.19057">
        <ele>64.9</ele>
        <time>2022-11-09T13:01:36Z</time>
      </trkpt>
      <trkpt lat="49.92428" lon="2.19057">
        <ele>64.9</ele>
        <time>2022-11-09T13:01:37Z</time>
      </trkpt>
      <trkpt lat="49.92428" lon="2.19057">
        <ele>64.9</ele>
        <time>2022-11-09T13:01:38Z</time>
      </trkpt>
      <trkpt lat="49.92428" lon="2.19057">
        <ele>64.9</ele>
        <time>2022-11-09T13:01:39Z</time>
      </trkpt>
      <trkpt lat="49.92428" lon="2.19057">
        <ele>64.9</ele>
        <time>2022-11-09T13:01:40Z</time>
      </trkpt>
      <trkpt lat="49.92428" lon="2.19057">
        <ele>64.9</ele>
        <time>2022-11-09T13:01:41Z</time>
      </trkpt>
      <trkpt lat="49.92428" lon="2.19057">
        <ele>64.9</ele>
        <time>2022-11-09T13:01:42Z</time>
      </trkpt>
      <trkpt lat="49.92428" lon="2.19057">
        <ele>64.9</ele>
        <time>2022-11-09T13:01:43Z</time>
      </trkpt>
      <trkpt lat="49.92428" lon="2.19057">
        <ele>64.9</ele>
        <time>2022-11-09T13:01:44Z</time>
      </trkpt>
      <trkpt lat="49.92428" lon="2.19057">
        <ele>64.9</ele>
        <time>2022-11-09T13:01:45Z</time>
      </trkpt>
      <trkpt lat="49.92428" lon="2.19057">
        <ele>64.9</ele>
        <time>2022-11-09T13:01:46Z</time>
      </trkpt>
      <trkpt lat="49.92428" lon="2.19057">
        <ele>64.9</ele>
        <time>2022-11-09T13:01:47Z</time>
      </trkpt>
      <trkpt lat="49.92428" lon="2.19057">
        <ele>64.9</ele>
        <time>2022-11-09T13:01:48Z</time>
      </trkpt>
      <trkpt lat="49.92428" lon="2.19057">
        <ele>64.9</ele>
        <time>2022-11-09T13:01:49Z</time>
      </trkpt>
      <trkpt lat="49.92428" lon="2.19057">
        <ele>64.9</ele>
        <time>2022-11-09T13:01:50Z</time>
      </trkpt>
      <trkpt lat="49.92428" lon="2.19057">
        <ele>64.9</ele>
        <time>2022-11-09T13:01:51Z</time>
      </trkpt>
      <trkpt lat="49.92428" lon="2.19057">
        <ele>64.9</ele>
        <time>2022-11-09T13:01:52Z</time>
      </trkpt>
      <trkpt lat="49.92428" lon="2.19057">
        <ele>64.9</ele>
        <time>2022-11-09T13:01:53Z</time>
      </trkpt>
      <trkpt lat="49.92428" lon="2.19057">
        <ele>64.9</ele>
        <time>2022-11-09T13:01:54Z</time>
      </trkpt>
      <trkpt lat="49.92428" lon="2.19057">
        <ele>64.9</ele>
        <time>2022-11-09T13:01:55Z</time>
      </trkpt>
      <trkpt lat="49.92428" lon="2.19057">
        <ele>64.9</ele>
        <time>2022-11-09T13:01:56Z</time>
      </trkpt>
      <trkpt lat="49.92428" lon="2.19057">
        <ele>64.9</ele>
        <time>2022-11-09T13:01:57Z</time>
      </trkpt>
      <trkpt lat="49.92428" lon="2.19057">
        <ele>64.9</ele>
        <time>2022-11-09T13:01:58Z</time>
      </trkpt>
      <trkpt lat="49.92428" lon="2.19057">
        <ele>64.9</ele>
        <time>2022-11-09T13:01:59Z</time>
      </trkpt>
      <trkpt lat="49.92428" lon="2.19057">
        <ele>64.9</ele>
        <time>2022-11-09T13:02:00Z</time>
      </trkpt>
      <trkpt lat="49.92428" lon="2.19057">
        <ele>64.9</ele>
        <time>2022-11-09T13:02:01Z</time>
      </trkpt>
      <trkpt lat="49.92428" lon="2.19057">
        <ele>64.9</ele>
        <time>2022-11-09T13:02:02Z</time>
      </trkpt>
      <trkpt lat="49.92428" lon="2.19057">
        <ele>64.9</ele>
        <time>2022-11-09T13:02:03Z</time>
      </trkpt>
      <trkpt lat="49.92428" lon="2.19057">
        <ele>64.9</ele>
        <time>2022-11-09T13:02:04Z</time>
      </trkpt>
      <trkpt lat="49.92428" lon="2.19057">
        <ele>64.9</ele>
        <time>2022-11-09T13:02:05Z</time>
      </trkpt>
      <trkpt lat="49.92428" lon="2.19057">
        <ele>64.9</ele>
        <time>2022-11-09T13:02:06Z</time>
      </trkpt>
      <trkpt lat="49.92428" lon="2.19057">
        <ele>64.9</ele>
        <time>2022-11-09T13:02:07Z</time>
      </trkpt>
      <trkpt lat="49.92428" lon="2.19056">
        <ele>64.9</ele>
        <time>2022-11-09T13:02:08Z</time>
      </trkpt>
      <trkpt lat="49.92429" lon="2.19056">
        <ele>64.9</ele>
        <time>2022-11-09T13:02:09Z</time>
      </trkpt>
      <trkpt lat="49.92429" lon="2.19056">
        <ele>64.9</ele>
        <time>2022-11-09T13:02:10Z</time>
      </trkpt>
      <trkpt lat="49.92429" lon="2.19056">
        <ele>64.9</ele>
        <time>2022-11-09T13:02:11Z</time>
      </trkpt>
      <trkpt lat="49.92429" lon="2.19056">
        <ele>64.9</ele>
        <time>2022-11-09T13:02:12Z</time>
      </trkpt>
      <trkpt lat="49.92429" lon="2.19056">
        <ele>64.9</ele>
        <time>2022-11-09T13:02:13Z</time>
      </trkpt>
      <trkpt lat="49.92429" lon="2.19056">
        <ele>64.9</ele>
        <time>2022-11-09T13:02:14Z</time>
      </trkpt>
      <trkpt lat="49.92429" lon="2.19056">
        <ele>64.9</ele>
        <time>2022-11-09T13:02:15Z</time>
      </trkpt>
      <trkpt lat="49.92429" lon="2.19056">
        <ele>64.9</ele>
        <time>2022-11-09T13:02:16Z</time>
      </trkpt>
      <trkpt lat="49.92429" lon="2.19056">
        <ele>64.9</ele>
        <time>2022-11-09T13:02:17Z</time>
      </trkpt>
      <trkpt lat="49.92429" lon="2.19056">
        <ele>64.9</ele>
        <time>2022-11-09T13:02:18Z</time>
      </trkpt>
      <trkpt lat="49.92429" lon="2.19056">
        <ele>64.9</ele>
        <time>2022-11-09T13:02:19Z</time>
      </trkpt>
      <trkpt lat="49.92429" lon="2.19056">
        <ele>64.9</ele>
        <time>2022-11-09T13:02:20Z</time>
      </trkpt>
      <trkpt lat="49.92429" lon="2.19056">
        <ele>64.9</ele>
        <time>2022-11-09T13:02:21Z</time>
      </trkpt>
      <trkpt lat="49.92429" lon="2.19056">
        <ele>64.9</ele>
        <time>2022-11-09T13:02:22Z</time>
      </trkpt>
      <trkpt lat="49.92429" lon="2.19056">
        <ele>64.9</ele>
        <time>2022-11-09T13:02:23Z</time>
      </trkpt>
      <trkpt lat="49.92429" lon="2.19056">
        <ele>64.9</ele>
        <time>2022-11-09T13:02:24Z</time>
      </trkpt>
      <trkpt lat="49.92429" lon="2.19056">
        <ele>64.9</ele>
        <time>2022-11-09T13:02:25Z</time>
      </trkpt>
      <trkpt lat="49.92429" lon="2.19056">
        <ele>64.9</ele>
        <time>2022-11-09T13:02:26Z</time>
      </trkpt>
      <trkpt lat="49.92429" lon="2.19056">
        <ele>64.9</ele>
        <time>2022-11-09T13:02:27Z</time>
      </trkpt>
      <trkpt lat="49.92429" lon="2.19056">
        <ele>64.9</ele>
        <time>2022-11-09T13:02:28Z</time>
      </trkpt>
      <trkpt lat="49.92429" lon="2.19056">
        <ele>64.9</ele>
        <time>2022-11-09T13:02:29Z</time>
      </trkpt>
      <trkpt lat="49.92429" lon="2.19056">
        <ele>64.9</ele>
        <time>2022-11-09T13:02:30Z</time>
      </trkpt>
      <trkpt lat="49.92429" lon="2.19056">
        <ele>64.9</ele>
        <time>2022-11-09T13:02:31Z</time>
      </trkpt>
      <trkpt lat="49.92429" lon="2.19056">
        <ele>64.9</ele>
        <time>2022-11-09T13:02:32Z</time>
      </trkpt>
      <trkpt lat="49.92429" lon="2.19056">
        <ele>64.9</ele>
        <time>2022-11-09T13:02:33Z</time>
      </trkpt>
      <trkpt lat="49.92429" lon="2.19056">
        <ele>64.9</ele>
        <time>2022-11-09T13:02:34Z</time>
      </trkpt>
      <trkpt lat="49.92429" lon="2.19056">
        <ele>64.9</ele>
        <time>2022-11-09T13:02:35Z</time>
      </trkpt>
      <trkpt lat="49.92429" lon="2.19056">
        <ele>64.9</ele>
        <time>2022-11-09T13:02:36Z</time>
      </trkpt>
      <trkpt lat="49.92429" lon="2.19056">
        <ele>64.9</ele>
        <time>2022-11-09T13:02:37Z</time>
      </trkpt>
      <trkpt lat="49.92429" lon="2.19056">
        <ele>64.9</ele>
        <time>2022-11-09T13:02:38Z</time>
      </trkpt>
      <trkpt lat="49.92429" lon="2.19056">
        <ele>64.9</ele>
        <time>2022-11-09T13:02:39Z</time>
      </trkpt>
      <trkpt lat="49.92429" lon="2.19056">
        <ele>64.9</ele>
        <time>2022-11-09T13:02:40Z</time>
      </trkpt>
      <trkpt lat="49.92429" lon="2.19056">
        <ele>64.9</ele>
        <time>2022-11-09T13:02:41Z</time>
      </trkpt>
      <trkpt lat="49.92429" lon="2.19056">
        <ele>64.9</ele>
        <time>2022-11-09T13:02:42Z</time>
      </trkpt>
      <trkpt lat="49.92429" lon="2.19056">
        <ele>64.9</ele>
        <time>2022-11-09T13:02:43Z</time>
      </trkpt>
      <trkpt lat="49.92429" lon="2.19056">
        <ele>64.9</ele>
        <time>2022-11-09T13:02:44Z</time>
      </trkpt>
      <trkpt lat="49.92429" lon="2.19056">
        <ele>64.9</ele>
        <time>2022-11-09T13:02:45Z</time>
      </trkpt>
      <trkpt lat="49.92429" lon="2.19056">
        <ele>64.9</ele>
        <time>2022-11-09T13:02:46Z</time>
      </trkpt>
      <trkpt lat="49.92429" lon="2.19056">
        <ele>64.9</ele>
        <time>2022-11-09T13:02:47Z</time>
      </trkpt>
      <trkpt lat="49.92429" lon="2.19056">
        <ele>64.9</ele>
        <time>2022-11-09T13:02:48Z</time>
      </trkpt>
      <trkpt lat="49.92429" lon="2.19056">
        <ele>64.9</ele>
        <time>2022-11-09T13:02:49Z</time>
      </trkpt>
      <trkpt lat="49.92429" lon="2.19056">
        <ele>64.9</ele>
        <time>2022-11-09T13:02:50Z</time>
      </trkpt>
      <trkpt lat="49.92429" lon="2.19056">
        <ele>64.9</ele>
        <time>2022-11-09T13:02:51Z</time>
      </trkpt>
      <trkpt lat="49.92429" lon="2.19056">
        <ele>64.9</ele>
        <time>2022-11-09T13:02:52Z</time>
      </trkpt>
      <trkpt lat="49.92429" lon="2.19056">
        <ele>64.9</ele>
        <time>2022-11-09T13:02:53Z</time>
      </trkpt>
      <trkpt lat="49.92429" lon="2.19056">
        <ele>64.9</ele>
        <time>2022-11-09T13:02:54Z</time>
      </trkpt>
      <trkpt lat="49.92429" lon="2.19056">
        <ele>64.9</ele>
        <time>2022-11-09T13:02:55Z</time>
      </trkpt>
      <trkpt lat="49.92429" lon="2.19056">
        <ele>64.9</ele>
        <time>2022-11-09T13:02:56Z</time>
      </trkpt>
      <trkpt lat="49.92429" lon="2.19056">
        <ele>64.9</ele>
        <time>2022-11-09T13:02:57Z</time>
      </trkpt>
      <trkpt lat="49.92429" lon="2.19056">
        <ele>64.9</ele>
        <time>2022-11-09T13:02:58Z</time>
      </trkpt>
      <trkpt lat="49.92429" lon="2.19056">
        <ele>64.9</ele>
        <time>2022-11-09T13:02:59Z</time>
      </trkpt>
      <trkpt lat="49.92429" lon="2.19056">
        <ele>64.9</ele>
        <time>2022-11-09T13:03:00Z</time>
      </trkpt>
      <trkpt lat="49.92429" lon="2.19056">
        <ele>64.9</ele>
        <time>2022-11-09T13:03:01Z</time>
      </trkpt>
      <trkpt lat="49.92429" lon="2.19056">
        <ele>64.9</ele>
        <time>2022-11-09T13:03:02Z</time>
      </trkpt>
      <trkpt lat="49.92429" lon="2.19056">
        <ele>64.9</ele>
        <time>2022-11-09T13:03:03Z</time>
      </trkpt>
      <trkpt lat="49.92429" lon="2.19056">
        <ele>64.9</ele>
        <time>2022-11-09T13:03:04Z</time>
      </trkpt>
      <trkpt lat="49.92429" lon="2.19056">
        <ele>64.9</ele>
        <time>2022-11-09T13:03:05Z</time>
      </trkpt>
      <trkpt lat="49.92429" lon="2.19055">
        <ele>64.9</ele>
        <time>2022-11-09T13:03:06Z</time>
      </trkpt>
      <trkpt lat="49.92429" lon="2.19055">
        <ele>64.9</ele>
        <time>2022-11-09T13:03:07Z</time>
      </trkpt>
      <trkpt lat="49.92429" lon="2.19055">
        <ele>64.9</ele>
        <time>2022-11-09T13:03:08Z</time>
      </trkpt>
      <trkpt lat="49.92429" lon="2.19055">
        <ele>64.9</ele>
        <time>2022-11-09T13:03:09Z</time>
      </trkpt>
      <trkpt lat="49.92429" lon="2.19055">
        <ele>64.9</ele>
        <time>2022-11-09T13:03:10Z</time>
      </trkpt>
      <trkpt lat="49.92429" lon="2.19055">
        <ele>64.9</ele>
        <time>2022-11-09T13:03:11Z</time>
      </trkpt>
      <trkpt lat="49.92429" lon="2.19055">
        <ele>65</ele>
        <time>2022-11-09T13:03:12Z</time>
      </trkpt>
      <trkpt lat="49.92429" lon="2.19055">
        <ele>65</ele>
        <time>2022-11-09T13:03:13Z</time>
      </trkpt>
      <trkpt lat="49.92429" lon="2.19055">
        <ele>65</ele>
        <time>2022-11-09T13:03:14Z</time>
      </trkpt>
      <trkpt lat="49.92429" lon="2.19055">
        <ele>65</ele>
        <time>2022-11-09T13:03:15Z</time>
      </trkpt>
      <trkpt lat="49.92429" lon="2.19055">
        <ele>65</ele>
        <time>2022-11-09T13:03:16Z</time>
      </trkpt>
      <trkpt lat="49.92429" lon="2.19055">
        <ele>65</ele>
        <time>2022-11-09T13:03:17Z</time>
      </trkpt>
      <trkpt lat="49.92429" lon="2.19055">
        <ele>65</ele>
        <time>2022-11-09T13:03:18Z</time>
      </trkpt>
      <trkpt lat="49.92429" lon="2.19055">
        <ele>65</ele>
        <time>2022-11-09T13:03:19Z</time>
      </trkpt>
      <trkpt lat="49.92429" lon="2.19055">
        <ele>65</ele>
        <time>2022-11-09T13:03:20Z</time>
      </trkpt>
      <trkpt lat="49.92429" lon="2.19055">
        <ele>65</ele>
        <time>2022-11-09T13:03:21Z</time>
      </trkpt>
      <trkpt lat="49.92429" lon="2.19055">
        <ele>65</ele>
        <time>2022-11-09T13:03:22Z</time>
      </trkpt>
      <trkpt lat="49.92429" lon="2.19055">
        <ele>65</ele>
        <time>2022-11-09T13:03:23Z</time>
      </trkpt>
      <trkpt lat="49.92429" lon="2.19055">
        <ele>65</ele>
        <time>2022-11-09T13:03:24Z</time>
      </trkpt>
      <trkpt lat="49.92429" lon="2.19055">
        <ele>65</ele>
        <time>2022-11-09T13:03:25Z</time>
      </trkpt>
      <trkpt lat="49.92429" lon="2.19055">
        <ele>65</ele>
        <time>2022-11-09T13:03:26Z</time>
      </trkpt>
      <trkpt lat="49.92429" lon="2.19055">
        <ele>65</ele>
        <time>2022-11-09T13:03:27Z</time>
      </trkpt>
      <trkpt lat="49.92429" lon="2.19055">
        <ele>65</ele>
        <time>2022-11-09T13:03:28Z</time>
      </trkpt>
      <trkpt lat="49.92429" lon="2.19055">
        <ele>65</ele>
        <time>2022-11-09T13:03:29Z</time>
      </trkpt>
      <trkpt lat="49.92429" lon="2.19055">
        <ele>65</ele>
        <time>2022-11-09T13:03:30Z</time>
      </trkpt>
      <trkpt lat="49.92429" lon="2.19055">
        <ele>65</ele>
        <time>2022-11-09T13:03:31Z</time>
      </trkpt>
      <trkpt lat="49.92429" lon="2.19055">
        <ele>65</ele>
        <time>2022-11-09T13:03:32Z</time>
      </trkpt>
      <trkpt lat="49.92429" lon="2.19055">
        <ele>65</ele>
        <time>2022-11-09T13:03:33Z</time>
      </trkpt>
      <trkpt lat="49.92429" lon="2.19055">
        <ele>65</ele>
        <time>2022-11-09T13:03:34Z</time>
      </trkpt>
      <trkpt lat="49.92429" lon="2.19055">
        <ele>65</ele>
        <time>2022-11-09T13:03:35Z</time>
      </trkpt>
      <trkpt lat="49.92429" lon="2.19055">
        <ele>65</ele>
        <time>2022-11-09T13:03:36Z</time>
      </trkpt>
      <trkpt lat="49.92429" lon="2.19055">
        <ele>65</ele>
        <time>2022-11-09T13:03:37Z</time>
      </trkpt>
      <trkpt lat="49.92429" lon="2.19055">
        <ele>65</ele>
        <time>2022-11-09T13:03:38Z</time>
      </trkpt>
      <trkpt lat="49.92429" lon="2.19055">
        <ele>65</ele>
        <time>2022-11-09T13:03:39Z</time>
      </trkpt>
      <trkpt lat="49.92429" lon="2.19055">
        <ele>65</ele>
        <time>2022-11-09T13:03:40Z</time>
      </trkpt>
      <trkpt lat="49.92429" lon="2.19055">
        <ele>65</ele>
        <time>2022-11-09T13:03:41Z</time>
      </trkpt>
      <trkpt lat="49.92429" lon="2.19055">
        <ele>65</ele>
        <time>2022-11-09T13:03:42Z</time>
      </trkpt>
      <trkpt lat="49.92429" lon="2.19055">
        <ele>65</ele>
        <time>2022-11-09T13:03:43Z</time>
      </trkpt>
      <trkpt lat="49.92429" lon="2.19055">
        <ele>65</ele>
        <time>2022-11-09T13:03:44Z</time>
      </trkpt>
      <trkpt lat="49.92429" lon="2.19055">
        <ele>65</ele>
        <time>2022-11-09T13:03:45Z</time>
      </trkpt>
      <trkpt lat="49.92429" lon="2.19055">
        <ele>65</ele>
        <time>2022-11-09T13:03:46Z</time>
      </trkpt>
      <trkpt lat="49.92429" lon="2.19055">
        <ele>65</ele>
        <time>2022-11-09T13:03:47Z</time>
      </trkpt>
      <trkpt lat="49.92429" lon="2.19055">
        <ele>65</ele>
        <time>2022-11-09T13:03:48Z</time>
      </trkpt>
      <trkpt lat="49.92429" lon="2.19055">
        <ele>65</ele>
        <time>2022-11-09T13:03:49Z</time>
      </trkpt>
      <trkpt lat="49.92429" lon="2.19055">
        <ele>65</ele>
        <time>2022-11-09T13:03:50Z</time>
      </trkpt>
      <trkpt lat="49.92429" lon="2.19055">
        <ele>65</ele>
        <time>2022-11-09T13:03:51Z</time>
      </trkpt>
      <trkpt lat="49.92429" lon="2.19055">
        <ele>65</ele>
        <time>2022-11-09T13:03:52Z</time>
      </trkpt>
      <trkpt lat="49.92429" lon="2.19055">
        <ele>65</ele>
        <time>2022-11-09T13:03:53Z</time>
      </trkpt>
      <trkpt lat="49.92429" lon="2.19055">
        <ele>65</ele>
        <time>2022-11-09T13:03:54Z</time>
      </trkpt>
      <trkpt lat="49.92429" lon="2.19055">
        <ele>65</ele>
        <time>2022-11-09T13:03:55Z</time>
      </trkpt>
      <trkpt lat="49.92429" lon="2.19055">
        <ele>65</ele>
        <time>2022-11-09T13:03:56Z</time>
      </trkpt>
      <trkpt lat="49.92429" lon="2.19055">
        <ele>65</ele>
        <time>2022-11-09T13:03:57Z</time>
      </trkpt>
      <trkpt lat="49.92429" lon="2.19055">
        <ele>65</ele>
        <time>2022-11-09T13:03:58Z</time>
      </trkpt>
      <trkpt lat="49.92429" lon="2.19055">
        <ele>65</ele>
        <time>2022-11-09T13:03:59Z</time>
      </trkpt>
      <trkpt lat="49.92429" lon="2.19055">
        <ele>65</ele>
        <time>2022-11-09T13:04:00Z</time>
      </trkpt>
      <trkpt lat="49.92429" lon="2.19055">
        <ele>65</ele>
        <time>2022-11-09T13:04:01Z</time>
      </trkpt>
      <trkpt lat="49.92429" lon="2.19055">
        <ele>65</ele>
        <time>2022-11-09T13:04:02Z</time>
      </trkpt>
      <trkpt lat="49.92429" lon="2.19055">
        <ele>65</ele>
        <time>2022-11-09T13:04:03Z</time>
      </trkpt>
      <trkpt lat="49.92429" lon="2.19055">
        <ele>65</ele>
        <time>2022-11-09T13:04:04Z</time>
      </trkpt>
      <trkpt lat="49.92429" lon="2.19054">
        <ele>65</ele>
        <time>2022-11-09T13:04:05Z</time>
      </trkpt>
      <trkpt lat="49.92429" lon="2.19054">
        <ele>65</ele>
        <time>2022-11-09T13:04:06Z</time>
      </trkpt>
      <trkpt lat="49.92429" lon="2.19054">
        <ele>65</ele>
        <time>2022-11-09T13:04:07Z</time>
      </trkpt>
      <trkpt lat="49.92429" lon="2.19054">
        <ele>65</ele>
        <time>2022-11-09T13:04:08Z</time>
      </trkpt>
      <trkpt lat="49.92429" lon="2.19054">
        <ele>65</ele>
        <time>2022-11-09T13:04:09Z</time>
      </trkpt>
      <trkpt lat="49.92429" lon="2.19054">
        <ele>65</ele>
        <time>2022-11-09T13:04:10Z</time>
      </trkpt>
      <trkpt lat="49.92429" lon="2.19054">
        <ele>65</ele>
        <time>2022-11-09T13:04:11Z</time>
      </trkpt>
      <trkpt lat="49.92429" lon="2.19054">
        <ele>65</ele>
        <time>2022-11-09T13:04:12Z</time>
      </trkpt>
      <trkpt lat="49.92429" lon="2.19054">
        <ele>65</ele>
        <time>2022-11-09T13:04:13Z</time>
      </trkpt>
      <trkpt lat="49.92429" lon="2.19054">
        <ele>65</ele>
        <time>2022-11-09T13:04:14Z</time>
      </trkpt>
      <trkpt lat="49.92429" lon="2.19054">
        <ele>65</ele>
        <time>2022-11-09T13:04:15Z</time>
      </trkpt>
      <trkpt lat="49.92429" lon="2.19054">
        <ele>65</ele>
        <time>2022-11-09T13:04:16Z</time>
      </trkpt>
      <trkpt lat="49.92429" lon="2.19054">
        <ele>65</ele>
        <time>2022-11-09T13:04:17Z</time>
      </trkpt>
      <trkpt lat="49.92429" lon="2.19054">
        <ele>65</ele>
        <time>2022-11-09T13:04:18Z</time>
      </trkpt>
      <trkpt lat="49.92429" lon="2.19054">
        <ele>65</ele>
        <time>2022-11-09T13:04:19Z</time>
      </trkpt>
      <trkpt lat="49.92429" lon="2.19054">
        <ele>65</ele>
        <time>2022-11-09T13:04:20Z</time>
      </trkpt>
      <trkpt lat="49.92429" lon="2.19054">
        <ele>65</ele>
        <time>2022-11-09T13:04:21Z</time>
      </trkpt>
      <trkpt lat="49.92429" lon="2.19054">
        <ele>65</ele>
        <time>2022-11-09T13:04:22Z</time>
      </trkpt>
      <trkpt lat="49.92429" lon="2.19054">
        <ele>65</ele>
        <time>2022-11-09T13:04:23Z</time>
      </trkpt>
      <trkpt lat="49.92429" lon="2.19054">
        <ele>65</ele>
        <time>2022-11-09T13:04:24Z</time>
      </trkpt>
      <trkpt lat="49.92429" lon="2.19054">
        <ele>65</ele>
        <time>2022-11-09T13:04:25Z</time>
      </trkpt>
      <trkpt lat="49.92429" lon="2.19054">
        <ele>65</ele>
        <time>2022-11-09T13:04:26Z</time>
      </trkpt>
      <trkpt lat="49.92429" lon="2.19054">
        <ele>65</ele>
        <time>2022-11-09T13:04:27Z</time>
      </trkpt>
      <trkpt lat="49.92429" lon="2.19054">
        <ele>65</ele>
        <time>2022-11-09T13:04:28Z</time>
      </trkpt>
      <trkpt lat="49.92429" lon="2.19054">
        <ele>65</ele>
        <time>2022-11-09T13:04:29Z</time>
      </trkpt>
      <trkpt lat="49.92429" lon="2.19054">
        <ele>65</ele>
        <time>2022-11-09T13:04:30Z</time>
      </trkpt>
      <trkpt lat="49.92429" lon="2.19054">
        <ele>65</ele>
        <time>2022-11-09T13:04:31Z</time>
      </trkpt>
      <trkpt lat="49.92429" lon="2.19054">
        <ele>65</ele>
        <time>2022-11-09T13:04:32Z</time>
      </trkpt>
      <trkpt lat="49.92429" lon="2.19054">
        <ele>65</ele>
        <time>2022-11-09T13:04:33Z</time>
      </trkpt>
      <trkpt lat="49.92429" lon="2.19054">
        <ele>65</ele>
        <time>2022-11-09T13:04:34Z</time>
      </trkpt>
      <trkpt lat="49.92429" lon="2.19054">
        <ele>65</ele>
        <time>2022-11-09T13:04:35Z</time>
      </trkpt>
      <trkpt lat="49.92429" lon="2.19054">
        <ele>65</ele>
        <time>2022-11-09T13:04:36Z</time>
      </trkpt>
      <trkpt lat="49.92429" lon="2.19054">
        <ele>65</ele>
        <time>2022-11-09T13:04:37Z</time>
      </trkpt>
      <trkpt lat="49.92429" lon="2.19054">
        <ele>65</ele>
        <time>2022-11-09T13:04:38Z</time>
      </trkpt>
      <trkpt lat="49.92429" lon="2.19054">
        <ele>65</ele>
        <time>2022-11-09T13:04:39Z</time>
      </trkpt>
      <trkpt lat="49.92429" lon="2.19054">
        <ele>65</ele>
        <time>2022-11-09T13:04:40Z</time>
      </trkpt>
      <trkpt lat="49.92429" lon="2.19054">
        <ele>65</ele>
        <time>2022-11-09T13:04:41Z</time>
      </trkpt>
      <trkpt lat="49.92429" lon="2.19054">
        <ele>65</ele>
        <time>2022-11-09T13:04:42Z</time>
      </trkpt>
      <trkpt lat="49.92429" lon="2.19054">
        <ele>65</ele>
        <time>2022-11-09T13:04:43Z</time>
      </trkpt>
      <trkpt lat="49.92429" lon="2.19054">
        <ele>65</ele>
        <time>2022-11-09T13:04:44Z</time>
      </trkpt>
      <trkpt lat="49.92429" lon="2.19054">
        <ele>65</ele>
        <time>2022-11-09T13:04:45Z</time>
      </trkpt>
      <trkpt lat="49.92429" lon="2.19054">
        <ele>65</ele>
        <time>2022-11-09T13:04:46Z</time>
      </trkpt>
      <trkpt lat="49.92429" lon="2.19054">
        <ele>65</ele>
        <time>2022-11-09T13:04:47Z</time>
      </trkpt>
      <trkpt lat="49.92429" lon="2.19054">
        <ele>65</ele>
        <time>2022-11-09T13:04:48Z</time>
      </trkpt>
      <trkpt lat="49.92429" lon="2.19054">
        <ele>65</ele>
        <time>2022-11-09T13:04:49Z</time>
      </trkpt>
      <trkpt lat="49.92429" lon="2.19054">
        <ele>65</ele>
        <time>2022-11-09T13:04:50Z</time>
      </trkpt>
      <trkpt lat="49.92429" lon="2.19054">
        <ele>65</ele>
        <time>2022-11-09T13:04:51Z</time>
      </trkpt>
      <trkpt lat="49.92429" lon="2.19054">
        <ele>65</ele>
        <time>2022-11-09T13:04:52Z</time>
      </trkpt>
      <trkpt lat="49.92429" lon="2.19054">
        <ele>65</ele>
        <time>2022-11-09T13:04:53Z</time>
      </trkpt>
      <trkpt lat="49.92429" lon="2.19054">
        <ele>65</ele>
        <time>2022-11-09T13:04:54Z</time>
      </trkpt>
      <trkpt lat="49.92429" lon="2.19054">
        <ele>65</ele>
        <time>2022-11-09T13:04:55Z</time>
      </trkpt>
      <trkpt lat="49.92429" lon="2.19054">
        <ele>65</ele>
        <time>2022-11-09T13:04:56Z</time>
      </trkpt>
      <trkpt lat="49.92429" lon="2.19054">
        <ele>65</ele>
        <time>2022-11-09T13:04:57Z</time>
      </trkpt>
      <trkpt lat="49.92429" lon="2.19054">
        <ele>65</ele>
        <time>2022-11-09T13:04:58Z</time>
      </trkpt>
      <trkpt lat="49.92429" lon="2.19054">
        <ele>65</ele>
        <time>2022-11-09T13:04:59Z</time>
      </trkpt>
      <trkpt lat="49.92429" lon="2.19054">
        <ele>65</ele>
        <time>2022-11-09T13:05:00Z</time>
      </trkpt>
      <trkpt lat="49.92429" lon="2.19054">
        <ele>65</ele>
        <time>2022-11-09T13:05:01Z</time>
      </trkpt>
      <trkpt lat="49.92429" lon="2.19054">
        <ele>65</ele>
        <time>2022-11-09T13:05:02Z</time>
      </trkpt>
      <trkpt lat="49.92429" lon="2.19053">
        <ele>65</ele>
        <time>2022-11-09T13:05:03Z</time>
      </trkpt>
      <trkpt lat="49.92429" lon="2.19053">
        <ele>65</ele>
        <time>2022-11-09T13:05:04Z</time>
      </trkpt>
      <trkpt lat="49.92429" lon="2.19053">
        <ele>65</ele>
        <time>2022-11-09T13:05:05Z</time>
      </trkpt>
      <trkpt lat="49.92429" lon="2.19053">
        <ele>65</ele>
        <time>2022-11-09T13:05:06Z</time>
      </trkpt>
      <trkpt lat="49.92429" lon="2.19053">
        <ele>65</ele>
        <time>2022-11-09T13:05:07Z</time>
      </trkpt>
      <trkpt lat="49.92429" lon="2.19053">
        <ele>65</ele>
        <time>2022-11-09T13:05:08Z</time>
      </trkpt>
      <trkpt lat="49.92429" lon="2.19053">
        <ele>65</ele>
        <time>2022-11-09T13:05:09Z</time>
      </trkpt>
      <trkpt lat="49.92429" lon="2.19053">
        <ele>65</ele>
        <time>2022-11-09T13:05:10Z</time>
      </trkpt>
      <trkpt lat="49.92429" lon="2.19053">
        <ele>65</ele>
        <time>2022-11-09T13:05:11Z</time>
      </trkpt>
      <trkpt lat="49.92429" lon="2.19053">
        <ele>65</ele>
        <time>2022-11-09T13:05:12Z</time>
      </trkpt>
      <trkpt lat="49.92429" lon="2.19053">
        <ele>65</ele>
        <time>2022-11-09T13:05:13Z</time>
      </trkpt>
      <trkpt lat="49.92429" lon="2.19053">
        <ele>65</ele>
        <time>2022-11-09T13:05:14Z</time>
      </trkpt>
      <trkpt lat="49.92429" lon="2.19053">
        <ele>65</ele>
        <time>2022-11-09T13:05:15Z</time>
      </trkpt>
      <trkpt lat="49.92429" lon="2.19053">
        <ele>65</ele>
        <time>2022-11-09T13:05:16Z</time>
      </trkpt>
      <trkpt lat="49.92429" lon="2.19053">
        <ele>65</ele>
        <time>2022-11-09T13:05:17Z</time>
      </trkpt>
      <trkpt lat="49.92429" lon="2.19053">
        <ele>65</ele>
        <time>2022-11-09T13:05:18Z</time>
      </trkpt>
      <trkpt lat="49.92429" lon="2.19053">
        <ele>65</ele>
        <time>2022-11-09T13:05:19Z</time>
      </trkpt>
      <trkpt lat="49.92429" lon="2.19053">
        <ele>65</ele>
        <time>2022-11-09T13:05:20Z</time>
      </trkpt>
      <trkpt lat="49.92429" lon="2.19053">
        <ele>65</ele>
        <time>2022-11-09T13:05:21Z</time>
      </trkpt>
      <trkpt lat="49.92429" lon="2.19053">
        <ele>65</ele>
        <time>2022-11-09T13:05:22Z</time>
      </trkpt>
      <trkpt lat="49.92429" lon="2.19053">
        <ele>65</ele>
        <time>2022-11-09T13:05:23Z</time>
      </trkpt>
      <trkpt lat="49.92429" lon="2.19053">
        <ele>65</ele>
        <time>2022-11-09T13:05:24Z</time>
      </trkpt>
      <trkpt lat="49.92429" lon="2.19053">
        <ele>65</ele>
        <time>2022-11-09T13:05:25Z</time>
      </trkpt>
      <trkpt lat="49.92429" lon="2.19053">
        <ele>65</ele>
        <time>2022-11-09T13:05:26Z</time>
      </trkpt>
      <trkpt lat="49.92429" lon="2.19053">
        <ele>65</ele>
        <time>2022-11-09T13:05:27Z</time>
      </trkpt>
      <trkpt lat="49.92429" lon="2.19053">
        <ele>65</ele>
        <time>2022-11-09T13:05:28Z</time>
      </trkpt>
      <trkpt lat="49.92429" lon="2.19053">
        <ele>65</ele>
        <time>2022-11-09T13:05:29Z</time>
      </trkpt>
      <trkpt lat="49.92429" lon="2.19053">
        <ele>65</ele>
        <time>2022-11-09T13:05:30Z</time>
      </trkpt>
      <trkpt lat="49.92429" lon="2.19053">
        <ele>65</ele>
        <time>2022-11-09T13:05:31Z</time>
      </trkpt>
      <trkpt lat="49.92429" lon="2.19053">
        <ele>65</ele>
        <time>2022-11-09T13:05:32Z</time>
      </trkpt>
      <trkpt lat="49.92429" lon="2.19053">
        <ele>65</ele>
        <time>2022-11-09T13:05:33Z</time>
      </trkpt>
      <trkpt lat="49.92429" lon="2.19053">
        <ele>65</ele>
        <time>2022-11-09T13:05:34Z</time>
      </trkpt>
      <trkpt lat="49.92429" lon="2.19053">
        <ele>65</ele>
        <time>2022-11-09T13:05:35Z</time>
      </trkpt>
      <trkpt lat="49.92429" lon="2.19053">
        <ele>65</ele>
        <time>2022-11-09T13:05:36Z</time>
      </trkpt>
      <trkpt lat="49.92429" lon="2.19053">
        <ele>65</ele>
        <time>2022-11-09T13:05:37Z</time>
      </trkpt>
      <trkpt lat="49.92429" lon="2.19053">
        <ele>65</ele>
        <time>2022-11-09T13:05:38Z</time>
      </trkpt>
      <trkpt lat="49.92429" lon="2.19053">
        <ele>65</ele>
        <time>2022-11-09T13:05:39Z</time>
      </trkpt>
      <trkpt lat="49.92429" lon="2.19053">
        <ele>65</ele>
        <time>2022-11-09T13:05:40Z</time>
      </trkpt>
      <trkpt lat="49.92429" lon="2.19053">
        <ele>65</ele>
        <time>2022-11-09T13:05:41Z</time>
      </trkpt>
      <trkpt lat="49.92429" lon="2.19053">
        <ele>65</ele>
        <time>2022-11-09T13:05:42Z</time>
      </trkpt>
      <trkpt lat="49.92429" lon="2.19053">
        <ele>65</ele>
        <time>2022-11-09T13:05:43Z</time>
      </trkpt>
      <trkpt lat="49.92429" lon="2.19053">
        <ele>65</ele>
        <time>2022-11-09T13:05:44Z</time>
      </trkpt>
      <trkpt lat="49.92429" lon="2.19053">
        <ele>65</ele>
        <time>2022-11-09T13:05:45Z</time>
      </trkpt>
      <trkpt lat="49.92429" lon="2.19053">
        <ele>65</ele>
        <time>2022-11-09T13:05:46Z</time>
      </trkpt>
      <trkpt lat="49.92429" lon="2.19053">
        <ele>65</ele>
        <time>2022-11-09T13:05:47Z</time>
      </trkpt>
      <trkpt lat="49.92429" lon="2.19053">
        <ele>65</ele>
        <time>2022-11-09T13:05:48Z</time>
      </trkpt>
      <trkpt lat="49.92429" lon="2.19053">
        <ele>65</ele>
        <time>2022-11-09T13:05:49Z</time>
      </trkpt>
      <trkpt lat="49.92429" lon="2.19053">
        <ele>65</ele>
        <time>2022-11-09T13:05:50Z</time>
      </trkpt>
      <trkpt lat="49.92429" lon="2.19053">
        <ele>65</ele>
        <time>2022-11-09T13:05:51Z</time>
      </trkpt>
      <trkpt lat="49.92429" lon="2.19053">
        <ele>65</ele>
        <time>2022-11-09T13:05:52Z</time>
      </trkpt>
      <trkpt lat="49.92429" lon="2.19053">
        <ele>65</ele>
        <time>2022-11-09T13:05:53Z</time>
      </trkpt>
      <trkpt lat="49.92429" lon="2.19053">
        <ele>65</ele>
        <time>2022-11-09T13:05:54Z</time>
      </trkpt>
      <trkpt lat="49.92429" lon="2.19053">
        <ele>65</ele>
        <time>2022-11-09T13:05:55Z</time>
      </trkpt>
      <trkpt lat="49.92429" lon="2.19053">
        <ele>65</ele>
        <time>2022-11-09T13:05:56Z</time>
      </trkpt>
      <trkpt lat="49.92429" lon="2.19053">
        <ele>65</ele>
        <time>2022-11-09T13:05:57Z</time>
      </trkpt>
      <trkpt lat="49.92429" lon="2.19053">
        <ele>65</ele>
        <time>2022-11-09T13:05:58Z</time>
      </trkpt>
      <trkpt lat="49.92429" lon="2.19053">
        <ele>65</ele>
        <time>2022-11-09T13:05:59Z</time>
      </trkpt>
      <trkpt lat="49.92429" lon="2.19053">
        <ele>65</ele>
        <time>2022-11-09T13:06:00Z</time>
      </trkpt>
      <trkpt lat="49.92429" lon="2.19053">
        <ele>65</ele>
        <time>2022-11-09T13:06:01Z</time>
      </trkpt>
      <trkpt lat="49.92429" lon="2.19052">
        <ele>65</ele>
        <time>2022-11-09T13:06:02Z</time>
      </trkpt>
      <trkpt lat="49.92429" lon="2.19052">
        <ele>65</ele>
        <time>2022-11-09T13:06:03Z</time>
      </trkpt>
      <trkpt lat="49.92429" lon="2.19052">
        <ele>65</ele>
        <time>2022-11-09T13:06:04Z</time>
      </trkpt>
      <trkpt lat="49.92429" lon="2.19052">
        <ele>65</ele>
        <time>2022-11-09T13:06:05Z</time>
      </trkpt>
      <trkpt lat="49.92429" lon="2.19052">
        <ele>65</ele>
        <time>2022-11-09T13:06:07Z</time>
      </trkpt>
      <trkpt lat="49.92429" lon="2.19052">
        <ele>65</ele>
        <time>2022-11-09T13:06:09Z</time>
      </trkpt>
      <trkpt lat="49.92429" lon="2.19052">
        <ele>65</ele>
        <time>2022-11-09T13:06:10Z</time>
      </trkpt>
      <trkpt lat="49.92429" lon="2.19052">
        <ele>65</ele>
        <time>2022-11-09T13:06:11Z</time>
      </trkpt>
      <trkpt lat="49.92429" lon="2.19052">
        <ele>65</ele>
        <time>2022-11-09T13:06:12Z</time>
      </trkpt>
      <trkpt lat="49.92429" lon="2.19052">
        <ele>65</ele>
        <time>2022-11-09T13:06:13Z</time>
      </trkpt>
      <trkpt lat="49.92429" lon="2.19052">
        <ele>65</ele>
        <time>2022-11-09T13:06:15Z</time>
      </trkpt>
      <trkpt lat="49.92429" lon="2.19052">
        <ele>65</ele>
        <time>2022-11-09T13:06:16Z</time>
      </trkpt>
      <trkpt lat="49.92429" lon="2.19052">
        <ele>65</ele>
        <time>2022-11-09T13:06:17Z</time>
      </trkpt>
      <trkpt lat="49.92429" lon="2.19052">
        <ele>65</ele>
        <time>2022-11-09T13:06:18Z</time>
      </trkpt>
      <trkpt lat="49.92429" lon="2.19052">
        <ele>65</ele>
        <time>2022-11-09T13:06:19Z</time>
      </trkpt>
      <trkpt lat="49.92429" lon="2.19052">
        <ele>65</ele>
        <time>2022-11-09T13:06:20Z</time>
      </trkpt>
      <trkpt lat="49.9243" lon="2.19048">
        <ele>65</ele>
        <time>2022-11-09T13:06:21Z</time>
      </trkpt>
      <trkpt lat="49.9243" lon="2.19046">
        <ele>65</ele>
        <time>2022-11-09T13:06:22Z</time>
      </trkpt>
      <trkpt lat="49.92431" lon="2.19043">
        <ele>65.1</ele>
        <time>2022-11-09T13:06:23Z</time>
      </trkpt>
      <trkpt lat="49.92432" lon="2.19041">
        <ele>65.1</ele>
        <time>2022-11-09T13:06:25Z</time>
      </trkpt>
      <trkpt lat="49.92433" lon="2.19039">
        <ele>65.1</ele>
        <time>2022-11-09T13:06:27Z</time>
      </trkpt>
      <trkpt lat="49.92434" lon="2.19037">
        <ele>65.1</ele>
        <time>2022-11-09T13:06:28Z</time>
      </trkpt>
      <trkpt lat="49.92435" lon="2.19036">
        <ele>65.1</ele>
        <time>2022-11-09T13:06:29Z</time>
      </trkpt>
      <trkpt lat="49.92435" lon="2.19035">
        <ele>65.1</ele>
        <time>2022-11-09T13:06:30Z</time>
      </trkpt>
      <trkpt lat="49.92435" lon="2.19034">
        <ele>65.1</ele>
        <time>2022-11-09T13:06:31Z</time>
      </trkpt>
      <trkpt lat="49.92436" lon="2.19032">
        <ele>65.2</ele>
        <time>2022-11-09T13:06:32Z</time>
      </trkpt>
      <trkpt lat="49.92437" lon="2.19031">
        <ele>65.2</ele>
        <time>2022-11-09T13:06:33Z</time>
      </trkpt>
      <trkpt lat="49.92438" lon="2.1903">
        <ele>65.2</ele>
        <time>2022-11-09T13:06:34Z</time>
      </trkpt>
      <trkpt lat="49.92437" lon="2.19029">
        <ele>65.2</ele>
        <time>2022-11-09T13:06:35Z</time>
      </trkpt>
      <trkpt lat="49.92438" lon="2.19027">
        <ele>65.2</ele>
        <time>2022-11-09T13:06:36Z</time>
      </trkpt>
      <trkpt lat="49.92438" lon="2.19026">
        <ele>65.2</ele>
        <time>2022-11-09T13:06:37Z</time>
      </trkpt>
      <trkpt lat="49.92437" lon="2.19025">
        <ele>65.2</ele>
        <time>2022-11-09T13:06:38Z</time>
      </trkpt>
      <trkpt lat="49.92437" lon="2.19023">
        <ele>65.2</ele>
        <time>2022-11-09T13:06:39Z</time>
      </trkpt>
      <trkpt lat="49.92437" lon="2.19021">
        <ele>65.2</ele>
        <time>2022-11-09T13:06:41Z</time>
      </trkpt>
      <trkpt lat="49.92438" lon="2.19022">
        <ele>65.2</ele>
        <time>2022-11-09T13:06:42Z</time>
      </trkpt>
      <trkpt lat="49.92439" lon="2.19022">
        <ele>65.2</ele>
        <time>2022-11-09T13:06:43Z</time>
      </trkpt>
      <trkpt lat="49.92439" lon="2.1902">
        <ele>65.2</ele>
        <time>2022-11-09T13:06:44Z</time>
      </trkpt>
      <trkpt lat="49.9244" lon="2.19018">
        <ele>65.2</ele>
        <time>2022-11-09T13:06:45Z</time>
      </trkpt>
      <trkpt lat="49.9244" lon="2.19017">
        <ele>65.2</ele>
        <time>2022-11-09T13:06:46Z</time>
      </trkpt>
      <trkpt lat="49.9244" lon="2.19016">
        <ele>65.3</ele>
        <time>2022-11-09T13:06:47Z</time>
      </trkpt>
      <trkpt lat="49.9244" lon="2.19014">
        <ele>65.3</ele>
        <time>2022-11-09T13:06:48Z</time>
      </trkpt>
      <trkpt lat="49.92441" lon="2.1901">
        <ele>65.3</ele>
        <time>2022-11-09T13:06:49Z</time>
      </trkpt>
      <trkpt lat="49.92441" lon="2.19008">
        <ele>65.3</ele>
        <time>2022-11-09T13:06:51Z</time>
      </trkpt>
      <trkpt lat="49.92441" lon="2.19006">
        <ele>65.3</ele>
        <time>2022-11-09T13:06:52Z</time>
      </trkpt>
      <trkpt lat="49.92441" lon="2.19004">
        <ele>65.3</ele>
        <time>2022-11-09T13:06:53Z</time>
      </trkpt>
      <trkpt lat="49.92442" lon="2.18999">
        <ele>65.3</ele>
        <time>2022-11-09T13:06:54Z</time>
      </trkpt>
      <trkpt lat="49.92442" lon="2.18997">
        <ele>65.3</ele>
        <time>2022-11-09T13:06:55Z</time>
      </trkpt>
      <trkpt lat="49.92443" lon="2.18992">
        <ele>65.3</ele>
        <time>2022-11-09T13:06:56Z</time>
      </trkpt>
      <trkpt lat="49.92444" lon="2.1899">
        <ele>65.3</ele>
        <time>2022-11-09T13:06:57Z</time>
      </trkpt>
      <trkpt lat="49.92445" lon="2.18988">
        <ele>65.3</ele>
        <time>2022-11-09T13:06:59Z</time>
      </trkpt>
      <trkpt lat="49.92445" lon="2.18986">
        <ele>65.3</ele>
        <time>2022-11-09T13:07:00Z</time>
      </trkpt>
      <trkpt lat="49.92446" lon="2.18983">
        <ele>65.3</ele>
        <time>2022-11-09T13:07:01Z</time>
      </trkpt>
      <trkpt lat="49.92447" lon="2.18981">
        <ele>65.3</ele>
        <time>2022-11-09T13:07:02Z</time>
      </trkpt>
      <trkpt lat="49.92447" lon="2.1898">
        <ele>65.3</ele>
        <time>2022-11-09T13:07:03Z</time>
      </trkpt>
      <trkpt lat="49.92448" lon="2.18976">
        <ele>65.3</ele>
        <time>2022-11-09T13:07:04Z</time>
      </trkpt>
      <trkpt lat="49.92448" lon="2.18975">
        <ele>65.3</ele>
        <time>2022-11-09T13:07:06Z</time>
      </trkpt>
      <trkpt lat="49.92449" lon="2.18973">
        <ele>65.3</ele>
        <time>2022-11-09T13:07:07Z</time>
      </trkpt>
      <trkpt lat="49.92449" lon="2.18972">
        <ele>65.3</ele>
        <time>2022-11-09T13:07:08Z</time>
      </trkpt>
      <trkpt lat="49.92449" lon="2.1897">
        <ele>65.3</ele>
        <time>2022-11-09T13:07:09Z</time>
      </trkpt>
      <trkpt lat="49.9245" lon="2.18968">
        <ele>65.3</ele>
        <time>2022-11-09T13:07:10Z</time>
      </trkpt>
      <trkpt lat="49.9245" lon="2.18966">
        <ele>65.2</ele>
        <time>2022-11-09T13:07:11Z</time>
      </trkpt>
      <trkpt lat="49.92451" lon="2.18964">
        <ele>65.2</ele>
        <time>2022-11-09T13:07:12Z</time>
      </trkpt>
      <trkpt lat="49.92451" lon="2.18962">
        <ele>65.2</ele>
        <time>2022-11-09T13:07:13Z</time>
      </trkpt>
      <trkpt lat="49.92452" lon="2.18961">
        <ele>65.2</ele>
        <time>2022-11-09T13:07:14Z</time>
      </trkpt>
      <trkpt lat="49.92452" lon="2.1896">
        <ele>65.2</ele>
        <time>2022-11-09T13:07:15Z</time>
      </trkpt>
      <trkpt lat="49.92453" lon="2.18958">
        <ele>65.2</ele>
        <time>2022-11-09T13:07:16Z</time>
      </trkpt>
      <trkpt lat="49.92453" lon="2.18957">
        <ele>65.2</ele>
        <time>2022-11-09T13:07:18Z</time>
      </trkpt>
      <trkpt lat="49.92454" lon="2.18955">
        <ele>65.2</ele>
        <time>2022-11-09T13:07:19Z</time>
      </trkpt>
      <trkpt lat="49.92454" lon="2.18954">
        <ele>65.2</ele>
        <time>2022-11-09T13:07:20Z</time>
      </trkpt>
      <trkpt lat="49.92455" lon="2.18953">
        <ele>65.2</ele>
        <time>2022-11-09T13:07:21Z</time>
      </trkpt>
      <trkpt lat="49.92456" lon="2.18951">
        <ele>65.2</ele>
        <time>2022-11-09T13:07:22Z</time>
      </trkpt>
      <trkpt lat="49.92456" lon="2.18949">
        <ele>65.2</ele>
        <time>2022-11-09T13:07:23Z</time>
      </trkpt>
      <trkpt lat="49.92457" lon="2.18946">
        <ele>65.2</ele>
        <time>2022-11-09T13:07:25Z</time>
      </trkpt>
      <trkpt lat="49.92458" lon="2.18945">
        <ele>65.2</ele>
        <time>2022-11-09T13:07:26Z</time>
      </trkpt>
      <trkpt lat="49.92458" lon="2.18944">
        <ele>65.2</ele>
        <time>2022-11-09T13:07:27Z</time>
      </trkpt>
      <trkpt lat="49.92459" lon="2.18942">
        <ele>65.2</ele>
        <time>2022-11-09T13:07:28Z</time>
      </trkpt>
      <trkpt lat="49.92459" lon="2.1894">
        <ele>65.1</ele>
        <time>2022-11-09T13:07:29Z</time>
      </trkpt>
      <trkpt lat="49.9246" lon="2.18938">
        <ele>65.1</ele>
        <time>2022-11-09T13:07:30Z</time>
      </trkpt>
      <trkpt lat="49.9246" lon="2.18936">
        <ele>65.1</ele>
        <time>2022-11-09T13:07:31Z</time>
      </trkpt>
      <trkpt lat="49.92461" lon="2.18933">
        <ele>65.1</ele>
        <time>2022-11-09T13:07:33Z</time>
      </trkpt>
      <trkpt lat="49.92461" lon="2.18931">
        <ele>65.1</ele>
        <time>2022-11-09T13:07:34Z</time>
      </trkpt>
      <trkpt lat="49.92462" lon="2.1893">
        <ele>65.1</ele>
        <time>2022-11-09T13:07:35Z</time>
      </trkpt>
      <trkpt lat="49.92462" lon="2.18927">
        <ele>65.1</ele>
        <time>2022-11-09T13:07:36Z</time>
      </trkpt>
      <trkpt lat="49.92462" lon="2.18926">
        <ele>65.1</ele>
        <time>2022-11-09T13:07:37Z</time>
      </trkpt>
      <trkpt lat="49.92463" lon="2.18924">
        <ele>65.1</ele>
        <time>2022-11-09T13:07:38Z</time>
      </trkpt>
      <trkpt lat="49.92463" lon="2.18921">
        <ele>65</ele>
        <time>2022-11-09T13:07:39Z</time>
      </trkpt>
      <trkpt lat="49.92463" lon="2.1892">
        <ele>65</ele>
        <time>2022-11-09T13:07:41Z</time>
      </trkpt>
      <trkpt lat="49.92464" lon="2.18919">
        <ele>65</ele>
        <time>2022-11-09T13:07:42Z</time>
      </trkpt>
      <trkpt lat="49.92465" lon="2.18916">
        <ele>65</ele>
        <time>2022-11-09T13:07:43Z</time>
      </trkpt>
      <trkpt lat="49.92465" lon="2.18914">
        <ele>65</ele>
        <time>2022-11-09T13:07:44Z</time>
      </trkpt>
      <trkpt lat="49.92465" lon="2.18913">
        <ele>65</ele>
        <time>2022-11-09T13:07:45Z</time>
      </trkpt>
      <trkpt lat="49.92466" lon="2.18911">
        <ele>64.9</ele>
        <time>2022-11-09T13:07:47Z</time>
      </trkpt>
      <trkpt lat="49.92466" lon="2.18909">
        <ele>64.9</ele>
        <time>2022-11-09T13:07:48Z</time>
      </trkpt>
      <trkpt lat="49.92467" lon="2.18908">
        <ele>64.9</ele>
        <time>2022-11-09T13:07:49Z</time>
      </trkpt>
      <trkpt lat="49.92469" lon="2.18906">
        <ele>64.9</ele>
        <time>2022-11-09T13:07:50Z</time>
      </trkpt>
      <trkpt lat="49.92469" lon="2.18905">
        <ele>64.9</ele>
        <time>2022-11-09T13:07:51Z</time>
      </trkpt>
      <trkpt lat="49.9247" lon="2.18904">
        <ele>64.9</ele>
        <time>2022-11-09T13:07:52Z</time>
      </trkpt>
      <trkpt lat="49.92471" lon="2.18902">
        <ele>64.8</ele>
        <time>2022-11-09T13:07:53Z</time>
      </trkpt>
      <trkpt lat="49.92471" lon="2.189">
        <ele>64.8</ele>
        <time>2022-11-09T13:07:54Z</time>
      </trkpt>
      <trkpt lat="49.92472" lon="2.18898">
        <ele>64.8</ele>
        <time>2022-11-09T13:07:56Z</time>
      </trkpt>
      <trkpt lat="49.92472" lon="2.18896">
        <ele>64.8</ele>
        <time>2022-11-09T13:07:57Z</time>
      </trkpt>
      <trkpt lat="49.92473" lon="2.18893">
        <ele>64.8</ele>
        <time>2022-11-09T13:07:58Z</time>
      </trkpt>
      <trkpt lat="49.92473" lon="2.18892">
        <ele>64.8</ele>
        <time>2022-11-09T13:07:59Z</time>
      </trkpt>
      <trkpt lat="49.92474" lon="2.18888">
        <ele>64.7</ele>
        <time>2022-11-09T13:08:00Z</time>
      </trkpt>
      <trkpt lat="49.92475" lon="2.18887">
        <ele>64.7</ele>
        <time>2022-11-09T13:08:01Z</time>
      </trkpt>
      <trkpt lat="49.92475" lon="2.18883">
        <ele>64.7</ele>
        <time>2022-11-09T13:08:02Z</time>
      </trkpt>
      <trkpt lat="49.92476" lon="2.18881">
        <ele>64.7</ele>
        <time>2022-11-09T13:08:04Z</time>
      </trkpt>
      <trkpt lat="49.92476" lon="2.1888">
        <ele>64.7</ele>
        <time>2022-11-09T13:08:05Z</time>
      </trkpt>
      <trkpt lat="49.92476" lon="2.18878">
        <ele>64.7</ele>
        <time>2022-11-09T13:08:06Z</time>
      </trkpt>
      <trkpt lat="49.92477" lon="2.18877">
        <ele>64.7</ele>
        <time>2022-11-09T13:08:07Z</time>
      </trkpt>
      <trkpt lat="49.92477" lon="2.18876">
        <ele>64.6</ele>
        <time>2022-11-09T13:08:08Z</time>
      </trkpt>
      <trkpt lat="49.92478" lon="2.18875">
        <ele>64.6</ele>
        <time>2022-11-09T13:08:09Z</time>
      </trkpt>
      <trkpt lat="49.92479" lon="2.18874">
        <ele>64.6</ele>
        <time>2022-11-09T13:08:10Z</time>
      </trkpt>
      <trkpt lat="49.9248" lon="2.18873">
        <ele>64.6</ele>
        <time>2022-11-09T13:08:11Z</time>
      </trkpt>
      <trkpt lat="49.9248" lon="2.18871">
        <ele>64.6</ele>
        <time>2022-11-09T13:08:12Z</time>
      </trkpt>
      <trkpt lat="49.92481" lon="2.18869">
        <ele>64.6</ele>
        <time>2022-11-09T13:08:13Z</time>
      </trkpt>
      <trkpt lat="49.92481" lon="2.18867">
        <ele>64.6</ele>
        <time>2022-11-09T13:08:14Z</time>
      </trkpt>
      <trkpt lat="49.92481" lon="2.18866">
        <ele>64.6</ele>
        <time>2022-11-09T13:08:15Z</time>
      </trkpt>
      <trkpt lat="49.9248" lon="2.18865">
        <ele>64.6</ele>
        <time>2022-11-09T13:08:16Z</time>
      </trkpt>
      <trkpt lat="49.92479" lon="2.18865">
        <ele>64.5</ele>
        <time>2022-11-09T13:08:17Z</time>
      </trkpt>
      <trkpt lat="49.92479" lon="2.18865">
        <ele>64.5</ele>
        <time>2022-11-09T13:08:18Z</time>
      </trkpt>
      <trkpt lat="49.92479" lon="2.18864">
        <ele>64.5</ele>
        <time>2022-11-09T13:08:19Z</time>
      </trkpt>
      <trkpt lat="49.92479" lon="2.18863">
        <ele>64.5</ele>
        <time>2022-11-09T13:08:21Z</time>
      </trkpt>
      <trkpt lat="49.92479" lon="2.18862">
        <ele>64.5</ele>
        <time>2022-11-09T13:08:22Z</time>
      </trkpt>
      <trkpt lat="49.92479" lon="2.18861">
        <ele>64.5</ele>
        <time>2022-11-09T13:08:23Z</time>
      </trkpt>
      <trkpt lat="49.92479" lon="2.18859">
        <ele>64.5</ele>
        <time>2022-11-09T13:08:24Z</time>
      </trkpt>
      <trkpt lat="49.9248" lon="2.18856">
        <ele>64.5</ele>
        <time>2022-11-09T13:08:25Z</time>
      </trkpt>
      <trkpt lat="49.9248" lon="2.18853">
        <ele>64.5</ele>
        <time>2022-11-09T13:08:26Z</time>
      </trkpt>
      <trkpt lat="49.92481" lon="2.18852">
        <ele>64.5</ele>
        <time>2022-11-09T13:08:28Z</time>
      </trkpt>
      <trkpt lat="49.92481" lon="2.18851">
        <ele>64.5</ele>
        <time>2022-11-09T13:08:29Z</time>
      </trkpt>
      <trkpt lat="49.92481" lon="2.1885">
        <ele>64.4</ele>
        <time>2022-11-09T13:08:30Z</time>
      </trkpt>
      <trkpt lat="49.92482" lon="2.18846">
        <ele>64.4</ele>
        <time>2022-11-09T13:08:31Z</time>
      </trkpt>
      <trkpt lat="49.92482" lon="2.18845">
        <ele>64.4</ele>
        <time>2022-11-09T13:08:32Z</time>
      </trkpt>
      <trkpt lat="49.92484" lon="2.18841">
        <ele>64.4</ele>
        <time>2022-11-09T13:08:33Z</time>
      </trkpt>
      <trkpt lat="49.92484" lon="2.18839">
        <ele>64.4</ele>
        <time>2022-11-09T13:08:35Z</time>
      </trkpt>
      <trkpt lat="49.92485" lon="2.18838">
        <ele>64.4</ele>
        <time>2022-11-09T13:08:36Z</time>
      </trkpt>
      <trkpt lat="49.92485" lon="2.18836">
        <ele>64.4</ele>
        <time>2022-11-09T13:08:37Z</time>
      </trkpt>
      <trkpt lat="49.92486" lon="2.18835">
        <ele>64.4</ele>
        <time>2022-11-09T13:08:38Z</time>
      </trkpt>
      <trkpt lat="49.92486" lon="2.18833">
        <ele>64.4</ele>
        <time>2022-11-09T13:08:39Z</time>
      </trkpt>
      <trkpt lat="49.92487" lon="2.18831">
        <ele>64.4</ele>
        <time>2022-11-09T13:08:40Z</time>
      </trkpt>
      <trkpt lat="49.92488" lon="2.18829">
        <ele>64.4</ele>
        <time>2022-11-09T13:08:41Z</time>
      </trkpt>
      <trkpt lat="49.92489" lon="2.18826">
        <ele>64.4</ele>
        <time>2022-11-09T13:08:42Z</time>
      </trkpt>
      <trkpt lat="49.92489" lon="2.18824">
        <ele>64.4</ele>
        <time>2022-11-09T13:08:43Z</time>
      </trkpt>
      <trkpt lat="49.9249" lon="2.18822">
        <ele>64.3</ele>
        <time>2022-11-09T13:08:44Z</time>
      </trkpt>
      <trkpt lat="49.92491" lon="2.1882">
        <ele>64.3</ele>
        <time>2022-11-09T13:08:45Z</time>
      </trkpt>
      <trkpt lat="49.92492" lon="2.18819">
        <ele>64.3</ele>
        <time>2022-11-09T13:08:47Z</time>
      </trkpt>
      <trkpt lat="49.92493" lon="2.18817">
        <ele>64.3</ele>
        <time>2022-11-09T13:08:48Z</time>
      </trkpt>
      <trkpt lat="49.92493" lon="2.18816">
        <ele>64.3</ele>
        <time>2022-11-09T13:08:49Z</time>
      </trkpt>
      <trkpt lat="49.92493" lon="2.18814">
        <ele>64.3</ele>
        <time>2022-11-09T13:08:50Z</time>
      </trkpt>
      <trkpt lat="49.92492" lon="2.18812">
        <ele>64.3</ele>
        <time>2022-11-09T13:08:51Z</time>
      </trkpt>
      <trkpt lat="49.92492" lon="2.18811">
        <ele>64.3</ele>
        <time>2022-11-09T13:08:52Z</time>
      </trkpt>
      <trkpt lat="49.92492" lon="2.18809">
        <ele>64.3</ele>
        <time>2022-11-09T13:08:53Z</time>
      </trkpt>
      <trkpt lat="49.92492" lon="2.18807">
        <ele>64.3</ele>
        <time>2022-11-09T13:08:54Z</time>
      </trkpt>
      <trkpt lat="49.92493" lon="2.18806">
        <ele>64.3</ele>
        <time>2022-11-09T13:08:56Z</time>
      </trkpt>
      <trkpt lat="49.92493" lon="2.18804">
        <ele>64.3</ele>
        <time>2022-11-09T13:08:57Z</time>
      </trkpt>
      <trkpt lat="49.92493" lon="2.18803">
        <ele>64.3</ele>
        <time>2022-11-09T13:08:58Z</time>
      </trkpt>
      <trkpt lat="49.92494" lon="2.18802">
        <ele>64.3</ele>
        <time>2022-11-09T13:08:59Z</time>
      </trkpt>
      <trkpt lat="49.92494" lon="2.188">
        <ele>64.3</ele>
        <time>2022-11-09T13:09:00Z</time>
      </trkpt>
      <trkpt lat="49.92495" lon="2.18799">
        <ele>64.3</ele>
        <time>2022-11-09T13:09:01Z</time>
      </trkpt>
      <trkpt lat="49.92495" lon="2.18797">
        <ele>64.2</ele>
        <time>2022-11-09T13:09:02Z</time>
      </trkpt>
      <trkpt lat="49.92496" lon="2.18796">
        <ele>64.2</ele>
        <time>2022-11-09T13:09:03Z</time>
      </trkpt>
      <trkpt lat="49.92496" lon="2.18794">
        <ele>64.2</ele>
        <time>2022-11-09T13:09:05Z</time>
      </trkpt>
      <trkpt lat="49.92496" lon="2.18793">
        <ele>64.2</ele>
        <time>2022-11-09T13:09:06Z</time>
      </trkpt>
      <trkpt lat="49.92496" lon="2.18792">
        <ele>64.2</ele>
        <time>2022-11-09T13:09:07Z</time>
      </trkpt>
      <trkpt lat="49.92497" lon="2.1879">
        <ele>64.2</ele>
        <time>2022-11-09T13:09:08Z</time>
      </trkpt>
      <trkpt lat="49.92497" lon="2.18789">
        <ele>64.2</ele>
        <time>2022-11-09T13:09:09Z</time>
      </trkpt>
      <trkpt lat="49.92497" lon="2.18787">
        <ele>64.2</ele>
        <time>2022-11-09T13:09:10Z</time>
      </trkpt>
      <trkpt lat="49.92498" lon="2.18785">
        <ele>64.2</ele>
        <time>2022-11-09T13:09:11Z</time>
      </trkpt>
      <trkpt lat="49.92498" lon="2.18783">
        <ele>64.1</ele>
        <time>2022-11-09T13:09:12Z</time>
      </trkpt>
      <trkpt lat="49.92498" lon="2.1878">
        <ele>64.1</ele>
        <time>2022-11-09T13:09:13Z</time>
      </trkpt>
      <trkpt lat="49.92499" lon="2.18778">
        <ele>64.1</ele>
        <time>2022-11-09T13:09:14Z</time>
      </trkpt>
      <trkpt lat="49.92499" lon="2.18775">
        <ele>64.1</ele>
        <time>2022-11-09T13:09:15Z</time>
      </trkpt>
      <trkpt lat="49.92499" lon="2.18773">
        <ele>64.1</ele>
        <time>2022-11-09T13:09:16Z</time>
      </trkpt>
      <trkpt lat="49.925" lon="2.18772">
        <ele>64.1</ele>
        <time>2022-11-09T13:09:18Z</time>
      </trkpt>
      <trkpt lat="49.925" lon="2.1877">
        <ele>64.1</ele>
        <time>2022-11-09T13:09:19Z</time>
      </trkpt>
      <trkpt lat="49.925" lon="2.18769">
        <ele>64.1</ele>
        <time>2022-11-09T13:09:20Z</time>
      </trkpt>
      <trkpt lat="49.925" lon="2.18767">
        <ele>64</ele>
        <time>2022-11-09T13:09:21Z</time>
      </trkpt>
      <trkpt lat="49.925" lon="2.18765">
        <ele>64</ele>
        <time>2022-11-09T13:09:22Z</time>
      </trkpt>
      <trkpt lat="49.92501" lon="2.18763">
        <ele>64</ele>
        <time>2022-11-09T13:09:23Z</time>
      </trkpt>
      <trkpt lat="49.92501" lon="2.18761">
        <ele>64</ele>
        <time>2022-11-09T13:09:24Z</time>
      </trkpt>
      <trkpt lat="49.92502" lon="2.18759">
        <ele>64</ele>
        <time>2022-11-09T13:09:25Z</time>
      </trkpt>
      <trkpt lat="49.92502" lon="2.18757">
        <ele>64</ele>
        <time>2022-11-09T13:09:26Z</time>
      </trkpt>
      <trkpt lat="49.92502" lon="2.18755">
        <ele>64</ele>
        <time>2022-11-09T13:09:27Z</time>
      </trkpt>
      <trkpt lat="49.92503" lon="2.18754">
        <ele>64</ele>
        <time>2022-11-09T13:09:28Z</time>
      </trkpt>
      <trkpt lat="49.92503" lon="2.18751">
        <ele>63.9</ele>
        <time>2022-11-09T13:09:29Z</time>
      </trkpt>
      <trkpt lat="49.92503" lon="2.18749">
        <ele>63.9</ele>
        <time>2022-11-09T13:09:30Z</time>
      </trkpt>
      <trkpt lat="49.92504" lon="2.18748">
        <ele>63.9</ele>
        <time>2022-11-09T13:09:31Z</time>
      </trkpt>
      <trkpt lat="49.92504" lon="2.18746">
        <ele>63.9</ele>
        <time>2022-11-09T13:09:33Z</time>
      </trkpt>
      <trkpt lat="49.92504" lon="2.18744">
        <ele>63.9</ele>
        <time>2022-11-09T13:09:34Z</time>
      </trkpt>
      <trkpt lat="49.92504" lon="2.18742">
        <ele>63.9</ele>
        <time>2022-11-09T13:09:35Z</time>
      </trkpt>
      <trkpt lat="49.92505" lon="2.18741">
        <ele>63.9</ele>
        <time>2022-11-09T13:09:36Z</time>
      </trkpt>
      <trkpt lat="49.92505" lon="2.18739">
        <ele>63.9</ele>
        <time>2022-11-09T13:09:37Z</time>
      </trkpt>
      <trkpt lat="49.92505" lon="2.18737">
        <ele>63.9</ele>
        <time>2022-11-09T13:09:38Z</time>
      </trkpt>
      <trkpt lat="49.92505" lon="2.18735">
        <ele>63.9</ele>
        <time>2022-11-09T13:09:39Z</time>
      </trkpt>
      <trkpt lat="49.92506" lon="2.18732">
        <ele>63.9</ele>
        <time>2022-11-09T13:09:41Z</time>
      </trkpt>
      <trkpt lat="49.92506" lon="2.1873">
        <ele>63.9</ele>
        <time>2022-11-09T13:09:42Z</time>
      </trkpt>
      <trkpt lat="49.92506" lon="2.18727">
        <ele>63.8</ele>
        <time>2022-11-09T13:09:43Z</time>
      </trkpt>
      <trkpt lat="49.92506" lon="2.18726">
        <ele>63.8</ele>
        <time>2022-11-09T13:09:44Z</time>
      </trkpt>
      <trkpt lat="49.92506" lon="2.18724">
        <ele>63.8</ele>
        <time>2022-11-09T13:09:45Z</time>
      </trkpt>
      <trkpt lat="49.92507" lon="2.18722">
        <ele>63.8</ele>
        <time>2022-11-09T13:09:46Z</time>
      </trkpt>
      <trkpt lat="49.92507" lon="2.1872">
        <ele>63.8</ele>
        <time>2022-11-09T13:09:48Z</time>
      </trkpt>
      <trkpt lat="49.92507" lon="2.18719">
        <ele>63.8</ele>
        <time>2022-11-09T13:09:49Z</time>
      </trkpt>
      <trkpt lat="49.92508" lon="2.18717">
        <ele>63.8</ele>
        <time>2022-11-09T13:09:50Z</time>
      </trkpt>
      <trkpt lat="49.92508" lon="2.18716">
        <ele>63.8</ele>
        <time>2022-11-09T13:09:51Z</time>
      </trkpt>
      <trkpt lat="49.92509" lon="2.18713">
        <ele>63.8</ele>
        <time>2022-11-09T13:09:52Z</time>
      </trkpt>
      <trkpt lat="49.92509" lon="2.18711">
        <ele>63.8</ele>
        <time>2022-11-09T13:09:53Z</time>
      </trkpt>
      <trkpt lat="49.92509" lon="2.1871">
        <ele>63.7</ele>
        <time>2022-11-09T13:09:54Z</time>
      </trkpt>
      <trkpt lat="49.92509" lon="2.18709">
        <ele>63.7</ele>
        <time>2022-11-09T13:09:55Z</time>
      </trkpt>
      <trkpt lat="49.9251" lon="2.18707">
        <ele>63.7</ele>
        <time>2022-11-09T13:09:56Z</time>
      </trkpt>
      <trkpt lat="49.9251" lon="2.18705">
        <ele>63.7</ele>
        <time>2022-11-09T13:09:57Z</time>
      </trkpt>
      <trkpt lat="49.92511" lon="2.18703">
        <ele>63.7</ele>
        <time>2022-11-09T13:09:58Z</time>
      </trkpt>
      <trkpt lat="49.92511" lon="2.18701">
        <ele>63.7</ele>
        <time>2022-11-09T13:10:00Z</time>
      </trkpt>
      <trkpt lat="49.92511" lon="2.187">
        <ele>63.7</ele>
        <time>2022-11-09T13:10:01Z</time>
      </trkpt>
      <trkpt lat="49.92511" lon="2.18696">
        <ele>63.7</ele>
        <time>2022-11-09T13:10:02Z</time>
      </trkpt>
      <trkpt lat="49.92511" lon="2.18695">
        <ele>63.7</ele>
        <time>2022-11-09T13:10:03Z</time>
      </trkpt>
      <trkpt lat="49.92511" lon="2.18694">
        <ele>63.7</ele>
        <time>2022-11-09T13:10:04Z</time>
      </trkpt>
      <trkpt lat="49.9251" lon="2.18691">
        <ele>63.6</ele>
        <time>2022-11-09T13:10:05Z</time>
      </trkpt>
      <trkpt lat="49.9251" lon="2.18689">
        <ele>63.6</ele>
        <time>2022-11-09T13:10:06Z</time>
      </trkpt>
      <trkpt lat="49.9251" lon="2.18687">
        <ele>63.6</ele>
        <time>2022-11-09T13:10:07Z</time>
      </trkpt>
      <trkpt lat="49.9251" lon="2.18685">
        <ele>63.6</ele>
        <time>2022-11-09T13:10:08Z</time>
      </trkpt>
      <trkpt lat="49.9251" lon="2.18682">
        <ele>63.6</ele>
        <time>2022-11-09T13:10:09Z</time>
      </trkpt>
      <trkpt lat="49.92511" lon="2.1868">
        <ele>63.6</ele>
        <time>2022-11-09T13:10:10Z</time>
      </trkpt>
      <trkpt lat="49.92511" lon="2.18678">
        <ele>63.6</ele>
        <time>2022-11-09T13:10:11Z</time>
      </trkpt>
      <trkpt lat="49.92511" lon="2.18676">
        <ele>63.6</ele>
        <time>2022-11-09T13:10:12Z</time>
      </trkpt>
      <trkpt lat="49.92511" lon="2.18674">
        <ele>63.5</ele>
        <time>2022-11-09T13:10:13Z</time>
      </trkpt>
      <trkpt lat="49.92511" lon="2.18671">
        <ele>63.5</ele>
        <time>2022-11-09T13:10:15Z</time>
      </trkpt>
      <trkpt lat="49.92511" lon="2.18669">
        <ele>63.5</ele>
        <time>2022-11-09T13:10:16Z</time>
      </trkpt>
      <trkpt lat="49.92511" lon="2.18666">
        <ele>63.5</ele>
        <time>2022-11-09T13:10:17Z</time>
      </trkpt>
      <trkpt lat="49.92511" lon="2.18662">
        <ele>63.5</ele>
        <time>2022-11-09T13:10:18Z</time>
      </trkpt>
      <trkpt lat="49.92511" lon="2.18661">
        <ele>63.5</ele>
        <time>2022-11-09T13:10:20Z</time>
      </trkpt>
      <trkpt lat="49.92511" lon="2.18659">
        <ele>63.5</ele>
        <time>2022-11-09T13:10:21Z</time>
      </trkpt>
      <trkpt lat="49.92511" lon="2.18657">
        <ele>63.4</ele>
        <time>2022-11-09T13:10:22Z</time>
      </trkpt>
      <trkpt lat="49.92511" lon="2.18656">
        <ele>63.4</ele>
        <time>2022-11-09T13:10:23Z</time>
      </trkpt>
      <trkpt lat="49.92512" lon="2.18653">
        <ele>63.4</ele>
        <time>2022-11-09T13:10:24Z</time>
      </trkpt>
      <trkpt lat="49.92512" lon="2.18651">
        <ele>63.4</ele>
        <time>2022-11-09T13:10:25Z</time>
      </trkpt>
      <trkpt lat="49.92512" lon="2.1865">
        <ele>63.4</ele>
        <time>2022-11-09T13:10:26Z</time>
      </trkpt>
      <trkpt lat="49.92512" lon="2.18646">
        <ele>63.4</ele>
        <time>2022-11-09T13:10:27Z</time>
      </trkpt>
      <trkpt lat="49.92512" lon="2.18644">
        <ele>63.4</ele>
        <time>2022-11-09T13:10:29Z</time>
      </trkpt>
      <trkpt lat="49.92512" lon="2.18642">
        <ele>63.4</ele>
        <time>2022-11-09T13:10:30Z</time>
      </trkpt>
      <trkpt lat="49.92512" lon="2.18641">
        <ele>63.4</ele>
        <time>2022-11-09T13:10:31Z</time>
      </trkpt>
      <trkpt lat="49.92512" lon="2.18639">
        <ele>63.4</ele>
        <time>2022-11-09T13:10:32Z</time>
      </trkpt>
      <trkpt lat="49.92512" lon="2.18637">
        <ele>63.4</ele>
        <time>2022-11-09T13:10:33Z</time>
      </trkpt>
      <trkpt lat="49.92512" lon="2.18634">
        <ele>63.4</ele>
        <time>2022-11-09T13:10:34Z</time>
      </trkpt>
      <trkpt lat="49.92513" lon="2.18632">
        <ele>63.4</ele>
        <time>2022-11-09T13:10:35Z</time>
      </trkpt>
      <trkpt lat="49.92513" lon="2.18631">
        <ele>63.4</ele>
        <time>2022-11-09T13:10:37Z</time>
      </trkpt>
      <trkpt lat="49.92514" lon="2.18629">
        <ele>63.4</ele>
        <time>2022-11-09T13:10:38Z</time>
      </trkpt>
      <trkpt lat="49.92514" lon="2.18628">
        <ele>63.4</ele>
        <time>2022-11-09T13:10:39Z</time>
      </trkpt>
      <trkpt lat="49.92515" lon="2.18627">
        <ele>63.4</ele>
        <time>2022-11-09T13:10:40Z</time>
      </trkpt>
      <trkpt lat="49.92516" lon="2.18626">
        <ele>63.4</ele>
        <time>2022-11-09T13:10:41Z</time>
      </trkpt>
      <trkpt lat="49.92516" lon="2.18625">
        <ele>63.4</ele>
        <time>2022-11-09T13:10:42Z</time>
      </trkpt>
      <trkpt lat="49.92517" lon="2.18623">
        <ele>63.4</ele>
        <time>2022-11-09T13:10:43Z</time>
      </trkpt>
      <trkpt lat="49.92517" lon="2.18622">
        <ele>63.4</ele>
        <time>2022-11-09T13:10:44Z</time>
      </trkpt>
      <trkpt lat="49.92518" lon="2.18619">
        <ele>63.4</ele>
        <time>2022-11-09T13:10:45Z</time>
      </trkpt>
      <trkpt lat="49.92519" lon="2.18617">
        <ele>63.3</ele>
        <time>2022-11-09T13:10:46Z</time>
      </trkpt>
      <trkpt lat="49.92519" lon="2.18616">
        <ele>63.3</ele>
        <time>2022-11-09T13:10:47Z</time>
      </trkpt>
      <trkpt lat="49.9252" lon="2.18613">
        <ele>63.3</ele>
        <time>2022-11-09T13:10:49Z</time>
      </trkpt>
      <trkpt lat="49.9252" lon="2.18612">
        <ele>63.3</ele>
        <time>2022-11-09T13:10:50Z</time>
      </trkpt>
      <trkpt lat="49.92521" lon="2.18611">
        <ele>63.3</ele>
        <time>2022-11-09T13:10:51Z</time>
      </trkpt>
      <trkpt lat="49.92521" lon="2.18609">
        <ele>63.3</ele>
        <time>2022-11-09T13:10:52Z</time>
      </trkpt>
      <trkpt lat="49.92522" lon="2.18606">
        <ele>63.4</ele>
        <time>2022-11-09T13:10:53Z</time>
      </trkpt>
      <trkpt lat="49.92522" lon="2.18602">
        <ele>63.4</ele>
        <time>2022-11-09T13:10:54Z</time>
      </trkpt>
      <trkpt lat="49.92522" lon="2.18601">
        <ele>63.4</ele>
        <time>2022-11-09T13:10:55Z</time>
      </trkpt>
      <trkpt lat="49.92523" lon="2.18599">
        <ele>63.4</ele>
        <time>2022-11-09T13:10:57Z</time>
      </trkpt>
      <trkpt lat="49.92523" lon="2.18597">
        <ele>63.4</ele>
        <time>2022-11-09T13:10:59Z</time>
      </trkpt>
      <trkpt lat="49.92523" lon="2.18595">
        <ele>63.4</ele>
        <time>2022-11-09T13:11:00Z</time>
      </trkpt>
      <trkpt lat="49.92523" lon="2.18593">
        <ele>63.4</ele>
        <time>2022-11-09T13:11:01Z</time>
      </trkpt>
      <trkpt lat="49.92523" lon="2.18592">
        <ele>63.4</ele>
        <time>2022-11-09T13:11:02Z</time>
      </trkpt>
      <trkpt lat="49.92523" lon="2.1859">
        <ele>63.4</ele>
        <time>2022-11-09T13:11:03Z</time>
      </trkpt>
      <trkpt lat="49.92523" lon="2.18588">
        <ele>63.4</ele>
        <time>2022-11-09T13:11:04Z</time>
      </trkpt>
      <trkpt lat="49.92523" lon="2.18585">
        <ele>63.4</ele>
        <time>2022-11-09T13:11:05Z</time>
      </trkpt>
      <trkpt lat="49.92523" lon="2.18583">
        <ele>63.4</ele>
        <time>2022-11-09T13:11:06Z</time>
      </trkpt>
      <trkpt lat="49.92523" lon="2.18581">
        <ele>63.4</ele>
        <time>2022-11-09T13:11:07Z</time>
      </trkpt>
      <trkpt lat="49.92523" lon="2.18578">
        <ele>63.4</ele>
        <time>2022-11-09T13:11:09Z</time>
      </trkpt>
      <trkpt lat="49.92523" lon="2.18576">
        <ele>63.4</ele>
        <time>2022-11-09T13:11:10Z</time>
      </trkpt>
      <trkpt lat="49.92523" lon="2.18573">
        <ele>63.4</ele>
        <time>2022-11-09T13:11:11Z</time>
      </trkpt>
      <trkpt lat="49.92523" lon="2.18571">
        <ele>63.4</ele>
        <time>2022-11-09T13:11:12Z</time>
      </trkpt>
      <trkpt lat="49.92523" lon="2.18568">
        <ele>63.4</ele>
        <time>2022-11-09T13:11:13Z</time>
      </trkpt>
      <trkpt lat="49.92523" lon="2.18566">
        <ele>63.5</ele>
        <time>2022-11-09T13:11:14Z</time>
      </trkpt>
      <trkpt lat="49.92523" lon="2.18565">
        <ele>63.5</ele>
        <time>2022-11-09T13:11:16Z</time>
      </trkpt>
      <trkpt lat="49.92523" lon="2.18563">
        <ele>63.5</ele>
        <time>2022-11-09T13:11:17Z</time>
      </trkpt>
      <trkpt lat="49.92523" lon="2.18562">
        <ele>63.5</ele>
        <time>2022-11-09T13:11:18Z</time>
      </trkpt>
      <trkpt lat="49.92523" lon="2.1856">
        <ele>63.5</ele>
        <time>2022-11-09T13:11:19Z</time>
      </trkpt>
      <trkpt lat="49.92524" lon="2.18557">
        <ele>63.5</ele>
        <time>2022-11-09T13:11:20Z</time>
      </trkpt>
      <trkpt lat="49.92524" lon="2.18555">
        <ele>63.5</ele>
        <time>2022-11-09T13:11:21Z</time>
      </trkpt>
      <trkpt lat="49.92524" lon="2.18554">
        <ele>63.5</ele>
        <time>2022-11-09T13:11:22Z</time>
      </trkpt>
      <trkpt lat="49.92524" lon="2.18552">
        <ele>63.5</ele>
        <time>2022-11-09T13:11:23Z</time>
      </trkpt>
      <trkpt lat="49.92524" lon="2.1855">
        <ele>63.5</ele>
        <time>2022-11-09T13:11:24Z</time>
      </trkpt>
      <trkpt lat="49.92525" lon="2.18547">
        <ele>63.5</ele>
        <time>2022-11-09T13:11:26Z</time>
      </trkpt>
      <trkpt lat="49.92525" lon="2.18545">
        <ele>63.6</ele>
        <time>2022-11-09T13:11:27Z</time>
      </trkpt>
      <trkpt lat="49.92525" lon="2.18542">
        <ele>63.6</ele>
        <time>2022-11-09T13:11:28Z</time>
      </trkpt>
      <trkpt lat="49.92525" lon="2.1854">
        <ele>63.6</ele>
        <time>2022-11-09T13:11:29Z</time>
      </trkpt>
      <trkpt lat="49.92525" lon="2.18539">
        <ele>63.6</ele>
        <time>2022-11-09T13:11:30Z</time>
      </trkpt>
      <trkpt lat="49.92525" lon="2.18535">
        <ele>63.6</ele>
        <time>2022-11-09T13:11:31Z</time>
      </trkpt>
      <trkpt lat="49.92525" lon="2.18534">
        <ele>63.6</ele>
        <time>2022-11-09T13:11:32Z</time>
      </trkpt>
      <trkpt lat="49.92525" lon="2.18533">
        <ele>63.6</ele>
        <time>2022-11-09T13:11:33Z</time>
      </trkpt>
      <trkpt lat="49.92525" lon="2.18531">
        <ele>63.6</ele>
        <time>2022-11-09T13:11:34Z</time>
      </trkpt>
      <trkpt lat="49.92525" lon="2.1853">
        <ele>63.6</ele>
        <time>2022-11-09T13:11:35Z</time>
      </trkpt>
      <trkpt lat="49.92526" lon="2.18528">
        <ele>63.6</ele>
        <time>2022-11-09T13:11:36Z</time>
      </trkpt>
      <trkpt lat="49.92526" lon="2.18525">
        <ele>63.7</ele>
        <time>2022-11-09T13:11:37Z</time>
      </trkpt>
      <trkpt lat="49.92526" lon="2.18524">
        <ele>63.7</ele>
        <time>2022-11-09T13:11:38Z</time>
      </trkpt>
      <trkpt lat="49.92526" lon="2.18522">
        <ele>63.7</ele>
        <time>2022-11-09T13:11:39Z</time>
      </trkpt>
      <trkpt lat="49.92526" lon="2.18519">
        <ele>63.7</ele>
        <time>2022-11-09T13:11:41Z</time>
      </trkpt>
      <trkpt lat="49.92527" lon="2.18518">
        <ele>63.7</ele>
        <time>2022-11-09T13:11:42Z</time>
      </trkpt>
      <trkpt lat="49.92527" lon="2.18517">
        <ele>63.7</ele>
        <time>2022-11-09T13:11:43Z</time>
      </trkpt>
      <trkpt lat="49.92527" lon="2.18514">
        <ele>63.7</ele>
        <time>2022-11-09T13:11:44Z</time>
      </trkpt>
      <trkpt lat="49.92527" lon="2.18512">
        <ele>63.7</ele>
        <time>2022-11-09T13:11:45Z</time>
      </trkpt>
      <trkpt lat="49.92528" lon="2.18509">
        <ele>63.8</ele>
        <time>2022-11-09T13:11:46Z</time>
      </trkpt>
      <trkpt lat="49.92528" lon="2.18508">
        <ele>63.8</ele>
        <time>2022-11-09T13:11:48Z</time>
      </trkpt>
      <trkpt lat="49.92528" lon="2.18506">
        <ele>63.8</ele>
        <time>2022-11-09T13:11:49Z</time>
      </trkpt>
      <trkpt lat="49.92527" lon="2.18503">
        <ele>63.8</ele>
        <time>2022-11-09T13:11:50Z</time>
      </trkpt>
      <trkpt lat="49.92527" lon="2.18501">
        <ele>63.8</ele>
        <time>2022-11-09T13:11:51Z</time>
      </trkpt>
      <trkpt lat="49.92527" lon="2.185">
        <ele>63.8</ele>
        <time>2022-11-09T13:11:52Z</time>
      </trkpt>
      <trkpt lat="49.92527" lon="2.18498">
        <ele>63.8</ele>
        <time>2022-11-09T13:11:53Z</time>
      </trkpt>
      <trkpt lat="49.92527" lon="2.18495">
        <ele>63.8</ele>
        <time>2022-11-09T13:11:55Z</time>
      </trkpt>
      <trkpt lat="49.92527" lon="2.18493">
        <ele>63.9</ele>
        <time>2022-11-09T13:11:56Z</time>
      </trkpt>
      <trkpt lat="49.92527" lon="2.18491">
        <ele>63.9</ele>
        <time>2022-11-09T13:11:57Z</time>
      </trkpt>
      <trkpt lat="49.92527" lon="2.18489">
        <ele>63.9</ele>
        <time>2022-11-09T13:11:58Z</time>
      </trkpt>
      <trkpt lat="49.92527" lon="2.18487">
        <ele>63.9</ele>
        <time>2022-11-09T13:11:59Z</time>
      </trkpt>
      <trkpt lat="49.92527" lon="2.18485">
        <ele>63.9</ele>
        <time>2022-11-09T13:12:00Z</time>
      </trkpt>
      <trkpt lat="49.92527" lon="2.18483">
        <ele>63.9</ele>
        <time>2022-11-09T13:12:01Z</time>
      </trkpt>
      <trkpt lat="49.92527" lon="2.18481">
        <ele>63.9</ele>
        <time>2022-11-09T13:12:02Z</time>
      </trkpt>
      <trkpt lat="49.92527" lon="2.18479">
        <ele>63.9</ele>
        <time>2022-11-09T13:12:03Z</time>
      </trkpt>
      <trkpt lat="49.92528" lon="2.18477">
        <ele>64</ele>
        <time>2022-11-09T13:12:04Z</time>
      </trkpt>
      <trkpt lat="49.92528" lon="2.18476">
        <ele>64</ele>
        <time>2022-11-09T13:12:05Z</time>
      </trkpt>
      <trkpt lat="49.92528" lon="2.18474">
        <ele>64</ele>
        <time>2022-11-09T13:12:06Z</time>
      </trkpt>
      <trkpt lat="49.92528" lon="2.18472">
        <ele>64</ele>
        <time>2022-11-09T13:12:08Z</time>
      </trkpt>
      <trkpt lat="49.92528" lon="2.18471">
        <ele>64</ele>
        <time>2022-11-09T13:12:09Z</time>
      </trkpt>
      <trkpt lat="49.92529" lon="2.18469">
        <ele>64</ele>
        <time>2022-11-09T13:12:10Z</time>
      </trkpt>
      <trkpt lat="49.92529" lon="2.18467">
        <ele>64</ele>
        <time>2022-11-09T13:12:11Z</time>
      </trkpt>
      <trkpt lat="49.92529" lon="2.18465">
        <ele>64</ele>
        <time>2022-11-09T13:12:12Z</time>
      </trkpt>
      <trkpt lat="49.9253" lon="2.18463">
        <ele>64</ele>
        <time>2022-11-09T13:12:13Z</time>
      </trkpt>
      <trkpt lat="49.9253" lon="2.18461">
        <ele>64</ele>
        <time>2022-11-09T13:12:14Z</time>
      </trkpt>
      <trkpt lat="49.9253" lon="2.18459">
        <ele>64</ele>
        <time>2022-11-09T13:12:15Z</time>
      </trkpt>
      <trkpt lat="49.9253" lon="2.18458">
        <ele>64.1</ele>
        <time>2022-11-09T13:12:17Z</time>
      </trkpt>
      <trkpt lat="49.92531" lon="2.18456">
        <ele>64.1</ele>
        <time>2022-11-09T13:12:18Z</time>
      </trkpt>
      <trkpt lat="49.92531" lon="2.18455">
        <ele>64.1</ele>
        <time>2022-11-09T13:12:19Z</time>
      </trkpt>
      <trkpt lat="49.92531" lon="2.18453">
        <ele>64.1</ele>
        <time>2022-11-09T13:12:20Z</time>
      </trkpt>
      <trkpt lat="49.92532" lon="2.1845">
        <ele>64.1</ele>
        <time>2022-11-09T13:12:21Z</time>
      </trkpt>
      <trkpt lat="49.92532" lon="2.18449">
        <ele>64.1</ele>
        <time>2022-11-09T13:12:22Z</time>
      </trkpt>
      <trkpt lat="49.92532" lon="2.18448">
        <ele>64.1</ele>
        <time>2022-11-09T13:12:23Z</time>
      </trkpt>
      <trkpt lat="49.92533" lon="2.18444">
        <ele>64.2</ele>
        <time>2022-11-09T13:12:24Z</time>
      </trkpt>
      <trkpt lat="49.92533" lon="2.18443">
        <ele>64.2</ele>
        <time>2022-11-09T13:12:25Z</time>
      </trkpt>
      <trkpt lat="49.92533" lon="2.18442">
        <ele>64.2</ele>
        <time>2022-11-09T13:12:26Z</time>
      </trkpt>
      <trkpt lat="49.92533" lon="2.1844">
        <ele>64.2</ele>
        <time>2022-11-09T13:12:28Z</time>
      </trkpt>
      <trkpt lat="49.92534" lon="2.18438">
        <ele>64.2</ele>
        <time>2022-11-09T13:12:29Z</time>
      </trkpt>
      <trkpt lat="49.92534" lon="2.18436">
        <ele>64.2</ele>
        <time>2022-11-09T13:12:30Z</time>
      </trkpt>
      <trkpt lat="49.92534" lon="2.18433">
        <ele>64.2</ele>
        <time>2022-11-09T13:12:31Z</time>
      </trkpt>
      <trkpt lat="49.92534" lon="2.18432">
        <ele>64.3</ele>
        <time>2022-11-09T13:12:32Z</time>
      </trkpt>
      <trkpt lat="49.92534" lon="2.1843">
        <ele>64.3</ele>
        <time>2022-11-09T13:12:33Z</time>
      </trkpt>
      <trkpt lat="49.92534" lon="2.18428">
        <ele>64.3</ele>
        <time>2022-11-09T13:12:34Z</time>
      </trkpt>
      <trkpt lat="49.92534" lon="2.18426">
        <ele>64.3</ele>
        <time>2022-11-09T13:12:35Z</time>
      </trkpt>
      <trkpt lat="49.92534" lon="2.18424">
        <ele>64.3</ele>
        <time>2022-11-09T13:12:36Z</time>
      </trkpt>
      <trkpt lat="49.92534" lon="2.18423">
        <ele>64.3</ele>
        <time>2022-11-09T13:12:37Z</time>
      </trkpt>
      <trkpt lat="49.92534" lon="2.18421">
        <ele>64.3</ele>
        <time>2022-11-09T13:12:38Z</time>
      </trkpt>
      <trkpt lat="49.92534" lon="2.18419">
        <ele>64.4</ele>
        <time>2022-11-09T13:12:39Z</time>
      </trkpt>
      <trkpt lat="49.92535" lon="2.18417">
        <ele>64.4</ele>
        <time>2022-11-09T13:12:40Z</time>
      </trkpt>
      <trkpt lat="49.92535" lon="2.18415">
        <ele>64.4</ele>
        <time>2022-11-09T13:12:42Z</time>
      </trkpt>
      <trkpt lat="49.92535" lon="2.18413">
        <ele>64.4</ele>
        <time>2022-11-09T13:12:43Z</time>
      </trkpt>
      <trkpt lat="49.92535" lon="2.18412">
        <ele>64.4</ele>
        <time>2022-11-09T13:12:44Z</time>
      </trkpt>
      <trkpt lat="49.92535" lon="2.18411">
        <ele>64.4</ele>
        <time>2022-11-09T13:12:45Z</time>
      </trkpt>
      <trkpt lat="49.92536" lon="2.18409">
        <ele>64.4</ele>
        <time>2022-11-09T13:12:46Z</time>
      </trkpt>
      <trkpt lat="49.92536" lon="2.18408">
        <ele>64.4</ele>
        <time>2022-11-09T13:12:47Z</time>
      </trkpt>
      <trkpt lat="49.92537" lon="2.18406">
        <ele>64.5</ele>
        <time>2022-11-09T13:12:48Z</time>
      </trkpt>
      <trkpt lat="49.92537" lon="2.18404">
        <ele>64.5</ele>
        <time>2022-11-09T13:12:49Z</time>
      </trkpt>
      <trkpt lat="49.92538" lon="2.18402">
        <ele>64.5</ele>
        <time>2022-11-09T13:12:50Z</time>
      </trkpt>
      <trkpt lat="49.92538" lon="2.18399">
        <ele>64.5</ele>
        <time>2022-11-09T13:12:52Z</time>
      </trkpt>
      <trkpt lat="49.92538" lon="2.18396">
        <ele>64.5</ele>
        <time>2022-11-09T13:12:53Z</time>
      </trkpt>
      <trkpt lat="49.92538" lon="2.18395">
        <ele>64.5</ele>
        <time>2022-11-09T13:12:54Z</time>
      </trkpt>
      <trkpt lat="49.92539" lon="2.18393">
        <ele>64.5</ele>
        <time>2022-11-09T13:12:55Z</time>
      </trkpt>
      <trkpt lat="49.92539" lon="2.18391">
        <ele>64.5</ele>
        <time>2022-11-09T13:12:56Z</time>
      </trkpt>
      <trkpt lat="49.92539" lon="2.18389">
        <ele>64.6</ele>
        <time>2022-11-09T13:12:57Z</time>
      </trkpt>
      <trkpt lat="49.92539" lon="2.18385">
        <ele>64.6</ele>
        <time>2022-11-09T13:12:59Z</time>
      </trkpt>
      <trkpt lat="49.92539" lon="2.18384">
        <ele>64.6</ele>
        <time>2022-11-09T13:13:00Z</time>
      </trkpt>
      <trkpt lat="49.92539" lon="2.18383">
        <ele>64.6</ele>
        <time>2022-11-09T13:13:01Z</time>
      </trkpt>
      <trkpt lat="49.9254" lon="2.18381">
        <ele>64.6</ele>
        <time>2022-11-09T13:13:02Z</time>
      </trkpt>
      <trkpt lat="49.9254" lon="2.18379">
        <ele>64.6</ele>
        <time>2022-11-09T13:13:03Z</time>
      </trkpt>
      <trkpt lat="49.9254" lon="2.18376">
        <ele>64.6</ele>
        <time>2022-11-09T13:13:04Z</time>
      </trkpt>
      <trkpt lat="49.9254" lon="2.18374">
        <ele>64.6</ele>
        <time>2022-11-09T13:13:05Z</time>
      </trkpt>
      <trkpt lat="49.9254" lon="2.18371">
        <ele>64.7</ele>
        <time>2022-11-09T13:13:06Z</time>
      </trkpt>
      <trkpt lat="49.9254" lon="2.18369">
        <ele>64.7</ele>
        <time>2022-11-09T13:13:08Z</time>
      </trkpt>
      <trkpt lat="49.92541" lon="2.18367">
        <ele>64.7</ele>
        <time>2022-11-09T13:13:09Z</time>
      </trkpt>
      <trkpt lat="49.92541" lon="2.18365">
        <ele>64.7</ele>
        <time>2022-11-09T13:13:10Z</time>
      </trkpt>
      <trkpt lat="49.92541" lon="2.18361">
        <ele>64.7</ele>
        <time>2022-11-09T13:13:11Z</time>
      </trkpt>
      <trkpt lat="49.92542" lon="2.1836">
        <ele>64.7</ele>
        <time>2022-11-09T13:13:12Z</time>
      </trkpt>
      <trkpt lat="49.92542" lon="2.18359">
        <ele>64.7</ele>
        <time>2022-11-09T13:13:13Z</time>
      </trkpt>
      <trkpt lat="49.92542" lon="2.18357">
        <ele>64.7</ele>
        <time>2022-11-09T13:13:14Z</time>
      </trkpt>
      <trkpt lat="49.92542" lon="2.18354">
        <ele>64.7</ele>
        <time>2022-11-09T13:13:16Z</time>
      </trkpt>
      <trkpt lat="49.92542" lon="2.18353">
        <ele>64.7</ele>
        <time>2022-11-09T13:13:17Z</time>
      </trkpt>
      <trkpt lat="49.92543" lon="2.18351">
        <ele>64.8</ele>
        <time>2022-11-09T13:13:18Z</time>
      </trkpt>
      <trkpt lat="49.92543" lon="2.18349">
        <ele>64.8</ele>
        <time>2022-11-09T13:13:19Z</time>
      </trkpt>
      <trkpt lat="49.92543" lon="2.18346">
        <ele>64.8</ele>
        <time>2022-11-09T13:13:20Z</time>
      </trkpt>
      <trkpt lat="49.92543" lon="2.18344">
        <ele>64.8</ele>
        <time>2022-11-09T13:13:21Z</time>
      </trkpt>
      <trkpt lat="49.92544" lon="2.18342">
        <ele>64.8</ele>
        <time>2022-11-09T13:13:22Z</time>
      </trkpt>
      <trkpt lat="49.92544" lon="2.1834">
        <ele>64.8</ele>
        <time>2022-11-09T13:13:23Z</time>
      </trkpt>
      <trkpt lat="49.92544" lon="2.18339">
        <ele>64.8</ele>
        <time>2022-11-09T13:13:24Z</time>
      </trkpt>
      <trkpt lat="49.92544" lon="2.18337">
        <ele>64.8</ele>
        <time>2022-11-09T13:13:25Z</time>
      </trkpt>
      <trkpt lat="49.92545" lon="2.18335">
        <ele>64.8</ele>
        <time>2022-11-09T13:13:26Z</time>
      </trkpt>
      <trkpt lat="49.92545" lon="2.18333">
        <ele>64.8</ele>
        <time>2022-11-09T13:13:28Z</time>
      </trkpt>
      <trkpt lat="49.92546" lon="2.18332">
        <ele>64.8</ele>
        <time>2022-11-09T13:13:29Z</time>
      </trkpt>
      <trkpt lat="49.92546" lon="2.1833">
        <ele>64.8</ele>
        <time>2022-11-09T13:13:30Z</time>
      </trkpt>
      <trkpt lat="49.92546" lon="2.18328">
        <ele>64.8</ele>
        <time>2022-11-09T13:13:31Z</time>
      </trkpt>
      <trkpt lat="49.92546" lon="2.18327">
        <ele>64.8</ele>
        <time>2022-11-09T13:13:32Z</time>
      </trkpt>
      <trkpt lat="49.92547" lon="2.18326">
        <ele>64.8</ele>
        <time>2022-11-09T13:13:33Z</time>
      </trkpt>
      <trkpt lat="49.92547" lon="2.18322">
        <ele>64.8</ele>
        <time>2022-11-09T13:13:34Z</time>
      </trkpt>
      <trkpt lat="49.92547" lon="2.1832">
        <ele>64.8</ele>
        <time>2022-11-09T13:13:35Z</time>
      </trkpt>
      <trkpt lat="49.92547" lon="2.18319">
        <ele>64.8</ele>
        <time>2022-11-09T13:13:36Z</time>
      </trkpt>
      <trkpt lat="49.92548" lon="2.18317">
        <ele>64.8</ele>
        <time>2022-11-09T13:13:37Z</time>
      </trkpt>
      <trkpt lat="49.92548" lon="2.18314">
        <ele>64.8</ele>
        <time>2022-11-09T13:13:38Z</time>
      </trkpt>
      <trkpt lat="49.92548" lon="2.18312">
        <ele>64.8</ele>
        <time>2022-11-09T13:13:39Z</time>
      </trkpt>
      <trkpt lat="49.92548" lon="2.1831">
        <ele>64.8</ele>
        <time>2022-11-09T13:13:40Z</time>
      </trkpt>
      <trkpt lat="49.92549" lon="2.18307">
        <ele>64.8</ele>
        <time>2022-11-09T13:13:41Z</time>
      </trkpt>
      <trkpt lat="49.92549" lon="2.18305">
        <ele>64.8</ele>
        <time>2022-11-09T13:13:42Z</time>
      </trkpt>
      <trkpt lat="49.92549" lon="2.18304">
        <ele>64.8</ele>
        <time>2022-11-09T13:13:43Z</time>
      </trkpt>
      <trkpt lat="49.9255" lon="2.183">
        <ele>64.8</ele>
        <time>2022-11-09T13:13:45Z</time>
      </trkpt>
      <trkpt lat="49.9255" lon="2.18299">
        <ele>64.8</ele>
        <time>2022-11-09T13:13:46Z</time>
      </trkpt>
      <trkpt lat="49.9255" lon="2.18298">
        <ele>64.8</ele>
        <time>2022-11-09T13:13:47Z</time>
      </trkpt>
      <trkpt lat="49.9255" lon="2.18295">
        <ele>64.8</ele>
        <time>2022-11-09T13:13:48Z</time>
      </trkpt>
      <trkpt lat="49.9255" lon="2.18294">
        <ele>64.8</ele>
        <time>2022-11-09T13:13:49Z</time>
      </trkpt>
      <trkpt lat="49.9255" lon="2.18292">
        <ele>64.8</ele>
        <time>2022-11-09T13:13:50Z</time>
      </trkpt>
      <trkpt lat="49.92551" lon="2.18289">
        <ele>64.8</ele>
        <time>2022-11-09T13:13:51Z</time>
      </trkpt>
      <trkpt lat="49.92551" lon="2.18287">
        <ele>64.8</ele>
        <time>2022-11-09T13:13:53Z</time>
      </trkpt>
      <trkpt lat="49.92551" lon="2.18286">
        <ele>64.8</ele>
        <time>2022-11-09T13:13:54Z</time>
      </trkpt>
      <trkpt lat="49.92552" lon="2.18284">
        <ele>64.8</ele>
        <time>2022-11-09T13:13:55Z</time>
      </trkpt>
      <trkpt lat="49.92552" lon="2.18282">
        <ele>64.8</ele>
        <time>2022-11-09T13:13:56Z</time>
      </trkpt>
      <trkpt lat="49.92552" lon="2.18279">
        <ele>64.8</ele>
        <time>2022-11-09T13:13:57Z</time>
      </trkpt>
      <trkpt lat="49.92552" lon="2.18277">
        <ele>64.8</ele>
        <time>2022-11-09T13:13:58Z</time>
      </trkpt>
      <trkpt lat="49.92552" lon="2.18276">
        <ele>64.8</ele>
        <time>2022-11-09T13:13:59Z</time>
      </trkpt>
      <trkpt lat="49.92552" lon="2.18273">
        <ele>64.8</ele>
        <time>2022-11-09T13:14:00Z</time>
      </trkpt>
      <trkpt lat="49.92552" lon="2.18272">
        <ele>64.8</ele>
        <time>2022-11-09T13:14:02Z</time>
      </trkpt>
      <trkpt lat="49.92552" lon="2.1827">
        <ele>64.8</ele>
        <time>2022-11-09T13:14:03Z</time>
      </trkpt>
      <trkpt lat="49.92552" lon="2.18269">
        <ele>64.8</ele>
        <time>2022-11-09T13:14:04Z</time>
      </trkpt>
      <trkpt lat="49.92552" lon="2.18267">
        <ele>64.8</ele>
        <time>2022-11-09T13:14:05Z</time>
      </trkpt>
      <trkpt lat="49.92552" lon="2.18265">
        <ele>64.8</ele>
        <time>2022-11-09T13:14:06Z</time>
      </trkpt>
      <trkpt lat="49.92552" lon="2.18263">
        <ele>64.8</ele>
        <time>2022-11-09T13:14:07Z</time>
      </trkpt>
      <trkpt lat="49.92552" lon="2.18261">
        <ele>64.8</ele>
        <time>2022-11-09T13:14:08Z</time>
      </trkpt>
      <trkpt lat="49.92553" lon="2.18259">
        <ele>64.8</ele>
        <time>2022-11-09T13:14:10Z</time>
      </trkpt>
      <trkpt lat="49.92553" lon="2.18257">
        <ele>64.8</ele>
        <time>2022-11-09T13:14:11Z</time>
      </trkpt>
      <trkpt lat="49.92553" lon="2.18255">
        <ele>64.8</ele>
        <time>2022-11-09T13:14:12Z</time>
      </trkpt>
      <trkpt lat="49.92553" lon="2.18253">
        <ele>64.8</ele>
        <time>2022-11-09T13:14:13Z</time>
      </trkpt>
      <trkpt lat="49.92553" lon="2.18251">
        <ele>64.8</ele>
        <time>2022-11-09T13:14:15Z</time>
      </trkpt>
      <trkpt lat="49.92554" lon="2.1825">
        <ele>64.8</ele>
        <time>2022-11-09T13:14:16Z</time>
      </trkpt>
      <trkpt lat="49.92554" lon="2.18248">
        <ele>64.8</ele>
        <time>2022-11-09T13:14:17Z</time>
      </trkpt>
      <trkpt lat="49.92554" lon="2.18246">
        <ele>64.8</ele>
        <time>2022-11-09T13:14:18Z</time>
      </trkpt>
      <trkpt lat="49.92554" lon="2.18243">
        <ele>64.8</ele>
        <time>2022-11-09T13:14:19Z</time>
      </trkpt>
      <trkpt lat="49.92555" lon="2.18241">
        <ele>64.8</ele>
        <time>2022-11-09T13:14:20Z</time>
      </trkpt>
      <trkpt lat="49.92555" lon="2.18239">
        <ele>64.8</ele>
        <time>2022-11-09T13:14:21Z</time>
      </trkpt>
      <trkpt lat="49.92556" lon="2.18236">
        <ele>64.8</ele>
        <time>2022-11-09T13:14:22Z</time>
      </trkpt>
      <trkpt lat="49.92556" lon="2.18234">
        <ele>64.8</ele>
        <time>2022-11-09T13:14:23Z</time>
      </trkpt>
      <trkpt lat="49.92557" lon="2.18232">
        <ele>64.8</ele>
        <time>2022-11-09T13:14:24Z</time>
      </trkpt>
      <trkpt lat="49.92557" lon="2.18231">
        <ele>64.8</ele>
        <time>2022-11-09T13:14:25Z</time>
      </trkpt>
      <trkpt lat="49.92558" lon="2.18228">
        <ele>64.8</ele>
        <time>2022-11-09T13:14:27Z</time>
      </trkpt>
      <trkpt lat="49.92558" lon="2.18225">
        <ele>64.8</ele>
        <time>2022-11-09T13:14:28Z</time>
      </trkpt>
      <trkpt lat="49.92558" lon="2.18224">
        <ele>64.8</ele>
        <time>2022-11-09T13:14:29Z</time>
      </trkpt>
      <trkpt lat="49.92559" lon="2.18223">
        <ele>64.8</ele>
        <time>2022-11-09T13:14:30Z</time>
      </trkpt>
      <trkpt lat="49.92559" lon="2.18219">
        <ele>64.8</ele>
        <time>2022-11-09T13:14:31Z</time>
      </trkpt>
      <trkpt lat="49.92559" lon="2.18218">
        <ele>64.8</ele>
        <time>2022-11-09T13:14:32Z</time>
      </trkpt>
      <trkpt lat="49.92559" lon="2.18217">
        <ele>64.8</ele>
        <time>2022-11-09T13:14:33Z</time>
      </trkpt>
      <trkpt lat="49.9256" lon="2.18215">
        <ele>64.8</ele>
        <time>2022-11-09T13:14:34Z</time>
      </trkpt>
      <trkpt lat="49.9256" lon="2.18213">
        <ele>64.7</ele>
        <time>2022-11-09T13:14:36Z</time>
      </trkpt>
      <trkpt lat="49.92561" lon="2.1821">
        <ele>64.7</ele>
        <time>2022-11-09T13:14:37Z</time>
      </trkpt>
      <trkpt lat="49.92561" lon="2.18208">
        <ele>64.7</ele>
        <time>2022-11-09T13:14:38Z</time>
      </trkpt>
      <trkpt lat="49.92561" lon="2.18206">
        <ele>64.7</ele>
        <time>2022-11-09T13:14:40Z</time>
      </trkpt>
      <trkpt lat="49.92562" lon="2.18204">
        <ele>64.7</ele>
        <time>2022-11-09T13:14:41Z</time>
      </trkpt>
      <trkpt lat="49.92562" lon="2.18203">
        <ele>64.7</ele>
        <time>2022-11-09T13:14:42Z</time>
      </trkpt>
      <trkpt lat="49.92562" lon="2.18202">
        <ele>64.7</ele>
        <time>2022-11-09T13:14:43Z</time>
      </trkpt>
      <trkpt lat="49.92562" lon="2.182">
        <ele>64.7</ele>
        <time>2022-11-09T13:14:44Z</time>
      </trkpt>
      <trkpt lat="49.92563" lon="2.18198">
        <ele>64.7</ele>
        <time>2022-11-09T13:14:45Z</time>
      </trkpt>
      <trkpt lat="49.92563" lon="2.18195">
        <ele>64.7</ele>
        <time>2022-11-09T13:14:47Z</time>
      </trkpt>
      <trkpt lat="49.92564" lon="2.18193">
        <ele>64.6</ele>
        <time>2022-11-09T13:14:48Z</time>
      </trkpt>
      <trkpt lat="49.92564" lon="2.18192">
        <ele>64.6</ele>
        <time>2022-11-09T13:14:49Z</time>
      </trkpt>
      <trkpt lat="49.92564" lon="2.18189">
        <ele>64.6</ele>
        <time>2022-11-09T13:14:50Z</time>
      </trkpt>
      <trkpt lat="49.92565" lon="2.18187">
        <ele>64.6</ele>
        <time>2022-11-09T13:14:51Z</time>
      </trkpt>
      <trkpt lat="49.92565" lon="2.18186">
        <ele>64.6</ele>
        <time>2022-11-09T13:14:52Z</time>
      </trkpt>
      <trkpt lat="49.92565" lon="2.18183">
        <ele>64.6</ele>
        <time>2022-11-09T13:14:53Z</time>
      </trkpt>
      <trkpt lat="49.92566" lon="2.18182">
        <ele>64.6</ele>
        <time>2022-11-09T13:14:54Z</time>
      </trkpt>
      <trkpt lat="49.92566" lon="2.18181">
        <ele>64.6</ele>
        <time>2022-11-09T13:14:55Z</time>
      </trkpt>
      <trkpt lat="49.92566" lon="2.18177">
        <ele>64.6</ele>
        <time>2022-11-09T13:14:56Z</time>
      </trkpt>
      <trkpt lat="49.92566" lon="2.18176">
        <ele>64.6</ele>
        <time>2022-11-09T13:14:58Z</time>
      </trkpt>
      <trkpt lat="49.92566" lon="2.18175">
        <ele>64.6</ele>
        <time>2022-11-09T13:14:59Z</time>
      </trkpt>
      <trkpt lat="49.92566" lon="2.18172">
        <ele>64.6</ele>
        <time>2022-11-09T13:15:00Z</time>
      </trkpt>
      <trkpt lat="49.92566" lon="2.1817">
        <ele>64.5</ele>
        <time>2022-11-09T13:15:01Z</time>
      </trkpt>
      <trkpt lat="49.92566" lon="2.18169">
        <ele>64.5</ele>
        <time>2022-11-09T13:15:02Z</time>
      </trkpt>
      <trkpt lat="49.92567" lon="2.18167">
        <ele>64.5</ele>
        <time>2022-11-09T13:15:03Z</time>
      </trkpt>
      <trkpt lat="49.92567" lon="2.18165">
        <ele>64.5</ele>
        <time>2022-11-09T13:15:04Z</time>
      </trkpt>
      <trkpt lat="49.92568" lon="2.18163">
        <ele>64.5</ele>
        <time>2022-11-09T13:15:05Z</time>
      </trkpt>
      <trkpt lat="49.92568" lon="2.18161">
        <ele>64.5</ele>
        <time>2022-11-09T13:15:06Z</time>
      </trkpt>
      <trkpt lat="49.92568" lon="2.18159">
        <ele>64.5</ele>
        <time>2022-11-09T13:15:07Z</time>
      </trkpt>
      <trkpt lat="49.92567" lon="2.18156">
        <ele>64.5</ele>
        <time>2022-11-09T13:15:08Z</time>
      </trkpt>
      <trkpt lat="49.92567" lon="2.18155">
        <ele>64.5</ele>
        <time>2022-11-09T13:15:09Z</time>
      </trkpt>
      <trkpt lat="49.92567" lon="2.18153">
        <ele>64.5</ele>
        <time>2022-11-09T13:15:10Z</time>
      </trkpt>
      <trkpt lat="49.92567" lon="2.18151">
        <ele>64.5</ele>
        <time>2022-11-09T13:15:11Z</time>
      </trkpt>
      <trkpt lat="49.92567" lon="2.18149">
        <ele>64.4</ele>
        <time>2022-11-09T13:15:12Z</time>
      </trkpt>
      <trkpt lat="49.92568" lon="2.18146">
        <ele>64.4</ele>
        <time>2022-11-09T13:15:14Z</time>
      </trkpt>
      <trkpt lat="49.92568" lon="2.18144">
        <ele>64.4</ele>
        <time>2022-11-09T13:15:15Z</time>
      </trkpt>
      <trkpt lat="49.92568" lon="2.18141">
        <ele>64.4</ele>
        <time>2022-11-09T13:15:16Z</time>
      </trkpt>
      <trkpt lat="49.92568" lon="2.18139">
        <ele>64.4</ele>
        <time>2022-11-09T13:15:17Z</time>
      </trkpt>
      <trkpt lat="49.92568" lon="2.18136">
        <ele>64.4</ele>
        <time>2022-11-09T13:15:18Z</time>
      </trkpt>
      <trkpt lat="49.92568" lon="2.18135">
        <ele>64.4</ele>
        <time>2022-11-09T13:15:19Z</time>
      </trkpt>
      <trkpt lat="49.92568" lon="2.18133">
        <ele>64.4</ele>
        <time>2022-11-09T13:15:20Z</time>
      </trkpt>
      <trkpt lat="49.92568" lon="2.1813">
        <ele>64.4</ele>
        <time>2022-11-09T13:15:22Z</time>
      </trkpt>
      <trkpt lat="49.92568" lon="2.18129">
        <ele>64.3</ele>
        <time>2022-11-09T13:15:23Z</time>
      </trkpt>
      <trkpt lat="49.92568" lon="2.18127">
        <ele>64.3</ele>
        <time>2022-11-09T13:15:24Z</time>
      </trkpt>
      <trkpt lat="49.92568" lon="2.18124">
        <ele>64.3</ele>
        <time>2022-11-09T13:15:25Z</time>
      </trkpt>
      <trkpt lat="49.92568" lon="2.18123">
        <ele>64.3</ele>
        <time>2022-11-09T13:15:26Z</time>
      </trkpt>
      <trkpt lat="49.92569" lon="2.18122">
        <ele>64.3</ele>
        <time>2022-11-09T13:15:27Z</time>
      </trkpt>
      <trkpt lat="49.92569" lon="2.18119">
        <ele>64.3</ele>
        <time>2022-11-09T13:15:28Z</time>
      </trkpt>
      <trkpt lat="49.92569" lon="2.18117">
        <ele>64.3</ele>
        <time>2022-11-09T13:15:30Z</time>
      </trkpt>
      <trkpt lat="49.92569" lon="2.18115">
        <ele>64.3</ele>
        <time>2022-11-09T13:15:31Z</time>
      </trkpt>
      <trkpt lat="49.92569" lon="2.18113">
        <ele>64.3</ele>
        <time>2022-11-09T13:15:32Z</time>
      </trkpt>
      <trkpt lat="49.9257" lon="2.18109">
        <ele>64.3</ele>
        <time>2022-11-09T13:15:33Z</time>
      </trkpt>
      <trkpt lat="49.9257" lon="2.18108">
        <ele>64.2</ele>
        <time>2022-11-09T13:15:34Z</time>
      </trkpt>
      <trkpt lat="49.9257" lon="2.18107">
        <ele>64.2</ele>
        <time>2022-11-09T13:15:35Z</time>
      </trkpt>
      <trkpt lat="49.9257" lon="2.18104">
        <ele>64.2</ele>
        <time>2022-11-09T13:15:37Z</time>
      </trkpt>
      <trkpt lat="49.92571" lon="2.18102">
        <ele>64.2</ele>
        <time>2022-11-09T13:15:38Z</time>
      </trkpt>
      <trkpt lat="49.92571" lon="2.18101">
        <ele>64.2</ele>
        <time>2022-11-09T13:15:39Z</time>
      </trkpt>
      <trkpt lat="49.92571" lon="2.18099">
        <ele>64.2</ele>
        <time>2022-11-09T13:15:40Z</time>
      </trkpt>
      <trkpt lat="49.92571" lon="2.18097">
        <ele>64.2</ele>
        <time>2022-11-09T13:15:41Z</time>
      </trkpt>
      <trkpt lat="49.92571" lon="2.18095">
        <ele>64.2</ele>
        <time>2022-11-09T13:15:42Z</time>
      </trkpt>
      <trkpt lat="49.92571" lon="2.18094">
        <ele>64.2</ele>
        <time>2022-11-09T13:15:43Z</time>
      </trkpt>
      <trkpt lat="49.92572" lon="2.18092">
        <ele>64.2</ele>
        <time>2022-11-09T13:15:44Z</time>
      </trkpt>
      <trkpt lat="49.92572" lon="2.1809">
        <ele>64.2</ele>
        <time>2022-11-09T13:15:45Z</time>
      </trkpt>
      <trkpt lat="49.92572" lon="2.18088">
        <ele>64.1</ele>
        <time>2022-11-09T13:15:46Z</time>
      </trkpt>
      <trkpt lat="49.92572" lon="2.18087">
        <ele>64.1</ele>
        <time>2022-11-09T13:15:48Z</time>
      </trkpt>
      <trkpt lat="49.92572" lon="2.18085">
        <ele>64.1</ele>
        <time>2022-11-09T13:15:49Z</time>
      </trkpt>
      <trkpt lat="49.92572" lon="2.18085">
        <ele>64.1</ele>
        <time>2022-11-09T13:15:50Z</time>
      </trkpt>
      <trkpt lat="49.9257" lon="2.18085">
        <ele>64.1</ele>
        <time>2022-11-09T13:15:51Z</time>
      </trkpt>
      <trkpt lat="49.92569" lon="2.18085">
        <ele>64.1</ele>
        <time>2022-11-09T13:15:53Z</time>
      </trkpt>
      <trkpt lat="49.92568" lon="2.18085">
        <ele>64.1</ele>
        <time>2022-11-09T13:15:54Z</time>
      </trkpt>
      <trkpt lat="49.92568" lon="2.18086">
        <ele>64.1</ele>
        <time>2022-11-09T13:15:55Z</time>
      </trkpt>
      <trkpt lat="49.92567" lon="2.18087">
        <ele>64.1</ele>
        <time>2022-11-09T13:15:56Z</time>
      </trkpt>
      <trkpt lat="49.92567" lon="2.18088">
        <ele>64.1</ele>
        <time>2022-11-09T13:15:57Z</time>
      </trkpt>
      <trkpt lat="49.92566" lon="2.18089">
        <ele>64.1</ele>
        <time>2022-11-09T13:15:58Z</time>
      </trkpt>
      <trkpt lat="49.92566" lon="2.1809">
        <ele>64.1</ele>
        <time>2022-11-09T13:15:59Z</time>
      </trkpt>
      <trkpt lat="49.92566" lon="2.1809">
        <ele>64.1</ele>
        <time>2022-11-09T13:16:00Z</time>
      </trkpt>
      <trkpt lat="49.92566" lon="2.1809">
        <ele>64.1</ele>
        <time>2022-11-09T13:16:01Z</time>
      </trkpt>
      <trkpt lat="49.92566" lon="2.1809">
        <ele>64.1</ele>
        <time>2022-11-09T13:16:02Z</time>
      </trkpt>
      <trkpt lat="49.92566" lon="2.18091">
        <ele>64.1</ele>
        <time>2022-11-09T13:16:03Z</time>
      </trkpt>
      <trkpt lat="49.92566" lon="2.18091">
        <ele>64.1</ele>
        <time>2022-11-09T13:16:04Z</time>
      </trkpt>
      <trkpt lat="49.92566" lon="2.18091">
        <ele>64.1</ele>
        <time>2022-11-09T13:16:05Z</time>
      </trkpt>
      <trkpt lat="49.92566" lon="2.1809">
        <ele>64.1</ele>
        <time>2022-11-09T13:16:06Z</time>
      </trkpt>
      <trkpt lat="49.92567" lon="2.1809">
        <ele>64.1</ele>
        <time>2022-11-09T13:16:07Z</time>
      </trkpt>
      <trkpt lat="49.92567" lon="2.1809">
        <ele>64.1</ele>
        <time>2022-11-09T13:16:08Z</time>
      </trkpt>
      <trkpt lat="49.92568" lon="2.1809">
        <ele>64.1</ele>
        <time>2022-11-09T13:16:09Z</time>
      </trkpt>
      <trkpt lat="49.92568" lon="2.18089">
        <ele>64.1</ele>
        <time>2022-11-09T13:16:10Z</time>
      </trkpt>
      <trkpt lat="49.92569" lon="2.18089">
        <ele>64</ele>
        <time>2022-11-09T13:16:11Z</time>
      </trkpt>
      <trkpt lat="49.92569" lon="2.18089">
        <ele>64</ele>
        <time>2022-11-09T13:16:12Z</time>
      </trkpt>
      <trkpt lat="49.92569" lon="2.18089">
        <ele>64</ele>
        <time>2022-11-09T13:16:13Z</time>
      </trkpt>
      <trkpt lat="49.9257" lon="2.18087">
        <ele>64</ele>
        <time>2022-11-09T13:16:14Z</time>
      </trkpt>
      <trkpt lat="49.92571" lon="2.18086">
        <ele>64</ele>
        <time>2022-11-09T13:16:15Z</time>
      </trkpt>
      <trkpt lat="49.92572" lon="2.18085">
        <ele>64</ele>
        <time>2022-11-09T13:16:16Z</time>
      </trkpt>
      <trkpt lat="49.92572" lon="2.18084">
        <ele>64</ele>
        <time>2022-11-09T13:16:17Z</time>
      </trkpt>
      <trkpt lat="49.92573" lon="2.18083">
        <ele>64</ele>
        <time>2022-11-09T13:16:18Z</time>
      </trkpt>
      <trkpt lat="49.92574" lon="2.18082">
        <ele>64</ele>
        <time>2022-11-09T13:16:19Z</time>
      </trkpt>
      <trkpt lat="49.92574" lon="2.18081">
        <ele>64</ele>
        <time>2022-11-09T13:16:20Z</time>
      </trkpt>
      <trkpt lat="49.92574" lon="2.1808">
        <ele>64</ele>
        <time>2022-11-09T13:16:21Z</time>
      </trkpt>
      <trkpt lat="49.92575" lon="2.18079">
        <ele>64</ele>
        <time>2022-11-09T13:16:22Z</time>
      </trkpt>
      <trkpt lat="49.92575" lon="2.18078">
        <ele>64</ele>
        <time>2022-11-09T13:16:23Z</time>
      </trkpt>
      <trkpt lat="49.92575" lon="2.18077">
        <ele>64</ele>
        <time>2022-11-09T13:16:24Z</time>
      </trkpt>
      <trkpt lat="49.92575" lon="2.18077">
        <ele>64</ele>
        <time>2022-11-09T13:16:25Z</time>
      </trkpt>
      <trkpt lat="49.92575" lon="2.18076">
        <ele>64</ele>
        <time>2022-11-09T13:16:26Z</time>
      </trkpt>
      <trkpt lat="49.92575" lon="2.18075">
        <ele>64</ele>
        <time>2022-11-09T13:16:27Z</time>
      </trkpt>
      <trkpt lat="49.92575" lon="2.18075">
        <ele>64</ele>
        <time>2022-11-09T13:16:28Z</time>
      </trkpt>
      <trkpt lat="49.92575" lon="2.18074">
        <ele>64</ele>
        <time>2022-11-09T13:16:29Z</time>
      </trkpt>
      <trkpt lat="49.92575" lon="2.18074">
        <ele>64</ele>
        <time>2022-11-09T13:16:30Z</time>
      </trkpt>
      <trkpt lat="49.92575" lon="2.18074">
        <ele>64</ele>
        <time>2022-11-09T13:16:31Z</time>
      </trkpt>
      <trkpt lat="49.92575" lon="2.18074">
        <ele>63.9</ele>
        <time>2022-11-09T13:16:32Z</time>
      </trkpt>
      <trkpt lat="49.92575" lon="2.18074">
        <ele>63.9</ele>
        <time>2022-11-09T13:16:33Z</time>
      </trkpt>
      <trkpt lat="49.92575" lon="2.18074">
        <ele>63.9</ele>
        <time>2022-11-09T13:16:34Z</time>
      </trkpt>
      <trkpt lat="49.92574" lon="2.18074">
        <ele>63.9</ele>
        <time>2022-11-09T13:16:35Z</time>
      </trkpt>
      <trkpt lat="49.92574" lon="2.18074">
        <ele>63.9</ele>
        <time>2022-11-09T13:16:36Z</time>
      </trkpt>
      <trkpt lat="49.92574" lon="2.18074">
        <ele>63.9</ele>
        <time>2022-11-09T13:16:37Z</time>
      </trkpt>
      <trkpt lat="49.92574" lon="2.18074">
        <ele>63.9</ele>
        <time>2022-11-09T13:16:38Z</time>
      </trkpt>
      <trkpt lat="49.92574" lon="2.18074">
        <ele>63.9</ele>
        <time>2022-11-09T13:16:39Z</time>
      </trkpt>
      <trkpt lat="49.92574" lon="2.18074">
        <ele>63.9</ele>
        <time>2022-11-09T13:16:40Z</time>
      </trkpt>
      <trkpt lat="49.92574" lon="2.18074">
        <ele>63.9</ele>
        <time>2022-11-09T13:16:41Z</time>
      </trkpt>
      <trkpt lat="49.92574" lon="2.18073">
        <ele>63.9</ele>
        <time>2022-11-09T13:16:42Z</time>
      </trkpt>
      <trkpt lat="49.92574" lon="2.18073">
        <ele>63.9</ele>
        <time>2022-11-09T13:16:43Z</time>
      </trkpt>
      <trkpt lat="49.92573" lon="2.18073">
        <ele>63.9</ele>
        <time>2022-11-09T13:16:44Z</time>
      </trkpt>
      <trkpt lat="49.92573" lon="2.18073">
        <ele>63.9</ele>
        <time>2022-11-09T13:16:45Z</time>
      </trkpt>
      <trkpt lat="49.92573" lon="2.18073">
        <ele>63.9</ele>
        <time>2022-11-09T13:16:46Z</time>
      </trkpt>
      <trkpt lat="49.92573" lon="2.18073">
        <ele>63.9</ele>
        <time>2022-11-09T13:16:47Z</time>
      </trkpt>
      <trkpt lat="49.92573" lon="2.18073">
        <ele>63.9</ele>
        <time>2022-11-09T13:16:48Z</time>
      </trkpt>
      <trkpt lat="49.92573" lon="2.18073">
        <ele>63.9</ele>
        <time>2022-11-09T13:16:49Z</time>
      </trkpt>
      <trkpt lat="49.92573" lon="2.18073">
        <ele>63.9</ele>
        <time>2022-11-09T13:16:50Z</time>
      </trkpt>
      <trkpt lat="49.92573" lon="2.18073">
        <ele>63.9</ele>
        <time>2022-11-09T13:16:51Z</time>
      </trkpt>
      <trkpt lat="49.92573" lon="2.18073">
        <ele>63.9</ele>
        <time>2022-11-09T13:16:52Z</time>
      </trkpt>
      <trkpt lat="49.92573" lon="2.18073">
        <ele>63.9</ele>
        <time>2022-11-09T13:16:53Z</time>
      </trkpt>
      <trkpt lat="49.92573" lon="2.18073">
        <ele>63.9</ele>
        <time>2022-11-09T13:16:54Z</time>
      </trkpt>
      <trkpt lat="49.92573" lon="2.18073">
        <ele>63.9</ele>
        <time>2022-11-09T13:16:55Z</time>
      </trkpt>
      <trkpt lat="49.92573" lon="2.18073">
        <ele>63.9</ele>
        <time>2022-11-09T13:16:56Z</time>
      </trkpt>
      <trkpt lat="49.92573" lon="2.18073">
        <ele>63.9</ele>
        <time>2022-11-09T13:16:57Z</time>
      </trkpt>
      <trkpt lat="49.92573" lon="2.18073">
        <ele>63.9</ele>
        <time>2022-11-09T13:16:58Z</time>
      </trkpt>
      <trkpt lat="49.92573" lon="2.18073">
        <ele>63.9</ele>
        <time>2022-11-09T13:16:59Z</time>
      </trkpt>
      <trkpt lat="49.92573" lon="2.18073">
        <ele>63.9</ele>
        <time>2022-11-09T13:17:00Z</time>
      </trkpt>
      <trkpt lat="49.92573" lon="2.18073">
        <ele>63.9</ele>
        <time>2022-11-09T13:17:01Z</time>
      </trkpt>
      <trkpt lat="49.92573" lon="2.18073">
        <ele>63.9</ele>
        <time>2022-11-09T13:17:02Z</time>
      </trkpt>
      <trkpt lat="49.92573" lon="2.18073">
        <ele>63.9</ele>
        <time>2022-11-09T13:17:03Z</time>
      </trkpt>
      <trkpt lat="49.92573" lon="2.18073">
        <ele>63.9</ele>
        <time>2022-11-09T13:17:04Z</time>
      </trkpt>
      <trkpt lat="49.92573" lon="2.18073">
        <ele>63.9</ele>
        <time>2022-11-09T13:17:05Z</time>
      </trkpt>
      <trkpt lat="49.92573" lon="2.18073">
        <ele>63.9</ele>
        <time>2022-11-09T13:17:06Z</time>
      </trkpt>
      <trkpt lat="49.92573" lon="2.18073">
        <ele>63.9</ele>
        <time>2022-11-09T13:17:07Z</time>
      </trkpt>
      <trkpt lat="49.92573" lon="2.18073">
        <ele>63.9</ele>
        <time>2022-11-09T13:17:08Z</time>
      </trkpt>
      <trkpt lat="49.92573" lon="2.18073">
        <ele>63.9</ele>
        <time>2022-11-09T13:17:09Z</time>
      </trkpt>
      <trkpt lat="49.92573" lon="2.18073">
        <ele>63.9</ele>
        <time>2022-11-09T13:17:10Z</time>
      </trkpt>
      <trkpt lat="49.92573" lon="2.18073">
        <ele>63.9</ele>
        <time>2022-11-09T13:17:11Z</time>
      </trkpt>
      <trkpt lat="49.92573" lon="2.18073">
        <ele>63.9</ele>
        <time>2022-11-09T13:17:12Z</time>
      </trkpt>
      <trkpt lat="49.92573" lon="2.18073">
        <ele>63.9</ele>
        <time>2022-11-09T13:17:13Z</time>
      </trkpt>
      <trkpt lat="49.92573" lon="2.18073">
        <ele>63.9</ele>
        <time>2022-11-09T13:17:14Z</time>
      </trkpt>
      <trkpt lat="49.92573" lon="2.18074">
        <ele>63.9</ele>
        <time>2022-11-09T13:17:15Z</time>
      </trkpt>
      <trkpt lat="49.92572" lon="2.18074">
        <ele>63.9</ele>
        <time>2022-11-09T13:17:16Z</time>
      </trkpt>
      <trkpt lat="49.92572" lon="2.18073">
        <ele>63.9</ele>
        <time>2022-11-09T13:17:17Z</time>
      </trkpt>
      <trkpt lat="49.92572" lon="2.18072">
        <ele>63.9</ele>
        <time>2022-11-09T13:17:18Z</time>
      </trkpt>
      <trkpt lat="49.92573" lon="2.18071">
        <ele>63.9</ele>
        <time>2022-11-09T13:17:19Z</time>
      </trkpt>
      <trkpt lat="49.92573" lon="2.1807">
        <ele>63.9</ele>
        <time>2022-11-09T13:17:20Z</time>
      </trkpt>
      <trkpt lat="49.92574" lon="2.18069">
        <ele>63.9</ele>
        <time>2022-11-09T13:17:21Z</time>
      </trkpt>
      <trkpt lat="49.92574" lon="2.18068">
        <ele>63.9</ele>
        <time>2022-11-09T13:17:22Z</time>
      </trkpt>
      <trkpt lat="49.92575" lon="2.18068">
        <ele>63.9</ele>
        <time>2022-11-09T13:17:23Z</time>
      </trkpt>
      <trkpt lat="49.92575" lon="2.18067">
        <ele>63.9</ele>
        <time>2022-11-09T13:17:24Z</time>
      </trkpt>
      <trkpt lat="49.92575" lon="2.18066">
        <ele>63.9</ele>
        <time>2022-11-09T13:17:25Z</time>
      </trkpt>
      <trkpt lat="49.92575" lon="2.18065">
        <ele>63.8</ele>
        <time>2022-11-09T13:17:26Z</time>
      </trkpt>
      <trkpt lat="49.92575" lon="2.18065">
        <ele>63.8</ele>
        <time>2022-11-09T13:17:27Z</time>
      </trkpt>
      <trkpt lat="49.92576" lon="2.18064">
        <ele>63.8</ele>
        <time>2022-11-09T13:17:28Z</time>
      </trkpt>
      <trkpt lat="49.92576" lon="2.18063">
        <ele>63.8</ele>
        <time>2022-11-09T13:17:29Z</time>
      </trkpt>
      <trkpt lat="49.92577" lon="2.18061">
        <ele>63.8</ele>
        <time>2022-11-09T13:17:30Z</time>
      </trkpt>
      <trkpt lat="49.92577" lon="2.1806">
        <ele>63.8</ele>
        <time>2022-11-09T13:17:31Z</time>
      </trkpt>
      <trkpt lat="49.92577" lon="2.18059">
        <ele>63.8</ele>
        <time>2022-11-09T13:17:32Z</time>
      </trkpt>
      <trkpt lat="49.92576" lon="2.18058">
        <ele>63.8</ele>
        <time>2022-11-09T13:17:33Z</time>
      </trkpt>
      <trkpt lat="49.92576" lon="2.18057">
        <ele>63.8</ele>
        <time>2022-11-09T13:17:34Z</time>
      </trkpt>
      <trkpt lat="49.92576" lon="2.18057">
        <ele>63.8</ele>
        <time>2022-11-09T13:17:35Z</time>
      </trkpt>
      <trkpt lat="49.92576" lon="2.18057">
        <ele>63.8</ele>
        <time>2022-11-09T13:17:36Z</time>
      </trkpt>
      <trkpt lat="49.92576" lon="2.18057">
        <ele>63.8</ele>
        <time>2022-11-09T13:17:37Z</time>
      </trkpt>
      <trkpt lat="49.92576" lon="2.18057">
        <ele>63.8</ele>
        <time>2022-11-09T13:17:38Z</time>
      </trkpt>
      <trkpt lat="49.92576" lon="2.18057">
        <ele>63.8</ele>
        <time>2022-11-09T13:17:39Z</time>
      </trkpt>
      <trkpt lat="49.92575" lon="2.18057">
        <ele>63.8</ele>
        <time>2022-11-09T13:17:40Z</time>
      </trkpt>
      <trkpt lat="49.92575" lon="2.18057">
        <ele>63.8</ele>
        <time>2022-11-09T13:17:41Z</time>
      </trkpt>
      <trkpt lat="49.92575" lon="2.18057">
        <ele>63.8</ele>
        <time>2022-11-09T13:17:42Z</time>
      </trkpt>
      <trkpt lat="49.92575" lon="2.18057">
        <ele>63.8</ele>
        <time>2022-11-09T13:17:43Z</time>
      </trkpt>
      <trkpt lat="49.92575" lon="2.18057">
        <ele>63.8</ele>
        <time>2022-11-09T13:17:44Z</time>
      </trkpt>
      <trkpt lat="49.92575" lon="2.18057">
        <ele>63.8</ele>
        <time>2022-11-09T13:17:45Z</time>
      </trkpt>
      <trkpt lat="49.92575" lon="2.18057">
        <ele>63.8</ele>
        <time>2022-11-09T13:17:46Z</time>
      </trkpt>
      <trkpt lat="49.92575" lon="2.18058">
        <ele>63.8</ele>
        <time>2022-11-09T13:17:47Z</time>
      </trkpt>
      <trkpt lat="49.92575" lon="2.18058">
        <ele>63.8</ele>
        <time>2022-11-09T13:17:48Z</time>
      </trkpt>
      <trkpt lat="49.92575" lon="2.18058">
        <ele>63.8</ele>
        <time>2022-11-09T13:17:49Z</time>
      </trkpt>
      <trkpt lat="49.92575" lon="2.18058">
        <ele>63.8</ele>
        <time>2022-11-09T13:17:50Z</time>
      </trkpt>
      <trkpt lat="49.92575" lon="2.18058">
        <ele>63.8</ele>
        <time>2022-11-09T13:17:51Z</time>
      </trkpt>
      <trkpt lat="49.92574" lon="2.18058">
        <ele>63.8</ele>
        <time>2022-11-09T13:17:52Z</time>
      </trkpt>
      <trkpt lat="49.92574" lon="2.18058">
        <ele>63.8</ele>
        <time>2022-11-09T13:17:53Z</time>
      </trkpt>
      <trkpt lat="49.92574" lon="2.18058">
        <ele>63.8</ele>
        <time>2022-11-09T13:17:54Z</time>
      </trkpt>
      <trkpt lat="49.92574" lon="2.18058">
        <ele>63.8</ele>
        <time>2022-11-09T13:17:55Z</time>
      </trkpt>
      <trkpt lat="49.92574" lon="2.18058">
        <ele>63.8</ele>
        <time>2022-11-09T13:17:56Z</time>
      </trkpt>
      <trkpt lat="49.92574" lon="2.18058">
        <ele>63.7</ele>
        <time>2022-11-09T13:17:57Z</time>
      </trkpt>
      <trkpt lat="49.92574" lon="2.18058">
        <ele>63.7</ele>
        <time>2022-11-09T13:17:58Z</time>
      </trkpt>
      <trkpt lat="49.92574" lon="2.18059">
        <ele>63.7</ele>
        <time>2022-11-09T13:17:59Z</time>
      </trkpt>
      <trkpt lat="49.92574" lon="2.18059">
        <ele>63.7</ele>
        <time>2022-11-09T13:18:00Z</time>
      </trkpt>
      <trkpt lat="49.92574" lon="2.18059">
        <ele>63.7</ele>
        <time>2022-11-09T13:18:01Z</time>
      </trkpt>
      <trkpt lat="49.92574" lon="2.18059">
        <ele>63.7</ele>
        <time>2022-11-09T13:18:02Z</time>
      </trkpt>
      <trkpt lat="49.92574" lon="2.18059">
        <ele>63.7</ele>
        <time>2022-11-09T13:18:03Z</time>
      </trkpt>
      <trkpt lat="49.92573" lon="2.18059">
        <ele>63.7</ele>
        <time>2022-11-09T13:18:04Z</time>
      </trkpt>
      <trkpt lat="49.92573" lon="2.18059">
        <ele>63.7</ele>
        <time>2022-11-09T13:18:05Z</time>
      </trkpt>
      <trkpt lat="49.92573" lon="2.18059">
        <ele>63.7</ele>
        <time>2022-11-09T13:18:06Z</time>
      </trkpt>
      <trkpt lat="49.92573" lon="2.18059">
        <ele>63.7</ele>
        <time>2022-11-09T13:18:07Z</time>
      </trkpt>
      <trkpt lat="49.92573" lon="2.18059">
        <ele>63.7</ele>
        <time>2022-11-09T13:18:08Z</time>
      </trkpt>
      <trkpt lat="49.92573" lon="2.18059">
        <ele>63.7</ele>
        <time>2022-11-09T13:18:09Z</time>
      </trkpt>
      <trkpt lat="49.92573" lon="2.18059">
        <ele>63.7</ele>
        <time>2022-11-09T13:18:10Z</time>
      </trkpt>
      <trkpt lat="49.92573" lon="2.18059">
        <ele>63.7</ele>
        <time>2022-11-09T13:18:11Z</time>
      </trkpt>
      <trkpt lat="49.92573" lon="2.1806">
        <ele>63.7</ele>
        <time>2022-11-09T13:18:12Z</time>
      </trkpt>
      <trkpt lat="49.92573" lon="2.1806">
        <ele>63.7</ele>
        <time>2022-11-09T13:18:13Z</time>
      </trkpt>
      <trkpt lat="49.92573" lon="2.1806">
        <ele>63.7</ele>
        <time>2022-11-09T13:18:14Z</time>
      </trkpt>
      <trkpt lat="49.92572" lon="2.1806">
        <ele>63.7</ele>
        <time>2022-11-09T13:18:15Z</time>
      </trkpt>
      <trkpt lat="49.92572" lon="2.1806">
        <ele>63.7</ele>
        <time>2022-11-09T13:18:16Z</time>
      </trkpt>
      <trkpt lat="49.92572" lon="2.1806">
        <ele>63.7</ele>
        <time>2022-11-09T13:18:17Z</time>
      </trkpt>
      <trkpt lat="49.92572" lon="2.1806">
        <ele>63.7</ele>
        <time>2022-11-09T13:18:18Z</time>
      </trkpt>
      <trkpt lat="49.92572" lon="2.1806">
        <ele>63.7</ele>
        <time>2022-11-09T13:18:19Z</time>
      </trkpt>
      <trkpt lat="49.92573" lon="2.18059">
        <ele>63.7</ele>
        <time>2022-11-09T13:18:20Z</time>
      </trkpt>
      <trkpt lat="49.92573" lon="2.18058">
        <ele>63.7</ele>
        <time>2022-11-09T13:18:21Z</time>
      </trkpt>
      <trkpt lat="49.92573" lon="2.18057">
        <ele>63.7</ele>
        <time>2022-11-09T13:18:22Z</time>
      </trkpt>
      <trkpt lat="49.92574" lon="2.18055">
        <ele>63.7</ele>
        <time>2022-11-09T13:18:23Z</time>
      </trkpt>
      <trkpt lat="49.92574" lon="2.18054">
        <ele>63.7</ele>
        <time>2022-11-09T13:18:24Z</time>
      </trkpt>
      <trkpt lat="49.92575" lon="2.18053">
        <ele>63.6</ele>
        <time>2022-11-09T13:18:25Z</time>
      </trkpt>
      <trkpt lat="49.92575" lon="2.18051">
        <ele>63.6</ele>
        <time>2022-11-09T13:18:26Z</time>
      </trkpt>
      <trkpt lat="49.92575" lon="2.18049">
        <ele>63.6</ele>
        <time>2022-11-09T13:18:27Z</time>
      </trkpt>
      <trkpt lat="49.92576" lon="2.18048">
        <ele>63.6</ele>
        <time>2022-11-09T13:18:28Z</time>
      </trkpt>
      <trkpt lat="49.92576" lon="2.18046">
        <ele>63.6</ele>
        <time>2022-11-09T13:18:29Z</time>
      </trkpt>
      <trkpt lat="49.92576" lon="2.18045">
        <ele>63.6</ele>
        <time>2022-11-09T13:18:30Z</time>
      </trkpt>
      <trkpt lat="49.92576" lon="2.18043">
        <ele>63.6</ele>
        <time>2022-11-09T13:18:31Z</time>
      </trkpt>
      <trkpt lat="49.92576" lon="2.18042">
        <ele>63.6</ele>
        <time>2022-11-09T13:18:32Z</time>
      </trkpt>
      <trkpt lat="49.92576" lon="2.1804">
        <ele>63.5</ele>
        <time>2022-11-09T13:18:33Z</time>
      </trkpt>
      <trkpt lat="49.92576" lon="2.18038">
        <ele>63.5</ele>
        <time>2022-11-09T13:18:34Z</time>
      </trkpt>
      <trkpt lat="49.92576" lon="2.18037">
        <ele>63.5</ele>
        <time>2022-11-09T13:18:35Z</time>
      </trkpt>
      <trkpt lat="49.92576" lon="2.18035">
        <ele>63.5</ele>
        <time>2022-11-09T13:18:36Z</time>
      </trkpt>
      <trkpt lat="49.92576" lon="2.18034">
        <ele>63.5</ele>
        <time>2022-11-09T13:18:37Z</time>
      </trkpt>
      <trkpt lat="49.92576" lon="2.18032">
        <ele>63.5</ele>
        <time>2022-11-09T13:18:38Z</time>
      </trkpt>
      <trkpt lat="49.92576" lon="2.18029">
        <ele>63.4</ele>
        <time>2022-11-09T13:18:39Z</time>
      </trkpt>
      <trkpt lat="49.92576" lon="2.18027">
        <ele>63.4</ele>
        <time>2022-11-09T13:18:40Z</time>
      </trkpt>
      <trkpt lat="49.92576" lon="2.18026">
        <ele>63.4</ele>
        <time>2022-11-09T13:18:41Z</time>
      </trkpt>
      <trkpt lat="49.92577" lon="2.18023">
        <ele>63.4</ele>
        <time>2022-11-09T13:18:42Z</time>
      </trkpt>
      <trkpt lat="49.92577" lon="2.18021">
        <ele>63.4</ele>
        <time>2022-11-09T13:18:43Z</time>
      </trkpt>
      <trkpt lat="49.92577" lon="2.1802">
        <ele>63.4</ele>
        <time>2022-11-09T13:18:44Z</time>
      </trkpt>
      <trkpt lat="49.92577" lon="2.18018">
        <ele>63.3</ele>
        <time>2022-11-09T13:18:45Z</time>
      </trkpt>
      <trkpt lat="49.92577" lon="2.18016">
        <ele>63.3</ele>
        <time>2022-11-09T13:18:46Z</time>
      </trkpt>
      <trkpt lat="49.92577" lon="2.18015">
        <ele>63.3</ele>
        <time>2022-11-09T13:18:47Z</time>
      </trkpt>
      <trkpt lat="49.92576" lon="2.18013">
        <ele>63.3</ele>
        <time>2022-11-09T13:18:48Z</time>
      </trkpt>
      <trkpt lat="49.92576" lon="2.18011">
        <ele>63.3</ele>
        <time>2022-11-09T13:18:49Z</time>
      </trkpt>
      <trkpt lat="49.92576" lon="2.1801">
        <ele>63.3</ele>
        <time>2022-11-09T13:18:50Z</time>
      </trkpt>
      <trkpt lat="49.92576" lon="2.18006">
        <ele>63.3</ele>
        <time>2022-11-09T13:18:51Z</time>
      </trkpt>
      <trkpt lat="49.92576" lon="2.18005">
        <ele>63.3</ele>
        <time>2022-11-09T13:18:52Z</time>
      </trkpt>
      <trkpt lat="49.92576" lon="2.18004">
        <ele>63.3</ele>
        <time>2022-11-09T13:18:53Z</time>
      </trkpt>
      <trkpt lat="49.92576" lon="2.18002">
        <ele>63.2</ele>
        <time>2022-11-09T13:18:54Z</time>
      </trkpt>
      <trkpt lat="49.92576" lon="2.18">
        <ele>63.2</ele>
        <time>2022-11-09T13:18:55Z</time>
      </trkpt>
      <trkpt lat="49.92576" lon="2.17999">
        <ele>63.2</ele>
        <time>2022-11-09T13:18:56Z</time>
      </trkpt>
      <trkpt lat="49.92576" lon="2.17996">
        <ele>63.2</ele>
        <time>2022-11-09T13:18:57Z</time>
      </trkpt>
      <trkpt lat="49.92576" lon="2.17994">
        <ele>63.2</ele>
        <time>2022-11-09T13:18:58Z</time>
      </trkpt>
      <trkpt lat="49.92576" lon="2.17993">
        <ele>63.2</ele>
        <time>2022-11-09T13:18:59Z</time>
      </trkpt>
      <trkpt lat="49.92577" lon="2.1799">
        <ele>63.2</ele>
        <time>2022-11-09T13:19:00Z</time>
      </trkpt>
      <trkpt lat="49.92577" lon="2.17987">
        <ele>63.2</ele>
        <time>2022-11-09T13:19:01Z</time>
      </trkpt>
      <trkpt lat="49.92576" lon="2.17984">
        <ele>63.1</ele>
        <time>2022-11-09T13:19:02Z</time>
      </trkpt>
      <trkpt lat="49.92576" lon="2.17982">
        <ele>63.1</ele>
        <time>2022-11-09T13:19:03Z</time>
      </trkpt>
      <trkpt lat="49.92576" lon="2.17979">
        <ele>63.1</ele>
        <time>2022-11-09T13:19:05Z</time>
      </trkpt>
      <trkpt lat="49.92576" lon="2.17977">
        <ele>63.1</ele>
        <time>2022-11-09T13:19:06Z</time>
      </trkpt>
      <trkpt lat="49.92575" lon="2.17973">
        <ele>63.1</ele>
        <time>2022-11-09T13:19:07Z</time>
      </trkpt>
      <trkpt lat="49.92575" lon="2.17972">
        <ele>63.1</ele>
        <time>2022-11-09T13:19:08Z</time>
      </trkpt>
      <trkpt lat="49.92575" lon="2.17971">
        <ele>63</ele>
        <time>2022-11-09T13:19:09Z</time>
      </trkpt>
      <trkpt lat="49.92575" lon="2.17967">
        <ele>63</ele>
        <time>2022-11-09T13:19:10Z</time>
      </trkpt>
      <trkpt lat="49.92574" lon="2.17966">
        <ele>63</ele>
        <time>2022-11-09T13:19:11Z</time>
      </trkpt>
      <trkpt lat="49.92574" lon="2.17965">
        <ele>63</ele>
        <time>2022-11-09T13:19:12Z</time>
      </trkpt>
      <trkpt lat="49.92574" lon="2.17961">
        <ele>63</ele>
        <time>2022-11-09T13:19:13Z</time>
      </trkpt>
      <trkpt lat="49.92574" lon="2.17959">
        <ele>63</ele>
        <time>2022-11-09T13:19:15Z</time>
      </trkpt>
      <trkpt lat="49.92574" lon="2.17957">
        <ele>63</ele>
        <time>2022-11-09T13:19:16Z</time>
      </trkpt>
      <trkpt lat="49.92573" lon="2.17955">
        <ele>62.9</ele>
        <time>2022-11-09T13:19:17Z</time>
      </trkpt>
      <trkpt lat="49.92573" lon="2.17954">
        <ele>62.9</ele>
        <time>2022-11-09T13:19:18Z</time>
      </trkpt>
      <trkpt lat="49.92573" lon="2.17952">
        <ele>62.9</ele>
        <time>2022-11-09T13:19:19Z</time>
      </trkpt>
      <trkpt lat="49.92573" lon="2.17949">
        <ele>62.9</ele>
        <time>2022-11-09T13:19:20Z</time>
      </trkpt>
      <trkpt lat="49.92572" lon="2.17947">
        <ele>62.9</ele>
        <time>2022-11-09T13:19:21Z</time>
      </trkpt>
      <trkpt lat="49.92572" lon="2.17946">
        <ele>62.9</ele>
        <time>2022-11-09T13:19:22Z</time>
      </trkpt>
      <trkpt lat="49.92572" lon="2.17944">
        <ele>62.9</ele>
        <time>2022-11-09T13:19:24Z</time>
      </trkpt>
      <trkpt lat="49.92572" lon="2.1794">
        <ele>62.8</ele>
        <time>2022-11-09T13:19:25Z</time>
      </trkpt>
      <trkpt lat="49.92572" lon="2.17939">
        <ele>62.8</ele>
        <time>2022-11-09T13:19:26Z</time>
      </trkpt>
      <trkpt lat="49.92571" lon="2.17938">
        <ele>62.8</ele>
        <time>2022-11-09T13:19:27Z</time>
      </trkpt>
      <trkpt lat="49.92571" lon="2.17936">
        <ele>62.8</ele>
        <time>2022-11-09T13:19:28Z</time>
      </trkpt>
      <trkpt lat="49.92571" lon="2.17934">
        <ele>62.8</ele>
        <time>2022-11-09T13:19:29Z</time>
      </trkpt>
      <trkpt lat="49.92571" lon="2.17932">
        <ele>62.8</ele>
        <time>2022-11-09T13:19:30Z</time>
      </trkpt>
      <trkpt lat="49.92571" lon="2.17931">
        <ele>62.8</ele>
        <time>2022-11-09T13:19:31Z</time>
      </trkpt>
      <trkpt lat="49.92571" lon="2.17929">
        <ele>62.8</ele>
        <time>2022-11-09T13:19:32Z</time>
      </trkpt>
      <trkpt lat="49.92571" lon="2.17927">
        <ele>62.8</ele>
        <time>2022-11-09T13:19:33Z</time>
      </trkpt>
      <trkpt lat="49.92571" lon="2.17926">
        <ele>62.8</ele>
        <time>2022-11-09T13:19:35Z</time>
      </trkpt>
      <trkpt lat="49.9257" lon="2.17924">
        <ele>62.8</ele>
        <time>2022-11-09T13:19:36Z</time>
      </trkpt>
      <trkpt lat="49.92571" lon="2.17922">
        <ele>62.7</ele>
        <time>2022-11-09T13:19:37Z</time>
      </trkpt>
      <trkpt lat="49.92571" lon="2.17919">
        <ele>62.7</ele>
        <time>2022-11-09T13:19:38Z</time>
      </trkpt>
      <trkpt lat="49.92572" lon="2.17918">
        <ele>62.7</ele>
        <time>2022-11-09T13:19:39Z</time>
      </trkpt>
      <trkpt lat="49.92572" lon="2.17917">
        <ele>62.7</ele>
        <time>2022-11-09T13:19:40Z</time>
      </trkpt>
      <trkpt lat="49.92573" lon="2.17915">
        <ele>62.7</ele>
        <time>2022-11-09T13:19:41Z</time>
      </trkpt>
      <trkpt lat="49.92573" lon="2.17914">
        <ele>62.7</ele>
        <time>2022-11-09T13:19:42Z</time>
      </trkpt>
      <trkpt lat="49.92573" lon="2.17912">
        <ele>62.7</ele>
        <time>2022-11-09T13:19:43Z</time>
      </trkpt>
      <trkpt lat="49.92573" lon="2.17911">
        <ele>62.7</ele>
        <time>2022-11-09T13:19:45Z</time>
      </trkpt>
      <trkpt lat="49.92574" lon="2.17909">
        <ele>62.7</ele>
        <time>2022-11-09T13:19:46Z</time>
      </trkpt>
      <trkpt lat="49.92574" lon="2.17908">
        <ele>62.7</ele>
        <time>2022-11-09T13:19:47Z</time>
      </trkpt>
      <trkpt lat="49.92574" lon="2.17907">
        <ele>62.7</ele>
        <time>2022-11-09T13:19:48Z</time>
      </trkpt>
      <trkpt lat="49.92574" lon="2.17905">
        <ele>62.7</ele>
        <time>2022-11-09T13:19:49Z</time>
      </trkpt>
      <trkpt lat="49.92575" lon="2.17903">
        <ele>62.7</ele>
        <time>2022-11-09T13:19:50Z</time>
      </trkpt>
      <trkpt lat="49.92575" lon="2.179">
        <ele>62.6</ele>
        <time>2022-11-09T13:19:51Z</time>
      </trkpt>
      <trkpt lat="49.92575" lon="2.17899">
        <ele>62.6</ele>
        <time>2022-11-09T13:19:52Z</time>
      </trkpt>
      <trkpt lat="49.92575" lon="2.17898">
        <ele>62.6</ele>
        <time>2022-11-09T13:19:53Z</time>
      </trkpt>
      <trkpt lat="49.92575" lon="2.17896">
        <ele>62.6</ele>
        <time>2022-11-09T13:19:54Z</time>
      </trkpt>
      <trkpt lat="49.92575" lon="2.17894">
        <ele>62.6</ele>
        <time>2022-11-09T13:19:55Z</time>
      </trkpt>
      <trkpt lat="49.92575" lon="2.17892">
        <ele>62.6</ele>
        <time>2022-11-09T13:19:56Z</time>
      </trkpt>
      <trkpt lat="49.92576" lon="2.17889">
        <ele>62.6</ele>
        <time>2022-11-09T13:19:57Z</time>
      </trkpt>
      <trkpt lat="49.92576" lon="2.17888">
        <ele>62.6</ele>
        <time>2022-11-09T13:19:59Z</time>
      </trkpt>
      <trkpt lat="49.92576" lon="2.17887">
        <ele>62.6</ele>
        <time>2022-11-09T13:20:00Z</time>
      </trkpt>
      <trkpt lat="49.92577" lon="2.17885">
        <ele>62.6</ele>
        <time>2022-11-09T13:20:01Z</time>
      </trkpt>
      <trkpt lat="49.92577" lon="2.17883">
        <ele>62.6</ele>
        <time>2022-11-09T13:20:02Z</time>
      </trkpt>
      <trkpt lat="49.92577" lon="2.17881">
        <ele>62.6</ele>
        <time>2022-11-09T13:20:03Z</time>
      </trkpt>
      <trkpt lat="49.92576" lon="2.17879">
        <ele>62.6</ele>
        <time>2022-11-09T13:20:04Z</time>
      </trkpt>
      <trkpt lat="49.92576" lon="2.17877">
        <ele>62.6</ele>
        <time>2022-11-09T13:20:05Z</time>
      </trkpt>
      <trkpt lat="49.92576" lon="2.17873">
        <ele>62.6</ele>
        <time>2022-11-09T13:20:06Z</time>
      </trkpt>
      <trkpt lat="49.92576" lon="2.17872">
        <ele>62.5</ele>
        <time>2022-11-09T13:20:07Z</time>
      </trkpt>
      <trkpt lat="49.92576" lon="2.17871">
        <ele>62.5</ele>
        <time>2022-11-09T13:20:08Z</time>
      </trkpt>
      <trkpt lat="49.92576" lon="2.17868">
        <ele>62.5</ele>
        <time>2022-11-09T13:20:09Z</time>
      </trkpt>
      <trkpt lat="49.92576" lon="2.17867">
        <ele>62.5</ele>
        <time>2022-11-09T13:20:10Z</time>
      </trkpt>
      <trkpt lat="49.92576" lon="2.17865">
        <ele>62.5</ele>
        <time>2022-11-09T13:20:11Z</time>
      </trkpt>
      <trkpt lat="49.92575" lon="2.17863">
        <ele>62.5</ele>
        <time>2022-11-09T13:20:12Z</time>
      </trkpt>
      <trkpt lat="49.92575" lon="2.17861">
        <ele>62.5</ele>
        <time>2022-11-09T13:20:14Z</time>
      </trkpt>
      <trkpt lat="49.92575" lon="2.17859">
        <ele>62.5</ele>
        <time>2022-11-09T13:20:15Z</time>
      </trkpt>
      <trkpt lat="49.92575" lon="2.17857">
        <ele>62.5</ele>
        <time>2022-11-09T13:20:16Z</time>
      </trkpt>
      <trkpt lat="49.92575" lon="2.17856">
        <ele>62.5</ele>
        <time>2022-11-09T13:20:17Z</time>
      </trkpt>
      <trkpt lat="49.92575" lon="2.17854">
        <ele>62.5</ele>
        <time>2022-11-09T13:20:18Z</time>
      </trkpt>
      <trkpt lat="49.92575" lon="2.17851">
        <ele>62.5</ele>
        <time>2022-11-09T13:20:19Z</time>
      </trkpt>
      <trkpt lat="49.92575" lon="2.17849">
        <ele>62.5</ele>
        <time>2022-11-09T13:20:20Z</time>
      </trkpt>
      <trkpt lat="49.92575" lon="2.17847">
        <ele>62.5</ele>
        <time>2022-11-09T13:20:21Z</time>
      </trkpt>
      <trkpt lat="49.92575" lon="2.17845">
        <ele>62.5</ele>
        <time>2022-11-09T13:20:22Z</time>
      </trkpt>
      <trkpt lat="49.92575" lon="2.17843">
        <ele>62.5</ele>
        <time>2022-11-09T13:20:23Z</time>
      </trkpt>
      <trkpt lat="49.92575" lon="2.17841">
        <ele>62.5</ele>
        <time>2022-11-09T13:20:24Z</time>
      </trkpt>
      <trkpt lat="49.92575" lon="2.17839">
        <ele>62.5</ele>
        <time>2022-11-09T13:20:25Z</time>
      </trkpt>
      <trkpt lat="49.92575" lon="2.17836">
        <ele>62.5</ele>
        <time>2022-11-09T13:20:27Z</time>
      </trkpt>
      <trkpt lat="49.92575" lon="2.17834">
        <ele>62.5</ele>
        <time>2022-11-09T13:20:28Z</time>
      </trkpt>
      <trkpt lat="49.92575" lon="2.17831">
        <ele>62.5</ele>
        <time>2022-11-09T13:20:29Z</time>
      </trkpt>
      <trkpt lat="49.92575" lon="2.17829">
        <ele>62.5</ele>
        <time>2022-11-09T13:20:30Z</time>
      </trkpt>
      <trkpt lat="49.92576" lon="2.17827">
        <ele>62.5</ele>
        <time>2022-11-09T13:20:31Z</time>
      </trkpt>
      <trkpt lat="49.92576" lon="2.17825">
        <ele>62.5</ele>
        <time>2022-11-09T13:20:33Z</time>
      </trkpt>
      <trkpt lat="49.92576" lon="2.17823">
        <ele>62.6</ele>
        <time>2022-11-09T13:20:34Z</time>
      </trkpt>
      <trkpt lat="49.92576" lon="2.17822">
        <ele>62.6</ele>
        <time>2022-11-09T13:20:35Z</time>
      </trkpt>
      <trkpt lat="49.92576" lon="2.17818">
        <ele>62.6</ele>
        <time>2022-11-09T13:20:36Z</time>
      </trkpt>
      <trkpt lat="49.92577" lon="2.17817">
        <ele>62.6</ele>
        <time>2022-11-09T13:20:38Z</time>
      </trkpt>
      <trkpt lat="49.92577" lon="2.17816">
        <ele>62.6</ele>
        <time>2022-11-09T13:20:39Z</time>
      </trkpt>
      <trkpt lat="49.92577" lon="2.17815">
        <ele>62.6</ele>
        <time>2022-11-09T13:20:40Z</time>
      </trkpt>
      <trkpt lat="49.92577" lon="2.17813">
        <ele>62.6</ele>
        <time>2022-11-09T13:20:41Z</time>
      </trkpt>
      <trkpt lat="49.92577" lon="2.17811">
        <ele>62.6</ele>
        <time>2022-11-09T13:20:42Z</time>
      </trkpt>
      <trkpt lat="49.92577" lon="2.17808">
        <ele>62.6</ele>
        <time>2022-11-09T13:20:43Z</time>
      </trkpt>
      <trkpt lat="49.92577" lon="2.17806">
        <ele>62.7</ele>
        <time>2022-11-09T13:20:44Z</time>
      </trkpt>
      <trkpt lat="49.92577" lon="2.17804">
        <ele>62.7</ele>
        <time>2022-11-09T13:20:45Z</time>
      </trkpt>
      <trkpt lat="49.92577" lon="2.17803">
        <ele>62.7</ele>
        <time>2022-11-09T13:20:46Z</time>
      </trkpt>
      <trkpt lat="49.92577" lon="2.17801">
        <ele>62.7</ele>
        <time>2022-11-09T13:20:47Z</time>
      </trkpt>
      <trkpt lat="49.92577" lon="2.178">
        <ele>62.7</ele>
        <time>2022-11-09T13:20:48Z</time>
      </trkpt>
      <trkpt lat="49.92577" lon="2.17798">
        <ele>62.7</ele>
        <time>2022-11-09T13:20:50Z</time>
      </trkpt>
      <trkpt lat="49.92576" lon="2.17796">
        <ele>62.7</ele>
        <time>2022-11-09T13:20:51Z</time>
      </trkpt>
      <trkpt lat="49.92576" lon="2.17793">
        <ele>62.8</ele>
        <time>2022-11-09T13:20:52Z</time>
      </trkpt>
      <trkpt lat="49.92575" lon="2.17791">
        <ele>62.8</ele>
        <time>2022-11-09T13:20:53Z</time>
      </trkpt>
      <trkpt lat="49.92575" lon="2.1779">
        <ele>62.8</ele>
        <time>2022-11-09T13:20:54Z</time>
      </trkpt>
      <trkpt lat="49.92575" lon="2.17788">
        <ele>62.8</ele>
        <time>2022-11-09T13:20:55Z</time>
      </trkpt>
      <trkpt lat="49.92574" lon="2.17786">
        <ele>62.8</ele>
        <time>2022-11-09T13:20:57Z</time>
      </trkpt>
      <trkpt lat="49.92574" lon="2.17784">
        <ele>62.8</ele>
        <time>2022-11-09T13:20:58Z</time>
      </trkpt>
      <trkpt lat="49.92574" lon="2.17783">
        <ele>62.8</ele>
        <time>2022-11-09T13:20:59Z</time>
      </trkpt>
      <trkpt lat="49.92574" lon="2.17781">
        <ele>62.9</ele>
        <time>2022-11-09T13:21:00Z</time>
      </trkpt>
      <trkpt lat="49.92574" lon="2.17778">
        <ele>62.9</ele>
        <time>2022-11-09T13:21:01Z</time>
      </trkpt>
      <trkpt lat="49.92574" lon="2.17776">
        <ele>62.9</ele>
        <time>2022-11-09T13:21:02Z</time>
      </trkpt>
      <trkpt lat="49.92574" lon="2.17775">
        <ele>62.9</ele>
        <time>2022-11-09T13:21:03Z</time>
      </trkpt>
      <trkpt lat="49.92574" lon="2.17773">
        <ele>62.9</ele>
        <time>2022-11-09T13:21:04Z</time>
      </trkpt>
      <trkpt lat="49.92574" lon="2.17771">
        <ele>62.9</ele>
        <time>2022-11-09T13:21:05Z</time>
      </trkpt>
      <trkpt lat="49.92573" lon="2.17767">
        <ele>63</ele>
        <time>2022-11-09T13:21:07Z</time>
      </trkpt>
      <trkpt lat="49.92573" lon="2.17766">
        <ele>63</ele>
        <time>2022-11-09T13:21:08Z</time>
      </trkpt>
      <trkpt lat="49.92573" lon="2.17765">
        <ele>63</ele>
        <time>2022-11-09T13:21:09Z</time>
      </trkpt>
      <trkpt lat="49.92573" lon="2.17762">
        <ele>63</ele>
        <time>2022-11-09T13:21:10Z</time>
      </trkpt>
      <trkpt lat="49.92573" lon="2.1776">
        <ele>63</ele>
        <time>2022-11-09T13:21:11Z</time>
      </trkpt>
      <trkpt lat="49.92572" lon="2.17759">
        <ele>63</ele>
        <time>2022-11-09T13:21:12Z</time>
      </trkpt>
      <trkpt lat="49.92572" lon="2.17757">
        <ele>63.1</ele>
        <time>2022-11-09T13:21:13Z</time>
      </trkpt>
      <trkpt lat="49.92572" lon="2.17755">
        <ele>63.1</ele>
        <time>2022-11-09T13:21:14Z</time>
      </trkpt>
      <trkpt lat="49.92572" lon="2.17753">
        <ele>63.1</ele>
        <time>2022-11-09T13:21:16Z</time>
      </trkpt>
      <trkpt lat="49.92572" lon="2.17751">
        <ele>63.1</ele>
        <time>2022-11-09T13:21:17Z</time>
      </trkpt>
      <trkpt lat="49.92571" lon="2.17749">
        <ele>63.1</ele>
        <time>2022-11-09T13:21:18Z</time>
      </trkpt>
      <trkpt lat="49.92571" lon="2.17746">
        <ele>63.1</ele>
        <time>2022-11-09T13:21:19Z</time>
      </trkpt>
      <trkpt lat="49.92571" lon="2.17744">
        <ele>63.2</ele>
        <time>2022-11-09T13:21:20Z</time>
      </trkpt>
      <trkpt lat="49.92571" lon="2.17742">
        <ele>63.2</ele>
        <time>2022-11-09T13:21:22Z</time>
      </trkpt>
      <trkpt lat="49.92571" lon="2.17741">
        <ele>63.2</ele>
        <time>2022-11-09T13:21:23Z</time>
      </trkpt>
      <trkpt lat="49.92571" lon="2.17739">
        <ele>63.2</ele>
        <time>2022-11-09T13:21:24Z</time>
      </trkpt>
      <trkpt lat="49.9257" lon="2.17737">
        <ele>63.2</ele>
        <time>2022-11-09T13:21:25Z</time>
      </trkpt>
      <trkpt lat="49.9257" lon="2.17735">
        <ele>63.2</ele>
        <time>2022-11-09T13:21:26Z</time>
      </trkpt>
      <trkpt lat="49.9257" lon="2.17733">
        <ele>63.2</ele>
        <time>2022-11-09T13:21:27Z</time>
      </trkpt>
      <trkpt lat="49.9257" lon="2.17731">
        <ele>63.3</ele>
        <time>2022-11-09T13:21:28Z</time>
      </trkpt>
      <trkpt lat="49.9257" lon="2.17729">
        <ele>63.3</ele>
        <time>2022-11-09T13:21:29Z</time>
      </trkpt>
      <trkpt lat="49.9257" lon="2.17727">
        <ele>63.3</ele>
        <time>2022-11-09T13:21:30Z</time>
      </trkpt>
      <trkpt lat="49.9257" lon="2.17724">
        <ele>63.3</ele>
        <time>2022-11-09T13:21:31Z</time>
      </trkpt>
      <trkpt lat="49.9257" lon="2.17723">
        <ele>63.3</ele>
        <time>2022-11-09T13:21:33Z</time>
      </trkpt>
      <trkpt lat="49.9257" lon="2.17721">
        <ele>63.3</ele>
        <time>2022-11-09T13:21:34Z</time>
      </trkpt>
      <trkpt lat="49.9257" lon="2.17718">
        <ele>63.3</ele>
        <time>2022-11-09T13:21:35Z</time>
      </trkpt>
      <trkpt lat="49.92569" lon="2.17717">
        <ele>63.4</ele>
        <time>2022-11-09T13:21:36Z</time>
      </trkpt>
      <trkpt lat="49.92569" lon="2.17715">
        <ele>63.4</ele>
        <time>2022-11-09T13:21:37Z</time>
      </trkpt>
      <trkpt lat="49.92569" lon="2.17714">
        <ele>63.4</ele>
        <time>2022-11-09T13:21:38Z</time>
      </trkpt>
      <trkpt lat="49.92569" lon="2.17712">
        <ele>63.4</ele>
        <time>2022-11-09T13:21:39Z</time>
      </trkpt>
      <trkpt lat="49.92569" lon="2.17711">
        <ele>63.4</ele>
        <time>2022-11-09T13:21:40Z</time>
      </trkpt>
      <trkpt lat="49.92569" lon="2.17708">
        <ele>63.4</ele>
        <time>2022-11-09T13:21:42Z</time>
      </trkpt>
      <trkpt lat="49.92568" lon="2.17707">
        <ele>63.4</ele>
        <time>2022-11-09T13:21:43Z</time>
      </trkpt>
      <trkpt lat="49.92568" lon="2.17705">
        <ele>63.4</ele>
        <time>2022-11-09T13:21:44Z</time>
      </trkpt>
      <trkpt lat="49.92568" lon="2.17703">
        <ele>63.5</ele>
        <time>2022-11-09T13:21:45Z</time>
      </trkpt>
      <trkpt lat="49.92568" lon="2.17701">
        <ele>63.5</ele>
        <time>2022-11-09T13:21:46Z</time>
      </trkpt>
      <trkpt lat="49.92567" lon="2.17698">
        <ele>63.5</ele>
        <time>2022-11-09T13:21:47Z</time>
      </trkpt>
      <trkpt lat="49.92567" lon="2.17697">
        <ele>63.5</ele>
        <time>2022-11-09T13:21:48Z</time>
      </trkpt>
      <trkpt lat="49.92567" lon="2.17695">
        <ele>63.5</ele>
        <time>2022-11-09T13:21:49Z</time>
      </trkpt>
      <trkpt lat="49.92567" lon="2.17694">
        <ele>63.5</ele>
        <time>2022-11-09T13:21:50Z</time>
      </trkpt>
      <trkpt lat="49.92567" lon="2.17692">
        <ele>63.6</ele>
        <time>2022-11-09T13:21:52Z</time>
      </trkpt>
      <trkpt lat="49.92567" lon="2.1769">
        <ele>63.6</ele>
        <time>2022-11-09T13:21:53Z</time>
      </trkpt>
      <trkpt lat="49.92566" lon="2.17687">
        <ele>63.6</ele>
        <time>2022-11-09T13:21:54Z</time>
      </trkpt>
      <trkpt lat="49.92566" lon="2.17685">
        <ele>63.6</ele>
        <time>2022-11-09T13:21:55Z</time>
      </trkpt>
      <trkpt lat="49.92566" lon="2.17684">
        <ele>63.6</ele>
        <time>2022-11-09T13:21:56Z</time>
      </trkpt>
      <trkpt lat="49.92566" lon="2.17682">
        <ele>63.7</ele>
        <time>2022-11-09T13:21:57Z</time>
      </trkpt>
      <trkpt lat="49.92566" lon="2.1768">
        <ele>63.7</ele>
        <time>2022-11-09T13:21:58Z</time>
      </trkpt>
      <trkpt lat="49.92566" lon="2.17678">
        <ele>63.7</ele>
        <time>2022-11-09T13:22:00Z</time>
      </trkpt>
      <trkpt lat="49.92565" lon="2.17675">
        <ele>63.7</ele>
        <time>2022-11-09T13:22:01Z</time>
      </trkpt>
      <trkpt lat="49.92565" lon="2.17673">
        <ele>63.7</ele>
        <time>2022-11-09T13:22:02Z</time>
      </trkpt>
      <trkpt lat="49.92565" lon="2.17672">
        <ele>63.7</ele>
        <time>2022-11-09T13:22:03Z</time>
      </trkpt>
      <trkpt lat="49.92565" lon="2.1767">
        <ele>63.8</ele>
        <time>2022-11-09T13:22:04Z</time>
      </trkpt>
      <trkpt lat="49.92565" lon="2.17668">
        <ele>63.8</ele>
        <time>2022-11-09T13:22:05Z</time>
      </trkpt>
      <trkpt lat="49.92565" lon="2.17667">
        <ele>63.8</ele>
        <time>2022-11-09T13:22:06Z</time>
      </trkpt>
      <trkpt lat="49.92565" lon="2.17665">
        <ele>63.8</ele>
        <time>2022-11-09T13:22:07Z</time>
      </trkpt>
      <trkpt lat="49.92565" lon="2.17663">
        <ele>63.8</ele>
        <time>2022-11-09T13:22:09Z</time>
      </trkpt>
      <trkpt lat="49.92566" lon="2.17662">
        <ele>63.8</ele>
        <time>2022-11-09T13:22:10Z</time>
      </trkpt>
      <trkpt lat="49.92566" lon="2.1766">
        <ele>63.8</ele>
        <time>2022-11-09T13:22:11Z</time>
      </trkpt>
      <trkpt lat="49.92566" lon="2.17659">
        <ele>63.8</ele>
        <time>2022-11-09T13:22:12Z</time>
      </trkpt>
      <trkpt lat="49.92566" lon="2.17656">
        <ele>63.8</ele>
        <time>2022-11-09T13:22:13Z</time>
      </trkpt>
      <trkpt lat="49.92566" lon="2.17655">
        <ele>63.9</ele>
        <time>2022-11-09T13:22:14Z</time>
      </trkpt>
      <trkpt lat="49.92566" lon="2.17653">
        <ele>63.9</ele>
        <time>2022-11-09T13:22:15Z</time>
      </trkpt>
      <trkpt lat="49.92566" lon="2.17651">
        <ele>63.9</ele>
        <time>2022-11-09T13:22:16Z</time>
      </trkpt>
      <trkpt lat="49.92566" lon="2.1765">
        <ele>63.9</ele>
        <time>2022-11-09T13:22:18Z</time>
      </trkpt>
      <trkpt lat="49.92566" lon="2.17648">
        <ele>63.9</ele>
        <time>2022-11-09T13:22:19Z</time>
      </trkpt>
      <trkpt lat="49.92566" lon="2.17646">
        <ele>63.9</ele>
        <time>2022-11-09T13:22:20Z</time>
      </trkpt>
      <trkpt lat="49.92566" lon="2.17644">
        <ele>63.9</ele>
        <time>2022-11-09T13:22:21Z</time>
      </trkpt>
      <trkpt lat="49.92566" lon="2.17642">
        <ele>63.9</ele>
        <time>2022-11-09T13:22:22Z</time>
      </trkpt>
      <trkpt lat="49.92566" lon="2.1764">
        <ele>63.9</ele>
        <time>2022-11-09T13:22:24Z</time>
      </trkpt>
      <trkpt lat="49.92567" lon="2.17638">
        <ele>63.9</ele>
        <time>2022-11-09T13:22:25Z</time>
      </trkpt>
      <trkpt lat="49.92567" lon="2.17637">
        <ele>63.9</ele>
        <time>2022-11-09T13:22:26Z</time>
      </trkpt>
      <trkpt lat="49.92567" lon="2.17635">
        <ele>63.9</ele>
        <time>2022-11-09T13:22:27Z</time>
      </trkpt>
      <trkpt lat="49.92568" lon="2.17631">
        <ele>63.9</ele>
        <time>2022-11-09T13:22:28Z</time>
      </trkpt>
      <trkpt lat="49.92568" lon="2.1763">
        <ele>63.9</ele>
        <time>2022-11-09T13:22:29Z</time>
      </trkpt>
      <trkpt lat="49.92568" lon="2.17629">
        <ele>63.9</ele>
        <time>2022-11-09T13:22:30Z</time>
      </trkpt>
      <trkpt lat="49.92568" lon="2.17627">
        <ele>63.9</ele>
        <time>2022-11-09T13:22:31Z</time>
      </trkpt>
      <trkpt lat="49.92568" lon="2.17625">
        <ele>63.9</ele>
        <time>2022-11-09T13:22:33Z</time>
      </trkpt>
      <trkpt lat="49.92569" lon="2.17623">
        <ele>63.9</ele>
        <time>2022-11-09T13:22:34Z</time>
      </trkpt>
      <trkpt lat="49.92569" lon="2.1762">
        <ele>63.9</ele>
        <time>2022-11-09T13:22:35Z</time>
      </trkpt>
      <trkpt lat="49.9257" lon="2.17619">
        <ele>63.9</ele>
        <time>2022-11-09T13:22:36Z</time>
      </trkpt>
      <trkpt lat="49.9257" lon="2.17618">
        <ele>63.9</ele>
        <time>2022-11-09T13:22:37Z</time>
      </trkpt>
      <trkpt lat="49.92571" lon="2.17615">
        <ele>63.9</ele>
        <time>2022-11-09T13:22:39Z</time>
      </trkpt>
      <trkpt lat="49.92571" lon="2.17614">
        <ele>63.9</ele>
        <time>2022-11-09T13:22:40Z</time>
      </trkpt>
      <trkpt lat="49.92571" lon="2.17611">
        <ele>63.9</ele>
        <time>2022-11-09T13:22:41Z</time>
      </trkpt>
      <trkpt lat="49.92572" lon="2.17609">
        <ele>63.8</ele>
        <time>2022-11-09T13:22:42Z</time>
      </trkpt>
      <trkpt lat="49.92572" lon="2.17607">
        <ele>63.8</ele>
        <time>2022-11-09T13:22:43Z</time>
      </trkpt>
      <trkpt lat="49.92572" lon="2.17606">
        <ele>63.8</ele>
        <time>2022-11-09T13:22:44Z</time>
      </trkpt>
      <trkpt lat="49.92572" lon="2.17604">
        <ele>63.8</ele>
        <time>2022-11-09T13:22:45Z</time>
      </trkpt>
      <trkpt lat="49.92572" lon="2.17602">
        <ele>63.8</ele>
        <time>2022-11-09T13:22:47Z</time>
      </trkpt>
      <trkpt lat="49.92572" lon="2.17599">
        <ele>63.8</ele>
        <time>2022-11-09T13:22:48Z</time>
      </trkpt>
      <trkpt lat="49.92572" lon="2.17596">
        <ele>63.7</ele>
        <time>2022-11-09T13:22:49Z</time>
      </trkpt>
      <trkpt lat="49.92572" lon="2.17595">
        <ele>63.7</ele>
        <time>2022-11-09T13:22:50Z</time>
      </trkpt>
      <trkpt lat="49.92572" lon="2.17593">
        <ele>63.7</ele>
        <time>2022-11-09T13:22:51Z</time>
      </trkpt>
      <trkpt lat="49.92572" lon="2.1759">
        <ele>63.7</ele>
        <time>2022-11-09T13:22:52Z</time>
      </trkpt>
      <trkpt lat="49.92573" lon="2.17589">
        <ele>63.7</ele>
        <time>2022-11-09T13:22:54Z</time>
      </trkpt>
      <trkpt lat="49.92573" lon="2.17588">
        <ele>63.7</ele>
        <time>2022-11-09T13:22:55Z</time>
      </trkpt>
      <trkpt lat="49.92573" lon="2.17586">
        <ele>63.7</ele>
        <time>2022-11-09T13:22:56Z</time>
      </trkpt>
      <trkpt lat="49.92573" lon="2.17585">
        <ele>63.6</ele>
        <time>2022-11-09T13:22:57Z</time>
      </trkpt>
      <trkpt lat="49.92573" lon="2.17583">
        <ele>63.6</ele>
        <time>2022-11-09T13:22:58Z</time>
      </trkpt>
      <trkpt lat="49.92573" lon="2.17581">
        <ele>63.6</ele>
        <time>2022-11-09T13:22:59Z</time>
      </trkpt>
      <trkpt lat="49.92574" lon="2.17579">
        <ele>63.6</ele>
        <time>2022-11-09T13:23:00Z</time>
      </trkpt>
      <trkpt lat="49.92574" lon="2.17578">
        <ele>63.6</ele>
        <time>2022-11-09T13:23:01Z</time>
      </trkpt>
      <trkpt lat="49.92574" lon="2.17574">
        <ele>63.5</ele>
        <time>2022-11-09T13:23:02Z</time>
      </trkpt>
      <trkpt lat="49.92574" lon="2.17573">
        <ele>63.5</ele>
        <time>2022-11-09T13:23:04Z</time>
      </trkpt>
      <trkpt lat="49.92575" lon="2.17571">
        <ele>63.5</ele>
        <time>2022-11-09T13:23:05Z</time>
      </trkpt>
      <trkpt lat="49.92575" lon="2.1757">
        <ele>63.5</ele>
        <time>2022-11-09T13:23:06Z</time>
      </trkpt>
      <trkpt lat="49.92575" lon="2.17568">
        <ele>63.5</ele>
        <time>2022-11-09T13:23:07Z</time>
      </trkpt>
      <trkpt lat="49.92575" lon="2.17566">
        <ele>63.5</ele>
        <time>2022-11-09T13:23:08Z</time>
      </trkpt>
      <trkpt lat="49.92576" lon="2.17564">
        <ele>63.4</ele>
        <time>2022-11-09T13:23:09Z</time>
      </trkpt>
      <trkpt lat="49.92576" lon="2.17563">
        <ele>63.4</ele>
        <time>2022-11-09T13:23:10Z</time>
      </trkpt>
      <trkpt lat="49.92577" lon="2.17561">
        <ele>63.4</ele>
        <time>2022-11-09T13:23:12Z</time>
      </trkpt>
      <trkpt lat="49.92577" lon="2.17558">
        <ele>63.3</ele>
        <time>2022-11-09T13:23:13Z</time>
      </trkpt>
      <trkpt lat="49.92577" lon="2.17556">
        <ele>63.3</ele>
        <time>2022-11-09T13:23:14Z</time>
      </trkpt>
      <trkpt lat="49.92578" lon="2.17555">
        <ele>63.3</ele>
        <time>2022-11-09T13:23:15Z</time>
      </trkpt>
      <trkpt lat="49.92578" lon="2.17553">
        <ele>63.3</ele>
        <time>2022-11-09T13:23:16Z</time>
      </trkpt>
      <trkpt lat="49.92579" lon="2.17551">
        <ele>63.3</ele>
        <time>2022-11-09T13:23:17Z</time>
      </trkpt>
      <trkpt lat="49.92579" lon="2.17549">
        <ele>63.2</ele>
        <time>2022-11-09T13:23:18Z</time>
      </trkpt>
      <trkpt lat="49.92579" lon="2.17548">
        <ele>63.2</ele>
        <time>2022-11-09T13:23:19Z</time>
      </trkpt>
      <trkpt lat="49.9258" lon="2.17546">
        <ele>63.2</ele>
        <time>2022-11-09T13:23:20Z</time>
      </trkpt>
      <trkpt lat="49.9258" lon="2.17544">
        <ele>63.2</ele>
        <time>2022-11-09T13:23:21Z</time>
      </trkpt>
      <trkpt lat="49.92581" lon="2.17543">
        <ele>63.2</ele>
        <time>2022-11-09T13:23:23Z</time>
      </trkpt>
      <trkpt lat="49.92581" lon="2.17541">
        <ele>63.1</ele>
        <time>2022-11-09T13:23:24Z</time>
      </trkpt>
      <trkpt lat="49.92582" lon="2.17538">
        <ele>63.1</ele>
        <time>2022-11-09T13:23:25Z</time>
      </trkpt>
      <trkpt lat="49.92583" lon="2.17537">
        <ele>63.1</ele>
        <time>2022-11-09T13:23:26Z</time>
      </trkpt>
      <trkpt lat="49.92583" lon="2.17536">
        <ele>63</ele>
        <time>2022-11-09T13:23:27Z</time>
      </trkpt>
      <trkpt lat="49.92584" lon="2.17533">
        <ele>63</ele>
        <time>2022-11-09T13:23:28Z</time>
      </trkpt>
      <trkpt lat="49.92584" lon="2.17532">
        <ele>63</ele>
        <time>2022-11-09T13:23:29Z</time>
      </trkpt>
      <trkpt lat="49.92585" lon="2.1753">
        <ele>62.9</ele>
        <time>2022-11-09T13:23:30Z</time>
      </trkpt>
      <trkpt lat="49.92585" lon="2.17529">
        <ele>62.9</ele>
        <time>2022-11-09T13:23:31Z</time>
      </trkpt>
      <trkpt lat="49.92585" lon="2.17527">
        <ele>62.9</ele>
        <time>2022-11-09T13:23:32Z</time>
      </trkpt>
      <trkpt lat="49.92585" lon="2.17525">
        <ele>62.9</ele>
        <time>2022-11-09T13:23:34Z</time>
      </trkpt>
      <trkpt lat="49.92586" lon="2.17522">
        <ele>62.8</ele>
        <time>2022-11-09T13:23:36Z</time>
      </trkpt>
      <trkpt lat="49.92587" lon="2.1752">
        <ele>62.8</ele>
        <time>2022-11-09T13:23:37Z</time>
      </trkpt>
      <trkpt lat="49.92588" lon="2.17517">
        <ele>62.7</ele>
        <time>2022-11-09T13:23:38Z</time>
      </trkpt>
      <trkpt lat="49.92588" lon="2.17516">
        <ele>62.7</ele>
        <time>2022-11-09T13:23:39Z</time>
      </trkpt>
      <trkpt lat="49.92589" lon="2.17515">
        <ele>62.7</ele>
        <time>2022-11-09T13:23:40Z</time>
      </trkpt>
      <trkpt lat="49.92589" lon="2.17513">
        <ele>62.6</ele>
        <time>2022-11-09T13:23:41Z</time>
      </trkpt>
      <trkpt lat="49.9259" lon="2.17512">
        <ele>62.6</ele>
        <time>2022-11-09T13:23:42Z</time>
      </trkpt>
      <trkpt lat="49.9259" lon="2.1751">
        <ele>62.6</ele>
        <time>2022-11-09T13:23:43Z</time>
      </trkpt>
      <trkpt lat="49.9259" lon="2.17509">
        <ele>62.6</ele>
        <time>2022-11-09T13:23:44Z</time>
      </trkpt>
      <trkpt lat="49.92591" lon="2.17507">
        <ele>62.5</ele>
        <time>2022-11-09T13:23:45Z</time>
      </trkpt>
      <trkpt lat="49.92591" lon="2.17506">
        <ele>62.5</ele>
        <time>2022-11-09T13:23:46Z</time>
      </trkpt>
      <trkpt lat="49.92591" lon="2.17504">
        <ele>62.5</ele>
        <time>2022-11-09T13:23:47Z</time>
      </trkpt>
      <trkpt lat="49.92592" lon="2.17503">
        <ele>62.5</ele>
        <time>2022-11-09T13:23:49Z</time>
      </trkpt>
      <trkpt lat="49.92593" lon="2.17501">
        <ele>62.4</ele>
        <time>2022-11-09T13:23:50Z</time>
      </trkpt>
      <trkpt lat="49.92594" lon="2.17499">
        <ele>62.4</ele>
        <time>2022-11-09T13:23:51Z</time>
      </trkpt>
      <trkpt lat="49.92595" lon="2.17498">
        <ele>62.4</ele>
        <time>2022-11-09T13:23:52Z</time>
      </trkpt>
      <trkpt lat="49.92595" lon="2.17496">
        <ele>62.3</ele>
        <time>2022-11-09T13:23:53Z</time>
      </trkpt>
      <trkpt lat="49.92596" lon="2.17495">
        <ele>62.3</ele>
        <time>2022-11-09T13:23:54Z</time>
      </trkpt>
      <trkpt lat="49.92596" lon="2.17493">
        <ele>62.3</ele>
        <time>2022-11-09T13:23:55Z</time>
      </trkpt>
      <trkpt lat="49.92597" lon="2.17491">
        <ele>62.2</ele>
        <time>2022-11-09T13:23:56Z</time>
      </trkpt>
      <trkpt lat="49.92597" lon="2.1749">
        <ele>62.2</ele>
        <time>2022-11-09T13:23:57Z</time>
      </trkpt>
      <trkpt lat="49.92598" lon="2.17488">
        <ele>62.2</ele>
        <time>2022-11-09T13:23:58Z</time>
      </trkpt>
      <trkpt lat="49.92598" lon="2.17486">
        <ele>62.1</ele>
        <time>2022-11-09T13:24:00Z</time>
      </trkpt>
      <trkpt lat="49.92599" lon="2.17484">
        <ele>62.1</ele>
        <time>2022-11-09T13:24:01Z</time>
      </trkpt>
      <trkpt lat="49.92599" lon="2.17482">
        <ele>62.1</ele>
        <time>2022-11-09T13:24:02Z</time>
      </trkpt>
      <trkpt lat="49.926" lon="2.1748">
        <ele>62</ele>
        <time>2022-11-09T13:24:03Z</time>
      </trkpt>
      <trkpt lat="49.926" lon="2.17478">
        <ele>62</ele>
        <time>2022-11-09T13:24:04Z</time>
      </trkpt>
      <trkpt lat="49.92601" lon="2.17476">
        <ele>61.9</ele>
        <time>2022-11-09T13:24:05Z</time>
      </trkpt>
      <trkpt lat="49.92601" lon="2.17474">
        <ele>61.9</ele>
        <time>2022-11-09T13:24:06Z</time>
      </trkpt>
      <trkpt lat="49.92602" lon="2.17472">
        <ele>61.9</ele>
        <time>2022-11-09T13:24:07Z</time>
      </trkpt>
      <trkpt lat="49.92602" lon="2.1747">
        <ele>61.8</ele>
        <time>2022-11-09T13:24:08Z</time>
      </trkpt>
      <trkpt lat="49.92602" lon="2.17469">
        <ele>61.8</ele>
        <time>2022-11-09T13:24:09Z</time>
      </trkpt>
      <trkpt lat="49.92603" lon="2.17465">
        <ele>61.7</ele>
        <time>2022-11-09T13:24:10Z</time>
      </trkpt>
      <trkpt lat="49.92603" lon="2.17464">
        <ele>61.7</ele>
        <time>2022-11-09T13:24:12Z</time>
      </trkpt>
      <trkpt lat="49.92604" lon="2.17463">
        <ele>61.6</ele>
        <time>2022-11-09T13:24:13Z</time>
      </trkpt>
      <trkpt lat="49.92604" lon="2.17461">
        <ele>61.6</ele>
        <time>2022-11-09T13:24:14Z</time>
      </trkpt>
      <trkpt lat="49.92604" lon="2.17459">
        <ele>61.5</ele>
        <time>2022-11-09T13:24:15Z</time>
      </trkpt>
      <trkpt lat="49.92605" lon="2.17458">
        <ele>61.5</ele>
        <time>2022-11-09T13:24:16Z</time>
      </trkpt>
      <trkpt lat="49.92606" lon="2.17456">
        <ele>61.4</ele>
        <time>2022-11-09T13:24:17Z</time>
      </trkpt>
      <trkpt lat="49.92606" lon="2.17454">
        <ele>61.4</ele>
        <time>2022-11-09T13:24:18Z</time>
      </trkpt>
      <trkpt lat="49.92607" lon="2.17451">
        <ele>61.3</ele>
        <time>2022-11-09T13:24:19Z</time>
      </trkpt>
      <trkpt lat="49.92607" lon="2.1745">
        <ele>61.3</ele>
        <time>2022-11-09T13:24:20Z</time>
      </trkpt>
      <trkpt lat="49.92608" lon="2.17446">
        <ele>61.2</ele>
        <time>2022-11-09T13:24:21Z</time>
      </trkpt>
      <trkpt lat="49.92608" lon="2.17445">
        <ele>61.1</ele>
        <time>2022-11-09T13:24:22Z</time>
      </trkpt>
      <trkpt lat="49.92609" lon="2.17444">
        <ele>61.1</ele>
        <time>2022-11-09T13:24:23Z</time>
      </trkpt>
      <trkpt lat="49.92609" lon="2.17442">
        <ele>61</ele>
        <time>2022-11-09T13:24:24Z</time>
      </trkpt>
      <trkpt lat="49.9261" lon="2.1744">
        <ele>61</ele>
        <time>2022-11-09T13:24:26Z</time>
      </trkpt>
      <trkpt lat="49.9261" lon="2.17438">
        <ele>60.9</ele>
        <time>2022-11-09T13:24:27Z</time>
      </trkpt>
      <trkpt lat="49.92611" lon="2.17436">
        <ele>60.8</ele>
        <time>2022-11-09T13:24:28Z</time>
      </trkpt>
      <trkpt lat="49.92612" lon="2.17434">
        <ele>60.7</ele>
        <time>2022-11-09T13:24:29Z</time>
      </trkpt>
      <trkpt lat="49.92613" lon="2.17432">
        <ele>60.6</ele>
        <time>2022-11-09T13:24:30Z</time>
      </trkpt>
      <trkpt lat="49.92613" lon="2.1743">
        <ele>60.6</ele>
        <time>2022-11-09T13:24:32Z</time>
      </trkpt>
      <trkpt lat="49.92614" lon="2.17428">
        <ele>60.5</ele>
        <time>2022-11-09T13:24:33Z</time>
      </trkpt>
      <trkpt lat="49.92614" lon="2.17426">
        <ele>60.4</ele>
        <time>2022-11-09T13:24:34Z</time>
      </trkpt>
      <trkpt lat="49.92615" lon="2.17425">
        <ele>60.4</ele>
        <time>2022-11-09T13:24:35Z</time>
      </trkpt>
      <trkpt lat="49.92616" lon="2.17423">
        <ele>60.3</ele>
        <time>2022-11-09T13:24:36Z</time>
      </trkpt>
      <trkpt lat="49.92617" lon="2.1742">
        <ele>60.2</ele>
        <time>2022-11-09T13:24:37Z</time>
      </trkpt>
      <trkpt lat="49.92617" lon="2.17419">
        <ele>60.2</ele>
        <time>2022-11-09T13:24:38Z</time>
      </trkpt>
      <trkpt lat="49.92618" lon="2.17418">
        <ele>60.1</ele>
        <time>2022-11-09T13:24:39Z</time>
      </trkpt>
      <trkpt lat="49.92618" lon="2.17417">
        <ele>60.1</ele>
        <time>2022-11-09T13:24:40Z</time>
      </trkpt>
      <trkpt lat="49.92619" lon="2.17415">
        <ele>60</ele>
        <time>2022-11-09T13:24:41Z</time>
      </trkpt>
      <trkpt lat="49.9262" lon="2.17414">
        <ele>59.9</ele>
        <time>2022-11-09T13:24:43Z</time>
      </trkpt>
      <trkpt lat="49.9262" lon="2.17412">
        <ele>59.9</ele>
        <time>2022-11-09T13:24:44Z</time>
      </trkpt>
      <trkpt lat="49.9262" lon="2.17411">
        <ele>59.8</ele>
        <time>2022-11-09T13:24:45Z</time>
      </trkpt>
      <trkpt lat="49.92621" lon="2.17409">
        <ele>59.8</ele>
        <time>2022-11-09T13:24:46Z</time>
      </trkpt>
      <trkpt lat="49.92622" lon="2.17406">
        <ele>59.7</ele>
        <time>2022-11-09T13:24:47Z</time>
      </trkpt>
      <trkpt lat="49.92622" lon="2.17405">
        <ele>59.6</ele>
        <time>2022-11-09T13:24:48Z</time>
      </trkpt>
      <trkpt lat="49.92622" lon="2.17404">
        <ele>59.6</ele>
        <time>2022-11-09T13:24:49Z</time>
      </trkpt>
      <trkpt lat="49.92623" lon="2.17402">
        <ele>59.5</ele>
        <time>2022-11-09T13:24:50Z</time>
      </trkpt>
      <trkpt lat="49.92624" lon="2.174">
        <ele>59.4</ele>
        <time>2022-11-09T13:24:52Z</time>
      </trkpt>
      <trkpt lat="49.92624" lon="2.17398">
        <ele>59.4</ele>
        <time>2022-11-09T13:24:53Z</time>
      </trkpt>
      <trkpt lat="49.92625" lon="2.17395">
        <ele>59.2</ele>
        <time>2022-11-09T13:24:55Z</time>
      </trkpt>
      <trkpt lat="49.92626" lon="2.17393">
        <ele>59.2</ele>
        <time>2022-11-09T13:24:56Z</time>
      </trkpt>
      <trkpt lat="49.92626" lon="2.17391">
        <ele>59.1</ele>
        <time>2022-11-09T13:24:57Z</time>
      </trkpt>
      <trkpt lat="49.92627" lon="2.1739">
        <ele>59</ele>
        <time>2022-11-09T13:24:58Z</time>
      </trkpt>
      <trkpt lat="49.92627" lon="2.17388">
        <ele>59</ele>
        <time>2022-11-09T13:24:59Z</time>
      </trkpt>
      <trkpt lat="49.92628" lon="2.17386">
        <ele>58.9</ele>
        <time>2022-11-09T13:25:00Z</time>
      </trkpt>
      <trkpt lat="49.92628" lon="2.17384">
        <ele>58.8</ele>
        <time>2022-11-09T13:25:01Z</time>
      </trkpt>
      <trkpt lat="49.92628" lon="2.17382">
        <ele>58.7</ele>
        <time>2022-11-09T13:25:02Z</time>
      </trkpt>
      <trkpt lat="49.92629" lon="2.17379">
        <ele>58.7</ele>
        <time>2022-11-09T13:25:04Z</time>
      </trkpt>
      <trkpt lat="49.92629" lon="2.17375">
        <ele>58.5</ele>
        <time>2022-11-09T13:25:06Z</time>
      </trkpt>
      <trkpt lat="49.9263" lon="2.17373">
        <ele>58.4</ele>
        <time>2022-11-09T13:25:07Z</time>
      </trkpt>
      <trkpt lat="49.9263" lon="2.17371">
        <ele>58.3</ele>
        <time>2022-11-09T13:25:08Z</time>
      </trkpt>
      <trkpt lat="49.9263" lon="2.17368">
        <ele>58.2</ele>
        <time>2022-11-09T13:25:09Z</time>
      </trkpt>
      <trkpt lat="49.9263" lon="2.17366">
        <ele>58.2</ele>
        <time>2022-11-09T13:25:10Z</time>
      </trkpt>
      <trkpt lat="49.92631" lon="2.17364">
        <ele>58.1</ele>
        <time>2022-11-09T13:25:11Z</time>
      </trkpt>
      <trkpt lat="49.92631" lon="2.17361">
        <ele>57.9</ele>
        <time>2022-11-09T13:25:12Z</time>
      </trkpt>
      <trkpt lat="49.92631" lon="2.17359">
        <ele>57.8</ele>
        <time>2022-11-09T13:25:13Z</time>
      </trkpt>
      <trkpt lat="49.92631" lon="2.17357">
        <ele>57.7</ele>
        <time>2022-11-09T13:25:14Z</time>
      </trkpt>
      <trkpt lat="49.92632" lon="2.17354">
        <ele>57.6</ele>
        <time>2022-11-09T13:25:15Z</time>
      </trkpt>
      <trkpt lat="49.92632" lon="2.17352">
        <ele>57.5</ele>
        <time>2022-11-09T13:25:16Z</time>
      </trkpt>
      <trkpt lat="49.92632" lon="2.17349">
        <ele>57.4</ele>
        <time>2022-11-09T13:25:18Z</time>
      </trkpt>
      <trkpt lat="49.92633" lon="2.17347">
        <ele>57.3</ele>
        <time>2022-11-09T13:25:19Z</time>
      </trkpt>
      <trkpt lat="49.92633" lon="2.17345">
        <ele>57.2</ele>
        <time>2022-11-09T13:25:20Z</time>
      </trkpt>
      <trkpt lat="49.92633" lon="2.17342">
        <ele>57</ele>
        <time>2022-11-09T13:25:21Z</time>
      </trkpt>
      <trkpt lat="49.92634" lon="2.17339">
        <ele>56.9</ele>
        <time>2022-11-09T13:25:23Z</time>
      </trkpt>
      <trkpt lat="49.92634" lon="2.17338">
        <ele>56.8</ele>
        <time>2022-11-09T13:25:24Z</time>
      </trkpt>
      <trkpt lat="49.92634" lon="2.17337">
        <ele>56.7</ele>
        <time>2022-11-09T13:25:25Z</time>
      </trkpt>
      <trkpt lat="49.92635" lon="2.17335">
        <ele>56.6</ele>
        <time>2022-11-09T13:25:26Z</time>
      </trkpt>
      <trkpt lat="49.92636" lon="2.17333">
        <ele>56.5</ele>
        <time>2022-11-09T13:25:27Z</time>
      </trkpt>
      <trkpt lat="49.92636" lon="2.17332">
        <ele>56.4</ele>
        <time>2022-11-09T13:25:28Z</time>
      </trkpt>
      <trkpt lat="49.92637" lon="2.17331">
        <ele>56.3</ele>
        <time>2022-11-09T13:25:29Z</time>
      </trkpt>
      <trkpt lat="49.92637" lon="2.17329">
        <ele>56.2</ele>
        <time>2022-11-09T13:25:30Z</time>
      </trkpt>
      <trkpt lat="49.92638" lon="2.17328">
        <ele>56.2</ele>
        <time>2022-11-09T13:25:31Z</time>
      </trkpt>
      <trkpt lat="49.92638" lon="2.17326">
        <ele>56</ele>
        <time>2022-11-09T13:25:33Z</time>
      </trkpt>
      <trkpt lat="49.92639" lon="2.17324">
        <ele>55.9</ele>
        <time>2022-11-09T13:25:34Z</time>
      </trkpt>
      <trkpt lat="49.92639" lon="2.17323">
        <ele>55.8</ele>
        <time>2022-11-09T13:25:35Z</time>
      </trkpt>
      <trkpt lat="49.9264" lon="2.17321">
        <ele>55.7</ele>
        <time>2022-11-09T13:25:36Z</time>
      </trkpt>
      <trkpt lat="49.92641" lon="2.17319">
        <ele>55.6</ele>
        <time>2022-11-09T13:25:37Z</time>
      </trkpt>
      <trkpt lat="49.92641" lon="2.17317">
        <ele>55.4</ele>
        <time>2022-11-09T13:25:39Z</time>
      </trkpt>
      <trkpt lat="49.92642" lon="2.17315">
        <ele>55.2</ele>
        <time>2022-11-09T13:25:40Z</time>
      </trkpt>
      <trkpt lat="49.92642" lon="2.17313">
        <ele>55.1</ele>
        <time>2022-11-09T13:25:41Z</time>
      </trkpt>
      <trkpt lat="49.92642" lon="2.17312">
        <ele>55.1</ele>
        <time>2022-11-09T13:25:42Z</time>
      </trkpt>
      <trkpt lat="49.92643" lon="2.1731">
        <ele>54.9</ele>
        <time>2022-11-09T13:25:43Z</time>
      </trkpt>
      <trkpt lat="49.92644" lon="2.17308">
        <ele>54.8</ele>
        <time>2022-11-09T13:25:44Z</time>
      </trkpt>
      <trkpt lat="49.92645" lon="2.17306">
        <ele>54.6</ele>
        <time>2022-11-09T13:25:46Z</time>
      </trkpt>
      <trkpt lat="49.92646" lon="2.17304">
        <ele>54.4</ele>
        <time>2022-11-09T13:25:47Z</time>
      </trkpt>
      <trkpt lat="49.92647" lon="2.17303">
        <ele>54.3</ele>
        <time>2022-11-09T13:25:48Z</time>
      </trkpt>
      <trkpt lat="49.92648" lon="2.17302">
        <ele>54.2</ele>
        <time>2022-11-09T13:25:49Z</time>
      </trkpt>
      <trkpt lat="49.92649" lon="2.173">
        <ele>54</ele>
        <time>2022-11-09T13:25:50Z</time>
      </trkpt>
      <trkpt lat="49.92651" lon="2.17299">
        <ele>53.8</ele>
        <time>2022-11-09T13:25:51Z</time>
      </trkpt>
      <trkpt lat="49.92652" lon="2.17296">
        <ele>53.6</ele>
        <time>2022-11-09T13:25:52Z</time>
      </trkpt>
      <trkpt lat="49.92653" lon="2.17295">
        <ele>53.5</ele>
        <time>2022-11-09T13:25:53Z</time>
      </trkpt>
      <trkpt lat="49.92653" lon="2.17294">
        <ele>53.4</ele>
        <time>2022-11-09T13:25:54Z</time>
      </trkpt>
      <trkpt lat="49.92654" lon="2.17291">
        <ele>53.2</ele>
        <time>2022-11-09T13:25:55Z</time>
      </trkpt>
      <trkpt lat="49.92655" lon="2.1729">
        <ele>53.1</ele>
        <time>2022-11-09T13:25:57Z</time>
      </trkpt>
      <trkpt lat="49.92655" lon="2.17288">
        <ele>53</ele>
        <time>2022-11-09T13:25:58Z</time>
      </trkpt>
      <trkpt lat="49.92656" lon="2.17286">
        <ele>52.8</ele>
        <time>2022-11-09T13:25:59Z</time>
      </trkpt>
      <trkpt lat="49.92656" lon="2.17284">
        <ele>52.6</ele>
        <time>2022-11-09T13:26:00Z</time>
      </trkpt>
      <trkpt lat="49.92656" lon="2.17282">
        <ele>52.5</ele>
        <time>2022-11-09T13:26:01Z</time>
      </trkpt>
      <trkpt lat="49.92657" lon="2.1728">
        <ele>52.3</ele>
        <time>2022-11-09T13:26:02Z</time>
      </trkpt>
      <trkpt lat="49.92658" lon="2.17277">
        <ele>52.1</ele>
        <time>2022-11-09T13:26:04Z</time>
      </trkpt>
      <trkpt lat="49.92658" lon="2.17276">
        <ele>52</ele>
        <time>2022-11-09T13:26:05Z</time>
      </trkpt>
      <trkpt lat="49.92658" lon="2.17275">
        <ele>51.9</ele>
        <time>2022-11-09T13:26:06Z</time>
      </trkpt>
      <trkpt lat="49.92659" lon="2.17272">
        <ele>51.7</ele>
        <time>2022-11-09T13:26:07Z</time>
      </trkpt>
      <trkpt lat="49.92659" lon="2.1727">
        <ele>51.6</ele>
        <time>2022-11-09T13:26:08Z</time>
      </trkpt>
      <trkpt lat="49.92659" lon="2.17269">
        <ele>51.5</ele>
        <time>2022-11-09T13:26:09Z</time>
      </trkpt>
      <trkpt lat="49.9266" lon="2.17267">
        <ele>51.3</ele>
        <time>2022-11-09T13:26:10Z</time>
      </trkpt>
      <trkpt lat="49.9266" lon="2.17265">
        <ele>51.2</ele>
        <time>2022-11-09T13:26:11Z</time>
      </trkpt>
      <trkpt lat="49.92661" lon="2.17263">
        <ele>51</ele>
        <time>2022-11-09T13:26:13Z</time>
      </trkpt>
      <trkpt lat="49.92662" lon="2.17261">
        <ele>50.9</ele>
        <time>2022-11-09T13:26:14Z</time>
      </trkpt>
      <trkpt lat="49.92662" lon="2.1726">
        <ele>50.8</ele>
        <time>2022-11-09T13:26:15Z</time>
      </trkpt>
      <trkpt lat="49.92663" lon="2.17259">
        <ele>50.7</ele>
        <time>2022-11-09T13:26:16Z</time>
      </trkpt>
      <trkpt lat="49.92663" lon="2.17258">
        <ele>50.6</ele>
        <time>2022-11-09T13:26:17Z</time>
      </trkpt>
      <trkpt lat="49.92663" lon="2.17257">
        <ele>50.5</ele>
        <time>2022-11-09T13:26:18Z</time>
      </trkpt>
      <trkpt lat="49.92664" lon="2.17256">
        <ele>50.4</ele>
        <time>2022-11-09T13:26:19Z</time>
      </trkpt>
      <trkpt lat="49.92664" lon="2.17254">
        <ele>50.3</ele>
        <time>2022-11-09T13:26:20Z</time>
      </trkpt>
      <trkpt lat="49.92664" lon="2.17253">
        <ele>50.2</ele>
        <time>2022-11-09T13:26:21Z</time>
      </trkpt>
      <trkpt lat="49.92665" lon="2.17251">
        <ele>50.1</ele>
        <time>2022-11-09T13:26:22Z</time>
      </trkpt>
      <trkpt lat="49.92665" lon="2.1725">
        <ele>49.9</ele>
        <time>2022-11-09T13:26:24Z</time>
      </trkpt>
      <trkpt lat="49.92665" lon="2.17248">
        <ele>49.8</ele>
        <time>2022-11-09T13:26:25Z</time>
      </trkpt>
      <trkpt lat="49.92665" lon="2.17246">
        <ele>49.7</ele>
        <time>2022-11-09T13:26:26Z</time>
      </trkpt>
      <trkpt lat="49.92666" lon="2.17245">
        <ele>49.5</ele>
        <time>2022-11-09T13:26:27Z</time>
      </trkpt>
      <trkpt lat="49.92666" lon="2.17243">
        <ele>49.4</ele>
        <time>2022-11-09T13:26:28Z</time>
      </trkpt>
      <trkpt lat="49.92666" lon="2.17242">
        <ele>49.3</ele>
        <time>2022-11-09T13:26:29Z</time>
      </trkpt>
      <trkpt lat="49.92667" lon="2.1724">
        <ele>49.2</ele>
        <time>2022-11-09T13:26:30Z</time>
      </trkpt>
      <trkpt lat="49.92667" lon="2.17238">
        <ele>49</ele>
        <time>2022-11-09T13:26:31Z</time>
      </trkpt>
      <trkpt lat="49.92667" lon="2.17237">
        <ele>48.9</ele>
        <time>2022-11-09T13:26:32Z</time>
      </trkpt>
      <trkpt lat="49.92667" lon="2.17235">
        <ele>48.8</ele>
        <time>2022-11-09T13:26:33Z</time>
      </trkpt>
      <trkpt lat="49.92667" lon="2.17234">
        <ele>48.7</ele>
        <time>2022-11-09T13:26:34Z</time>
      </trkpt>
      <trkpt lat="49.92668" lon="2.17232">
        <ele>48.6</ele>
        <time>2022-11-09T13:26:35Z</time>
      </trkpt>
      <trkpt lat="49.92668" lon="2.1723">
        <ele>48.4</ele>
        <time>2022-11-09T13:26:36Z</time>
      </trkpt>
      <trkpt lat="49.92668" lon="2.17228">
        <ele>48.3</ele>
        <time>2022-11-09T13:26:37Z</time>
      </trkpt>
      <trkpt lat="49.92668" lon="2.17227">
        <ele>48.1</ele>
        <time>2022-11-09T13:26:39Z</time>
      </trkpt>
      <trkpt lat="49.92669" lon="2.17225">
        <ele>48</ele>
        <time>2022-11-09T13:26:40Z</time>
      </trkpt>
      <trkpt lat="49.92669" lon="2.17223">
        <ele>47.9</ele>
        <time>2022-11-09T13:26:41Z</time>
      </trkpt>
      <trkpt lat="49.92669" lon="2.1722">
        <ele>47.7</ele>
        <time>2022-11-09T13:26:42Z</time>
      </trkpt>
      <trkpt lat="49.92669" lon="2.17218">
        <ele>47.5</ele>
        <time>2022-11-09T13:26:43Z</time>
      </trkpt>
      <trkpt lat="49.92669" lon="2.17216">
        <ele>47.4</ele>
        <time>2022-11-09T13:26:45Z</time>
      </trkpt>
      <trkpt lat="49.92669" lon="2.17214">
        <ele>47.2</ele>
        <time>2022-11-09T13:26:46Z</time>
      </trkpt>
      <trkpt lat="49.92669" lon="2.17213">
        <ele>47.1</ele>
        <time>2022-11-09T13:26:47Z</time>
      </trkpt>
      <trkpt lat="49.92668" lon="2.17211">
        <ele>47</ele>
        <time>2022-11-09T13:26:48Z</time>
      </trkpt>
      <trkpt lat="49.92668" lon="2.17208">
        <ele>46.8</ele>
        <time>2022-11-09T13:26:49Z</time>
      </trkpt>
      <trkpt lat="49.92668" lon="2.17206">
        <ele>46.7</ele>
        <time>2022-11-09T13:26:50Z</time>
      </trkpt>
      <trkpt lat="49.92667" lon="2.17205">
        <ele>46.6</ele>
        <time>2022-11-09T13:26:51Z</time>
      </trkpt>
      <trkpt lat="49.92667" lon="2.17202">
        <ele>46.3</ele>
        <time>2022-11-09T13:26:52Z</time>
      </trkpt>
      <trkpt lat="49.92667" lon="2.17201">
        <ele>46.2</ele>
        <time>2022-11-09T13:26:53Z</time>
      </trkpt>
      <trkpt lat="49.92667" lon="2.17199">
        <ele>46.2</ele>
        <time>2022-11-09T13:26:54Z</time>
      </trkpt>
      <trkpt lat="49.92667" lon="2.17196">
        <ele>45.9</ele>
        <time>2022-11-09T13:26:55Z</time>
      </trkpt>
      <trkpt lat="49.92667" lon="2.17194">
        <ele>45.8</ele>
        <time>2022-11-09T13:26:57Z</time>
      </trkpt>
      <trkpt lat="49.92666" lon="2.17193">
        <ele>45.7</ele>
        <time>2022-11-09T13:26:58Z</time>
      </trkpt>
      <trkpt lat="49.92666" lon="2.17191">
        <ele>45.6</ele>
        <time>2022-11-09T13:26:59Z</time>
      </trkpt>
      <trkpt lat="49.92666" lon="2.17189">
        <ele>45.4</ele>
        <time>2022-11-09T13:27:00Z</time>
      </trkpt>
      <trkpt lat="49.92666" lon="2.17187">
        <ele>45.3</ele>
        <time>2022-11-09T13:27:01Z</time>
      </trkpt>
      <trkpt lat="49.92665" lon="2.17185">
        <ele>45.1</ele>
        <time>2022-11-09T13:27:02Z</time>
      </trkpt>
      <trkpt lat="49.92664" lon="2.17183">
        <ele>45</ele>
        <time>2022-11-09T13:27:04Z</time>
      </trkpt>
      <trkpt lat="49.92664" lon="2.17182">
        <ele>44.9</ele>
        <time>2022-11-09T13:27:05Z</time>
      </trkpt>
      <trkpt lat="49.92663" lon="2.17179">
        <ele>44.7</ele>
        <time>2022-11-09T13:27:06Z</time>
      </trkpt>
      <trkpt lat="49.92663" lon="2.17178">
        <ele>44.6</ele>
        <time>2022-11-09T13:27:07Z</time>
      </trkpt>
      <trkpt lat="49.92663" lon="2.17177">
        <ele>44.5</ele>
        <time>2022-11-09T13:27:08Z</time>
      </trkpt>
      <trkpt lat="49.92663" lon="2.17174">
        <ele>44.4</ele>
        <time>2022-11-09T13:27:09Z</time>
      </trkpt>
      <trkpt lat="49.92663" lon="2.17172">
        <ele>44.2</ele>
        <time>2022-11-09T13:27:11Z</time>
      </trkpt>
      <trkpt lat="49.92662" lon="2.17171">
        <ele>44.1</ele>
        <time>2022-11-09T13:27:12Z</time>
      </trkpt>
      <trkpt lat="49.92662" lon="2.1717">
        <ele>44</ele>
        <time>2022-11-09T13:27:13Z</time>
      </trkpt>
      <trkpt lat="49.92661" lon="2.17169">
        <ele>43.9</ele>
        <time>2022-11-09T13:27:14Z</time>
      </trkpt>
      <trkpt lat="49.92661" lon="2.17168">
        <ele>43.9</ele>
        <time>2022-11-09T13:27:15Z</time>
      </trkpt>
      <trkpt lat="49.92661" lon="2.17166">
        <ele>43.8</ele>
        <time>2022-11-09T13:27:16Z</time>
      </trkpt>
      <trkpt lat="49.92661" lon="2.17164">
        <ele>43.6</ele>
        <time>2022-11-09T13:27:17Z</time>
      </trkpt>
      <trkpt lat="49.92661" lon="2.17162">
        <ele>43.5</ele>
        <time>2022-11-09T13:27:19Z</time>
      </trkpt>
      <trkpt lat="49.92661" lon="2.1716">
        <ele>43.4</ele>
        <time>2022-11-09T13:27:20Z</time>
      </trkpt>
      <trkpt lat="49.9266" lon="2.17159">
        <ele>43.2</ele>
        <time>2022-11-09T13:27:21Z</time>
      </trkpt>
      <trkpt lat="49.9266" lon="2.17157">
        <ele>43.1</ele>
        <time>2022-11-09T13:27:22Z</time>
      </trkpt>
      <trkpt lat="49.92659" lon="2.17154">
        <ele>42.9</ele>
        <time>2022-11-09T13:27:23Z</time>
      </trkpt>
      <trkpt lat="49.92659" lon="2.17153">
        <ele>42.8</ele>
        <time>2022-11-09T13:27:24Z</time>
      </trkpt>
      <trkpt lat="49.92659" lon="2.17151">
        <ele>42.7</ele>
        <time>2022-11-09T13:27:25Z</time>
      </trkpt>
      <trkpt lat="49.92658" lon="2.17148">
        <ele>42.5</ele>
        <time>2022-11-09T13:27:26Z</time>
      </trkpt>
      <trkpt lat="49.92658" lon="2.17147">
        <ele>42.4</ele>
        <time>2022-11-09T13:27:27Z</time>
      </trkpt>
      <trkpt lat="49.92658" lon="2.17146">
        <ele>42.4</ele>
        <time>2022-11-09T13:27:28Z</time>
      </trkpt>
      <trkpt lat="49.92658" lon="2.17144">
        <ele>42.3</ele>
        <time>2022-11-09T13:27:29Z</time>
      </trkpt>
      <trkpt lat="49.92657" lon="2.17142">
        <ele>42.1</ele>
        <time>2022-11-09T13:27:30Z</time>
      </trkpt>
      <trkpt lat="49.92657" lon="2.17141">
        <ele>42</ele>
        <time>2022-11-09T13:27:31Z</time>
      </trkpt>
      <trkpt lat="49.92656" lon="2.17139">
        <ele>41.9</ele>
        <time>2022-11-09T13:27:32Z</time>
      </trkpt>
      <trkpt lat="49.92656" lon="2.17137">
        <ele>41.8</ele>
        <time>2022-11-09T13:27:34Z</time>
      </trkpt>
      <trkpt lat="49.92655" lon="2.17136">
        <ele>41.7</ele>
        <time>2022-11-09T13:27:35Z</time>
      </trkpt>
      <trkpt lat="49.92654" lon="2.17133">
        <ele>41.5</ele>
        <time>2022-11-09T13:27:36Z</time>
      </trkpt>
      <trkpt lat="49.92654" lon="2.17132">
        <ele>41.5</ele>
        <time>2022-11-09T13:27:37Z</time>
      </trkpt>
      <trkpt lat="49.92654" lon="2.1713">
        <ele>41.4</ele>
        <time>2022-11-09T13:27:38Z</time>
      </trkpt>
      <trkpt lat="49.92653" lon="2.17129">
        <ele>41.3</ele>
        <time>2022-11-09T13:27:39Z</time>
      </trkpt>
      <trkpt lat="49.92652" lon="2.17127">
        <ele>41.2</ele>
        <time>2022-11-09T13:27:40Z</time>
      </trkpt>
      <trkpt lat="49.92652" lon="2.17126">
        <ele>41.1</ele>
        <time>2022-11-09T13:27:41Z</time>
      </trkpt>
      <trkpt lat="49.92651" lon="2.17123">
        <ele>40.9</ele>
        <time>2022-11-09T13:27:43Z</time>
      </trkpt>
      <trkpt lat="49.9265" lon="2.17122">
        <ele>40.8</ele>
        <time>2022-11-09T13:27:44Z</time>
      </trkpt>
      <trkpt lat="49.9265" lon="2.1712">
        <ele>40.8</ele>
        <time>2022-11-09T13:27:45Z</time>
      </trkpt>
      <trkpt lat="49.92649" lon="2.17118">
        <ele>40.6</ele>
        <time>2022-11-09T13:27:46Z</time>
      </trkpt>
      <trkpt lat="49.92648" lon="2.17116">
        <ele>40.5</ele>
        <time>2022-11-09T13:27:47Z</time>
      </trkpt>
      <trkpt lat="49.92648" lon="2.17114">
        <ele>40.4</ele>
        <time>2022-11-09T13:27:48Z</time>
      </trkpt>
      <trkpt lat="49.92647" lon="2.17111">
        <ele>40.3</ele>
        <time>2022-11-09T13:27:49Z</time>
      </trkpt>
      <trkpt lat="49.92647" lon="2.17109">
        <ele>40.2</ele>
        <time>2022-11-09T13:27:51Z</time>
      </trkpt>
      <trkpt lat="49.92646" lon="2.17107">
        <ele>40.1</ele>
        <time>2022-11-09T13:27:52Z</time>
      </trkpt>
      <trkpt lat="49.92645" lon="2.17104">
        <ele>39.9</ele>
        <time>2022-11-09T13:27:53Z</time>
      </trkpt>
      <trkpt lat="49.92645" lon="2.17103">
        <ele>39.8</ele>
        <time>2022-11-09T13:27:54Z</time>
      </trkpt>
      <trkpt lat="49.92644" lon="2.17102">
        <ele>39.8</ele>
        <time>2022-11-09T13:27:55Z</time>
      </trkpt>
      <trkpt lat="49.92644" lon="2.171">
        <ele>39.7</ele>
        <time>2022-11-09T13:27:56Z</time>
      </trkpt>
      <trkpt lat="49.92643" lon="2.17099">
        <ele>39.6</ele>
        <time>2022-11-09T13:27:57Z</time>
      </trkpt>
      <trkpt lat="49.92643" lon="2.17097">
        <ele>39.5</ele>
        <time>2022-11-09T13:27:59Z</time>
      </trkpt>
      <trkpt lat="49.92642" lon="2.17094">
        <ele>39.3</ele>
        <time>2022-11-09T13:28:00Z</time>
      </trkpt>
      <trkpt lat="49.92641" lon="2.17093">
        <ele>39.2</ele>
        <time>2022-11-09T13:28:01Z</time>
      </trkpt>
      <trkpt lat="49.92641" lon="2.17091">
        <ele>39.2</ele>
        <time>2022-11-09T13:28:02Z</time>
      </trkpt>
      <trkpt lat="49.9264" lon="2.1709">
        <ele>39.1</ele>
        <time>2022-11-09T13:28:03Z</time>
      </trkpt>
      <trkpt lat="49.9264" lon="2.17089">
        <ele>39</ele>
        <time>2022-11-09T13:28:04Z</time>
      </trkpt>
      <trkpt lat="49.92639" lon="2.17087">
        <ele>38.9</ele>
        <time>2022-11-09T13:28:05Z</time>
      </trkpt>
      <trkpt lat="49.92639" lon="2.17086">
        <ele>38.8</ele>
        <time>2022-11-09T13:28:06Z</time>
      </trkpt>
      <trkpt lat="49.92638" lon="2.17085">
        <ele>38.8</ele>
        <time>2022-11-09T13:28:07Z</time>
      </trkpt>
      <trkpt lat="49.92637" lon="2.17083">
        <ele>38.7</ele>
        <time>2022-11-09T13:28:09Z</time>
      </trkpt>
      <trkpt lat="49.92636" lon="2.17082">
        <ele>38.6</ele>
        <time>2022-11-09T13:28:10Z</time>
      </trkpt>
      <trkpt lat="49.92636" lon="2.17082">
        <ele>38.5</ele>
        <time>2022-11-09T13:28:11Z</time>
      </trkpt>
      <trkpt lat="49.92635" lon="2.17081">
        <ele>38.4</ele>
        <time>2022-11-09T13:28:12Z</time>
      </trkpt>
      <trkpt lat="49.92634" lon="2.17079">
        <ele>38.3</ele>
        <time>2022-11-09T13:28:13Z</time>
      </trkpt>
      <trkpt lat="49.92632" lon="2.17078">
        <ele>38.2</ele>
        <time>2022-11-09T13:28:14Z</time>
      </trkpt>
      <trkpt lat="49.92631" lon="2.17076">
        <ele>38.1</ele>
        <time>2022-11-09T13:28:15Z</time>
      </trkpt>
      <trkpt lat="49.9263" lon="2.17075">
        <ele>37.9</ele>
        <time>2022-11-09T13:28:16Z</time>
      </trkpt>
      <trkpt lat="49.92629" lon="2.17073">
        <ele>37.8</ele>
        <time>2022-11-09T13:28:17Z</time>
      </trkpt>
      <trkpt lat="49.92628" lon="2.17072">
        <ele>37.7</ele>
        <time>2022-11-09T13:28:19Z</time>
      </trkpt>
      <trkpt lat="49.92626" lon="2.1707">
        <ele>37.6</ele>
        <time>2022-11-09T13:28:20Z</time>
      </trkpt>
      <trkpt lat="49.92625" lon="2.17069">
        <ele>37.4</ele>
        <time>2022-11-09T13:28:21Z</time>
      </trkpt>
      <trkpt lat="49.92624" lon="2.17067">
        <ele>37.3</ele>
        <time>2022-11-09T13:28:22Z</time>
      </trkpt>
      <trkpt lat="49.92623" lon="2.17066">
        <ele>37.2</ele>
        <time>2022-11-09T13:28:23Z</time>
      </trkpt>
      <trkpt lat="49.92622" lon="2.17065">
        <ele>37.1</ele>
        <time>2022-11-09T13:28:24Z</time>
      </trkpt>
      <trkpt lat="49.92621" lon="2.17063">
        <ele>36.9</ele>
        <time>2022-11-09T13:28:25Z</time>
      </trkpt>
      <trkpt lat="49.9262" lon="2.17062">
        <ele>36.8</ele>
        <time>2022-11-09T13:28:27Z</time>
      </trkpt>
      <trkpt lat="49.92619" lon="2.17061">
        <ele>36.7</ele>
        <time>2022-11-09T13:28:28Z</time>
      </trkpt>
      <trkpt lat="49.92618" lon="2.1706">
        <ele>36.6</ele>
        <time>2022-11-09T13:28:29Z</time>
      </trkpt>
      <trkpt lat="49.92618" lon="2.17059">
        <ele>36.5</ele>
        <time>2022-11-09T13:28:30Z</time>
      </trkpt>
      <trkpt lat="49.92617" lon="2.17058">
        <ele>36.4</ele>
        <time>2022-11-09T13:28:31Z</time>
      </trkpt>
      <trkpt lat="49.92615" lon="2.17055">
        <ele>36.2</ele>
        <time>2022-11-09T13:28:33Z</time>
      </trkpt>
      <trkpt lat="49.92614" lon="2.17054">
        <ele>36.1</ele>
        <time>2022-11-09T13:28:34Z</time>
      </trkpt>
      <trkpt lat="49.92612" lon="2.17054">
        <ele>35.9</ele>
        <time>2022-11-09T13:28:35Z</time>
      </trkpt>
      <trkpt lat="49.9261" lon="2.17054">
        <ele>35.7</ele>
        <time>2022-11-09T13:28:36Z</time>
      </trkpt>
      <trkpt lat="49.92609" lon="2.17055">
        <ele>35.5</ele>
        <time>2022-11-09T13:28:37Z</time>
      </trkpt>
      <trkpt lat="49.92607" lon="2.17054">
        <ele>35.3</ele>
        <time>2022-11-09T13:28:38Z</time>
      </trkpt>
      <trkpt lat="49.92606" lon="2.17053">
        <ele>35.2</ele>
        <time>2022-11-09T13:28:39Z</time>
      </trkpt>
      <trkpt lat="49.92605" lon="2.17053">
        <ele>35</ele>
        <time>2022-11-09T13:28:41Z</time>
      </trkpt>
      <trkpt lat="49.92604" lon="2.17052">
        <ele>34.9</ele>
        <time>2022-11-09T13:28:42Z</time>
      </trkpt>
      <trkpt lat="49.92603" lon="2.17051">
        <ele>34.8</ele>
        <time>2022-11-09T13:28:43Z</time>
      </trkpt>
      <trkpt lat="49.92602" lon="2.17049">
        <ele>34.7</ele>
        <time>2022-11-09T13:28:44Z</time>
      </trkpt>
      <trkpt lat="49.92601" lon="2.17048">
        <ele>34.5</ele>
        <time>2022-11-09T13:28:45Z</time>
      </trkpt>
      <trkpt lat="49.92601" lon="2.17047">
        <ele>34.4</ele>
        <time>2022-11-09T13:28:46Z</time>
      </trkpt>
      <trkpt lat="49.92599" lon="2.17045">
        <ele>34.1</ele>
        <time>2022-11-09T13:28:47Z</time>
      </trkpt>
      <trkpt lat="49.92599" lon="2.17044">
        <ele>34</ele>
        <time>2022-11-09T13:28:48Z</time>
      </trkpt>
      <trkpt lat="49.92598" lon="2.17043">
        <ele>34</ele>
        <time>2022-11-09T13:28:49Z</time>
      </trkpt>
      <trkpt lat="49.92597" lon="2.17042">
        <ele>33.8</ele>
        <time>2022-11-09T13:28:50Z</time>
      </trkpt>
      <trkpt lat="49.92597" lon="2.17042">
        <ele>33.7</ele>
        <time>2022-11-09T13:28:51Z</time>
      </trkpt>
      <trkpt lat="49.92596" lon="2.17041">
        <ele>33.6</ele>
        <time>2022-11-09T13:28:53Z</time>
      </trkpt>
      <trkpt lat="49.92595" lon="2.1704">
        <ele>33.5</ele>
        <time>2022-11-09T13:28:54Z</time>
      </trkpt>
      <trkpt lat="49.92594" lon="2.1704">
        <ele>33.4</ele>
        <time>2022-11-09T13:28:55Z</time>
      </trkpt>
      <trkpt lat="49.92593" lon="2.17039">
        <ele>33.2</ele>
        <time>2022-11-09T13:28:56Z</time>
      </trkpt>
      <trkpt lat="49.92593" lon="2.17039">
        <ele>33.1</ele>
        <time>2022-11-09T13:28:57Z</time>
      </trkpt>
      <trkpt lat="49.92591" lon="2.17037">
        <ele>32.9</ele>
        <time>2022-11-09T13:28:58Z</time>
      </trkpt>
      <trkpt lat="49.9259" lon="2.17037">
        <ele>32.8</ele>
        <time>2022-11-09T13:29:00Z</time>
      </trkpt>
      <trkpt lat="49.92589" lon="2.17036">
        <ele>32.6</ele>
        <time>2022-11-09T13:29:01Z</time>
      </trkpt>
      <trkpt lat="49.92587" lon="2.17035">
        <ele>32.4</ele>
        <time>2022-11-09T13:29:02Z</time>
      </trkpt>
      <trkpt lat="49.92587" lon="2.17035">
        <ele>32.2</ele>
        <time>2022-11-09T13:29:03Z</time>
      </trkpt>
      <trkpt lat="49.92586" lon="2.17035">
        <ele>32.1</ele>
        <time>2022-11-09T13:29:04Z</time>
      </trkpt>
      <trkpt lat="49.92584" lon="2.17034">
        <ele>31.9</ele>
        <time>2022-11-09T13:29:05Z</time>
      </trkpt>
      <trkpt lat="49.92583" lon="2.17033">
        <ele>31.7</ele>
        <time>2022-11-09T13:29:06Z</time>
      </trkpt>
      <trkpt lat="49.92581" lon="2.17033">
        <ele>31.5</ele>
        <time>2022-11-09T13:29:07Z</time>
      </trkpt>
      <trkpt lat="49.9258" lon="2.17033">
        <ele>31.3</ele>
        <time>2022-11-09T13:29:08Z</time>
      </trkpt>
      <trkpt lat="49.92578" lon="2.17033">
        <ele>31.1</ele>
        <time>2022-11-09T13:29:09Z</time>
      </trkpt>
      <trkpt lat="49.92577" lon="2.17033">
        <ele>30.9</ele>
        <time>2022-11-09T13:29:10Z</time>
      </trkpt>
      <trkpt lat="49.92575" lon="2.17033">
        <ele>30.7</ele>
        <time>2022-11-09T13:29:11Z</time>
      </trkpt>
      <trkpt lat="49.92574" lon="2.17033">
        <ele>30.5</ele>
        <time>2022-11-09T13:29:12Z</time>
      </trkpt>
      <trkpt lat="49.92572" lon="2.17033">
        <ele>30.3</ele>
        <time>2022-11-09T13:29:14Z</time>
      </trkpt>
      <trkpt lat="49.92571" lon="2.17033">
        <ele>30.1</ele>
        <time>2022-11-09T13:29:15Z</time>
      </trkpt>
      <trkpt lat="49.92569" lon="2.17031">
        <ele>29.8</ele>
        <time>2022-11-09T13:29:16Z</time>
      </trkpt>
      <trkpt lat="49.92568" lon="2.1703">
        <ele>29.7</ele>
        <time>2022-11-09T13:29:17Z</time>
      </trkpt>
      <trkpt lat="49.92567" lon="2.17029">
        <ele>29.5</ele>
        <time>2022-11-09T13:29:18Z</time>
      </trkpt>
      <trkpt lat="49.92566" lon="2.17028">
        <ele>29.4</ele>
        <time>2022-11-09T13:29:19Z</time>
      </trkpt>
      <trkpt lat="49.92566" lon="2.17028">
        <ele>29.2</ele>
        <time>2022-11-09T13:29:20Z</time>
      </trkpt>
      <trkpt lat="49.92565" lon="2.17027">
        <ele>29.1</ele>
        <time>2022-11-09T13:29:22Z</time>
      </trkpt>
      <trkpt lat="49.92564" lon="2.17027">
        <ele>29</ele>
        <time>2022-11-09T13:29:23Z</time>
      </trkpt>
      <trkpt lat="49.92564" lon="2.17026">
        <ele>29</ele>
        <time>2022-11-09T13:29:24Z</time>
      </trkpt>
      <trkpt lat="49.92563" lon="2.17026">
        <ele>28.9</ele>
        <time>2022-11-09T13:29:25Z</time>
      </trkpt>
      <trkpt lat="49.92562" lon="2.17025">
        <ele>28.7</ele>
        <time>2022-11-09T13:29:26Z</time>
      </trkpt>
      <trkpt lat="49.92561" lon="2.17024">
        <ele>28.6</ele>
        <time>2022-11-09T13:29:27Z</time>
      </trkpt>
      <trkpt lat="49.9256" lon="2.17023">
        <ele>28.4</ele>
        <time>2022-11-09T13:29:28Z</time>
      </trkpt>
      <trkpt lat="49.92559" lon="2.17023">
        <ele>28.3</ele>
        <time>2022-11-09T13:29:29Z</time>
      </trkpt>
      <trkpt lat="49.92558" lon="2.17022">
        <ele>28.1</ele>
        <time>2022-11-09T13:29:30Z</time>
      </trkpt>
      <trkpt lat="49.92558" lon="2.17021">
        <ele>28</ele>
        <time>2022-11-09T13:29:31Z</time>
      </trkpt>
      <trkpt lat="49.92557" lon="2.1702">
        <ele>27.9</ele>
        <time>2022-11-09T13:29:33Z</time>
      </trkpt>
      <trkpt lat="49.92556" lon="2.1702">
        <ele>27.8</ele>
        <time>2022-11-09T13:29:34Z</time>
      </trkpt>
      <trkpt lat="49.92556" lon="2.17019">
        <ele>27.6</ele>
        <time>2022-11-09T13:29:35Z</time>
      </trkpt>
      <trkpt lat="49.92555" lon="2.17018">
        <ele>27.6</ele>
        <time>2022-11-09T13:29:36Z</time>
      </trkpt>
      <trkpt lat="49.92554" lon="2.17017">
        <ele>27.6</ele>
        <time>2022-11-09T13:29:37Z</time>
      </trkpt>
      <trkpt lat="49.92553" lon="2.17017">
        <ele>27.6</ele>
        <time>2022-11-09T13:29:38Z</time>
      </trkpt>
      <trkpt lat="49.92553" lon="2.17016">
        <ele>27.6</ele>
        <time>2022-11-09T13:29:40Z</time>
      </trkpt>
      <trkpt lat="49.92552" lon="2.17015">
        <ele>27.6</ele>
        <time>2022-11-09T13:29:41Z</time>
      </trkpt>
      <trkpt lat="49.92551" lon="2.17014">
        <ele>27.5</ele>
        <time>2022-11-09T13:29:42Z</time>
      </trkpt>
      <trkpt lat="49.92551" lon="2.17012">
        <ele>27.5</ele>
        <time>2022-11-09T13:29:43Z</time>
      </trkpt>
      <trkpt lat="49.9255" lon="2.17011">
        <ele>27.5</ele>
        <time>2022-11-09T13:29:44Z</time>
      </trkpt>
      <trkpt lat="49.92549" lon="2.1701">
        <ele>27.5</ele>
        <time>2022-11-09T13:29:45Z</time>
      </trkpt>
      <trkpt lat="49.92549" lon="2.17009">
        <ele>27.5</ele>
        <time>2022-11-09T13:29:47Z</time>
      </trkpt>
      <trkpt lat="49.92548" lon="2.17008">
        <ele>27.5</ele>
        <time>2022-11-09T13:29:48Z</time>
      </trkpt>
      <trkpt lat="49.92548" lon="2.17007">
        <ele>27.4</ele>
        <time>2022-11-09T13:29:49Z</time>
      </trkpt>
      <trkpt lat="49.92548" lon="2.17007">
        <ele>27.4</ele>
        <time>2022-11-09T13:29:50Z</time>
      </trkpt>
      <trkpt lat="49.92548" lon="2.17006">
        <ele>27.4</ele>
        <time>2022-11-09T13:29:51Z</time>
      </trkpt>
      <trkpt lat="49.92548" lon="2.17005">
        <ele>27.4</ele>
        <time>2022-11-09T13:29:52Z</time>
      </trkpt>
      <trkpt lat="49.92548" lon="2.17005">
        <ele>27.4</ele>
        <time>2022-11-09T13:29:54Z</time>
      </trkpt>
      <trkpt lat="49.92548" lon="2.17004">
        <ele>27.4</ele>
        <time>2022-11-09T13:29:55Z</time>
      </trkpt>
      <trkpt lat="49.92547" lon="2.17005">
        <ele>27.4</ele>
        <time>2022-11-09T13:29:56Z</time>
      </trkpt>
      <trkpt lat="49.92547" lon="2.17005">
        <ele>27.4</ele>
        <time>2022-11-09T13:29:57Z</time>
      </trkpt>
      <trkpt lat="49.92547" lon="2.17005">
        <ele>27.4</ele>
        <time>2022-11-09T13:29:58Z</time>
      </trkpt>
      <trkpt lat="49.92547" lon="2.17005">
        <ele>27.4</ele>
        <time>2022-11-09T13:29:59Z</time>
      </trkpt>
      <trkpt lat="49.92547" lon="2.17006">
        <ele>27.4</ele>
        <time>2022-11-09T13:30:00Z</time>
      </trkpt>
      <trkpt lat="49.92547" lon="2.17006">
        <ele>27.4</ele>
        <time>2022-11-09T13:30:01Z</time>
      </trkpt>
      <trkpt lat="49.92547" lon="2.17006">
        <ele>27.4</ele>
        <time>2022-11-09T13:30:02Z</time>
      </trkpt>
      <trkpt lat="49.92547" lon="2.17006">
        <ele>27.4</ele>
        <time>2022-11-09T13:30:03Z</time>
      </trkpt>
      <trkpt lat="49.92547" lon="2.17006">
        <ele>27.4</ele>
        <time>2022-11-09T13:30:04Z</time>
      </trkpt>
      <trkpt lat="49.92547" lon="2.17006">
        <ele>27.4</ele>
        <time>2022-11-09T13:30:05Z</time>
      </trkpt>
      <trkpt lat="49.92547" lon="2.17006">
        <ele>27.4</ele>
        <time>2022-11-09T13:30:06Z</time>
      </trkpt>
      <trkpt lat="49.92546" lon="2.17006">
        <ele>27.4</ele>
        <time>2022-11-09T13:30:07Z</time>
      </trkpt>
      <trkpt lat="49.92547" lon="2.17007">
        <ele>27.4</ele>
        <time>2022-11-09T13:30:08Z</time>
      </trkpt>
      <trkpt lat="49.92547" lon="2.17006">
        <ele>27.4</ele>
        <time>2022-11-09T13:30:09Z</time>
      </trkpt>
      <trkpt lat="49.92548" lon="2.17006">
        <ele>27.3</ele>
        <time>2022-11-09T13:30:10Z</time>
      </trkpt>
      <trkpt lat="49.92548" lon="2.17006">
        <ele>27.3</ele>
        <time>2022-11-09T13:30:11Z</time>
      </trkpt>
      <trkpt lat="49.92548" lon="2.17006">
        <ele>27.3</ele>
        <time>2022-11-09T13:30:12Z</time>
      </trkpt>
      <trkpt lat="49.92548" lon="2.17006">
        <ele>27.3</ele>
        <time>2022-11-09T13:30:13Z</time>
      </trkpt>
      <trkpt lat="49.92548" lon="2.17005">
        <ele>27.3</ele>
        <time>2022-11-09T13:30:14Z</time>
      </trkpt>
      <trkpt lat="49.92548" lon="2.17005">
        <ele>27.3</ele>
        <time>2022-11-09T13:30:15Z</time>
      </trkpt>
      <trkpt lat="49.92548" lon="2.17005">
        <ele>27.3</ele>
        <time>2022-11-09T13:30:16Z</time>
      </trkpt>
      <trkpt lat="49.92548" lon="2.17005">
        <ele>27.3</ele>
        <time>2022-11-09T13:30:17Z</time>
      </trkpt>
      <trkpt lat="49.92548" lon="2.17006">
        <ele>27.3</ele>
        <time>2022-11-09T13:30:18Z</time>
      </trkpt>
      <trkpt lat="49.92548" lon="2.17006">
        <ele>27.3</ele>
        <time>2022-11-09T13:30:19Z</time>
      </trkpt>
      <trkpt lat="49.92548" lon="2.17006">
        <ele>27.3</ele>
        <time>2022-11-09T13:30:20Z</time>
      </trkpt>
      <trkpt lat="49.92548" lon="2.17006">
        <ele>27.3</ele>
        <time>2022-11-09T13:30:21Z</time>
      </trkpt>
      <trkpt lat="49.92548" lon="2.17006">
        <ele>27.3</ele>
        <time>2022-11-09T13:30:22Z</time>
      </trkpt>
      <trkpt lat="49.92548" lon="2.17006">
        <ele>27.3</ele>
        <time>2022-11-09T13:30:23Z</time>
      </trkpt>
      <trkpt lat="49.92548" lon="2.17006">
        <ele>27.3</ele>
        <time>2022-11-09T13:30:24Z</time>
      </trkpt>
      <trkpt lat="49.92548" lon="2.17006">
        <ele>27.3</ele>
        <time>2022-11-09T13:30:25Z</time>
      </trkpt>
      <trkpt lat="49.92548" lon="2.17006">
        <ele>27.3</ele>
        <time>2022-11-09T13:30:26Z</time>
      </trkpt>
      <trkpt lat="49.92547" lon="2.17007">
        <ele>27.3</ele>
        <time>2022-11-09T13:30:27Z</time>
      </trkpt>
      <trkpt lat="49.92547" lon="2.17006">
        <ele>27.3</ele>
        <time>2022-11-09T13:30:28Z</time>
      </trkpt>
      <trkpt lat="49.92546" lon="2.17005">
        <ele>27.3</ele>
        <time>2022-11-09T13:30:29Z</time>
      </trkpt>
      <trkpt lat="49.92546" lon="2.17004">
        <ele>27.3</ele>
        <time>2022-11-09T13:30:31Z</time>
      </trkpt>
      <trkpt lat="49.92546" lon="2.17003">
        <ele>27.2</ele>
        <time>2022-11-09T13:30:32Z</time>
      </trkpt>
      <trkpt lat="49.92546" lon="2.17001">
        <ele>27.2</ele>
        <time>2022-11-09T13:30:33Z</time>
      </trkpt>
      <trkpt lat="49.92546" lon="2.17">
        <ele>27.2</ele>
        <time>2022-11-09T13:30:34Z</time>
      </trkpt>
      <trkpt lat="49.92545" lon="2.16998">
        <ele>27.1</ele>
        <time>2022-11-09T13:30:35Z</time>
      </trkpt>
      <trkpt lat="49.92545" lon="2.16997">
        <ele>27.1</ele>
        <time>2022-11-09T13:30:36Z</time>
      </trkpt>
      <trkpt lat="49.92544" lon="2.16997">
        <ele>27.1</ele>
        <time>2022-11-09T13:30:37Z</time>
      </trkpt>
      <trkpt lat="49.92543" lon="2.16996">
        <ele>27.1</ele>
        <time>2022-11-09T13:30:38Z</time>
      </trkpt>
      <trkpt lat="49.92543" lon="2.16996">
        <ele>27</ele>
        <time>2022-11-09T13:30:39Z</time>
      </trkpt>
      <trkpt lat="49.92543" lon="2.16996">
        <ele>27</ele>
        <time>2022-11-09T13:30:40Z</time>
      </trkpt>
      <trkpt lat="49.92543" lon="2.16993">
        <ele>27</ele>
        <time>2022-11-09T13:30:41Z</time>
      </trkpt>
      <trkpt lat="49.92543" lon="2.16992">
        <ele>26.9</ele>
        <time>2022-11-09T13:30:42Z</time>
      </trkpt>
      <trkpt lat="49.92543" lon="2.16991">
        <ele>26.9</ele>
        <time>2022-11-09T13:30:43Z</time>
      </trkpt>
      <trkpt lat="49.92544" lon="2.1699">
        <ele>26.9</ele>
        <time>2022-11-09T13:30:44Z</time>
      </trkpt>
      <trkpt lat="49.92544" lon="2.16988">
        <ele>26.9</ele>
        <time>2022-11-09T13:30:46Z</time>
      </trkpt>
      <trkpt lat="49.92544" lon="2.16987">
        <ele>26.8</ele>
        <time>2022-11-09T13:30:47Z</time>
      </trkpt>
      <trkpt lat="49.92544" lon="2.16986">
        <ele>26.8</ele>
        <time>2022-11-09T13:30:48Z</time>
      </trkpt>
      <trkpt lat="49.92544" lon="2.16984">
        <ele>26.8</ele>
        <time>2022-11-09T13:30:49Z</time>
      </trkpt>
      <trkpt lat="49.92543" lon="2.16982">
        <ele>26.7</ele>
        <time>2022-11-09T13:30:51Z</time>
      </trkpt>
      <trkpt lat="49.92543" lon="2.16981">
        <ele>26.7</ele>
        <time>2022-11-09T13:30:52Z</time>
      </trkpt>
      <trkpt lat="49.92543" lon="2.1698">
        <ele>26.7</ele>
        <time>2022-11-09T13:30:53Z</time>
      </trkpt>
      <trkpt lat="49.92542" lon="2.16978">
        <ele>26.6</ele>
        <time>2022-11-09T13:30:54Z</time>
      </trkpt>
      <trkpt lat="49.92542" lon="2.16977">
        <ele>26.6</ele>
        <time>2022-11-09T13:30:55Z</time>
      </trkpt>
      <trkpt lat="49.92541" lon="2.16975">
        <ele>26.6</ele>
        <time>2022-11-09T13:30:57Z</time>
      </trkpt>
      <trkpt lat="49.92541" lon="2.16974">
        <ele>26.6</ele>
        <time>2022-11-09T13:30:58Z</time>
      </trkpt>
      <trkpt lat="49.92541" lon="2.16973">
        <ele>26.5</ele>
        <time>2022-11-09T13:30:59Z</time>
      </trkpt>
      <trkpt lat="49.92541" lon="2.16971">
        <ele>26.5</ele>
        <time>2022-11-09T13:31:00Z</time>
      </trkpt>
      <trkpt lat="49.92541" lon="2.16969">
        <ele>26.5</ele>
        <time>2022-11-09T13:31:01Z</time>
      </trkpt>
      <trkpt lat="49.9254" lon="2.16968">
        <ele>26.4</ele>
        <time>2022-11-09T13:31:02Z</time>
      </trkpt>
      <trkpt lat="49.9254" lon="2.16966">
        <ele>26.4</ele>
        <time>2022-11-09T13:31:03Z</time>
      </trkpt>
      <trkpt lat="49.92539" lon="2.16965">
        <ele>26.4</ele>
        <time>2022-11-09T13:31:04Z</time>
      </trkpt>
      <trkpt lat="49.92539" lon="2.16964">
        <ele>26.4</ele>
        <time>2022-11-09T13:31:05Z</time>
      </trkpt>
      <trkpt lat="49.92538" lon="2.16962">
        <ele>26.4</ele>
        <time>2022-11-09T13:31:06Z</time>
      </trkpt>
      <trkpt lat="49.92538" lon="2.16961">
        <ele>26.3</ele>
        <time>2022-11-09T13:31:07Z</time>
      </trkpt>
      <trkpt lat="49.92537" lon="2.16959">
        <ele>26.3</ele>
        <time>2022-11-09T13:31:08Z</time>
      </trkpt>
      <trkpt lat="49.92536" lon="2.16956">
        <ele>26.3</ele>
        <time>2022-11-09T13:31:10Z</time>
      </trkpt>
      <trkpt lat="49.92536" lon="2.16955">
        <ele>26.3</ele>
        <time>2022-11-09T13:31:11Z</time>
      </trkpt>
      <trkpt lat="49.92535" lon="2.16954">
        <ele>26.2</ele>
        <time>2022-11-09T13:31:12Z</time>
      </trkpt>
      <trkpt lat="49.92535" lon="2.16951">
        <ele>26.2</ele>
        <time>2022-11-09T13:31:13Z</time>
      </trkpt>
      <trkpt lat="49.92534" lon="2.16949">
        <ele>26.2</ele>
        <time>2022-11-09T13:31:14Z</time>
      </trkpt>
      <trkpt lat="49.92534" lon="2.16948">
        <ele>26.2</ele>
        <time>2022-11-09T13:31:15Z</time>
      </trkpt>
      <trkpt lat="49.92533" lon="2.16945">
        <ele>26.2</ele>
        <time>2022-11-09T13:31:16Z</time>
      </trkpt>
      <trkpt lat="49.92533" lon="2.16944">
        <ele>26.1</ele>
        <time>2022-11-09T13:31:17Z</time>
      </trkpt>
      <trkpt lat="49.92533" lon="2.16943">
        <ele>26.1</ele>
        <time>2022-11-09T13:31:18Z</time>
      </trkpt>
      <trkpt lat="49.92532" lon="2.16942">
        <ele>26.1</ele>
        <time>2022-11-09T13:31:19Z</time>
      </trkpt>
      <trkpt lat="49.92531" lon="2.1694">
        <ele>26.1</ele>
        <time>2022-11-09T13:31:21Z</time>
      </trkpt>
      <trkpt lat="49.9253" lon="2.16938">
        <ele>26.1</ele>
        <time>2022-11-09T13:31:22Z</time>
      </trkpt>
      <trkpt lat="49.9253" lon="2.16937">
        <ele>26.1</ele>
        <time>2022-11-09T13:31:23Z</time>
      </trkpt>
      <trkpt lat="49.92529" lon="2.16935">
        <ele>26.1</ele>
        <time>2022-11-09T13:31:24Z</time>
      </trkpt>
      <trkpt lat="49.92528" lon="2.16933">
        <ele>26.1</ele>
        <time>2022-11-09T13:31:25Z</time>
      </trkpt>
      <trkpt lat="49.92527" lon="2.16931">
        <ele>26.1</ele>
        <time>2022-11-09T13:31:26Z</time>
      </trkpt>
      <trkpt lat="49.92526" lon="2.16929">
        <ele>26.1</ele>
        <time>2022-11-09T13:31:27Z</time>
      </trkpt>
      <trkpt lat="49.92525" lon="2.16927">
        <ele>26.1</ele>
        <time>2022-11-09T13:31:28Z</time>
      </trkpt>
      <trkpt lat="49.92525" lon="2.16926">
        <ele>26.1</ele>
        <time>2022-11-09T13:31:29Z</time>
      </trkpt>
      <trkpt lat="49.92524" lon="2.16924">
        <ele>26.1</ele>
        <time>2022-11-09T13:31:30Z</time>
      </trkpt>
      <trkpt lat="49.92523" lon="2.16922">
        <ele>26.1</ele>
        <time>2022-11-09T13:31:32Z</time>
      </trkpt>
      <trkpt lat="49.92523" lon="2.1692">
        <ele>26.1</ele>
        <time>2022-11-09T13:31:33Z</time>
      </trkpt>
      <trkpt lat="49.92522" lon="2.16919">
        <ele>26.1</ele>
        <time>2022-11-09T13:31:34Z</time>
      </trkpt>
      <trkpt lat="49.92521" lon="2.16916">
        <ele>26.1</ele>
        <time>2022-11-09T13:31:35Z</time>
      </trkpt>
      <trkpt lat="49.92521" lon="2.16915">
        <ele>26.1</ele>
        <time>2022-11-09T13:31:36Z</time>
      </trkpt>
      <trkpt lat="49.92521" lon="2.16914">
        <ele>26.1</ele>
        <time>2022-11-09T13:31:37Z</time>
      </trkpt>
      <trkpt lat="49.92521" lon="2.16912">
        <ele>26.1</ele>
        <time>2022-11-09T13:31:38Z</time>
      </trkpt>
      <trkpt lat="49.9252" lon="2.16909">
        <ele>26.1</ele>
        <time>2022-11-09T13:31:39Z</time>
      </trkpt>
      <trkpt lat="49.9252" lon="2.16906">
        <ele>26.1</ele>
        <time>2022-11-09T13:31:40Z</time>
      </trkpt>
      <trkpt lat="49.92519" lon="2.16905">
        <ele>26.1</ele>
        <time>2022-11-09T13:31:41Z</time>
      </trkpt>
      <trkpt lat="49.92519" lon="2.16903">
        <ele>26.1</ele>
        <time>2022-11-09T13:31:42Z</time>
      </trkpt>
      <trkpt lat="49.92519" lon="2.16902">
        <ele>26.2</ele>
        <time>2022-11-09T13:31:44Z</time>
      </trkpt>
      <trkpt lat="49.92518" lon="2.169">
        <ele>26.2</ele>
        <time>2022-11-09T13:31:45Z</time>
      </trkpt>
      <trkpt lat="49.92517" lon="2.16899">
        <ele>26.2</ele>
        <time>2022-11-09T13:31:46Z</time>
      </trkpt>
      <trkpt lat="49.92516" lon="2.16896">
        <ele>26.2</ele>
        <time>2022-11-09T13:31:47Z</time>
      </trkpt>
      <trkpt lat="49.92516" lon="2.16894">
        <ele>26.2</ele>
        <time>2022-11-09T13:31:48Z</time>
      </trkpt>
      <trkpt lat="49.92515" lon="2.16893">
        <ele>26.2</ele>
        <time>2022-11-09T13:31:49Z</time>
      </trkpt>
      <trkpt lat="49.92514" lon="2.16891">
        <ele>26.2</ele>
        <time>2022-11-09T13:31:50Z</time>
      </trkpt>
      <trkpt lat="49.92514" lon="2.16889">
        <ele>26.3</ele>
        <time>2022-11-09T13:31:51Z</time>
      </trkpt>
      <trkpt lat="49.92513" lon="2.16887">
        <ele>26.3</ele>
        <time>2022-11-09T13:31:52Z</time>
      </trkpt>
      <trkpt lat="49.92513" lon="2.16885">
        <ele>26.3</ele>
        <time>2022-11-09T13:31:53Z</time>
      </trkpt>
      <trkpt lat="49.92512" lon="2.16883">
        <ele>26.3</ele>
        <time>2022-11-09T13:31:54Z</time>
      </trkpt>
      <trkpt lat="49.92512" lon="2.16881">
        <ele>26.4</ele>
        <time>2022-11-09T13:31:56Z</time>
      </trkpt>
      <trkpt lat="49.92511" lon="2.1688">
        <ele>26.4</ele>
        <time>2022-11-09T13:31:57Z</time>
      </trkpt>
      <trkpt lat="49.92511" lon="2.16879">
        <ele>26.4</ele>
        <time>2022-11-09T13:31:58Z</time>
      </trkpt>
      <trkpt lat="49.9251" lon="2.16877">
        <ele>26.4</ele>
        <time>2022-11-09T13:31:59Z</time>
      </trkpt>
      <trkpt lat="49.9251" lon="2.16876">
        <ele>26.4</ele>
        <time>2022-11-09T13:32:00Z</time>
      </trkpt>
      <trkpt lat="49.92509" lon="2.16874">
        <ele>26.5</ele>
        <time>2022-11-09T13:32:01Z</time>
      </trkpt>
      <trkpt lat="49.92508" lon="2.16872">
        <ele>26.5</ele>
        <time>2022-11-09T13:32:02Z</time>
      </trkpt>
      <trkpt lat="49.92508" lon="2.1687">
        <ele>26.5</ele>
        <time>2022-11-09T13:32:03Z</time>
      </trkpt>
      <trkpt lat="49.92507" lon="2.16868">
        <ele>26.6</ele>
        <time>2022-11-09T13:32:04Z</time>
      </trkpt>
      <trkpt lat="49.92506" lon="2.16867">
        <ele>26.6</ele>
        <time>2022-11-09T13:32:05Z</time>
      </trkpt>
      <trkpt lat="49.92505" lon="2.16865">
        <ele>26.7</ele>
        <time>2022-11-09T13:32:06Z</time>
      </trkpt>
      <trkpt lat="49.92505" lon="2.16864">
        <ele>26.7</ele>
        <time>2022-11-09T13:32:08Z</time>
      </trkpt>
      <trkpt lat="49.92504" lon="2.16862">
        <ele>26.7</ele>
        <time>2022-11-09T13:32:09Z</time>
      </trkpt>
      <trkpt lat="49.92504" lon="2.16861">
        <ele>26.8</ele>
        <time>2022-11-09T13:32:10Z</time>
      </trkpt>
      <trkpt lat="49.92503" lon="2.16859">
        <ele>26.8</ele>
        <time>2022-11-09T13:32:11Z</time>
      </trkpt>
      <trkpt lat="49.92502" lon="2.16856">
        <ele>26.9</ele>
        <time>2022-11-09T13:32:13Z</time>
      </trkpt>
      <trkpt lat="49.92502" lon="2.16855">
        <ele>26.9</ele>
        <time>2022-11-09T13:32:14Z</time>
      </trkpt>
      <trkpt lat="49.92502" lon="2.16854">
        <ele>26.9</ele>
        <time>2022-11-09T13:32:15Z</time>
      </trkpt>
      <trkpt lat="49.92501" lon="2.16852">
        <ele>27</ele>
        <time>2022-11-09T13:32:16Z</time>
      </trkpt>
      <trkpt lat="49.925" lon="2.1685">
        <ele>27</ele>
        <time>2022-11-09T13:32:17Z</time>
      </trkpt>
      <trkpt lat="49.92499" lon="2.16847">
        <ele>27.1</ele>
        <time>2022-11-09T13:32:18Z</time>
      </trkpt>
      <trkpt lat="49.92499" lon="2.16846">
        <ele>27.1</ele>
        <time>2022-11-09T13:32:19Z</time>
      </trkpt>
      <trkpt lat="49.92498" lon="2.16845">
        <ele>27.2</ele>
        <time>2022-11-09T13:32:20Z</time>
      </trkpt>
      <trkpt lat="49.92497" lon="2.16842">
        <ele>27.3</ele>
        <time>2022-11-09T13:32:22Z</time>
      </trkpt>
      <trkpt lat="49.92497" lon="2.16841">
        <ele>27.3</ele>
        <time>2022-11-09T13:32:23Z</time>
      </trkpt>
      <trkpt lat="49.92496" lon="2.1684">
        <ele>27.3</ele>
        <time>2022-11-09T13:32:24Z</time>
      </trkpt>
      <trkpt lat="49.92496" lon="2.16838">
        <ele>27.4</ele>
        <time>2022-11-09T13:32:25Z</time>
      </trkpt>
      <trkpt lat="49.92495" lon="2.16837">
        <ele>27.4</ele>
        <time>2022-11-09T13:32:26Z</time>
      </trkpt>
      <trkpt lat="49.92495" lon="2.16835">
        <ele>27.4</ele>
        <time>2022-11-09T13:32:27Z</time>
      </trkpt>
      <trkpt lat="49.92495" lon="2.16833">
        <ele>27.5</ele>
        <time>2022-11-09T13:32:28Z</time>
      </trkpt>
      <trkpt lat="49.92494" lon="2.16832">
        <ele>27.5</ele>
        <time>2022-11-09T13:32:29Z</time>
      </trkpt>
      <trkpt lat="49.92494" lon="2.1683">
        <ele>27.6</ele>
        <time>2022-11-09T13:32:31Z</time>
      </trkpt>
      <trkpt lat="49.92493" lon="2.16827">
        <ele>27.6</ele>
        <time>2022-11-09T13:32:32Z</time>
      </trkpt>
      <trkpt lat="49.92493" lon="2.16825">
        <ele>27.7</ele>
        <time>2022-11-09T13:32:33Z</time>
      </trkpt>
      <trkpt lat="49.92492" lon="2.16824">
        <ele>27.7</ele>
        <time>2022-11-09T13:32:35Z</time>
      </trkpt>
      <trkpt lat="49.92492" lon="2.16822">
        <ele>27.8</ele>
        <time>2022-11-09T13:32:36Z</time>
      </trkpt>
      <trkpt lat="49.92491" lon="2.16821">
        <ele>27.8</ele>
        <time>2022-11-09T13:32:37Z</time>
      </trkpt>
      <trkpt lat="49.92491" lon="2.16819">
        <ele>27.9</ele>
        <time>2022-11-09T13:32:38Z</time>
      </trkpt>
      <trkpt lat="49.9249" lon="2.16818">
        <ele>27.9</ele>
        <time>2022-11-09T13:32:39Z</time>
      </trkpt>
      <trkpt lat="49.92489" lon="2.16816">
        <ele>28</ele>
        <time>2022-11-09T13:32:40Z</time>
      </trkpt>
      <trkpt lat="49.92489" lon="2.16814">
        <ele>28</ele>
        <time>2022-11-09T13:32:41Z</time>
      </trkpt>
      <trkpt lat="49.92489" lon="2.16813">
        <ele>28.1</ele>
        <time>2022-11-09T13:32:42Z</time>
      </trkpt>
      <trkpt lat="49.92488" lon="2.16811">
        <ele>28.1</ele>
        <time>2022-11-09T13:32:44Z</time>
      </trkpt>
      <trkpt lat="49.92488" lon="2.1681">
        <ele>28.2</ele>
        <time>2022-11-09T13:32:45Z</time>
      </trkpt>
      <trkpt lat="49.92487" lon="2.16808">
        <ele>28.2</ele>
        <time>2022-11-09T13:32:46Z</time>
      </trkpt>
      <trkpt lat="49.92487" lon="2.16807">
        <ele>28.3</ele>
        <time>2022-11-09T13:32:47Z</time>
      </trkpt>
      <trkpt lat="49.92486" lon="2.16805">
        <ele>28.3</ele>
        <time>2022-11-09T13:32:48Z</time>
      </trkpt>
      <trkpt lat="49.92486" lon="2.16803">
        <ele>28.3</ele>
        <time>2022-11-09T13:32:49Z</time>
      </trkpt>
      <trkpt lat="49.92485" lon="2.16802">
        <ele>28.4</ele>
        <time>2022-11-09T13:32:51Z</time>
      </trkpt>
      <trkpt lat="49.92485" lon="2.168">
        <ele>28.4</ele>
        <time>2022-11-09T13:32:52Z</time>
      </trkpt>
      <trkpt lat="49.92485" lon="2.16798">
        <ele>28.5</ele>
        <time>2022-11-09T13:32:53Z</time>
      </trkpt>
      <trkpt lat="49.92484" lon="2.16797">
        <ele>28.5</ele>
        <time>2022-11-09T13:32:54Z</time>
      </trkpt>
      <trkpt lat="49.92484" lon="2.16795">
        <ele>28.6</ele>
        <time>2022-11-09T13:32:55Z</time>
      </trkpt>
      <trkpt lat="49.92483" lon="2.16793">
        <ele>28.7</ele>
        <time>2022-11-09T13:32:56Z</time>
      </trkpt>
      <trkpt lat="49.92483" lon="2.16792">
        <ele>28.7</ele>
        <time>2022-11-09T13:32:57Z</time>
      </trkpt>
      <trkpt lat="49.92483" lon="2.1679">
        <ele>28.8</ele>
        <time>2022-11-09T13:32:59Z</time>
      </trkpt>
      <trkpt lat="49.92482" lon="2.16789">
        <ele>28.8</ele>
        <time>2022-11-09T13:33:00Z</time>
      </trkpt>
      <trkpt lat="49.92482" lon="2.16788">
        <ele>28.9</ele>
        <time>2022-11-09T13:33:01Z</time>
      </trkpt>
      <trkpt lat="49.92481" lon="2.16785">
        <ele>29</ele>
        <time>2022-11-09T13:33:02Z</time>
      </trkpt>
      <trkpt lat="49.92481" lon="2.16783">
        <ele>29</ele>
        <time>2022-11-09T13:33:03Z</time>
      </trkpt>
      <trkpt lat="49.92481" lon="2.16782">
        <ele>29.1</ele>
        <time>2022-11-09T13:33:04Z</time>
      </trkpt>
      <trkpt lat="49.92481" lon="2.1678">
        <ele>29.1</ele>
        <time>2022-11-09T13:33:05Z</time>
      </trkpt>
      <trkpt lat="49.92481" lon="2.16778">
        <ele>29.2</ele>
        <time>2022-11-09T13:33:07Z</time>
      </trkpt>
      <trkpt lat="49.92481" lon="2.16776">
        <ele>29.3</ele>
        <time>2022-11-09T13:33:08Z</time>
      </trkpt>
      <trkpt lat="49.92481" lon="2.16775">
        <ele>29.3</ele>
        <time>2022-11-09T13:33:09Z</time>
      </trkpt>
      <trkpt lat="49.92481" lon="2.16773">
        <ele>29.4</ele>
        <time>2022-11-09T13:33:10Z</time>
      </trkpt>
      <trkpt lat="49.92481" lon="2.16771">
        <ele>29.4</ele>
        <time>2022-11-09T13:33:11Z</time>
      </trkpt>
      <trkpt lat="49.92481" lon="2.16769">
        <ele>29.5</ele>
        <time>2022-11-09T13:33:12Z</time>
      </trkpt>
      <trkpt lat="49.92482" lon="2.16768">
        <ele>29.6</ele>
        <time>2022-11-09T13:33:14Z</time>
      </trkpt>
      <trkpt lat="49.92482" lon="2.16766">
        <ele>29.6</ele>
        <time>2022-11-09T13:33:15Z</time>
      </trkpt>
      <trkpt lat="49.92481" lon="2.16764">
        <ele>29.7</ele>
        <time>2022-11-09T13:33:16Z</time>
      </trkpt>
      <trkpt lat="49.92481" lon="2.16763">
        <ele>29.7</ele>
        <time>2022-11-09T13:33:17Z</time>
      </trkpt>
      <trkpt lat="49.92481" lon="2.16762">
        <ele>29.8</ele>
        <time>2022-11-09T13:33:18Z</time>
      </trkpt>
      <trkpt lat="49.92481" lon="2.1676">
        <ele>29.9</ele>
        <time>2022-11-09T13:33:19Z</time>
      </trkpt>
      <trkpt lat="49.92481" lon="2.16758">
        <ele>29.9</ele>
        <time>2022-11-09T13:33:20Z</time>
      </trkpt>
      <trkpt lat="49.92481" lon="2.16757">
        <ele>30</ele>
        <time>2022-11-09T13:33:21Z</time>
      </trkpt>
      <trkpt lat="49.92481" lon="2.16755">
        <ele>30.1</ele>
        <time>2022-11-09T13:33:22Z</time>
      </trkpt>
      <trkpt lat="49.9248" lon="2.16753">
        <ele>30.1</ele>
        <time>2022-11-09T13:33:23Z</time>
      </trkpt>
      <trkpt lat="49.9248" lon="2.16752">
        <ele>30.2</ele>
        <time>2022-11-09T13:33:24Z</time>
      </trkpt>
      <trkpt lat="49.9248" lon="2.1675">
        <ele>30.3</ele>
        <time>2022-11-09T13:33:26Z</time>
      </trkpt>
      <trkpt lat="49.9248" lon="2.16749">
        <ele>30.3</ele>
        <time>2022-11-09T13:33:27Z</time>
      </trkpt>
      <trkpt lat="49.9248" lon="2.16749">
        <ele>30.3</ele>
        <time>2022-11-09T13:33:28Z</time>
      </trkpt>
      <trkpt lat="49.92481" lon="2.1675">
        <ele>30.4</ele>
        <time>2022-11-09T13:33:29Z</time>
      </trkpt>
      <trkpt lat="49.92481" lon="2.16751">
        <ele>30.4</ele>
        <time>2022-11-09T13:33:30Z</time>
      </trkpt>
      <trkpt lat="49.92481" lon="2.16751">
        <ele>30.5</ele>
        <time>2022-11-09T13:33:31Z</time>
      </trkpt>
      <trkpt lat="49.92481" lon="2.16752">
        <ele>30.5</ele>
        <time>2022-11-09T13:33:32Z</time>
      </trkpt>
      <trkpt lat="49.92481" lon="2.16752">
        <ele>30.5</ele>
        <time>2022-11-09T13:33:33Z</time>
      </trkpt>
      <trkpt lat="49.92481" lon="2.16752">
        <ele>30.5</ele>
        <time>2022-11-09T13:33:34Z</time>
      </trkpt>
      <trkpt lat="49.92481" lon="2.16752">
        <ele>30.5</ele>
        <time>2022-11-09T13:33:35Z</time>
      </trkpt>
      <trkpt lat="49.92481" lon="2.16752">
        <ele>30.5</ele>
        <time>2022-11-09T13:33:36Z</time>
      </trkpt>
      <trkpt lat="49.92481" lon="2.16753">
        <ele>30.5</ele>
        <time>2022-11-09T13:33:37Z</time>
      </trkpt>
      <trkpt lat="49.92481" lon="2.16753">
        <ele>30.5</ele>
        <time>2022-11-09T13:33:38Z</time>
      </trkpt>
      <trkpt lat="49.92481" lon="2.16753">
        <ele>30.5</ele>
        <time>2022-11-09T13:33:39Z</time>
      </trkpt>
      <trkpt lat="49.92481" lon="2.16753">
        <ele>30.5</ele>
        <time>2022-11-09T13:33:40Z</time>
      </trkpt>
      <trkpt lat="49.92481" lon="2.16753">
        <ele>30.5</ele>
        <time>2022-11-09T13:33:41Z</time>
      </trkpt>
      <trkpt lat="49.92481" lon="2.16753">
        <ele>30.6</ele>
        <time>2022-11-09T13:33:42Z</time>
      </trkpt>
      <trkpt lat="49.92481" lon="2.16753">
        <ele>30.6</ele>
        <time>2022-11-09T13:33:43Z</time>
      </trkpt>
      <trkpt lat="49.92481" lon="2.16753">
        <ele>30.6</ele>
        <time>2022-11-09T13:33:44Z</time>
      </trkpt>
      <trkpt lat="49.92481" lon="2.16753">
        <ele>30.6</ele>
        <time>2022-11-09T13:33:45Z</time>
      </trkpt>
      <trkpt lat="49.92481" lon="2.16753">
        <ele>30.6</ele>
        <time>2022-11-09T13:33:46Z</time>
      </trkpt>
      <trkpt lat="49.9248" lon="2.16753">
        <ele>30.6</ele>
        <time>2022-11-09T13:33:47Z</time>
      </trkpt>
      <trkpt lat="49.9248" lon="2.16753">
        <ele>30.6</ele>
        <time>2022-11-09T13:33:48Z</time>
      </trkpt>
      <trkpt lat="49.9248" lon="2.16753">
        <ele>30.6</ele>
        <time>2022-11-09T13:33:49Z</time>
      </trkpt>
      <trkpt lat="49.9248" lon="2.16753">
        <ele>30.6</ele>
        <time>2022-11-09T13:33:50Z</time>
      </trkpt>
      <trkpt lat="49.9248" lon="2.16753">
        <ele>30.6</ele>
        <time>2022-11-09T13:33:51Z</time>
      </trkpt>
      <trkpt lat="49.9248" lon="2.16753">
        <ele>30.6</ele>
        <time>2022-11-09T13:33:52Z</time>
      </trkpt>
      <trkpt lat="49.9248" lon="2.16753">
        <ele>30.6</ele>
        <time>2022-11-09T13:33:53Z</time>
      </trkpt>
      <trkpt lat="49.92481" lon="2.16753">
        <ele>30.6</ele>
        <time>2022-11-09T13:33:54Z</time>
      </trkpt>
      <trkpt lat="49.92481" lon="2.16753">
        <ele>30.7</ele>
        <time>2022-11-09T13:33:55Z</time>
      </trkpt>
      <trkpt lat="49.92481" lon="2.16752">
        <ele>30.7</ele>
        <time>2022-11-09T13:33:56Z</time>
      </trkpt>
      <trkpt lat="49.92481" lon="2.16751">
        <ele>30.7</ele>
        <time>2022-11-09T13:33:57Z</time>
      </trkpt>
      <trkpt lat="49.92481" lon="2.16749">
        <ele>30.8</ele>
        <time>2022-11-09T13:33:58Z</time>
      </trkpt>
      <trkpt lat="49.92481" lon="2.16747">
        <ele>30.9</ele>
        <time>2022-11-09T13:33:59Z</time>
      </trkpt>
      <trkpt lat="49.92481" lon="2.16746">
        <ele>30.9</ele>
        <time>2022-11-09T13:34:01Z</time>
      </trkpt>
      <trkpt lat="49.92481" lon="2.16744">
        <ele>31</ele>
        <time>2022-11-09T13:34:02Z</time>
      </trkpt>
      <trkpt lat="49.92481" lon="2.16742">
        <ele>31.1</ele>
        <time>2022-11-09T13:34:03Z</time>
      </trkpt>
      <trkpt lat="49.9248" lon="2.16739">
        <ele>31.2</ele>
        <time>2022-11-09T13:34:04Z</time>
      </trkpt>
      <trkpt lat="49.9248" lon="2.16738">
        <ele>31.3</ele>
        <time>2022-11-09T13:34:05Z</time>
      </trkpt>
      <trkpt lat="49.9248" lon="2.16736">
        <ele>31.3</ele>
        <time>2022-11-09T13:34:06Z</time>
      </trkpt>
      <trkpt lat="49.92479" lon="2.16733">
        <ele>31.5</ele>
        <time>2022-11-09T13:34:08Z</time>
      </trkpt>
      <trkpt lat="49.92479" lon="2.16732">
        <ele>31.5</ele>
        <time>2022-11-09T13:34:09Z</time>
      </trkpt>
      <trkpt lat="49.92479" lon="2.16731">
        <ele>31.6</ele>
        <time>2022-11-09T13:34:10Z</time>
      </trkpt>
      <trkpt lat="49.92478" lon="2.16727">
        <ele>31.8</ele>
        <time>2022-11-09T13:34:11Z</time>
      </trkpt>
      <trkpt lat="49.92478" lon="2.16726">
        <ele>31.8</ele>
        <time>2022-11-09T13:34:13Z</time>
      </trkpt>
      <trkpt lat="49.92477" lon="2.16725">
        <ele>31.9</ele>
        <time>2022-11-09T13:34:14Z</time>
      </trkpt>
      <trkpt lat="49.92476" lon="2.16723">
        <ele>32</ele>
        <time>2022-11-09T13:34:15Z</time>
      </trkpt>
      <trkpt lat="49.92475" lon="2.16721">
        <ele>32.1</ele>
        <time>2022-11-09T13:34:16Z</time>
      </trkpt>
      <trkpt lat="49.92475" lon="2.16719">
        <ele>32.2</ele>
        <time>2022-11-09T13:34:18Z</time>
      </trkpt>
      <trkpt lat="49.92474" lon="2.16717">
        <ele>32.3</ele>
        <time>2022-11-09T13:34:19Z</time>
      </trkpt>
      <trkpt lat="49.92473" lon="2.16714">
        <ele>32.5</ele>
        <time>2022-11-09T13:34:20Z</time>
      </trkpt>
      <trkpt lat="49.92473" lon="2.16713">
        <ele>32.6</ele>
        <time>2022-11-09T13:34:21Z</time>
      </trkpt>
      <trkpt lat="49.92473" lon="2.16712">
        <ele>32.6</ele>
        <time>2022-11-09T13:34:22Z</time>
      </trkpt>
      <trkpt lat="49.92472" lon="2.16709">
        <ele>32.8</ele>
        <time>2022-11-09T13:34:23Z</time>
      </trkpt>
      <trkpt lat="49.92472" lon="2.16707">
        <ele>32.9</ele>
        <time>2022-11-09T13:34:24Z</time>
      </trkpt>
      <trkpt lat="49.92471" lon="2.16706">
        <ele>33</ele>
        <time>2022-11-09T13:34:26Z</time>
      </trkpt>
      <trkpt lat="49.92471" lon="2.16704">
        <ele>33.1</ele>
        <time>2022-11-09T13:34:27Z</time>
      </trkpt>
      <trkpt lat="49.92471" lon="2.16703">
        <ele>33.1</ele>
        <time>2022-11-09T13:34:28Z</time>
      </trkpt>
      <trkpt lat="49.92471" lon="2.16701">
        <ele>33.2</ele>
        <time>2022-11-09T13:34:29Z</time>
      </trkpt>
      <trkpt lat="49.92471" lon="2.167">
        <ele>33.3</ele>
        <time>2022-11-09T13:34:31Z</time>
      </trkpt>
      <trkpt lat="49.92471" lon="2.16698">
        <ele>33.4</ele>
        <time>2022-11-09T13:34:32Z</time>
      </trkpt>
      <trkpt lat="49.92471" lon="2.16697">
        <ele>33.5</ele>
        <time>2022-11-09T13:34:33Z</time>
      </trkpt>
      <trkpt lat="49.92472" lon="2.16695">
        <ele>33.6</ele>
        <time>2022-11-09T13:34:34Z</time>
      </trkpt>
      <trkpt lat="49.92472" lon="2.16693">
        <ele>33.7</ele>
        <time>2022-11-09T13:34:35Z</time>
      </trkpt>
      <trkpt lat="49.92472" lon="2.16691">
        <ele>33.9</ele>
        <time>2022-11-09T13:34:37Z</time>
      </trkpt>
      <trkpt lat="49.92472" lon="2.16688">
        <ele>34</ele>
        <time>2022-11-09T13:34:38Z</time>
      </trkpt>
      <trkpt lat="49.92472" lon="2.16686">
        <ele>34.2</ele>
        <time>2022-11-09T13:34:39Z</time>
      </trkpt>
      <trkpt lat="49.92472" lon="2.16683">
        <ele>34.3</ele>
        <time>2022-11-09T13:34:40Z</time>
      </trkpt>
      <trkpt lat="49.92472" lon="2.16681">
        <ele>34.4</ele>
        <time>2022-11-09T13:34:42Z</time>
      </trkpt>
      <trkpt lat="49.92472" lon="2.16679">
        <ele>34.6</ele>
        <time>2022-11-09T13:34:43Z</time>
      </trkpt>
      <trkpt lat="49.92471" lon="2.16676">
        <ele>34.8</ele>
        <time>2022-11-09T13:34:44Z</time>
      </trkpt>
      <trkpt lat="49.92471" lon="2.16674">
        <ele>34.9</ele>
        <time>2022-11-09T13:34:45Z</time>
      </trkpt>
      <trkpt lat="49.92471" lon="2.16672">
        <ele>35.1</ele>
        <time>2022-11-09T13:34:47Z</time>
      </trkpt>
      <trkpt lat="49.92471" lon="2.16669">
        <ele>35.2</ele>
        <time>2022-11-09T13:34:48Z</time>
      </trkpt>
      <trkpt lat="49.92471" lon="2.16667">
        <ele>35.4</ele>
        <time>2022-11-09T13:34:49Z</time>
      </trkpt>
      <trkpt lat="49.92471" lon="2.16665">
        <ele>35.5</ele>
        <time>2022-11-09T13:34:50Z</time>
      </trkpt>
      <trkpt lat="49.92472" lon="2.16664">
        <ele>35.6</ele>
        <time>2022-11-09T13:34:51Z</time>
      </trkpt>
      <trkpt lat="49.92472" lon="2.16662">
        <ele>35.7</ele>
        <time>2022-11-09T13:34:53Z</time>
      </trkpt>
      <trkpt lat="49.92472" lon="2.1666">
        <ele>35.8</ele>
        <time>2022-11-09T13:34:54Z</time>
      </trkpt>
      <trkpt lat="49.92472" lon="2.16659">
        <ele>35.9</ele>
        <time>2022-11-09T13:34:55Z</time>
      </trkpt>
      <trkpt lat="49.92473" lon="2.16658">
        <ele>36</ele>
        <time>2022-11-09T13:34:56Z</time>
      </trkpt>
      <trkpt lat="49.92473" lon="2.16655">
        <ele>36.2</ele>
        <time>2022-11-09T13:34:57Z</time>
      </trkpt>
      <trkpt lat="49.92473" lon="2.16654">
        <ele>36.2</ele>
        <time>2022-11-09T13:34:58Z</time>
      </trkpt>
      <trkpt lat="49.92473" lon="2.16653">
        <ele>36.3</ele>
        <time>2022-11-09T13:34:59Z</time>
      </trkpt>
      <trkpt lat="49.92473" lon="2.16652">
        <ele>36.4</ele>
        <time>2022-11-09T13:35:00Z</time>
      </trkpt>
      <trkpt lat="49.92473" lon="2.16651">
        <ele>36.5</ele>
        <time>2022-11-09T13:35:01Z</time>
      </trkpt>
      <trkpt lat="49.92473" lon="2.16649">
        <ele>36.6</ele>
        <time>2022-11-09T13:35:02Z</time>
      </trkpt>
      <trkpt lat="49.92473" lon="2.16648">
        <ele>36.7</ele>
        <time>2022-11-09T13:35:04Z</time>
      </trkpt>
      <trkpt lat="49.92474" lon="2.16647">
        <ele>36.8</ele>
        <time>2022-11-09T13:35:05Z</time>
      </trkpt>
      <trkpt lat="49.92474" lon="2.16646">
        <ele>36.8</ele>
        <time>2022-11-09T13:35:06Z</time>
      </trkpt>
      <trkpt lat="49.92475" lon="2.16645">
        <ele>36.9</ele>
        <time>2022-11-09T13:35:07Z</time>
      </trkpt>
      <trkpt lat="49.92475" lon="2.16643">
        <ele>37</ele>
        <time>2022-11-09T13:35:08Z</time>
      </trkpt>
      <trkpt lat="49.92476" lon="2.16641">
        <ele>37.1</ele>
        <time>2022-11-09T13:35:10Z</time>
      </trkpt>
      <trkpt lat="49.92476" lon="2.1664">
        <ele>37.3</ele>
        <time>2022-11-09T13:35:11Z</time>
      </trkpt>
      <trkpt lat="49.92477" lon="2.16638">
        <ele>37.4</ele>
        <time>2022-11-09T13:35:12Z</time>
      </trkpt>
      <trkpt lat="49.92477" lon="2.16636">
        <ele>37.5</ele>
        <time>2022-11-09T13:35:13Z</time>
      </trkpt>
      <trkpt lat="49.92478" lon="2.16635">
        <ele>37.6</ele>
        <time>2022-11-09T13:35:14Z</time>
      </trkpt>
      <trkpt lat="49.92478" lon="2.16634">
        <ele>37.7</ele>
        <time>2022-11-09T13:35:16Z</time>
      </trkpt>
      <trkpt lat="49.92479" lon="2.16632">
        <ele>37.8</ele>
        <time>2022-11-09T13:35:17Z</time>
      </trkpt>
      <trkpt lat="49.92479" lon="2.16631">
        <ele>37.9</ele>
        <time>2022-11-09T13:35:18Z</time>
      </trkpt>
      <trkpt lat="49.9248" lon="2.16629">
        <ele>38</ele>
        <time>2022-11-09T13:35:19Z</time>
      </trkpt>
      <trkpt lat="49.9248" lon="2.16628">
        <ele>38.1</ele>
        <time>2022-11-09T13:35:21Z</time>
      </trkpt>
      <trkpt lat="49.92481" lon="2.16626">
        <ele>38.2</ele>
        <time>2022-11-09T13:35:22Z</time>
      </trkpt>
      <trkpt lat="49.92481" lon="2.16625">
        <ele>38.2</ele>
        <time>2022-11-09T13:35:23Z</time>
      </trkpt>
      <trkpt lat="49.92482" lon="2.16624">
        <ele>38.3</ele>
        <time>2022-11-09T13:35:24Z</time>
      </trkpt>
      <trkpt lat="49.92482" lon="2.16623">
        <ele>38.4</ele>
        <time>2022-11-09T13:35:25Z</time>
      </trkpt>
      <trkpt lat="49.92482" lon="2.16621">
        <ele>38.5</ele>
        <time>2022-11-09T13:35:26Z</time>
      </trkpt>
      <trkpt lat="49.92483" lon="2.1662">
        <ele>38.6</ele>
        <time>2022-11-09T13:35:27Z</time>
      </trkpt>
      <trkpt lat="49.92483" lon="2.16619">
        <ele>38.7</ele>
        <time>2022-11-09T13:35:29Z</time>
      </trkpt>
      <trkpt lat="49.92484" lon="2.16618">
        <ele>38.7</ele>
        <time>2022-11-09T13:35:30Z</time>
      </trkpt>
      <trkpt lat="49.92484" lon="2.16617">
        <ele>38.8</ele>
        <time>2022-11-09T13:35:31Z</time>
      </trkpt>
      <trkpt lat="49.92484" lon="2.16616">
        <ele>38.9</ele>
        <time>2022-11-09T13:35:32Z</time>
      </trkpt>
      <trkpt lat="49.92485" lon="2.16615">
        <ele>39</ele>
        <time>2022-11-09T13:35:33Z</time>
      </trkpt>
      <trkpt lat="49.92485" lon="2.16613">
        <ele>39</ele>
        <time>2022-11-09T13:35:34Z</time>
      </trkpt>
      <trkpt lat="49.92486" lon="2.16612">
        <ele>39.1</ele>
        <time>2022-11-09T13:35:35Z</time>
      </trkpt>
      <trkpt lat="49.92486" lon="2.16611">
        <ele>39.2</ele>
        <time>2022-11-09T13:35:37Z</time>
      </trkpt>
      <trkpt lat="49.92486" lon="2.1661">
        <ele>39.3</ele>
        <time>2022-11-09T13:35:38Z</time>
      </trkpt>
      <trkpt lat="49.92487" lon="2.16609">
        <ele>39.3</ele>
        <time>2022-11-09T13:35:39Z</time>
      </trkpt>
      <trkpt lat="49.92487" lon="2.16607">
        <ele>39.4</ele>
        <time>2022-11-09T13:35:40Z</time>
      </trkpt>
      <trkpt lat="49.92487" lon="2.16606">
        <ele>39.5</ele>
        <time>2022-11-09T13:35:42Z</time>
      </trkpt>
      <trkpt lat="49.92488" lon="2.16605">
        <ele>39.6</ele>
        <time>2022-11-09T13:35:43Z</time>
      </trkpt>
      <trkpt lat="49.92488" lon="2.16603">
        <ele>39.7</ele>
        <time>2022-11-09T13:35:44Z</time>
      </trkpt>
      <trkpt lat="49.92489" lon="2.16601">
        <ele>39.9</ele>
        <time>2022-11-09T13:35:45Z</time>
      </trkpt>
      <trkpt lat="49.9249" lon="2.16599">
        <ele>39.9</ele>
        <time>2022-11-09T13:35:46Z</time>
      </trkpt>
      <trkpt lat="49.9249" lon="2.16598">
        <ele>40</ele>
        <time>2022-11-09T13:35:48Z</time>
      </trkpt>
      <trkpt lat="49.9249" lon="2.16597">
        <ele>40.1</ele>
        <time>2022-11-09T13:35:49Z</time>
      </trkpt>
      <trkpt lat="49.92491" lon="2.16596">
        <ele>40.1</ele>
        <time>2022-11-09T13:35:50Z</time>
      </trkpt>
      <trkpt lat="49.92491" lon="2.16595">
        <ele>40.2</ele>
        <time>2022-11-09T13:35:51Z</time>
      </trkpt>
      <trkpt lat="49.92491" lon="2.16594">
        <ele>40.3</ele>
        <time>2022-11-09T13:35:52Z</time>
      </trkpt>
      <trkpt lat="49.92492" lon="2.16592">
        <ele>40.4</ele>
        <time>2022-11-09T13:35:53Z</time>
      </trkpt>
      <trkpt lat="49.92492" lon="2.1659">
        <ele>40.5</ele>
        <time>2022-11-09T13:35:55Z</time>
      </trkpt>
      <trkpt lat="49.92492" lon="2.16589">
        <ele>40.6</ele>
        <time>2022-11-09T13:35:56Z</time>
      </trkpt>
      <trkpt lat="49.92492" lon="2.16586">
        <ele>40.7</ele>
        <time>2022-11-09T13:35:57Z</time>
      </trkpt>
      <trkpt lat="49.92492" lon="2.16585">
        <ele>40.9</ele>
        <time>2022-11-09T13:35:58Z</time>
      </trkpt>
      <trkpt lat="49.92493" lon="2.16582">
        <ele>41</ele>
        <time>2022-11-09T13:36:00Z</time>
      </trkpt>
      <trkpt lat="49.92494" lon="2.16581">
        <ele>41.1</ele>
        <time>2022-11-09T13:36:01Z</time>
      </trkpt>
      <trkpt lat="49.92494" lon="2.16578">
        <ele>41.3</ele>
        <time>2022-11-09T13:36:02Z</time>
      </trkpt>
      <trkpt lat="49.92495" lon="2.16577">
        <ele>41.4</ele>
        <time>2022-11-09T13:36:04Z</time>
      </trkpt>
      <trkpt lat="49.92495" lon="2.16575">
        <ele>41.5</ele>
        <time>2022-11-09T13:36:05Z</time>
      </trkpt>
      <trkpt lat="49.92496" lon="2.16574">
        <ele>41.6</ele>
        <time>2022-11-09T13:36:06Z</time>
      </trkpt>
      <trkpt lat="49.92496" lon="2.16572">
        <ele>41.7</ele>
        <time>2022-11-09T13:36:07Z</time>
      </trkpt>
      <trkpt lat="49.92497" lon="2.16571">
        <ele>41.8</ele>
        <time>2022-11-09T13:36:09Z</time>
      </trkpt>
      <trkpt lat="49.92497" lon="2.1657">
        <ele>41.9</ele>
        <time>2022-11-09T13:36:10Z</time>
      </trkpt>
      <trkpt lat="49.92498" lon="2.16568">
        <ele>42</ele>
        <time>2022-11-09T13:36:11Z</time>
      </trkpt>
      <trkpt lat="49.92498" lon="2.16567">
        <ele>42.1</ele>
        <time>2022-11-09T13:36:12Z</time>
      </trkpt>
      <trkpt lat="49.92499" lon="2.16565">
        <ele>42.3</ele>
        <time>2022-11-09T13:36:14Z</time>
      </trkpt>
      <trkpt lat="49.92499" lon="2.16564">
        <ele>42.3</ele>
        <time>2022-11-09T13:36:15Z</time>
      </trkpt>
      <trkpt lat="49.925" lon="2.16563">
        <ele>42.4</ele>
        <time>2022-11-09T13:36:16Z</time>
      </trkpt>
      <trkpt lat="49.925" lon="2.16562">
        <ele>42.5</ele>
        <time>2022-11-09T13:36:17Z</time>
      </trkpt>
      <trkpt lat="49.925" lon="2.16559">
        <ele>42.6</ele>
        <time>2022-11-09T13:36:18Z</time>
      </trkpt>
      <trkpt lat="49.925" lon="2.16557">
        <ele>42.8</ele>
        <time>2022-11-09T13:36:19Z</time>
      </trkpt>
      <trkpt lat="49.925" lon="2.16555">
        <ele>43</ele>
        <time>2022-11-09T13:36:21Z</time>
      </trkpt>
      <trkpt lat="49.925" lon="2.16552">
        <ele>43.1</ele>
        <time>2022-11-09T13:36:22Z</time>
      </trkpt>
      <trkpt lat="49.92501" lon="2.16549">
        <ele>43.4</ele>
        <time>2022-11-09T13:36:23Z</time>
      </trkpt>
      <trkpt lat="49.92501" lon="2.16547">
        <ele>43.5</ele>
        <time>2022-11-09T13:36:24Z</time>
      </trkpt>
      <trkpt lat="49.92501" lon="2.16545">
        <ele>43.6</ele>
        <time>2022-11-09T13:36:25Z</time>
      </trkpt>
      <trkpt lat="49.92501" lon="2.16543">
        <ele>43.8</ele>
        <time>2022-11-09T13:36:26Z</time>
      </trkpt>
      <trkpt lat="49.92501" lon="2.16541">
        <ele>43.9</ele>
        <time>2022-11-09T13:36:28Z</time>
      </trkpt>
      <trkpt lat="49.92502" lon="2.16539">
        <ele>44</ele>
        <time>2022-11-09T13:36:29Z</time>
      </trkpt>
      <trkpt lat="49.92503" lon="2.16537">
        <ele>44.2</ele>
        <time>2022-11-09T13:36:30Z</time>
      </trkpt>
      <trkpt lat="49.92504" lon="2.16535">
        <ele>44.3</ele>
        <time>2022-11-09T13:36:32Z</time>
      </trkpt>
      <trkpt lat="49.92505" lon="2.16533">
        <ele>44.5</ele>
        <time>2022-11-09T13:36:33Z</time>
      </trkpt>
      <trkpt lat="49.92505" lon="2.16532">
        <ele>44.6</ele>
        <time>2022-11-09T13:36:34Z</time>
      </trkpt>
      <trkpt lat="49.92506" lon="2.1653">
        <ele>44.7</ele>
        <time>2022-11-09T13:36:35Z</time>
      </trkpt>
      <trkpt lat="49.92507" lon="2.16528">
        <ele>44.9</ele>
        <time>2022-11-09T13:36:37Z</time>
      </trkpt>
      <trkpt lat="49.92508" lon="2.16527">
        <ele>45</ele>
        <time>2022-11-09T13:36:38Z</time>
      </trkpt>
      <trkpt lat="49.92508" lon="2.16526">
        <ele>45.1</ele>
        <time>2022-11-09T13:36:39Z</time>
      </trkpt>
      <trkpt lat="49.92509" lon="2.16525">
        <ele>45.2</ele>
        <time>2022-11-09T13:36:41Z</time>
      </trkpt>
      <trkpt lat="49.9251" lon="2.16524">
        <ele>45.3</ele>
        <time>2022-11-09T13:36:42Z</time>
      </trkpt>
      <trkpt lat="49.9251" lon="2.16522">
        <ele>45.4</ele>
        <time>2022-11-09T13:36:43Z</time>
      </trkpt>
      <trkpt lat="49.92511" lon="2.16521">
        <ele>45.5</ele>
        <time>2022-11-09T13:36:45Z</time>
      </trkpt>
      <trkpt lat="49.92511" lon="2.1652">
        <ele>45.6</ele>
        <time>2022-11-09T13:36:46Z</time>
      </trkpt>
      <trkpt lat="49.92511" lon="2.16518">
        <ele>45.7</ele>
        <time>2022-11-09T13:36:47Z</time>
      </trkpt>
      <trkpt lat="49.92512" lon="2.16517">
        <ele>45.8</ele>
        <time>2022-11-09T13:36:49Z</time>
      </trkpt>
      <trkpt lat="49.92512" lon="2.16516">
        <ele>45.9</ele>
        <time>2022-11-09T13:36:50Z</time>
      </trkpt>
      <trkpt lat="49.92513" lon="2.16514">
        <ele>46</ele>
        <time>2022-11-09T13:36:51Z</time>
      </trkpt>
      <trkpt lat="49.92513" lon="2.16513">
        <ele>46.1</ele>
        <time>2022-11-09T13:36:53Z</time>
      </trkpt>
      <trkpt lat="49.92513" lon="2.16512">
        <ele>46.1</ele>
        <time>2022-11-09T13:36:54Z</time>
      </trkpt>
      <trkpt lat="49.92514" lon="2.16511">
        <ele>46.2</ele>
        <time>2022-11-09T13:36:55Z</time>
      </trkpt>
      <trkpt lat="49.92514" lon="2.1651">
        <ele>46.3</ele>
        <time>2022-11-09T13:36:56Z</time>
      </trkpt>
      <trkpt lat="49.92515" lon="2.16509">
        <ele>46.3</ele>
        <time>2022-11-09T13:36:58Z</time>
      </trkpt>
      <trkpt lat="49.92515" lon="2.16508">
        <ele>46.4</ele>
        <time>2022-11-09T13:36:59Z</time>
      </trkpt>
      <trkpt lat="49.92516" lon="2.16508">
        <ele>46.5</ele>
        <time>2022-11-09T13:37:01Z</time>
      </trkpt>
      <trkpt lat="49.92516" lon="2.16507">
        <ele>46.5</ele>
        <time>2022-11-09T13:37:02Z</time>
      </trkpt>
      <trkpt lat="49.92516" lon="2.16507">
        <ele>46.6</ele>
        <time>2022-11-09T13:37:03Z</time>
      </trkpt>
      <trkpt lat="49.92516" lon="2.16505">
        <ele>46.7</ele>
        <time>2022-11-09T13:37:04Z</time>
      </trkpt>
      <trkpt lat="49.92516" lon="2.16504">
        <ele>46.8</ele>
        <time>2022-11-09T13:37:06Z</time>
      </trkpt>
      <trkpt lat="49.92516" lon="2.16502">
        <ele>46.9</ele>
        <time>2022-11-09T13:37:07Z</time>
      </trkpt>
      <trkpt lat="49.92516" lon="2.16501">
        <ele>46.9</ele>
        <time>2022-11-09T13:37:08Z</time>
      </trkpt>
      <trkpt lat="49.92516" lon="2.165">
        <ele>47</ele>
        <time>2022-11-09T13:37:09Z</time>
      </trkpt>
      <trkpt lat="49.92516" lon="2.16498">
        <ele>47.1</ele>
        <time>2022-11-09T13:37:10Z</time>
      </trkpt>
      <trkpt lat="49.92517" lon="2.16496">
        <ele>47.3</ele>
        <time>2022-11-09T13:37:12Z</time>
      </trkpt>
      <trkpt lat="49.92516" lon="2.16493">
        <ele>47.5</ele>
        <time>2022-11-09T13:37:13Z</time>
      </trkpt>
      <trkpt lat="49.92516" lon="2.16491">
        <ele>47.6</ele>
        <time>2022-11-09T13:37:14Z</time>
      </trkpt>
      <trkpt lat="49.92516" lon="2.16489">
        <ele>47.7</ele>
        <time>2022-11-09T13:37:16Z</time>
      </trkpt>
      <trkpt lat="49.92517" lon="2.16487">
        <ele>47.9</ele>
        <time>2022-11-09T13:37:17Z</time>
      </trkpt>
      <trkpt lat="49.92517" lon="2.16485">
        <ele>48</ele>
        <time>2022-11-09T13:37:18Z</time>
      </trkpt>
      <trkpt lat="49.92518" lon="2.16483">
        <ele>48.1</ele>
        <time>2022-11-09T13:37:19Z</time>
      </trkpt>
      <trkpt lat="49.92518" lon="2.16482">
        <ele>48.2</ele>
        <time>2022-11-09T13:37:21Z</time>
      </trkpt>
      <trkpt lat="49.92519" lon="2.16481">
        <ele>48.4</ele>
        <time>2022-11-09T13:37:22Z</time>
      </trkpt>
      <trkpt lat="49.9252" lon="2.16479">
        <ele>48.5</ele>
        <time>2022-11-09T13:37:23Z</time>
      </trkpt>
      <trkpt lat="49.92521" lon="2.16478">
        <ele>48.6</ele>
        <time>2022-11-09T13:37:25Z</time>
      </trkpt>
      <trkpt lat="49.92522" lon="2.16477">
        <ele>48.7</ele>
        <time>2022-11-09T13:37:26Z</time>
      </trkpt>
      <trkpt lat="49.92522" lon="2.16476">
        <ele>48.8</ele>
        <time>2022-11-09T13:37:27Z</time>
      </trkpt>
      <trkpt lat="49.92523" lon="2.16474">
        <ele>49</ele>
        <time>2022-11-09T13:37:29Z</time>
      </trkpt>
      <trkpt lat="49.92524" lon="2.16473">
        <ele>49.1</ele>
        <time>2022-11-09T13:37:30Z</time>
      </trkpt>
      <trkpt lat="49.92524" lon="2.16472">
        <ele>49.2</ele>
        <time>2022-11-09T13:37:31Z</time>
      </trkpt>
      <trkpt lat="49.92525" lon="2.16471">
        <ele>49.3</ele>
        <time>2022-11-09T13:37:32Z</time>
      </trkpt>
      <trkpt lat="49.92526" lon="2.16469">
        <ele>49.4</ele>
        <time>2022-11-09T13:37:34Z</time>
      </trkpt>
      <trkpt lat="49.92526" lon="2.16468">
        <ele>49.5</ele>
        <time>2022-11-09T13:37:35Z</time>
      </trkpt>
      <trkpt lat="49.92527" lon="2.16467">
        <ele>49.6</ele>
        <time>2022-11-09T13:37:36Z</time>
      </trkpt>
      <trkpt lat="49.92527" lon="2.16466">
        <ele>49.7</ele>
        <time>2022-11-09T13:37:37Z</time>
      </trkpt>
      <trkpt lat="49.92528" lon="2.16464">
        <ele>49.8</ele>
        <time>2022-11-09T13:37:38Z</time>
      </trkpt>
      <trkpt lat="49.92529" lon="2.16462">
        <ele>50</ele>
        <time>2022-11-09T13:37:39Z</time>
      </trkpt>
      <trkpt lat="49.92529" lon="2.16461">
        <ele>50.1</ele>
        <time>2022-11-09T13:37:41Z</time>
      </trkpt>
      <trkpt lat="49.9253" lon="2.1646">
        <ele>50.1</ele>
        <time>2022-11-09T13:37:42Z</time>
      </trkpt>
      <trkpt lat="49.9253" lon="2.1646">
        <ele>50.2</ele>
        <time>2022-11-09T13:37:43Z</time>
      </trkpt>
      <trkpt lat="49.92531" lon="2.16458">
        <ele>50.3</ele>
        <time>2022-11-09T13:37:44Z</time>
      </trkpt>
      <trkpt lat="49.92531" lon="2.16457">
        <ele>50.4</ele>
        <time>2022-11-09T13:37:46Z</time>
      </trkpt>
      <trkpt lat="49.92532" lon="2.16456">
        <ele>50.5</ele>
        <time>2022-11-09T13:37:47Z</time>
      </trkpt>
      <trkpt lat="49.92532" lon="2.16455">
        <ele>50.6</ele>
        <time>2022-11-09T13:37:48Z</time>
      </trkpt>
      <trkpt lat="49.92533" lon="2.16455">
        <ele>50.7</ele>
        <time>2022-11-09T13:37:49Z</time>
      </trkpt>
      <trkpt lat="49.92533" lon="2.16454">
        <ele>50.7</ele>
        <time>2022-11-09T13:37:50Z</time>
      </trkpt>
      <trkpt lat="49.92534" lon="2.16453">
        <ele>50.8</ele>
        <time>2022-11-09T13:37:51Z</time>
      </trkpt>
      <trkpt lat="49.92535" lon="2.16452">
        <ele>50.9</ele>
        <time>2022-11-09T13:37:53Z</time>
      </trkpt>
      <trkpt lat="49.92536" lon="2.16452">
        <ele>51</ele>
        <time>2022-11-09T13:37:54Z</time>
      </trkpt>
      <trkpt lat="49.92536" lon="2.16451">
        <ele>51.1</ele>
        <time>2022-11-09T13:37:55Z</time>
      </trkpt>
      <trkpt lat="49.92537" lon="2.1645">
        <ele>51.2</ele>
        <time>2022-11-09T13:37:57Z</time>
      </trkpt>
      <trkpt lat="49.92538" lon="2.16449">
        <ele>51.4</ele>
        <time>2022-11-09T13:37:58Z</time>
      </trkpt>
      <trkpt lat="49.9254" lon="2.16447">
        <ele>51.6</ele>
        <time>2022-11-09T13:37:59Z</time>
      </trkpt>
      <trkpt lat="49.92541" lon="2.16447">
        <ele>51.7</ele>
        <time>2022-11-09T13:38:01Z</time>
      </trkpt>
      <trkpt lat="49.92541" lon="2.16446">
        <ele>51.8</ele>
        <time>2022-11-09T13:38:02Z</time>
      </trkpt>
      <trkpt lat="49.92542" lon="2.16445">
        <ele>51.9</ele>
        <time>2022-11-09T13:38:03Z</time>
      </trkpt>
      <trkpt lat="49.92543" lon="2.16444">
        <ele>52.1</ele>
        <time>2022-11-09T13:38:05Z</time>
      </trkpt>
      <trkpt lat="49.92544" lon="2.16443">
        <ele>52.2</ele>
        <time>2022-11-09T13:38:06Z</time>
      </trkpt>
      <trkpt lat="49.92545" lon="2.16441">
        <ele>52.3</ele>
        <time>2022-11-09T13:38:07Z</time>
      </trkpt>
      <trkpt lat="49.92545" lon="2.1644">
        <ele>52.4</ele>
        <time>2022-11-09T13:38:09Z</time>
      </trkpt>
      <trkpt lat="49.92546" lon="2.16439">
        <ele>52.6</ele>
        <time>2022-11-09T13:38:10Z</time>
      </trkpt>
      <trkpt lat="49.92546" lon="2.16437">
        <ele>52.7</ele>
        <time>2022-11-09T13:38:11Z</time>
      </trkpt>
      <trkpt lat="49.92547" lon="2.16436">
        <ele>52.8</ele>
        <time>2022-11-09T13:38:13Z</time>
      </trkpt>
      <trkpt lat="49.92548" lon="2.16435">
        <ele>52.9</ele>
        <time>2022-11-09T13:38:14Z</time>
      </trkpt>
      <trkpt lat="49.92549" lon="2.16434">
        <ele>53</ele>
        <time>2022-11-09T13:38:15Z</time>
      </trkpt>
      <trkpt lat="49.92549" lon="2.16432">
        <ele>53.2</ele>
        <time>2022-11-09T13:38:17Z</time>
      </trkpt>
      <trkpt lat="49.9255" lon="2.16431">
        <ele>53.3</ele>
        <time>2022-11-09T13:38:18Z</time>
      </trkpt>
      <trkpt lat="49.92551" lon="2.1643">
        <ele>53.5</ele>
        <time>2022-11-09T13:38:19Z</time>
      </trkpt>
      <trkpt lat="49.92551" lon="2.16429">
        <ele>53.6</ele>
        <time>2022-11-09T13:38:20Z</time>
      </trkpt>
      <trkpt lat="49.92552" lon="2.16428">
        <ele>53.7</ele>
        <time>2022-11-09T13:38:21Z</time>
      </trkpt>
      <trkpt lat="49.92552" lon="2.16427">
        <ele>53.7</ele>
        <time>2022-11-09T13:38:22Z</time>
      </trkpt>
      <trkpt lat="49.92553" lon="2.16426">
        <ele>53.9</ele>
        <time>2022-11-09T13:38:23Z</time>
      </trkpt>
      <trkpt lat="49.92554" lon="2.16425">
        <ele>54</ele>
        <time>2022-11-09T13:38:25Z</time>
      </trkpt>
      <trkpt lat="49.92554" lon="2.16424">
        <ele>54.1</ele>
        <time>2022-11-09T13:38:26Z</time>
      </trkpt>
      <trkpt lat="49.92555" lon="2.16422">
        <ele>54.2</ele>
        <time>2022-11-09T13:38:27Z</time>
      </trkpt>
      <trkpt lat="49.92556" lon="2.16422">
        <ele>54.3</ele>
        <time>2022-11-09T13:38:29Z</time>
      </trkpt>
      <trkpt lat="49.92557" lon="2.16421">
        <ele>54.5</ele>
        <time>2022-11-09T13:38:30Z</time>
      </trkpt>
      <trkpt lat="49.92557" lon="2.1642">
        <ele>54.6</ele>
        <time>2022-11-09T13:38:32Z</time>
      </trkpt>
      <trkpt lat="49.92558" lon="2.16419">
        <ele>54.7</ele>
        <time>2022-11-09T13:38:33Z</time>
      </trkpt>
      <trkpt lat="49.92558" lon="2.16418">
        <ele>54.8</ele>
        <time>2022-11-09T13:38:34Z</time>
      </trkpt>
      <trkpt lat="49.92559" lon="2.16417">
        <ele>54.9</ele>
        <time>2022-11-09T13:38:36Z</time>
      </trkpt>
      <trkpt lat="49.92559" lon="2.16416">
        <ele>54.9</ele>
        <time>2022-11-09T13:38:37Z</time>
      </trkpt>
      <trkpt lat="49.9256" lon="2.16416">
        <ele>55</ele>
        <time>2022-11-09T13:38:38Z</time>
      </trkpt>
      <trkpt lat="49.9256" lon="2.16415">
        <ele>55.1</ele>
        <time>2022-11-09T13:38:39Z</time>
      </trkpt>
      <trkpt lat="49.9256" lon="2.16415">
        <ele>55.1</ele>
        <time>2022-11-09T13:38:40Z</time>
      </trkpt>
      <trkpt lat="49.92561" lon="2.16414">
        <ele>55.2</ele>
        <time>2022-11-09T13:38:41Z</time>
      </trkpt>
      <trkpt lat="49.92561" lon="2.16414">
        <ele>55.3</ele>
        <time>2022-11-09T13:38:42Z</time>
      </trkpt>
      <trkpt lat="49.92562" lon="2.16413">
        <ele>55.4</ele>
        <time>2022-11-09T13:38:43Z</time>
      </trkpt>
      <trkpt lat="49.92563" lon="2.16412">
        <ele>55.4</ele>
        <time>2022-11-09T13:38:45Z</time>
      </trkpt>
      <trkpt lat="49.92563" lon="2.16411">
        <ele>55.5</ele>
        <time>2022-11-09T13:38:46Z</time>
      </trkpt>
      <trkpt lat="49.92564" lon="2.16411">
        <ele>55.6</ele>
        <time>2022-11-09T13:38:48Z</time>
      </trkpt>
      <trkpt lat="49.92565" lon="2.16411">
        <ele>55.7</ele>
        <time>2022-11-09T13:38:49Z</time>
      </trkpt>
      <trkpt lat="49.92565" lon="2.1641">
        <ele>55.8</ele>
        <time>2022-11-09T13:38:50Z</time>
      </trkpt>
      <trkpt lat="49.92565" lon="2.16409">
        <ele>55.8</ele>
        <time>2022-11-09T13:38:52Z</time>
      </trkpt>
      <trkpt lat="49.92566" lon="2.16408">
        <ele>55.9</ele>
        <time>2022-11-09T13:38:53Z</time>
      </trkpt>
      <trkpt lat="49.92566" lon="2.16407">
        <ele>56</ele>
        <time>2022-11-09T13:38:54Z</time>
      </trkpt>
      <trkpt lat="49.92566" lon="2.16405">
        <ele>56.1</ele>
        <time>2022-11-09T13:38:56Z</time>
      </trkpt>
      <trkpt lat="49.92566" lon="2.16405">
        <ele>56.2</ele>
        <time>2022-11-09T13:38:57Z</time>
      </trkpt>
      <trkpt lat="49.92567" lon="2.16404">
        <ele>56.3</ele>
        <time>2022-11-09T13:38:58Z</time>
      </trkpt>
      <trkpt lat="49.92567" lon="2.16402">
        <ele>56.4</ele>
        <time>2022-11-09T13:39:00Z</time>
      </trkpt>
      <trkpt lat="49.92567" lon="2.16401">
        <ele>56.5</ele>
        <time>2022-11-09T13:39:01Z</time>
      </trkpt>
      <trkpt lat="49.92568" lon="2.16399">
        <ele>56.6</ele>
        <time>2022-11-09T13:39:02Z</time>
      </trkpt>
      <trkpt lat="49.92568" lon="2.16397">
        <ele>56.7</ele>
        <time>2022-11-09T13:39:04Z</time>
      </trkpt>
      <trkpt lat="49.92569" lon="2.16396">
        <ele>56.8</ele>
        <time>2022-11-09T13:39:05Z</time>
      </trkpt>
      <trkpt lat="49.9257" lon="2.16394">
        <ele>56.9</ele>
        <time>2022-11-09T13:39:06Z</time>
      </trkpt>
      <trkpt lat="49.9257" lon="2.16393">
        <ele>57.1</ele>
        <time>2022-11-09T13:39:07Z</time>
      </trkpt>
      <trkpt lat="49.92571" lon="2.16391">
        <ele>57.2</ele>
        <time>2022-11-09T13:39:09Z</time>
      </trkpt>
      <trkpt lat="49.92572" lon="2.1639">
        <ele>57.3</ele>
        <time>2022-11-09T13:39:10Z</time>
      </trkpt>
      <trkpt lat="49.92573" lon="2.16389">
        <ele>57.4</ele>
        <time>2022-11-09T13:39:11Z</time>
      </trkpt>
      <trkpt lat="49.92574" lon="2.16387">
        <ele>57.6</ele>
        <time>2022-11-09T13:39:13Z</time>
      </trkpt>
      <trkpt lat="49.92575" lon="2.16385">
        <ele>57.7</ele>
        <time>2022-11-09T13:39:14Z</time>
      </trkpt>
      <trkpt lat="49.92576" lon="2.16384">
        <ele>57.8</ele>
        <time>2022-11-09T13:39:15Z</time>
      </trkpt>
      <trkpt lat="49.92576" lon="2.16382">
        <ele>57.9</ele>
        <time>2022-11-09T13:39:17Z</time>
      </trkpt>
      <trkpt lat="49.92578" lon="2.1638">
        <ele>58.1</ele>
        <time>2022-11-09T13:39:18Z</time>
      </trkpt>
      <trkpt lat="49.92578" lon="2.16379">
        <ele>58.2</ele>
        <time>2022-11-09T13:39:19Z</time>
      </trkpt>
      <trkpt lat="49.92579" lon="2.16378">
        <ele>58.3</ele>
        <time>2022-11-09T13:39:20Z</time>
      </trkpt>
      <trkpt lat="49.9258" lon="2.16377">
        <ele>58.4</ele>
        <time>2022-11-09T13:39:22Z</time>
      </trkpt>
      <trkpt lat="49.9258" lon="2.16375">
        <ele>58.5</ele>
        <time>2022-11-09T13:39:23Z</time>
      </trkpt>
      <trkpt lat="49.92581" lon="2.16374">
        <ele>58.6</ele>
        <time>2022-11-09T13:39:24Z</time>
      </trkpt>
      <trkpt lat="49.92581" lon="2.16372">
        <ele>58.7</ele>
        <time>2022-11-09T13:39:25Z</time>
      </trkpt>
      <trkpt lat="49.92582" lon="2.16371">
        <ele>58.8</ele>
        <time>2022-11-09T13:39:26Z</time>
      </trkpt>
      <trkpt lat="49.92582" lon="2.1637">
        <ele>58.8</ele>
        <time>2022-11-09T13:39:27Z</time>
      </trkpt>
      <trkpt lat="49.92583" lon="2.16367">
        <ele>59</ele>
        <time>2022-11-09T13:39:28Z</time>
      </trkpt>
      <trkpt lat="49.92583" lon="2.16365">
        <ele>59.1</ele>
        <time>2022-11-09T13:39:29Z</time>
      </trkpt>
      <trkpt lat="49.92585" lon="2.16362">
        <ele>59.3</ele>
        <time>2022-11-09T13:39:31Z</time>
      </trkpt>
      <trkpt lat="49.92585" lon="2.16361">
        <ele>59.4</ele>
        <time>2022-11-09T13:39:32Z</time>
      </trkpt>
      <trkpt lat="49.92585" lon="2.1636">
        <ele>59.4</ele>
        <time>2022-11-09T13:39:33Z</time>
      </trkpt>
      <trkpt lat="49.92586" lon="2.16358">
        <ele>59.6</ele>
        <time>2022-11-09T13:39:34Z</time>
      </trkpt>
      <trkpt lat="49.92587" lon="2.16356">
        <ele>59.7</ele>
        <time>2022-11-09T13:39:35Z</time>
      </trkpt>
      <trkpt lat="49.92588" lon="2.16353">
        <ele>59.9</ele>
        <time>2022-11-09T13:39:36Z</time>
      </trkpt>
      <trkpt lat="49.92589" lon="2.16352">
        <ele>60</ele>
        <time>2022-11-09T13:39:38Z</time>
      </trkpt>
      <trkpt lat="49.92589" lon="2.1635">
        <ele>60.1</ele>
        <time>2022-11-09T13:39:39Z</time>
      </trkpt>
      <trkpt lat="49.9259" lon="2.16349">
        <ele>60.1</ele>
        <time>2022-11-09T13:39:40Z</time>
      </trkpt>
      <trkpt lat="49.9259" lon="2.16348">
        <ele>60.2</ele>
        <time>2022-11-09T13:39:41Z</time>
      </trkpt>
      <trkpt lat="49.92591" lon="2.16345">
        <ele>60.4</ele>
        <time>2022-11-09T13:39:42Z</time>
      </trkpt>
      <trkpt lat="49.92592" lon="2.16344">
        <ele>60.5</ele>
        <time>2022-11-09T13:39:44Z</time>
      </trkpt>
      <trkpt lat="49.92592" lon="2.16342">
        <ele>60.5</ele>
        <time>2022-11-09T13:39:45Z</time>
      </trkpt>
      <trkpt lat="49.92593" lon="2.16341">
        <ele>60.6</ele>
        <time>2022-11-09T13:39:46Z</time>
      </trkpt>
      <trkpt lat="49.92593" lon="2.16339">
        <ele>60.7</ele>
        <time>2022-11-09T13:39:47Z</time>
      </trkpt>
      <trkpt lat="49.92594" lon="2.16338">
        <ele>60.8</ele>
        <time>2022-11-09T13:39:49Z</time>
      </trkpt>
      <trkpt lat="49.92594" lon="2.16336">
        <ele>60.9</ele>
        <time>2022-11-09T13:39:50Z</time>
      </trkpt>
      <trkpt lat="49.92594" lon="2.16335">
        <ele>61</ele>
        <time>2022-11-09T13:39:51Z</time>
      </trkpt>
      <trkpt lat="49.92595" lon="2.16333">
        <ele>61.1</ele>
        <time>2022-11-09T13:39:52Z</time>
      </trkpt>
      <trkpt lat="49.92595" lon="2.16331">
        <ele>61.2</ele>
        <time>2022-11-09T13:39:53Z</time>
      </trkpt>
      <trkpt lat="49.92596" lon="2.16329">
        <ele>61.3</ele>
        <time>2022-11-09T13:39:54Z</time>
      </trkpt>
      <trkpt lat="49.92596" lon="2.16328">
        <ele>61.4</ele>
        <time>2022-11-09T13:39:56Z</time>
      </trkpt>
      <trkpt lat="49.92597" lon="2.16326">
        <ele>61.5</ele>
        <time>2022-11-09T13:39:57Z</time>
      </trkpt>
      <trkpt lat="49.92597" lon="2.16325">
        <ele>61.5</ele>
        <time>2022-11-09T13:39:58Z</time>
      </trkpt>
      <trkpt lat="49.92598" lon="2.16323">
        <ele>61.6</ele>
        <time>2022-11-09T13:40:00Z</time>
      </trkpt>
      <trkpt lat="49.92598" lon="2.16322">
        <ele>61.7</ele>
        <time>2022-11-09T13:40:01Z</time>
      </trkpt>
      <trkpt lat="49.92598" lon="2.16321">
        <ele>61.8</ele>
        <time>2022-11-09T13:40:02Z</time>
      </trkpt>
      <trkpt lat="49.92599" lon="2.16319">
        <ele>61.8</ele>
        <time>2022-11-09T13:40:03Z</time>
      </trkpt>
      <trkpt lat="49.92599" lon="2.16318">
        <ele>61.9</ele>
        <time>2022-11-09T13:40:04Z</time>
      </trkpt>
      <trkpt lat="49.92599" lon="2.16316">
        <ele>62</ele>
        <time>2022-11-09T13:40:05Z</time>
      </trkpt>
      <trkpt lat="49.926" lon="2.16315">
        <ele>62</ele>
        <time>2022-11-09T13:40:06Z</time>
      </trkpt>
      <trkpt lat="49.926" lon="2.16313">
        <ele>62.1</ele>
        <time>2022-11-09T13:40:08Z</time>
      </trkpt>
      <trkpt lat="49.926" lon="2.16312">
        <ele>62.2</ele>
        <time>2022-11-09T13:40:09Z</time>
      </trkpt>
      <trkpt lat="49.926" lon="2.1631">
        <ele>62.3</ele>
        <time>2022-11-09T13:40:10Z</time>
      </trkpt>
      <trkpt lat="49.92601" lon="2.16308">
        <ele>62.4</ele>
        <time>2022-11-09T13:40:11Z</time>
      </trkpt>
      <trkpt lat="49.92601" lon="2.16306">
        <ele>62.5</ele>
        <time>2022-11-09T13:40:13Z</time>
      </trkpt>
      <trkpt lat="49.92601" lon="2.16304">
        <ele>62.5</ele>
        <time>2022-11-09T13:40:14Z</time>
      </trkpt>
      <trkpt lat="49.92601" lon="2.16301">
        <ele>62.7</ele>
        <time>2022-11-09T13:40:15Z</time>
      </trkpt>
      <trkpt lat="49.92602" lon="2.16299">
        <ele>62.8</ele>
        <time>2022-11-09T13:40:16Z</time>
      </trkpt>
      <trkpt lat="49.92602" lon="2.16296">
        <ele>62.9</ele>
        <time>2022-11-09T13:40:18Z</time>
      </trkpt>
      <trkpt lat="49.92603" lon="2.16295">
        <ele>63</ele>
        <time>2022-11-09T13:40:19Z</time>
      </trkpt>
      <trkpt lat="49.92603" lon="2.16294">
        <ele>63.1</ele>
        <time>2022-11-09T13:40:20Z</time>
      </trkpt>
      <trkpt lat="49.92603" lon="2.16292">
        <ele>63.1</ele>
        <time>2022-11-09T13:40:21Z</time>
      </trkpt>
      <trkpt lat="49.92604" lon="2.1629">
        <ele>63.2</ele>
        <time>2022-11-09T13:40:22Z</time>
      </trkpt>
      <trkpt lat="49.92604" lon="2.16288">
        <ele>63.3</ele>
        <time>2022-11-09T13:40:24Z</time>
      </trkpt>
      <trkpt lat="49.92604" lon="2.16285">
        <ele>63.4</ele>
        <time>2022-11-09T13:40:25Z</time>
      </trkpt>
      <trkpt lat="49.92605" lon="2.16284">
        <ele>63.5</ele>
        <time>2022-11-09T13:40:26Z</time>
      </trkpt>
      <trkpt lat="49.92605" lon="2.16282">
        <ele>63.6</ele>
        <time>2022-11-09T13:40:27Z</time>
      </trkpt>
      <trkpt lat="49.92606" lon="2.16279">
        <ele>63.7</ele>
        <time>2022-11-09T13:40:28Z</time>
      </trkpt>
      <trkpt lat="49.92606" lon="2.16278">
        <ele>63.8</ele>
        <time>2022-11-09T13:40:30Z</time>
      </trkpt>
      <trkpt lat="49.92607" lon="2.16277">
        <ele>63.8</ele>
        <time>2022-11-09T13:40:31Z</time>
      </trkpt>
      <trkpt lat="49.92607" lon="2.16275">
        <ele>63.9</ele>
        <time>2022-11-09T13:40:32Z</time>
      </trkpt>
      <trkpt lat="49.92608" lon="2.16273">
        <ele>64</ele>
        <time>2022-11-09T13:40:33Z</time>
      </trkpt>
      <trkpt lat="49.92608" lon="2.16272">
        <ele>64.1</ele>
        <time>2022-11-09T13:40:35Z</time>
      </trkpt>
      <trkpt lat="49.92609" lon="2.1627">
        <ele>64.1</ele>
        <time>2022-11-09T13:40:36Z</time>
      </trkpt>
      <trkpt lat="49.9261" lon="2.16269">
        <ele>64.2</ele>
        <time>2022-11-09T13:40:37Z</time>
      </trkpt>
      <trkpt lat="49.9261" lon="2.16268">
        <ele>64.3</ele>
        <time>2022-11-09T13:40:38Z</time>
      </trkpt>
      <trkpt lat="49.92611" lon="2.16265">
        <ele>64.4</ele>
        <time>2022-11-09T13:40:39Z</time>
      </trkpt>
      <trkpt lat="49.92611" lon="2.16264">
        <ele>64.4</ele>
        <time>2022-11-09T13:40:40Z</time>
      </trkpt>
      <trkpt lat="49.92612" lon="2.16263">
        <ele>64.5</ele>
        <time>2022-11-09T13:40:41Z</time>
      </trkpt>
      <trkpt lat="49.92612" lon="2.16262">
        <ele>64.5</ele>
        <time>2022-11-09T13:40:42Z</time>
      </trkpt>
      <trkpt lat="49.92613" lon="2.16261">
        <ele>64.6</ele>
        <time>2022-11-09T13:40:43Z</time>
      </trkpt>
      <trkpt lat="49.92613" lon="2.16259">
        <ele>64.6</ele>
        <time>2022-11-09T13:40:44Z</time>
      </trkpt>
      <trkpt lat="49.92614" lon="2.16258">
        <ele>64.7</ele>
        <time>2022-11-09T13:40:46Z</time>
      </trkpt>
      <trkpt lat="49.92614" lon="2.16257">
        <ele>64.8</ele>
        <time>2022-11-09T13:40:47Z</time>
      </trkpt>
      <trkpt lat="49.92614" lon="2.16255">
        <ele>64.8</ele>
        <time>2022-11-09T13:40:48Z</time>
      </trkpt>
      <trkpt lat="49.92615" lon="2.16254">
        <ele>64.9</ele>
        <time>2022-11-09T13:40:49Z</time>
      </trkpt>
      <trkpt lat="49.92615" lon="2.16253">
        <ele>64.9</ele>
        <time>2022-11-09T13:40:50Z</time>
      </trkpt>
      <trkpt lat="49.92615" lon="2.16251">
        <ele>65</ele>
        <time>2022-11-09T13:40:51Z</time>
      </trkpt>
      <trkpt lat="49.92616" lon="2.1625">
        <ele>65.1</ele>
        <time>2022-11-09T13:40:52Z</time>
      </trkpt>
      <trkpt lat="49.92616" lon="2.16248">
        <ele>65.1</ele>
        <time>2022-11-09T13:40:53Z</time>
      </trkpt>
      <trkpt lat="49.92616" lon="2.16247">
        <ele>65.2</ele>
        <time>2022-11-09T13:40:55Z</time>
      </trkpt>
      <trkpt lat="49.92617" lon="2.16246">
        <ele>65.2</ele>
        <time>2022-11-09T13:40:56Z</time>
      </trkpt>
      <trkpt lat="49.92617" lon="2.16245">
        <ele>65.3</ele>
        <time>2022-11-09T13:40:57Z</time>
      </trkpt>
      <trkpt lat="49.92617" lon="2.16244">
        <ele>65.3</ele>
        <time>2022-11-09T13:40:58Z</time>
      </trkpt>
      <trkpt lat="49.92618" lon="2.16242">
        <ele>65.4</ele>
        <time>2022-11-09T13:40:59Z</time>
      </trkpt>
      <trkpt lat="49.92618" lon="2.16241">
        <ele>65.5</ele>
        <time>2022-11-09T13:41:00Z</time>
      </trkpt>
      <trkpt lat="49.92618" lon="2.1624">
        <ele>65.5</ele>
        <time>2022-11-09T13:41:01Z</time>
      </trkpt>
      <trkpt lat="49.92618" lon="2.16239">
        <ele>65.5</ele>
        <time>2022-11-09T13:41:03Z</time>
      </trkpt>
      <trkpt lat="49.92618" lon="2.16238">
        <ele>65.6</ele>
        <time>2022-11-09T13:41:04Z</time>
      </trkpt>
      <trkpt lat="49.92618" lon="2.16236">
        <ele>65.7</ele>
        <time>2022-11-09T13:41:05Z</time>
      </trkpt>
      <trkpt lat="49.92619" lon="2.16234">
        <ele>65.7</ele>
        <time>2022-11-09T13:41:06Z</time>
      </trkpt>
      <trkpt lat="49.92619" lon="2.16233">
        <ele>65.8</ele>
        <time>2022-11-09T13:41:08Z</time>
      </trkpt>
      <trkpt lat="49.9262" lon="2.16232">
        <ele>65.8</ele>
        <time>2022-11-09T13:41:09Z</time>
      </trkpt>
      <trkpt lat="49.9262" lon="2.16231">
        <ele>65.9</ele>
        <time>2022-11-09T13:41:10Z</time>
      </trkpt>
      <trkpt lat="49.92621" lon="2.1623">
        <ele>65.9</ele>
        <time>2022-11-09T13:41:11Z</time>
      </trkpt>
      <trkpt lat="49.92622" lon="2.16228">
        <ele>66</ele>
        <time>2022-11-09T13:41:12Z</time>
      </trkpt>
      <trkpt lat="49.92623" lon="2.16226">
        <ele>66.2</ele>
        <time>2022-11-09T13:41:13Z</time>
      </trkpt>
      <trkpt lat="49.92623" lon="2.16224">
        <ele>66.2</ele>
        <time>2022-11-09T13:41:15Z</time>
      </trkpt>
      <trkpt lat="49.92624" lon="2.16223">
        <ele>66.3</ele>
        <time>2022-11-09T13:41:16Z</time>
      </trkpt>
      <trkpt lat="49.92624" lon="2.16222">
        <ele>66.3</ele>
        <time>2022-11-09T13:41:17Z</time>
      </trkpt>
      <trkpt lat="49.92625" lon="2.1622">
        <ele>66.4</ele>
        <time>2022-11-09T13:41:18Z</time>
      </trkpt>
      <trkpt lat="49.92626" lon="2.16219">
        <ele>66.5</ele>
        <time>2022-11-09T13:41:20Z</time>
      </trkpt>
      <trkpt lat="49.92627" lon="2.16218">
        <ele>66.5</ele>
        <time>2022-11-09T13:41:21Z</time>
      </trkpt>
      <trkpt lat="49.92627" lon="2.16217">
        <ele>66.6</ele>
        <time>2022-11-09T13:41:22Z</time>
      </trkpt>
      <trkpt lat="49.92628" lon="2.16216">
        <ele>66.7</ele>
        <time>2022-11-09T13:41:23Z</time>
      </trkpt>
      <trkpt lat="49.92629" lon="2.16214">
        <ele>66.8</ele>
        <time>2022-11-09T13:41:24Z</time>
      </trkpt>
      <trkpt lat="49.92629" lon="2.16212">
        <ele>66.8</ele>
        <time>2022-11-09T13:41:25Z</time>
      </trkpt>
      <trkpt lat="49.9263" lon="2.1621">
        <ele>66.9</ele>
        <time>2022-11-09T13:41:27Z</time>
      </trkpt>
      <trkpt lat="49.92631" lon="2.16209">
        <ele>67</ele>
        <time>2022-11-09T13:41:28Z</time>
      </trkpt>
      <trkpt lat="49.92632" lon="2.16208">
        <ele>67</ele>
        <time>2022-11-09T13:41:29Z</time>
      </trkpt>
      <trkpt lat="49.92633" lon="2.16207">
        <ele>67.1</ele>
        <time>2022-11-09T13:41:31Z</time>
      </trkpt>
      <trkpt lat="49.92633" lon="2.16207">
        <ele>67.1</ele>
        <time>2022-11-09T13:41:32Z</time>
      </trkpt>
      <trkpt lat="49.92634" lon="2.16207">
        <ele>67.2</ele>
        <time>2022-11-09T13:41:33Z</time>
      </trkpt>
      <trkpt lat="49.92634" lon="2.16207">
        <ele>67.2</ele>
        <time>2022-11-09T13:41:34Z</time>
      </trkpt>
      <trkpt lat="49.92635" lon="2.16207">
        <ele>67.2</ele>
        <time>2022-11-09T13:41:35Z</time>
      </trkpt>
      <trkpt lat="49.92635" lon="2.16207">
        <ele>67.3</ele>
        <time>2022-11-09T13:41:36Z</time>
      </trkpt>
      <trkpt lat="49.92635" lon="2.16207">
        <ele>67.3</ele>
        <time>2022-11-09T13:41:37Z</time>
      </trkpt>
      <trkpt lat="49.92635" lon="2.16208">
        <ele>67.3</ele>
        <time>2022-11-09T13:41:38Z</time>
      </trkpt>
      <trkpt lat="49.92635" lon="2.16208">
        <ele>67.3</ele>
        <time>2022-11-09T13:41:39Z</time>
      </trkpt>
      <trkpt lat="49.92635" lon="2.16208">
        <ele>67.3</ele>
        <time>2022-11-09T13:41:40Z</time>
      </trkpt>
      <trkpt lat="49.92635" lon="2.16208">
        <ele>67.3</ele>
        <time>2022-11-09T13:41:41Z</time>
      </trkpt>
      <trkpt lat="49.92635" lon="2.16208">
        <ele>67.3</ele>
        <time>2022-11-09T13:41:42Z</time>
      </trkpt>
      <trkpt lat="49.92635" lon="2.16208">
        <ele>67.3</ele>
        <time>2022-11-09T13:41:43Z</time>
      </trkpt>
      <trkpt lat="49.92635" lon="2.16208">
        <ele>67.3</ele>
        <time>2022-11-09T13:41:44Z</time>
      </trkpt>
      <trkpt lat="49.92635" lon="2.16208">
        <ele>67.3</ele>
        <time>2022-11-09T13:41:45Z</time>
      </trkpt>
      <trkpt lat="49.92635" lon="2.16208">
        <ele>67.3</ele>
        <time>2022-11-09T13:41:46Z</time>
      </trkpt>
      <trkpt lat="49.92635" lon="2.16208">
        <ele>67.3</ele>
        <time>2022-11-09T13:41:47Z</time>
      </trkpt>
      <trkpt lat="49.92635" lon="2.16208">
        <ele>67.3</ele>
        <time>2022-11-09T13:41:48Z</time>
      </trkpt>
      <trkpt lat="49.92635" lon="2.16208">
        <ele>67.3</ele>
        <time>2022-11-09T13:41:49Z</time>
      </trkpt>
      <trkpt lat="49.92635" lon="2.16208">
        <ele>67.3</ele>
        <time>2022-11-09T13:41:50Z</time>
      </trkpt>
      <trkpt lat="49.92634" lon="2.16208">
        <ele>67.3</ele>
        <time>2022-11-09T13:41:51Z</time>
      </trkpt>
      <trkpt lat="49.92634" lon="2.16208">
        <ele>67.3</ele>
        <time>2022-11-09T13:41:52Z</time>
      </trkpt>
      <trkpt lat="49.92634" lon="2.16208">
        <ele>67.3</ele>
        <time>2022-11-09T13:41:53Z</time>
      </trkpt>
      <trkpt lat="49.92634" lon="2.16208">
        <ele>67.3</ele>
        <time>2022-11-09T13:41:54Z</time>
      </trkpt>
      <trkpt lat="49.92634" lon="2.16208">
        <ele>67.3</ele>
        <time>2022-11-09T13:41:55Z</time>
      </trkpt>
      <trkpt lat="49.92634" lon="2.16208">
        <ele>67.3</ele>
        <time>2022-11-09T13:41:56Z</time>
      </trkpt>
      <trkpt lat="49.92634" lon="2.16208">
        <ele>67.3</ele>
        <time>2022-11-09T13:41:57Z</time>
      </trkpt>
      <trkpt lat="49.92634" lon="2.16208">
        <ele>67.3</ele>
        <time>2022-11-09T13:41:58Z</time>
      </trkpt>
      <trkpt lat="49.92634" lon="2.16208">
        <ele>67.3</ele>
        <time>2022-11-09T13:41:59Z</time>
      </trkpt>
      <trkpt lat="49.92634" lon="2.16208">
        <ele>67.3</ele>
        <time>2022-11-09T13:42:00Z</time>
      </trkpt>
      <trkpt lat="49.92634" lon="2.16208">
        <ele>67.3</ele>
        <time>2022-11-09T13:42:01Z</time>
      </trkpt>
      <trkpt lat="49.92634" lon="2.16208">
        <ele>67.4</ele>
        <time>2022-11-09T13:42:02Z</time>
      </trkpt>
      <trkpt lat="49.92634" lon="2.16208">
        <ele>67.4</ele>
        <time>2022-11-09T13:42:03Z</time>
      </trkpt>
      <trkpt lat="49.92634" lon="2.16208">
        <ele>67.4</ele>
        <time>2022-11-09T13:42:04Z</time>
      </trkpt>
      <trkpt lat="49.92634" lon="2.16208">
        <ele>67.4</ele>
        <time>2022-11-09T13:42:05Z</time>
      </trkpt>
      <trkpt lat="49.92634" lon="2.16208">
        <ele>67.4</ele>
        <time>2022-11-09T13:42:06Z</time>
      </trkpt>
      <trkpt lat="49.92634" lon="2.16208">
        <ele>67.4</ele>
        <time>2022-11-09T13:42:07Z</time>
      </trkpt>
      <trkpt lat="49.92634" lon="2.16208">
        <ele>67.4</ele>
        <time>2022-11-09T13:42:08Z</time>
      </trkpt>
      <trkpt lat="49.92634" lon="2.16208">
        <ele>67.4</ele>
        <time>2022-11-09T13:42:09Z</time>
      </trkpt>
      <trkpt lat="49.92634" lon="2.16208">
        <ele>67.4</ele>
        <time>2022-11-09T13:42:10Z</time>
      </trkpt>
      <trkpt lat="49.92634" lon="2.16208">
        <ele>67.4</ele>
        <time>2022-11-09T13:42:11Z</time>
      </trkpt>
      <trkpt lat="49.92634" lon="2.16208">
        <ele>67.4</ele>
        <time>2022-11-09T13:42:12Z</time>
      </trkpt>
      <trkpt lat="49.92634" lon="2.16208">
        <ele>67.4</ele>
        <time>2022-11-09T13:42:13Z</time>
      </trkpt>
      <trkpt lat="49.92634" lon="2.16208">
        <ele>67.4</ele>
        <time>2022-11-09T13:42:14Z</time>
      </trkpt>
      <trkpt lat="49.92634" lon="2.16208">
        <ele>67.4</ele>
        <time>2022-11-09T13:42:15Z</time>
      </trkpt>
      <trkpt lat="49.92634" lon="2.16208">
        <ele>67.4</ele>
        <time>2022-11-09T13:42:16Z</time>
      </trkpt>
      <trkpt lat="49.92634" lon="2.16208">
        <ele>67.4</ele>
        <time>2022-11-09T13:42:17Z</time>
      </trkpt>
      <trkpt lat="49.92634" lon="2.16208">
        <ele>67.4</ele>
        <time>2022-11-09T13:42:18Z</time>
      </trkpt>
      <trkpt lat="49.92634" lon="2.16208">
        <ele>67.4</ele>
        <time>2022-11-09T13:42:19Z</time>
      </trkpt>
      <trkpt lat="49.92634" lon="2.16208">
        <ele>67.4</ele>
        <time>2022-11-09T13:42:20Z</time>
      </trkpt>
      <trkpt lat="49.92634" lon="2.16208">
        <ele>67.4</ele>
        <time>2022-11-09T13:42:21Z</time>
      </trkpt>
      <trkpt lat="49.92634" lon="2.16208">
        <ele>67.4</ele>
        <time>2022-11-09T13:42:22Z</time>
      </trkpt>
      <trkpt lat="49.92634" lon="2.16208">
        <ele>67.4</ele>
        <time>2022-11-09T13:42:23Z</time>
      </trkpt>
      <trkpt lat="49.92634" lon="2.16208">
        <ele>67.4</ele>
        <time>2022-11-09T13:42:24Z</time>
      </trkpt>
      <trkpt lat="49.92634" lon="2.16208">
        <ele>67.4</ele>
        <time>2022-11-09T13:42:25Z</time>
      </trkpt>
      <trkpt lat="49.92634" lon="2.16208">
        <ele>67.4</ele>
        <time>2022-11-09T13:42:26Z</time>
      </trkpt>
      <trkpt lat="49.92634" lon="2.16208">
        <ele>67.4</ele>
        <time>2022-11-09T13:42:27Z</time>
      </trkpt>
      <trkpt lat="49.92634" lon="2.16208">
        <ele>67.4</ele>
        <time>2022-11-09T13:42:28Z</time>
      </trkpt>
      <trkpt lat="49.92634" lon="2.16208">
        <ele>67.4</ele>
        <time>2022-11-09T13:42:29Z</time>
      </trkpt>
      <trkpt lat="49.92634" lon="2.16208">
        <ele>67.4</ele>
        <time>2022-11-09T13:42:30Z</time>
      </trkpt>
      <trkpt lat="49.92634" lon="2.16208">
        <ele>67.4</ele>
        <time>2022-11-09T13:42:31Z</time>
      </trkpt>
      <trkpt lat="49.92634" lon="2.16208">
        <ele>67.4</ele>
        <time>2022-11-09T13:42:32Z</time>
      </trkpt>
      <trkpt lat="49.92634" lon="2.16208">
        <ele>67.4</ele>
        <time>2022-11-09T13:42:33Z</time>
      </trkpt>
      <trkpt lat="49.92634" lon="2.16208">
        <ele>67.4</ele>
        <time>2022-11-09T13:42:34Z</time>
      </trkpt>
      <trkpt lat="49.92634" lon="2.16208">
        <ele>67.4</ele>
        <time>2022-11-09T13:42:35Z</time>
      </trkpt>
      <trkpt lat="49.92634" lon="2.16208">
        <ele>67.4</ele>
        <time>2022-11-09T13:42:36Z</time>
      </trkpt>
      <trkpt lat="49.92634" lon="2.16208">
        <ele>67.4</ele>
        <time>2022-11-09T13:42:37Z</time>
      </trkpt>
      <trkpt lat="49.92634" lon="2.16208">
        <ele>67.4</ele>
        <time>2022-11-09T13:42:38Z</time>
      </trkpt>
      <trkpt lat="49.92634" lon="2.16208">
        <ele>67.4</ele>
        <time>2022-11-09T13:42:39Z</time>
      </trkpt>
      <trkpt lat="49.92634" lon="2.16208">
        <ele>67.4</ele>
        <time>2022-11-09T13:42:40Z</time>
      </trkpt>
      <trkpt lat="49.92634" lon="2.16208">
        <ele>67.4</ele>
        <time>2022-11-09T13:42:41Z</time>
      </trkpt>
      <trkpt lat="49.92634" lon="2.16208">
        <ele>67.4</ele>
        <time>2022-11-09T13:42:42Z</time>
      </trkpt>
      <trkpt lat="49.92634" lon="2.16208">
        <ele>67.4</ele>
        <time>2022-11-09T13:42:43Z</time>
      </trkpt>
      <trkpt lat="49.92634" lon="2.16208">
        <ele>67.4</ele>
        <time>2022-11-09T13:42:44Z</time>
      </trkpt>
      <trkpt lat="49.92634" lon="2.16208">
        <ele>67.4</ele>
        <time>2022-11-09T13:42:45Z</time>
      </trkpt>
      <trkpt lat="49.92634" lon="2.16208">
        <ele>67.4</ele>
        <time>2022-11-09T13:42:46Z</time>
      </trkpt>
      <trkpt lat="49.92634" lon="2.16208">
        <ele>67.4</ele>
        <time>2022-11-09T13:42:47Z</time>
      </trkpt>
      <trkpt lat="49.92634" lon="2.16208">
        <ele>67.4</ele>
        <time>2022-11-09T13:42:48Z</time>
      </trkpt>
      <trkpt lat="49.92634" lon="2.16208">
        <ele>67.4</ele>
        <time>2022-11-09T13:42:49Z</time>
      </trkpt>
      <trkpt lat="49.92634" lon="2.16208">
        <ele>67.4</ele>
        <time>2022-11-09T13:42:50Z</time>
      </trkpt>
      <trkpt lat="49.92634" lon="2.16208">
        <ele>67.4</ele>
        <time>2022-11-09T13:42:51Z</time>
      </trkpt>
      <trkpt lat="49.92634" lon="2.16208">
        <ele>67.4</ele>
        <time>2022-11-09T13:42:52Z</time>
      </trkpt>
      <trkpt lat="49.92634" lon="2.16208">
        <ele>67.4</ele>
        <time>2022-11-09T13:42:53Z</time>
      </trkpt>
      <trkpt lat="49.92634" lon="2.16208">
        <ele>67.4</ele>
        <time>2022-11-09T13:42:54Z</time>
      </trkpt>
      <trkpt lat="49.92634" lon="2.16208">
        <ele>67.4</ele>
        <time>2022-11-09T13:42:55Z</time>
      </trkpt>
      <trkpt lat="49.92634" lon="2.16208">
        <ele>67.4</ele>
        <time>2022-11-09T13:42:56Z</time>
      </trkpt>
      <trkpt lat="49.92634" lon="2.16208">
        <ele>67.4</ele>
        <time>2022-11-09T13:42:57Z</time>
      </trkpt>
      <trkpt lat="49.92634" lon="2.16208">
        <ele>67.4</ele>
        <time>2022-11-09T13:42:58Z</time>
      </trkpt>
      <trkpt lat="49.92634" lon="2.16208">
        <ele>67.4</ele>
        <time>2022-11-09T13:42:59Z</time>
      </trkpt>
      <trkpt lat="49.92634" lon="2.16208">
        <ele>67.4</ele>
        <time>2022-11-09T13:43:00Z</time>
      </trkpt>
      <trkpt lat="49.92634" lon="2.16208">
        <ele>67.4</ele>
        <time>2022-11-09T13:43:01Z</time>
      </trkpt>
      <trkpt lat="49.92634" lon="2.16208">
        <ele>67.4</ele>
        <time>2022-11-09T13:43:02Z</time>
      </trkpt>
      <trkpt lat="49.92634" lon="2.16208">
        <ele>67.4</ele>
        <time>2022-11-09T13:43:03Z</time>
      </trkpt>
      <trkpt lat="49.92634" lon="2.16208">
        <ele>67.4</ele>
        <time>2022-11-09T13:43:04Z</time>
      </trkpt>
      <trkpt lat="49.92634" lon="2.16208">
        <ele>67.4</ele>
        <time>2022-11-09T13:43:05Z</time>
      </trkpt>
      <trkpt lat="49.92634" lon="2.16208">
        <ele>67.4</ele>
        <time>2022-11-09T13:43:06Z</time>
      </trkpt>
      <trkpt lat="49.92634" lon="2.16208">
        <ele>67.4</ele>
        <time>2022-11-09T13:43:07Z</time>
      </trkpt>
      <trkpt lat="49.92634" lon="2.16208">
        <ele>67.4</ele>
        <time>2022-11-09T13:43:08Z</time>
      </trkpt>
      <trkpt lat="49.92634" lon="2.16208">
        <ele>67.4</ele>
        <time>2022-11-09T13:43:09Z</time>
      </trkpt>
      <trkpt lat="49.92634" lon="2.16208">
        <ele>67.4</ele>
        <time>2022-11-09T13:43:10Z</time>
      </trkpt>
      <trkpt lat="49.92634" lon="2.16208">
        <ele>67.4</ele>
        <time>2022-11-09T13:43:11Z</time>
      </trkpt>
      <trkpt lat="49.92634" lon="2.16208">
        <ele>67.4</ele>
        <time>2022-11-09T13:43:12Z</time>
      </trkpt>
      <trkpt lat="49.92634" lon="2.16208">
        <ele>67.4</ele>
        <time>2022-11-09T13:43:13Z</time>
      </trkpt>
      <trkpt lat="49.92634" lon="2.16208">
        <ele>67.4</ele>
        <time>2022-11-09T13:43:14Z</time>
      </trkpt>
      <trkpt lat="49.92634" lon="2.16208">
        <ele>67.4</ele>
        <time>2022-11-09T13:43:15Z</time>
      </trkpt>
      <trkpt lat="49.92634" lon="2.16208">
        <ele>67.4</ele>
        <time>2022-11-09T13:43:16Z</time>
      </trkpt>
      <trkpt lat="49.92634" lon="2.16208">
        <ele>67.4</ele>
        <time>2022-11-09T13:43:17Z</time>
      </trkpt>
      <trkpt lat="49.92634" lon="2.16208">
        <ele>67.4</ele>
        <time>2022-11-09T13:43:18Z</time>
      </trkpt>
      <trkpt lat="49.92634" lon="2.16208">
        <ele>67.4</ele>
        <time>2022-11-09T13:43:19Z</time>
      </trkpt>
      <trkpt lat="49.92634" lon="2.16208">
        <ele>67.4</ele>
        <time>2022-11-09T13:43:20Z</time>
      </trkpt>
      <trkpt lat="49.92634" lon="2.16208">
        <ele>67.4</ele>
        <time>2022-11-09T13:43:21Z</time>
      </trkpt>
      <trkpt lat="49.92634" lon="2.16208">
        <ele>67.4</ele>
        <time>2022-11-09T13:43:22Z</time>
      </trkpt>
      <trkpt lat="49.92634" lon="2.16208">
        <ele>67.4</ele>
        <time>2022-11-09T13:43:23Z</time>
      </trkpt>
      <trkpt lat="49.92634" lon="2.16208">
        <ele>67.4</ele>
        <time>2022-11-09T13:43:24Z</time>
      </trkpt>
      <trkpt lat="49.92634" lon="2.16208">
        <ele>67.4</ele>
        <time>2022-11-09T13:43:25Z</time>
      </trkpt>
      <trkpt lat="49.92634" lon="2.16208">
        <ele>67.4</ele>
        <time>2022-11-09T13:43:26Z</time>
      </trkpt>
      <trkpt lat="49.92634" lon="2.16208">
        <ele>67.4</ele>
        <time>2022-11-09T13:43:27Z</time>
      </trkpt>
      <trkpt lat="49.92634" lon="2.16208">
        <ele>67.4</ele>
        <time>2022-11-09T13:43:28Z</time>
      </trkpt>
      <trkpt lat="49.92634" lon="2.16208">
        <ele>67.4</ele>
        <time>2022-11-09T13:43:29Z</time>
      </trkpt>
      <trkpt lat="49.92634" lon="2.16208">
        <ele>67.4</ele>
        <time>2022-11-09T13:43:30Z</time>
      </trkpt>
      <trkpt lat="49.92634" lon="2.16208">
        <ele>67.4</ele>
        <time>2022-11-09T13:43:31Z</time>
      </trkpt>
      <trkpt lat="49.92634" lon="2.16208">
        <ele>67.4</ele>
        <time>2022-11-09T13:43:32Z</time>
      </trkpt>
      <trkpt lat="49.92634" lon="2.16208">
        <ele>67.4</ele>
        <time>2022-11-09T13:43:33Z</time>
      </trkpt>
      <trkpt lat="49.92634" lon="2.16208">
        <ele>67.4</ele>
        <time>2022-11-09T13:43:34Z</time>
      </trkpt>
      <trkpt lat="49.92634" lon="2.16208">
        <ele>67.4</ele>
        <time>2022-11-09T13:43:35Z</time>
      </trkpt>
      <trkpt lat="49.92634" lon="2.16208">
        <ele>67.4</ele>
        <time>2022-11-09T13:43:36Z</time>
      </trkpt>
      <trkpt lat="49.92634" lon="2.16208">
        <ele>67.4</ele>
        <time>2022-11-09T13:43:37Z</time>
      </trkpt>
      <trkpt lat="49.92634" lon="2.16208">
        <ele>67.4</ele>
        <time>2022-11-09T13:43:38Z</time>
      </trkpt>
      <trkpt lat="49.92634" lon="2.16208">
        <ele>67.4</ele>
        <time>2022-11-09T13:43:39Z</time>
      </trkpt>
      <trkpt lat="49.92634" lon="2.16208">
        <ele>67.4</ele>
        <time>2022-11-09T13:43:40Z</time>
      </trkpt>
      <trkpt lat="49.92634" lon="2.16208">
        <ele>67.4</ele>
        <time>2022-11-09T13:43:41Z</time>
      </trkpt>
      <trkpt lat="49.92634" lon="2.16208">
        <ele>67.4</ele>
        <time>2022-11-09T13:43:42Z</time>
      </trkpt>
      <trkpt lat="49.92634" lon="2.16208">
        <ele>67.4</ele>
        <time>2022-11-09T13:43:43Z</time>
      </trkpt>
      <trkpt lat="49.92634" lon="2.16208">
        <ele>67.4</ele>
        <time>2022-11-09T13:43:44Z</time>
      </trkpt>
      <trkpt lat="49.92634" lon="2.16208">
        <ele>67.4</ele>
        <time>2022-11-09T13:43:45Z</time>
      </trkpt>
      <trkpt lat="49.92634" lon="2.16208">
        <ele>67.4</ele>
        <time>2022-11-09T13:43:46Z</time>
      </trkpt>
      <trkpt lat="49.92634" lon="2.16208">
        <ele>67.4</ele>
        <time>2022-11-09T13:43:47Z</time>
      </trkpt>
      <trkpt lat="49.92634" lon="2.16208">
        <ele>67.4</ele>
        <time>2022-11-09T13:43:48Z</time>
      </trkpt>
      <trkpt lat="49.92634" lon="2.16208">
        <ele>67.4</ele>
        <time>2022-11-09T13:43:49Z</time>
      </trkpt>
      <trkpt lat="49.92634" lon="2.16208">
        <ele>67.4</ele>
        <time>2022-11-09T13:43:50Z</time>
      </trkpt>
      <trkpt lat="49.92634" lon="2.16208">
        <ele>67.4</ele>
        <time>2022-11-09T13:43:51Z</time>
      </trkpt>
      <trkpt lat="49.92634" lon="2.16208">
        <ele>67.4</ele>
        <time>2022-11-09T13:43:52Z</time>
      </trkpt>
      <trkpt lat="49.92634" lon="2.16208">
        <ele>67.4</ele>
        <time>2022-11-09T13:43:53Z</time>
      </trkpt>
      <trkpt lat="49.92634" lon="2.16208">
        <ele>67.4</ele>
        <time>2022-11-09T13:43:54Z</time>
      </trkpt>
      <trkpt lat="49.92634" lon="2.16208">
        <ele>67.4</ele>
        <time>2022-11-09T13:43:55Z</time>
      </trkpt>
      <trkpt lat="49.92634" lon="2.16208">
        <ele>67.4</ele>
        <time>2022-11-09T13:43:56Z</time>
      </trkpt>
      <trkpt lat="49.92634" lon="2.16208">
        <ele>67.4</ele>
        <time>2022-11-09T13:43:57Z</time>
      </trkpt>
      <trkpt lat="49.92634" lon="2.16208">
        <ele>67.4</ele>
        <time>2022-11-09T13:43:58Z</time>
      </trkpt>
      <trkpt lat="49.92634" lon="2.16208">
        <ele>67.4</ele>
        <time>2022-11-09T13:43:59Z</time>
      </trkpt>
      <trkpt lat="49.92634" lon="2.16208">
        <ele>67.4</ele>
        <time>2022-11-09T13:44:00Z</time>
      </trkpt>
      <trkpt lat="49.92634" lon="2.16208">
        <ele>67.4</ele>
        <time>2022-11-09T13:44:01Z</time>
      </trkpt>
      <trkpt lat="49.92634" lon="2.16208">
        <ele>67.4</ele>
        <time>2022-11-09T13:44:02Z</time>
      </trkpt>
      <trkpt lat="49.92634" lon="2.16208">
        <ele>67.4</ele>
        <time>2022-11-09T13:44:03Z</time>
      </trkpt>
      <trkpt lat="49.92634" lon="2.16208">
        <ele>67.4</ele>
        <time>2022-11-09T13:44:04Z</time>
      </trkpt>
      <trkpt lat="49.92634" lon="2.16208">
        <ele>67.4</ele>
        <time>2022-11-09T13:44:05Z</time>
      </trkpt>
      <trkpt lat="49.92634" lon="2.16208">
        <ele>67.4</ele>
        <time>2022-11-09T13:44:06Z</time>
      </trkpt>
      <trkpt lat="49.92634" lon="2.16208">
        <ele>67.4</ele>
        <time>2022-11-09T13:44:07Z</time>
      </trkpt>
      <trkpt lat="49.92634" lon="2.16208">
        <ele>67.4</ele>
        <time>2022-11-09T13:44:08Z</time>
      </trkpt>
      <trkpt lat="49.92634" lon="2.16208">
        <ele>67.4</ele>
        <time>2022-11-09T13:44:09Z</time>
      </trkpt>
      <trkpt lat="49.92634" lon="2.16208">
        <ele>67.4</ele>
        <time>2022-11-09T13:44:10Z</time>
      </trkpt>
      <trkpt lat="49.92634" lon="2.16208">
        <ele>67.4</ele>
        <time>2022-11-09T13:44:11Z</time>
      </trkpt>
      <trkpt lat="49.92634" lon="2.16208">
        <ele>67.4</ele>
        <time>2022-11-09T13:44:12Z</time>
      </trkpt>
      <trkpt lat="49.92634" lon="2.16208">
        <ele>67.4</ele>
        <time>2022-11-09T13:44:13Z</time>
      </trkpt>
      <trkpt lat="49.92634" lon="2.16208">
        <ele>67.4</ele>
        <time>2022-11-09T13:44:14Z</time>
      </trkpt>
      <trkpt lat="49.92634" lon="2.16208">
        <ele>67.4</ele>
        <time>2022-11-09T13:44:15Z</time>
      </trkpt>
      <trkpt lat="49.92634" lon="2.16208">
        <ele>67.4</ele>
        <time>2022-11-09T13:44:16Z</time>
      </trkpt>
      <trkpt lat="49.92634" lon="2.16208">
        <ele>67.4</ele>
        <time>2022-11-09T13:44:17Z</time>
      </trkpt>
      <trkpt lat="49.92634" lon="2.16208">
        <ele>67.4</ele>
        <time>2022-11-09T13:44:18Z</time>
      </trkpt>
      <trkpt lat="49.92634" lon="2.16208">
        <ele>67.4</ele>
        <time>2022-11-09T13:44:19Z</time>
      </trkpt>
      <trkpt lat="49.92634" lon="2.16208">
        <ele>67.4</ele>
        <time>2022-11-09T13:44:20Z</time>
      </trkpt>
      <trkpt lat="49.92634" lon="2.16208">
        <ele>67.4</ele>
        <time>2022-11-09T13:44:21Z</time>
      </trkpt>
      <trkpt lat="49.92634" lon="2.16208">
        <ele>67.4</ele>
        <time>2022-11-09T13:44:22Z</time>
      </trkpt>
      <trkpt lat="49.92634" lon="2.16208">
        <ele>67.4</ele>
        <time>2022-11-09T13:44:23Z</time>
      </trkpt>
      <trkpt lat="49.92634" lon="2.16208">
        <ele>67.4</ele>
        <time>2022-11-09T13:44:24Z</time>
      </trkpt>
      <trkpt lat="49.92634" lon="2.16208">
        <ele>67.4</ele>
        <time>2022-11-09T13:44:25Z</time>
      </trkpt>
      <trkpt lat="49.92634" lon="2.16208">
        <ele>67.4</ele>
        <time>2022-11-09T13:44:26Z</time>
      </trkpt>
      <trkpt lat="49.92634" lon="2.16208">
        <ele>67.4</ele>
        <time>2022-11-09T13:44:27Z</time>
      </trkpt>
      <trkpt lat="49.92634" lon="2.16208">
        <ele>67.4</ele>
        <time>2022-11-09T13:44:28Z</time>
      </trkpt>
      <trkpt lat="49.92634" lon="2.16208">
        <ele>67.4</ele>
        <time>2022-11-09T13:44:29Z</time>
      </trkpt>
      <trkpt lat="49.92634" lon="2.16208">
        <ele>67.4</ele>
        <time>2022-11-09T13:44:30Z</time>
      </trkpt>
      <trkpt lat="49.92634" lon="2.16208">
        <ele>67.4</ele>
        <time>2022-11-09T13:44:31Z</time>
      </trkpt>
      <trkpt lat="49.92634" lon="2.16208">
        <ele>67.4</ele>
        <time>2022-11-09T13:44:32Z</time>
      </trkpt>
      <trkpt lat="49.92634" lon="2.16208">
        <ele>67.4</ele>
        <time>2022-11-09T13:44:33Z</time>
      </trkpt>
      <trkpt lat="49.92634" lon="2.16208">
        <ele>67.4</ele>
        <time>2022-11-09T13:44:34Z</time>
      </trkpt>
      <trkpt lat="49.92634" lon="2.16208">
        <ele>67.4</ele>
        <time>2022-11-09T13:44:35Z</time>
      </trkpt>
      <trkpt lat="49.92634" lon="2.16208">
        <ele>67.4</ele>
        <time>2022-11-09T13:44:36Z</time>
      </trkpt>
      <trkpt lat="49.92634" lon="2.16208">
        <ele>67.4</ele>
        <time>2022-11-09T13:44:37Z</time>
      </trkpt>
      <trkpt lat="49.92634" lon="2.16208">
        <ele>67.4</ele>
        <time>2022-11-09T13:44:38Z</time>
      </trkpt>
      <trkpt lat="49.92634" lon="2.16208">
        <ele>67.4</ele>
        <time>2022-11-09T13:44:39Z</time>
      </trkpt>
      <trkpt lat="49.92634" lon="2.16208">
        <ele>67.4</ele>
        <time>2022-11-09T13:44:40Z</time>
      </trkpt>
      <trkpt lat="49.92634" lon="2.16208">
        <ele>67.4</ele>
        <time>2022-11-09T13:44:41Z</time>
      </trkpt>
      <trkpt lat="49.92634" lon="2.16208">
        <ele>67.4</ele>
        <time>2022-11-09T13:44:42Z</time>
      </trkpt>
      <trkpt lat="49.92634" lon="2.16208">
        <ele>67.4</ele>
        <time>2022-11-09T13:44:43Z</time>
      </trkpt>
      <trkpt lat="49.92634" lon="2.16208">
        <ele>67.4</ele>
        <time>2022-11-09T13:44:44Z</time>
      </trkpt>
      <trkpt lat="49.92634" lon="2.16208">
        <ele>67.4</ele>
        <time>2022-11-09T13:44:45Z</time>
      </trkpt>
      <trkpt lat="49.92634" lon="2.16208">
        <ele>67.4</ele>
        <time>2022-11-09T13:44:46Z</time>
      </trkpt>
      <trkpt lat="49.92634" lon="2.16208">
        <ele>67.4</ele>
        <time>2022-11-09T13:44:47Z</time>
      </trkpt>
      <trkpt lat="49.92634" lon="2.16208">
        <ele>67.4</ele>
        <time>2022-11-09T13:44:48Z</time>
      </trkpt>
      <trkpt lat="49.92634" lon="2.16208">
        <ele>67.4</ele>
        <time>2022-11-09T13:44:49Z</time>
      </trkpt>
      <trkpt lat="49.92634" lon="2.16208">
        <ele>67.4</ele>
        <time>2022-11-09T13:44:50Z</time>
      </trkpt>
      <trkpt lat="49.92634" lon="2.16208">
        <ele>67.4</ele>
        <time>2022-11-09T13:44:51Z</time>
      </trkpt>
      <trkpt lat="49.92634" lon="2.16208">
        <ele>67.4</ele>
        <time>2022-11-09T13:44:52Z</time>
      </trkpt>
      <trkpt lat="49.92634" lon="2.16208">
        <ele>67.4</ele>
        <time>2022-11-09T13:44:53Z</time>
      </trkpt>
      <trkpt lat="49.92634" lon="2.16208">
        <ele>67.4</ele>
        <time>2022-11-09T13:44:54Z</time>
      </trkpt>
      <trkpt lat="49.92634" lon="2.16208">
        <ele>67.4</ele>
        <time>2022-11-09T13:44:55Z</time>
      </trkpt>
      <trkpt lat="49.92634" lon="2.16208">
        <ele>67.4</ele>
        <time>2022-11-09T13:44:56Z</time>
      </trkpt>
      <trkpt lat="49.92634" lon="2.16208">
        <ele>67.4</ele>
        <time>2022-11-09T13:44:57Z</time>
      </trkpt>
      <trkpt lat="49.92634" lon="2.16208">
        <ele>67.4</ele>
        <time>2022-11-09T13:44:58Z</time>
      </trkpt>
      <trkpt lat="49.92634" lon="2.16208">
        <ele>67.4</ele>
        <time>2022-11-09T13:44:59Z</time>
      </trkpt>
      <trkpt lat="49.92634" lon="2.16208">
        <ele>67.4</ele>
        <time>2022-11-09T13:45:00Z</time>
      </trkpt>
      <trkpt lat="49.92634" lon="2.16208">
        <ele>67.4</ele>
        <time>2022-11-09T13:45:01Z</time>
      </trkpt>
      <trkpt lat="49.92634" lon="2.16208">
        <ele>67.4</ele>
        <time>2022-11-09T13:45:02Z</time>
      </trkpt>
      <trkpt lat="49.92634" lon="2.16208">
        <ele>67.4</ele>
        <time>2022-11-09T13:45:03Z</time>
      </trkpt>
      <trkpt lat="49.92634" lon="2.16208">
        <ele>67.4</ele>
        <time>2022-11-09T13:45:04Z</time>
      </trkpt>
      <trkpt lat="49.92634" lon="2.16208">
        <ele>67.4</ele>
        <time>2022-11-09T13:45:05Z</time>
      </trkpt>
      <trkpt lat="49.92634" lon="2.16208">
        <ele>67.4</ele>
        <time>2022-11-09T13:45:06Z</time>
      </trkpt>
      <trkpt lat="49.92634" lon="2.16208">
        <ele>67.4</ele>
        <time>2022-11-09T13:45:07Z</time>
      </trkpt>
      <trkpt lat="49.92634" lon="2.16208">
        <ele>67.4</ele>
        <time>2022-11-09T13:45:08Z</time>
      </trkpt>
      <trkpt lat="49.92634" lon="2.16208">
        <ele>67.4</ele>
        <time>2022-11-09T13:45:09Z</time>
      </trkpt>
      <trkpt lat="49.92635" lon="2.16208">
        <ele>67.4</ele>
        <time>2022-11-09T13:45:10Z</time>
      </trkpt>
      <trkpt lat="49.92636" lon="2.16208">
        <ele>67.5</ele>
        <time>2022-11-09T13:45:11Z</time>
      </trkpt>
      <trkpt lat="49.92637" lon="2.16207">
        <ele>67.5</ele>
        <time>2022-11-09T13:45:12Z</time>
      </trkpt>
      <trkpt lat="49.92638" lon="2.16207">
        <ele>67.6</ele>
        <time>2022-11-09T13:45:13Z</time>
      </trkpt>
      <trkpt lat="49.92638" lon="2.16206">
        <ele>67.6</ele>
        <time>2022-11-09T13:45:14Z</time>
      </trkpt>
      <trkpt lat="49.92639" lon="2.16206">
        <ele>67.6</ele>
        <time>2022-11-09T13:45:15Z</time>
      </trkpt>
      <trkpt lat="49.92639" lon="2.16205">
        <ele>67.7</ele>
        <time>2022-11-09T13:45:16Z</time>
      </trkpt>
      <trkpt lat="49.9264" lon="2.16204">
        <ele>67.7</ele>
        <time>2022-11-09T13:45:18Z</time>
      </trkpt>
      <trkpt lat="49.9264" lon="2.16204">
        <ele>67.7</ele>
        <time>2022-11-09T13:45:19Z</time>
      </trkpt>
      <trkpt lat="49.92641" lon="2.16201">
        <ele>67.8</ele>
        <time>2022-11-09T13:45:20Z</time>
      </trkpt>
      <trkpt lat="49.92641" lon="2.16199">
        <ele>67.8</ele>
        <time>2022-11-09T13:45:21Z</time>
      </trkpt>
      <trkpt lat="49.92641" lon="2.16198">
        <ele>67.8</ele>
        <time>2022-11-09T13:45:22Z</time>
      </trkpt>
      <trkpt lat="49.92639" lon="2.16196">
        <ele>67.8</ele>
        <time>2022-11-09T13:45:24Z</time>
      </trkpt>
      <trkpt lat="49.92638" lon="2.16194">
        <ele>67.9</ele>
        <time>2022-11-09T13:45:25Z</time>
      </trkpt>
      <trkpt lat="49.92636" lon="2.16191">
        <ele>67.9</ele>
        <time>2022-11-09T13:45:26Z</time>
      </trkpt>
      <trkpt lat="49.92636" lon="2.1619">
        <ele>68</ele>
        <time>2022-11-09T13:45:27Z</time>
      </trkpt>
      <trkpt lat="49.92635" lon="2.16187">
        <ele>68</ele>
        <time>2022-11-09T13:45:28Z</time>
      </trkpt>
      <trkpt lat="49.92634" lon="2.16186">
        <ele>68</ele>
        <time>2022-11-09T13:45:29Z</time>
      </trkpt>
      <trkpt lat="49.92632" lon="2.16183">
        <ele>68</ele>
        <time>2022-11-09T13:45:31Z</time>
      </trkpt>
      <trkpt lat="49.92632" lon="2.16182">
        <ele>68.1</ele>
        <time>2022-11-09T13:45:32Z</time>
      </trkpt>
      <trkpt lat="49.92631" lon="2.16181">
        <ele>68.1</ele>
        <time>2022-11-09T13:45:33Z</time>
      </trkpt>
      <trkpt lat="49.9263" lon="2.16179">
        <ele>68.1</ele>
        <time>2022-11-09T13:45:34Z</time>
      </trkpt>
      <trkpt lat="49.92629" lon="2.16178">
        <ele>68.1</ele>
        <time>2022-11-09T13:45:35Z</time>
      </trkpt>
      <trkpt lat="49.92627" lon="2.16176">
        <ele>68.1</ele>
        <time>2022-11-09T13:45:36Z</time>
      </trkpt>
      <trkpt lat="49.92627" lon="2.16175">
        <ele>68.1</ele>
        <time>2022-11-09T13:45:38Z</time>
      </trkpt>
      <trkpt lat="49.92626" lon="2.16174">
        <ele>68.1</ele>
        <time>2022-11-09T13:45:39Z</time>
      </trkpt>
      <trkpt lat="49.92626" lon="2.16172">
        <ele>68.2</ele>
        <time>2022-11-09T13:45:40Z</time>
      </trkpt>
      <trkpt lat="49.92625" lon="2.16171">
        <ele>68.2</ele>
        <time>2022-11-09T13:45:41Z</time>
      </trkpt>
      <trkpt lat="49.92625" lon="2.1617">
        <ele>68.2</ele>
        <time>2022-11-09T13:45:42Z</time>
      </trkpt>
      <trkpt lat="49.92624" lon="2.16168">
        <ele>68.2</ele>
        <time>2022-11-09T13:45:43Z</time>
      </trkpt>
      <trkpt lat="49.92623" lon="2.16167">
        <ele>68.2</ele>
        <time>2022-11-09T13:45:44Z</time>
      </trkpt>
      <trkpt lat="49.92623" lon="2.16165">
        <ele>68.2</ele>
        <time>2022-11-09T13:45:46Z</time>
      </trkpt>
      <trkpt lat="49.92622" lon="2.16164">
        <ele>68.2</ele>
        <time>2022-11-09T13:45:47Z</time>
      </trkpt>
      <trkpt lat="49.92621" lon="2.16162">
        <ele>68.2</ele>
        <time>2022-11-09T13:45:48Z</time>
      </trkpt>
      <trkpt lat="49.92621" lon="2.16161">
        <ele>68.2</ele>
        <time>2022-11-09T13:45:49Z</time>
      </trkpt>
      <trkpt lat="49.9262" lon="2.1616">
        <ele>68.2</ele>
        <time>2022-11-09T13:45:50Z</time>
      </trkpt>
      <trkpt lat="49.92619" lon="2.16158">
        <ele>68.2</ele>
        <time>2022-11-09T13:45:51Z</time>
      </trkpt>
      <trkpt lat="49.92618" lon="2.16157">
        <ele>68.2</ele>
        <time>2022-11-09T13:45:52Z</time>
      </trkpt>
      <trkpt lat="49.92618" lon="2.16155">
        <ele>68.2</ele>
        <time>2022-11-09T13:45:53Z</time>
      </trkpt>
      <trkpt lat="49.92617" lon="2.16154">
        <ele>68.2</ele>
        <time>2022-11-09T13:45:55Z</time>
      </trkpt>
      <trkpt lat="49.92616" lon="2.16152">
        <ele>68.2</ele>
        <time>2022-11-09T13:45:56Z</time>
      </trkpt>
      <trkpt lat="49.92616" lon="2.16151">
        <ele>68.3</ele>
        <time>2022-11-09T13:45:57Z</time>
      </trkpt>
      <trkpt lat="49.92615" lon="2.1615">
        <ele>68.3</ele>
        <time>2022-11-09T13:45:58Z</time>
      </trkpt>
      <trkpt lat="49.92614" lon="2.16149">
        <ele>68.3</ele>
        <time>2022-11-09T13:45:59Z</time>
      </trkpt>
      <trkpt lat="49.92612" lon="2.16148">
        <ele>68.3</ele>
        <time>2022-11-09T13:46:00Z</time>
      </trkpt>
      <trkpt lat="49.92611" lon="2.16147">
        <ele>68.3</ele>
        <time>2022-11-09T13:46:01Z</time>
      </trkpt>
      <trkpt lat="49.92608" lon="2.16145">
        <ele>68.3</ele>
        <time>2022-11-09T13:46:02Z</time>
      </trkpt>
      <trkpt lat="49.92608" lon="2.16144">
        <ele>68.3</ele>
        <time>2022-11-09T13:46:04Z</time>
      </trkpt>
      <trkpt lat="49.92607" lon="2.16144">
        <ele>68.3</ele>
        <time>2022-11-09T13:46:05Z</time>
      </trkpt>
      <trkpt lat="49.92606" lon="2.16143">
        <ele>68.3</ele>
        <time>2022-11-09T13:46:06Z</time>
      </trkpt>
      <trkpt lat="49.92605" lon="2.16142">
        <ele>68.3</ele>
        <time>2022-11-09T13:46:07Z</time>
      </trkpt>
      <trkpt lat="49.92604" lon="2.16141">
        <ele>68.3</ele>
        <time>2022-11-09T13:46:08Z</time>
      </trkpt>
      <trkpt lat="49.92602" lon="2.16141">
        <ele>68.3</ele>
        <time>2022-11-09T13:46:09Z</time>
      </trkpt>
      <trkpt lat="49.92602" lon="2.16141">
        <ele>68.3</ele>
        <time>2022-11-09T13:46:11Z</time>
      </trkpt>
      <trkpt lat="49.92601" lon="2.1614">
        <ele>68.3</ele>
        <time>2022-11-09T13:46:12Z</time>
      </trkpt>
      <trkpt lat="49.926" lon="2.16139">
        <ele>68.3</ele>
        <time>2022-11-09T13:46:13Z</time>
      </trkpt>
      <trkpt lat="49.92599" lon="2.16139">
        <ele>68.3</ele>
        <time>2022-11-09T13:46:14Z</time>
      </trkpt>
      <trkpt lat="49.92597" lon="2.16136">
        <ele>68.3</ele>
        <time>2022-11-09T13:46:15Z</time>
      </trkpt>
      <trkpt lat="49.92596" lon="2.16135">
        <ele>68.3</ele>
        <time>2022-11-09T13:46:16Z</time>
      </trkpt>
      <trkpt lat="49.92596" lon="2.16134">
        <ele>68.3</ele>
        <time>2022-11-09T13:46:17Z</time>
      </trkpt>
      <trkpt lat="49.92595" lon="2.16133">
        <ele>68.3</ele>
        <time>2022-11-09T13:46:18Z</time>
      </trkpt>
      <trkpt lat="49.92594" lon="2.16131">
        <ele>68.3</ele>
        <time>2022-11-09T13:46:19Z</time>
      </trkpt>
      <trkpt lat="49.92593" lon="2.1613">
        <ele>68.3</ele>
        <time>2022-11-09T13:46:20Z</time>
      </trkpt>
      <trkpt lat="49.92591" lon="2.16128">
        <ele>68.3</ele>
        <time>2022-11-09T13:46:21Z</time>
      </trkpt>
      <trkpt lat="49.92589" lon="2.16125">
        <ele>68.3</ele>
        <time>2022-11-09T13:46:22Z</time>
      </trkpt>
      <trkpt lat="49.92588" lon="2.16123">
        <ele>68.3</ele>
        <time>2022-11-09T13:46:23Z</time>
      </trkpt>
      <trkpt lat="49.92586" lon="2.16121">
        <ele>68.3</ele>
        <time>2022-11-09T13:46:25Z</time>
      </trkpt>
      <trkpt lat="49.92585" lon="2.16119">
        <ele>68.3</ele>
        <time>2022-11-09T13:46:26Z</time>
      </trkpt>
      <trkpt lat="49.92584" lon="2.16118">
        <ele>68.3</ele>
        <time>2022-11-09T13:46:27Z</time>
      </trkpt>
      <trkpt lat="49.92583" lon="2.16116">
        <ele>68.3</ele>
        <time>2022-11-09T13:46:28Z</time>
      </trkpt>
      <trkpt lat="49.92581" lon="2.16112">
        <ele>68.3</ele>
        <time>2022-11-09T13:46:29Z</time>
      </trkpt>
      <trkpt lat="49.9258" lon="2.16111">
        <ele>68.3</ele>
        <time>2022-11-09T13:46:30Z</time>
      </trkpt>
      <trkpt lat="49.92579" lon="2.16109">
        <ele>68.3</ele>
        <time>2022-11-09T13:46:31Z</time>
      </trkpt>
      <trkpt lat="49.92578" lon="2.16108">
        <ele>68.3</ele>
        <time>2022-11-09T13:46:32Z</time>
      </trkpt>
      <trkpt lat="49.92577" lon="2.16106">
        <ele>68.3</ele>
        <time>2022-11-09T13:46:33Z</time>
      </trkpt>
      <trkpt lat="49.92576" lon="2.16104">
        <ele>68.3</ele>
        <time>2022-11-09T13:46:34Z</time>
      </trkpt>
      <trkpt lat="49.92575" lon="2.16103">
        <ele>68.3</ele>
        <time>2022-11-09T13:46:35Z</time>
      </trkpt>
      <trkpt lat="49.92574" lon="2.16101">
        <ele>68.3</ele>
        <time>2022-11-09T13:46:37Z</time>
      </trkpt>
      <trkpt lat="49.92573" lon="2.16099">
        <ele>68.3</ele>
        <time>2022-11-09T13:46:38Z</time>
      </trkpt>
      <trkpt lat="49.92572" lon="2.16097">
        <ele>68.3</ele>
        <time>2022-11-09T13:46:39Z</time>
      </trkpt>
      <trkpt lat="49.92571" lon="2.16096">
        <ele>68.3</ele>
        <time>2022-11-09T13:46:40Z</time>
      </trkpt>
      <trkpt lat="49.9257" lon="2.16094">
        <ele>68.3</ele>
        <time>2022-11-09T13:46:41Z</time>
      </trkpt>
      <trkpt lat="49.92569" lon="2.16092">
        <ele>68.3</ele>
        <time>2022-11-09T13:46:42Z</time>
      </trkpt>
      <trkpt lat="49.92568" lon="2.1609">
        <ele>68.3</ele>
        <time>2022-11-09T13:46:43Z</time>
      </trkpt>
      <trkpt lat="49.92567" lon="2.16088">
        <ele>68.3</ele>
        <time>2022-11-09T13:46:44Z</time>
      </trkpt>
      <trkpt lat="49.92566" lon="2.16087">
        <ele>68.3</ele>
        <time>2022-11-09T13:46:45Z</time>
      </trkpt>
      <trkpt lat="49.92566" lon="2.16086">
        <ele>68.3</ele>
        <time>2022-11-09T13:46:46Z</time>
      </trkpt>
      <trkpt lat="49.92564" lon="2.16084">
        <ele>68.3</ele>
        <time>2022-11-09T13:46:48Z</time>
      </trkpt>
      <trkpt lat="49.92564" lon="2.16083">
        <ele>68.3</ele>
        <time>2022-11-09T13:46:49Z</time>
      </trkpt>
      <trkpt lat="49.92563" lon="2.16082">
        <ele>68.3</ele>
        <time>2022-11-09T13:46:50Z</time>
      </trkpt>
      <trkpt lat="49.92562" lon="2.16079">
        <ele>68.2</ele>
        <time>2022-11-09T13:46:51Z</time>
      </trkpt>
      <trkpt lat="49.92561" lon="2.16078">
        <ele>68.2</ele>
        <time>2022-11-09T13:46:52Z</time>
      </trkpt>
      <trkpt lat="49.9256" lon="2.16076">
        <ele>68.2</ele>
        <time>2022-11-09T13:46:54Z</time>
      </trkpt>
      <trkpt lat="49.92559" lon="2.16075">
        <ele>68.2</ele>
        <time>2022-11-09T13:46:55Z</time>
      </trkpt>
      <trkpt lat="49.92559" lon="2.16074">
        <ele>68.2</ele>
        <time>2022-11-09T13:46:56Z</time>
      </trkpt>
      <trkpt lat="49.92557" lon="2.16072">
        <ele>68.2</ele>
        <time>2022-11-09T13:46:57Z</time>
      </trkpt>
      <trkpt lat="49.92557" lon="2.16071">
        <ele>68.2</ele>
        <time>2022-11-09T13:46:58Z</time>
      </trkpt>
      <trkpt lat="49.92556" lon="2.1607">
        <ele>68.2</ele>
        <time>2022-11-09T13:46:59Z</time>
      </trkpt>
      <trkpt lat="49.92555" lon="2.16069">
        <ele>68.2</ele>
        <time>2022-11-09T13:47:00Z</time>
      </trkpt>
      <trkpt lat="49.92553" lon="2.16067">
        <ele>68.2</ele>
        <time>2022-11-09T13:47:01Z</time>
      </trkpt>
      <trkpt lat="49.92552" lon="2.16066">
        <ele>68.2</ele>
        <time>2022-11-09T13:47:02Z</time>
      </trkpt>
      <trkpt lat="49.92551" lon="2.16065">
        <ele>68.2</ele>
        <time>2022-11-09T13:47:03Z</time>
      </trkpt>
      <trkpt lat="49.9255" lon="2.16062">
        <ele>68.2</ele>
        <time>2022-11-09T13:47:04Z</time>
      </trkpt>
      <trkpt lat="49.92549" lon="2.16061">
        <ele>68.2</ele>
        <time>2022-11-09T13:47:06Z</time>
      </trkpt>
      <trkpt lat="49.92549" lon="2.1606">
        <ele>68.2</ele>
        <time>2022-11-09T13:47:07Z</time>
      </trkpt>
      <trkpt lat="49.92548" lon="2.16059">
        <ele>68.2</ele>
        <time>2022-11-09T13:47:08Z</time>
      </trkpt>
      <trkpt lat="49.92548" lon="2.16058">
        <ele>68.2</ele>
        <time>2022-11-09T13:47:09Z</time>
      </trkpt>
      <trkpt lat="49.92547" lon="2.16056">
        <ele>68.2</ele>
        <time>2022-11-09T13:47:10Z</time>
      </trkpt>
      <trkpt lat="49.92546" lon="2.16054">
        <ele>68.1</ele>
        <time>2022-11-09T13:47:11Z</time>
      </trkpt>
      <trkpt lat="49.92545" lon="2.16052">
        <ele>68.1</ele>
        <time>2022-11-09T13:47:12Z</time>
      </trkpt>
      <trkpt lat="49.92544" lon="2.16051">
        <ele>68.1</ele>
        <time>2022-11-09T13:47:13Z</time>
      </trkpt>
      <trkpt lat="49.92544" lon="2.16049">
        <ele>68.1</ele>
        <time>2022-11-09T13:47:14Z</time>
      </trkpt>
      <trkpt lat="49.92543" lon="2.16048">
        <ele>68.1</ele>
        <time>2022-11-09T13:47:15Z</time>
      </trkpt>
      <trkpt lat="49.92541" lon="2.16045">
        <ele>68.1</ele>
        <time>2022-11-09T13:47:16Z</time>
      </trkpt>
      <trkpt lat="49.92541" lon="2.16045">
        <ele>68.1</ele>
        <time>2022-11-09T13:47:18Z</time>
      </trkpt>
      <trkpt lat="49.9254" lon="2.16044">
        <ele>68.1</ele>
        <time>2022-11-09T13:47:19Z</time>
      </trkpt>
      <trkpt lat="49.92539" lon="2.16042">
        <ele>68.1</ele>
        <time>2022-11-09T13:47:20Z</time>
      </trkpt>
      <trkpt lat="49.92539" lon="2.16041">
        <ele>68.1</ele>
        <time>2022-11-09T13:47:21Z</time>
      </trkpt>
      <trkpt lat="49.92538" lon="2.1604">
        <ele>68.1</ele>
        <time>2022-11-09T13:47:22Z</time>
      </trkpt>
      <trkpt lat="49.92537" lon="2.16038">
        <ele>68.1</ele>
        <time>2022-11-09T13:47:23Z</time>
      </trkpt>
      <trkpt lat="49.92536" lon="2.16037">
        <ele>68.1</ele>
        <time>2022-11-09T13:47:25Z</time>
      </trkpt>
      <trkpt lat="49.92535" lon="2.16036">
        <ele>68.1</ele>
        <time>2022-11-09T13:47:26Z</time>
      </trkpt>
      <trkpt lat="49.92534" lon="2.16034">
        <ele>68.1</ele>
        <time>2022-11-09T13:47:27Z</time>
      </trkpt>
      <trkpt lat="49.92533" lon="2.16033">
        <ele>68.1</ele>
        <time>2022-11-09T13:47:28Z</time>
      </trkpt>
      <trkpt lat="49.92531" lon="2.16031">
        <ele>68.1</ele>
        <time>2022-11-09T13:47:29Z</time>
      </trkpt>
      <trkpt lat="49.92531" lon="2.1603">
        <ele>68</ele>
        <time>2022-11-09T13:47:30Z</time>
      </trkpt>
      <trkpt lat="49.9253" lon="2.1603">
        <ele>68</ele>
        <time>2022-11-09T13:47:31Z</time>
      </trkpt>
      <trkpt lat="49.92529" lon="2.16029">
        <ele>68</ele>
        <time>2022-11-09T13:47:32Z</time>
      </trkpt>
      <trkpt lat="49.92528" lon="2.16027">
        <ele>68</ele>
        <time>2022-11-09T13:47:33Z</time>
      </trkpt>
      <trkpt lat="49.92527" lon="2.16026">
        <ele>68</ele>
        <time>2022-11-09T13:47:35Z</time>
      </trkpt>
      <trkpt lat="49.92526" lon="2.16025">
        <ele>68</ele>
        <time>2022-11-09T13:47:36Z</time>
      </trkpt>
      <trkpt lat="49.92525" lon="2.16024">
        <ele>68</ele>
        <time>2022-11-09T13:47:37Z</time>
      </trkpt>
      <trkpt lat="49.92524" lon="2.16023">
        <ele>68</ele>
        <time>2022-11-09T13:47:38Z</time>
      </trkpt>
      <trkpt lat="49.92523" lon="2.16022">
        <ele>68</ele>
        <time>2022-11-09T13:47:39Z</time>
      </trkpt>
      <trkpt lat="49.92522" lon="2.16021">
        <ele>68</ele>
        <time>2022-11-09T13:47:40Z</time>
      </trkpt>
      <trkpt lat="49.92521" lon="2.16021">
        <ele>68</ele>
        <time>2022-11-09T13:47:41Z</time>
      </trkpt>
      <trkpt lat="49.9252" lon="2.1602">
        <ele>68</ele>
        <time>2022-11-09T13:47:42Z</time>
      </trkpt>
      <trkpt lat="49.92519" lon="2.16019">
        <ele>68</ele>
        <time>2022-11-09T13:47:43Z</time>
      </trkpt>
      <trkpt lat="49.92518" lon="2.16018">
        <ele>68</ele>
        <time>2022-11-09T13:47:45Z</time>
      </trkpt>
      <trkpt lat="49.92518" lon="2.16017">
        <ele>68</ele>
        <time>2022-11-09T13:47:46Z</time>
      </trkpt>
      <trkpt lat="49.92517" lon="2.16016">
        <ele>68</ele>
        <time>2022-11-09T13:47:47Z</time>
      </trkpt>
      <trkpt lat="49.92516" lon="2.16014">
        <ele>68</ele>
        <time>2022-11-09T13:47:48Z</time>
      </trkpt>
      <trkpt lat="49.92514" lon="2.16012">
        <ele>68</ele>
        <time>2022-11-09T13:47:49Z</time>
      </trkpt>
      <trkpt lat="49.92513" lon="2.16011">
        <ele>68</ele>
        <time>2022-11-09T13:47:50Z</time>
      </trkpt>
      <trkpt lat="49.92513" lon="2.16011">
        <ele>68</ele>
        <time>2022-11-09T13:47:51Z</time>
      </trkpt>
      <trkpt lat="49.92511" lon="2.16009">
        <ele>68</ele>
        <time>2022-11-09T13:47:52Z</time>
      </trkpt>
      <trkpt lat="49.9251" lon="2.16007">
        <ele>68</ele>
        <time>2022-11-09T13:47:53Z</time>
      </trkpt>
      <trkpt lat="49.92509" lon="2.16006">
        <ele>68</ele>
        <time>2022-11-09T13:47:54Z</time>
      </trkpt>
      <trkpt lat="49.92508" lon="2.16004">
        <ele>67.9</ele>
        <time>2022-11-09T13:47:55Z</time>
      </trkpt>
      <trkpt lat="49.92507" lon="2.16003">
        <ele>67.9</ele>
        <time>2022-11-09T13:47:56Z</time>
      </trkpt>
      <trkpt lat="49.92506" lon="2.16002">
        <ele>67.9</ele>
        <time>2022-11-09T13:47:58Z</time>
      </trkpt>
      <trkpt lat="49.92506" lon="2.16">
        <ele>67.9</ele>
        <time>2022-11-09T13:47:59Z</time>
      </trkpt>
      <trkpt lat="49.92504" lon="2.15998">
        <ele>67.9</ele>
        <time>2022-11-09T13:48:00Z</time>
      </trkpt>
      <trkpt lat="49.92504" lon="2.15997">
        <ele>67.9</ele>
        <time>2022-11-09T13:48:01Z</time>
      </trkpt>
      <trkpt lat="49.92503" lon="2.15996">
        <ele>67.9</ele>
        <time>2022-11-09T13:48:02Z</time>
      </trkpt>
      <trkpt lat="49.92502" lon="2.15993">
        <ele>67.9</ele>
        <time>2022-11-09T13:48:03Z</time>
      </trkpt>
      <trkpt lat="49.92501" lon="2.15992">
        <ele>67.9</ele>
        <time>2022-11-09T13:48:04Z</time>
      </trkpt>
      <trkpt lat="49.92501" lon="2.15991">
        <ele>67.9</ele>
        <time>2022-11-09T13:48:05Z</time>
      </trkpt>
      <trkpt lat="49.925" lon="2.15989">
        <ele>67.8</ele>
        <time>2022-11-09T13:48:07Z</time>
      </trkpt>
      <trkpt lat="49.92499" lon="2.15988">
        <ele>67.8</ele>
        <time>2022-11-09T13:48:08Z</time>
      </trkpt>
      <trkpt lat="49.92497" lon="2.15986">
        <ele>67.8</ele>
        <time>2022-11-09T13:48:09Z</time>
      </trkpt>
      <trkpt lat="49.92496" lon="2.15985">
        <ele>67.8</ele>
        <time>2022-11-09T13:48:10Z</time>
      </trkpt>
      <trkpt lat="49.92496" lon="2.15984">
        <ele>67.8</ele>
        <time>2022-11-09T13:48:11Z</time>
      </trkpt>
      <trkpt lat="49.92494" lon="2.15982">
        <ele>67.7</ele>
        <time>2022-11-09T13:48:12Z</time>
      </trkpt>
      <trkpt lat="49.92493" lon="2.15981">
        <ele>67.7</ele>
        <time>2022-11-09T13:48:13Z</time>
      </trkpt>
      <trkpt lat="49.92492" lon="2.1598">
        <ele>67.7</ele>
        <time>2022-11-09T13:48:14Z</time>
      </trkpt>
      <trkpt lat="49.92492" lon="2.15978">
        <ele>67.7</ele>
        <time>2022-11-09T13:48:15Z</time>
      </trkpt>
      <trkpt lat="49.92491" lon="2.15976">
        <ele>67.6</ele>
        <time>2022-11-09T13:48:17Z</time>
      </trkpt>
      <trkpt lat="49.92489" lon="2.15974">
        <ele>67.6</ele>
        <time>2022-11-09T13:48:18Z</time>
      </trkpt>
      <trkpt lat="49.92488" lon="2.15973">
        <ele>67.6</ele>
        <time>2022-11-09T13:48:19Z</time>
      </trkpt>
      <trkpt lat="49.92488" lon="2.15972">
        <ele>67.6</ele>
        <time>2022-11-09T13:48:20Z</time>
      </trkpt>
      <trkpt lat="49.92487" lon="2.1597">
        <ele>67.6</ele>
        <time>2022-11-09T13:48:21Z</time>
      </trkpt>
      <trkpt lat="49.92486" lon="2.15968">
        <ele>67.6</ele>
        <time>2022-11-09T13:48:22Z</time>
      </trkpt>
      <trkpt lat="49.92485" lon="2.15966">
        <ele>67.5</ele>
        <time>2022-11-09T13:48:24Z</time>
      </trkpt>
      <trkpt lat="49.92484" lon="2.15965">
        <ele>67.5</ele>
        <time>2022-11-09T13:48:25Z</time>
      </trkpt>
      <trkpt lat="49.92483" lon="2.15963">
        <ele>67.5</ele>
        <time>2022-11-09T13:48:26Z</time>
      </trkpt>
      <trkpt lat="49.92482" lon="2.15961">
        <ele>67.5</ele>
        <time>2022-11-09T13:48:27Z</time>
      </trkpt>
      <trkpt lat="49.92482" lon="2.15959">
        <ele>67.5</ele>
        <time>2022-11-09T13:48:28Z</time>
      </trkpt>
      <trkpt lat="49.92481" lon="2.15957">
        <ele>67.5</ele>
        <time>2022-11-09T13:48:29Z</time>
      </trkpt>
      <trkpt lat="49.9248" lon="2.15955">
        <ele>67.5</ele>
        <time>2022-11-09T13:48:30Z</time>
      </trkpt>
      <trkpt lat="49.92479" lon="2.15954">
        <ele>67.4</ele>
        <time>2022-11-09T13:48:31Z</time>
      </trkpt>
      <trkpt lat="49.92478" lon="2.15952">
        <ele>67.4</ele>
        <time>2022-11-09T13:48:32Z</time>
      </trkpt>
      <trkpt lat="49.92477" lon="2.15951">
        <ele>67.4</ele>
        <time>2022-11-09T13:48:33Z</time>
      </trkpt>
      <trkpt lat="49.92477" lon="2.1595">
        <ele>67.4</ele>
        <time>2022-11-09T13:48:34Z</time>
      </trkpt>
      <trkpt lat="49.92475" lon="2.15947">
        <ele>67.4</ele>
        <time>2022-11-09T13:48:35Z</time>
      </trkpt>
      <trkpt lat="49.92475" lon="2.15946">
        <ele>67.4</ele>
        <time>2022-11-09T13:48:37Z</time>
      </trkpt>
      <trkpt lat="49.92474" lon="2.15945">
        <ele>67.4</ele>
        <time>2022-11-09T13:48:38Z</time>
      </trkpt>
      <trkpt lat="49.92474" lon="2.15943">
        <ele>67.4</ele>
        <time>2022-11-09T13:48:39Z</time>
      </trkpt>
      <trkpt lat="49.92473" lon="2.15942">
        <ele>67.4</ele>
        <time>2022-11-09T13:48:40Z</time>
      </trkpt>
      <trkpt lat="49.92472" lon="2.15941">
        <ele>67.4</ele>
        <time>2022-11-09T13:48:41Z</time>
      </trkpt>
      <trkpt lat="49.92471" lon="2.15939">
        <ele>67.3</ele>
        <time>2022-11-09T13:48:42Z</time>
      </trkpt>
      <trkpt lat="49.9247" lon="2.15938">
        <ele>67.3</ele>
        <time>2022-11-09T13:48:43Z</time>
      </trkpt>
      <trkpt lat="49.92469" lon="2.15936">
        <ele>67.3</ele>
        <time>2022-11-09T13:48:44Z</time>
      </trkpt>
      <trkpt lat="49.92469" lon="2.15935">
        <ele>67.3</ele>
        <time>2022-11-09T13:48:45Z</time>
      </trkpt>
      <trkpt lat="49.92468" lon="2.15934">
        <ele>67.3</ele>
        <time>2022-11-09T13:48:46Z</time>
      </trkpt>
      <trkpt lat="49.92467" lon="2.15933">
        <ele>67.3</ele>
        <time>2022-11-09T13:48:47Z</time>
      </trkpt>
      <trkpt lat="49.92465" lon="2.15931">
        <ele>67.3</ele>
        <time>2022-11-09T13:48:48Z</time>
      </trkpt>
      <trkpt lat="49.92464" lon="2.1593">
        <ele>67.3</ele>
        <time>2022-11-09T13:48:50Z</time>
      </trkpt>
      <trkpt lat="49.92464" lon="2.1593">
        <ele>67.3</ele>
        <time>2022-11-09T13:48:51Z</time>
      </trkpt>
      <trkpt lat="49.92462" lon="2.15928">
        <ele>67.3</ele>
        <time>2022-11-09T13:48:52Z</time>
      </trkpt>
      <trkpt lat="49.92461" lon="2.15927">
        <ele>67.3</ele>
        <time>2022-11-09T13:48:53Z</time>
      </trkpt>
      <trkpt lat="49.9246" lon="2.15926">
        <ele>67.3</ele>
        <time>2022-11-09T13:48:54Z</time>
      </trkpt>
      <trkpt lat="49.92459" lon="2.15925">
        <ele>67.3</ele>
        <time>2022-11-09T13:48:55Z</time>
      </trkpt>
      <trkpt lat="49.92458" lon="2.15924">
        <ele>67.2</ele>
        <time>2022-11-09T13:48:56Z</time>
      </trkpt>
      <trkpt lat="49.92457" lon="2.15922">
        <ele>67.2</ele>
        <time>2022-11-09T13:48:58Z</time>
      </trkpt>
      <trkpt lat="49.92456" lon="2.15921">
        <ele>67.2</ele>
        <time>2022-11-09T13:48:59Z</time>
      </trkpt>
      <trkpt lat="49.92456" lon="2.15919">
        <ele>67.2</ele>
        <time>2022-11-09T13:49:00Z</time>
      </trkpt>
      <trkpt lat="49.92454" lon="2.15917">
        <ele>67.2</ele>
        <time>2022-11-09T13:49:02Z</time>
      </trkpt>
      <trkpt lat="49.92453" lon="2.15914">
        <ele>67.2</ele>
        <time>2022-11-09T13:49:03Z</time>
      </trkpt>
      <trkpt lat="49.92453" lon="2.15913">
        <ele>67.2</ele>
        <time>2022-11-09T13:49:04Z</time>
      </trkpt>
      <trkpt lat="49.92452" lon="2.15912">
        <ele>67.2</ele>
        <time>2022-11-09T13:49:05Z</time>
      </trkpt>
      <trkpt lat="49.92451" lon="2.1591">
        <ele>67.2</ele>
        <time>2022-11-09T13:49:06Z</time>
      </trkpt>
      <trkpt lat="49.9245" lon="2.15909">
        <ele>67.2</ele>
        <time>2022-11-09T13:49:07Z</time>
      </trkpt>
      <trkpt lat="49.9245" lon="2.15908">
        <ele>67.2</ele>
        <time>2022-11-09T13:49:08Z</time>
      </trkpt>
      <trkpt lat="49.92448" lon="2.15906">
        <ele>67.2</ele>
        <time>2022-11-09T13:49:09Z</time>
      </trkpt>
      <trkpt lat="49.92447" lon="2.15905">
        <ele>67.2</ele>
        <time>2022-11-09T13:49:11Z</time>
      </trkpt>
      <trkpt lat="49.92447" lon="2.15904">
        <ele>67.2</ele>
        <time>2022-11-09T13:49:12Z</time>
      </trkpt>
      <trkpt lat="49.92445" lon="2.15902">
        <ele>67.2</ele>
        <time>2022-11-09T13:49:13Z</time>
      </trkpt>
      <trkpt lat="49.92445" lon="2.15901">
        <ele>67.2</ele>
        <time>2022-11-09T13:49:14Z</time>
      </trkpt>
      <trkpt lat="49.92444" lon="2.159">
        <ele>67.2</ele>
        <time>2022-11-09T13:49:15Z</time>
      </trkpt>
      <trkpt lat="49.92442" lon="2.15898">
        <ele>67.2</ele>
        <time>2022-11-09T13:49:16Z</time>
      </trkpt>
      <trkpt lat="49.92441" lon="2.15896">
        <ele>67.2</ele>
        <time>2022-11-09T13:49:17Z</time>
      </trkpt>
      <trkpt lat="49.9244" lon="2.15895">
        <ele>67.2</ele>
        <time>2022-11-09T13:49:18Z</time>
      </trkpt>
      <trkpt lat="49.92439" lon="2.15893">
        <ele>67.2</ele>
        <time>2022-11-09T13:49:19Z</time>
      </trkpt>
      <trkpt lat="49.92438" lon="2.15891">
        <ele>67.2</ele>
        <time>2022-11-09T13:49:20Z</time>
      </trkpt>
      <trkpt lat="49.92437" lon="2.1589">
        <ele>67.2</ele>
        <time>2022-11-09T13:49:21Z</time>
      </trkpt>
      <trkpt lat="49.92437" lon="2.15889">
        <ele>67.2</ele>
        <time>2022-11-09T13:49:22Z</time>
      </trkpt>
      <trkpt lat="49.92435" lon="2.15886">
        <ele>67.2</ele>
        <time>2022-11-09T13:49:23Z</time>
      </trkpt>
      <trkpt lat="49.92434" lon="2.15885">
        <ele>67.2</ele>
        <time>2022-11-09T13:49:25Z</time>
      </trkpt>
      <trkpt lat="49.92433" lon="2.15884">
        <ele>67.2</ele>
        <time>2022-11-09T13:49:26Z</time>
      </trkpt>
      <trkpt lat="49.92432" lon="2.15882">
        <ele>67.2</ele>
        <time>2022-11-09T13:49:27Z</time>
      </trkpt>
      <trkpt lat="49.92432" lon="2.15881">
        <ele>67.2</ele>
        <time>2022-11-09T13:49:28Z</time>
      </trkpt>
      <trkpt lat="49.9243" lon="2.15879">
        <ele>67.2</ele>
        <time>2022-11-09T13:49:29Z</time>
      </trkpt>
      <trkpt lat="49.9243" lon="2.15878">
        <ele>67.2</ele>
        <time>2022-11-09T13:49:30Z</time>
      </trkpt>
      <trkpt lat="49.92429" lon="2.15877">
        <ele>67.2</ele>
        <time>2022-11-09T13:49:31Z</time>
      </trkpt>
      <trkpt lat="49.92427" lon="2.15874">
        <ele>67.2</ele>
        <time>2022-11-09T13:49:32Z</time>
      </trkpt>
      <trkpt lat="49.92427" lon="2.15873">
        <ele>67.2</ele>
        <time>2022-11-09T13:49:33Z</time>
      </trkpt>
      <trkpt lat="49.92426" lon="2.15872">
        <ele>67.2</ele>
        <time>2022-11-09T13:49:34Z</time>
      </trkpt>
      <trkpt lat="49.92425" lon="2.1587">
        <ele>67.2</ele>
        <time>2022-11-09T13:49:36Z</time>
      </trkpt>
      <trkpt lat="49.92424" lon="2.15869">
        <ele>67.2</ele>
        <time>2022-11-09T13:49:37Z</time>
      </trkpt>
      <trkpt lat="49.92423" lon="2.15866">
        <ele>67.2</ele>
        <time>2022-11-09T13:49:38Z</time>
      </trkpt>
      <trkpt lat="49.92422" lon="2.15865">
        <ele>67.2</ele>
        <time>2022-11-09T13:49:39Z</time>
      </trkpt>
      <trkpt lat="49.92421" lon="2.15864">
        <ele>67.2</ele>
        <time>2022-11-09T13:49:40Z</time>
      </trkpt>
      <trkpt lat="49.92421" lon="2.15863">
        <ele>67.2</ele>
        <time>2022-11-09T13:49:41Z</time>
      </trkpt>
      <trkpt lat="49.9242" lon="2.15861">
        <ele>67.2</ele>
        <time>2022-11-09T13:49:42Z</time>
      </trkpt>
      <trkpt lat="49.92419" lon="2.1586">
        <ele>67.2</ele>
        <time>2022-11-09T13:49:43Z</time>
      </trkpt>
      <trkpt lat="49.92418" lon="2.15858">
        <ele>67.2</ele>
        <time>2022-11-09T13:49:45Z</time>
      </trkpt>
      <trkpt lat="49.92417" lon="2.15857">
        <ele>67.2</ele>
        <time>2022-11-09T13:49:46Z</time>
      </trkpt>
      <trkpt lat="49.92417" lon="2.15856">
        <ele>67.2</ele>
        <time>2022-11-09T13:49:47Z</time>
      </trkpt>
      <trkpt lat="49.92416" lon="2.15854">
        <ele>67.2</ele>
        <time>2022-11-09T13:49:48Z</time>
      </trkpt>
      <trkpt lat="49.92415" lon="2.15853">
        <ele>67.2</ele>
        <time>2022-11-09T13:49:49Z</time>
      </trkpt>
      <trkpt lat="49.92414" lon="2.15852">
        <ele>67.2</ele>
        <time>2022-11-09T13:49:50Z</time>
      </trkpt>
      <trkpt lat="49.92413" lon="2.15849">
        <ele>67.3</ele>
        <time>2022-11-09T13:49:51Z</time>
      </trkpt>
      <trkpt lat="49.92412" lon="2.15848">
        <ele>67.3</ele>
        <time>2022-11-09T13:49:52Z</time>
      </trkpt>
      <trkpt lat="49.92412" lon="2.15847">
        <ele>67.3</ele>
        <time>2022-11-09T13:49:53Z</time>
      </trkpt>
      <trkpt lat="49.9241" lon="2.15845">
        <ele>67.3</ele>
        <time>2022-11-09T13:49:55Z</time>
      </trkpt>
      <trkpt lat="49.92409" lon="2.15844">
        <ele>67.3</ele>
        <time>2022-11-09T13:49:56Z</time>
      </trkpt>
      <trkpt lat="49.92408" lon="2.15843">
        <ele>67.3</ele>
        <time>2022-11-09T13:49:57Z</time>
      </trkpt>
      <trkpt lat="49.92407" lon="2.15842">
        <ele>67.3</ele>
        <time>2022-11-09T13:49:58Z</time>
      </trkpt>
      <trkpt lat="49.92406" lon="2.1584">
        <ele>67.3</ele>
        <time>2022-11-09T13:49:59Z</time>
      </trkpt>
      <trkpt lat="49.92405" lon="2.15838">
        <ele>67.3</ele>
        <time>2022-11-09T13:50:00Z</time>
      </trkpt>
      <trkpt lat="49.92404" lon="2.15837">
        <ele>67.3</ele>
        <time>2022-11-09T13:50:01Z</time>
      </trkpt>
      <trkpt lat="49.92403" lon="2.15836">
        <ele>67.3</ele>
        <time>2022-11-09T13:50:03Z</time>
      </trkpt>
      <trkpt lat="49.92402" lon="2.15835">
        <ele>67.3</ele>
        <time>2022-11-09T13:50:04Z</time>
      </trkpt>
      <trkpt lat="49.92401" lon="2.15833">
        <ele>67.3</ele>
        <time>2022-11-09T13:50:05Z</time>
      </trkpt>
      <trkpt lat="49.924" lon="2.15832">
        <ele>67.3</ele>
        <time>2022-11-09T13:50:06Z</time>
      </trkpt>
      <trkpt lat="49.924" lon="2.15831">
        <ele>67.3</ele>
        <time>2022-11-09T13:50:07Z</time>
      </trkpt>
      <trkpt lat="49.92399" lon="2.1583">
        <ele>67.3</ele>
        <time>2022-11-09T13:50:08Z</time>
      </trkpt>
      <trkpt lat="49.92398" lon="2.15829">
        <ele>67.3</ele>
        <time>2022-11-09T13:50:09Z</time>
      </trkpt>
      <trkpt lat="49.92396" lon="2.15826">
        <ele>67.4</ele>
        <time>2022-11-09T13:50:10Z</time>
      </trkpt>
      <trkpt lat="49.92396" lon="2.15825">
        <ele>67.4</ele>
        <time>2022-11-09T13:50:11Z</time>
      </trkpt>
      <trkpt lat="49.92395" lon="2.15824">
        <ele>67.4</ele>
        <time>2022-11-09T13:50:12Z</time>
      </trkpt>
      <trkpt lat="49.92393" lon="2.15822">
        <ele>67.4</ele>
        <time>2022-11-09T13:50:13Z</time>
      </trkpt>
      <trkpt lat="49.92393" lon="2.15821">
        <ele>67.4</ele>
        <time>2022-11-09T13:50:14Z</time>
      </trkpt>
      <trkpt lat="49.92392" lon="2.1582">
        <ele>67.4</ele>
        <time>2022-11-09T13:50:15Z</time>
      </trkpt>
      <trkpt lat="49.92391" lon="2.15819">
        <ele>67.4</ele>
        <time>2022-11-09T13:50:16Z</time>
      </trkpt>
      <trkpt lat="49.92391" lon="2.15817">
        <ele>67.4</ele>
        <time>2022-11-09T13:50:17Z</time>
      </trkpt>
      <trkpt lat="49.9239" lon="2.15816">
        <ele>67.5</ele>
        <time>2022-11-09T13:50:19Z</time>
      </trkpt>
      <trkpt lat="49.92389" lon="2.15815">
        <ele>67.5</ele>
        <time>2022-11-09T13:50:20Z</time>
      </trkpt>
      <trkpt lat="49.92388" lon="2.15813">
        <ele>67.5</ele>
        <time>2022-11-09T13:50:21Z</time>
      </trkpt>
      <trkpt lat="49.92387" lon="2.15812">
        <ele>67.5</ele>
        <time>2022-11-09T13:50:22Z</time>
      </trkpt>
      <trkpt lat="49.92385" lon="2.1581">
        <ele>67.5</ele>
        <time>2022-11-09T13:50:23Z</time>
      </trkpt>
      <trkpt lat="49.92385" lon="2.15809">
        <ele>67.5</ele>
        <time>2022-11-09T13:50:24Z</time>
      </trkpt>
      <trkpt lat="49.92384" lon="2.15808">
        <ele>67.5</ele>
        <time>2022-11-09T13:50:25Z</time>
      </trkpt>
      <trkpt lat="49.92383" lon="2.15807">
        <ele>67.5</ele>
        <time>2022-11-09T13:50:26Z</time>
      </trkpt>
      <trkpt lat="49.92382" lon="2.15804">
        <ele>67.6</ele>
        <time>2022-11-09T13:50:28Z</time>
      </trkpt>
      <trkpt lat="49.92381" lon="2.15803">
        <ele>67.6</ele>
        <time>2022-11-09T13:50:30Z</time>
      </trkpt>
      <trkpt lat="49.9238" lon="2.15801">
        <ele>67.6</ele>
        <time>2022-11-09T13:50:31Z</time>
      </trkpt>
      <trkpt lat="49.92379" lon="2.15799">
        <ele>67.6</ele>
        <time>2022-11-09T13:50:32Z</time>
      </trkpt>
      <trkpt lat="49.92378" lon="2.15798">
        <ele>67.6</ele>
        <time>2022-11-09T13:50:33Z</time>
      </trkpt>
      <trkpt lat="49.92377" lon="2.15796">
        <ele>67.6</ele>
        <time>2022-11-09T13:50:34Z</time>
      </trkpt>
      <trkpt lat="49.92376" lon="2.15794">
        <ele>67.6</ele>
        <time>2022-11-09T13:50:35Z</time>
      </trkpt>
      <trkpt lat="49.92375" lon="2.15793">
        <ele>67.7</ele>
        <time>2022-11-09T13:50:36Z</time>
      </trkpt>
      <trkpt lat="49.92374" lon="2.15791">
        <ele>67.7</ele>
        <time>2022-11-09T13:50:37Z</time>
      </trkpt>
      <trkpt lat="49.92373" lon="2.1579">
        <ele>67.7</ele>
        <time>2022-11-09T13:50:39Z</time>
      </trkpt>
      <trkpt lat="49.92371" lon="2.15788">
        <ele>67.7</ele>
        <time>2022-11-09T13:50:40Z</time>
      </trkpt>
      <trkpt lat="49.92371" lon="2.15787">
        <ele>67.7</ele>
        <time>2022-11-09T13:50:41Z</time>
      </trkpt>
      <trkpt lat="49.9237" lon="2.15786">
        <ele>67.7</ele>
        <time>2022-11-09T13:50:42Z</time>
      </trkpt>
      <trkpt lat="49.92369" lon="2.15783">
        <ele>67.8</ele>
        <time>2022-11-09T13:50:43Z</time>
      </trkpt>
      <trkpt lat="49.92368" lon="2.15783">
        <ele>67.8</ele>
        <time>2022-11-09T13:50:44Z</time>
      </trkpt>
      <trkpt lat="49.92368" lon="2.15782">
        <ele>67.8</ele>
        <time>2022-11-09T13:50:45Z</time>
      </trkpt>
      <trkpt lat="49.92366" lon="2.1578">
        <ele>67.8</ele>
        <time>2022-11-09T13:50:46Z</time>
      </trkpt>
      <trkpt lat="49.92365" lon="2.15778">
        <ele>67.8</ele>
        <time>2022-11-09T13:50:47Z</time>
      </trkpt>
      <trkpt lat="49.92364" lon="2.15776">
        <ele>67.8</ele>
        <time>2022-11-09T13:50:48Z</time>
      </trkpt>
      <trkpt lat="49.92363" lon="2.15775">
        <ele>67.9</ele>
        <time>2022-11-09T13:50:49Z</time>
      </trkpt>
      <trkpt lat="49.92362" lon="2.15774">
        <ele>67.9</ele>
        <time>2022-11-09T13:50:50Z</time>
      </trkpt>
      <trkpt lat="49.92361" lon="2.15772">
        <ele>67.9</ele>
        <time>2022-11-09T13:50:51Z</time>
      </trkpt>
      <trkpt lat="49.9236" lon="2.15771">
        <ele>67.9</ele>
        <time>2022-11-09T13:50:52Z</time>
      </trkpt>
      <trkpt lat="49.9236" lon="2.1577">
        <ele>67.9</ele>
        <time>2022-11-09T13:50:53Z</time>
      </trkpt>
      <trkpt lat="49.92358" lon="2.15768">
        <ele>67.9</ele>
        <time>2022-11-09T13:50:55Z</time>
      </trkpt>
      <trkpt lat="49.92358" lon="2.15767">
        <ele>68</ele>
        <time>2022-11-09T13:50:56Z</time>
      </trkpt>
      <trkpt lat="49.92357" lon="2.15766">
        <ele>68</ele>
        <time>2022-11-09T13:50:57Z</time>
      </trkpt>
      <trkpt lat="49.92356" lon="2.15765">
        <ele>68</ele>
        <time>2022-11-09T13:50:58Z</time>
      </trkpt>
      <trkpt lat="49.92355" lon="2.15764">
        <ele>68</ele>
        <time>2022-11-09T13:50:59Z</time>
      </trkpt>
      <trkpt lat="49.92355" lon="2.15763">
        <ele>68</ele>
        <time>2022-11-09T13:51:00Z</time>
      </trkpt>
      <trkpt lat="49.92354" lon="2.15762">
        <ele>68</ele>
        <time>2022-11-09T13:51:01Z</time>
      </trkpt>
      <trkpt lat="49.92353" lon="2.1576">
        <ele>68</ele>
        <time>2022-11-09T13:51:02Z</time>
      </trkpt>
      <trkpt lat="49.92352" lon="2.15759">
        <ele>68.1</ele>
        <time>2022-11-09T13:51:03Z</time>
      </trkpt>
      <trkpt lat="49.92351" lon="2.15758">
        <ele>68.1</ele>
        <time>2022-11-09T13:51:04Z</time>
      </trkpt>
      <trkpt lat="49.9235" lon="2.15756">
        <ele>68.1</ele>
        <time>2022-11-09T13:51:05Z</time>
      </trkpt>
      <trkpt lat="49.92348" lon="2.15753">
        <ele>68.1</ele>
        <time>2022-11-09T13:51:07Z</time>
      </trkpt>
      <trkpt lat="49.92348" lon="2.15752">
        <ele>68.1</ele>
        <time>2022-11-09T13:51:08Z</time>
      </trkpt>
      <trkpt lat="49.92347" lon="2.15751">
        <ele>68.1</ele>
        <time>2022-11-09T13:51:09Z</time>
      </trkpt>
      <trkpt lat="49.92346" lon="2.15749">
        <ele>68.2</ele>
        <time>2022-11-09T13:51:10Z</time>
      </trkpt>
      <trkpt lat="49.92345" lon="2.15748">
        <ele>68.2</ele>
        <time>2022-11-09T13:51:11Z</time>
      </trkpt>
      <trkpt lat="49.92345" lon="2.15747">
        <ele>68.2</ele>
        <time>2022-11-09T13:51:12Z</time>
      </trkpt>
      <trkpt lat="49.92344" lon="2.15745">
        <ele>68.2</ele>
        <time>2022-11-09T13:51:13Z</time>
      </trkpt>
      <trkpt lat="49.92343" lon="2.15743">
        <ele>68.2</ele>
        <time>2022-11-09T13:51:14Z</time>
      </trkpt>
      <trkpt lat="49.92342" lon="2.15742">
        <ele>68.2</ele>
        <time>2022-11-09T13:51:16Z</time>
      </trkpt>
      <trkpt lat="49.92342" lon="2.15741">
        <ele>68.2</ele>
        <time>2022-11-09T13:51:17Z</time>
      </trkpt>
      <trkpt lat="49.92341" lon="2.15739">
        <ele>68.2</ele>
        <time>2022-11-09T13:51:18Z</time>
      </trkpt>
      <trkpt lat="49.9234" lon="2.15738">
        <ele>68.2</ele>
        <time>2022-11-09T13:51:19Z</time>
      </trkpt>
      <trkpt lat="49.92339" lon="2.15736">
        <ele>68.3</ele>
        <time>2022-11-09T13:51:20Z</time>
      </trkpt>
      <trkpt lat="49.92338" lon="2.15734">
        <ele>68.3</ele>
        <time>2022-11-09T13:51:21Z</time>
      </trkpt>
      <trkpt lat="49.92337" lon="2.15733">
        <ele>68.3</ele>
        <time>2022-11-09T13:51:23Z</time>
      </trkpt>
      <trkpt lat="49.92336" lon="2.1573">
        <ele>68.3</ele>
        <time>2022-11-09T13:51:24Z</time>
      </trkpt>
      <trkpt lat="49.92335" lon="2.15729">
        <ele>68.3</ele>
        <time>2022-11-09T13:51:25Z</time>
      </trkpt>
      <trkpt lat="49.92335" lon="2.15728">
        <ele>68.3</ele>
        <time>2022-11-09T13:51:26Z</time>
      </trkpt>
      <trkpt lat="49.92334" lon="2.15726">
        <ele>68.3</ele>
        <time>2022-11-09T13:51:27Z</time>
      </trkpt>
      <trkpt lat="49.92333" lon="2.15724">
        <ele>68.3</ele>
        <time>2022-11-09T13:51:28Z</time>
      </trkpt>
      <trkpt lat="49.92332" lon="2.15723">
        <ele>68.4</ele>
        <time>2022-11-09T13:51:29Z</time>
      </trkpt>
      <trkpt lat="49.92331" lon="2.15721">
        <ele>68.4</ele>
        <time>2022-11-09T13:51:30Z</time>
      </trkpt>
      <trkpt lat="49.92329" lon="2.15719">
        <ele>68.4</ele>
        <time>2022-11-09T13:51:31Z</time>
      </trkpt>
      <trkpt lat="49.92329" lon="2.15718">
        <ele>68.4</ele>
        <time>2022-11-09T13:51:32Z</time>
      </trkpt>
      <trkpt lat="49.92328" lon="2.15717">
        <ele>68.4</ele>
        <time>2022-11-09T13:51:33Z</time>
      </trkpt>
      <trkpt lat="49.92327" lon="2.15715">
        <ele>68.4</ele>
        <time>2022-11-09T13:51:34Z</time>
      </trkpt>
      <trkpt lat="49.92326" lon="2.15714">
        <ele>68.4</ele>
        <time>2022-11-09T13:51:35Z</time>
      </trkpt>
      <trkpt lat="49.92325" lon="2.15712">
        <ele>68.4</ele>
        <time>2022-11-09T13:51:37Z</time>
      </trkpt>
      <trkpt lat="49.92324" lon="2.15711">
        <ele>68.5</ele>
        <time>2022-11-09T13:51:38Z</time>
      </trkpt>
      <trkpt lat="49.92323" lon="2.15709">
        <ele>68.5</ele>
        <time>2022-11-09T13:51:39Z</time>
      </trkpt>
      <trkpt lat="49.92322" lon="2.15707">
        <ele>68.5</ele>
        <time>2022-11-09T13:51:40Z</time>
      </trkpt>
      <trkpt lat="49.92321" lon="2.15706">
        <ele>68.5</ele>
        <time>2022-11-09T13:51:41Z</time>
      </trkpt>
      <trkpt lat="49.9232" lon="2.15703">
        <ele>68.5</ele>
        <time>2022-11-09T13:51:42Z</time>
      </trkpt>
      <trkpt lat="49.92319" lon="2.15703">
        <ele>68.5</ele>
        <time>2022-11-09T13:51:44Z</time>
      </trkpt>
      <trkpt lat="49.92319" lon="2.15702">
        <ele>68.5</ele>
        <time>2022-11-09T13:51:45Z</time>
      </trkpt>
      <trkpt lat="49.92318" lon="2.157">
        <ele>68.5</ele>
        <time>2022-11-09T13:51:46Z</time>
      </trkpt>
      <trkpt lat="49.92317" lon="2.157">
        <ele>68.5</ele>
        <time>2022-11-09T13:51:47Z</time>
      </trkpt>
      <trkpt lat="49.92316" lon="2.15698">
        <ele>68.5</ele>
        <time>2022-11-09T13:51:48Z</time>
      </trkpt>
      <trkpt lat="49.92314" lon="2.15696">
        <ele>68.5</ele>
        <time>2022-11-09T13:51:49Z</time>
      </trkpt>
      <trkpt lat="49.92314" lon="2.15696">
        <ele>68.6</ele>
        <time>2022-11-09T13:51:50Z</time>
      </trkpt>
      <trkpt lat="49.92313" lon="2.15695">
        <ele>68.6</ele>
        <time>2022-11-09T13:51:51Z</time>
      </trkpt>
      <trkpt lat="49.92311" lon="2.15692">
        <ele>68.6</ele>
        <time>2022-11-09T13:51:52Z</time>
      </trkpt>
      <trkpt lat="49.92311" lon="2.15691">
        <ele>68.6</ele>
        <time>2022-11-09T13:51:53Z</time>
      </trkpt>
      <trkpt lat="49.9231" lon="2.1569">
        <ele>68.6</ele>
        <time>2022-11-09T13:51:54Z</time>
      </trkpt>
      <trkpt lat="49.92308" lon="2.15688">
        <ele>68.6</ele>
        <time>2022-11-09T13:51:56Z</time>
      </trkpt>
      <trkpt lat="49.92308" lon="2.15688">
        <ele>68.6</ele>
        <time>2022-11-09T13:51:57Z</time>
      </trkpt>
      <trkpt lat="49.92307" lon="2.15687">
        <ele>68.6</ele>
        <time>2022-11-09T13:51:58Z</time>
      </trkpt>
      <trkpt lat="49.92306" lon="2.15686">
        <ele>68.6</ele>
        <time>2022-11-09T13:51:59Z</time>
      </trkpt>
      <trkpt lat="49.92305" lon="2.15685">
        <ele>68.6</ele>
        <time>2022-11-09T13:52:00Z</time>
      </trkpt>
      <trkpt lat="49.92304" lon="2.15684">
        <ele>68.7</ele>
        <time>2022-11-09T13:52:01Z</time>
      </trkpt>
      <trkpt lat="49.92303" lon="2.15683">
        <ele>68.7</ele>
        <time>2022-11-09T13:52:02Z</time>
      </trkpt>
      <trkpt lat="49.92302" lon="2.15681">
        <ele>68.7</ele>
        <time>2022-11-09T13:52:03Z</time>
      </trkpt>
      <trkpt lat="49.92301" lon="2.1568">
        <ele>68.7</ele>
        <time>2022-11-09T13:52:04Z</time>
      </trkpt>
      <trkpt lat="49.92301" lon="2.15678">
        <ele>68.7</ele>
        <time>2022-11-09T13:52:05Z</time>
      </trkpt>
      <trkpt lat="49.923" lon="2.15677">
        <ele>68.8</ele>
        <time>2022-11-09T13:52:07Z</time>
      </trkpt>
      <trkpt lat="49.92299" lon="2.15676">
        <ele>68.8</ele>
        <time>2022-11-09T13:52:08Z</time>
      </trkpt>
      <trkpt lat="49.92298" lon="2.15676">
        <ele>68.8</ele>
        <time>2022-11-09T13:52:09Z</time>
      </trkpt>
      <trkpt lat="49.92297" lon="2.15675">
        <ele>68.8</ele>
        <time>2022-11-09T13:52:10Z</time>
      </trkpt>
      <trkpt lat="49.92296" lon="2.15674">
        <ele>68.8</ele>
        <time>2022-11-09T13:52:11Z</time>
      </trkpt>
      <trkpt lat="49.92295" lon="2.15673">
        <ele>68.8</ele>
        <time>2022-11-09T13:52:12Z</time>
      </trkpt>
      <trkpt lat="49.92293" lon="2.15671">
        <ele>68.9</ele>
        <time>2022-11-09T13:52:14Z</time>
      </trkpt>
      <trkpt lat="49.92293" lon="2.1567">
        <ele>68.9</ele>
        <time>2022-11-09T13:52:15Z</time>
      </trkpt>
      <trkpt lat="49.92292" lon="2.15669">
        <ele>68.9</ele>
        <time>2022-11-09T13:52:16Z</time>
      </trkpt>
      <trkpt lat="49.92291" lon="2.15667">
        <ele>68.9</ele>
        <time>2022-11-09T13:52:17Z</time>
      </trkpt>
      <trkpt lat="49.92289" lon="2.15665">
        <ele>68.9</ele>
        <time>2022-11-09T13:52:18Z</time>
      </trkpt>
      <trkpt lat="49.92289" lon="2.15664">
        <ele>69</ele>
        <time>2022-11-09T13:52:19Z</time>
      </trkpt>
      <trkpt lat="49.92288" lon="2.15664">
        <ele>69</ele>
        <time>2022-11-09T13:52:20Z</time>
      </trkpt>
      <trkpt lat="49.92287" lon="2.15662">
        <ele>69</ele>
        <time>2022-11-09T13:52:22Z</time>
      </trkpt>
      <trkpt lat="49.92286" lon="2.15661">
        <ele>69</ele>
        <time>2022-11-09T13:52:23Z</time>
      </trkpt>
      <trkpt lat="49.92285" lon="2.1566">
        <ele>69</ele>
        <time>2022-11-09T13:52:24Z</time>
      </trkpt>
      <trkpt lat="49.92284" lon="2.15658">
        <ele>69.1</ele>
        <time>2022-11-09T13:52:25Z</time>
      </trkpt>
      <trkpt lat="49.92283" lon="2.15657">
        <ele>69.1</ele>
        <time>2022-11-09T13:52:27Z</time>
      </trkpt>
      <trkpt lat="49.92282" lon="2.15655">
        <ele>69.1</ele>
        <time>2022-11-09T13:52:28Z</time>
      </trkpt>
      <trkpt lat="49.92281" lon="2.15654">
        <ele>69.1</ele>
        <time>2022-11-09T13:52:29Z</time>
      </trkpt>
      <trkpt lat="49.9228" lon="2.15653">
        <ele>69.2</ele>
        <time>2022-11-09T13:52:30Z</time>
      </trkpt>
      <trkpt lat="49.92279" lon="2.15652">
        <ele>69.2</ele>
        <time>2022-11-09T13:52:31Z</time>
      </trkpt>
      <trkpt lat="49.92278" lon="2.1565">
        <ele>69.2</ele>
        <time>2022-11-09T13:52:32Z</time>
      </trkpt>
      <trkpt lat="49.92277" lon="2.15648">
        <ele>69.2</ele>
        <time>2022-11-09T13:52:33Z</time>
      </trkpt>
      <trkpt lat="49.92276" lon="2.15647">
        <ele>69.3</ele>
        <time>2022-11-09T13:52:34Z</time>
      </trkpt>
      <trkpt lat="49.92275" lon="2.15645">
        <ele>69.3</ele>
        <time>2022-11-09T13:52:36Z</time>
      </trkpt>
      <trkpt lat="49.92274" lon="2.15644">
        <ele>69.3</ele>
        <time>2022-11-09T13:52:37Z</time>
      </trkpt>
      <trkpt lat="49.92273" lon="2.15643">
        <ele>69.3</ele>
        <time>2022-11-09T13:52:38Z</time>
      </trkpt>
      <trkpt lat="49.92272" lon="2.15641">
        <ele>69.4</ele>
        <time>2022-11-09T13:52:39Z</time>
      </trkpt>
      <trkpt lat="49.92271" lon="2.1564">
        <ele>69.4</ele>
        <time>2022-11-09T13:52:40Z</time>
      </trkpt>
      <trkpt lat="49.9227" lon="2.1564">
        <ele>69.4</ele>
        <time>2022-11-09T13:52:41Z</time>
      </trkpt>
      <trkpt lat="49.92269" lon="2.15638">
        <ele>69.5</ele>
        <time>2022-11-09T13:52:42Z</time>
      </trkpt>
      <trkpt lat="49.92268" lon="2.15637">
        <ele>69.5</ele>
        <time>2022-11-09T13:52:43Z</time>
      </trkpt>
      <trkpt lat="49.92267" lon="2.15635">
        <ele>69.5</ele>
        <time>2022-11-09T13:52:45Z</time>
      </trkpt>
      <trkpt lat="49.92266" lon="2.15634">
        <ele>69.5</ele>
        <time>2022-11-09T13:52:46Z</time>
      </trkpt>
      <trkpt lat="49.92266" lon="2.15633">
        <ele>69.6</ele>
        <time>2022-11-09T13:52:47Z</time>
      </trkpt>
      <trkpt lat="49.92264" lon="2.15631">
        <ele>69.6</ele>
        <time>2022-11-09T13:52:48Z</time>
      </trkpt>
      <trkpt lat="49.92263" lon="2.1563">
        <ele>69.6</ele>
        <time>2022-11-09T13:52:49Z</time>
      </trkpt>
      <trkpt lat="49.92263" lon="2.15629">
        <ele>69.6</ele>
        <time>2022-11-09T13:52:50Z</time>
      </trkpt>
      <trkpt lat="49.92261" lon="2.15627">
        <ele>69.7</ele>
        <time>2022-11-09T13:52:52Z</time>
      </trkpt>
      <trkpt lat="49.9226" lon="2.15625">
        <ele>69.7</ele>
        <time>2022-11-09T13:52:53Z</time>
      </trkpt>
      <trkpt lat="49.92259" lon="2.15623">
        <ele>69.8</ele>
        <time>2022-11-09T13:52:54Z</time>
      </trkpt>
      <trkpt lat="49.92258" lon="2.15622">
        <ele>69.8</ele>
        <time>2022-11-09T13:52:55Z</time>
      </trkpt>
      <trkpt lat="49.92258" lon="2.15621">
        <ele>69.8</ele>
        <time>2022-11-09T13:52:56Z</time>
      </trkpt>
      <trkpt lat="49.92257" lon="2.1562">
        <ele>69.8</ele>
        <time>2022-11-09T13:52:57Z</time>
      </trkpt>
      <trkpt lat="49.92256" lon="2.15619">
        <ele>69.8</ele>
        <time>2022-11-09T13:52:58Z</time>
      </trkpt>
      <trkpt lat="49.92255" lon="2.15617">
        <ele>69.9</ele>
        <time>2022-11-09T13:52:59Z</time>
      </trkpt>
      <trkpt lat="49.92254" lon="2.15616">
        <ele>69.9</ele>
        <time>2022-11-09T13:53:01Z</time>
      </trkpt>
      <trkpt lat="49.92253" lon="2.15614">
        <ele>69.9</ele>
        <time>2022-11-09T13:53:02Z</time>
      </trkpt>
      <trkpt lat="49.92252" lon="2.15612">
        <ele>70</ele>
        <time>2022-11-09T13:53:03Z</time>
      </trkpt>
      <trkpt lat="49.92251" lon="2.15611">
        <ele>70</ele>
        <time>2022-11-09T13:53:04Z</time>
      </trkpt>
      <trkpt lat="49.92251" lon="2.1561">
        <ele>70</ele>
        <time>2022-11-09T13:53:05Z</time>
      </trkpt>
      <trkpt lat="49.92249" lon="2.15608">
        <ele>70</ele>
        <time>2022-11-09T13:53:07Z</time>
      </trkpt>
      <trkpt lat="49.92249" lon="2.15606">
        <ele>70.1</ele>
        <time>2022-11-09T13:53:08Z</time>
      </trkpt>
      <trkpt lat="49.92248" lon="2.15604">
        <ele>70.1</ele>
        <time>2022-11-09T13:53:09Z</time>
      </trkpt>
      <trkpt lat="49.92247" lon="2.15603">
        <ele>70.1</ele>
        <time>2022-11-09T13:53:10Z</time>
      </trkpt>
      <trkpt lat="49.92246" lon="2.15602">
        <ele>70.1</ele>
        <time>2022-11-09T13:53:11Z</time>
      </trkpt>
      <trkpt lat="49.92245" lon="2.156">
        <ele>70.2</ele>
        <time>2022-11-09T13:53:12Z</time>
      </trkpt>
      <trkpt lat="49.92244" lon="2.156">
        <ele>70.2</ele>
        <time>2022-11-09T13:53:13Z</time>
      </trkpt>
      <trkpt lat="49.92243" lon="2.15599">
        <ele>70.2</ele>
        <time>2022-11-09T13:53:14Z</time>
      </trkpt>
      <trkpt lat="49.92242" lon="2.15597">
        <ele>70.2</ele>
        <time>2022-11-09T13:53:15Z</time>
      </trkpt>
      <trkpt lat="49.92241" lon="2.15596">
        <ele>70.3</ele>
        <time>2022-11-09T13:53:17Z</time>
      </trkpt>
      <trkpt lat="49.9224" lon="2.15595">
        <ele>70.3</ele>
        <time>2022-11-09T13:53:18Z</time>
      </trkpt>
      <trkpt lat="49.9224" lon="2.15594">
        <ele>70.3</ele>
        <time>2022-11-09T13:53:19Z</time>
      </trkpt>
      <trkpt lat="49.92239" lon="2.15593">
        <ele>70.3</ele>
        <time>2022-11-09T13:53:20Z</time>
      </trkpt>
      <trkpt lat="49.92238" lon="2.15592">
        <ele>70.3</ele>
        <time>2022-11-09T13:53:21Z</time>
      </trkpt>
      <trkpt lat="49.92236" lon="2.1559">
        <ele>70.4</ele>
        <time>2022-11-09T13:53:22Z</time>
      </trkpt>
      <trkpt lat="49.92236" lon="2.15589">
        <ele>70.4</ele>
        <time>2022-11-09T13:53:23Z</time>
      </trkpt>
      <trkpt lat="49.92235" lon="2.15588">
        <ele>70.4</ele>
        <time>2022-11-09T13:53:24Z</time>
      </trkpt>
      <trkpt lat="49.92234" lon="2.15586">
        <ele>70.5</ele>
        <time>2022-11-09T13:53:26Z</time>
      </trkpt>
      <trkpt lat="49.92233" lon="2.15585">
        <ele>70.5</ele>
        <time>2022-11-09T13:53:27Z</time>
      </trkpt>
      <trkpt lat="49.92232" lon="2.15584">
        <ele>70.5</ele>
        <time>2022-11-09T13:53:28Z</time>
      </trkpt>
      <trkpt lat="49.92231" lon="2.15583">
        <ele>70.5</ele>
        <time>2022-11-09T13:53:29Z</time>
      </trkpt>
      <trkpt lat="49.92231" lon="2.15582">
        <ele>70.5</ele>
        <time>2022-11-09T13:53:30Z</time>
      </trkpt>
      <trkpt lat="49.9223" lon="2.15581">
        <ele>70.6</ele>
        <time>2022-11-09T13:53:31Z</time>
      </trkpt>
      <trkpt lat="49.92229" lon="2.1558">
        <ele>70.6</ele>
        <time>2022-11-09T13:53:32Z</time>
      </trkpt>
      <trkpt lat="49.92228" lon="2.15578">
        <ele>70.6</ele>
        <time>2022-11-09T13:53:33Z</time>
      </trkpt>
      <trkpt lat="49.92227" lon="2.15577">
        <ele>70.6</ele>
        <time>2022-11-09T13:53:34Z</time>
      </trkpt>
      <trkpt lat="49.92226" lon="2.15576">
        <ele>70.7</ele>
        <time>2022-11-09T13:53:35Z</time>
      </trkpt>
      <trkpt lat="49.92225" lon="2.15574">
        <ele>70.7</ele>
        <time>2022-11-09T13:53:37Z</time>
      </trkpt>
      <trkpt lat="49.92224" lon="2.15573">
        <ele>70.7</ele>
        <time>2022-11-09T13:53:38Z</time>
      </trkpt>
      <trkpt lat="49.92223" lon="2.15572">
        <ele>70.7</ele>
        <time>2022-11-09T13:53:39Z</time>
      </trkpt>
      <trkpt lat="49.92222" lon="2.15571">
        <ele>70.8</ele>
        <time>2022-11-09T13:53:40Z</time>
      </trkpt>
      <trkpt lat="49.92221" lon="2.15569">
        <ele>70.8</ele>
        <time>2022-11-09T13:53:41Z</time>
      </trkpt>
      <trkpt lat="49.9222" lon="2.15568">
        <ele>70.8</ele>
        <time>2022-11-09T13:53:42Z</time>
      </trkpt>
      <trkpt lat="49.9222" lon="2.15566">
        <ele>70.8</ele>
        <time>2022-11-09T13:53:44Z</time>
      </trkpt>
      <trkpt lat="49.92219" lon="2.15565">
        <ele>70.9</ele>
        <time>2022-11-09T13:53:45Z</time>
      </trkpt>
      <trkpt lat="49.92218" lon="2.15564">
        <ele>70.9</ele>
        <time>2022-11-09T13:53:46Z</time>
      </trkpt>
      <trkpt lat="49.92217" lon="2.15562">
        <ele>70.9</ele>
        <time>2022-11-09T13:53:47Z</time>
      </trkpt>
      <trkpt lat="49.92216" lon="2.1556">
        <ele>71</ele>
        <time>2022-11-09T13:53:48Z</time>
      </trkpt>
      <trkpt lat="49.92215" lon="2.15559">
        <ele>71</ele>
        <time>2022-11-09T13:53:49Z</time>
      </trkpt>
      <trkpt lat="49.92214" lon="2.15558">
        <ele>71</ele>
        <time>2022-11-09T13:53:50Z</time>
      </trkpt>
      <trkpt lat="49.92213" lon="2.15557">
        <ele>71</ele>
        <time>2022-11-09T13:53:51Z</time>
      </trkpt>
      <trkpt lat="49.92213" lon="2.15556">
        <ele>71.1</ele>
        <time>2022-11-09T13:53:53Z</time>
      </trkpt>
      <trkpt lat="49.92212" lon="2.15554">
        <ele>71.1</ele>
        <time>2022-11-09T13:53:54Z</time>
      </trkpt>
      <trkpt lat="49.92211" lon="2.15553">
        <ele>71.1</ele>
        <time>2022-11-09T13:53:55Z</time>
      </trkpt>
      <trkpt lat="49.9221" lon="2.15552">
        <ele>71.1</ele>
        <time>2022-11-09T13:53:56Z</time>
      </trkpt>
      <trkpt lat="49.9221" lon="2.1555">
        <ele>71.2</ele>
        <time>2022-11-09T13:53:57Z</time>
      </trkpt>
      <trkpt lat="49.92208" lon="2.15548">
        <ele>71.2</ele>
        <time>2022-11-09T13:53:58Z</time>
      </trkpt>
      <trkpt lat="49.92207" lon="2.15547">
        <ele>71.2</ele>
        <time>2022-11-09T13:53:59Z</time>
      </trkpt>
      <trkpt lat="49.92207" lon="2.15546">
        <ele>71.2</ele>
        <time>2022-11-09T13:54:00Z</time>
      </trkpt>
      <trkpt lat="49.92206" lon="2.15545">
        <ele>71.3</ele>
        <time>2022-11-09T13:54:02Z</time>
      </trkpt>
      <trkpt lat="49.92205" lon="2.15544">
        <ele>71.3</ele>
        <time>2022-11-09T13:54:03Z</time>
      </trkpt>
      <trkpt lat="49.92204" lon="2.15543">
        <ele>71.3</ele>
        <time>2022-11-09T13:54:04Z</time>
      </trkpt>
      <trkpt lat="49.92203" lon="2.15542">
        <ele>71.3</ele>
        <time>2022-11-09T13:54:05Z</time>
      </trkpt>
      <trkpt lat="49.92203" lon="2.15541">
        <ele>71.3</ele>
        <time>2022-11-09T13:54:06Z</time>
      </trkpt>
      <trkpt lat="49.92202" lon="2.15539">
        <ele>71.4</ele>
        <time>2022-11-09T13:54:07Z</time>
      </trkpt>
      <trkpt lat="49.92201" lon="2.15538">
        <ele>71.4</ele>
        <time>2022-11-09T13:54:08Z</time>
      </trkpt>
      <trkpt lat="49.922" lon="2.15537">
        <ele>71.4</ele>
        <time>2022-11-09T13:54:10Z</time>
      </trkpt>
      <trkpt lat="49.92199" lon="2.15536">
        <ele>71.4</ele>
        <time>2022-11-09T13:54:11Z</time>
      </trkpt>
      <trkpt lat="49.92199" lon="2.15535">
        <ele>71.5</ele>
        <time>2022-11-09T13:54:12Z</time>
      </trkpt>
      <trkpt lat="49.92198" lon="2.15534">
        <ele>71.5</ele>
        <time>2022-11-09T13:54:13Z</time>
      </trkpt>
      <trkpt lat="49.92197" lon="2.15533">
        <ele>71.5</ele>
        <time>2022-11-09T13:54:14Z</time>
      </trkpt>
      <trkpt lat="49.92196" lon="2.15532">
        <ele>71.5</ele>
        <time>2022-11-09T13:54:15Z</time>
      </trkpt>
      <trkpt lat="49.92195" lon="2.1553">
        <ele>71.5</ele>
        <time>2022-11-09T13:54:16Z</time>
      </trkpt>
      <trkpt lat="49.92195" lon="2.15529">
        <ele>71.6</ele>
        <time>2022-11-09T13:54:17Z</time>
      </trkpt>
      <trkpt lat="49.92193" lon="2.15527">
        <ele>71.6</ele>
        <time>2022-11-09T13:54:18Z</time>
      </trkpt>
      <trkpt lat="49.92193" lon="2.15525">
        <ele>71.6</ele>
        <time>2022-11-09T13:54:19Z</time>
      </trkpt>
      <trkpt lat="49.92192" lon="2.15524">
        <ele>71.6</ele>
        <time>2022-11-09T13:54:20Z</time>
      </trkpt>
      <trkpt lat="49.92191" lon="2.15522">
        <ele>71.7</ele>
        <time>2022-11-09T13:54:21Z</time>
      </trkpt>
      <trkpt lat="49.9219" lon="2.15521">
        <ele>71.7</ele>
        <time>2022-11-09T13:54:23Z</time>
      </trkpt>
      <trkpt lat="49.9219" lon="2.1552">
        <ele>71.7</ele>
        <time>2022-11-09T13:54:24Z</time>
      </trkpt>
      <trkpt lat="49.92188" lon="2.15517">
        <ele>71.7</ele>
        <time>2022-11-09T13:54:25Z</time>
      </trkpt>
      <trkpt lat="49.92188" lon="2.15516">
        <ele>71.8</ele>
        <time>2022-11-09T13:54:26Z</time>
      </trkpt>
      <trkpt lat="49.92187" lon="2.15515">
        <ele>71.8</ele>
        <time>2022-11-09T13:54:27Z</time>
      </trkpt>
      <trkpt lat="49.92186" lon="2.15513">
        <ele>71.8</ele>
        <time>2022-11-09T13:54:28Z</time>
      </trkpt>
      <trkpt lat="49.92185" lon="2.15512">
        <ele>71.8</ele>
        <time>2022-11-09T13:54:30Z</time>
      </trkpt>
      <trkpt lat="49.92184" lon="2.15511">
        <ele>71.9</ele>
        <time>2022-11-09T13:54:31Z</time>
      </trkpt>
      <trkpt lat="49.92183" lon="2.1551">
        <ele>71.9</ele>
        <time>2022-11-09T13:54:32Z</time>
      </trkpt>
      <trkpt lat="49.92182" lon="2.15508">
        <ele>71.9</ele>
        <time>2022-11-09T13:54:33Z</time>
      </trkpt>
      <trkpt lat="49.92181" lon="2.15507">
        <ele>71.9</ele>
        <time>2022-11-09T13:54:35Z</time>
      </trkpt>
      <trkpt lat="49.9218" lon="2.15506">
        <ele>72</ele>
        <time>2022-11-09T13:54:36Z</time>
      </trkpt>
      <trkpt lat="49.92179" lon="2.15505">
        <ele>72</ele>
        <time>2022-11-09T13:54:37Z</time>
      </trkpt>
      <trkpt lat="49.92178" lon="2.15503">
        <ele>72</ele>
        <time>2022-11-09T13:54:38Z</time>
      </trkpt>
      <trkpt lat="49.92177" lon="2.15502">
        <ele>72</ele>
        <time>2022-11-09T13:54:39Z</time>
      </trkpt>
      <trkpt lat="49.92176" lon="2.15501">
        <ele>72</ele>
        <time>2022-11-09T13:54:40Z</time>
      </trkpt>
      <trkpt lat="49.92175" lon="2.15499">
        <ele>72.1</ele>
        <time>2022-11-09T13:54:41Z</time>
      </trkpt>
      <trkpt lat="49.92174" lon="2.15498">
        <ele>72.1</ele>
        <time>2022-11-09T13:54:43Z</time>
      </trkpt>
      <trkpt lat="49.92174" lon="2.15497">
        <ele>72.1</ele>
        <time>2022-11-09T13:54:44Z</time>
      </trkpt>
      <trkpt lat="49.92172" lon="2.15495">
        <ele>72.2</ele>
        <time>2022-11-09T13:54:45Z</time>
      </trkpt>
      <trkpt lat="49.92172" lon="2.15494">
        <ele>72.2</ele>
        <time>2022-11-09T13:54:46Z</time>
      </trkpt>
      <trkpt lat="49.92171" lon="2.15493">
        <ele>72.2</ele>
        <time>2022-11-09T13:54:47Z</time>
      </trkpt>
      <trkpt lat="49.92169" lon="2.15491">
        <ele>72.3</ele>
        <time>2022-11-09T13:54:48Z</time>
      </trkpt>
      <trkpt lat="49.92169" lon="2.1549">
        <ele>72.3</ele>
        <time>2022-11-09T13:54:50Z</time>
      </trkpt>
      <trkpt lat="49.92168" lon="2.15489">
        <ele>72.3</ele>
        <time>2022-11-09T13:54:51Z</time>
      </trkpt>
      <trkpt lat="49.92167" lon="2.15488">
        <ele>72.3</ele>
        <time>2022-11-09T13:54:52Z</time>
      </trkpt>
      <trkpt lat="49.92167" lon="2.15487">
        <ele>72.3</ele>
        <time>2022-11-09T13:54:53Z</time>
      </trkpt>
      <trkpt lat="49.92166" lon="2.15485">
        <ele>72.4</ele>
        <time>2022-11-09T13:54:54Z</time>
      </trkpt>
      <trkpt lat="49.92164" lon="2.15483">
        <ele>72.4</ele>
        <time>2022-11-09T13:54:55Z</time>
      </trkpt>
      <trkpt lat="49.92163" lon="2.15482">
        <ele>72.4</ele>
        <time>2022-11-09T13:54:57Z</time>
      </trkpt>
      <trkpt lat="49.92163" lon="2.15481">
        <ele>72.5</ele>
        <time>2022-11-09T13:54:58Z</time>
      </trkpt>
      <trkpt lat="49.92162" lon="2.1548">
        <ele>72.5</ele>
        <time>2022-11-09T13:54:59Z</time>
      </trkpt>
      <trkpt lat="49.92161" lon="2.15479">
        <ele>72.5</ele>
        <time>2022-11-09T13:55:00Z</time>
      </trkpt>
      <trkpt lat="49.9216" lon="2.15478">
        <ele>72.5</ele>
        <time>2022-11-09T13:55:01Z</time>
      </trkpt>
      <trkpt lat="49.92159" lon="2.15477">
        <ele>72.6</ele>
        <time>2022-11-09T13:55:02Z</time>
      </trkpt>
      <trkpt lat="49.92158" lon="2.15475">
        <ele>72.6</ele>
        <time>2022-11-09T13:55:04Z</time>
      </trkpt>
      <trkpt lat="49.92158" lon="2.15474">
        <ele>72.6</ele>
        <time>2022-11-09T13:55:05Z</time>
      </trkpt>
      <trkpt lat="49.92157" lon="2.15473">
        <ele>72.6</ele>
        <time>2022-11-09T13:55:06Z</time>
      </trkpt>
      <trkpt lat="49.92156" lon="2.15472">
        <ele>72.7</ele>
        <time>2022-11-09T13:55:07Z</time>
      </trkpt>
      <trkpt lat="49.92155" lon="2.15471">
        <ele>72.7</ele>
        <time>2022-11-09T13:55:08Z</time>
      </trkpt>
      <trkpt lat="49.92154" lon="2.15469">
        <ele>72.7</ele>
        <time>2022-11-09T13:55:09Z</time>
      </trkpt>
      <trkpt lat="49.92153" lon="2.15468">
        <ele>72.7</ele>
        <time>2022-11-09T13:55:10Z</time>
      </trkpt>
      <trkpt lat="49.92152" lon="2.15467">
        <ele>72.8</ele>
        <time>2022-11-09T13:55:11Z</time>
      </trkpt>
      <trkpt lat="49.92152" lon="2.15466">
        <ele>72.8</ele>
        <time>2022-11-09T13:55:13Z</time>
      </trkpt>
      <trkpt lat="49.92151" lon="2.15464">
        <ele>72.8</ele>
        <time>2022-11-09T13:55:14Z</time>
      </trkpt>
      <trkpt lat="49.9215" lon="2.15463">
        <ele>72.8</ele>
        <time>2022-11-09T13:55:15Z</time>
      </trkpt>
      <trkpt lat="49.92149" lon="2.15461">
        <ele>72.9</ele>
        <time>2022-11-09T13:55:16Z</time>
      </trkpt>
      <trkpt lat="49.92148" lon="2.1546">
        <ele>72.9</ele>
        <time>2022-11-09T13:55:17Z</time>
      </trkpt>
      <trkpt lat="49.92148" lon="2.15459">
        <ele>72.9</ele>
        <time>2022-11-09T13:55:18Z</time>
      </trkpt>
      <trkpt lat="49.92147" lon="2.15457">
        <ele>73</ele>
        <time>2022-11-09T13:55:20Z</time>
      </trkpt>
      <trkpt lat="49.92146" lon="2.15456">
        <ele>73</ele>
        <time>2022-11-09T13:55:21Z</time>
      </trkpt>
      <trkpt lat="49.92146" lon="2.15455">
        <ele>73</ele>
        <time>2022-11-09T13:55:22Z</time>
      </trkpt>
      <trkpt lat="49.92144" lon="2.15453">
        <ele>73</ele>
        <time>2022-11-09T13:55:23Z</time>
      </trkpt>
      <trkpt lat="49.92144" lon="2.15451">
        <ele>73.1</ele>
        <time>2022-11-09T13:55:24Z</time>
      </trkpt>
      <trkpt lat="49.92144" lon="2.1545">
        <ele>73.1</ele>
        <time>2022-11-09T13:55:25Z</time>
      </trkpt>
      <trkpt lat="49.92143" lon="2.15448">
        <ele>73.1</ele>
        <time>2022-11-09T13:55:26Z</time>
      </trkpt>
      <trkpt lat="49.92142" lon="2.15447">
        <ele>73.1</ele>
        <time>2022-11-09T13:55:27Z</time>
      </trkpt>
      <trkpt lat="49.92142" lon="2.15446">
        <ele>73.2</ele>
        <time>2022-11-09T13:55:29Z</time>
      </trkpt>
      <trkpt lat="49.92141" lon="2.15445">
        <ele>73.2</ele>
        <time>2022-11-09T13:55:30Z</time>
      </trkpt>
      <trkpt lat="49.9214" lon="2.15444">
        <ele>73.2</ele>
        <time>2022-11-09T13:55:31Z</time>
      </trkpt>
      <trkpt lat="49.92139" lon="2.15443">
        <ele>73.2</ele>
        <time>2022-11-09T13:55:32Z</time>
      </trkpt>
      <trkpt lat="49.92138" lon="2.15442">
        <ele>73.3</ele>
        <time>2022-11-09T13:55:33Z</time>
      </trkpt>
      <trkpt lat="49.92137" lon="2.15441">
        <ele>73.3</ele>
        <time>2022-11-09T13:55:34Z</time>
      </trkpt>
      <trkpt lat="49.92136" lon="2.1544">
        <ele>73.3</ele>
        <time>2022-11-09T13:55:35Z</time>
      </trkpt>
      <trkpt lat="49.92135" lon="2.15438">
        <ele>73.3</ele>
        <time>2022-11-09T13:55:36Z</time>
      </trkpt>
      <trkpt lat="49.92134" lon="2.15437">
        <ele>73.4</ele>
        <time>2022-11-09T13:55:37Z</time>
      </trkpt>
      <trkpt lat="49.92133" lon="2.15434">
        <ele>73.4</ele>
        <time>2022-11-09T13:55:38Z</time>
      </trkpt>
      <trkpt lat="49.92132" lon="2.15433">
        <ele>73.4</ele>
        <time>2022-11-09T13:55:39Z</time>
      </trkpt>
      <trkpt lat="49.92132" lon="2.15432">
        <ele>73.5</ele>
        <time>2022-11-09T13:55:40Z</time>
      </trkpt>
      <trkpt lat="49.92131" lon="2.15431">
        <ele>73.5</ele>
        <time>2022-11-09T13:55:42Z</time>
      </trkpt>
      <trkpt lat="49.92129" lon="2.1543">
        <ele>73.5</ele>
        <time>2022-11-09T13:55:43Z</time>
      </trkpt>
      <trkpt lat="49.92128" lon="2.15428">
        <ele>73.5</ele>
        <time>2022-11-09T13:55:44Z</time>
      </trkpt>
      <trkpt lat="49.92127" lon="2.15427">
        <ele>73.6</ele>
        <time>2022-11-09T13:55:45Z</time>
      </trkpt>
      <trkpt lat="49.92126" lon="2.15425">
        <ele>73.6</ele>
        <time>2022-11-09T13:55:46Z</time>
      </trkpt>
      <trkpt lat="49.92125" lon="2.15424">
        <ele>73.6</ele>
        <time>2022-11-09T13:55:47Z</time>
      </trkpt>
      <trkpt lat="49.92124" lon="2.15422">
        <ele>73.6</ele>
        <time>2022-11-09T13:55:48Z</time>
      </trkpt>
      <trkpt lat="49.92123" lon="2.15421">
        <ele>73.7</ele>
        <time>2022-11-09T13:55:49Z</time>
      </trkpt>
      <trkpt lat="49.92122" lon="2.1542">
        <ele>73.7</ele>
        <time>2022-11-09T13:55:51Z</time>
      </trkpt>
      <trkpt lat="49.92121" lon="2.15418">
        <ele>73.7</ele>
        <time>2022-11-09T13:55:52Z</time>
      </trkpt>
      <trkpt lat="49.9212" lon="2.15417">
        <ele>73.7</ele>
        <time>2022-11-09T13:55:53Z</time>
      </trkpt>
      <trkpt lat="49.9212" lon="2.15416">
        <ele>73.7</ele>
        <time>2022-11-09T13:55:54Z</time>
      </trkpt>
      <trkpt lat="49.92118" lon="2.15413">
        <ele>73.8</ele>
        <time>2022-11-09T13:55:55Z</time>
      </trkpt>
      <trkpt lat="49.92118" lon="2.15412">
        <ele>73.8</ele>
        <time>2022-11-09T13:55:56Z</time>
      </trkpt>
      <trkpt lat="49.92117" lon="2.15411">
        <ele>73.8</ele>
        <time>2022-11-09T13:55:57Z</time>
      </trkpt>
      <trkpt lat="49.92116" lon="2.1541">
        <ele>73.8</ele>
        <time>2022-11-09T13:55:58Z</time>
      </trkpt>
      <trkpt lat="49.92115" lon="2.15409">
        <ele>73.8</ele>
        <time>2022-11-09T13:55:59Z</time>
      </trkpt>
      <trkpt lat="49.92115" lon="2.15407">
        <ele>73.8</ele>
        <time>2022-11-09T13:56:01Z</time>
      </trkpt>
      <trkpt lat="49.92113" lon="2.15405">
        <ele>73.9</ele>
        <time>2022-11-09T13:56:02Z</time>
      </trkpt>
      <trkpt lat="49.92113" lon="2.15404">
        <ele>73.9</ele>
        <time>2022-11-09T13:56:03Z</time>
      </trkpt>
      <trkpt lat="49.92112" lon="2.15403">
        <ele>73.9</ele>
        <time>2022-11-09T13:56:04Z</time>
      </trkpt>
      <trkpt lat="49.92111" lon="2.15401">
        <ele>73.9</ele>
        <time>2022-11-09T13:56:05Z</time>
      </trkpt>
      <trkpt lat="49.92111" lon="2.154">
        <ele>73.9</ele>
        <time>2022-11-09T13:56:06Z</time>
      </trkpt>
      <trkpt lat="49.9211" lon="2.15399">
        <ele>74</ele>
        <time>2022-11-09T13:56:07Z</time>
      </trkpt>
      <trkpt lat="49.92109" lon="2.15398">
        <ele>74</ele>
        <time>2022-11-09T13:56:09Z</time>
      </trkpt>
      <trkpt lat="49.92109" lon="2.15397">
        <ele>74</ele>
        <time>2022-11-09T13:56:10Z</time>
      </trkpt>
      <trkpt lat="49.92108" lon="2.15395">
        <ele>74</ele>
        <time>2022-11-09T13:56:11Z</time>
      </trkpt>
      <trkpt lat="49.92107" lon="2.15394">
        <ele>74</ele>
        <time>2022-11-09T13:56:12Z</time>
      </trkpt>
      <trkpt lat="49.92106" lon="2.15392">
        <ele>74</ele>
        <time>2022-11-09T13:56:13Z</time>
      </trkpt>
      <trkpt lat="49.92105" lon="2.1539">
        <ele>74.1</ele>
        <time>2022-11-09T13:56:15Z</time>
      </trkpt>
      <trkpt lat="49.92105" lon="2.15389">
        <ele>74.1</ele>
        <time>2022-11-09T13:56:16Z</time>
      </trkpt>
      <trkpt lat="49.92104" lon="2.15388">
        <ele>74.1</ele>
        <time>2022-11-09T13:56:17Z</time>
      </trkpt>
      <trkpt lat="49.92103" lon="2.15386">
        <ele>74.1</ele>
        <time>2022-11-09T13:56:18Z</time>
      </trkpt>
      <trkpt lat="49.92102" lon="2.15384">
        <ele>74.2</ele>
        <time>2022-11-09T13:56:19Z</time>
      </trkpt>
      <trkpt lat="49.92101" lon="2.15383">
        <ele>74.2</ele>
        <time>2022-11-09T13:56:20Z</time>
      </trkpt>
      <trkpt lat="49.921" lon="2.1538">
        <ele>74.2</ele>
        <time>2022-11-09T13:56:21Z</time>
      </trkpt>
      <trkpt lat="49.92099" lon="2.15379">
        <ele>74.2</ele>
        <time>2022-11-09T13:56:23Z</time>
      </trkpt>
      <trkpt lat="49.92098" lon="2.15377">
        <ele>74.2</ele>
        <time>2022-11-09T13:56:24Z</time>
      </trkpt>
      <trkpt lat="49.92097" lon="2.15376">
        <ele>74.3</ele>
        <time>2022-11-09T13:56:25Z</time>
      </trkpt>
      <trkpt lat="49.92097" lon="2.15375">
        <ele>74.3</ele>
        <time>2022-11-09T13:56:26Z</time>
      </trkpt>
      <trkpt lat="49.92096" lon="2.15374">
        <ele>74.3</ele>
        <time>2022-11-09T13:56:27Z</time>
      </trkpt>
      <trkpt lat="49.92095" lon="2.15373">
        <ele>74.3</ele>
        <time>2022-11-09T13:56:28Z</time>
      </trkpt>
      <trkpt lat="49.92093" lon="2.15371">
        <ele>74.3</ele>
        <time>2022-11-09T13:56:30Z</time>
      </trkpt>
      <trkpt lat="49.92092" lon="2.1537">
        <ele>74.3</ele>
        <time>2022-11-09T13:56:31Z</time>
      </trkpt>
      <trkpt lat="49.92091" lon="2.15368">
        <ele>74.4</ele>
        <time>2022-11-09T13:56:32Z</time>
      </trkpt>
      <trkpt lat="49.9209" lon="2.15367">
        <ele>74.4</ele>
        <time>2022-11-09T13:56:33Z</time>
      </trkpt>
      <trkpt lat="49.92089" lon="2.15365">
        <ele>74.4</ele>
        <time>2022-11-09T13:56:34Z</time>
      </trkpt>
      <trkpt lat="49.92087" lon="2.15363">
        <ele>74.4</ele>
        <time>2022-11-09T13:56:35Z</time>
      </trkpt>
      <trkpt lat="49.92087" lon="2.15362">
        <ele>74.4</ele>
        <time>2022-11-09T13:56:36Z</time>
      </trkpt>
      <trkpt lat="49.92086" lon="2.15361">
        <ele>74.4</ele>
        <time>2022-11-09T13:56:37Z</time>
      </trkpt>
      <trkpt lat="49.92085" lon="2.1536">
        <ele>74.5</ele>
        <time>2022-11-09T13:56:38Z</time>
      </trkpt>
      <trkpt lat="49.92084" lon="2.15358">
        <ele>74.5</ele>
        <time>2022-11-09T13:56:40Z</time>
      </trkpt>
      <trkpt lat="49.92083" lon="2.15357">
        <ele>74.5</ele>
        <time>2022-11-09T13:56:41Z</time>
      </trkpt>
      <trkpt lat="49.92082" lon="2.15355">
        <ele>74.5</ele>
        <time>2022-11-09T13:56:42Z</time>
      </trkpt>
      <trkpt lat="49.92081" lon="2.15354">
        <ele>74.5</ele>
        <time>2022-11-09T13:56:43Z</time>
      </trkpt>
      <trkpt lat="49.9208" lon="2.15352">
        <ele>74.5</ele>
        <time>2022-11-09T13:56:45Z</time>
      </trkpt>
      <trkpt lat="49.92079" lon="2.1535">
        <ele>74.6</ele>
        <time>2022-11-09T13:56:46Z</time>
      </trkpt>
      <trkpt lat="49.92079" lon="2.15349">
        <ele>74.6</ele>
        <time>2022-11-09T13:56:47Z</time>
      </trkpt>
      <trkpt lat="49.92078" lon="2.15348">
        <ele>74.6</ele>
        <time>2022-11-09T13:56:48Z</time>
      </trkpt>
      <trkpt lat="49.92077" lon="2.15347">
        <ele>74.6</ele>
        <time>2022-11-09T13:56:49Z</time>
      </trkpt>
      <trkpt lat="49.92076" lon="2.15345">
        <ele>74.6</ele>
        <time>2022-11-09T13:56:50Z</time>
      </trkpt>
      <trkpt lat="49.92076" lon="2.15344">
        <ele>74.6</ele>
        <time>2022-11-09T13:56:51Z</time>
      </trkpt>
      <trkpt lat="49.92075" lon="2.15342">
        <ele>74.6</ele>
        <time>2022-11-09T13:56:52Z</time>
      </trkpt>
      <trkpt lat="49.92074" lon="2.1534">
        <ele>74.7</ele>
        <time>2022-11-09T13:56:53Z</time>
      </trkpt>
      <trkpt lat="49.92073" lon="2.15339">
        <ele>74.7</ele>
        <time>2022-11-09T13:56:54Z</time>
      </trkpt>
      <trkpt lat="49.92072" lon="2.15337">
        <ele>74.7</ele>
        <time>2022-11-09T13:56:56Z</time>
      </trkpt>
      <trkpt lat="49.92071" lon="2.15335">
        <ele>74.7</ele>
        <time>2022-11-09T13:56:57Z</time>
      </trkpt>
      <trkpt lat="49.92071" lon="2.15334">
        <ele>74.7</ele>
        <time>2022-11-09T13:56:58Z</time>
      </trkpt>
      <trkpt lat="49.9207" lon="2.15333">
        <ele>74.7</ele>
        <time>2022-11-09T13:56:59Z</time>
      </trkpt>
      <trkpt lat="49.92069" lon="2.1533">
        <ele>74.8</ele>
        <time>2022-11-09T13:57:00Z</time>
      </trkpt>
      <trkpt lat="49.92068" lon="2.15329">
        <ele>74.8</ele>
        <time>2022-11-09T13:57:01Z</time>
      </trkpt>
      <trkpt lat="49.92067" lon="2.15328">
        <ele>74.8</ele>
        <time>2022-11-09T13:57:02Z</time>
      </trkpt>
      <trkpt lat="49.92066" lon="2.15325">
        <ele>74.8</ele>
        <time>2022-11-09T13:57:03Z</time>
      </trkpt>
      <trkpt lat="49.92065" lon="2.15324">
        <ele>74.8</ele>
        <time>2022-11-09T13:57:04Z</time>
      </trkpt>
      <trkpt lat="49.92064" lon="2.15323">
        <ele>74.8</ele>
        <time>2022-11-09T13:57:05Z</time>
      </trkpt>
      <trkpt lat="49.92064" lon="2.15322">
        <ele>74.8</ele>
        <time>2022-11-09T13:57:06Z</time>
      </trkpt>
      <trkpt lat="49.92063" lon="2.15321">
        <ele>74.8</ele>
        <time>2022-11-09T13:57:08Z</time>
      </trkpt>
      <trkpt lat="49.92062" lon="2.1532">
        <ele>74.8</ele>
        <time>2022-11-09T13:57:09Z</time>
      </trkpt>
      <trkpt lat="49.92061" lon="2.15317">
        <ele>74.9</ele>
        <time>2022-11-09T13:57:10Z</time>
      </trkpt>
      <trkpt lat="49.9206" lon="2.15316">
        <ele>74.9</ele>
        <time>2022-11-09T13:57:11Z</time>
      </trkpt>
      <trkpt lat="49.92059" lon="2.15315">
        <ele>74.9</ele>
        <time>2022-11-09T13:57:12Z</time>
      </trkpt>
      <trkpt lat="49.92058" lon="2.15314">
        <ele>74.9</ele>
        <time>2022-11-09T13:57:13Z</time>
      </trkpt>
      <trkpt lat="49.92057" lon="2.15312">
        <ele>74.9</ele>
        <time>2022-11-09T13:57:14Z</time>
      </trkpt>
      <trkpt lat="49.92056" lon="2.15311">
        <ele>74.9</ele>
        <time>2022-11-09T13:57:15Z</time>
      </trkpt>
      <trkpt lat="49.92055" lon="2.15309">
        <ele>74.9</ele>
        <time>2022-11-09T13:57:17Z</time>
      </trkpt>
      <trkpt lat="49.92054" lon="2.15307">
        <ele>74.9</ele>
        <time>2022-11-09T13:57:18Z</time>
      </trkpt>
      <trkpt lat="49.92054" lon="2.15306">
        <ele>74.9</ele>
        <time>2022-11-09T13:57:19Z</time>
      </trkpt>
      <trkpt lat="49.92053" lon="2.15305">
        <ele>74.9</ele>
        <time>2022-11-09T13:57:20Z</time>
      </trkpt>
      <trkpt lat="49.92051" lon="2.15303">
        <ele>74.9</ele>
        <time>2022-11-09T13:57:21Z</time>
      </trkpt>
      <trkpt lat="49.92051" lon="2.15302">
        <ele>74.9</ele>
        <time>2022-11-09T13:57:22Z</time>
      </trkpt>
      <trkpt lat="49.9205" lon="2.15301">
        <ele>74.9</ele>
        <time>2022-11-09T13:57:23Z</time>
      </trkpt>
      <trkpt lat="49.92049" lon="2.15299">
        <ele>75</ele>
        <time>2022-11-09T13:57:24Z</time>
      </trkpt>
      <trkpt lat="49.92048" lon="2.15297">
        <ele>75</ele>
        <time>2022-11-09T13:57:25Z</time>
      </trkpt>
      <trkpt lat="49.92047" lon="2.15295">
        <ele>75</ele>
        <time>2022-11-09T13:57:26Z</time>
      </trkpt>
      <trkpt lat="49.92047" lon="2.15293">
        <ele>75</ele>
        <time>2022-11-09T13:57:27Z</time>
      </trkpt>
      <trkpt lat="49.92046" lon="2.15291">
        <ele>75</ele>
        <time>2022-11-09T13:57:29Z</time>
      </trkpt>
      <trkpt lat="49.92045" lon="2.1529">
        <ele>75</ele>
        <time>2022-11-09T13:57:30Z</time>
      </trkpt>
      <trkpt lat="49.92045" lon="2.15289">
        <ele>75</ele>
        <time>2022-11-09T13:57:31Z</time>
      </trkpt>
      <trkpt lat="49.92043" lon="2.15287">
        <ele>75</ele>
        <time>2022-11-09T13:57:32Z</time>
      </trkpt>
      <trkpt lat="49.92043" lon="2.15286">
        <ele>75</ele>
        <time>2022-11-09T13:57:33Z</time>
      </trkpt>
      <trkpt lat="49.92042" lon="2.15285">
        <ele>75</ele>
        <time>2022-11-09T13:57:34Z</time>
      </trkpt>
      <trkpt lat="49.92041" lon="2.15284">
        <ele>75</ele>
        <time>2022-11-09T13:57:35Z</time>
      </trkpt>
      <trkpt lat="49.9204" lon="2.15282">
        <ele>75</ele>
        <time>2022-11-09T13:57:37Z</time>
      </trkpt>
      <trkpt lat="49.92039" lon="2.15281">
        <ele>75</ele>
        <time>2022-11-09T13:57:38Z</time>
      </trkpt>
      <trkpt lat="49.92039" lon="2.1528">
        <ele>75</ele>
        <time>2022-11-09T13:57:39Z</time>
      </trkpt>
      <trkpt lat="49.92038" lon="2.15279">
        <ele>75</ele>
        <time>2022-11-09T13:57:40Z</time>
      </trkpt>
      <trkpt lat="49.92037" lon="2.15278">
        <ele>75</ele>
        <time>2022-11-09T13:57:41Z</time>
      </trkpt>
      <trkpt lat="49.92036" lon="2.15277">
        <ele>75</ele>
        <time>2022-11-09T13:57:42Z</time>
      </trkpt>
      <trkpt lat="49.92034" lon="2.15275">
        <ele>75</ele>
        <time>2022-11-09T13:57:43Z</time>
      </trkpt>
      <trkpt lat="49.92034" lon="2.15274">
        <ele>75</ele>
        <time>2022-11-09T13:57:44Z</time>
      </trkpt>
      <trkpt lat="49.92033" lon="2.15273">
        <ele>75</ele>
        <time>2022-11-09T13:57:45Z</time>
      </trkpt>
      <trkpt lat="49.92032" lon="2.15271">
        <ele>75</ele>
        <time>2022-11-09T13:57:47Z</time>
      </trkpt>
      <trkpt lat="49.92031" lon="2.1527">
        <ele>75</ele>
        <time>2022-11-09T13:57:48Z</time>
      </trkpt>
      <trkpt lat="49.9203" lon="2.15269">
        <ele>75</ele>
        <time>2022-11-09T13:57:49Z</time>
      </trkpt>
      <trkpt lat="49.92029" lon="2.15267">
        <ele>75</ele>
        <time>2022-11-09T13:57:50Z</time>
      </trkpt>
      <trkpt lat="49.92028" lon="2.15266">
        <ele>75</ele>
        <time>2022-11-09T13:57:51Z</time>
      </trkpt>
      <trkpt lat="49.92026" lon="2.15264">
        <ele>75</ele>
        <time>2022-11-09T13:57:52Z</time>
      </trkpt>
      <trkpt lat="49.92026" lon="2.15263">
        <ele>75</ele>
        <time>2022-11-09T13:57:54Z</time>
      </trkpt>
      <trkpt lat="49.92025" lon="2.15262">
        <ele>75</ele>
        <time>2022-11-09T13:57:55Z</time>
      </trkpt>
      <trkpt lat="49.92024" lon="2.15261">
        <ele>75</ele>
        <time>2022-11-09T13:57:56Z</time>
      </trkpt>
      <trkpt lat="49.92023" lon="2.1526">
        <ele>75</ele>
        <time>2022-11-09T13:57:57Z</time>
      </trkpt>
      <trkpt lat="49.92022" lon="2.15258">
        <ele>75</ele>
        <time>2022-11-09T13:57:58Z</time>
      </trkpt>
      <trkpt lat="49.92021" lon="2.15256">
        <ele>75</ele>
        <time>2022-11-09T13:57:59Z</time>
      </trkpt>
      <trkpt lat="49.9202" lon="2.15256">
        <ele>75</ele>
        <time>2022-11-09T13:58:00Z</time>
      </trkpt>
      <trkpt lat="49.92019" lon="2.15255">
        <ele>75</ele>
        <time>2022-11-09T13:58:01Z</time>
      </trkpt>
      <trkpt lat="49.92018" lon="2.15254">
        <ele>75</ele>
        <time>2022-11-09T13:58:03Z</time>
      </trkpt>
      <trkpt lat="49.92017" lon="2.15252">
        <ele>75</ele>
        <time>2022-11-09T13:58:04Z</time>
      </trkpt>
      <trkpt lat="49.92016" lon="2.15252">
        <ele>75</ele>
        <time>2022-11-09T13:58:05Z</time>
      </trkpt>
      <trkpt lat="49.92015" lon="2.15251">
        <ele>75</ele>
        <time>2022-11-09T13:58:06Z</time>
      </trkpt>
      <trkpt lat="49.92014" lon="2.15251">
        <ele>75</ele>
        <time>2022-11-09T13:58:07Z</time>
      </trkpt>
      <trkpt lat="49.92013" lon="2.1525">
        <ele>75</ele>
        <time>2022-11-09T13:58:08Z</time>
      </trkpt>
      <trkpt lat="49.92012" lon="2.15249">
        <ele>75</ele>
        <time>2022-11-09T13:58:09Z</time>
      </trkpt>
      <trkpt lat="49.92011" lon="2.15248">
        <ele>75</ele>
        <time>2022-11-09T13:58:10Z</time>
      </trkpt>
      <trkpt lat="49.92009" lon="2.15245">
        <ele>75</ele>
        <time>2022-11-09T13:58:11Z</time>
      </trkpt>
      <trkpt lat="49.92008" lon="2.15245">
        <ele>75</ele>
        <time>2022-11-09T13:58:12Z</time>
      </trkpt>
      <trkpt lat="49.92008" lon="2.15244">
        <ele>75</ele>
        <time>2022-11-09T13:58:13Z</time>
      </trkpt>
      <trkpt lat="49.92006" lon="2.15242">
        <ele>75</ele>
        <time>2022-11-09T13:58:14Z</time>
      </trkpt>
      <trkpt lat="49.92005" lon="2.15241">
        <ele>75</ele>
        <time>2022-11-09T13:58:16Z</time>
      </trkpt>
      <trkpt lat="49.92005" lon="2.1524">
        <ele>75</ele>
        <time>2022-11-09T13:58:17Z</time>
      </trkpt>
      <trkpt lat="49.92003" lon="2.15238">
        <ele>75</ele>
        <time>2022-11-09T13:58:18Z</time>
      </trkpt>
      <trkpt lat="49.92002" lon="2.15238">
        <ele>75</ele>
        <time>2022-11-09T13:58:19Z</time>
      </trkpt>
      <trkpt lat="49.92002" lon="2.15237">
        <ele>74.9</ele>
        <time>2022-11-09T13:58:20Z</time>
      </trkpt>
      <trkpt lat="49.92001" lon="2.15236">
        <ele>74.9</ele>
        <time>2022-11-09T13:58:21Z</time>
      </trkpt>
      <trkpt lat="49.91999" lon="2.15234">
        <ele>74.9</ele>
        <time>2022-11-09T13:58:23Z</time>
      </trkpt>
      <trkpt lat="49.91998" lon="2.15233">
        <ele>74.9</ele>
        <time>2022-11-09T13:58:24Z</time>
      </trkpt>
      <trkpt lat="49.91998" lon="2.15231">
        <ele>74.9</ele>
        <time>2022-11-09T13:58:25Z</time>
      </trkpt>
      <trkpt lat="49.91997" lon="2.1523">
        <ele>74.9</ele>
        <time>2022-11-09T13:58:26Z</time>
      </trkpt>
      <trkpt lat="49.91996" lon="2.15229">
        <ele>74.9</ele>
        <time>2022-11-09T13:58:27Z</time>
      </trkpt>
      <trkpt lat="49.91995" lon="2.15228">
        <ele>74.9</ele>
        <time>2022-11-09T13:58:28Z</time>
      </trkpt>
      <trkpt lat="49.91994" lon="2.15227">
        <ele>74.9</ele>
        <time>2022-11-09T13:58:29Z</time>
      </trkpt>
      <trkpt lat="49.91992" lon="2.15225">
        <ele>74.9</ele>
        <time>2022-11-09T13:58:30Z</time>
      </trkpt>
      <trkpt lat="49.91991" lon="2.15225">
        <ele>74.9</ele>
        <time>2022-11-09T13:58:31Z</time>
      </trkpt>
      <trkpt lat="49.91991" lon="2.15224">
        <ele>74.9</ele>
        <time>2022-11-09T13:58:32Z</time>
      </trkpt>
      <trkpt lat="49.91989" lon="2.15223">
        <ele>74.9</ele>
        <time>2022-11-09T13:58:33Z</time>
      </trkpt>
      <trkpt lat="49.91988" lon="2.15222">
        <ele>74.9</ele>
        <time>2022-11-09T13:58:35Z</time>
      </trkpt>
      <trkpt lat="49.91987" lon="2.15221">
        <ele>74.9</ele>
        <time>2022-11-09T13:58:36Z</time>
      </trkpt>
      <trkpt lat="49.91987" lon="2.1522">
        <ele>74.9</ele>
        <time>2022-11-09T13:58:37Z</time>
      </trkpt>
      <trkpt lat="49.91986" lon="2.15219">
        <ele>74.8</ele>
        <time>2022-11-09T13:58:38Z</time>
      </trkpt>
      <trkpt lat="49.91984" lon="2.15217">
        <ele>74.8</ele>
        <time>2022-11-09T13:58:39Z</time>
      </trkpt>
      <trkpt lat="49.91983" lon="2.15217">
        <ele>74.8</ele>
        <time>2022-11-09T13:58:40Z</time>
      </trkpt>
      <trkpt lat="49.91983" lon="2.15216">
        <ele>74.8</ele>
        <time>2022-11-09T13:58:41Z</time>
      </trkpt>
      <trkpt lat="49.91982" lon="2.15215">
        <ele>74.8</ele>
        <time>2022-11-09T13:58:42Z</time>
      </trkpt>
      <trkpt lat="49.91981" lon="2.15213">
        <ele>74.8</ele>
        <time>2022-11-09T13:58:44Z</time>
      </trkpt>
      <trkpt lat="49.9198" lon="2.15212">
        <ele>74.8</ele>
        <time>2022-11-09T13:58:45Z</time>
      </trkpt>
      <trkpt lat="49.91979" lon="2.15211">
        <ele>74.8</ele>
        <time>2022-11-09T13:58:46Z</time>
      </trkpt>
      <trkpt lat="49.91979" lon="2.1521">
        <ele>74.7</ele>
        <time>2022-11-09T13:58:47Z</time>
      </trkpt>
      <trkpt lat="49.91978" lon="2.15209">
        <ele>74.7</ele>
        <time>2022-11-09T13:58:48Z</time>
      </trkpt>
      <trkpt lat="49.91976" lon="2.15207">
        <ele>74.7</ele>
        <time>2022-11-09T13:58:49Z</time>
      </trkpt>
      <trkpt lat="49.91976" lon="2.15206">
        <ele>74.7</ele>
        <time>2022-11-09T13:58:50Z</time>
      </trkpt>
      <trkpt lat="49.91975" lon="2.15205">
        <ele>74.7</ele>
        <time>2022-11-09T13:58:51Z</time>
      </trkpt>
      <trkpt lat="49.91974" lon="2.15204">
        <ele>74.7</ele>
        <time>2022-11-09T13:58:52Z</time>
      </trkpt>
      <trkpt lat="49.91973" lon="2.15202">
        <ele>74.6</ele>
        <time>2022-11-09T13:58:53Z</time>
      </trkpt>
      <trkpt lat="49.91972" lon="2.15201">
        <ele>74.6</ele>
        <time>2022-11-09T13:58:54Z</time>
      </trkpt>
      <trkpt lat="49.91971" lon="2.152">
        <ele>74.6</ele>
        <time>2022-11-09T13:58:56Z</time>
      </trkpt>
      <trkpt lat="49.9197" lon="2.15199">
        <ele>74.6</ele>
        <time>2022-11-09T13:58:57Z</time>
      </trkpt>
      <trkpt lat="49.91969" lon="2.15197">
        <ele>74.6</ele>
        <time>2022-11-09T13:58:58Z</time>
      </trkpt>
      <trkpt lat="49.91969" lon="2.15196">
        <ele>74.5</ele>
        <time>2022-11-09T13:58:59Z</time>
      </trkpt>
      <trkpt lat="49.91967" lon="2.15194">
        <ele>74.5</ele>
        <time>2022-11-09T13:59:00Z</time>
      </trkpt>
      <trkpt lat="49.91966" lon="2.15193">
        <ele>74.5</ele>
        <time>2022-11-09T13:59:01Z</time>
      </trkpt>
      <trkpt lat="49.91966" lon="2.15192">
        <ele>74.5</ele>
        <time>2022-11-09T13:59:02Z</time>
      </trkpt>
      <trkpt lat="49.91965" lon="2.15191">
        <ele>74.5</ele>
        <time>2022-11-09T13:59:03Z</time>
      </trkpt>
      <trkpt lat="49.91964" lon="2.15189">
        <ele>74.4</ele>
        <time>2022-11-09T13:59:04Z</time>
      </trkpt>
      <trkpt lat="49.91962" lon="2.15188">
        <ele>74.4</ele>
        <time>2022-11-09T13:59:06Z</time>
      </trkpt>
      <trkpt lat="49.91962" lon="2.15187">
        <ele>74.4</ele>
        <time>2022-11-09T13:59:07Z</time>
      </trkpt>
      <trkpt lat="49.91961" lon="2.15186">
        <ele>74.4</ele>
        <time>2022-11-09T13:59:08Z</time>
      </trkpt>
      <trkpt lat="49.9196" lon="2.15185">
        <ele>74.4</ele>
        <time>2022-11-09T13:59:09Z</time>
      </trkpt>
      <trkpt lat="49.91958" lon="2.15183">
        <ele>74.3</ele>
        <time>2022-11-09T13:59:10Z</time>
      </trkpt>
      <trkpt lat="49.91958" lon="2.15182">
        <ele>74.3</ele>
        <time>2022-11-09T13:59:11Z</time>
      </trkpt>
      <trkpt lat="49.91957" lon="2.15181">
        <ele>74.3</ele>
        <time>2022-11-09T13:59:12Z</time>
      </trkpt>
      <trkpt lat="49.91956" lon="2.1518">
        <ele>74.3</ele>
        <time>2022-11-09T13:59:13Z</time>
      </trkpt>
      <trkpt lat="49.91955" lon="2.15179">
        <ele>74.2</ele>
        <time>2022-11-09T13:59:14Z</time>
      </trkpt>
      <trkpt lat="49.91953" lon="2.15176">
        <ele>74.2</ele>
        <time>2022-11-09T13:59:15Z</time>
      </trkpt>
      <trkpt lat="49.91953" lon="2.15175">
        <ele>74.2</ele>
        <time>2022-11-09T13:59:16Z</time>
      </trkpt>
      <trkpt lat="49.91952" lon="2.15175">
        <ele>74.2</ele>
        <time>2022-11-09T13:59:17Z</time>
      </trkpt>
      <trkpt lat="49.91951" lon="2.15173">
        <ele>74.1</ele>
        <time>2022-11-09T13:59:18Z</time>
      </trkpt>
      <trkpt lat="49.9195" lon="2.15172">
        <ele>74.1</ele>
        <time>2022-11-09T13:59:20Z</time>
      </trkpt>
      <trkpt lat="49.9195" lon="2.15171">
        <ele>74.1</ele>
        <time>2022-11-09T13:59:21Z</time>
      </trkpt>
      <trkpt lat="49.91948" lon="2.1517">
        <ele>74.1</ele>
        <time>2022-11-09T13:59:22Z</time>
      </trkpt>
      <trkpt lat="49.91948" lon="2.15169">
        <ele>74</ele>
        <time>2022-11-09T13:59:23Z</time>
      </trkpt>
      <trkpt lat="49.91947" lon="2.15168">
        <ele>74</ele>
        <time>2022-11-09T13:59:24Z</time>
      </trkpt>
      <trkpt lat="49.91946" lon="2.15168">
        <ele>74</ele>
        <time>2022-11-09T13:59:25Z</time>
      </trkpt>
      <trkpt lat="49.91945" lon="2.15166">
        <ele>74</ele>
        <time>2022-11-09T13:59:26Z</time>
      </trkpt>
      <trkpt lat="49.91944" lon="2.15165">
        <ele>74</ele>
        <time>2022-11-09T13:59:27Z</time>
      </trkpt>
      <trkpt lat="49.91943" lon="2.15165">
        <ele>74</ele>
        <time>2022-11-09T13:59:28Z</time>
      </trkpt>
      <trkpt lat="49.91942" lon="2.15162">
        <ele>73.9</ele>
        <time>2022-11-09T13:59:29Z</time>
      </trkpt>
      <trkpt lat="49.91941" lon="2.15162">
        <ele>73.9</ele>
        <time>2022-11-09T13:59:31Z</time>
      </trkpt>
      <trkpt lat="49.9194" lon="2.15161">
        <ele>73.9</ele>
        <time>2022-11-09T13:59:32Z</time>
      </trkpt>
      <trkpt lat="49.9194" lon="2.1516">
        <ele>73.9</ele>
        <time>2022-11-09T13:59:33Z</time>
      </trkpt>
      <trkpt lat="49.91939" lon="2.15159">
        <ele>73.9</ele>
        <time>2022-11-09T13:59:34Z</time>
      </trkpt>
      <trkpt lat="49.91938" lon="2.15157">
        <ele>73.8</ele>
        <time>2022-11-09T13:59:35Z</time>
      </trkpt>
      <trkpt lat="49.91938" lon="2.15156">
        <ele>73.8</ele>
        <time>2022-11-09T13:59:36Z</time>
      </trkpt>
      <trkpt lat="49.91937" lon="2.15155">
        <ele>73.8</ele>
        <time>2022-11-09T13:59:37Z</time>
      </trkpt>
      <trkpt lat="49.91937" lon="2.15153">
        <ele>73.8</ele>
        <time>2022-11-09T13:59:38Z</time>
      </trkpt>
      <trkpt lat="49.91936" lon="2.15151">
        <ele>73.8</ele>
        <time>2022-11-09T13:59:39Z</time>
      </trkpt>
      <trkpt lat="49.91935" lon="2.15149">
        <ele>73.7</ele>
        <time>2022-11-09T13:59:40Z</time>
      </trkpt>
      <trkpt lat="49.91934" lon="2.15147">
        <ele>73.7</ele>
        <time>2022-11-09T13:59:41Z</time>
      </trkpt>
      <trkpt lat="49.91933" lon="2.15146">
        <ele>73.7</ele>
        <time>2022-11-09T13:59:42Z</time>
      </trkpt>
      <trkpt lat="49.91932" lon="2.15144">
        <ele>73.7</ele>
        <time>2022-11-09T13:59:43Z</time>
      </trkpt>
      <trkpt lat="49.91931" lon="2.15143">
        <ele>73.6</ele>
        <time>2022-11-09T13:59:45Z</time>
      </trkpt>
      <trkpt lat="49.9193" lon="2.15141">
        <ele>73.6</ele>
        <time>2022-11-09T13:59:46Z</time>
      </trkpt>
      <trkpt lat="49.9193" lon="2.1514">
        <ele>73.6</ele>
        <time>2022-11-09T13:59:47Z</time>
      </trkpt>
      <trkpt lat="49.91929" lon="2.15139">
        <ele>73.6</ele>
        <time>2022-11-09T13:59:48Z</time>
      </trkpt>
      <trkpt lat="49.91928" lon="2.15137">
        <ele>73.5</ele>
        <time>2022-11-09T13:59:49Z</time>
      </trkpt>
      <trkpt lat="49.91927" lon="2.15136">
        <ele>73.5</ele>
        <time>2022-11-09T13:59:50Z</time>
      </trkpt>
      <trkpt lat="49.91927" lon="2.15135">
        <ele>73.5</ele>
        <time>2022-11-09T13:59:51Z</time>
      </trkpt>
      <trkpt lat="49.91926" lon="2.15134">
        <ele>73.5</ele>
        <time>2022-11-09T13:59:52Z</time>
      </trkpt>
      <trkpt lat="49.91925" lon="2.15132">
        <ele>73.4</ele>
        <time>2022-11-09T13:59:53Z</time>
      </trkpt>
      <trkpt lat="49.91924" lon="2.15131">
        <ele>73.4</ele>
        <time>2022-11-09T13:59:54Z</time>
      </trkpt>
      <trkpt lat="49.91924" lon="2.15129">
        <ele>73.4</ele>
        <time>2022-11-09T13:59:56Z</time>
      </trkpt>
      <trkpt lat="49.91923" lon="2.15128">
        <ele>73.4</ele>
        <time>2022-11-09T13:59:57Z</time>
      </trkpt>
      <trkpt lat="49.91923" lon="2.15127">
        <ele>73.3</ele>
        <time>2022-11-09T13:59:58Z</time>
      </trkpt>
      <trkpt lat="49.91922" lon="2.15126">
        <ele>73.3</ele>
        <time>2022-11-09T13:59:59Z</time>
      </trkpt>
      <trkpt lat="49.91922" lon="2.15124">
        <ele>73.3</ele>
        <time>2022-11-09T14:00:00Z</time>
      </trkpt>
      <trkpt lat="49.91921" lon="2.15123">
        <ele>73.3</ele>
        <time>2022-11-09T14:00:01Z</time>
      </trkpt>
      <trkpt lat="49.91919" lon="2.15121">
        <ele>73.2</ele>
        <time>2022-11-09T14:00:02Z</time>
      </trkpt>
      <trkpt lat="49.91918" lon="2.1512">
        <ele>73.2</ele>
        <time>2022-11-09T14:00:03Z</time>
      </trkpt>
      <trkpt lat="49.91917" lon="2.15118">
        <ele>73.1</ele>
        <time>2022-11-09T14:00:04Z</time>
      </trkpt>
      <trkpt lat="49.91916" lon="2.15117">
        <ele>73.1</ele>
        <time>2022-11-09T14:00:05Z</time>
      </trkpt>
      <trkpt lat="49.91915" lon="2.15115">
        <ele>73.1</ele>
        <time>2022-11-09T14:00:06Z</time>
      </trkpt>
      <trkpt lat="49.91914" lon="2.15114">
        <ele>73</ele>
        <time>2022-11-09T14:00:08Z</time>
      </trkpt>
      <trkpt lat="49.91913" lon="2.15112">
        <ele>73</ele>
        <time>2022-11-09T14:00:09Z</time>
      </trkpt>
      <trkpt lat="49.91913" lon="2.15111">
        <ele>73</ele>
        <time>2022-11-09T14:00:10Z</time>
      </trkpt>
      <trkpt lat="49.91912" lon="2.1511">
        <ele>73</ele>
        <time>2022-11-09T14:00:11Z</time>
      </trkpt>
      <trkpt lat="49.91911" lon="2.15108">
        <ele>72.9</ele>
        <time>2022-11-09T14:00:12Z</time>
      </trkpt>
      <trkpt lat="49.9191" lon="2.15106">
        <ele>72.9</ele>
        <time>2022-11-09T14:00:13Z</time>
      </trkpt>
      <trkpt lat="49.91909" lon="2.15104">
        <ele>72.8</ele>
        <time>2022-11-09T14:00:14Z</time>
      </trkpt>
      <trkpt lat="49.91908" lon="2.15103">
        <ele>72.8</ele>
        <time>2022-11-09T14:00:15Z</time>
      </trkpt>
      <trkpt lat="49.91907" lon="2.15101">
        <ele>72.7</ele>
        <time>2022-11-09T14:00:16Z</time>
      </trkpt>
      <trkpt lat="49.91906" lon="2.15099">
        <ele>72.7</ele>
        <time>2022-11-09T14:00:17Z</time>
      </trkpt>
      <trkpt lat="49.91904" lon="2.15097">
        <ele>72.6</ele>
        <time>2022-11-09T14:00:18Z</time>
      </trkpt>
      <trkpt lat="49.91904" lon="2.15096">
        <ele>72.6</ele>
        <time>2022-11-09T14:00:20Z</time>
      </trkpt>
      <trkpt lat="49.91903" lon="2.15095">
        <ele>72.6</ele>
        <time>2022-11-09T14:00:21Z</time>
      </trkpt>
      <trkpt lat="49.91903" lon="2.15094">
        <ele>72.6</ele>
        <time>2022-11-09T14:00:22Z</time>
      </trkpt>
      <trkpt lat="49.91902" lon="2.15093">
        <ele>72.5</ele>
        <time>2022-11-09T14:00:23Z</time>
      </trkpt>
      <trkpt lat="49.91901" lon="2.15091">
        <ele>72.5</ele>
        <time>2022-11-09T14:00:24Z</time>
      </trkpt>
      <trkpt lat="49.919" lon="2.15088">
        <ele>72.4</ele>
        <time>2022-11-09T14:00:25Z</time>
      </trkpt>
      <trkpt lat="49.91899" lon="2.15087">
        <ele>72.4</ele>
        <time>2022-11-09T14:00:26Z</time>
      </trkpt>
      <trkpt lat="49.91899" lon="2.15086">
        <ele>72.4</ele>
        <time>2022-11-09T14:00:27Z</time>
      </trkpt>
      <trkpt lat="49.91898" lon="2.15084">
        <ele>72.3</ele>
        <time>2022-11-09T14:00:28Z</time>
      </trkpt>
      <trkpt lat="49.91897" lon="2.15083">
        <ele>72.3</ele>
        <time>2022-11-09T14:00:30Z</time>
      </trkpt>
      <trkpt lat="49.91897" lon="2.15082">
        <ele>72.3</ele>
        <time>2022-11-09T14:00:31Z</time>
      </trkpt>
      <trkpt lat="49.91896" lon="2.1508">
        <ele>72.2</ele>
        <time>2022-11-09T14:00:32Z</time>
      </trkpt>
      <trkpt lat="49.91895" lon="2.15079">
        <ele>72.2</ele>
        <time>2022-11-09T14:00:33Z</time>
      </trkpt>
      <trkpt lat="49.91895" lon="2.15078">
        <ele>72.2</ele>
        <time>2022-11-09T14:00:34Z</time>
      </trkpt>
      <trkpt lat="49.91894" lon="2.15076">
        <ele>72.1</ele>
        <time>2022-11-09T14:00:35Z</time>
      </trkpt>
      <trkpt lat="49.91893" lon="2.15074">
        <ele>72.1</ele>
        <time>2022-11-09T14:00:37Z</time>
      </trkpt>
      <trkpt lat="49.91892" lon="2.15073">
        <ele>72</ele>
        <time>2022-11-09T14:00:38Z</time>
      </trkpt>
      <trkpt lat="49.91891" lon="2.15071">
        <ele>72</ele>
        <time>2022-11-09T14:00:39Z</time>
      </trkpt>
      <trkpt lat="49.9189" lon="2.15069">
        <ele>71.9</ele>
        <time>2022-11-09T14:00:41Z</time>
      </trkpt>
      <trkpt lat="49.91889" lon="2.15068">
        <ele>71.9</ele>
        <time>2022-11-09T14:00:42Z</time>
      </trkpt>
      <trkpt lat="49.91888" lon="2.15067">
        <ele>71.9</ele>
        <time>2022-11-09T14:00:43Z</time>
      </trkpt>
      <trkpt lat="49.91888" lon="2.15065">
        <ele>71.8</ele>
        <time>2022-11-09T14:00:44Z</time>
      </trkpt>
      <trkpt lat="49.91887" lon="2.15063">
        <ele>71.8</ele>
        <time>2022-11-09T14:00:45Z</time>
      </trkpt>
      <trkpt lat="49.91886" lon="2.15061">
        <ele>71.8</ele>
        <time>2022-11-09T14:00:46Z</time>
      </trkpt>
      <trkpt lat="49.91886" lon="2.15059">
        <ele>71.7</ele>
        <time>2022-11-09T14:00:47Z</time>
      </trkpt>
      <trkpt lat="49.91885" lon="2.15057">
        <ele>71.7</ele>
        <time>2022-11-09T14:00:48Z</time>
      </trkpt>
      <trkpt lat="49.91883" lon="2.15055">
        <ele>71.6</ele>
        <time>2022-11-09T14:00:49Z</time>
      </trkpt>
      <trkpt lat="49.91883" lon="2.15054">
        <ele>71.6</ele>
        <time>2022-11-09T14:00:51Z</time>
      </trkpt>
      <trkpt lat="49.91882" lon="2.15053">
        <ele>71.6</ele>
        <time>2022-11-09T14:00:52Z</time>
      </trkpt>
      <trkpt lat="49.91882" lon="2.15052">
        <ele>71.5</ele>
        <time>2022-11-09T14:00:53Z</time>
      </trkpt>
      <trkpt lat="49.91881" lon="2.15051">
        <ele>71.5</ele>
        <time>2022-11-09T14:00:54Z</time>
      </trkpt>
      <trkpt lat="49.9188" lon="2.1505">
        <ele>71.5</ele>
        <time>2022-11-09T14:00:55Z</time>
      </trkpt>
      <trkpt lat="49.91878" lon="2.15047">
        <ele>71.4</ele>
        <time>2022-11-09T14:00:56Z</time>
      </trkpt>
      <trkpt lat="49.91878" lon="2.15046">
        <ele>71.4</ele>
        <time>2022-11-09T14:00:57Z</time>
      </trkpt>
      <trkpt lat="49.91877" lon="2.15045">
        <ele>71.3</ele>
        <time>2022-11-09T14:00:58Z</time>
      </trkpt>
      <trkpt lat="49.91876" lon="2.15044">
        <ele>71.3</ele>
        <time>2022-11-09T14:01:00Z</time>
      </trkpt>
      <trkpt lat="49.91875" lon="2.15043">
        <ele>71.3</ele>
        <time>2022-11-09T14:01:01Z</time>
      </trkpt>
      <trkpt lat="49.91875" lon="2.15042">
        <ele>71.2</ele>
        <time>2022-11-09T14:01:02Z</time>
      </trkpt>
      <trkpt lat="49.91873" lon="2.15039">
        <ele>71.2</ele>
        <time>2022-11-09T14:01:03Z</time>
      </trkpt>
      <trkpt lat="49.91873" lon="2.15038">
        <ele>71.2</ele>
        <time>2022-11-09T14:01:04Z</time>
      </trkpt>
      <trkpt lat="49.91872" lon="2.15037">
        <ele>71.1</ele>
        <time>2022-11-09T14:01:05Z</time>
      </trkpt>
      <trkpt lat="49.91871" lon="2.15035">
        <ele>71.1</ele>
        <time>2022-11-09T14:01:06Z</time>
      </trkpt>
      <trkpt lat="49.91871" lon="2.15033">
        <ele>71.1</ele>
        <time>2022-11-09T14:01:07Z</time>
      </trkpt>
      <trkpt lat="49.9187" lon="2.15032">
        <ele>71</ele>
        <time>2022-11-09T14:01:09Z</time>
      </trkpt>
      <trkpt lat="49.91869" lon="2.15031">
        <ele>71</ele>
        <time>2022-11-09T14:01:10Z</time>
      </trkpt>
      <trkpt lat="49.91869" lon="2.15029">
        <ele>71</ele>
        <time>2022-11-09T14:01:11Z</time>
      </trkpt>
      <trkpt lat="49.91868" lon="2.15028">
        <ele>71</ele>
        <time>2022-11-09T14:01:12Z</time>
      </trkpt>
      <trkpt lat="49.91868" lon="2.15026">
        <ele>70.9</ele>
        <time>2022-11-09T14:01:13Z</time>
      </trkpt>
      <trkpt lat="49.91867" lon="2.15025">
        <ele>70.9</ele>
        <time>2022-11-09T14:01:15Z</time>
      </trkpt>
      <trkpt lat="49.91867" lon="2.15024">
        <ele>70.9</ele>
        <time>2022-11-09T14:01:16Z</time>
      </trkpt>
      <trkpt lat="49.91866" lon="2.15022">
        <ele>70.9</ele>
        <time>2022-11-09T14:01:17Z</time>
      </trkpt>
      <trkpt lat="49.91865" lon="2.15021">
        <ele>70.8</ele>
        <time>2022-11-09T14:01:18Z</time>
      </trkpt>
      <trkpt lat="49.91865" lon="2.15019">
        <ele>70.8</ele>
        <time>2022-11-09T14:01:20Z</time>
      </trkpt>
      <trkpt lat="49.91865" lon="2.15018">
        <ele>70.8</ele>
        <time>2022-11-09T14:01:21Z</time>
      </trkpt>
      <trkpt lat="49.91864" lon="2.15017">
        <ele>70.8</ele>
        <time>2022-11-09T14:01:22Z</time>
      </trkpt>
      <trkpt lat="49.91864" lon="2.15017">
        <ele>70.7</ele>
        <time>2022-11-09T14:01:23Z</time>
      </trkpt>
      <trkpt lat="49.91863" lon="2.15017">
        <ele>70.7</ele>
        <time>2022-11-09T14:01:24Z</time>
      </trkpt>
      <trkpt lat="49.91863" lon="2.15016">
        <ele>70.7</ele>
        <time>2022-11-09T14:01:25Z</time>
      </trkpt>
      <trkpt lat="49.91863" lon="2.15017">
        <ele>70.7</ele>
        <time>2022-11-09T14:01:26Z</time>
      </trkpt>
      <trkpt lat="49.91862" lon="2.15017">
        <ele>70.7</ele>
        <time>2022-11-09T14:01:27Z</time>
      </trkpt>
      <trkpt lat="49.91862" lon="2.15017">
        <ele>70.7</ele>
        <time>2022-11-09T14:01:28Z</time>
      </trkpt>
      <trkpt lat="49.91862" lon="2.15018">
        <ele>70.7</ele>
        <time>2022-11-09T14:01:29Z</time>
      </trkpt>
      <trkpt lat="49.91862" lon="2.15018">
        <ele>70.7</ele>
        <time>2022-11-09T14:01:30Z</time>
      </trkpt>
      <trkpt lat="49.91862" lon="2.15018">
        <ele>70.7</ele>
        <time>2022-11-09T14:01:31Z</time>
      </trkpt>
      <trkpt lat="49.91861" lon="2.15019">
        <ele>70.7</ele>
        <time>2022-11-09T14:01:32Z</time>
      </trkpt>
      <trkpt lat="49.91861" lon="2.15019">
        <ele>70.7</ele>
        <time>2022-11-09T14:01:33Z</time>
      </trkpt>
      <trkpt lat="49.91861" lon="2.15019">
        <ele>70.7</ele>
        <time>2022-11-09T14:01:34Z</time>
      </trkpt>
      <trkpt lat="49.91861" lon="2.15019">
        <ele>70.7</ele>
        <time>2022-11-09T14:01:35Z</time>
      </trkpt>
      <trkpt lat="49.91861" lon="2.15019">
        <ele>70.7</ele>
        <time>2022-11-09T14:01:36Z</time>
      </trkpt>
      <trkpt lat="49.91862" lon="2.15019">
        <ele>70.7</ele>
        <time>2022-11-09T14:01:37Z</time>
      </trkpt>
      <trkpt lat="49.91861" lon="2.1502">
        <ele>70.7</ele>
        <time>2022-11-09T14:01:38Z</time>
      </trkpt>
      <trkpt lat="49.91861" lon="2.1502">
        <ele>70.7</ele>
        <time>2022-11-09T14:01:39Z</time>
      </trkpt>
      <trkpt lat="49.91861" lon="2.1502">
        <ele>70.7</ele>
        <time>2022-11-09T14:01:40Z</time>
      </trkpt>
      <trkpt lat="49.91861" lon="2.1502">
        <ele>70.7</ele>
        <time>2022-11-09T14:01:41Z</time>
      </trkpt>
      <trkpt lat="49.91862" lon="2.1502">
        <ele>70.6</ele>
        <time>2022-11-09T14:01:42Z</time>
      </trkpt>
      <trkpt lat="49.91862" lon="2.1502">
        <ele>70.6</ele>
        <time>2022-11-09T14:01:43Z</time>
      </trkpt>
      <trkpt lat="49.91862" lon="2.1502">
        <ele>70.6</ele>
        <time>2022-11-09T14:01:44Z</time>
      </trkpt>
      <trkpt lat="49.91862" lon="2.15019">
        <ele>70.6</ele>
        <time>2022-11-09T14:01:45Z</time>
      </trkpt>
      <trkpt lat="49.91862" lon="2.15019">
        <ele>70.6</ele>
        <time>2022-11-09T14:01:46Z</time>
      </trkpt>
      <trkpt lat="49.91862" lon="2.15019">
        <ele>70.6</ele>
        <time>2022-11-09T14:01:47Z</time>
      </trkpt>
      <trkpt lat="49.91862" lon="2.15019">
        <ele>70.6</ele>
        <time>2022-11-09T14:01:48Z</time>
      </trkpt>
      <trkpt lat="49.91862" lon="2.15019">
        <ele>70.6</ele>
        <time>2022-11-09T14:01:49Z</time>
      </trkpt>
      <trkpt lat="49.91862" lon="2.15019">
        <ele>70.6</ele>
        <time>2022-11-09T14:01:50Z</time>
      </trkpt>
      <trkpt lat="49.91862" lon="2.15019">
        <ele>70.6</ele>
        <time>2022-11-09T14:01:51Z</time>
      </trkpt>
      <trkpt lat="49.91862" lon="2.15019">
        <ele>70.6</ele>
        <time>2022-11-09T14:01:52Z</time>
      </trkpt>
      <trkpt lat="49.91862" lon="2.15019">
        <ele>70.6</ele>
        <time>2022-11-09T14:01:53Z</time>
      </trkpt>
      <trkpt lat="49.91862" lon="2.15019">
        <ele>70.6</ele>
        <time>2022-11-09T14:01:54Z</time>
      </trkpt>
      <trkpt lat="49.91862" lon="2.15019">
        <ele>70.6</ele>
        <time>2022-11-09T14:01:55Z</time>
      </trkpt>
      <trkpt lat="49.91862" lon="2.15019">
        <ele>70.6</ele>
        <time>2022-11-09T14:01:56Z</time>
      </trkpt>
      <trkpt lat="49.91862" lon="2.15019">
        <ele>70.6</ele>
        <time>2022-11-09T14:01:57Z</time>
      </trkpt>
      <trkpt lat="49.91862" lon="2.15019">
        <ele>70.6</ele>
        <time>2022-11-09T14:01:58Z</time>
      </trkpt>
      <trkpt lat="49.91862" lon="2.15019">
        <ele>70.6</ele>
        <time>2022-11-09T14:01:59Z</time>
      </trkpt>
      <trkpt lat="49.91862" lon="2.15019">
        <ele>70.6</ele>
        <time>2022-11-09T14:02:00Z</time>
      </trkpt>
      <trkpt lat="49.91862" lon="2.15019">
        <ele>70.6</ele>
        <time>2022-11-09T14:02:01Z</time>
      </trkpt>
      <trkpt lat="49.91862" lon="2.15019">
        <ele>70.6</ele>
        <time>2022-11-09T14:02:02Z</time>
      </trkpt>
      <trkpt lat="49.91862" lon="2.15019">
        <ele>70.6</ele>
        <time>2022-11-09T14:02:03Z</time>
      </trkpt>
      <trkpt lat="49.91862" lon="2.15019">
        <ele>70.6</ele>
        <time>2022-11-09T14:02:04Z</time>
      </trkpt>
      <trkpt lat="49.91862" lon="2.15019">
        <ele>70.6</ele>
        <time>2022-11-09T14:02:05Z</time>
      </trkpt>
      <trkpt lat="49.91862" lon="2.15019">
        <ele>70.6</ele>
        <time>2022-11-09T14:02:06Z</time>
      </trkpt>
      <trkpt lat="49.91862" lon="2.15019">
        <ele>70.6</ele>
        <time>2022-11-09T14:02:07Z</time>
      </trkpt>
      <trkpt lat="49.91862" lon="2.15019">
        <ele>70.6</ele>
        <time>2022-11-09T14:02:08Z</time>
      </trkpt>
      <trkpt lat="49.91862" lon="2.15019">
        <ele>70.6</ele>
        <time>2022-11-09T14:02:09Z</time>
      </trkpt>
      <trkpt lat="49.91862" lon="2.15019">
        <ele>70.6</ele>
        <time>2022-11-09T14:02:10Z</time>
      </trkpt>
      <trkpt lat="49.91862" lon="2.15019">
        <ele>70.6</ele>
        <time>2022-11-09T14:02:11Z</time>
      </trkpt>
      <trkpt lat="49.91862" lon="2.15019">
        <ele>70.6</ele>
        <time>2022-11-09T14:02:12Z</time>
      </trkpt>
      <trkpt lat="49.91862" lon="2.15019">
        <ele>70.6</ele>
        <time>2022-11-09T14:02:13Z</time>
      </trkpt>
      <trkpt lat="49.91862" lon="2.15019">
        <ele>70.6</ele>
        <time>2022-11-09T14:02:14Z</time>
      </trkpt>
      <trkpt lat="49.91862" lon="2.15019">
        <ele>70.6</ele>
        <time>2022-11-09T14:02:15Z</time>
      </trkpt>
      <trkpt lat="49.91862" lon="2.15019">
        <ele>70.6</ele>
        <time>2022-11-09T14:02:16Z</time>
      </trkpt>
      <trkpt lat="49.91862" lon="2.15019">
        <ele>70.6</ele>
        <time>2022-11-09T14:02:17Z</time>
      </trkpt>
      <trkpt lat="49.91862" lon="2.15019">
        <ele>70.6</ele>
        <time>2022-11-09T14:02:18Z</time>
      </trkpt>
      <trkpt lat="49.91862" lon="2.15019">
        <ele>70.6</ele>
        <time>2022-11-09T14:02:19Z</time>
      </trkpt>
      <trkpt lat="49.91862" lon="2.15019">
        <ele>70.6</ele>
        <time>2022-11-09T14:02:20Z</time>
      </trkpt>
      <trkpt lat="49.91862" lon="2.15019">
        <ele>70.6</ele>
        <time>2022-11-09T14:02:21Z</time>
      </trkpt>
      <trkpt lat="49.91862" lon="2.15019">
        <ele>70.6</ele>
        <time>2022-11-09T14:02:22Z</time>
      </trkpt>
      <trkpt lat="49.91862" lon="2.15019">
        <ele>70.6</ele>
        <time>2022-11-09T14:02:23Z</time>
      </trkpt>
      <trkpt lat="49.91862" lon="2.15019">
        <ele>70.6</ele>
        <time>2022-11-09T14:02:24Z</time>
      </trkpt>
      <trkpt lat="49.91862" lon="2.15019">
        <ele>70.6</ele>
        <time>2022-11-09T14:02:25Z</time>
      </trkpt>
      <trkpt lat="49.91862" lon="2.15019">
        <ele>70.6</ele>
        <time>2022-11-09T14:02:26Z</time>
      </trkpt>
      <trkpt lat="49.91862" lon="2.15019">
        <ele>70.6</ele>
        <time>2022-11-09T14:02:27Z</time>
      </trkpt>
      <trkpt lat="49.91862" lon="2.15019">
        <ele>70.6</ele>
        <time>2022-11-09T14:02:28Z</time>
      </trkpt>
      <trkpt lat="49.91862" lon="2.15019">
        <ele>70.6</ele>
        <time>2022-11-09T14:02:29Z</time>
      </trkpt>
      <trkpt lat="49.91862" lon="2.15019">
        <ele>70.6</ele>
        <time>2022-11-09T14:02:30Z</time>
      </trkpt>
      <trkpt lat="49.91862" lon="2.15019">
        <ele>70.6</ele>
        <time>2022-11-09T14:02:31Z</time>
      </trkpt>
      <trkpt lat="49.91862" lon="2.15019">
        <ele>70.6</ele>
        <time>2022-11-09T14:02:32Z</time>
      </trkpt>
      <trkpt lat="49.91862" lon="2.15019">
        <ele>70.6</ele>
        <time>2022-11-09T14:02:33Z</time>
      </trkpt>
      <trkpt lat="49.91862" lon="2.15019">
        <ele>70.6</ele>
        <time>2022-11-09T14:02:34Z</time>
      </trkpt>
      <trkpt lat="49.91862" lon="2.15019">
        <ele>70.6</ele>
        <time>2022-11-09T14:02:35Z</time>
      </trkpt>
      <trkpt lat="49.91862" lon="2.15019">
        <ele>70.6</ele>
        <time>2022-11-09T14:02:36Z</time>
      </trkpt>
      <trkpt lat="49.91862" lon="2.15019">
        <ele>70.6</ele>
        <time>2022-11-09T14:02:37Z</time>
      </trkpt>
      <trkpt lat="49.91862" lon="2.15019">
        <ele>70.6</ele>
        <time>2022-11-09T14:02:38Z</time>
      </trkpt>
      <trkpt lat="49.91862" lon="2.15019">
        <ele>70.6</ele>
        <time>2022-11-09T14:02:39Z</time>
      </trkpt>
      <trkpt lat="49.91862" lon="2.15019">
        <ele>70.6</ele>
        <time>2022-11-09T14:02:40Z</time>
      </trkpt>
      <trkpt lat="49.91862" lon="2.15019">
        <ele>70.6</ele>
        <time>2022-11-09T14:02:41Z</time>
      </trkpt>
      <trkpt lat="49.91862" lon="2.15019">
        <ele>70.6</ele>
        <time>2022-11-09T14:02:42Z</time>
      </trkpt>
      <trkpt lat="49.91862" lon="2.15019">
        <ele>70.6</ele>
        <time>2022-11-09T14:02:43Z</time>
      </trkpt>
      <trkpt lat="49.91862" lon="2.15019">
        <ele>70.6</ele>
        <time>2022-11-09T14:02:44Z</time>
      </trkpt>
      <trkpt lat="49.91862" lon="2.15019">
        <ele>70.6</ele>
        <time>2022-11-09T14:02:45Z</time>
      </trkpt>
      <trkpt lat="49.91862" lon="2.15019">
        <ele>70.6</ele>
        <time>2022-11-09T14:02:46Z</time>
      </trkpt>
      <trkpt lat="49.91862" lon="2.15019">
        <ele>70.6</ele>
        <time>2022-11-09T14:02:47Z</time>
      </trkpt>
      <trkpt lat="49.91862" lon="2.15019">
        <ele>70.6</ele>
        <time>2022-11-09T14:02:48Z</time>
      </trkpt>
      <trkpt lat="49.91862" lon="2.15019">
        <ele>70.6</ele>
        <time>2022-11-09T14:02:49Z</time>
      </trkpt>
      <trkpt lat="49.91862" lon="2.15019">
        <ele>70.6</ele>
        <time>2022-11-09T14:02:50Z</time>
      </trkpt>
      <trkpt lat="49.91862" lon="2.15019">
        <ele>70.6</ele>
        <time>2022-11-09T14:02:51Z</time>
      </trkpt>
      <trkpt lat="49.91862" lon="2.15019">
        <ele>70.6</ele>
        <time>2022-11-09T14:02:52Z</time>
      </trkpt>
      <trkpt lat="49.91862" lon="2.15019">
        <ele>70.6</ele>
        <time>2022-11-09T14:02:53Z</time>
      </trkpt>
      <trkpt lat="49.91862" lon="2.15019">
        <ele>70.6</ele>
        <time>2022-11-09T14:02:54Z</time>
      </trkpt>
      <trkpt lat="49.91862" lon="2.15019">
        <ele>70.6</ele>
        <time>2022-11-09T14:02:55Z</time>
      </trkpt>
      <trkpt lat="49.91862" lon="2.15019">
        <ele>70.6</ele>
        <time>2022-11-09T14:02:56Z</time>
      </trkpt>
      <trkpt lat="49.91862" lon="2.15019">
        <ele>70.6</ele>
        <time>2022-11-09T14:02:57Z</time>
      </trkpt>
      <trkpt lat="49.91862" lon="2.15019">
        <ele>70.6</ele>
        <time>2022-11-09T14:02:58Z</time>
      </trkpt>
      <trkpt lat="49.91862" lon="2.15019">
        <ele>70.6</ele>
        <time>2022-11-09T14:02:59Z</time>
      </trkpt>
      <trkpt lat="49.91862" lon="2.15019">
        <ele>70.6</ele>
        <time>2022-11-09T14:03:00Z</time>
      </trkpt>
      <trkpt lat="49.91862" lon="2.15019">
        <ele>70.6</ele>
        <time>2022-11-09T14:03:01Z</time>
      </trkpt>
      <trkpt lat="49.91862" lon="2.15019">
        <ele>70.6</ele>
        <time>2022-11-09T14:03:02Z</time>
      </trkpt>
      <trkpt lat="49.91862" lon="2.15019">
        <ele>70.6</ele>
        <time>2022-11-09T14:03:03Z</time>
      </trkpt>
      <trkpt lat="49.91862" lon="2.15019">
        <ele>70.6</ele>
        <time>2022-11-09T14:03:04Z</time>
      </trkpt>
      <trkpt lat="49.91862" lon="2.15019">
        <ele>70.6</ele>
        <time>2022-11-09T14:03:05Z</time>
      </trkpt>
      <trkpt lat="49.91862" lon="2.15019">
        <ele>70.6</ele>
        <time>2022-11-09T14:03:06Z</time>
      </trkpt>
      <trkpt lat="49.91862" lon="2.15019">
        <ele>70.6</ele>
        <time>2022-11-09T14:03:07Z</time>
      </trkpt>
      <trkpt lat="49.91862" lon="2.15019">
        <ele>70.6</ele>
        <time>2022-11-09T14:03:08Z</time>
      </trkpt>
      <trkpt lat="49.91862" lon="2.15019">
        <ele>70.6</ele>
        <time>2022-11-09T14:03:09Z</time>
      </trkpt>
      <trkpt lat="49.91862" lon="2.15019">
        <ele>70.6</ele>
        <time>2022-11-09T14:03:10Z</time>
      </trkpt>
      <trkpt lat="49.91862" lon="2.15019">
        <ele>70.6</ele>
        <time>2022-11-09T14:03:11Z</time>
      </trkpt>
      <trkpt lat="49.91862" lon="2.15019">
        <ele>70.6</ele>
        <time>2022-11-09T14:03:12Z</time>
      </trkpt>
      <trkpt lat="49.91862" lon="2.15019">
        <ele>70.6</ele>
        <time>2022-11-09T14:03:13Z</time>
      </trkpt>
      <trkpt lat="49.91862" lon="2.15019">
        <ele>70.6</ele>
        <time>2022-11-09T14:03:14Z</time>
      </trkpt>
      <trkpt lat="49.91862" lon="2.15019">
        <ele>70.6</ele>
        <time>2022-11-09T14:03:15Z</time>
      </trkpt>
      <trkpt lat="49.91862" lon="2.15019">
        <ele>70.6</ele>
        <time>2022-11-09T14:03:16Z</time>
      </trkpt>
      <trkpt lat="49.91862" lon="2.15019">
        <ele>70.6</ele>
        <time>2022-11-09T14:03:17Z</time>
      </trkpt>
      <trkpt lat="49.91862" lon="2.15019">
        <ele>70.6</ele>
        <time>2022-11-09T14:03:18Z</time>
      </trkpt>
      <trkpt lat="49.91864" lon="2.15022">
        <ele>70.6</ele>
        <time>2022-11-09T14:03:19Z</time>
      </trkpt>
      <trkpt lat="49.91865" lon="2.15022">
        <ele>70.5</ele>
        <time>2022-11-09T14:03:20Z</time>
      </trkpt>
      <trkpt lat="49.91865" lon="2.15022">
        <ele>70.5</ele>
        <time>2022-11-09T14:03:21Z</time>
      </trkpt>
      <trkpt lat="49.91865" lon="2.15022">
        <ele>70.5</ele>
        <time>2022-11-09T14:03:22Z</time>
      </trkpt>
      <trkpt lat="49.91865" lon="2.15023">
        <ele>70.5</ele>
        <time>2022-11-09T14:03:23Z</time>
      </trkpt>
      <trkpt lat="49.91865" lon="2.15023">
        <ele>70.5</ele>
        <time>2022-11-09T14:03:24Z</time>
      </trkpt>
      <trkpt lat="49.91865" lon="2.15023">
        <ele>70.5</ele>
        <time>2022-11-09T14:03:25Z</time>
      </trkpt>
      <trkpt lat="49.91865" lon="2.15023">
        <ele>70.5</ele>
        <time>2022-11-09T14:03:26Z</time>
      </trkpt>
      <trkpt lat="49.91865" lon="2.15023">
        <ele>70.5</ele>
        <time>2022-11-09T14:03:27Z</time>
      </trkpt>
      <trkpt lat="49.91865" lon="2.15023">
        <ele>70.5</ele>
        <time>2022-11-09T14:03:28Z</time>
      </trkpt>
      <trkpt lat="49.91865" lon="2.15023">
        <ele>70.5</ele>
        <time>2022-11-09T14:03:29Z</time>
      </trkpt>
      <trkpt lat="49.91865" lon="2.15023">
        <ele>70.5</ele>
        <time>2022-11-09T14:03:30Z</time>
      </trkpt>
      <trkpt lat="49.91865" lon="2.15023">
        <ele>70.5</ele>
        <time>2022-11-09T14:03:31Z</time>
      </trkpt>
      <trkpt lat="49.91865" lon="2.15023">
        <ele>70.5</ele>
        <time>2022-11-09T14:03:32Z</time>
      </trkpt>
      <trkpt lat="49.91865" lon="2.15023">
        <ele>70.5</ele>
        <time>2022-11-09T14:03:33Z</time>
      </trkpt>
      <trkpt lat="49.91865" lon="2.15023">
        <ele>70.5</ele>
        <time>2022-11-09T14:03:34Z</time>
      </trkpt>
      <trkpt lat="49.91865" lon="2.15023">
        <ele>70.5</ele>
        <time>2022-11-09T14:03:35Z</time>
      </trkpt>
      <trkpt lat="49.91865" lon="2.15023">
        <ele>70.5</ele>
        <time>2022-11-09T14:03:36Z</time>
      </trkpt>
      <trkpt lat="49.91865" lon="2.15023">
        <ele>70.5</ele>
        <time>2022-11-09T14:03:37Z</time>
      </trkpt>
      <trkpt lat="49.91865" lon="2.15023">
        <ele>70.5</ele>
        <time>2022-11-09T14:03:38Z</time>
      </trkpt>
      <trkpt lat="49.91865" lon="2.15023">
        <ele>70.5</ele>
        <time>2022-11-09T14:03:39Z</time>
      </trkpt>
      <trkpt lat="49.91865" lon="2.15023">
        <ele>70.5</ele>
        <time>2022-11-09T14:03:40Z</time>
      </trkpt>
      <trkpt lat="49.91865" lon="2.15023">
        <ele>70.5</ele>
        <time>2022-11-09T14:03:41Z</time>
      </trkpt>
      <trkpt lat="49.91865" lon="2.15023">
        <ele>70.5</ele>
        <time>2022-11-09T14:03:42Z</time>
      </trkpt>
      <trkpt lat="49.91865" lon="2.15022">
        <ele>70.5</ele>
        <time>2022-11-09T14:03:43Z</time>
      </trkpt>
      <trkpt lat="49.91865" lon="2.15022">
        <ele>70.5</ele>
        <time>2022-11-09T14:03:44Z</time>
      </trkpt>
      <trkpt lat="49.91865" lon="2.15021">
        <ele>70.5</ele>
        <time>2022-11-09T14:03:45Z</time>
      </trkpt>
      <trkpt lat="49.91865" lon="2.15021">
        <ele>70.5</ele>
        <time>2022-11-09T14:03:46Z</time>
      </trkpt>
      <trkpt lat="49.91865" lon="2.15021">
        <ele>70.5</ele>
        <time>2022-11-09T14:03:47Z</time>
      </trkpt>
      <trkpt lat="49.91864" lon="2.1502">
        <ele>70.5</ele>
        <time>2022-11-09T14:03:48Z</time>
      </trkpt>
      <trkpt lat="49.91864" lon="2.1502">
        <ele>70.5</ele>
        <time>2022-11-09T14:03:49Z</time>
      </trkpt>
      <trkpt lat="49.91863" lon="2.15019">
        <ele>70.4</ele>
        <time>2022-11-09T14:03:50Z</time>
      </trkpt>
      <trkpt lat="49.91862" lon="2.15018">
        <ele>70.4</ele>
        <time>2022-11-09T14:03:51Z</time>
      </trkpt>
      <trkpt lat="49.91861" lon="2.15017">
        <ele>70.4</ele>
        <time>2022-11-09T14:03:52Z</time>
      </trkpt>
      <trkpt lat="49.9186" lon="2.15016">
        <ele>70.3</ele>
        <time>2022-11-09T14:03:53Z</time>
      </trkpt>
      <trkpt lat="49.9186" lon="2.15015">
        <ele>70.3</ele>
        <time>2022-11-09T14:03:55Z</time>
      </trkpt>
      <trkpt lat="49.91859" lon="2.15013">
        <ele>70.3</ele>
        <time>2022-11-09T14:03:56Z</time>
      </trkpt>
      <trkpt lat="49.91858" lon="2.15012">
        <ele>70.2</ele>
        <time>2022-11-09T14:03:57Z</time>
      </trkpt>
      <trkpt lat="49.91858" lon="2.15011">
        <ele>70.1</ele>
        <time>2022-11-09T14:03:59Z</time>
      </trkpt>
      <trkpt lat="49.91858" lon="2.1501">
        <ele>70.1</ele>
        <time>2022-11-09T14:04:00Z</time>
      </trkpt>
      <trkpt lat="49.91857" lon="2.15008">
        <ele>70.1</ele>
        <time>2022-11-09T14:04:01Z</time>
      </trkpt>
      <trkpt lat="49.91857" lon="2.15007">
        <ele>70.2</ele>
        <time>2022-11-09T14:04:02Z</time>
      </trkpt>
      <trkpt lat="49.91857" lon="2.15006">
        <ele>70.2</ele>
        <time>2022-11-09T14:04:03Z</time>
      </trkpt>
      <trkpt lat="49.91858" lon="2.15005">
        <ele>70.2</ele>
        <time>2022-11-09T14:04:04Z</time>
      </trkpt>
      <trkpt lat="49.91858" lon="2.15003">
        <ele>70.2</ele>
        <time>2022-11-09T14:04:05Z</time>
      </trkpt>
      <trkpt lat="49.91859" lon="2.15002">
        <ele>70.2</ele>
        <time>2022-11-09T14:04:07Z</time>
      </trkpt>
      <trkpt lat="49.91859" lon="2.15001">
        <ele>70.3</ele>
        <time>2022-11-09T14:04:08Z</time>
      </trkpt>
      <trkpt lat="49.9186" lon="2.14999">
        <ele>70.3</ele>
        <time>2022-11-09T14:04:09Z</time>
      </trkpt>
      <trkpt lat="49.9186" lon="2.14998">
        <ele>70.3</ele>
        <time>2022-11-09T14:04:11Z</time>
      </trkpt>
      <trkpt lat="49.91861" lon="2.14996">
        <ele>70.4</ele>
        <time>2022-11-09T14:04:12Z</time>
      </trkpt>
      <trkpt lat="49.91861" lon="2.14994">
        <ele>70.4</ele>
        <time>2022-11-09T14:04:13Z</time>
      </trkpt>
      <trkpt lat="49.91861" lon="2.14993">
        <ele>70.5</ele>
        <time>2022-11-09T14:04:14Z</time>
      </trkpt>
      <trkpt lat="49.91861" lon="2.14991">
        <ele>70.5</ele>
        <time>2022-11-09T14:04:16Z</time>
      </trkpt>
      <trkpt lat="49.91862" lon="2.1499">
        <ele>70.5</ele>
        <time>2022-11-09T14:04:17Z</time>
      </trkpt>
      <trkpt lat="49.91862" lon="2.14989">
        <ele>70.6</ele>
        <time>2022-11-09T14:04:18Z</time>
      </trkpt>
      <trkpt lat="49.91863" lon="2.14988">
        <ele>70.6</ele>
        <time>2022-11-09T14:04:19Z</time>
      </trkpt>
      <trkpt lat="49.91863" lon="2.14986">
        <ele>70.7</ele>
        <time>2022-11-09T14:04:21Z</time>
      </trkpt>
      <trkpt lat="49.91864" lon="2.14984">
        <ele>70.7</ele>
        <time>2022-11-09T14:04:22Z</time>
      </trkpt>
      <trkpt lat="49.91864" lon="2.14983">
        <ele>70.7</ele>
        <time>2022-11-09T14:04:23Z</time>
      </trkpt>
      <trkpt lat="49.91865" lon="2.14981">
        <ele>70.8</ele>
        <time>2022-11-09T14:04:24Z</time>
      </trkpt>
      <trkpt lat="49.91866" lon="2.14979">
        <ele>70.8</ele>
        <time>2022-11-09T14:04:25Z</time>
      </trkpt>
      <trkpt lat="49.91866" lon="2.14978">
        <ele>70.8</ele>
        <time>2022-11-09T14:04:26Z</time>
      </trkpt>
      <trkpt lat="49.91867" lon="2.14977">
        <ele>70.8</ele>
        <time>2022-11-09T14:04:28Z</time>
      </trkpt>
      <trkpt lat="49.91867" lon="2.14975">
        <ele>70.8</ele>
        <time>2022-11-09T14:04:29Z</time>
      </trkpt>
      <trkpt lat="49.91868" lon="2.14973">
        <ele>70.9</ele>
        <time>2022-11-09T14:04:30Z</time>
      </trkpt>
      <trkpt lat="49.91868" lon="2.14971">
        <ele>70.9</ele>
        <time>2022-11-09T14:04:31Z</time>
      </trkpt>
      <trkpt lat="49.91868" lon="2.1497">
        <ele>70.9</ele>
        <time>2022-11-09T14:04:33Z</time>
      </trkpt>
      <trkpt lat="49.91869" lon="2.14969">
        <ele>71</ele>
        <time>2022-11-09T14:04:34Z</time>
      </trkpt>
      <trkpt lat="49.91869" lon="2.14967">
        <ele>71</ele>
        <time>2022-11-09T14:04:35Z</time>
      </trkpt>
      <trkpt lat="49.91869" lon="2.14965">
        <ele>71</ele>
        <time>2022-11-09T14:04:36Z</time>
      </trkpt>
      <trkpt lat="49.91869" lon="2.14964">
        <ele>71.1</ele>
        <time>2022-11-09T14:04:37Z</time>
      </trkpt>
      <trkpt lat="49.9187" lon="2.14961">
        <ele>71.1</ele>
        <time>2022-11-09T14:04:38Z</time>
      </trkpt>
      <trkpt lat="49.9187" lon="2.14959">
        <ele>71.2</ele>
        <time>2022-11-09T14:04:39Z</time>
      </trkpt>
      <trkpt lat="49.91871" lon="2.14958">
        <ele>71.2</ele>
        <time>2022-11-09T14:04:40Z</time>
      </trkpt>
      <trkpt lat="49.91871" lon="2.14956">
        <ele>71.2</ele>
        <time>2022-11-09T14:04:42Z</time>
      </trkpt>
      <trkpt lat="49.91871" lon="2.14955">
        <ele>71.3</ele>
        <time>2022-11-09T14:04:43Z</time>
      </trkpt>
      <trkpt lat="49.91872" lon="2.14953">
        <ele>71.3</ele>
        <time>2022-11-09T14:04:44Z</time>
      </trkpt>
      <trkpt lat="49.91872" lon="2.14952">
        <ele>71.3</ele>
        <time>2022-11-09T14:04:45Z</time>
      </trkpt>
      <trkpt lat="49.91872" lon="2.14951">
        <ele>71.4</ele>
        <time>2022-11-09T14:04:46Z</time>
      </trkpt>
      <trkpt lat="49.91873" lon="2.14949">
        <ele>71.4</ele>
        <time>2022-11-09T14:04:47Z</time>
      </trkpt>
      <trkpt lat="49.91874" lon="2.14947">
        <ele>71.5</ele>
        <time>2022-11-09T14:04:48Z</time>
      </trkpt>
      <trkpt lat="49.91874" lon="2.14946">
        <ele>71.5</ele>
        <time>2022-11-09T14:04:49Z</time>
      </trkpt>
      <trkpt lat="49.91875" lon="2.14944">
        <ele>71.5</ele>
        <time>2022-11-09T14:04:51Z</time>
      </trkpt>
      <trkpt lat="49.91875" lon="2.14943">
        <ele>71.6</ele>
        <time>2022-11-09T14:04:52Z</time>
      </trkpt>
      <trkpt lat="49.91876" lon="2.14941">
        <ele>71.6</ele>
        <time>2022-11-09T14:04:53Z</time>
      </trkpt>
      <trkpt lat="49.91876" lon="2.1494">
        <ele>71.6</ele>
        <time>2022-11-09T14:04:54Z</time>
      </trkpt>
      <trkpt lat="49.91877" lon="2.14939">
        <ele>71.7</ele>
        <time>2022-11-09T14:04:55Z</time>
      </trkpt>
      <trkpt lat="49.91877" lon="2.14937">
        <ele>71.7</ele>
        <time>2022-11-09T14:04:56Z</time>
      </trkpt>
      <trkpt lat="49.91878" lon="2.14936">
        <ele>71.7</ele>
        <time>2022-11-09T14:04:57Z</time>
      </trkpt>
      <trkpt lat="49.91878" lon="2.14935">
        <ele>71.8</ele>
        <time>2022-11-09T14:04:58Z</time>
      </trkpt>
      <trkpt lat="49.91879" lon="2.14934">
        <ele>71.8</ele>
        <time>2022-11-09T14:04:59Z</time>
      </trkpt>
      <trkpt lat="49.9188" lon="2.14933">
        <ele>71.8</ele>
        <time>2022-11-09T14:05:00Z</time>
      </trkpt>
      <trkpt lat="49.9188" lon="2.14932">
        <ele>71.9</ele>
        <time>2022-11-09T14:05:01Z</time>
      </trkpt>
      <trkpt lat="49.91881" lon="2.1493">
        <ele>71.9</ele>
        <time>2022-11-09T14:05:02Z</time>
      </trkpt>
      <trkpt lat="49.91882" lon="2.14928">
        <ele>72</ele>
        <time>2022-11-09T14:05:03Z</time>
      </trkpt>
      <trkpt lat="49.91882" lon="2.14927">
        <ele>72</ele>
        <time>2022-11-09T14:05:04Z</time>
      </trkpt>
      <trkpt lat="49.91883" lon="2.14926">
        <ele>72</ele>
        <time>2022-11-09T14:05:06Z</time>
      </trkpt>
      <trkpt lat="49.91883" lon="2.14925">
        <ele>72.1</ele>
        <time>2022-11-09T14:05:07Z</time>
      </trkpt>
      <trkpt lat="49.91884" lon="2.14923">
        <ele>72.1</ele>
        <time>2022-11-09T14:05:08Z</time>
      </trkpt>
      <trkpt lat="49.91884" lon="2.14922">
        <ele>72.1</ele>
        <time>2022-11-09T14:05:09Z</time>
      </trkpt>
      <trkpt lat="49.91885" lon="2.1492">
        <ele>72.2</ele>
        <time>2022-11-09T14:05:10Z</time>
      </trkpt>
      <trkpt lat="49.91885" lon="2.14919">
        <ele>72.2</ele>
        <time>2022-11-09T14:05:12Z</time>
      </trkpt>
      <trkpt lat="49.91885" lon="2.14918">
        <ele>72.2</ele>
        <time>2022-11-09T14:05:13Z</time>
      </trkpt>
      <trkpt lat="49.91885" lon="2.14917">
        <ele>72.3</ele>
        <time>2022-11-09T14:05:14Z</time>
      </trkpt>
      <trkpt lat="49.91886" lon="2.14915">
        <ele>72.3</ele>
        <time>2022-11-09T14:05:15Z</time>
      </trkpt>
      <trkpt lat="49.91886" lon="2.14914">
        <ele>72.4</ele>
        <time>2022-11-09T14:05:16Z</time>
      </trkpt>
      <trkpt lat="49.91886" lon="2.14912">
        <ele>72.4</ele>
        <time>2022-11-09T14:05:17Z</time>
      </trkpt>
      <trkpt lat="49.91886" lon="2.1491">
        <ele>72.4</ele>
        <time>2022-11-09T14:05:18Z</time>
      </trkpt>
      <trkpt lat="49.91887" lon="2.14909">
        <ele>72.5</ele>
        <time>2022-11-09T14:05:20Z</time>
      </trkpt>
      <trkpt lat="49.91887" lon="2.14908">
        <ele>72.5</ele>
        <time>2022-11-09T14:05:21Z</time>
      </trkpt>
      <trkpt lat="49.91887" lon="2.14906">
        <ele>72.5</ele>
        <time>2022-11-09T14:05:22Z</time>
      </trkpt>
      <trkpt lat="49.91888" lon="2.14905">
        <ele>72.6</ele>
        <time>2022-11-09T14:05:23Z</time>
      </trkpt>
      <trkpt lat="49.91888" lon="2.14903">
        <ele>72.6</ele>
        <time>2022-11-09T14:05:24Z</time>
      </trkpt>
      <trkpt lat="49.91889" lon="2.14902">
        <ele>72.7</ele>
        <time>2022-11-09T14:05:25Z</time>
      </trkpt>
      <trkpt lat="49.9189" lon="2.14899">
        <ele>72.8</ele>
        <time>2022-11-09T14:05:26Z</time>
      </trkpt>
      <trkpt lat="49.9189" lon="2.14898">
        <ele>72.8</ele>
        <time>2022-11-09T14:05:28Z</time>
      </trkpt>
      <trkpt lat="49.91891" lon="2.14897">
        <ele>72.8</ele>
        <time>2022-11-09T14:05:29Z</time>
      </trkpt>
      <trkpt lat="49.91891" lon="2.14895">
        <ele>72.9</ele>
        <time>2022-11-09T14:05:30Z</time>
      </trkpt>
      <trkpt lat="49.91892" lon="2.14894">
        <ele>72.9</ele>
        <time>2022-11-09T14:05:31Z</time>
      </trkpt>
      <trkpt lat="49.91893" lon="2.14892">
        <ele>73</ele>
        <time>2022-11-09T14:05:32Z</time>
      </trkpt>
      <trkpt lat="49.91893" lon="2.14891">
        <ele>73</ele>
        <time>2022-11-09T14:05:34Z</time>
      </trkpt>
      <trkpt lat="49.91894" lon="2.1489">
        <ele>73</ele>
        <time>2022-11-09T14:05:35Z</time>
      </trkpt>
      <trkpt lat="49.91894" lon="2.14889">
        <ele>73.1</ele>
        <time>2022-11-09T14:05:36Z</time>
      </trkpt>
      <trkpt lat="49.91895" lon="2.14888">
        <ele>73.1</ele>
        <time>2022-11-09T14:05:37Z</time>
      </trkpt>
      <trkpt lat="49.91895" lon="2.14886">
        <ele>73.2</ele>
        <time>2022-11-09T14:05:38Z</time>
      </trkpt>
      <trkpt lat="49.91896" lon="2.14884">
        <ele>73.2</ele>
        <time>2022-11-09T14:05:39Z</time>
      </trkpt>
      <trkpt lat="49.91896" lon="2.14882">
        <ele>73.2</ele>
        <time>2022-11-09T14:05:40Z</time>
      </trkpt>
      <trkpt lat="49.91896" lon="2.1488">
        <ele>73.3</ele>
        <time>2022-11-09T14:05:42Z</time>
      </trkpt>
      <trkpt lat="49.91897" lon="2.14879">
        <ele>73.3</ele>
        <time>2022-11-09T14:05:43Z</time>
      </trkpt>
      <trkpt lat="49.91897" lon="2.14877">
        <ele>73.4</ele>
        <time>2022-11-09T14:05:44Z</time>
      </trkpt>
      <trkpt lat="49.91897" lon="2.14876">
        <ele>73.4</ele>
        <time>2022-11-09T14:05:45Z</time>
      </trkpt>
      <trkpt lat="49.91898" lon="2.14875">
        <ele>73.4</ele>
        <time>2022-11-09T14:05:46Z</time>
      </trkpt>
      <trkpt lat="49.91898" lon="2.14874">
        <ele>73.5</ele>
        <time>2022-11-09T14:05:47Z</time>
      </trkpt>
      <trkpt lat="49.91899" lon="2.14872">
        <ele>73.5</ele>
        <time>2022-11-09T14:05:48Z</time>
      </trkpt>
      <trkpt lat="49.91899" lon="2.1487">
        <ele>73.6</ele>
        <time>2022-11-09T14:05:49Z</time>
      </trkpt>
      <trkpt lat="49.919" lon="2.14867">
        <ele>73.6</ele>
        <time>2022-11-09T14:05:50Z</time>
      </trkpt>
      <trkpt lat="49.91901" lon="2.14866">
        <ele>73.7</ele>
        <time>2022-11-09T14:05:51Z</time>
      </trkpt>
      <trkpt lat="49.91901" lon="2.14865">
        <ele>73.7</ele>
        <time>2022-11-09T14:05:52Z</time>
      </trkpt>
      <trkpt lat="49.91901" lon="2.14862">
        <ele>73.8</ele>
        <time>2022-11-09T14:05:54Z</time>
      </trkpt>
      <trkpt lat="49.91902" lon="2.14861">
        <ele>73.8</ele>
        <time>2022-11-09T14:05:55Z</time>
      </trkpt>
      <trkpt lat="49.91902" lon="2.1486">
        <ele>73.8</ele>
        <time>2022-11-09T14:05:56Z</time>
      </trkpt>
      <trkpt lat="49.91902" lon="2.14858">
        <ele>73.9</ele>
        <time>2022-11-09T14:05:57Z</time>
      </trkpt>
      <trkpt lat="49.91902" lon="2.14857">
        <ele>73.9</ele>
        <time>2022-11-09T14:05:58Z</time>
      </trkpt>
      <trkpt lat="49.91903" lon="2.14855">
        <ele>73.9</ele>
        <time>2022-11-09T14:05:59Z</time>
      </trkpt>
      <trkpt lat="49.91903" lon="2.14853">
        <ele>74</ele>
        <time>2022-11-09T14:06:00Z</time>
      </trkpt>
      <trkpt lat="49.91903" lon="2.14851">
        <ele>74</ele>
        <time>2022-11-09T14:06:01Z</time>
      </trkpt>
      <trkpt lat="49.91903" lon="2.14849">
        <ele>74.1</ele>
        <time>2022-11-09T14:06:02Z</time>
      </trkpt>
      <trkpt lat="49.91904" lon="2.14847">
        <ele>74.1</ele>
        <time>2022-11-09T14:06:04Z</time>
      </trkpt>
      <trkpt lat="49.91904" lon="2.14846">
        <ele>74.2</ele>
        <time>2022-11-09T14:06:05Z</time>
      </trkpt>
      <trkpt lat="49.91905" lon="2.14844">
        <ele>74.2</ele>
        <time>2022-11-09T14:06:06Z</time>
      </trkpt>
      <trkpt lat="49.91905" lon="2.14843">
        <ele>74.2</ele>
        <time>2022-11-09T14:06:07Z</time>
      </trkpt>
      <trkpt lat="49.91906" lon="2.14842">
        <ele>74.3</ele>
        <time>2022-11-09T14:06:08Z</time>
      </trkpt>
      <trkpt lat="49.91906" lon="2.14841">
        <ele>74.3</ele>
        <time>2022-11-09T14:06:09Z</time>
      </trkpt>
      <trkpt lat="49.91907" lon="2.14838">
        <ele>74.4</ele>
        <time>2022-11-09T14:06:10Z</time>
      </trkpt>
      <trkpt lat="49.91907" lon="2.14837">
        <ele>74.4</ele>
        <time>2022-11-09T14:06:11Z</time>
      </trkpt>
      <trkpt lat="49.91907" lon="2.14836">
        <ele>74.4</ele>
        <time>2022-11-09T14:06:12Z</time>
      </trkpt>
      <trkpt lat="49.91908" lon="2.14834">
        <ele>74.5</ele>
        <time>2022-11-09T14:06:14Z</time>
      </trkpt>
      <trkpt lat="49.91908" lon="2.14833">
        <ele>74.5</ele>
        <time>2022-11-09T14:06:15Z</time>
      </trkpt>
      <trkpt lat="49.91909" lon="2.14831">
        <ele>74.5</ele>
        <time>2022-11-09T14:06:16Z</time>
      </trkpt>
      <trkpt lat="49.91909" lon="2.1483">
        <ele>74.6</ele>
        <time>2022-11-09T14:06:17Z</time>
      </trkpt>
      <trkpt lat="49.9191" lon="2.14829">
        <ele>74.6</ele>
        <time>2022-11-09T14:06:18Z</time>
      </trkpt>
      <trkpt lat="49.9191" lon="2.14827">
        <ele>74.7</ele>
        <time>2022-11-09T14:06:20Z</time>
      </trkpt>
      <trkpt lat="49.91911" lon="2.14826">
        <ele>74.7</ele>
        <time>2022-11-09T14:06:21Z</time>
      </trkpt>
      <trkpt lat="49.91911" lon="2.14824">
        <ele>74.8</ele>
        <time>2022-11-09T14:06:22Z</time>
      </trkpt>
      <trkpt lat="49.91912" lon="2.14823">
        <ele>74.8</ele>
        <time>2022-11-09T14:06:23Z</time>
      </trkpt>
      <trkpt lat="49.91912" lon="2.14822">
        <ele>74.8</ele>
        <time>2022-11-09T14:06:24Z</time>
      </trkpt>
      <trkpt lat="49.91913" lon="2.14821">
        <ele>74.9</ele>
        <time>2022-11-09T14:06:25Z</time>
      </trkpt>
      <trkpt lat="49.91913" lon="2.14819">
        <ele>74.9</ele>
        <time>2022-11-09T14:06:26Z</time>
      </trkpt>
      <trkpt lat="49.91914" lon="2.14817">
        <ele>75</ele>
        <time>2022-11-09T14:06:27Z</time>
      </trkpt>
      <trkpt lat="49.91915" lon="2.14815">
        <ele>75</ele>
        <time>2022-11-09T14:06:28Z</time>
      </trkpt>
      <trkpt lat="49.91915" lon="2.14814">
        <ele>75.1</ele>
        <time>2022-11-09T14:06:29Z</time>
      </trkpt>
      <trkpt lat="49.91915" lon="2.14813">
        <ele>75.1</ele>
        <time>2022-11-09T14:06:30Z</time>
      </trkpt>
      <trkpt lat="49.91916" lon="2.14811">
        <ele>75.1</ele>
        <time>2022-11-09T14:06:32Z</time>
      </trkpt>
      <trkpt lat="49.91917" lon="2.14809">
        <ele>75.2</ele>
        <time>2022-11-09T14:06:33Z</time>
      </trkpt>
      <trkpt lat="49.91917" lon="2.14808">
        <ele>75.2</ele>
        <time>2022-11-09T14:06:34Z</time>
      </trkpt>
      <trkpt lat="49.91917" lon="2.14807">
        <ele>75.3</ele>
        <time>2022-11-09T14:06:35Z</time>
      </trkpt>
      <trkpt lat="49.91918" lon="2.14805">
        <ele>75.3</ele>
        <time>2022-11-09T14:06:36Z</time>
      </trkpt>
      <trkpt lat="49.91918" lon="2.14803">
        <ele>75.4</ele>
        <time>2022-11-09T14:06:37Z</time>
      </trkpt>
      <trkpt lat="49.91918" lon="2.14802">
        <ele>75.4</ele>
        <time>2022-11-09T14:06:38Z</time>
      </trkpt>
      <trkpt lat="49.91919" lon="2.14801">
        <ele>75.4</ele>
        <time>2022-11-09T14:06:39Z</time>
      </trkpt>
      <trkpt lat="49.91919" lon="2.14799">
        <ele>75.5</ele>
        <time>2022-11-09T14:06:40Z</time>
      </trkpt>
      <trkpt lat="49.9192" lon="2.14798">
        <ele>75.5</ele>
        <time>2022-11-09T14:06:41Z</time>
      </trkpt>
      <trkpt lat="49.9192" lon="2.14796">
        <ele>75.6</ele>
        <time>2022-11-09T14:06:42Z</time>
      </trkpt>
      <trkpt lat="49.9192" lon="2.14795">
        <ele>75.6</ele>
        <time>2022-11-09T14:06:43Z</time>
      </trkpt>
      <trkpt lat="49.91921" lon="2.14793">
        <ele>75.7</ele>
        <time>2022-11-09T14:06:44Z</time>
      </trkpt>
      <trkpt lat="49.91921" lon="2.14791">
        <ele>75.7</ele>
        <time>2022-11-09T14:06:45Z</time>
      </trkpt>
      <trkpt lat="49.91922" lon="2.14788">
        <ele>75.8</ele>
        <time>2022-11-09T14:06:46Z</time>
      </trkpt>
      <trkpt lat="49.91923" lon="2.14787">
        <ele>75.8</ele>
        <time>2022-11-09T14:06:47Z</time>
      </trkpt>
      <trkpt lat="49.91923" lon="2.14786">
        <ele>75.9</ele>
        <time>2022-11-09T14:06:48Z</time>
      </trkpt>
      <trkpt lat="49.91924" lon="2.14783">
        <ele>76</ele>
        <time>2022-11-09T14:06:50Z</time>
      </trkpt>
      <trkpt lat="49.91925" lon="2.14782">
        <ele>76</ele>
        <time>2022-11-09T14:06:51Z</time>
      </trkpt>
      <trkpt lat="49.91925" lon="2.14781">
        <ele>76</ele>
        <time>2022-11-09T14:06:52Z</time>
      </trkpt>
      <trkpt lat="49.91926" lon="2.14779">
        <ele>76.1</ele>
        <time>2022-11-09T14:06:53Z</time>
      </trkpt>
      <trkpt lat="49.91926" lon="2.14778">
        <ele>76.1</ele>
        <time>2022-11-09T14:06:54Z</time>
      </trkpt>
      <trkpt lat="49.91927" lon="2.14777">
        <ele>76.2</ele>
        <time>2022-11-09T14:06:56Z</time>
      </trkpt>
      <trkpt lat="49.91927" lon="2.14775">
        <ele>76.2</ele>
        <time>2022-11-09T14:06:57Z</time>
      </trkpt>
      <trkpt lat="49.91928" lon="2.14774">
        <ele>76.2</ele>
        <time>2022-11-09T14:06:58Z</time>
      </trkpt>
      <trkpt lat="49.91928" lon="2.14772">
        <ele>76.3</ele>
        <time>2022-11-09T14:06:59Z</time>
      </trkpt>
      <trkpt lat="49.91929" lon="2.14771">
        <ele>76.3</ele>
        <time>2022-11-09T14:07:00Z</time>
      </trkpt>
      <trkpt lat="49.91929" lon="2.14769">
        <ele>76.4</ele>
        <time>2022-11-09T14:07:01Z</time>
      </trkpt>
      <trkpt lat="49.9193" lon="2.14768">
        <ele>76.4</ele>
        <time>2022-11-09T14:07:03Z</time>
      </trkpt>
      <trkpt lat="49.9193" lon="2.14767">
        <ele>76.5</ele>
        <time>2022-11-09T14:07:04Z</time>
      </trkpt>
      <trkpt lat="49.91931" lon="2.14765">
        <ele>76.5</ele>
        <time>2022-11-09T14:07:05Z</time>
      </trkpt>
      <trkpt lat="49.91931" lon="2.14764">
        <ele>76.5</ele>
        <time>2022-11-09T14:07:06Z</time>
      </trkpt>
      <trkpt lat="49.91931" lon="2.14763">
        <ele>76.6</ele>
        <time>2022-11-09T14:07:07Z</time>
      </trkpt>
      <trkpt lat="49.91932" lon="2.14762">
        <ele>76.6</ele>
        <time>2022-11-09T14:07:08Z</time>
      </trkpt>
      <trkpt lat="49.91932" lon="2.14761">
        <ele>76.6</ele>
        <time>2022-11-09T14:07:09Z</time>
      </trkpt>
      <trkpt lat="49.91932" lon="2.1476">
        <ele>76.6</ele>
        <time>2022-11-09T14:07:10Z</time>
      </trkpt>
      <trkpt lat="49.91933" lon="2.14758">
        <ele>76.7</ele>
        <time>2022-11-09T14:07:11Z</time>
      </trkpt>
      <trkpt lat="49.91933" lon="2.14757">
        <ele>76.7</ele>
        <time>2022-11-09T14:07:12Z</time>
      </trkpt>
      <trkpt lat="49.91934" lon="2.14756">
        <ele>76.8</ele>
        <time>2022-11-09T14:07:14Z</time>
      </trkpt>
      <trkpt lat="49.91935" lon="2.14755">
        <ele>76.8</ele>
        <time>2022-11-09T14:07:15Z</time>
      </trkpt>
      <trkpt lat="49.91935" lon="2.14753">
        <ele>76.9</ele>
        <time>2022-11-09T14:07:16Z</time>
      </trkpt>
      <trkpt lat="49.91936" lon="2.14752">
        <ele>76.9</ele>
        <time>2022-11-09T14:07:17Z</time>
      </trkpt>
      <trkpt lat="49.91937" lon="2.1475">
        <ele>77</ele>
        <time>2022-11-09T14:07:18Z</time>
      </trkpt>
      <trkpt lat="49.91937" lon="2.14748">
        <ele>77</ele>
        <time>2022-11-09T14:07:19Z</time>
      </trkpt>
      <trkpt lat="49.91937" lon="2.14747">
        <ele>77.1</ele>
        <time>2022-11-09T14:07:21Z</time>
      </trkpt>
      <trkpt lat="49.91938" lon="2.14745">
        <ele>77.1</ele>
        <time>2022-11-09T14:07:22Z</time>
      </trkpt>
      <trkpt lat="49.91938" lon="2.14744">
        <ele>77.2</ele>
        <time>2022-11-09T14:07:23Z</time>
      </trkpt>
      <trkpt lat="49.91939" lon="2.14742">
        <ele>77.2</ele>
        <time>2022-11-09T14:07:24Z</time>
      </trkpt>
      <trkpt lat="49.91939" lon="2.14741">
        <ele>77.3</ele>
        <time>2022-11-09T14:07:25Z</time>
      </trkpt>
      <trkpt lat="49.91939" lon="2.14739">
        <ele>77.3</ele>
        <time>2022-11-09T14:07:26Z</time>
      </trkpt>
      <trkpt lat="49.9194" lon="2.14738">
        <ele>77.4</ele>
        <time>2022-11-09T14:07:27Z</time>
      </trkpt>
      <trkpt lat="49.9194" lon="2.14736">
        <ele>77.4</ele>
        <time>2022-11-09T14:07:28Z</time>
      </trkpt>
      <trkpt lat="49.91941" lon="2.14734">
        <ele>77.5</ele>
        <time>2022-11-09T14:07:29Z</time>
      </trkpt>
      <trkpt lat="49.91942" lon="2.14733">
        <ele>77.6</ele>
        <time>2022-11-09T14:07:30Z</time>
      </trkpt>
      <trkpt lat="49.91942" lon="2.14731">
        <ele>77.6</ele>
        <time>2022-11-09T14:07:31Z</time>
      </trkpt>
      <trkpt lat="49.91943" lon="2.1473">
        <ele>77.7</ele>
        <time>2022-11-09T14:07:32Z</time>
      </trkpt>
      <trkpt lat="49.91944" lon="2.14729">
        <ele>77.7</ele>
        <time>2022-11-09T14:07:33Z</time>
      </trkpt>
      <trkpt lat="49.91944" lon="2.14727">
        <ele>77.8</ele>
        <time>2022-11-09T14:07:35Z</time>
      </trkpt>
      <trkpt lat="49.91945" lon="2.14726">
        <ele>77.8</ele>
        <time>2022-11-09T14:07:36Z</time>
      </trkpt>
      <trkpt lat="49.91945" lon="2.14724">
        <ele>77.9</ele>
        <time>2022-11-09T14:07:37Z</time>
      </trkpt>
      <trkpt lat="49.91945" lon="2.14722">
        <ele>77.9</ele>
        <time>2022-11-09T14:07:38Z</time>
      </trkpt>
      <trkpt lat="49.91945" lon="2.14721">
        <ele>78</ele>
        <time>2022-11-09T14:07:39Z</time>
      </trkpt>
      <trkpt lat="49.91945" lon="2.14719">
        <ele>78.1</ele>
        <time>2022-11-09T14:07:41Z</time>
      </trkpt>
      <trkpt lat="49.91946" lon="2.14717">
        <ele>78.1</ele>
        <time>2022-11-09T14:07:42Z</time>
      </trkpt>
      <trkpt lat="49.91946" lon="2.14716">
        <ele>78.2</ele>
        <time>2022-11-09T14:07:43Z</time>
      </trkpt>
      <trkpt lat="49.91946" lon="2.14714">
        <ele>78.2</ele>
        <time>2022-11-09T14:07:44Z</time>
      </trkpt>
      <trkpt lat="49.91946" lon="2.14712">
        <ele>78.3</ele>
        <time>2022-11-09T14:07:45Z</time>
      </trkpt>
      <trkpt lat="49.91947" lon="2.1471">
        <ele>78.4</ele>
        <time>2022-11-09T14:07:47Z</time>
      </trkpt>
      <trkpt lat="49.91947" lon="2.14709">
        <ele>78.4</ele>
        <time>2022-11-09T14:07:48Z</time>
      </trkpt>
      <trkpt lat="49.91948" lon="2.14707">
        <ele>78.5</ele>
        <time>2022-11-09T14:07:49Z</time>
      </trkpt>
      <trkpt lat="49.91948" lon="2.14706">
        <ele>78.5</ele>
        <time>2022-11-09T14:07:50Z</time>
      </trkpt>
      <trkpt lat="49.91948" lon="2.14704">
        <ele>78.6</ele>
        <time>2022-11-09T14:07:51Z</time>
      </trkpt>
      <trkpt lat="49.91948" lon="2.14702">
        <ele>78.6</ele>
        <time>2022-11-09T14:07:52Z</time>
      </trkpt>
      <trkpt lat="49.91949" lon="2.14701">
        <ele>78.7</ele>
        <time>2022-11-09T14:07:53Z</time>
      </trkpt>
      <trkpt lat="49.91949" lon="2.14699">
        <ele>78.8</ele>
        <time>2022-11-09T14:07:54Z</time>
      </trkpt>
      <trkpt lat="49.91949" lon="2.14697">
        <ele>78.8</ele>
        <time>2022-11-09T14:07:56Z</time>
      </trkpt>
      <trkpt lat="49.91949" lon="2.14696">
        <ele>78.9</ele>
        <time>2022-11-09T14:07:57Z</time>
      </trkpt>
      <trkpt lat="49.91949" lon="2.14694">
        <ele>78.9</ele>
        <time>2022-11-09T14:07:58Z</time>
      </trkpt>
      <trkpt lat="49.91949" lon="2.14693">
        <ele>79</ele>
        <time>2022-11-09T14:07:59Z</time>
      </trkpt>
      <trkpt lat="49.91949" lon="2.14691">
        <ele>79.1</ele>
        <time>2022-11-09T14:08:00Z</time>
      </trkpt>
      <trkpt lat="49.91949" lon="2.1469">
        <ele>79.1</ele>
        <time>2022-11-09T14:08:01Z</time>
      </trkpt>
      <trkpt lat="49.91949" lon="2.14688">
        <ele>79.2</ele>
        <time>2022-11-09T14:08:02Z</time>
      </trkpt>
      <trkpt lat="49.91949" lon="2.14686">
        <ele>79.3</ele>
        <time>2022-11-09T14:08:03Z</time>
      </trkpt>
      <trkpt lat="49.9195" lon="2.14684">
        <ele>79.3</ele>
        <time>2022-11-09T14:08:04Z</time>
      </trkpt>
      <trkpt lat="49.9195" lon="2.14682">
        <ele>79.4</ele>
        <time>2022-11-09T14:08:05Z</time>
      </trkpt>
      <trkpt lat="49.91951" lon="2.14681">
        <ele>79.5</ele>
        <time>2022-11-09T14:08:07Z</time>
      </trkpt>
      <trkpt lat="49.91951" lon="2.14679">
        <ele>79.5</ele>
        <time>2022-11-09T14:08:08Z</time>
      </trkpt>
      <trkpt lat="49.91952" lon="2.14678">
        <ele>79.6</ele>
        <time>2022-11-09T14:08:09Z</time>
      </trkpt>
      <trkpt lat="49.91952" lon="2.14676">
        <ele>79.7</ele>
        <time>2022-11-09T14:08:11Z</time>
      </trkpt>
      <trkpt lat="49.91953" lon="2.14675">
        <ele>79.8</ele>
        <time>2022-11-09T14:08:12Z</time>
      </trkpt>
      <trkpt lat="49.91954" lon="2.14672">
        <ele>79.9</ele>
        <time>2022-11-09T14:08:13Z</time>
      </trkpt>
      <trkpt lat="49.91954" lon="2.14671">
        <ele>79.9</ele>
        <time>2022-11-09T14:08:14Z</time>
      </trkpt>
      <trkpt lat="49.91955" lon="2.14669">
        <ele>80</ele>
        <time>2022-11-09T14:08:15Z</time>
      </trkpt>
      <trkpt lat="49.91955" lon="2.14668">
        <ele>80.1</ele>
        <time>2022-11-09T14:08:17Z</time>
      </trkpt>
      <trkpt lat="49.91955" lon="2.14666">
        <ele>80.1</ele>
        <time>2022-11-09T14:08:18Z</time>
      </trkpt>
      <trkpt lat="49.91956" lon="2.14664">
        <ele>80.2</ele>
        <time>2022-11-09T14:08:19Z</time>
      </trkpt>
      <trkpt lat="49.91957" lon="2.14662">
        <ele>80.3</ele>
        <time>2022-11-09T14:08:20Z</time>
      </trkpt>
      <trkpt lat="49.91957" lon="2.14661">
        <ele>80.4</ele>
        <time>2022-11-09T14:08:21Z</time>
      </trkpt>
      <trkpt lat="49.91958" lon="2.14659">
        <ele>80.5</ele>
        <time>2022-11-09T14:08:23Z</time>
      </trkpt>
      <trkpt lat="49.91958" lon="2.14657">
        <ele>80.6</ele>
        <time>2022-11-09T14:08:24Z</time>
      </trkpt>
      <trkpt lat="49.91959" lon="2.14656">
        <ele>80.6</ele>
        <time>2022-11-09T14:08:25Z</time>
      </trkpt>
      <trkpt lat="49.91959" lon="2.14655">
        <ele>80.7</ele>
        <time>2022-11-09T14:08:26Z</time>
      </trkpt>
      <trkpt lat="49.9196" lon="2.14653">
        <ele>80.8</ele>
        <time>2022-11-09T14:08:27Z</time>
      </trkpt>
      <trkpt lat="49.9196" lon="2.14652">
        <ele>80.9</ele>
        <time>2022-11-09T14:08:28Z</time>
      </trkpt>
      <trkpt lat="49.91961" lon="2.1465">
        <ele>81</ele>
        <time>2022-11-09T14:08:29Z</time>
      </trkpt>
      <trkpt lat="49.91962" lon="2.14648">
        <ele>81.1</ele>
        <time>2022-11-09T14:08:30Z</time>
      </trkpt>
      <trkpt lat="49.91963" lon="2.14647">
        <ele>81.2</ele>
        <time>2022-11-09T14:08:31Z</time>
      </trkpt>
      <trkpt lat="49.91963" lon="2.14646">
        <ele>81.3</ele>
        <time>2022-11-09T14:08:32Z</time>
      </trkpt>
      <trkpt lat="49.91964" lon="2.14644">
        <ele>81.4</ele>
        <time>2022-11-09T14:08:34Z</time>
      </trkpt>
      <trkpt lat="49.91964" lon="2.14642">
        <ele>81.5</ele>
        <time>2022-11-09T14:08:35Z</time>
      </trkpt>
      <trkpt lat="49.91965" lon="2.14639">
        <ele>81.7</ele>
        <time>2022-11-09T14:08:36Z</time>
      </trkpt>
      <trkpt lat="49.91965" lon="2.14637">
        <ele>81.8</ele>
        <time>2022-11-09T14:08:37Z</time>
      </trkpt>
      <trkpt lat="49.91965" lon="2.14636">
        <ele>81.8</ele>
        <time>2022-11-09T14:08:38Z</time>
      </trkpt>
      <trkpt lat="49.91966" lon="2.14633">
        <ele>82</ele>
        <time>2022-11-09T14:08:40Z</time>
      </trkpt>
      <trkpt lat="49.91967" lon="2.14632">
        <ele>82.1</ele>
        <time>2022-11-09T14:08:41Z</time>
      </trkpt>
      <trkpt lat="49.91967" lon="2.14631">
        <ele>82.2</ele>
        <time>2022-11-09T14:08:42Z</time>
      </trkpt>
      <trkpt lat="49.91968" lon="2.14629">
        <ele>82.3</ele>
        <time>2022-11-09T14:08:43Z</time>
      </trkpt>
      <trkpt lat="49.91968" lon="2.14628">
        <ele>82.3</ele>
        <time>2022-11-09T14:08:45Z</time>
      </trkpt>
      <trkpt lat="49.91968" lon="2.14627">
        <ele>82.4</ele>
        <time>2022-11-09T14:08:46Z</time>
      </trkpt>
      <trkpt lat="49.91968" lon="2.14626">
        <ele>82.5</ele>
        <time>2022-11-09T14:08:47Z</time>
      </trkpt>
      <trkpt lat="49.91969" lon="2.14624">
        <ele>82.5</ele>
        <time>2022-11-09T14:08:48Z</time>
      </trkpt>
      <trkpt lat="49.9197" lon="2.14623">
        <ele>82.6</ele>
        <time>2022-11-09T14:08:50Z</time>
      </trkpt>
      <trkpt lat="49.9197" lon="2.14622">
        <ele>82.7</ele>
        <time>2022-11-09T14:08:51Z</time>
      </trkpt>
      <trkpt lat="49.91971" lon="2.1462">
        <ele>82.8</ele>
        <time>2022-11-09T14:08:52Z</time>
      </trkpt>
      <trkpt lat="49.91972" lon="2.14619">
        <ele>82.9</ele>
        <time>2022-11-09T14:08:53Z</time>
      </trkpt>
      <trkpt lat="49.91972" lon="2.14618">
        <ele>83</ele>
        <time>2022-11-09T14:08:55Z</time>
      </trkpt>
      <trkpt lat="49.91973" lon="2.14617">
        <ele>83</ele>
        <time>2022-11-09T14:08:56Z</time>
      </trkpt>
      <trkpt lat="49.91973" lon="2.14617">
        <ele>83.1</ele>
        <time>2022-11-09T14:08:57Z</time>
      </trkpt>
      <trkpt lat="49.91974" lon="2.14616">
        <ele>83.1</ele>
        <time>2022-11-09T14:08:58Z</time>
      </trkpt>
      <trkpt lat="49.91974" lon="2.14615">
        <ele>83.2</ele>
        <time>2022-11-09T14:09:00Z</time>
      </trkpt>
      <trkpt lat="49.91975" lon="2.14614">
        <ele>83.2</ele>
        <time>2022-11-09T14:09:01Z</time>
      </trkpt>
      <trkpt lat="49.91976" lon="2.14613">
        <ele>83.3</ele>
        <time>2022-11-09T14:09:02Z</time>
      </trkpt>
      <trkpt lat="49.91977" lon="2.14612">
        <ele>83.4</ele>
        <time>2022-11-09T14:09:03Z</time>
      </trkpt>
      <trkpt lat="49.91977" lon="2.14611">
        <ele>83.5</ele>
        <time>2022-11-09T14:09:05Z</time>
      </trkpt>
      <trkpt lat="49.91978" lon="2.14611">
        <ele>83.5</ele>
        <time>2022-11-09T14:09:06Z</time>
      </trkpt>
      <trkpt lat="49.91979" lon="2.1461">
        <ele>83.6</ele>
        <time>2022-11-09T14:09:07Z</time>
      </trkpt>
      <trkpt lat="49.91979" lon="2.1461">
        <ele>83.7</ele>
        <time>2022-11-09T14:09:08Z</time>
      </trkpt>
      <trkpt lat="49.9198" lon="2.14609">
        <ele>83.7</ele>
        <time>2022-11-09T14:09:09Z</time>
      </trkpt>
      <trkpt lat="49.91981" lon="2.14609">
        <ele>83.8</ele>
        <time>2022-11-09T14:09:10Z</time>
      </trkpt>
      <trkpt lat="49.91982" lon="2.14608">
        <ele>83.9</ele>
        <time>2022-11-09T14:09:11Z</time>
      </trkpt>
      <trkpt lat="49.91982" lon="2.14607">
        <ele>83.9</ele>
        <time>2022-11-09T14:09:12Z</time>
      </trkpt>
      <trkpt lat="49.91983" lon="2.14606">
        <ele>84</ele>
        <time>2022-11-09T14:09:13Z</time>
      </trkpt>
      <trkpt lat="49.91984" lon="2.14604">
        <ele>84.1</ele>
        <time>2022-11-09T14:09:14Z</time>
      </trkpt>
      <trkpt lat="49.91985" lon="2.14603">
        <ele>84.2</ele>
        <time>2022-11-09T14:09:15Z</time>
      </trkpt>
      <trkpt lat="49.91986" lon="2.14601">
        <ele>84.3</ele>
        <time>2022-11-09T14:09:17Z</time>
      </trkpt>
      <trkpt lat="49.91986" lon="2.146">
        <ele>84.4</ele>
        <time>2022-11-09T14:09:18Z</time>
      </trkpt>
      <trkpt lat="49.91987" lon="2.14597">
        <ele>84.6</ele>
        <time>2022-11-09T14:09:19Z</time>
      </trkpt>
      <trkpt lat="49.91988" lon="2.14596">
        <ele>84.6</ele>
        <time>2022-11-09T14:09:20Z</time>
      </trkpt>
      <trkpt lat="49.91988" lon="2.14594">
        <ele>84.7</ele>
        <time>2022-11-09T14:09:21Z</time>
      </trkpt>
      <trkpt lat="49.91989" lon="2.14592">
        <ele>84.8</ele>
        <time>2022-11-09T14:09:22Z</time>
      </trkpt>
      <trkpt lat="49.91989" lon="2.14591">
        <ele>84.9</ele>
        <time>2022-11-09T14:09:23Z</time>
      </trkpt>
      <trkpt lat="49.9199" lon="2.14588">
        <ele>85</ele>
        <time>2022-11-09T14:09:25Z</time>
      </trkpt>
      <trkpt lat="49.9199" lon="2.14586">
        <ele>85.1</ele>
        <time>2022-11-09T14:09:26Z</time>
      </trkpt>
      <trkpt lat="49.91991" lon="2.14585">
        <ele>85.2</ele>
        <time>2022-11-09T14:09:27Z</time>
      </trkpt>
      <trkpt lat="49.91992" lon="2.14582">
        <ele>85.3</ele>
        <time>2022-11-09T14:09:28Z</time>
      </trkpt>
      <trkpt lat="49.91992" lon="2.14581">
        <ele>85.4</ele>
        <time>2022-11-09T14:09:30Z</time>
      </trkpt>
      <trkpt lat="49.91993" lon="2.1458">
        <ele>85.4</ele>
        <time>2022-11-09T14:09:31Z</time>
      </trkpt>
      <trkpt lat="49.91993" lon="2.14579">
        <ele>85.5</ele>
        <time>2022-11-09T14:09:32Z</time>
      </trkpt>
      <trkpt lat="49.91994" lon="2.14578">
        <ele>85.6</ele>
        <time>2022-11-09T14:09:33Z</time>
      </trkpt>
      <trkpt lat="49.91994" lon="2.14576">
        <ele>85.6</ele>
        <time>2022-11-09T14:09:34Z</time>
      </trkpt>
      <trkpt lat="49.91996" lon="2.14574">
        <ele>85.8</ele>
        <time>2022-11-09T14:09:36Z</time>
      </trkpt>
      <trkpt lat="49.91996" lon="2.14573">
        <ele>85.8</ele>
        <time>2022-11-09T14:09:37Z</time>
      </trkpt>
      <trkpt lat="49.91997" lon="2.14572">
        <ele>85.9</ele>
        <time>2022-11-09T14:09:38Z</time>
      </trkpt>
      <trkpt lat="49.91998" lon="2.14571">
        <ele>86</ele>
        <time>2022-11-09T14:09:39Z</time>
      </trkpt>
      <trkpt lat="49.91999" lon="2.1457">
        <ele>86</ele>
        <time>2022-11-09T14:09:40Z</time>
      </trkpt>
      <trkpt lat="49.92" lon="2.14569">
        <ele>86.1</ele>
        <time>2022-11-09T14:09:42Z</time>
      </trkpt>
      <trkpt lat="49.92" lon="2.14569">
        <ele>86.2</ele>
        <time>2022-11-09T14:09:43Z</time>
      </trkpt>
      <trkpt lat="49.92001" lon="2.14568">
        <ele>86.2</ele>
        <time>2022-11-09T14:09:44Z</time>
      </trkpt>
      <trkpt lat="49.92002" lon="2.14567">
        <ele>86.3</ele>
        <time>2022-11-09T14:09:45Z</time>
      </trkpt>
      <trkpt lat="49.92003" lon="2.14566">
        <ele>86.4</ele>
        <time>2022-11-09T14:09:47Z</time>
      </trkpt>
      <trkpt lat="49.92004" lon="2.14565">
        <ele>86.4</ele>
        <time>2022-11-09T14:09:48Z</time>
      </trkpt>
      <trkpt lat="49.92004" lon="2.14565">
        <ele>86.5</ele>
        <time>2022-11-09T14:09:49Z</time>
      </trkpt>
      <trkpt lat="49.92005" lon="2.14564">
        <ele>86.5</ele>
        <time>2022-11-09T14:09:50Z</time>
      </trkpt>
      <trkpt lat="49.92005" lon="2.14564">
        <ele>86.5</ele>
        <time>2022-11-09T14:09:51Z</time>
      </trkpt>
      <trkpt lat="49.92007" lon="2.14561">
        <ele>86.7</ele>
        <time>2022-11-09T14:09:52Z</time>
      </trkpt>
      <trkpt lat="49.92007" lon="2.1456">
        <ele>86.7</ele>
        <time>2022-11-09T14:09:53Z</time>
      </trkpt>
      <trkpt lat="49.92007" lon="2.14559">
        <ele>86.8</ele>
        <time>2022-11-09T14:09:55Z</time>
      </trkpt>
      <trkpt lat="49.92008" lon="2.14558">
        <ele>86.8</ele>
        <time>2022-11-09T14:09:56Z</time>
      </trkpt>
      <trkpt lat="49.92008" lon="2.14557">
        <ele>86.9</ele>
        <time>2022-11-09T14:09:57Z</time>
      </trkpt>
      <trkpt lat="49.92009" lon="2.14556">
        <ele>86.9</ele>
        <time>2022-11-09T14:09:58Z</time>
      </trkpt>
      <trkpt lat="49.92009" lon="2.14555">
        <ele>87</ele>
        <time>2022-11-09T14:10:00Z</time>
      </trkpt>
      <trkpt lat="49.9201" lon="2.14554">
        <ele>87.1</ele>
        <time>2022-11-09T14:10:01Z</time>
      </trkpt>
      <trkpt lat="49.9201" lon="2.14553">
        <ele>87.1</ele>
        <time>2022-11-09T14:10:02Z</time>
      </trkpt>
      <trkpt lat="49.92011" lon="2.14552">
        <ele>87.2</ele>
        <time>2022-11-09T14:10:03Z</time>
      </trkpt>
      <trkpt lat="49.92011" lon="2.14551">
        <ele>87.2</ele>
        <time>2022-11-09T14:10:04Z</time>
      </trkpt>
      <trkpt lat="49.92012" lon="2.1455">
        <ele>87.3</ele>
        <time>2022-11-09T14:10:06Z</time>
      </trkpt>
      <trkpt lat="49.92012" lon="2.14548">
        <ele>87.3</ele>
        <time>2022-11-09T14:10:07Z</time>
      </trkpt>
      <trkpt lat="49.92012" lon="2.14547">
        <ele>87.4</ele>
        <time>2022-11-09T14:10:08Z</time>
      </trkpt>
      <trkpt lat="49.92012" lon="2.14545">
        <ele>87.4</ele>
        <time>2022-11-09T14:10:09Z</time>
      </trkpt>
      <trkpt lat="49.92013" lon="2.14543">
        <ele>87.5</ele>
        <time>2022-11-09T14:10:10Z</time>
      </trkpt>
      <trkpt lat="49.92013" lon="2.14542">
        <ele>87.6</ele>
        <time>2022-11-09T14:10:12Z</time>
      </trkpt>
      <trkpt lat="49.92013" lon="2.1454">
        <ele>87.7</ele>
        <time>2022-11-09T14:10:13Z</time>
      </trkpt>
      <trkpt lat="49.92013" lon="2.14538">
        <ele>87.8</ele>
        <time>2022-11-09T14:10:14Z</time>
      </trkpt>
      <trkpt lat="49.92013" lon="2.14536">
        <ele>87.8</ele>
        <time>2022-11-09T14:10:15Z</time>
      </trkpt>
      <trkpt lat="49.92014" lon="2.14533">
        <ele>87.9</ele>
        <time>2022-11-09T14:10:16Z</time>
      </trkpt>
      <trkpt lat="49.92015" lon="2.14532">
        <ele>88</ele>
        <time>2022-11-09T14:10:17Z</time>
      </trkpt>
      <trkpt lat="49.92015" lon="2.14531">
        <ele>88</ele>
        <time>2022-11-09T14:10:18Z</time>
      </trkpt>
      <trkpt lat="49.92017" lon="2.14529">
        <ele>88.1</ele>
        <time>2022-11-09T14:10:19Z</time>
      </trkpt>
      <trkpt lat="49.92017" lon="2.14528">
        <ele>88.2</ele>
        <time>2022-11-09T14:10:21Z</time>
      </trkpt>
      <trkpt lat="49.92018" lon="2.14527">
        <ele>88.2</ele>
        <time>2022-11-09T14:10:22Z</time>
      </trkpt>
      <trkpt lat="49.92019" lon="2.14525">
        <ele>88.3</ele>
        <time>2022-11-09T14:10:23Z</time>
      </trkpt>
      <trkpt lat="49.9202" lon="2.14524">
        <ele>88.4</ele>
        <time>2022-11-09T14:10:24Z</time>
      </trkpt>
      <trkpt lat="49.9202" lon="2.14522">
        <ele>88.4</ele>
        <time>2022-11-09T14:10:26Z</time>
      </trkpt>
      <trkpt lat="49.92021" lon="2.14521">
        <ele>88.5</ele>
        <time>2022-11-09T14:10:27Z</time>
      </trkpt>
      <trkpt lat="49.92022" lon="2.1452">
        <ele>88.5</ele>
        <time>2022-11-09T14:10:28Z</time>
      </trkpt>
      <trkpt lat="49.92023" lon="2.14519">
        <ele>88.6</ele>
        <time>2022-11-09T14:10:29Z</time>
      </trkpt>
      <trkpt lat="49.92024" lon="2.14518">
        <ele>88.6</ele>
        <time>2022-11-09T14:10:30Z</time>
      </trkpt>
      <trkpt lat="49.92025" lon="2.14517">
        <ele>88.7</ele>
        <time>2022-11-09T14:10:31Z</time>
      </trkpt>
      <trkpt lat="49.92026" lon="2.14515">
        <ele>88.8</ele>
        <time>2022-11-09T14:10:32Z</time>
      </trkpt>
      <trkpt lat="49.92027" lon="2.14514">
        <ele>88.9</ele>
        <time>2022-11-09T14:10:33Z</time>
      </trkpt>
      <trkpt lat="49.92028" lon="2.14514">
        <ele>88.9</ele>
        <time>2022-11-09T14:10:35Z</time>
      </trkpt>
      <trkpt lat="49.92029" lon="2.14513">
        <ele>89</ele>
        <time>2022-11-09T14:10:36Z</time>
      </trkpt>
      <trkpt lat="49.9203" lon="2.14512">
        <ele>89</ele>
        <time>2022-11-09T14:10:37Z</time>
      </trkpt>
      <trkpt lat="49.9203" lon="2.14511">
        <ele>89</ele>
        <time>2022-11-09T14:10:38Z</time>
      </trkpt>
      <trkpt lat="49.92031" lon="2.1451">
        <ele>89.1</ele>
        <time>2022-11-09T14:10:39Z</time>
      </trkpt>
      <trkpt lat="49.92032" lon="2.14509">
        <ele>89.1</ele>
        <time>2022-11-09T14:10:41Z</time>
      </trkpt>
      <trkpt lat="49.92033" lon="2.14509">
        <ele>89.2</ele>
        <time>2022-11-09T14:10:42Z</time>
      </trkpt>
      <trkpt lat="49.92034" lon="2.14508">
        <ele>89.2</ele>
        <time>2022-11-09T14:10:43Z</time>
      </trkpt>
      <trkpt lat="49.92034" lon="2.14507">
        <ele>89.3</ele>
        <time>2022-11-09T14:10:44Z</time>
      </trkpt>
      <trkpt lat="49.92035" lon="2.14506">
        <ele>89.3</ele>
        <time>2022-11-09T14:10:45Z</time>
      </trkpt>
      <trkpt lat="49.92036" lon="2.14505">
        <ele>89.4</ele>
        <time>2022-11-09T14:10:46Z</time>
      </trkpt>
      <trkpt lat="49.92037" lon="2.14504">
        <ele>89.4</ele>
        <time>2022-11-09T14:10:47Z</time>
      </trkpt>
      <trkpt lat="49.92038" lon="2.14503">
        <ele>89.5</ele>
        <time>2022-11-09T14:10:48Z</time>
      </trkpt>
      <trkpt lat="49.92039" lon="2.14502">
        <ele>89.5</ele>
        <time>2022-11-09T14:10:50Z</time>
      </trkpt>
      <trkpt lat="49.92039" lon="2.14501">
        <ele>89.5</ele>
        <time>2022-11-09T14:10:51Z</time>
      </trkpt>
      <trkpt lat="49.9204" lon="2.145">
        <ele>89.6</ele>
        <time>2022-11-09T14:10:52Z</time>
      </trkpt>
      <trkpt lat="49.9204" lon="2.14499">
        <ele>89.6</ele>
        <time>2022-11-09T14:10:53Z</time>
      </trkpt>
      <trkpt lat="49.92041" lon="2.14497">
        <ele>89.7</ele>
        <time>2022-11-09T14:10:54Z</time>
      </trkpt>
      <trkpt lat="49.92041" lon="2.14495">
        <ele>89.7</ele>
        <time>2022-11-09T14:10:55Z</time>
      </trkpt>
      <trkpt lat="49.92041" lon="2.14493">
        <ele>89.8</ele>
        <time>2022-11-09T14:10:56Z</time>
      </trkpt>
      <trkpt lat="49.92041" lon="2.14491">
        <ele>89.8</ele>
        <time>2022-11-09T14:10:58Z</time>
      </trkpt>
      <trkpt lat="49.92042" lon="2.14489">
        <ele>89.9</ele>
        <time>2022-11-09T14:10:59Z</time>
      </trkpt>
      <trkpt lat="49.92042" lon="2.14487">
        <ele>90</ele>
        <time>2022-11-09T14:11:00Z</time>
      </trkpt>
      <trkpt lat="49.92043" lon="2.14485">
        <ele>90</ele>
        <time>2022-11-09T14:11:01Z</time>
      </trkpt>
      <trkpt lat="49.92043" lon="2.14484">
        <ele>90.1</ele>
        <time>2022-11-09T14:11:02Z</time>
      </trkpt>
      <trkpt lat="49.92044" lon="2.14481">
        <ele>90.1</ele>
        <time>2022-11-09T14:11:03Z</time>
      </trkpt>
      <trkpt lat="49.92045" lon="2.1448">
        <ele>90.2</ele>
        <time>2022-11-09T14:11:05Z</time>
      </trkpt>
      <trkpt lat="49.92045" lon="2.14479">
        <ele>90.2</ele>
        <time>2022-11-09T14:11:06Z</time>
      </trkpt>
      <trkpt lat="49.92046" lon="2.14477">
        <ele>90.3</ele>
        <time>2022-11-09T14:11:07Z</time>
      </trkpt>
      <trkpt lat="49.92047" lon="2.14476">
        <ele>90.3</ele>
        <time>2022-11-09T14:11:08Z</time>
      </trkpt>
      <trkpt lat="49.92047" lon="2.14475">
        <ele>90.4</ele>
        <time>2022-11-09T14:11:09Z</time>
      </trkpt>
      <trkpt lat="49.92048" lon="2.14473">
        <ele>90.4</ele>
        <time>2022-11-09T14:11:10Z</time>
      </trkpt>
      <trkpt lat="49.92049" lon="2.14472">
        <ele>90.4</ele>
        <time>2022-11-09T14:11:12Z</time>
      </trkpt>
      <trkpt lat="49.92049" lon="2.1447">
        <ele>90.5</ele>
        <time>2022-11-09T14:11:13Z</time>
      </trkpt>
      <trkpt lat="49.9205" lon="2.14469">
        <ele>90.5</ele>
        <time>2022-11-09T14:11:14Z</time>
      </trkpt>
      <trkpt lat="49.92051" lon="2.14467">
        <ele>90.6</ele>
        <time>2022-11-09T14:11:15Z</time>
      </trkpt>
      <trkpt lat="49.92051" lon="2.14466">
        <ele>90.6</ele>
        <time>2022-11-09T14:11:16Z</time>
      </trkpt>
      <trkpt lat="49.92052" lon="2.14465">
        <ele>90.6</ele>
        <time>2022-11-09T14:11:17Z</time>
      </trkpt>
      <trkpt lat="49.92053" lon="2.14463">
        <ele>90.7</ele>
        <time>2022-11-09T14:11:19Z</time>
      </trkpt>
      <trkpt lat="49.92053" lon="2.14462">
        <ele>90.7</ele>
        <time>2022-11-09T14:11:20Z</time>
      </trkpt>
      <trkpt lat="49.92055" lon="2.1446">
        <ele>90.8</ele>
        <time>2022-11-09T14:11:21Z</time>
      </trkpt>
      <trkpt lat="49.92055" lon="2.14459">
        <ele>90.8</ele>
        <time>2022-11-09T14:11:22Z</time>
      </trkpt>
      <trkpt lat="49.92056" lon="2.14458">
        <ele>90.8</ele>
        <time>2022-11-09T14:11:23Z</time>
      </trkpt>
      <trkpt lat="49.92057" lon="2.14456">
        <ele>90.8</ele>
        <time>2022-11-09T14:11:24Z</time>
      </trkpt>
      <trkpt lat="49.92058" lon="2.14455">
        <ele>90.9</ele>
        <time>2022-11-09T14:11:26Z</time>
      </trkpt>
      <trkpt lat="49.92059" lon="2.14454">
        <ele>90.9</ele>
        <time>2022-11-09T14:11:27Z</time>
      </trkpt>
      <trkpt lat="49.92059" lon="2.14452">
        <ele>90.9</ele>
        <time>2022-11-09T14:11:28Z</time>
      </trkpt>
      <trkpt lat="49.9206" lon="2.14451">
        <ele>90.9</ele>
        <time>2022-11-09T14:11:29Z</time>
      </trkpt>
      <trkpt lat="49.92061" lon="2.14449">
        <ele>90.9</ele>
        <time>2022-11-09T14:11:30Z</time>
      </trkpt>
      <trkpt lat="49.92061" lon="2.14448">
        <ele>91</ele>
        <time>2022-11-09T14:11:31Z</time>
      </trkpt>
      <trkpt lat="49.92062" lon="2.14447">
        <ele>91</ele>
        <time>2022-11-09T14:11:33Z</time>
      </trkpt>
      <trkpt lat="49.92062" lon="2.14445">
        <ele>91</ele>
        <time>2022-11-09T14:11:34Z</time>
      </trkpt>
      <trkpt lat="49.92063" lon="2.14444">
        <ele>91</ele>
        <time>2022-11-09T14:11:35Z</time>
      </trkpt>
      <trkpt lat="49.92063" lon="2.14442">
        <ele>91</ele>
        <time>2022-11-09T14:11:36Z</time>
      </trkpt>
      <trkpt lat="49.92064" lon="2.1444">
        <ele>91</ele>
        <time>2022-11-09T14:11:37Z</time>
      </trkpt>
      <trkpt lat="49.92064" lon="2.14439">
        <ele>91</ele>
        <time>2022-11-09T14:11:38Z</time>
      </trkpt>
      <trkpt lat="49.92065" lon="2.14437">
        <ele>91.1</ele>
        <time>2022-11-09T14:11:39Z</time>
      </trkpt>
      <trkpt lat="49.92066" lon="2.14435">
        <ele>91.1</ele>
        <time>2022-11-09T14:11:41Z</time>
      </trkpt>
      <trkpt lat="49.92066" lon="2.14433">
        <ele>91.1</ele>
        <time>2022-11-09T14:11:42Z</time>
      </trkpt>
      <trkpt lat="49.92067" lon="2.14432">
        <ele>91.1</ele>
        <time>2022-11-09T14:11:43Z</time>
      </trkpt>
      <trkpt lat="49.92067" lon="2.1443">
        <ele>91.1</ele>
        <time>2022-11-09T14:11:44Z</time>
      </trkpt>
      <trkpt lat="49.92069" lon="2.14427">
        <ele>91.1</ele>
        <time>2022-11-09T14:11:45Z</time>
      </trkpt>
      <trkpt lat="49.92069" lon="2.14426">
        <ele>91.1</ele>
        <time>2022-11-09T14:11:46Z</time>
      </trkpt>
      <trkpt lat="49.9207" lon="2.14426">
        <ele>91.2</ele>
        <time>2022-11-09T14:11:47Z</time>
      </trkpt>
      <trkpt lat="49.92071" lon="2.14424">
        <ele>91.2</ele>
        <time>2022-11-09T14:11:48Z</time>
      </trkpt>
      <trkpt lat="49.92072" lon="2.14423">
        <ele>91.2</ele>
        <time>2022-11-09T14:11:49Z</time>
      </trkpt>
      <trkpt lat="49.92072" lon="2.14422">
        <ele>91.2</ele>
        <time>2022-11-09T14:11:50Z</time>
      </trkpt>
      <trkpt lat="49.92073" lon="2.1442">
        <ele>91.2</ele>
        <time>2022-11-09T14:11:51Z</time>
      </trkpt>
      <trkpt lat="49.92074" lon="2.14418">
        <ele>91.2</ele>
        <time>2022-11-09T14:11:52Z</time>
      </trkpt>
      <trkpt lat="49.92075" lon="2.14416">
        <ele>91.2</ele>
        <time>2022-11-09T14:11:53Z</time>
      </trkpt>
      <trkpt lat="49.92076" lon="2.14414">
        <ele>91.2</ele>
        <time>2022-11-09T14:11:54Z</time>
      </trkpt>
      <trkpt lat="49.92077" lon="2.14412">
        <ele>91.2</ele>
        <time>2022-11-09T14:11:55Z</time>
      </trkpt>
      <trkpt lat="49.92078" lon="2.1441">
        <ele>91.2</ele>
        <time>2022-11-09T14:11:57Z</time>
      </trkpt>
      <trkpt lat="49.92078" lon="2.14409">
        <ele>91.2</ele>
        <time>2022-11-09T14:11:58Z</time>
      </trkpt>
      <trkpt lat="49.92079" lon="2.14406">
        <ele>91.2</ele>
        <time>2022-11-09T14:11:59Z</time>
      </trkpt>
      <trkpt lat="49.9208" lon="2.14405">
        <ele>91.2</ele>
        <time>2022-11-09T14:12:00Z</time>
      </trkpt>
      <trkpt lat="49.92081" lon="2.14404">
        <ele>91.2</ele>
        <time>2022-11-09T14:12:01Z</time>
      </trkpt>
      <trkpt lat="49.92081" lon="2.14402">
        <ele>91.2</ele>
        <time>2022-11-09T14:12:02Z</time>
      </trkpt>
      <trkpt lat="49.92082" lon="2.14401">
        <ele>91.2</ele>
        <time>2022-11-09T14:12:03Z</time>
      </trkpt>
      <trkpt lat="49.92083" lon="2.14399">
        <ele>91.1</ele>
        <time>2022-11-09T14:12:04Z</time>
      </trkpt>
      <trkpt lat="49.92084" lon="2.14398">
        <ele>91.1</ele>
        <time>2022-11-09T14:12:05Z</time>
      </trkpt>
      <trkpt lat="49.92085" lon="2.14396">
        <ele>91.1</ele>
        <time>2022-11-09T14:12:07Z</time>
      </trkpt>
      <trkpt lat="49.92086" lon="2.14394">
        <ele>91.1</ele>
        <time>2022-11-09T14:12:08Z</time>
      </trkpt>
      <trkpt lat="49.92087" lon="2.14393">
        <ele>91.1</ele>
        <time>2022-11-09T14:12:09Z</time>
      </trkpt>
      <trkpt lat="49.92087" lon="2.14392">
        <ele>91.1</ele>
        <time>2022-11-09T14:12:10Z</time>
      </trkpt>
      <trkpt lat="49.92088" lon="2.1439">
        <ele>91.1</ele>
        <time>2022-11-09T14:12:11Z</time>
      </trkpt>
      <trkpt lat="49.92089" lon="2.14389">
        <ele>91.1</ele>
        <time>2022-11-09T14:12:12Z</time>
      </trkpt>
      <trkpt lat="49.92089" lon="2.14388">
        <ele>91.1</ele>
        <time>2022-11-09T14:12:13Z</time>
      </trkpt>
      <trkpt lat="49.9209" lon="2.14387">
        <ele>91</ele>
        <time>2022-11-09T14:12:14Z</time>
      </trkpt>
      <trkpt lat="49.9209" lon="2.14385">
        <ele>91</ele>
        <time>2022-11-09T14:12:15Z</time>
      </trkpt>
      <trkpt lat="49.92091" lon="2.14384">
        <ele>91</ele>
        <time>2022-11-09T14:12:16Z</time>
      </trkpt>
      <trkpt lat="49.92092" lon="2.14382">
        <ele>91</ele>
        <time>2022-11-09T14:12:18Z</time>
      </trkpt>
      <trkpt lat="49.92092" lon="2.14381">
        <ele>91</ele>
        <time>2022-11-09T14:12:19Z</time>
      </trkpt>
      <trkpt lat="49.92093" lon="2.1438">
        <ele>90.9</ele>
        <time>2022-11-09T14:12:20Z</time>
      </trkpt>
      <trkpt lat="49.92094" lon="2.14378">
        <ele>90.9</ele>
        <time>2022-11-09T14:12:21Z</time>
      </trkpt>
      <trkpt lat="49.92095" lon="2.14377">
        <ele>90.9</ele>
        <time>2022-11-09T14:12:22Z</time>
      </trkpt>
      <trkpt lat="49.92095" lon="2.14376">
        <ele>90.9</ele>
        <time>2022-11-09T14:12:23Z</time>
      </trkpt>
      <trkpt lat="49.92096" lon="2.14375">
        <ele>90.8</ele>
        <time>2022-11-09T14:12:24Z</time>
      </trkpt>
      <trkpt lat="49.92097" lon="2.14373">
        <ele>90.8</ele>
        <time>2022-11-09T14:12:26Z</time>
      </trkpt>
      <trkpt lat="49.92098" lon="2.14372">
        <ele>90.8</ele>
        <time>2022-11-09T14:12:27Z</time>
      </trkpt>
      <trkpt lat="49.92098" lon="2.14371">
        <ele>90.8</ele>
        <time>2022-11-09T14:12:28Z</time>
      </trkpt>
      <trkpt lat="49.921" lon="2.14368">
        <ele>90.7</ele>
        <time>2022-11-09T14:12:29Z</time>
      </trkpt>
      <trkpt lat="49.921" lon="2.14367">
        <ele>90.7</ele>
        <time>2022-11-09T14:12:30Z</time>
      </trkpt>
      <trkpt lat="49.92101" lon="2.14366">
        <ele>90.7</ele>
        <time>2022-11-09T14:12:31Z</time>
      </trkpt>
      <trkpt lat="49.92102" lon="2.14365">
        <ele>90.6</ele>
        <time>2022-11-09T14:12:32Z</time>
      </trkpt>
      <trkpt lat="49.92102" lon="2.14364">
        <ele>90.6</ele>
        <time>2022-11-09T14:12:33Z</time>
      </trkpt>
      <trkpt lat="49.92103" lon="2.14362">
        <ele>90.6</ele>
        <time>2022-11-09T14:12:34Z</time>
      </trkpt>
      <trkpt lat="49.92104" lon="2.1436">
        <ele>90.5</ele>
        <time>2022-11-09T14:12:36Z</time>
      </trkpt>
      <trkpt lat="49.92104" lon="2.14358">
        <ele>90.5</ele>
        <time>2022-11-09T14:12:37Z</time>
      </trkpt>
      <trkpt lat="49.92105" lon="2.14357">
        <ele>90.4</ele>
        <time>2022-11-09T14:12:38Z</time>
      </trkpt>
      <trkpt lat="49.92106" lon="2.14355">
        <ele>90.4</ele>
        <time>2022-11-09T14:12:39Z</time>
      </trkpt>
      <trkpt lat="49.92107" lon="2.14354">
        <ele>90.3</ele>
        <time>2022-11-09T14:12:40Z</time>
      </trkpt>
      <trkpt lat="49.92107" lon="2.14353">
        <ele>90.3</ele>
        <time>2022-11-09T14:12:41Z</time>
      </trkpt>
      <trkpt lat="49.92109" lon="2.14351">
        <ele>90.2</ele>
        <time>2022-11-09T14:12:42Z</time>
      </trkpt>
      <trkpt lat="49.92109" lon="2.1435">
        <ele>90.2</ele>
        <time>2022-11-09T14:12:43Z</time>
      </trkpt>
      <trkpt lat="49.9211" lon="2.14349">
        <ele>90.2</ele>
        <time>2022-11-09T14:12:44Z</time>
      </trkpt>
      <trkpt lat="49.92111" lon="2.14348">
        <ele>90.1</ele>
        <time>2022-11-09T14:12:45Z</time>
      </trkpt>
      <trkpt lat="49.92112" lon="2.14346">
        <ele>90</ele>
        <time>2022-11-09T14:12:46Z</time>
      </trkpt>
      <trkpt lat="49.92112" lon="2.14345">
        <ele>90</ele>
        <time>2022-11-09T14:12:48Z</time>
      </trkpt>
      <trkpt lat="49.92113" lon="2.14342">
        <ele>89.9</ele>
        <time>2022-11-09T14:12:49Z</time>
      </trkpt>
      <trkpt lat="49.92114" lon="2.1434">
        <ele>89.8</ele>
        <time>2022-11-09T14:12:50Z</time>
      </trkpt>
      <trkpt lat="49.92115" lon="2.14337">
        <ele>89.7</ele>
        <time>2022-11-09T14:12:51Z</time>
      </trkpt>
      <trkpt lat="49.92116" lon="2.14335">
        <ele>89.7</ele>
        <time>2022-11-09T14:12:53Z</time>
      </trkpt>
      <trkpt lat="49.92116" lon="2.14334">
        <ele>89.6</ele>
        <time>2022-11-09T14:12:54Z</time>
      </trkpt>
      <trkpt lat="49.92117" lon="2.14332">
        <ele>89.6</ele>
        <time>2022-11-09T14:12:55Z</time>
      </trkpt>
      <trkpt lat="49.92117" lon="2.14331">
        <ele>89.5</ele>
        <time>2022-11-09T14:12:56Z</time>
      </trkpt>
      <trkpt lat="49.92118" lon="2.14328">
        <ele>89.4</ele>
        <time>2022-11-09T14:12:57Z</time>
      </trkpt>
      <trkpt lat="49.92119" lon="2.14326">
        <ele>89.3</ele>
        <time>2022-11-09T14:12:59Z</time>
      </trkpt>
      <trkpt lat="49.9212" lon="2.14324">
        <ele>89.2</ele>
        <time>2022-11-09T14:13:00Z</time>
      </trkpt>
      <trkpt lat="49.92121" lon="2.14323">
        <ele>89.2</ele>
        <time>2022-11-09T14:13:01Z</time>
      </trkpt>
      <trkpt lat="49.92122" lon="2.14321">
        <ele>89.1</ele>
        <time>2022-11-09T14:13:02Z</time>
      </trkpt>
      <trkpt lat="49.92123" lon="2.14319">
        <ele>89</ele>
        <time>2022-11-09T14:13:03Z</time>
      </trkpt>
      <trkpt lat="49.92123" lon="2.14317">
        <ele>88.9</ele>
        <time>2022-11-09T14:13:04Z</time>
      </trkpt>
      <trkpt lat="49.92124" lon="2.14315">
        <ele>88.8</ele>
        <time>2022-11-09T14:13:05Z</time>
      </trkpt>
      <trkpt lat="49.92125" lon="2.14312">
        <ele>88.7</ele>
        <time>2022-11-09T14:13:06Z</time>
      </trkpt>
      <trkpt lat="49.92126" lon="2.14311">
        <ele>88.7</ele>
        <time>2022-11-09T14:13:07Z</time>
      </trkpt>
      <trkpt lat="49.92126" lon="2.1431">
        <ele>88.6</ele>
        <time>2022-11-09T14:13:08Z</time>
      </trkpt>
      <trkpt lat="49.92127" lon="2.14308">
        <ele>88.5</ele>
        <time>2022-11-09T14:13:10Z</time>
      </trkpt>
      <trkpt lat="49.92128" lon="2.14307">
        <ele>88.4</ele>
        <time>2022-11-09T14:13:11Z</time>
      </trkpt>
      <trkpt lat="49.92129" lon="2.14304">
        <ele>88.3</ele>
        <time>2022-11-09T14:13:12Z</time>
      </trkpt>
      <trkpt lat="49.9213" lon="2.14303">
        <ele>88.2</ele>
        <time>2022-11-09T14:13:13Z</time>
      </trkpt>
      <trkpt lat="49.9213" lon="2.14302">
        <ele>88.2</ele>
        <time>2022-11-09T14:13:14Z</time>
      </trkpt>
      <trkpt lat="49.92132" lon="2.14299">
        <ele>88</ele>
        <time>2022-11-09T14:13:15Z</time>
      </trkpt>
      <trkpt lat="49.92132" lon="2.14298">
        <ele>88</ele>
        <time>2022-11-09T14:13:16Z</time>
      </trkpt>
      <trkpt lat="49.92133" lon="2.14297">
        <ele>87.9</ele>
        <time>2022-11-09T14:13:17Z</time>
      </trkpt>
      <trkpt lat="49.92134" lon="2.14296">
        <ele>87.8</ele>
        <time>2022-11-09T14:13:18Z</time>
      </trkpt>
      <trkpt lat="49.92134" lon="2.14295">
        <ele>87.7</ele>
        <time>2022-11-09T14:13:19Z</time>
      </trkpt>
      <trkpt lat="49.92135" lon="2.14294">
        <ele>87.7</ele>
        <time>2022-11-09T14:13:20Z</time>
      </trkpt>
      <trkpt lat="49.92136" lon="2.14293">
        <ele>87.6</ele>
        <time>2022-11-09T14:13:22Z</time>
      </trkpt>
      <trkpt lat="49.92136" lon="2.14291">
        <ele>87.5</ele>
        <time>2022-11-09T14:13:23Z</time>
      </trkpt>
      <trkpt lat="49.92137" lon="2.1429">
        <ele>87.4</ele>
        <time>2022-11-09T14:13:24Z</time>
      </trkpt>
      <trkpt lat="49.92138" lon="2.14289">
        <ele>87.4</ele>
        <time>2022-11-09T14:13:25Z</time>
      </trkpt>
      <trkpt lat="49.92138" lon="2.14287">
        <ele>87.3</ele>
        <time>2022-11-09T14:13:26Z</time>
      </trkpt>
      <trkpt lat="49.92139" lon="2.14286">
        <ele>87.2</ele>
        <time>2022-11-09T14:13:27Z</time>
      </trkpt>
      <trkpt lat="49.9214" lon="2.14284">
        <ele>87.1</ele>
        <time>2022-11-09T14:13:28Z</time>
      </trkpt>
      <trkpt lat="49.9214" lon="2.14283">
        <ele>87</ele>
        <time>2022-11-09T14:13:29Z</time>
      </trkpt>
      <trkpt lat="49.92141" lon="2.14281">
        <ele>87</ele>
        <time>2022-11-09T14:13:31Z</time>
      </trkpt>
      <trkpt lat="49.92141" lon="2.1428">
        <ele>86.9</ele>
        <time>2022-11-09T14:13:32Z</time>
      </trkpt>
      <trkpt lat="49.92142" lon="2.14278">
        <ele>86.8</ele>
        <time>2022-11-09T14:13:33Z</time>
      </trkpt>
      <trkpt lat="49.92142" lon="2.14277">
        <ele>86.7</ele>
        <time>2022-11-09T14:13:34Z</time>
      </trkpt>
      <trkpt lat="49.92143" lon="2.14275">
        <ele>86.6</ele>
        <time>2022-11-09T14:13:35Z</time>
      </trkpt>
      <trkpt lat="49.92143" lon="2.14273">
        <ele>86.5</ele>
        <time>2022-11-09T14:13:36Z</time>
      </trkpt>
      <trkpt lat="49.92144" lon="2.14272">
        <ele>86.5</ele>
        <time>2022-11-09T14:13:37Z</time>
      </trkpt>
      <trkpt lat="49.92144" lon="2.14271">
        <ele>86.4</ele>
        <time>2022-11-09T14:13:38Z</time>
      </trkpt>
      <trkpt lat="49.92145" lon="2.14269">
        <ele>86.3</ele>
        <time>2022-11-09T14:13:40Z</time>
      </trkpt>
      <trkpt lat="49.92146" lon="2.14267">
        <ele>86.2</ele>
        <time>2022-11-09T14:13:41Z</time>
      </trkpt>
      <trkpt lat="49.92146" lon="2.14266">
        <ele>86.1</ele>
        <time>2022-11-09T14:13:42Z</time>
      </trkpt>
      <trkpt lat="49.92147" lon="2.14264">
        <ele>86</ele>
        <time>2022-11-09T14:13:43Z</time>
      </trkpt>
      <trkpt lat="49.92147" lon="2.14263">
        <ele>85.9</ele>
        <time>2022-11-09T14:13:44Z</time>
      </trkpt>
      <trkpt lat="49.92148" lon="2.14262">
        <ele>85.9</ele>
        <time>2022-11-09T14:13:45Z</time>
      </trkpt>
      <trkpt lat="49.92148" lon="2.14261">
        <ele>85.8</ele>
        <time>2022-11-09T14:13:46Z</time>
      </trkpt>
      <trkpt lat="49.92149" lon="2.14259">
        <ele>85.7</ele>
        <time>2022-11-09T14:13:47Z</time>
      </trkpt>
      <trkpt lat="49.9215" lon="2.14258">
        <ele>85.6</ele>
        <time>2022-11-09T14:13:49Z</time>
      </trkpt>
      <trkpt lat="49.9215" lon="2.14256">
        <ele>85.5</ele>
        <time>2022-11-09T14:13:50Z</time>
      </trkpt>
      <trkpt lat="49.92151" lon="2.14255">
        <ele>85.5</ele>
        <time>2022-11-09T14:13:51Z</time>
      </trkpt>
      <trkpt lat="49.92153" lon="2.14253">
        <ele>85.3</ele>
        <time>2022-11-09T14:13:52Z</time>
      </trkpt>
      <trkpt lat="49.92153" lon="2.14252">
        <ele>85.2</ele>
        <time>2022-11-09T14:13:53Z</time>
      </trkpt>
      <trkpt lat="49.92154" lon="2.14251">
        <ele>85.2</ele>
        <time>2022-11-09T14:13:54Z</time>
      </trkpt>
      <trkpt lat="49.92155" lon="2.1425">
        <ele>85.1</ele>
        <time>2022-11-09T14:13:55Z</time>
      </trkpt>
      <trkpt lat="49.92155" lon="2.14248">
        <ele>85</ele>
        <time>2022-11-09T14:13:56Z</time>
      </trkpt>
      <trkpt lat="49.92156" lon="2.14247">
        <ele>84.9</ele>
        <time>2022-11-09T14:13:58Z</time>
      </trkpt>
      <trkpt lat="49.92158" lon="2.14244">
        <ele>84.7</ele>
        <time>2022-11-09T14:13:59Z</time>
      </trkpt>
      <trkpt lat="49.92158" lon="2.14243">
        <ele>84.7</ele>
        <time>2022-11-09T14:14:00Z</time>
      </trkpt>
      <trkpt lat="49.92159" lon="2.14243">
        <ele>84.6</ele>
        <time>2022-11-09T14:14:01Z</time>
      </trkpt>
      <trkpt lat="49.9216" lon="2.1424">
        <ele>84.4</ele>
        <time>2022-11-09T14:14:02Z</time>
      </trkpt>
      <trkpt lat="49.92161" lon="2.14239">
        <ele>84.4</ele>
        <time>2022-11-09T14:14:03Z</time>
      </trkpt>
      <trkpt lat="49.92161" lon="2.14238">
        <ele>84.3</ele>
        <time>2022-11-09T14:14:04Z</time>
      </trkpt>
      <trkpt lat="49.92163" lon="2.14236">
        <ele>84.1</ele>
        <time>2022-11-09T14:14:05Z</time>
      </trkpt>
      <trkpt lat="49.92163" lon="2.14235">
        <ele>84.1</ele>
        <time>2022-11-09T14:14:07Z</time>
      </trkpt>
      <trkpt lat="49.92164" lon="2.14234">
        <ele>84</ele>
        <time>2022-11-09T14:14:08Z</time>
      </trkpt>
      <trkpt lat="49.92165" lon="2.14233">
        <ele>83.9</ele>
        <time>2022-11-09T14:14:09Z</time>
      </trkpt>
      <trkpt lat="49.92165" lon="2.14232">
        <ele>83.8</ele>
        <time>2022-11-09T14:14:10Z</time>
      </trkpt>
      <trkpt lat="49.92166" lon="2.1423">
        <ele>83.7</ele>
        <time>2022-11-09T14:14:11Z</time>
      </trkpt>
      <trkpt lat="49.92167" lon="2.14229">
        <ele>83.7</ele>
        <time>2022-11-09T14:14:12Z</time>
      </trkpt>
      <trkpt lat="49.92167" lon="2.14227">
        <ele>83.6</ele>
        <time>2022-11-09T14:14:13Z</time>
      </trkpt>
      <trkpt lat="49.92168" lon="2.14226">
        <ele>83.5</ele>
        <time>2022-11-09T14:14:14Z</time>
      </trkpt>
      <trkpt lat="49.92169" lon="2.14224">
        <ele>83.4</ele>
        <time>2022-11-09T14:14:16Z</time>
      </trkpt>
      <trkpt lat="49.92169" lon="2.14223">
        <ele>83.3</ele>
        <time>2022-11-09T14:14:17Z</time>
      </trkpt>
      <trkpt lat="49.9217" lon="2.14221">
        <ele>83.2</ele>
        <time>2022-11-09T14:14:18Z</time>
      </trkpt>
      <trkpt lat="49.92171" lon="2.14219">
        <ele>83</ele>
        <time>2022-11-09T14:14:19Z</time>
      </trkpt>
      <trkpt lat="49.92172" lon="2.14217">
        <ele>83</ele>
        <time>2022-11-09T14:14:20Z</time>
      </trkpt>
      <trkpt lat="49.92172" lon="2.14216">
        <ele>82.9</ele>
        <time>2022-11-09T14:14:21Z</time>
      </trkpt>
      <trkpt lat="49.92173" lon="2.14215">
        <ele>82.8</ele>
        <time>2022-11-09T14:14:22Z</time>
      </trkpt>
      <trkpt lat="49.92174" lon="2.14213">
        <ele>82.7</ele>
        <time>2022-11-09T14:14:24Z</time>
      </trkpt>
      <trkpt lat="49.92174" lon="2.14212">
        <ele>82.7</ele>
        <time>2022-11-09T14:14:25Z</time>
      </trkpt>
      <trkpt lat="49.92175" lon="2.14211">
        <ele>82.6</ele>
        <time>2022-11-09T14:14:26Z</time>
      </trkpt>
      <trkpt lat="49.92176" lon="2.14209">
        <ele>82.5</ele>
        <time>2022-11-09T14:14:27Z</time>
      </trkpt>
      <trkpt lat="49.92177" lon="2.14208">
        <ele>82.4</ele>
        <time>2022-11-09T14:14:28Z</time>
      </trkpt>
      <trkpt lat="49.92177" lon="2.14207">
        <ele>82.3</ele>
        <time>2022-11-09T14:14:29Z</time>
      </trkpt>
      <trkpt lat="49.92178" lon="2.14205">
        <ele>82.2</ele>
        <time>2022-11-09T14:14:30Z</time>
      </trkpt>
      <trkpt lat="49.92179" lon="2.14204">
        <ele>82.1</ele>
        <time>2022-11-09T14:14:32Z</time>
      </trkpt>
      <trkpt lat="49.9218" lon="2.14203">
        <ele>82.1</ele>
        <time>2022-11-09T14:14:33Z</time>
      </trkpt>
      <trkpt lat="49.9218" lon="2.14202">
        <ele>82</ele>
        <time>2022-11-09T14:14:34Z</time>
      </trkpt>
      <trkpt lat="49.92181" lon="2.14201">
        <ele>81.9</ele>
        <time>2022-11-09T14:14:35Z</time>
      </trkpt>
      <trkpt lat="49.92182" lon="2.142">
        <ele>81.8</ele>
        <time>2022-11-09T14:14:36Z</time>
      </trkpt>
      <trkpt lat="49.92183" lon="2.14198">
        <ele>81.7</ele>
        <time>2022-11-09T14:14:37Z</time>
      </trkpt>
      <trkpt lat="49.92184" lon="2.14197">
        <ele>81.6</ele>
        <time>2022-11-09T14:14:39Z</time>
      </trkpt>
      <trkpt lat="49.92185" lon="2.14196">
        <ele>81.5</ele>
        <time>2022-11-09T14:14:40Z</time>
      </trkpt>
      <trkpt lat="49.92186" lon="2.14194">
        <ele>81.4</ele>
        <time>2022-11-09T14:14:42Z</time>
      </trkpt>
      <trkpt lat="49.92187" lon="2.14193">
        <ele>81.3</ele>
        <time>2022-11-09T14:14:43Z</time>
      </trkpt>
      <trkpt lat="49.92188" lon="2.14192">
        <ele>81.2</ele>
        <time>2022-11-09T14:14:44Z</time>
      </trkpt>
      <trkpt lat="49.92189" lon="2.14191">
        <ele>81.1</ele>
        <time>2022-11-09T14:14:45Z</time>
      </trkpt>
      <trkpt lat="49.9219" lon="2.1419">
        <ele>81</ele>
        <time>2022-11-09T14:14:46Z</time>
      </trkpt>
      <trkpt lat="49.92191" lon="2.14189">
        <ele>80.9</ele>
        <time>2022-11-09T14:14:47Z</time>
      </trkpt>
      <trkpt lat="49.92192" lon="2.14189">
        <ele>80.8</ele>
        <time>2022-11-09T14:14:48Z</time>
      </trkpt>
      <trkpt lat="49.92193" lon="2.14188">
        <ele>80.8</ele>
        <time>2022-11-09T14:14:49Z</time>
      </trkpt>
      <trkpt lat="49.92194" lon="2.14187">
        <ele>80.7</ele>
        <time>2022-11-09T14:14:51Z</time>
      </trkpt>
      <trkpt lat="49.92195" lon="2.14186">
        <ele>80.6</ele>
        <time>2022-11-09T14:14:52Z</time>
      </trkpt>
      <trkpt lat="49.92195" lon="2.14185">
        <ele>80.5</ele>
        <time>2022-11-09T14:14:53Z</time>
      </trkpt>
      <trkpt lat="49.92196" lon="2.14184">
        <ele>80.4</ele>
        <time>2022-11-09T14:14:54Z</time>
      </trkpt>
      <trkpt lat="49.92197" lon="2.14183">
        <ele>80.4</ele>
        <time>2022-11-09T14:14:55Z</time>
      </trkpt>
      <trkpt lat="49.92197" lon="2.14182">
        <ele>80.3</ele>
        <time>2022-11-09T14:14:56Z</time>
      </trkpt>
      <trkpt lat="49.92198" lon="2.1418">
        <ele>80.2</ele>
        <time>2022-11-09T14:14:57Z</time>
      </trkpt>
      <trkpt lat="49.92199" lon="2.14179">
        <ele>80.1</ele>
        <time>2022-11-09T14:14:59Z</time>
      </trkpt>
      <trkpt lat="49.92199" lon="2.14178">
        <ele>80</ele>
        <time>2022-11-09T14:15:00Z</time>
      </trkpt>
      <trkpt lat="49.922" lon="2.14177">
        <ele>79.9</ele>
        <time>2022-11-09T14:15:01Z</time>
      </trkpt>
      <trkpt lat="49.92201" lon="2.14176">
        <ele>79.8</ele>
        <time>2022-11-09T14:15:02Z</time>
      </trkpt>
      <trkpt lat="49.92202" lon="2.14175">
        <ele>79.7</ele>
        <time>2022-11-09T14:15:03Z</time>
      </trkpt>
      <trkpt lat="49.92203" lon="2.14174">
        <ele>79.6</ele>
        <time>2022-11-09T14:15:04Z</time>
      </trkpt>
      <trkpt lat="49.92204" lon="2.14173">
        <ele>79.5</ele>
        <time>2022-11-09T14:15:05Z</time>
      </trkpt>
      <trkpt lat="49.92205" lon="2.14171">
        <ele>79.5</ele>
        <time>2022-11-09T14:15:07Z</time>
      </trkpt>
      <trkpt lat="49.92206" lon="2.1417">
        <ele>79.4</ele>
        <time>2022-11-09T14:15:08Z</time>
      </trkpt>
      <trkpt lat="49.92207" lon="2.14169">
        <ele>79.3</ele>
        <time>2022-11-09T14:15:09Z</time>
      </trkpt>
      <trkpt lat="49.92208" lon="2.14166">
        <ele>79.1</ele>
        <time>2022-11-09T14:15:10Z</time>
      </trkpt>
      <trkpt lat="49.92209" lon="2.14165">
        <ele>79</ele>
        <time>2022-11-09T14:15:11Z</time>
      </trkpt>
      <trkpt lat="49.92209" lon="2.14164">
        <ele>78.9</ele>
        <time>2022-11-09T14:15:12Z</time>
      </trkpt>
      <trkpt lat="49.9221" lon="2.14163">
        <ele>78.8</ele>
        <time>2022-11-09T14:15:14Z</time>
      </trkpt>
      <trkpt lat="49.92211" lon="2.14161">
        <ele>78.7</ele>
        <time>2022-11-09T14:15:15Z</time>
      </trkpt>
      <trkpt lat="49.92211" lon="2.1416">
        <ele>78.6</ele>
        <time>2022-11-09T14:15:16Z</time>
      </trkpt>
      <trkpt lat="49.92213" lon="2.14158">
        <ele>78.5</ele>
        <time>2022-11-09T14:15:17Z</time>
      </trkpt>
      <trkpt lat="49.92213" lon="2.14157">
        <ele>78.4</ele>
        <time>2022-11-09T14:15:18Z</time>
      </trkpt>
      <trkpt lat="49.92214" lon="2.14156">
        <ele>78.3</ele>
        <time>2022-11-09T14:15:19Z</time>
      </trkpt>
      <trkpt lat="49.92214" lon="2.14154">
        <ele>78.2</ele>
        <time>2022-11-09T14:15:20Z</time>
      </trkpt>
      <trkpt lat="49.92215" lon="2.14153">
        <ele>78.2</ele>
        <time>2022-11-09T14:15:21Z</time>
      </trkpt>
      <trkpt lat="49.92216" lon="2.14152">
        <ele>78</ele>
        <time>2022-11-09T14:15:23Z</time>
      </trkpt>
      <trkpt lat="49.92216" lon="2.1415">
        <ele>77.9</ele>
        <time>2022-11-09T14:15:24Z</time>
      </trkpt>
      <trkpt lat="49.92217" lon="2.14149">
        <ele>77.8</ele>
        <time>2022-11-09T14:15:25Z</time>
      </trkpt>
      <trkpt lat="49.92217" lon="2.14147">
        <ele>77.7</ele>
        <time>2022-11-09T14:15:26Z</time>
      </trkpt>
      <trkpt lat="49.92218" lon="2.14146">
        <ele>77.6</ele>
        <time>2022-11-09T14:15:28Z</time>
      </trkpt>
      <trkpt lat="49.92219" lon="2.14145">
        <ele>77.6</ele>
        <time>2022-11-09T14:15:29Z</time>
      </trkpt>
      <trkpt lat="49.9222" lon="2.14144">
        <ele>77.5</ele>
        <time>2022-11-09T14:15:30Z</time>
      </trkpt>
      <trkpt lat="49.9222" lon="2.14143">
        <ele>77.4</ele>
        <time>2022-11-09T14:15:31Z</time>
      </trkpt>
      <trkpt lat="49.92221" lon="2.14142">
        <ele>77.3</ele>
        <time>2022-11-09T14:15:32Z</time>
      </trkpt>
      <trkpt lat="49.92222" lon="2.14141">
        <ele>77.2</ele>
        <time>2022-11-09T14:15:33Z</time>
      </trkpt>
      <trkpt lat="49.92223" lon="2.1414">
        <ele>77.1</ele>
        <time>2022-11-09T14:15:35Z</time>
      </trkpt>
      <trkpt lat="49.92223" lon="2.14139">
        <ele>77</ele>
        <time>2022-11-09T14:15:36Z</time>
      </trkpt>
      <trkpt lat="49.92224" lon="2.14137">
        <ele>76.9</ele>
        <time>2022-11-09T14:15:37Z</time>
      </trkpt>
      <trkpt lat="49.92224" lon="2.14136">
        <ele>76.8</ele>
        <time>2022-11-09T14:15:38Z</time>
      </trkpt>
      <trkpt lat="49.92225" lon="2.14135">
        <ele>76.8</ele>
        <time>2022-11-09T14:15:39Z</time>
      </trkpt>
      <trkpt lat="49.92225" lon="2.14133">
        <ele>76.7</ele>
        <time>2022-11-09T14:15:40Z</time>
      </trkpt>
      <trkpt lat="49.92225" lon="2.14132">
        <ele>76.6</ele>
        <time>2022-11-09T14:15:41Z</time>
      </trkpt>
      <trkpt lat="49.92225" lon="2.1413">
        <ele>76.5</ele>
        <time>2022-11-09T14:15:43Z</time>
      </trkpt>
      <trkpt lat="49.92226" lon="2.14129">
        <ele>76.4</ele>
        <time>2022-11-09T14:15:44Z</time>
      </trkpt>
      <trkpt lat="49.92226" lon="2.14128">
        <ele>76.3</ele>
        <time>2022-11-09T14:15:45Z</time>
      </trkpt>
      <trkpt lat="49.92227" lon="2.14127">
        <ele>76.3</ele>
        <time>2022-11-09T14:15:46Z</time>
      </trkpt>
      <trkpt lat="49.92227" lon="2.14126">
        <ele>76.2</ele>
        <time>2022-11-09T14:15:47Z</time>
      </trkpt>
      <trkpt lat="49.92227" lon="2.14125">
        <ele>76.1</ele>
        <time>2022-11-09T14:15:49Z</time>
      </trkpt>
      <trkpt lat="49.92227" lon="2.14124">
        <ele>76.1</ele>
        <time>2022-11-09T14:15:50Z</time>
      </trkpt>
      <trkpt lat="49.92227" lon="2.14123">
        <ele>76.1</ele>
        <time>2022-11-09T14:15:51Z</time>
      </trkpt>
      <trkpt lat="49.92226" lon="2.14123">
        <ele>76</ele>
        <time>2022-11-09T14:15:52Z</time>
      </trkpt>
      <trkpt lat="49.92226" lon="2.14123">
        <ele>76</ele>
        <time>2022-11-09T14:15:53Z</time>
      </trkpt>
      <trkpt lat="49.92225" lon="2.14122">
        <ele>75.9</ele>
        <time>2022-11-09T14:15:54Z</time>
      </trkpt>
      <trkpt lat="49.92225" lon="2.14122">
        <ele>75.9</ele>
        <time>2022-11-09T14:15:55Z</time>
      </trkpt>
      <trkpt lat="49.92224" lon="2.14122">
        <ele>75.8</ele>
        <time>2022-11-09T14:15:56Z</time>
      </trkpt>
      <trkpt lat="49.92224" lon="2.14122">
        <ele>75.8</ele>
        <time>2022-11-09T14:15:57Z</time>
      </trkpt>
      <trkpt lat="49.92224" lon="2.14121">
        <ele>75.8</ele>
        <time>2022-11-09T14:15:58Z</time>
      </trkpt>
      <trkpt lat="49.92224" lon="2.14121">
        <ele>75.8</ele>
        <time>2022-11-09T14:15:59Z</time>
      </trkpt>
      <trkpt lat="49.92224" lon="2.14121">
        <ele>75.8</ele>
        <time>2022-11-09T14:16:00Z</time>
      </trkpt>
      <trkpt lat="49.92223" lon="2.14121">
        <ele>75.8</ele>
        <time>2022-11-09T14:16:01Z</time>
      </trkpt>
      <trkpt lat="49.92223" lon="2.14121">
        <ele>75.8</ele>
        <time>2022-11-09T14:16:02Z</time>
      </trkpt>
      <trkpt lat="49.92223" lon="2.14121">
        <ele>75.8</ele>
        <time>2022-11-09T14:16:03Z</time>
      </trkpt>
      <trkpt lat="49.92223" lon="2.14121">
        <ele>75.7</ele>
        <time>2022-11-09T14:16:04Z</time>
      </trkpt>
      <trkpt lat="49.92223" lon="2.14121">
        <ele>75.7</ele>
        <time>2022-11-09T14:16:05Z</time>
      </trkpt>
      <trkpt lat="49.92223" lon="2.14121">
        <ele>75.7</ele>
        <time>2022-11-09T14:16:06Z</time>
      </trkpt>
      <trkpt lat="49.92223" lon="2.14121">
        <ele>75.7</ele>
        <time>2022-11-09T14:16:07Z</time>
      </trkpt>
      <trkpt lat="49.92223" lon="2.1412">
        <ele>75.7</ele>
        <time>2022-11-09T14:16:08Z</time>
      </trkpt>
      <trkpt lat="49.92223" lon="2.1412">
        <ele>75.7</ele>
        <time>2022-11-09T14:16:09Z</time>
      </trkpt>
      <trkpt lat="49.92223" lon="2.1412">
        <ele>75.7</ele>
        <time>2022-11-09T14:16:10Z</time>
      </trkpt>
      <trkpt lat="49.92223" lon="2.1412">
        <ele>75.7</ele>
        <time>2022-11-09T14:16:11Z</time>
      </trkpt>
      <trkpt lat="49.92223" lon="2.14121">
        <ele>75.7</ele>
        <time>2022-11-09T14:16:12Z</time>
      </trkpt>
      <trkpt lat="49.92223" lon="2.14121">
        <ele>75.7</ele>
        <time>2022-11-09T14:16:13Z</time>
      </trkpt>
      <trkpt lat="49.92223" lon="2.14121">
        <ele>75.7</ele>
        <time>2022-11-09T14:16:14Z</time>
      </trkpt>
      <trkpt lat="49.92223" lon="2.14121">
        <ele>75.7</ele>
        <time>2022-11-09T14:16:15Z</time>
      </trkpt>
      <trkpt lat="49.92223" lon="2.14121">
        <ele>75.7</ele>
        <time>2022-11-09T14:16:16Z</time>
      </trkpt>
      <trkpt lat="49.92223" lon="2.14121">
        <ele>75.7</ele>
        <time>2022-11-09T14:16:17Z</time>
      </trkpt>
      <trkpt lat="49.92223" lon="2.14121">
        <ele>75.7</ele>
        <time>2022-11-09T14:16:18Z</time>
      </trkpt>
      <trkpt lat="49.92223" lon="2.14121">
        <ele>75.7</ele>
        <time>2022-11-09T14:16:19Z</time>
      </trkpt>
      <trkpt lat="49.92223" lon="2.14121">
        <ele>75.7</ele>
        <time>2022-11-09T14:16:20Z</time>
      </trkpt>
      <trkpt lat="49.92223" lon="2.14121">
        <ele>75.7</ele>
        <time>2022-11-09T14:16:21Z</time>
      </trkpt>
      <trkpt lat="49.92223" lon="2.14121">
        <ele>75.7</ele>
        <time>2022-11-09T14:16:22Z</time>
      </trkpt>
      <trkpt lat="49.92223" lon="2.14121">
        <ele>75.7</ele>
        <time>2022-11-09T14:16:23Z</time>
      </trkpt>
      <trkpt lat="49.92223" lon="2.14121">
        <ele>75.7</ele>
        <time>2022-11-09T14:16:24Z</time>
      </trkpt>
      <trkpt lat="49.92223" lon="2.14121">
        <ele>75.7</ele>
        <time>2022-11-09T14:16:25Z</time>
      </trkpt>
      <trkpt lat="49.92223" lon="2.14121">
        <ele>75.7</ele>
        <time>2022-11-09T14:16:26Z</time>
      </trkpt>
      <trkpt lat="49.92223" lon="2.14121">
        <ele>75.7</ele>
        <time>2022-11-09T14:16:27Z</time>
      </trkpt>
      <trkpt lat="49.92223" lon="2.14121">
        <ele>75.7</ele>
        <time>2022-11-09T14:16:28Z</time>
      </trkpt>
      <trkpt lat="49.92223" lon="2.14121">
        <ele>75.7</ele>
        <time>2022-11-09T14:16:29Z</time>
      </trkpt>
      <trkpt lat="49.92223" lon="2.14121">
        <ele>75.7</ele>
        <time>2022-11-09T14:16:30Z</time>
      </trkpt>
      <trkpt lat="49.92223" lon="2.14121">
        <ele>75.7</ele>
        <time>2022-11-09T14:16:31Z</time>
      </trkpt>
      <trkpt lat="49.92223" lon="2.14121">
        <ele>75.7</ele>
        <time>2022-11-09T14:16:32Z</time>
      </trkpt>
      <trkpt lat="49.92223" lon="2.14121">
        <ele>75.7</ele>
        <time>2022-11-09T14:16:33Z</time>
      </trkpt>
      <trkpt lat="49.92223" lon="2.14121">
        <ele>75.7</ele>
        <time>2022-11-09T14:16:34Z</time>
      </trkpt>
      <trkpt lat="49.92223" lon="2.14121">
        <ele>75.7</ele>
        <time>2022-11-09T14:16:35Z</time>
      </trkpt>
      <trkpt lat="49.92223" lon="2.14121">
        <ele>75.7</ele>
        <time>2022-11-09T14:16:36Z</time>
      </trkpt>
      <trkpt lat="49.92223" lon="2.14121">
        <ele>75.7</ele>
        <time>2022-11-09T14:16:37Z</time>
      </trkpt>
      <trkpt lat="49.92223" lon="2.14121">
        <ele>75.7</ele>
        <time>2022-11-09T14:16:38Z</time>
      </trkpt>
      <trkpt lat="49.92223" lon="2.14121">
        <ele>75.7</ele>
        <time>2022-11-09T14:16:39Z</time>
      </trkpt>
      <trkpt lat="49.92223" lon="2.14121">
        <ele>75.7</ele>
        <time>2022-11-09T14:16:40Z</time>
      </trkpt>
      <trkpt lat="49.92223" lon="2.14121">
        <ele>75.7</ele>
        <time>2022-11-09T14:16:41Z</time>
      </trkpt>
      <trkpt lat="49.92223" lon="2.14121">
        <ele>75.7</ele>
        <time>2022-11-09T14:16:42Z</time>
      </trkpt>
      <trkpt lat="49.92223" lon="2.14121">
        <ele>75.7</ele>
        <time>2022-11-09T14:16:43Z</time>
      </trkpt>
      <trkpt lat="49.92223" lon="2.14121">
        <ele>75.7</ele>
        <time>2022-11-09T14:16:44Z</time>
      </trkpt>
      <trkpt lat="49.92223" lon="2.14121">
        <ele>75.7</ele>
        <time>2022-11-09T14:16:45Z</time>
      </trkpt>
      <trkpt lat="49.92223" lon="2.14121">
        <ele>75.7</ele>
        <time>2022-11-09T14:16:46Z</time>
      </trkpt>
      <trkpt lat="49.92223" lon="2.14121">
        <ele>75.7</ele>
        <time>2022-11-09T14:16:47Z</time>
      </trkpt>
      <trkpt lat="49.92223" lon="2.14121">
        <ele>75.7</ele>
        <time>2022-11-09T14:16:48Z</time>
      </trkpt>
      <trkpt lat="49.92223" lon="2.14121">
        <ele>75.7</ele>
        <time>2022-11-09T14:16:49Z</time>
      </trkpt>
      <trkpt lat="49.92223" lon="2.14121">
        <ele>75.7</ele>
        <time>2022-11-09T14:16:50Z</time>
      </trkpt>
      <trkpt lat="49.92223" lon="2.14121">
        <ele>75.7</ele>
        <time>2022-11-09T14:16:51Z</time>
      </trkpt>
      <trkpt lat="49.92223" lon="2.14121">
        <ele>75.7</ele>
        <time>2022-11-09T14:16:52Z</time>
      </trkpt>
      <trkpt lat="49.92223" lon="2.14121">
        <ele>75.7</ele>
        <time>2022-11-09T14:16:53Z</time>
      </trkpt>
      <trkpt lat="49.92223" lon="2.14121">
        <ele>75.7</ele>
        <time>2022-11-09T14:16:54Z</time>
      </trkpt>
      <trkpt lat="49.92223" lon="2.14121">
        <ele>75.7</ele>
        <time>2022-11-09T14:16:55Z</time>
      </trkpt>
      <trkpt lat="49.92223" lon="2.14121">
        <ele>75.7</ele>
        <time>2022-11-09T14:16:56Z</time>
      </trkpt>
      <trkpt lat="49.92223" lon="2.14121">
        <ele>75.7</ele>
        <time>2022-11-09T14:16:57Z</time>
      </trkpt>
      <trkpt lat="49.92223" lon="2.14121">
        <ele>75.7</ele>
        <time>2022-11-09T14:16:58Z</time>
      </trkpt>
      <trkpt lat="49.92223" lon="2.14121">
        <ele>75.7</ele>
        <time>2022-11-09T14:16:59Z</time>
      </trkpt>
      <trkpt lat="49.92223" lon="2.14121">
        <ele>75.7</ele>
        <time>2022-11-09T14:17:00Z</time>
      </trkpt>
      <trkpt lat="49.92223" lon="2.14121">
        <ele>75.7</ele>
        <time>2022-11-09T14:17:01Z</time>
      </trkpt>
      <trkpt lat="49.92223" lon="2.14121">
        <ele>75.7</ele>
        <time>2022-11-09T14:17:02Z</time>
      </trkpt>
      <trkpt lat="49.92223" lon="2.14121">
        <ele>75.7</ele>
        <time>2022-11-09T14:17:03Z</time>
      </trkpt>
      <trkpt lat="49.92223" lon="2.14121">
        <ele>75.7</ele>
        <time>2022-11-09T14:17:04Z</time>
      </trkpt>
      <trkpt lat="49.92223" lon="2.14121">
        <ele>75.7</ele>
        <time>2022-11-09T14:17:05Z</time>
      </trkpt>
      <trkpt lat="49.92223" lon="2.14121">
        <ele>75.7</ele>
        <time>2022-11-09T14:17:06Z</time>
      </trkpt>
      <trkpt lat="49.92223" lon="2.14121">
        <ele>75.7</ele>
        <time>2022-11-09T14:17:07Z</time>
      </trkpt>
      <trkpt lat="49.92223" lon="2.14121">
        <ele>75.7</ele>
        <time>2022-11-09T14:17:08Z</time>
      </trkpt>
      <trkpt lat="49.92223" lon="2.14121">
        <ele>75.7</ele>
        <time>2022-11-09T14:17:09Z</time>
      </trkpt>
      <trkpt lat="49.92223" lon="2.14121">
        <ele>75.7</ele>
        <time>2022-11-09T14:17:10Z</time>
      </trkpt>
      <trkpt lat="49.92223" lon="2.14121">
        <ele>75.7</ele>
        <time>2022-11-09T14:17:11Z</time>
      </trkpt>
      <trkpt lat="49.92223" lon="2.14121">
        <ele>75.7</ele>
        <time>2022-11-09T14:17:12Z</time>
      </trkpt>
      <trkpt lat="49.92223" lon="2.14121">
        <ele>75.7</ele>
        <time>2022-11-09T14:17:13Z</time>
      </trkpt>
      <trkpt lat="49.92223" lon="2.14121">
        <ele>75.7</ele>
        <time>2022-11-09T14:17:14Z</time>
      </trkpt>
      <trkpt lat="49.92223" lon="2.14121">
        <ele>75.7</ele>
        <time>2022-11-09T14:17:15Z</time>
      </trkpt>
      <trkpt lat="49.92223" lon="2.14121">
        <ele>75.7</ele>
        <time>2022-11-09T14:17:16Z</time>
      </trkpt>
      <trkpt lat="49.92223" lon="2.14121">
        <ele>75.7</ele>
        <time>2022-11-09T14:17:17Z</time>
      </trkpt>
      <trkpt lat="49.92223" lon="2.14121">
        <ele>75.7</ele>
        <time>2022-11-09T14:17:18Z</time>
      </trkpt>
      <trkpt lat="49.92223" lon="2.14121">
        <ele>75.7</ele>
        <time>2022-11-09T14:17:19Z</time>
      </trkpt>
      <trkpt lat="49.92223" lon="2.14121">
        <ele>75.7</ele>
        <time>2022-11-09T14:17:20Z</time>
      </trkpt>
      <trkpt lat="49.92223" lon="2.14121">
        <ele>75.7</ele>
        <time>2022-11-09T14:17:21Z</time>
      </trkpt>
      <trkpt lat="49.92223" lon="2.14121">
        <ele>75.7</ele>
        <time>2022-11-09T14:17:22Z</time>
      </trkpt>
      <trkpt lat="49.92223" lon="2.14121">
        <ele>75.7</ele>
        <time>2022-11-09T14:17:23Z</time>
      </trkpt>
      <trkpt lat="49.92223" lon="2.14121">
        <ele>75.7</ele>
        <time>2022-11-09T14:17:24Z</time>
      </trkpt>
      <trkpt lat="49.92223" lon="2.14121">
        <ele>75.7</ele>
        <time>2022-11-09T14:17:25Z</time>
      </trkpt>
      <trkpt lat="49.92223" lon="2.14121">
        <ele>75.7</ele>
        <time>2022-11-09T14:17:26Z</time>
      </trkpt>
      <trkpt lat="49.92223" lon="2.14121">
        <ele>75.7</ele>
        <time>2022-11-09T14:17:27Z</time>
      </trkpt>
      <trkpt lat="49.92224" lon="2.14124">
        <ele>75.5</ele>
        <time>2022-11-09T14:17:28Z</time>
      </trkpt>
      <trkpt lat="49.92225" lon="2.14126">
        <ele>75.3</ele>
        <time>2022-11-09T14:17:29Z</time>
      </trkpt>
      <trkpt lat="49.92225" lon="2.14128">
        <ele>75.3</ele>
        <time>2022-11-09T14:17:30Z</time>
      </trkpt>
      <trkpt lat="49.92225" lon="2.14128">
        <ele>75.2</ele>
        <time>2022-11-09T14:17:31Z</time>
      </trkpt>
      <trkpt lat="49.92225" lon="2.14129">
        <ele>75.2</ele>
        <time>2022-11-09T14:17:32Z</time>
      </trkpt>
      <trkpt lat="49.92226" lon="2.14129">
        <ele>75.2</ele>
        <time>2022-11-09T14:17:33Z</time>
      </trkpt>
      <trkpt lat="49.92226" lon="2.14129">
        <ele>75.2</ele>
        <time>2022-11-09T14:17:34Z</time>
      </trkpt>
      <trkpt lat="49.92226" lon="2.14129">
        <ele>75.2</ele>
        <time>2022-11-09T14:17:35Z</time>
      </trkpt>
      <trkpt lat="49.92226" lon="2.14129">
        <ele>75.2</ele>
        <time>2022-11-09T14:17:36Z</time>
      </trkpt>
      <trkpt lat="49.92226" lon="2.14129">
        <ele>75.2</ele>
        <time>2022-11-09T14:17:37Z</time>
      </trkpt>
      <trkpt lat="49.92226" lon="2.14129">
        <ele>75.2</ele>
        <time>2022-11-09T14:17:38Z</time>
      </trkpt>
      <trkpt lat="49.92226" lon="2.14129">
        <ele>75.2</ele>
        <time>2022-11-09T14:17:39Z</time>
      </trkpt>
      <trkpt lat="49.92226" lon="2.14129">
        <ele>75.2</ele>
        <time>2022-11-09T14:17:40Z</time>
      </trkpt>
      <trkpt lat="49.92226" lon="2.14129">
        <ele>75.2</ele>
        <time>2022-11-09T14:17:41Z</time>
      </trkpt>
      <trkpt lat="49.92226" lon="2.14129">
        <ele>75.2</ele>
        <time>2022-11-09T14:17:42Z</time>
      </trkpt>
      <trkpt lat="49.92226" lon="2.14129">
        <ele>75.2</ele>
        <time>2022-11-09T14:17:43Z</time>
      </trkpt>
      <trkpt lat="49.92226" lon="2.14129">
        <ele>75.2</ele>
        <time>2022-11-09T14:17:44Z</time>
      </trkpt>
      <trkpt lat="49.92226" lon="2.14129">
        <ele>75.2</ele>
        <time>2022-11-09T14:17:45Z</time>
      </trkpt>
      <trkpt lat="49.92226" lon="2.14129">
        <ele>75.2</ele>
        <time>2022-11-09T14:17:46Z</time>
      </trkpt>
      <trkpt lat="49.92226" lon="2.14129">
        <ele>75.2</ele>
        <time>2022-11-09T14:17:47Z</time>
      </trkpt>
      <trkpt lat="49.92226" lon="2.14129">
        <ele>75.2</ele>
        <time>2022-11-09T14:17:48Z</time>
      </trkpt>
      <trkpt lat="49.92226" lon="2.14129">
        <ele>75.2</ele>
        <time>2022-11-09T14:17:49Z</time>
      </trkpt>
      <trkpt lat="49.92226" lon="2.14129">
        <ele>75.2</ele>
        <time>2022-11-09T14:17:50Z</time>
      </trkpt>
      <trkpt lat="49.92226" lon="2.14129">
        <ele>75.2</ele>
        <time>2022-11-09T14:17:51Z</time>
      </trkpt>
      <trkpt lat="49.92226" lon="2.14129">
        <ele>75.2</ele>
        <time>2022-11-09T14:17:52Z</time>
      </trkpt>
      <trkpt lat="49.92226" lon="2.14129">
        <ele>75.2</ele>
        <time>2022-11-09T14:17:53Z</time>
      </trkpt>
      <trkpt lat="49.92226" lon="2.14129">
        <ele>75.2</ele>
        <time>2022-11-09T14:17:54Z</time>
      </trkpt>
      <trkpt lat="49.92226" lon="2.14129">
        <ele>75.2</ele>
        <time>2022-11-09T14:17:55Z</time>
      </trkpt>
      <trkpt lat="49.92226" lon="2.1413">
        <ele>75.2</ele>
        <time>2022-11-09T14:17:56Z</time>
      </trkpt>
      <trkpt lat="49.92226" lon="2.1413">
        <ele>75.2</ele>
        <time>2022-11-09T14:17:57Z</time>
      </trkpt>
      <trkpt lat="49.92226" lon="2.1413">
        <ele>75.2</ele>
        <time>2022-11-09T14:17:58Z</time>
      </trkpt>
      <trkpt lat="49.92226" lon="2.1413">
        <ele>75.2</ele>
        <time>2022-11-09T14:17:59Z</time>
      </trkpt>
      <trkpt lat="49.92226" lon="2.1413">
        <ele>75.1</ele>
        <time>2022-11-09T14:18:00Z</time>
      </trkpt>
      <trkpt lat="49.92226" lon="2.1413">
        <ele>75.1</ele>
        <time>2022-11-09T14:18:01Z</time>
      </trkpt>
      <trkpt lat="49.92226" lon="2.1413">
        <ele>75.1</ele>
        <time>2022-11-09T14:18:02Z</time>
      </trkpt>
      <trkpt lat="49.92226" lon="2.1413">
        <ele>75.1</ele>
        <time>2022-11-09T14:18:03Z</time>
      </trkpt>
      <trkpt lat="49.92226" lon="2.1413">
        <ele>75.1</ele>
        <time>2022-11-09T14:18:04Z</time>
      </trkpt>
      <trkpt lat="49.92226" lon="2.1413">
        <ele>75.1</ele>
        <time>2022-11-09T14:18:05Z</time>
      </trkpt>
      <trkpt lat="49.92226" lon="2.1413">
        <ele>75.1</ele>
        <time>2022-11-09T14:18:06Z</time>
      </trkpt>
      <trkpt lat="49.92226" lon="2.14129">
        <ele>75.1</ele>
        <time>2022-11-09T14:18:07Z</time>
      </trkpt>
      <trkpt lat="49.92226" lon="2.14129">
        <ele>75.1</ele>
        <time>2022-11-09T14:18:08Z</time>
      </trkpt>
      <trkpt lat="49.92226" lon="2.14129">
        <ele>75.1</ele>
        <time>2022-11-09T14:18:09Z</time>
      </trkpt>
      <trkpt lat="49.92226" lon="2.14129">
        <ele>75.1</ele>
        <time>2022-11-09T14:18:10Z</time>
      </trkpt>
      <trkpt lat="49.92226" lon="2.14129">
        <ele>75.1</ele>
        <time>2022-11-09T14:18:11Z</time>
      </trkpt>
      <trkpt lat="49.92226" lon="2.14129">
        <ele>75.1</ele>
        <time>2022-11-09T14:18:12Z</time>
      </trkpt>
      <trkpt lat="49.92226" lon="2.14129">
        <ele>75.1</ele>
        <time>2022-11-09T14:18:13Z</time>
      </trkpt>
      <trkpt lat="49.92226" lon="2.14129">
        <ele>75.1</ele>
        <time>2022-11-09T14:18:14Z</time>
      </trkpt>
      <trkpt lat="49.92226" lon="2.14129">
        <ele>75</ele>
        <time>2022-11-09T14:18:15Z</time>
      </trkpt>
      <trkpt lat="49.92226" lon="2.14129">
        <ele>75</ele>
        <time>2022-11-09T14:18:16Z</time>
      </trkpt>
      <trkpt lat="49.92226" lon="2.14129">
        <ele>75</ele>
        <time>2022-11-09T14:18:17Z</time>
      </trkpt>
      <trkpt lat="49.92226" lon="2.14129">
        <ele>75</ele>
        <time>2022-11-09T14:18:18Z</time>
      </trkpt>
      <trkpt lat="49.92226" lon="2.14129">
        <ele>75</ele>
        <time>2022-11-09T14:18:19Z</time>
      </trkpt>
      <trkpt lat="49.92226" lon="2.14129">
        <ele>75</ele>
        <time>2022-11-09T14:18:20Z</time>
      </trkpt>
      <trkpt lat="49.92226" lon="2.14129">
        <ele>75</ele>
        <time>2022-11-09T14:18:21Z</time>
      </trkpt>
      <trkpt lat="49.92226" lon="2.14129">
        <ele>75</ele>
        <time>2022-11-09T14:18:22Z</time>
      </trkpt>
      <trkpt lat="49.92226" lon="2.14129">
        <ele>75</ele>
        <time>2022-11-09T14:18:23Z</time>
      </trkpt>
      <trkpt lat="49.92226" lon="2.14129">
        <ele>75</ele>
        <time>2022-11-09T14:18:24Z</time>
      </trkpt>
      <trkpt lat="49.92226" lon="2.14129">
        <ele>75</ele>
        <time>2022-11-09T14:18:25Z</time>
      </trkpt>
      <trkpt lat="49.92226" lon="2.14129">
        <ele>75</ele>
        <time>2022-11-09T14:18:26Z</time>
      </trkpt>
      <trkpt lat="49.92226" lon="2.14129">
        <ele>75</ele>
        <time>2022-11-09T14:18:27Z</time>
      </trkpt>
      <trkpt lat="49.92226" lon="2.14129">
        <ele>75</ele>
        <time>2022-11-09T14:18:28Z</time>
      </trkpt>
      <trkpt lat="49.92226" lon="2.14129">
        <ele>75</ele>
        <time>2022-11-09T14:18:29Z</time>
      </trkpt>
      <trkpt lat="49.92226" lon="2.14129">
        <ele>75</ele>
        <time>2022-11-09T14:18:30Z</time>
      </trkpt>
      <trkpt lat="49.92226" lon="2.14129">
        <ele>75</ele>
        <time>2022-11-09T14:18:31Z</time>
      </trkpt>
      <trkpt lat="49.92226" lon="2.14129">
        <ele>75</ele>
        <time>2022-11-09T14:18:32Z</time>
      </trkpt>
      <trkpt lat="49.92226" lon="2.14129">
        <ele>75</ele>
        <time>2022-11-09T14:18:33Z</time>
      </trkpt>
      <trkpt lat="49.92226" lon="2.14129">
        <ele>75</ele>
        <time>2022-11-09T14:18:34Z</time>
      </trkpt>
      <trkpt lat="49.92226" lon="2.14129">
        <ele>74.9</ele>
        <time>2022-11-09T14:18:35Z</time>
      </trkpt>
      <trkpt lat="49.92226" lon="2.14129">
        <ele>74.9</ele>
        <time>2022-11-09T14:18:36Z</time>
      </trkpt>
      <trkpt lat="49.92226" lon="2.14129">
        <ele>74.9</ele>
        <time>2022-11-09T14:18:37Z</time>
      </trkpt>
      <trkpt lat="49.92226" lon="2.14129">
        <ele>74.9</ele>
        <time>2022-11-09T14:18:38Z</time>
      </trkpt>
      <trkpt lat="49.92226" lon="2.14129">
        <ele>74.9</ele>
        <time>2022-11-09T14:18:39Z</time>
      </trkpt>
      <trkpt lat="49.92226" lon="2.14129">
        <ele>74.9</ele>
        <time>2022-11-09T14:18:40Z</time>
      </trkpt>
      <trkpt lat="49.92226" lon="2.14129">
        <ele>74.9</ele>
        <time>2022-11-09T14:18:41Z</time>
      </trkpt>
      <trkpt lat="49.92226" lon="2.14129">
        <ele>74.9</ele>
        <time>2022-11-09T14:18:42Z</time>
      </trkpt>
      <trkpt lat="49.92226" lon="2.14129">
        <ele>74.9</ele>
        <time>2022-11-09T14:18:43Z</time>
      </trkpt>
      <trkpt lat="49.92226" lon="2.14129">
        <ele>74.9</ele>
        <time>2022-11-09T14:18:44Z</time>
      </trkpt>
      <trkpt lat="49.92226" lon="2.14129">
        <ele>74.9</ele>
        <time>2022-11-09T14:18:45Z</time>
      </trkpt>
      <trkpt lat="49.92226" lon="2.14129">
        <ele>74.9</ele>
        <time>2022-11-09T14:18:46Z</time>
      </trkpt>
      <trkpt lat="49.92226" lon="2.14128">
        <ele>74.9</ele>
        <time>2022-11-09T14:18:47Z</time>
      </trkpt>
      <trkpt lat="49.92226" lon="2.14129">
        <ele>74.8</ele>
        <time>2022-11-09T14:18:48Z</time>
      </trkpt>
      <trkpt lat="49.92226" lon="2.14129">
        <ele>74.8</ele>
        <time>2022-11-09T14:18:49Z</time>
      </trkpt>
      <trkpt lat="49.92226" lon="2.14129">
        <ele>74.8</ele>
        <time>2022-11-09T14:18:50Z</time>
      </trkpt>
      <trkpt lat="49.92226" lon="2.14129">
        <ele>74.8</ele>
        <time>2022-11-09T14:18:51Z</time>
      </trkpt>
      <trkpt lat="49.92226" lon="2.14129">
        <ele>74.8</ele>
        <time>2022-11-09T14:18:52Z</time>
      </trkpt>
      <trkpt lat="49.92226" lon="2.14129">
        <ele>74.8</ele>
        <time>2022-11-09T14:18:53Z</time>
      </trkpt>
      <trkpt lat="49.92226" lon="2.14129">
        <ele>74.8</ele>
        <time>2022-11-09T14:18:54Z</time>
      </trkpt>
      <trkpt lat="49.92226" lon="2.14129">
        <ele>74.8</ele>
        <time>2022-11-09T14:18:55Z</time>
      </trkpt>
      <trkpt lat="49.92226" lon="2.14128">
        <ele>74.8</ele>
        <time>2022-11-09T14:18:56Z</time>
      </trkpt>
      <trkpt lat="49.92226" lon="2.14128">
        <ele>74.8</ele>
        <time>2022-11-09T14:18:57Z</time>
      </trkpt>
      <trkpt lat="49.92226" lon="2.14128">
        <ele>74.8</ele>
        <time>2022-11-09T14:18:58Z</time>
      </trkpt>
      <trkpt lat="49.92226" lon="2.14127">
        <ele>74.8</ele>
        <time>2022-11-09T14:18:59Z</time>
      </trkpt>
      <trkpt lat="49.92226" lon="2.14127">
        <ele>74.8</ele>
        <time>2022-11-09T14:19:00Z</time>
      </trkpt>
      <trkpt lat="49.92226" lon="2.14127">
        <ele>74.8</ele>
        <time>2022-11-09T14:19:01Z</time>
      </trkpt>
      <trkpt lat="49.92226" lon="2.14127">
        <ele>74.8</ele>
        <time>2022-11-09T14:19:02Z</time>
      </trkpt>
      <trkpt lat="49.92226" lon="2.14127">
        <ele>74.8</ele>
        <time>2022-11-09T14:19:03Z</time>
      </trkpt>
      <trkpt lat="49.92226" lon="2.14127">
        <ele>74.8</ele>
        <time>2022-11-09T14:19:04Z</time>
      </trkpt>
      <trkpt lat="49.92226" lon="2.14127">
        <ele>74.8</ele>
        <time>2022-11-09T14:19:05Z</time>
      </trkpt>
      <trkpt lat="49.92226" lon="2.14127">
        <ele>74.8</ele>
        <time>2022-11-09T14:19:06Z</time>
      </trkpt>
      <trkpt lat="49.92226" lon="2.14127">
        <ele>74.8</ele>
        <time>2022-11-09T14:19:07Z</time>
      </trkpt>
      <trkpt lat="49.92226" lon="2.14127">
        <ele>74.8</ele>
        <time>2022-11-09T14:19:08Z</time>
      </trkpt>
      <trkpt lat="49.92226" lon="2.14127">
        <ele>74.8</ele>
        <time>2022-11-09T14:19:09Z</time>
      </trkpt>
      <trkpt lat="49.92226" lon="2.14127">
        <ele>74.8</ele>
        <time>2022-11-09T14:19:10Z</time>
      </trkpt>
      <trkpt lat="49.92226" lon="2.14127">
        <ele>74.8</ele>
        <time>2022-11-09T14:19:11Z</time>
      </trkpt>
      <trkpt lat="49.92226" lon="2.14127">
        <ele>74.8</ele>
        <time>2022-11-09T14:19:12Z</time>
      </trkpt>
      <trkpt lat="49.92226" lon="2.14127">
        <ele>74.8</ele>
        <time>2022-11-09T14:19:13Z</time>
      </trkpt>
      <trkpt lat="49.92226" lon="2.14127">
        <ele>74.8</ele>
        <time>2022-11-09T14:19:14Z</time>
      </trkpt>
      <trkpt lat="49.92226" lon="2.14127">
        <ele>74.8</ele>
        <time>2022-11-09T14:19:15Z</time>
      </trkpt>
      <trkpt lat="49.92226" lon="2.14127">
        <ele>74.8</ele>
        <time>2022-11-09T14:19:16Z</time>
      </trkpt>
      <trkpt lat="49.92226" lon="2.14127">
        <ele>74.8</ele>
        <time>2022-11-09T14:19:17Z</time>
      </trkpt>
      <trkpt lat="49.92226" lon="2.14127">
        <ele>74.8</ele>
        <time>2022-11-09T14:19:18Z</time>
      </trkpt>
      <trkpt lat="49.92226" lon="2.14127">
        <ele>74.8</ele>
        <time>2022-11-09T14:19:19Z</time>
      </trkpt>
      <trkpt lat="49.92226" lon="2.14127">
        <ele>74.8</ele>
        <time>2022-11-09T14:19:20Z</time>
      </trkpt>
      <trkpt lat="49.92226" lon="2.14127">
        <ele>74.8</ele>
        <time>2022-11-09T14:19:21Z</time>
      </trkpt>
      <trkpt lat="49.92226" lon="2.14127">
        <ele>74.8</ele>
        <time>2022-11-09T14:19:22Z</time>
      </trkpt>
      <trkpt lat="49.92226" lon="2.14127">
        <ele>74.8</ele>
        <time>2022-11-09T14:19:23Z</time>
      </trkpt>
      <trkpt lat="49.92226" lon="2.14127">
        <ele>74.8</ele>
        <time>2022-11-09T14:19:24Z</time>
      </trkpt>
      <trkpt lat="49.92226" lon="2.14127">
        <ele>74.8</ele>
        <time>2022-11-09T14:19:25Z</time>
      </trkpt>
      <trkpt lat="49.92226" lon="2.14127">
        <ele>74.8</ele>
        <time>2022-11-09T14:19:26Z</time>
      </trkpt>
      <trkpt lat="49.92226" lon="2.14127">
        <ele>74.8</ele>
        <time>2022-11-09T14:19:27Z</time>
      </trkpt>
      <trkpt lat="49.92226" lon="2.14127">
        <ele>74.8</ele>
        <time>2022-11-09T14:19:28Z</time>
      </trkpt>
      <trkpt lat="49.92226" lon="2.14127">
        <ele>74.8</ele>
        <time>2022-11-09T14:19:29Z</time>
      </trkpt>
      <trkpt lat="49.92226" lon="2.14127">
        <ele>74.8</ele>
        <time>2022-11-09T14:19:30Z</time>
      </trkpt>
      <trkpt lat="49.92226" lon="2.14127">
        <ele>74.8</ele>
        <time>2022-11-09T14:19:31Z</time>
      </trkpt>
      <trkpt lat="49.92226" lon="2.14127">
        <ele>74.8</ele>
        <time>2022-11-09T14:19:32Z</time>
      </trkpt>
      <trkpt lat="49.92226" lon="2.14127">
        <ele>74.8</ele>
        <time>2022-11-09T14:19:33Z</time>
      </trkpt>
      <trkpt lat="49.92226" lon="2.14127">
        <ele>74.8</ele>
        <time>2022-11-09T14:19:34Z</time>
      </trkpt>
      <trkpt lat="49.92226" lon="2.14127">
        <ele>74.8</ele>
        <time>2022-11-09T14:19:35Z</time>
      </trkpt>
      <trkpt lat="49.92226" lon="2.14127">
        <ele>74.8</ele>
        <time>2022-11-09T14:19:36Z</time>
      </trkpt>
      <trkpt lat="49.92226" lon="2.14127">
        <ele>74.8</ele>
        <time>2022-11-09T14:19:37Z</time>
      </trkpt>
      <trkpt lat="49.92226" lon="2.14127">
        <ele>74.8</ele>
        <time>2022-11-09T14:19:38Z</time>
      </trkpt>
      <trkpt lat="49.92226" lon="2.14127">
        <ele>74.8</ele>
        <time>2022-11-09T14:19:39Z</time>
      </trkpt>
      <trkpt lat="49.92226" lon="2.14127">
        <ele>74.8</ele>
        <time>2022-11-09T14:19:40Z</time>
      </trkpt>
      <trkpt lat="49.92226" lon="2.14127">
        <ele>74.8</ele>
        <time>2022-11-09T14:19:41Z</time>
      </trkpt>
      <trkpt lat="49.92226" lon="2.14127">
        <ele>74.8</ele>
        <time>2022-11-09T14:19:42Z</time>
      </trkpt>
      <trkpt lat="49.92226" lon="2.14127">
        <ele>74.8</ele>
        <time>2022-11-09T14:19:43Z</time>
      </trkpt>
      <trkpt lat="49.92226" lon="2.14127">
        <ele>74.8</ele>
        <time>2022-11-09T14:19:44Z</time>
      </trkpt>
      <trkpt lat="49.92226" lon="2.14127">
        <ele>74.8</ele>
        <time>2022-11-09T14:19:45Z</time>
      </trkpt>
      <trkpt lat="49.92227" lon="2.14127">
        <ele>74.7</ele>
        <time>2022-11-09T14:19:46Z</time>
      </trkpt>
      <trkpt lat="49.92227" lon="2.14126">
        <ele>74.7</ele>
        <time>2022-11-09T14:19:47Z</time>
      </trkpt>
      <trkpt lat="49.92227" lon="2.14126">
        <ele>74.7</ele>
        <time>2022-11-09T14:19:48Z</time>
      </trkpt>
      <trkpt lat="49.92226" lon="2.14126">
        <ele>74.7</ele>
        <time>2022-11-09T14:19:49Z</time>
      </trkpt>
      <trkpt lat="49.92226" lon="2.14126">
        <ele>74.7</ele>
        <time>2022-11-09T14:19:50Z</time>
      </trkpt>
      <trkpt lat="49.92226" lon="2.14126">
        <ele>74.7</ele>
        <time>2022-11-09T14:19:51Z</time>
      </trkpt>
      <trkpt lat="49.92227" lon="2.14125">
        <ele>74.6</ele>
        <time>2022-11-09T14:19:52Z</time>
      </trkpt>
      <trkpt lat="49.92228" lon="2.14124">
        <ele>74.5</ele>
        <time>2022-11-09T14:19:54Z</time>
      </trkpt>
      <trkpt lat="49.92228" lon="2.14123">
        <ele>74.5</ele>
        <time>2022-11-09T14:19:55Z</time>
      </trkpt>
      <trkpt lat="49.92229" lon="2.14123">
        <ele>74.4</ele>
        <time>2022-11-09T14:19:56Z</time>
      </trkpt>
      <trkpt lat="49.92229" lon="2.14122">
        <ele>74.3</ele>
        <time>2022-11-09T14:19:57Z</time>
      </trkpt>
      <trkpt lat="49.9223" lon="2.14121">
        <ele>74.2</ele>
        <time>2022-11-09T14:19:58Z</time>
      </trkpt>
      <trkpt lat="49.92232" lon="2.1412">
        <ele>74</ele>
        <time>2022-11-09T14:20:00Z</time>
      </trkpt>
      <trkpt lat="49.92233" lon="2.14119">
        <ele>74</ele>
        <time>2022-11-09T14:20:01Z</time>
      </trkpt>
      <trkpt lat="49.92233" lon="2.14118">
        <ele>73.9</ele>
        <time>2022-11-09T14:20:02Z</time>
      </trkpt>
      <trkpt lat="49.92235" lon="2.14117">
        <ele>73.7</ele>
        <time>2022-11-09T14:20:03Z</time>
      </trkpt>
      <trkpt lat="49.92236" lon="2.14116">
        <ele>73.7</ele>
        <time>2022-11-09T14:20:05Z</time>
      </trkpt>
      <trkpt lat="49.92237" lon="2.14116">
        <ele>73.6</ele>
        <time>2022-11-09T14:20:06Z</time>
      </trkpt>
      <trkpt lat="49.92238" lon="2.14115">
        <ele>73.5</ele>
        <time>2022-11-09T14:20:07Z</time>
      </trkpt>
      <trkpt lat="49.92239" lon="2.14115">
        <ele>73.4</ele>
        <time>2022-11-09T14:20:08Z</time>
      </trkpt>
      <trkpt lat="49.9224" lon="2.14114">
        <ele>73.4</ele>
        <time>2022-11-09T14:20:09Z</time>
      </trkpt>
      <trkpt lat="49.92241" lon="2.14113">
        <ele>73.3</ele>
        <time>2022-11-09T14:20:11Z</time>
      </trkpt>
      <trkpt lat="49.92242" lon="2.14112">
        <ele>73.2</ele>
        <time>2022-11-09T14:20:12Z</time>
      </trkpt>
      <trkpt lat="49.92243" lon="2.14111">
        <ele>73.1</ele>
        <time>2022-11-09T14:20:13Z</time>
      </trkpt>
      <trkpt lat="49.92244" lon="2.1411">
        <ele>73.1</ele>
        <time>2022-11-09T14:20:14Z</time>
      </trkpt>
      <trkpt lat="49.92245" lon="2.14109">
        <ele>73</ele>
        <time>2022-11-09T14:20:15Z</time>
      </trkpt>
      <trkpt lat="49.92246" lon="2.14109">
        <ele>72.9</ele>
        <time>2022-11-09T14:20:17Z</time>
      </trkpt>
      <trkpt lat="49.92246" lon="2.14108">
        <ele>72.8</ele>
        <time>2022-11-09T14:20:18Z</time>
      </trkpt>
      <trkpt lat="49.92247" lon="2.14107">
        <ele>72.8</ele>
        <time>2022-11-09T14:20:19Z</time>
      </trkpt>
      <trkpt lat="49.92248" lon="2.14106">
        <ele>72.7</ele>
        <time>2022-11-09T14:20:20Z</time>
      </trkpt>
      <trkpt lat="49.92249" lon="2.14105">
        <ele>72.6</ele>
        <time>2022-11-09T14:20:21Z</time>
      </trkpt>
      <trkpt lat="49.9225" lon="2.14105">
        <ele>72.6</ele>
        <time>2022-11-09T14:20:22Z</time>
      </trkpt>
      <trkpt lat="49.92251" lon="2.14104">
        <ele>72.5</ele>
        <time>2022-11-09T14:20:23Z</time>
      </trkpt>
      <trkpt lat="49.92252" lon="2.14103">
        <ele>72.4</ele>
        <time>2022-11-09T14:20:24Z</time>
      </trkpt>
      <trkpt lat="49.92253" lon="2.14102">
        <ele>72.3</ele>
        <time>2022-11-09T14:20:25Z</time>
      </trkpt>
      <trkpt lat="49.92254" lon="2.14101">
        <ele>72.2</ele>
        <time>2022-11-09T14:20:27Z</time>
      </trkpt>
      <trkpt lat="49.92255" lon="2.141">
        <ele>72.2</ele>
        <time>2022-11-09T14:20:28Z</time>
      </trkpt>
      <trkpt lat="49.92256" lon="2.141">
        <ele>72.1</ele>
        <time>2022-11-09T14:20:29Z</time>
      </trkpt>
      <trkpt lat="49.92257" lon="2.14099">
        <ele>72</ele>
        <time>2022-11-09T14:20:30Z</time>
      </trkpt>
      <trkpt lat="49.92258" lon="2.14099">
        <ele>72</ele>
        <time>2022-11-09T14:20:32Z</time>
      </trkpt>
      <trkpt lat="49.92258" lon="2.14098">
        <ele>71.9</ele>
        <time>2022-11-09T14:20:33Z</time>
      </trkpt>
      <trkpt lat="49.92259" lon="2.14098">
        <ele>71.8</ele>
        <time>2022-11-09T14:20:34Z</time>
      </trkpt>
      <trkpt lat="49.9226" lon="2.14097">
        <ele>71.8</ele>
        <time>2022-11-09T14:20:35Z</time>
      </trkpt>
      <trkpt lat="49.92262" lon="2.14096">
        <ele>71.7</ele>
        <time>2022-11-09T14:20:36Z</time>
      </trkpt>
      <trkpt lat="49.92263" lon="2.14095">
        <ele>71.6</ele>
        <time>2022-11-09T14:20:37Z</time>
      </trkpt>
      <trkpt lat="49.92264" lon="2.14094">
        <ele>71.5</ele>
        <time>2022-11-09T14:20:38Z</time>
      </trkpt>
      <trkpt lat="49.92265" lon="2.14094">
        <ele>71.4</ele>
        <time>2022-11-09T14:20:40Z</time>
      </trkpt>
      <trkpt lat="49.92265" lon="2.14093">
        <ele>71.3</ele>
        <time>2022-11-09T14:20:41Z</time>
      </trkpt>
      <trkpt lat="49.92266" lon="2.14092">
        <ele>71.3</ele>
        <time>2022-11-09T14:20:42Z</time>
      </trkpt>
      <trkpt lat="49.92267" lon="2.14091">
        <ele>71.2</ele>
        <time>2022-11-09T14:20:43Z</time>
      </trkpt>
      <trkpt lat="49.92268" lon="2.1409">
        <ele>71.1</ele>
        <time>2022-11-09T14:20:44Z</time>
      </trkpt>
      <trkpt lat="49.9227" lon="2.14089">
        <ele>71</ele>
        <time>2022-11-09T14:20:45Z</time>
      </trkpt>
      <trkpt lat="49.92271" lon="2.14088">
        <ele>70.9</ele>
        <time>2022-11-09T14:20:46Z</time>
      </trkpt>
      <trkpt lat="49.92272" lon="2.14088">
        <ele>70.8</ele>
        <time>2022-11-09T14:20:47Z</time>
      </trkpt>
      <trkpt lat="49.92273" lon="2.14087">
        <ele>70.7</ele>
        <time>2022-11-09T14:20:49Z</time>
      </trkpt>
      <trkpt lat="49.92275" lon="2.14086">
        <ele>70.6</ele>
        <time>2022-11-09T14:20:50Z</time>
      </trkpt>
      <trkpt lat="49.92276" lon="2.14085">
        <ele>70.5</ele>
        <time>2022-11-09T14:20:51Z</time>
      </trkpt>
      <trkpt lat="49.92278" lon="2.14084">
        <ele>70.4</ele>
        <time>2022-11-09T14:20:52Z</time>
      </trkpt>
      <trkpt lat="49.92279" lon="2.14083">
        <ele>70.3</ele>
        <time>2022-11-09T14:20:53Z</time>
      </trkpt>
      <trkpt lat="49.92281" lon="2.14082">
        <ele>70.2</ele>
        <time>2022-11-09T14:20:54Z</time>
      </trkpt>
      <trkpt lat="49.92282" lon="2.14081">
        <ele>70.1</ele>
        <time>2022-11-09T14:20:55Z</time>
      </trkpt>
      <trkpt lat="49.92283" lon="2.1408">
        <ele>70</ele>
        <time>2022-11-09T14:20:56Z</time>
      </trkpt>
      <trkpt lat="49.92286" lon="2.14079">
        <ele>69.8</ele>
        <time>2022-11-09T14:20:57Z</time>
      </trkpt>
      <trkpt lat="49.92287" lon="2.14078">
        <ele>69.7</ele>
        <time>2022-11-09T14:20:59Z</time>
      </trkpt>
      <trkpt lat="49.92287" lon="2.14077">
        <ele>69.7</ele>
        <time>2022-11-09T14:21:00Z</time>
      </trkpt>
      <trkpt lat="49.92288" lon="2.14077">
        <ele>69.6</ele>
        <time>2022-11-09T14:21:01Z</time>
      </trkpt>
      <trkpt lat="49.92289" lon="2.14076">
        <ele>69.5</ele>
        <time>2022-11-09T14:21:02Z</time>
      </trkpt>
      <trkpt lat="49.9229" lon="2.14075">
        <ele>69.4</ele>
        <time>2022-11-09T14:21:03Z</time>
      </trkpt>
      <trkpt lat="49.92292" lon="2.14074">
        <ele>69.3</ele>
        <time>2022-11-09T14:21:04Z</time>
      </trkpt>
      <trkpt lat="49.92294" lon="2.14072">
        <ele>69.2</ele>
        <time>2022-11-09T14:21:05Z</time>
      </trkpt>
      <trkpt lat="49.92294" lon="2.14072">
        <ele>69.1</ele>
        <time>2022-11-09T14:21:06Z</time>
      </trkpt>
      <trkpt lat="49.92295" lon="2.14071">
        <ele>69</ele>
        <time>2022-11-09T14:21:07Z</time>
      </trkpt>
      <trkpt lat="49.92296" lon="2.14071">
        <ele>68.9</ele>
        <time>2022-11-09T14:21:08Z</time>
      </trkpt>
      <trkpt lat="49.92298" lon="2.14071">
        <ele>68.8</ele>
        <time>2022-11-09T14:21:10Z</time>
      </trkpt>
      <trkpt lat="49.92299" lon="2.14071">
        <ele>68.8</ele>
        <time>2022-11-09T14:21:11Z</time>
      </trkpt>
      <trkpt lat="49.92299" lon="2.1407">
        <ele>68.7</ele>
        <time>2022-11-09T14:21:12Z</time>
      </trkpt>
      <trkpt lat="49.923" lon="2.1407">
        <ele>68.6</ele>
        <time>2022-11-09T14:21:13Z</time>
      </trkpt>
      <trkpt lat="49.92302" lon="2.14069">
        <ele>68.5</ele>
        <time>2022-11-09T14:21:14Z</time>
      </trkpt>
      <trkpt lat="49.92302" lon="2.14069">
        <ele>68.5</ele>
        <time>2022-11-09T14:21:16Z</time>
      </trkpt>
      <trkpt lat="49.92303" lon="2.14069">
        <ele>68.4</ele>
        <time>2022-11-09T14:21:17Z</time>
      </trkpt>
      <trkpt lat="49.92304" lon="2.14068">
        <ele>68.4</ele>
        <time>2022-11-09T14:21:18Z</time>
      </trkpt>
      <trkpt lat="49.92305" lon="2.14068">
        <ele>68.3</ele>
        <time>2022-11-09T14:21:19Z</time>
      </trkpt>
      <trkpt lat="49.92306" lon="2.14068">
        <ele>68.2</ele>
        <time>2022-11-09T14:21:20Z</time>
      </trkpt>
      <trkpt lat="49.92306" lon="2.14067">
        <ele>68.2</ele>
        <time>2022-11-09T14:21:21Z</time>
      </trkpt>
      <trkpt lat="49.92307" lon="2.14067">
        <ele>68.1</ele>
        <time>2022-11-09T14:21:22Z</time>
      </trkpt>
      <trkpt lat="49.92308" lon="2.14066">
        <ele>68</ele>
        <time>2022-11-09T14:21:23Z</time>
      </trkpt>
      <trkpt lat="49.92309" lon="2.14066">
        <ele>68</ele>
        <time>2022-11-09T14:21:24Z</time>
      </trkpt>
      <trkpt lat="49.9231" lon="2.14065">
        <ele>67.9</ele>
        <time>2022-11-09T14:21:25Z</time>
      </trkpt>
      <trkpt lat="49.92311" lon="2.14064">
        <ele>67.8</ele>
        <time>2022-11-09T14:21:27Z</time>
      </trkpt>
      <trkpt lat="49.92312" lon="2.14063">
        <ele>67.7</ele>
        <time>2022-11-09T14:21:28Z</time>
      </trkpt>
      <trkpt lat="49.92313" lon="2.14061">
        <ele>67.6</ele>
        <time>2022-11-09T14:21:29Z</time>
      </trkpt>
      <trkpt lat="49.92314" lon="2.1406">
        <ele>67.5</ele>
        <time>2022-11-09T14:21:30Z</time>
      </trkpt>
      <trkpt lat="49.92315" lon="2.14059">
        <ele>67.4</ele>
        <time>2022-11-09T14:21:31Z</time>
      </trkpt>
      <trkpt lat="49.92315" lon="2.14058">
        <ele>67.3</ele>
        <time>2022-11-09T14:21:32Z</time>
      </trkpt>
      <trkpt lat="49.92316" lon="2.14056">
        <ele>67.3</ele>
        <time>2022-11-09T14:21:33Z</time>
      </trkpt>
      <trkpt lat="49.92317" lon="2.14055">
        <ele>67.2</ele>
        <time>2022-11-09T14:21:34Z</time>
      </trkpt>
      <trkpt lat="49.92318" lon="2.14054">
        <ele>67.1</ele>
        <time>2022-11-09T14:21:35Z</time>
      </trkpt>
      <trkpt lat="49.92319" lon="2.14053">
        <ele>67</ele>
        <time>2022-11-09T14:21:37Z</time>
      </trkpt>
      <trkpt lat="49.9232" lon="2.14052">
        <ele>66.9</ele>
        <time>2022-11-09T14:21:38Z</time>
      </trkpt>
      <trkpt lat="49.92322" lon="2.1405">
        <ele>66.7</ele>
        <time>2022-11-09T14:21:39Z</time>
      </trkpt>
      <trkpt lat="49.92323" lon="2.14049">
        <ele>66.6</ele>
        <time>2022-11-09T14:21:40Z</time>
      </trkpt>
      <trkpt lat="49.92324" lon="2.14048">
        <ele>66.5</ele>
        <time>2022-11-09T14:21:41Z</time>
      </trkpt>
      <trkpt lat="49.92326" lon="2.14047">
        <ele>66.3</ele>
        <time>2022-11-09T14:21:43Z</time>
      </trkpt>
      <trkpt lat="49.92327" lon="2.14046">
        <ele>66.3</ele>
        <time>2022-11-09T14:21:44Z</time>
      </trkpt>
      <trkpt lat="49.92327" lon="2.14046">
        <ele>66.2</ele>
        <time>2022-11-09T14:21:45Z</time>
      </trkpt>
      <trkpt lat="49.92329" lon="2.14045">
        <ele>66</ele>
        <time>2022-11-09T14:21:46Z</time>
      </trkpt>
      <trkpt lat="49.9233" lon="2.14044">
        <ele>66</ele>
        <time>2022-11-09T14:21:47Z</time>
      </trkpt>
      <trkpt lat="49.92331" lon="2.14044">
        <ele>65.9</ele>
        <time>2022-11-09T14:21:48Z</time>
      </trkpt>
      <trkpt lat="49.92332" lon="2.14043">
        <ele>65.8</ele>
        <time>2022-11-09T14:21:49Z</time>
      </trkpt>
      <trkpt lat="49.92334" lon="2.14042">
        <ele>65.7</ele>
        <time>2022-11-09T14:21:50Z</time>
      </trkpt>
      <trkpt lat="49.92336" lon="2.14041">
        <ele>65.5</ele>
        <time>2022-11-09T14:21:51Z</time>
      </trkpt>
      <trkpt lat="49.92336" lon="2.1404">
        <ele>65.5</ele>
        <time>2022-11-09T14:21:52Z</time>
      </trkpt>
      <trkpt lat="49.92337" lon="2.1404">
        <ele>65.4</ele>
        <time>2022-11-09T14:21:53Z</time>
      </trkpt>
      <trkpt lat="49.92338" lon="2.14039">
        <ele>65.3</ele>
        <time>2022-11-09T14:21:54Z</time>
      </trkpt>
      <trkpt lat="49.9234" lon="2.14039">
        <ele>65.2</ele>
        <time>2022-11-09T14:21:56Z</time>
      </trkpt>
      <trkpt lat="49.92341" lon="2.14038">
        <ele>65.1</ele>
        <time>2022-11-09T14:21:57Z</time>
      </trkpt>
      <trkpt lat="49.92342" lon="2.14038">
        <ele>65</ele>
        <time>2022-11-09T14:21:58Z</time>
      </trkpt>
      <trkpt lat="49.92343" lon="2.14038">
        <ele>64.9</ele>
        <time>2022-11-09T14:21:59Z</time>
      </trkpt>
      <trkpt lat="49.92345" lon="2.14036">
        <ele>64.8</ele>
        <time>2022-11-09T14:22:00Z</time>
      </trkpt>
      <trkpt lat="49.92346" lon="2.14036">
        <ele>64.7</ele>
        <time>2022-11-09T14:22:01Z</time>
      </trkpt>
      <trkpt lat="49.92346" lon="2.14035">
        <ele>64.7</ele>
        <time>2022-11-09T14:22:02Z</time>
      </trkpt>
      <trkpt lat="49.92348" lon="2.14034">
        <ele>64.6</ele>
        <time>2022-11-09T14:22:03Z</time>
      </trkpt>
      <trkpt lat="49.92349" lon="2.14033">
        <ele>64.5</ele>
        <time>2022-11-09T14:22:04Z</time>
      </trkpt>
      <trkpt lat="49.92351" lon="2.14032">
        <ele>64.3</ele>
        <time>2022-11-09T14:22:05Z</time>
      </trkpt>
      <trkpt lat="49.92352" lon="2.14032">
        <ele>64.2</ele>
        <time>2022-11-09T14:22:06Z</time>
      </trkpt>
      <trkpt lat="49.92353" lon="2.14032">
        <ele>64.2</ele>
        <time>2022-11-09T14:22:07Z</time>
      </trkpt>
      <trkpt lat="49.92354" lon="2.14031">
        <ele>64.1</ele>
        <time>2022-11-09T14:22:08Z</time>
      </trkpt>
      <trkpt lat="49.92355" lon="2.14031">
        <ele>64</ele>
        <time>2022-11-09T14:22:10Z</time>
      </trkpt>
      <trkpt lat="49.92356" lon="2.14031">
        <ele>63.9</ele>
        <time>2022-11-09T14:22:11Z</time>
      </trkpt>
      <trkpt lat="49.92357" lon="2.1403">
        <ele>63.8</ele>
        <time>2022-11-09T14:22:12Z</time>
      </trkpt>
      <trkpt lat="49.92358" lon="2.1403">
        <ele>63.7</ele>
        <time>2022-11-09T14:22:13Z</time>
      </trkpt>
      <trkpt lat="49.92359" lon="2.14029">
        <ele>63.7</ele>
        <time>2022-11-09T14:22:14Z</time>
      </trkpt>
      <trkpt lat="49.9236" lon="2.14029">
        <ele>63.6</ele>
        <time>2022-11-09T14:22:15Z</time>
      </trkpt>
      <trkpt lat="49.92362" lon="2.14028">
        <ele>63.5</ele>
        <time>2022-11-09T14:22:16Z</time>
      </trkpt>
      <trkpt lat="49.92363" lon="2.14027">
        <ele>63.4</ele>
        <time>2022-11-09T14:22:17Z</time>
      </trkpt>
      <trkpt lat="49.92364" lon="2.14027">
        <ele>63.3</ele>
        <time>2022-11-09T14:22:18Z</time>
      </trkpt>
      <trkpt lat="49.92365" lon="2.14026">
        <ele>63.3</ele>
        <time>2022-11-09T14:22:19Z</time>
      </trkpt>
      <trkpt lat="49.92366" lon="2.14025">
        <ele>63.2</ele>
        <time>2022-11-09T14:22:20Z</time>
      </trkpt>
      <trkpt lat="49.92367" lon="2.14025">
        <ele>63.1</ele>
        <time>2022-11-09T14:22:21Z</time>
      </trkpt>
      <trkpt lat="49.92368" lon="2.14024">
        <ele>63</ele>
        <time>2022-11-09T14:22:22Z</time>
      </trkpt>
      <trkpt lat="49.9237" lon="2.14023">
        <ele>62.9</ele>
        <time>2022-11-09T14:22:24Z</time>
      </trkpt>
      <trkpt lat="49.92371" lon="2.14022">
        <ele>62.8</ele>
        <time>2022-11-09T14:22:25Z</time>
      </trkpt>
      <trkpt lat="49.92372" lon="2.14022">
        <ele>62.8</ele>
        <time>2022-11-09T14:22:26Z</time>
      </trkpt>
      <trkpt lat="49.92372" lon="2.14021">
        <ele>62.7</ele>
        <time>2022-11-09T14:22:27Z</time>
      </trkpt>
      <trkpt lat="49.92373" lon="2.14021">
        <ele>62.6</ele>
        <time>2022-11-09T14:22:28Z</time>
      </trkpt>
      <trkpt lat="49.92374" lon="2.14021">
        <ele>62.6</ele>
        <time>2022-11-09T14:22:29Z</time>
      </trkpt>
      <trkpt lat="49.92377" lon="2.1402">
        <ele>62.4</ele>
        <time>2022-11-09T14:22:30Z</time>
      </trkpt>
      <trkpt lat="49.92377" lon="2.1402">
        <ele>62.4</ele>
        <time>2022-11-09T14:22:31Z</time>
      </trkpt>
      <trkpt lat="49.92378" lon="2.1402">
        <ele>62.3</ele>
        <time>2022-11-09T14:22:32Z</time>
      </trkpt>
      <trkpt lat="49.9238" lon="2.14019">
        <ele>62.2</ele>
        <time>2022-11-09T14:22:33Z</time>
      </trkpt>
      <trkpt lat="49.92381" lon="2.14018">
        <ele>62.1</ele>
        <time>2022-11-09T14:22:34Z</time>
      </trkpt>
      <trkpt lat="49.92382" lon="2.14018">
        <ele>62.1</ele>
        <time>2022-11-09T14:22:35Z</time>
      </trkpt>
      <trkpt lat="49.92383" lon="2.14017">
        <ele>62</ele>
        <time>2022-11-09T14:22:37Z</time>
      </trkpt>
      <trkpt lat="49.92384" lon="2.14016">
        <ele>61.9</ele>
        <time>2022-11-09T14:22:38Z</time>
      </trkpt>
      <trkpt lat="49.92385" lon="2.14016">
        <ele>61.9</ele>
        <time>2022-11-09T14:22:39Z</time>
      </trkpt>
      <trkpt lat="49.92386" lon="2.14014">
        <ele>61.8</ele>
        <time>2022-11-09T14:22:40Z</time>
      </trkpt>
      <trkpt lat="49.92387" lon="2.14014">
        <ele>61.7</ele>
        <time>2022-11-09T14:22:41Z</time>
      </trkpt>
      <trkpt lat="49.92388" lon="2.14013">
        <ele>61.7</ele>
        <time>2022-11-09T14:22:42Z</time>
      </trkpt>
      <trkpt lat="49.92389" lon="2.14012">
        <ele>61.6</ele>
        <time>2022-11-09T14:22:43Z</time>
      </trkpt>
      <trkpt lat="49.9239" lon="2.14011">
        <ele>61.5</ele>
        <time>2022-11-09T14:22:44Z</time>
      </trkpt>
      <trkpt lat="49.92392" lon="2.14011">
        <ele>61.4</ele>
        <time>2022-11-09T14:22:45Z</time>
      </trkpt>
      <trkpt lat="49.92393" lon="2.1401">
        <ele>61.4</ele>
        <time>2022-11-09T14:22:46Z</time>
      </trkpt>
      <trkpt lat="49.92394" lon="2.14009">
        <ele>61.3</ele>
        <time>2022-11-09T14:22:47Z</time>
      </trkpt>
      <trkpt lat="49.92395" lon="2.14008">
        <ele>61.2</ele>
        <time>2022-11-09T14:22:48Z</time>
      </trkpt>
      <trkpt lat="49.92396" lon="2.14008">
        <ele>61.2</ele>
        <time>2022-11-09T14:22:50Z</time>
      </trkpt>
      <trkpt lat="49.92397" lon="2.14008">
        <ele>61.1</ele>
        <time>2022-11-09T14:22:51Z</time>
      </trkpt>
      <trkpt lat="49.92398" lon="2.14008">
        <ele>61.1</ele>
        <time>2022-11-09T14:22:52Z</time>
      </trkpt>
      <trkpt lat="49.92399" lon="2.14008">
        <ele>61</ele>
        <time>2022-11-09T14:22:53Z</time>
      </trkpt>
      <trkpt lat="49.924" lon="2.14008">
        <ele>61</ele>
        <time>2022-11-09T14:22:54Z</time>
      </trkpt>
      <trkpt lat="49.92401" lon="2.14007">
        <ele>60.9</ele>
        <time>2022-11-09T14:22:55Z</time>
      </trkpt>
      <trkpt lat="49.92403" lon="2.14007">
        <ele>60.9</ele>
        <time>2022-11-09T14:22:56Z</time>
      </trkpt>
      <trkpt lat="49.92404" lon="2.14006">
        <ele>60.8</ele>
        <time>2022-11-09T14:22:57Z</time>
      </trkpt>
      <trkpt lat="49.92405" lon="2.14006">
        <ele>60.8</ele>
        <time>2022-11-09T14:22:59Z</time>
      </trkpt>
      <trkpt lat="49.92406" lon="2.14005">
        <ele>60.7</ele>
        <time>2022-11-09T14:23:00Z</time>
      </trkpt>
      <trkpt lat="49.92406" lon="2.14004">
        <ele>60.7</ele>
        <time>2022-11-09T14:23:01Z</time>
      </trkpt>
      <trkpt lat="49.92407" lon="2.14003">
        <ele>60.7</ele>
        <time>2022-11-09T14:23:02Z</time>
      </trkpt>
      <trkpt lat="49.92408" lon="2.14002">
        <ele>60.6</ele>
        <time>2022-11-09T14:23:03Z</time>
      </trkpt>
      <trkpt lat="49.92409" lon="2.14001">
        <ele>60.6</ele>
        <time>2022-11-09T14:23:04Z</time>
      </trkpt>
      <trkpt lat="49.9241" lon="2.14">
        <ele>60.6</ele>
        <time>2022-11-09T14:23:06Z</time>
      </trkpt>
      <trkpt lat="49.92411" lon="2.13999">
        <ele>60.5</ele>
        <time>2022-11-09T14:23:07Z</time>
      </trkpt>
      <trkpt lat="49.92411" lon="2.13998">
        <ele>60.5</ele>
        <time>2022-11-09T14:23:08Z</time>
      </trkpt>
      <trkpt lat="49.92412" lon="2.13997">
        <ele>60.4</ele>
        <time>2022-11-09T14:23:09Z</time>
      </trkpt>
      <trkpt lat="49.92413" lon="2.13996">
        <ele>60.4</ele>
        <time>2022-11-09T14:23:10Z</time>
      </trkpt>
      <trkpt lat="49.92414" lon="2.13995">
        <ele>60.4</ele>
        <time>2022-11-09T14:23:11Z</time>
      </trkpt>
      <trkpt lat="49.92415" lon="2.13995">
        <ele>60.3</ele>
        <time>2022-11-09T14:23:12Z</time>
      </trkpt>
      <trkpt lat="49.92417" lon="2.13994">
        <ele>60.3</ele>
        <time>2022-11-09T14:23:14Z</time>
      </trkpt>
      <trkpt lat="49.92417" lon="2.13993">
        <ele>60.3</ele>
        <time>2022-11-09T14:23:15Z</time>
      </trkpt>
      <trkpt lat="49.92418" lon="2.13992">
        <ele>60.2</ele>
        <time>2022-11-09T14:23:16Z</time>
      </trkpt>
      <trkpt lat="49.9242" lon="2.13992">
        <ele>60.2</ele>
        <time>2022-11-09T14:23:18Z</time>
      </trkpt>
      <trkpt lat="49.92421" lon="2.13992">
        <ele>60.2</ele>
        <time>2022-11-09T14:23:19Z</time>
      </trkpt>
      <trkpt lat="49.92421" lon="2.13992">
        <ele>60.2</ele>
        <time>2022-11-09T14:23:20Z</time>
      </trkpt>
      <trkpt lat="49.92422" lon="2.13993">
        <ele>60.1</ele>
        <time>2022-11-09T14:23:21Z</time>
      </trkpt>
      <trkpt lat="49.92423" lon="2.13993">
        <ele>60.1</ele>
        <time>2022-11-09T14:23:23Z</time>
      </trkpt>
      <trkpt lat="49.92423" lon="2.13994">
        <ele>59.9</ele>
        <time>2022-11-09T14:23:24Z</time>
      </trkpt>
      <trkpt lat="49.92423" lon="2.13994">
        <ele>59.9</ele>
        <time>2022-11-09T14:23:25Z</time>
      </trkpt>
      <trkpt lat="49.92423" lon="2.13994">
        <ele>59.9</ele>
        <time>2022-11-09T14:23:26Z</time>
      </trkpt>
      <trkpt lat="49.92423" lon="2.13994">
        <ele>59.9</ele>
        <time>2022-11-09T14:23:27Z</time>
      </trkpt>
      <trkpt lat="49.92423" lon="2.13994">
        <ele>59.9</ele>
        <time>2022-11-09T14:23:28Z</time>
      </trkpt>
      <trkpt lat="49.92423" lon="2.13994">
        <ele>59.9</ele>
        <time>2022-11-09T14:23:29Z</time>
      </trkpt>
      <trkpt lat="49.92423" lon="2.13994">
        <ele>59.9</ele>
        <time>2022-11-09T14:23:30Z</time>
      </trkpt>
      <trkpt lat="49.92424" lon="2.13993">
        <ele>59.9</ele>
        <time>2022-11-09T14:23:31Z</time>
      </trkpt>
      <trkpt lat="49.92425" lon="2.13992">
        <ele>60</ele>
        <time>2022-11-09T14:23:32Z</time>
      </trkpt>
      <trkpt lat="49.92425" lon="2.13991">
        <ele>60</ele>
        <time>2022-11-09T14:23:34Z</time>
      </trkpt>
      <trkpt lat="49.92426" lon="2.1399">
        <ele>60</ele>
        <time>2022-11-09T14:23:35Z</time>
      </trkpt>
      <trkpt lat="49.92428" lon="2.13989">
        <ele>60</ele>
        <time>2022-11-09T14:23:36Z</time>
      </trkpt>
      <trkpt lat="49.92429" lon="2.13989">
        <ele>60.1</ele>
        <time>2022-11-09T14:23:37Z</time>
      </trkpt>
      <trkpt lat="49.9243" lon="2.13989">
        <ele>60.1</ele>
        <time>2022-11-09T14:23:38Z</time>
      </trkpt>
      <trkpt lat="49.92431" lon="2.1399">
        <ele>60.1</ele>
        <time>2022-11-09T14:23:39Z</time>
      </trkpt>
      <trkpt lat="49.92432" lon="2.13991">
        <ele>60.2</ele>
        <time>2022-11-09T14:23:40Z</time>
      </trkpt>
      <trkpt lat="49.92433" lon="2.13992">
        <ele>60.2</ele>
        <time>2022-11-09T14:23:41Z</time>
      </trkpt>
      <trkpt lat="49.92433" lon="2.13994">
        <ele>60.3</ele>
        <time>2022-11-09T14:23:42Z</time>
      </trkpt>
      <trkpt lat="49.92433" lon="2.13996">
        <ele>60.3</ele>
        <time>2022-11-09T14:23:44Z</time>
      </trkpt>
      <trkpt lat="49.92432" lon="2.13998">
        <ele>60.3</ele>
        <time>2022-11-09T14:23:45Z</time>
      </trkpt>
      <trkpt lat="49.92432" lon="2.13999">
        <ele>60.4</ele>
        <time>2022-11-09T14:23:46Z</time>
      </trkpt>
      <trkpt lat="49.92431" lon="2.14001">
        <ele>60.4</ele>
        <time>2022-11-09T14:23:47Z</time>
      </trkpt>
      <trkpt lat="49.92431" lon="2.14003">
        <ele>60.5</ele>
        <time>2022-11-09T14:23:48Z</time>
      </trkpt>
      <trkpt lat="49.92431" lon="2.14005">
        <ele>60.5</ele>
        <time>2022-11-09T14:23:49Z</time>
      </trkpt>
      <trkpt lat="49.92431" lon="2.14006">
        <ele>60.6</ele>
        <time>2022-11-09T14:23:51Z</time>
      </trkpt>
      <trkpt lat="49.92431" lon="2.1401">
        <ele>60.7</ele>
        <time>2022-11-09T14:23:52Z</time>
      </trkpt>
      <trkpt lat="49.92432" lon="2.14011">
        <ele>60.7</ele>
        <time>2022-11-09T14:23:53Z</time>
      </trkpt>
      <trkpt lat="49.92432" lon="2.14012">
        <ele>60.7</ele>
        <time>2022-11-09T14:23:54Z</time>
      </trkpt>
      <trkpt lat="49.92432" lon="2.14014">
        <ele>60.8</ele>
        <time>2022-11-09T14:23:55Z</time>
      </trkpt>
      <trkpt lat="49.92433" lon="2.14016">
        <ele>60.9</ele>
        <time>2022-11-09T14:23:56Z</time>
      </trkpt>
      <trkpt lat="49.92433" lon="2.14018">
        <ele>60.9</ele>
        <time>2022-11-09T14:23:57Z</time>
      </trkpt>
      <trkpt lat="49.92434" lon="2.14021">
        <ele>61</ele>
        <time>2022-11-09T14:23:58Z</time>
      </trkpt>
      <trkpt lat="49.92434" lon="2.14024">
        <ele>61.1</ele>
        <time>2022-11-09T14:23:59Z</time>
      </trkpt>
      <trkpt lat="49.92435" lon="2.14026">
        <ele>61.2</ele>
        <time>2022-11-09T14:24:01Z</time>
      </trkpt>
      <trkpt lat="49.92435" lon="2.14027">
        <ele>61.2</ele>
        <time>2022-11-09T14:24:02Z</time>
      </trkpt>
      <trkpt lat="49.92435" lon="2.14029">
        <ele>61.3</ele>
        <time>2022-11-09T14:24:03Z</time>
      </trkpt>
      <trkpt lat="49.92435" lon="2.1403">
        <ele>61.3</ele>
        <time>2022-11-09T14:24:04Z</time>
      </trkpt>
      <trkpt lat="49.92436" lon="2.14033">
        <ele>61.4</ele>
        <time>2022-11-09T14:24:05Z</time>
      </trkpt>
      <trkpt lat="49.92437" lon="2.14034">
        <ele>61.5</ele>
        <time>2022-11-09T14:24:06Z</time>
      </trkpt>
      <trkpt lat="49.92437" lon="2.14035">
        <ele>61.5</ele>
        <time>2022-11-09T14:24:07Z</time>
      </trkpt>
      <trkpt lat="49.92438" lon="2.14038">
        <ele>61.6</ele>
        <time>2022-11-09T14:24:08Z</time>
      </trkpt>
      <trkpt lat="49.92438" lon="2.1404">
        <ele>61.6</ele>
        <time>2022-11-09T14:24:10Z</time>
      </trkpt>
      <trkpt lat="49.92439" lon="2.14041">
        <ele>61.7</ele>
        <time>2022-11-09T14:24:11Z</time>
      </trkpt>
      <trkpt lat="49.9244" lon="2.14044">
        <ele>61.8</ele>
        <time>2022-11-09T14:24:12Z</time>
      </trkpt>
      <trkpt lat="49.9244" lon="2.14045">
        <ele>61.8</ele>
        <time>2022-11-09T14:24:13Z</time>
      </trkpt>
      <trkpt lat="49.92441" lon="2.14046">
        <ele>61.9</ele>
        <time>2022-11-09T14:24:14Z</time>
      </trkpt>
      <trkpt lat="49.92441" lon="2.14048">
        <ele>61.9</ele>
        <time>2022-11-09T14:24:15Z</time>
      </trkpt>
      <trkpt lat="49.92442" lon="2.1405">
        <ele>62</ele>
        <time>2022-11-09T14:24:16Z</time>
      </trkpt>
      <trkpt lat="49.92443" lon="2.14051">
        <ele>62.1</ele>
        <time>2022-11-09T14:24:18Z</time>
      </trkpt>
      <trkpt lat="49.92444" lon="2.14054">
        <ele>62.2</ele>
        <time>2022-11-09T14:24:19Z</time>
      </trkpt>
      <trkpt lat="49.92444" lon="2.14055">
        <ele>62.2</ele>
        <time>2022-11-09T14:24:20Z</time>
      </trkpt>
      <trkpt lat="49.92445" lon="2.14056">
        <ele>62.3</ele>
        <time>2022-11-09T14:24:21Z</time>
      </trkpt>
      <trkpt lat="49.92446" lon="2.14059">
        <ele>62.4</ele>
        <time>2022-11-09T14:24:22Z</time>
      </trkpt>
      <trkpt lat="49.92447" lon="2.1406">
        <ele>62.4</ele>
        <time>2022-11-09T14:24:23Z</time>
      </trkpt>
      <trkpt lat="49.92447" lon="2.14061">
        <ele>62.5</ele>
        <time>2022-11-09T14:24:24Z</time>
      </trkpt>
      <trkpt lat="49.92448" lon="2.14065">
        <ele>62.6</ele>
        <time>2022-11-09T14:24:26Z</time>
      </trkpt>
      <trkpt lat="49.92448" lon="2.14066">
        <ele>62.6</ele>
        <time>2022-11-09T14:24:27Z</time>
      </trkpt>
      <trkpt lat="49.92449" lon="2.14067">
        <ele>62.7</ele>
        <time>2022-11-09T14:24:28Z</time>
      </trkpt>
      <trkpt lat="49.92449" lon="2.14069">
        <ele>62.8</ele>
        <time>2022-11-09T14:24:29Z</time>
      </trkpt>
      <trkpt lat="49.9245" lon="2.14071">
        <ele>62.9</ele>
        <time>2022-11-09T14:24:30Z</time>
      </trkpt>
      <trkpt lat="49.92451" lon="2.14073">
        <ele>62.9</ele>
        <time>2022-11-09T14:24:31Z</time>
      </trkpt>
      <trkpt lat="49.92451" lon="2.14075">
        <ele>63</ele>
        <time>2022-11-09T14:24:32Z</time>
      </trkpt>
      <trkpt lat="49.92452" lon="2.14077">
        <ele>63.1</ele>
        <time>2022-11-09T14:24:34Z</time>
      </trkpt>
      <trkpt lat="49.92453" lon="2.1408">
        <ele>63.2</ele>
        <time>2022-11-09T14:24:35Z</time>
      </trkpt>
      <trkpt lat="49.92453" lon="2.14082">
        <ele>63.3</ele>
        <time>2022-11-09T14:24:36Z</time>
      </trkpt>
      <trkpt lat="49.92453" lon="2.14083">
        <ele>63.3</ele>
        <time>2022-11-09T14:24:37Z</time>
      </trkpt>
      <trkpt lat="49.92454" lon="2.14085">
        <ele>63.4</ele>
        <time>2022-11-09T14:24:38Z</time>
      </trkpt>
      <trkpt lat="49.92455" lon="2.14087">
        <ele>63.5</ele>
        <time>2022-11-09T14:24:40Z</time>
      </trkpt>
      <trkpt lat="49.92455" lon="2.14089">
        <ele>63.5</ele>
        <time>2022-11-09T14:24:41Z</time>
      </trkpt>
      <trkpt lat="49.92456" lon="2.14091">
        <ele>63.6</ele>
        <time>2022-11-09T14:24:42Z</time>
      </trkpt>
      <trkpt lat="49.92456" lon="2.14093">
        <ele>63.7</ele>
        <time>2022-11-09T14:24:43Z</time>
      </trkpt>
      <trkpt lat="49.92456" lon="2.14094">
        <ele>63.7</ele>
        <time>2022-11-09T14:24:45Z</time>
      </trkpt>
      <trkpt lat="49.92457" lon="2.14096">
        <ele>63.8</ele>
        <time>2022-11-09T14:24:46Z</time>
      </trkpt>
      <trkpt lat="49.92457" lon="2.14097">
        <ele>63.8</ele>
        <time>2022-11-09T14:24:47Z</time>
      </trkpt>
      <trkpt lat="49.92458" lon="2.14099">
        <ele>63.9</ele>
        <time>2022-11-09T14:24:48Z</time>
      </trkpt>
      <trkpt lat="49.92458" lon="2.14101">
        <ele>64</ele>
        <time>2022-11-09T14:24:49Z</time>
      </trkpt>
      <trkpt lat="49.92458" lon="2.14103">
        <ele>64</ele>
        <time>2022-11-09T14:24:50Z</time>
      </trkpt>
      <trkpt lat="49.92459" lon="2.14104">
        <ele>64.1</ele>
        <time>2022-11-09T14:24:52Z</time>
      </trkpt>
      <trkpt lat="49.92459" lon="2.14106">
        <ele>64.1</ele>
        <time>2022-11-09T14:24:53Z</time>
      </trkpt>
      <trkpt lat="49.92459" lon="2.14109">
        <ele>64.2</ele>
        <time>2022-11-09T14:24:54Z</time>
      </trkpt>
      <trkpt lat="49.92459" lon="2.14111">
        <ele>64.3</ele>
        <time>2022-11-09T14:24:55Z</time>
      </trkpt>
      <trkpt lat="49.92459" lon="2.14112">
        <ele>64.3</ele>
        <time>2022-11-09T14:24:56Z</time>
      </trkpt>
      <trkpt lat="49.92459" lon="2.14114">
        <ele>64.4</ele>
        <time>2022-11-09T14:24:57Z</time>
      </trkpt>
      <trkpt lat="49.9246" lon="2.14115">
        <ele>64.4</ele>
        <time>2022-11-09T14:24:59Z</time>
      </trkpt>
      <trkpt lat="49.9246" lon="2.14117">
        <ele>64.5</ele>
        <time>2022-11-09T14:25:00Z</time>
      </trkpt>
      <trkpt lat="49.9246" lon="2.14119">
        <ele>64.5</ele>
        <time>2022-11-09T14:25:01Z</time>
      </trkpt>
      <trkpt lat="49.9246" lon="2.1412">
        <ele>64.6</ele>
        <time>2022-11-09T14:25:02Z</time>
      </trkpt>
      <trkpt lat="49.92461" lon="2.14122">
        <ele>64.6</ele>
        <time>2022-11-09T14:25:03Z</time>
      </trkpt>
      <trkpt lat="49.92461" lon="2.14124">
        <ele>64.7</ele>
        <time>2022-11-09T14:25:04Z</time>
      </trkpt>
      <trkpt lat="49.92461" lon="2.14126">
        <ele>64.7</ele>
        <time>2022-11-09T14:25:05Z</time>
      </trkpt>
      <trkpt lat="49.92461" lon="2.14127">
        <ele>64.8</ele>
        <time>2022-11-09T14:25:07Z</time>
      </trkpt>
      <trkpt lat="49.92462" lon="2.14129">
        <ele>64.8</ele>
        <time>2022-11-09T14:25:08Z</time>
      </trkpt>
      <trkpt lat="49.92462" lon="2.1413">
        <ele>64.9</ele>
        <time>2022-11-09T14:25:09Z</time>
      </trkpt>
      <trkpt lat="49.92462" lon="2.14132">
        <ele>64.9</ele>
        <time>2022-11-09T14:25:10Z</time>
      </trkpt>
      <trkpt lat="49.92463" lon="2.14134">
        <ele>65</ele>
        <time>2022-11-09T14:25:11Z</time>
      </trkpt>
      <trkpt lat="49.92464" lon="2.14135">
        <ele>65</ele>
        <time>2022-11-09T14:25:13Z</time>
      </trkpt>
      <trkpt lat="49.92464" lon="2.14137">
        <ele>65</ele>
        <time>2022-11-09T14:25:14Z</time>
      </trkpt>
      <trkpt lat="49.92465" lon="2.14138">
        <ele>65.1</ele>
        <time>2022-11-09T14:25:15Z</time>
      </trkpt>
      <trkpt lat="49.92465" lon="2.1414">
        <ele>65.1</ele>
        <time>2022-11-09T14:25:16Z</time>
      </trkpt>
      <trkpt lat="49.92465" lon="2.14142">
        <ele>65.2</ele>
        <time>2022-11-09T14:25:17Z</time>
      </trkpt>
      <trkpt lat="49.92466" lon="2.14143">
        <ele>65.2</ele>
        <time>2022-11-09T14:25:18Z</time>
      </trkpt>
      <trkpt lat="49.92466" lon="2.14145">
        <ele>65.3</ele>
        <time>2022-11-09T14:25:19Z</time>
      </trkpt>
      <trkpt lat="49.92467" lon="2.14147">
        <ele>65.3</ele>
        <time>2022-11-09T14:25:21Z</time>
      </trkpt>
      <trkpt lat="49.92467" lon="2.14148">
        <ele>65.3</ele>
        <time>2022-11-09T14:25:22Z</time>
      </trkpt>
      <trkpt lat="49.92467" lon="2.1415">
        <ele>65.4</ele>
        <time>2022-11-09T14:25:23Z</time>
      </trkpt>
      <trkpt lat="49.92468" lon="2.14152">
        <ele>65.4</ele>
        <time>2022-11-09T14:25:24Z</time>
      </trkpt>
      <trkpt lat="49.92469" lon="2.14154">
        <ele>65.5</ele>
        <time>2022-11-09T14:25:25Z</time>
      </trkpt>
      <trkpt lat="49.92469" lon="2.14155">
        <ele>65.5</ele>
        <time>2022-11-09T14:25:26Z</time>
      </trkpt>
      <trkpt lat="49.9247" lon="2.14157">
        <ele>65.5</ele>
        <time>2022-11-09T14:25:27Z</time>
      </trkpt>
      <trkpt lat="49.9247" lon="2.14158">
        <ele>65.6</ele>
        <time>2022-11-09T14:25:28Z</time>
      </trkpt>
      <trkpt lat="49.9247" lon="2.1416">
        <ele>65.6</ele>
        <time>2022-11-09T14:25:29Z</time>
      </trkpt>
      <trkpt lat="49.92471" lon="2.14162">
        <ele>65.7</ele>
        <time>2022-11-09T14:25:31Z</time>
      </trkpt>
      <trkpt lat="49.92471" lon="2.14164">
        <ele>65.7</ele>
        <time>2022-11-09T14:25:32Z</time>
      </trkpt>
      <trkpt lat="49.92471" lon="2.14166">
        <ele>65.7</ele>
        <time>2022-11-09T14:25:33Z</time>
      </trkpt>
      <trkpt lat="49.92471" lon="2.14168">
        <ele>65.8</ele>
        <time>2022-11-09T14:25:34Z</time>
      </trkpt>
      <trkpt lat="49.92472" lon="2.14169">
        <ele>65.8</ele>
        <time>2022-11-09T14:25:35Z</time>
      </trkpt>
      <trkpt lat="49.92472" lon="2.14171">
        <ele>65.8</ele>
        <time>2022-11-09T14:25:36Z</time>
      </trkpt>
      <trkpt lat="49.92473" lon="2.14173">
        <ele>65.9</ele>
        <time>2022-11-09T14:25:37Z</time>
      </trkpt>
      <trkpt lat="49.92474" lon="2.14175">
        <ele>65.9</ele>
        <time>2022-11-09T14:25:38Z</time>
      </trkpt>
      <trkpt lat="49.92474" lon="2.14177">
        <ele>66</ele>
        <time>2022-11-09T14:25:40Z</time>
      </trkpt>
      <trkpt lat="49.92475" lon="2.14178">
        <ele>66</ele>
        <time>2022-11-09T14:25:41Z</time>
      </trkpt>
      <trkpt lat="49.92476" lon="2.14181">
        <ele>66</ele>
        <time>2022-11-09T14:25:42Z</time>
      </trkpt>
      <trkpt lat="49.92476" lon="2.14182">
        <ele>66.1</ele>
        <time>2022-11-09T14:25:43Z</time>
      </trkpt>
      <trkpt lat="49.92477" lon="2.14183">
        <ele>66.1</ele>
        <time>2022-11-09T14:25:44Z</time>
      </trkpt>
      <trkpt lat="49.92477" lon="2.14184">
        <ele>66.1</ele>
        <time>2022-11-09T14:25:45Z</time>
      </trkpt>
      <trkpt lat="49.92478" lon="2.14186">
        <ele>66.2</ele>
        <time>2022-11-09T14:25:46Z</time>
      </trkpt>
      <trkpt lat="49.92479" lon="2.14187">
        <ele>66.2</ele>
        <time>2022-11-09T14:25:47Z</time>
      </trkpt>
      <trkpt lat="49.92479" lon="2.14189">
        <ele>66.2</ele>
        <time>2022-11-09T14:25:48Z</time>
      </trkpt>
      <trkpt lat="49.9248" lon="2.1419">
        <ele>66.2</ele>
        <time>2022-11-09T14:25:50Z</time>
      </trkpt>
      <trkpt lat="49.9248" lon="2.14192">
        <ele>66.3</ele>
        <time>2022-11-09T14:25:51Z</time>
      </trkpt>
      <trkpt lat="49.9248" lon="2.14193">
        <ele>66.3</ele>
        <time>2022-11-09T14:25:52Z</time>
      </trkpt>
      <trkpt lat="49.92481" lon="2.14195">
        <ele>66.3</ele>
        <time>2022-11-09T14:25:53Z</time>
      </trkpt>
      <trkpt lat="49.92481" lon="2.14196">
        <ele>66.4</ele>
        <time>2022-11-09T14:25:54Z</time>
      </trkpt>
      <trkpt lat="49.92481" lon="2.14198">
        <ele>66.4</ele>
        <time>2022-11-09T14:25:55Z</time>
      </trkpt>
      <trkpt lat="49.92482" lon="2.14199">
        <ele>66.4</ele>
        <time>2022-11-09T14:25:56Z</time>
      </trkpt>
      <trkpt lat="49.92482" lon="2.14201">
        <ele>66.4</ele>
        <time>2022-11-09T14:25:57Z</time>
      </trkpt>
      <trkpt lat="49.92483" lon="2.14204">
        <ele>66.5</ele>
        <time>2022-11-09T14:25:58Z</time>
      </trkpt>
      <trkpt lat="49.92483" lon="2.14205">
        <ele>66.5</ele>
        <time>2022-11-09T14:25:59Z</time>
      </trkpt>
      <trkpt lat="49.92483" lon="2.14206">
        <ele>66.6</ele>
        <time>2022-11-09T14:26:00Z</time>
      </trkpt>
      <trkpt lat="49.92484" lon="2.14209">
        <ele>66.6</ele>
        <time>2022-11-09T14:26:01Z</time>
      </trkpt>
      <trkpt lat="49.92485" lon="2.14211">
        <ele>66.7</ele>
        <time>2022-11-09T14:26:02Z</time>
      </trkpt>
      <trkpt lat="49.92485" lon="2.14212">
        <ele>66.7</ele>
        <time>2022-11-09T14:26:03Z</time>
      </trkpt>
      <trkpt lat="49.92486" lon="2.14215">
        <ele>66.7</ele>
        <time>2022-11-09T14:26:05Z</time>
      </trkpt>
      <trkpt lat="49.92487" lon="2.14216">
        <ele>66.8</ele>
        <time>2022-11-09T14:26:06Z</time>
      </trkpt>
      <trkpt lat="49.92487" lon="2.14217">
        <ele>66.8</ele>
        <time>2022-11-09T14:26:07Z</time>
      </trkpt>
      <trkpt lat="49.92488" lon="2.1422">
        <ele>67</ele>
        <time>2022-11-09T14:26:08Z</time>
      </trkpt>
      <trkpt lat="49.92488" lon="2.14221">
        <ele>67</ele>
        <time>2022-11-09T14:26:09Z</time>
      </trkpt>
      <trkpt lat="49.92489" lon="2.14223">
        <ele>67.1</ele>
        <time>2022-11-09T14:26:10Z</time>
      </trkpt>
      <trkpt lat="49.92489" lon="2.14226">
        <ele>67.2</ele>
        <time>2022-11-09T14:26:11Z</time>
      </trkpt>
      <trkpt lat="49.9249" lon="2.14227">
        <ele>67.2</ele>
        <time>2022-11-09T14:26:12Z</time>
      </trkpt>
      <trkpt lat="49.9249" lon="2.14228">
        <ele>67.3</ele>
        <time>2022-11-09T14:26:13Z</time>
      </trkpt>
      <trkpt lat="49.92491" lon="2.14231">
        <ele>67.4</ele>
        <time>2022-11-09T14:26:15Z</time>
      </trkpt>
      <trkpt lat="49.92491" lon="2.14233">
        <ele>67.4</ele>
        <time>2022-11-09T14:26:16Z</time>
      </trkpt>
      <trkpt lat="49.92491" lon="2.14234">
        <ele>67.5</ele>
        <time>2022-11-09T14:26:17Z</time>
      </trkpt>
      <trkpt lat="49.92492" lon="2.14236">
        <ele>67.6</ele>
        <time>2022-11-09T14:26:18Z</time>
      </trkpt>
      <trkpt lat="49.92492" lon="2.14238">
        <ele>67.7</ele>
        <time>2022-11-09T14:26:19Z</time>
      </trkpt>
      <trkpt lat="49.92493" lon="2.14241">
        <ele>67.8</ele>
        <time>2022-11-09T14:26:20Z</time>
      </trkpt>
      <trkpt lat="49.92493" lon="2.14243">
        <ele>67.8</ele>
        <time>2022-11-09T14:26:22Z</time>
      </trkpt>
      <trkpt lat="49.92493" lon="2.14244">
        <ele>67.9</ele>
        <time>2022-11-09T14:26:23Z</time>
      </trkpt>
      <trkpt lat="49.92494" lon="2.14247">
        <ele>68</ele>
        <time>2022-11-09T14:26:24Z</time>
      </trkpt>
      <trkpt lat="49.92495" lon="2.14248">
        <ele>68</ele>
        <time>2022-11-09T14:26:25Z</time>
      </trkpt>
      <trkpt lat="49.92495" lon="2.14249">
        <ele>68.1</ele>
        <time>2022-11-09T14:26:26Z</time>
      </trkpt>
      <trkpt lat="49.92496" lon="2.14251">
        <ele>68.2</ele>
        <time>2022-11-09T14:26:27Z</time>
      </trkpt>
      <trkpt lat="49.92497" lon="2.14252">
        <ele>68.2</ele>
        <time>2022-11-09T14:26:29Z</time>
      </trkpt>
      <trkpt lat="49.92498" lon="2.14254">
        <ele>68.3</ele>
        <time>2022-11-09T14:26:30Z</time>
      </trkpt>
      <trkpt lat="49.92498" lon="2.14255">
        <ele>68.4</ele>
        <time>2022-11-09T14:26:31Z</time>
      </trkpt>
      <trkpt lat="49.92499" lon="2.14256">
        <ele>68.4</ele>
        <time>2022-11-09T14:26:32Z</time>
      </trkpt>
      <trkpt lat="49.925" lon="2.14259">
        <ele>68.5</ele>
        <time>2022-11-09T14:26:33Z</time>
      </trkpt>
      <trkpt lat="49.92501" lon="2.1426">
        <ele>68.6</ele>
        <time>2022-11-09T14:26:34Z</time>
      </trkpt>
      <trkpt lat="49.92501" lon="2.14261">
        <ele>68.6</ele>
        <time>2022-11-09T14:26:35Z</time>
      </trkpt>
      <trkpt lat="49.92502" lon="2.14263">
        <ele>68.7</ele>
        <time>2022-11-09T14:26:36Z</time>
      </trkpt>
      <trkpt lat="49.92502" lon="2.14265">
        <ele>68.7</ele>
        <time>2022-11-09T14:26:37Z</time>
      </trkpt>
      <trkpt lat="49.92502" lon="2.14267">
        <ele>68.8</ele>
        <time>2022-11-09T14:26:39Z</time>
      </trkpt>
      <trkpt lat="49.92503" lon="2.14268">
        <ele>68.9</ele>
        <time>2022-11-09T14:26:40Z</time>
      </trkpt>
      <trkpt lat="49.92503" lon="2.1427">
        <ele>68.9</ele>
        <time>2022-11-09T14:26:41Z</time>
      </trkpt>
      <trkpt lat="49.92503" lon="2.14272">
        <ele>69</ele>
        <time>2022-11-09T14:26:42Z</time>
      </trkpt>
      <trkpt lat="49.92503" lon="2.14274">
        <ele>69</ele>
        <time>2022-11-09T14:26:43Z</time>
      </trkpt>
      <trkpt lat="49.92504" lon="2.14275">
        <ele>69.1</ele>
        <time>2022-11-09T14:26:45Z</time>
      </trkpt>
      <trkpt lat="49.92504" lon="2.14277">
        <ele>69.2</ele>
        <time>2022-11-09T14:26:46Z</time>
      </trkpt>
      <trkpt lat="49.92504" lon="2.14278">
        <ele>69.2</ele>
        <time>2022-11-09T14:26:47Z</time>
      </trkpt>
      <trkpt lat="49.92504" lon="2.1428">
        <ele>69.3</ele>
        <time>2022-11-09T14:26:48Z</time>
      </trkpt>
      <trkpt lat="49.92505" lon="2.14281">
        <ele>69.3</ele>
        <time>2022-11-09T14:26:49Z</time>
      </trkpt>
      <trkpt lat="49.92505" lon="2.14284">
        <ele>69.4</ele>
        <time>2022-11-09T14:26:50Z</time>
      </trkpt>
      <trkpt lat="49.92506" lon="2.14285">
        <ele>69.4</ele>
        <time>2022-11-09T14:26:51Z</time>
      </trkpt>
      <trkpt lat="49.92506" lon="2.14286">
        <ele>69.5</ele>
        <time>2022-11-09T14:26:52Z</time>
      </trkpt>
      <trkpt lat="49.92506" lon="2.14288">
        <ele>69.5</ele>
        <time>2022-11-09T14:26:54Z</time>
      </trkpt>
      <trkpt lat="49.92506" lon="2.1429">
        <ele>69.6</ele>
        <time>2022-11-09T14:26:55Z</time>
      </trkpt>
      <trkpt lat="49.92506" lon="2.14291">
        <ele>69.7</ele>
        <time>2022-11-09T14:26:56Z</time>
      </trkpt>
      <trkpt lat="49.92507" lon="2.14294">
        <ele>69.8</ele>
        <time>2022-11-09T14:26:57Z</time>
      </trkpt>
      <trkpt lat="49.92507" lon="2.14296">
        <ele>69.8</ele>
        <time>2022-11-09T14:26:58Z</time>
      </trkpt>
      <trkpt lat="49.92507" lon="2.14297">
        <ele>69.8</ele>
        <time>2022-11-09T14:26:59Z</time>
      </trkpt>
      <trkpt lat="49.92506" lon="2.143">
        <ele>70</ele>
        <time>2022-11-09T14:27:01Z</time>
      </trkpt>
      <trkpt lat="49.92506" lon="2.14302">
        <ele>70</ele>
        <time>2022-11-09T14:27:02Z</time>
      </trkpt>
      <trkpt lat="49.92506" lon="2.14303">
        <ele>70</ele>
        <time>2022-11-09T14:27:03Z</time>
      </trkpt>
      <trkpt lat="49.92506" lon="2.14305">
        <ele>70.1</ele>
        <time>2022-11-09T14:27:04Z</time>
      </trkpt>
      <trkpt lat="49.92506" lon="2.14307">
        <ele>70.2</ele>
        <time>2022-11-09T14:27:05Z</time>
      </trkpt>
      <trkpt lat="49.92506" lon="2.14308">
        <ele>70.2</ele>
        <time>2022-11-09T14:27:07Z</time>
      </trkpt>
      <trkpt lat="49.92507" lon="2.1431">
        <ele>70.3</ele>
        <time>2022-11-09T14:27:08Z</time>
      </trkpt>
      <trkpt lat="49.92507" lon="2.14312">
        <ele>70.3</ele>
        <time>2022-11-09T14:27:09Z</time>
      </trkpt>
      <trkpt lat="49.92507" lon="2.14313">
        <ele>70.4</ele>
        <time>2022-11-09T14:27:10Z</time>
      </trkpt>
      <trkpt lat="49.92508" lon="2.14316">
        <ele>70.5</ele>
        <time>2022-11-09T14:27:11Z</time>
      </trkpt>
      <trkpt lat="49.92509" lon="2.14317">
        <ele>70.5</ele>
        <time>2022-11-09T14:27:12Z</time>
      </trkpt>
      <trkpt lat="49.92509" lon="2.14318">
        <ele>70.6</ele>
        <time>2022-11-09T14:27:13Z</time>
      </trkpt>
      <trkpt lat="49.9251" lon="2.1432">
        <ele>70.6</ele>
        <time>2022-11-09T14:27:14Z</time>
      </trkpt>
      <trkpt lat="49.92511" lon="2.14321">
        <ele>70.7</ele>
        <time>2022-11-09T14:27:15Z</time>
      </trkpt>
      <trkpt lat="49.92512" lon="2.14323">
        <ele>70.8</ele>
        <time>2022-11-09T14:27:17Z</time>
      </trkpt>
      <trkpt lat="49.92512" lon="2.14324">
        <ele>70.8</ele>
        <time>2022-11-09T14:27:18Z</time>
      </trkpt>
      <trkpt lat="49.92513" lon="2.14326">
        <ele>70.9</ele>
        <time>2022-11-09T14:27:19Z</time>
      </trkpt>
      <trkpt lat="49.92515" lon="2.14328">
        <ele>71</ele>
        <time>2022-11-09T14:27:20Z</time>
      </trkpt>
      <trkpt lat="49.92515" lon="2.14329">
        <ele>71.1</ele>
        <time>2022-11-09T14:27:21Z</time>
      </trkpt>
      <trkpt lat="49.92516" lon="2.1433">
        <ele>71.1</ele>
        <time>2022-11-09T14:27:22Z</time>
      </trkpt>
      <trkpt lat="49.92517" lon="2.14332">
        <ele>71.2</ele>
        <time>2022-11-09T14:27:24Z</time>
      </trkpt>
      <trkpt lat="49.92518" lon="2.14333">
        <ele>71.2</ele>
        <time>2022-11-09T14:27:25Z</time>
      </trkpt>
      <trkpt lat="49.92519" lon="2.14334">
        <ele>71.3</ele>
        <time>2022-11-09T14:27:26Z</time>
      </trkpt>
      <trkpt lat="49.92519" lon="2.14335">
        <ele>71.3</ele>
        <time>2022-11-09T14:27:27Z</time>
      </trkpt>
      <trkpt lat="49.9252" lon="2.14337">
        <ele>71.4</ele>
        <time>2022-11-09T14:27:28Z</time>
      </trkpt>
      <trkpt lat="49.92521" lon="2.14338">
        <ele>71.5</ele>
        <time>2022-11-09T14:27:29Z</time>
      </trkpt>
      <trkpt lat="49.92522" lon="2.1434">
        <ele>71.5</ele>
        <time>2022-11-09T14:27:30Z</time>
      </trkpt>
      <trkpt lat="49.92522" lon="2.14342">
        <ele>71.6</ele>
        <time>2022-11-09T14:27:31Z</time>
      </trkpt>
      <trkpt lat="49.92523" lon="2.14343">
        <ele>71.7</ele>
        <time>2022-11-09T14:27:32Z</time>
      </trkpt>
      <trkpt lat="49.92523" lon="2.14345">
        <ele>71.7</ele>
        <time>2022-11-09T14:27:34Z</time>
      </trkpt>
      <trkpt lat="49.92524" lon="2.14346">
        <ele>71.8</ele>
        <time>2022-11-09T14:27:35Z</time>
      </trkpt>
      <trkpt lat="49.92524" lon="2.14348">
        <ele>71.8</ele>
        <time>2022-11-09T14:27:36Z</time>
      </trkpt>
      <trkpt lat="49.92524" lon="2.14349">
        <ele>71.9</ele>
        <time>2022-11-09T14:27:37Z</time>
      </trkpt>
      <trkpt lat="49.92524" lon="2.14352">
        <ele>72</ele>
        <time>2022-11-09T14:27:38Z</time>
      </trkpt>
      <trkpt lat="49.92525" lon="2.14353">
        <ele>72.1</ele>
        <time>2022-11-09T14:27:39Z</time>
      </trkpt>
      <trkpt lat="49.92525" lon="2.14355">
        <ele>72.1</ele>
        <time>2022-11-09T14:27:40Z</time>
      </trkpt>
      <trkpt lat="49.92526" lon="2.14357">
        <ele>72.2</ele>
        <time>2022-11-09T14:27:42Z</time>
      </trkpt>
      <trkpt lat="49.92526" lon="2.14358">
        <ele>72.2</ele>
        <time>2022-11-09T14:27:43Z</time>
      </trkpt>
      <trkpt lat="49.92526" lon="2.1436">
        <ele>72.3</ele>
        <time>2022-11-09T14:27:44Z</time>
      </trkpt>
      <trkpt lat="49.92527" lon="2.14361">
        <ele>72.4</ele>
        <time>2022-11-09T14:27:45Z</time>
      </trkpt>
      <trkpt lat="49.92527" lon="2.14363">
        <ele>72.4</ele>
        <time>2022-11-09T14:27:46Z</time>
      </trkpt>
      <trkpt lat="49.92528" lon="2.14365">
        <ele>72.5</ele>
        <time>2022-11-09T14:27:48Z</time>
      </trkpt>
      <trkpt lat="49.92528" lon="2.14367">
        <ele>72.6</ele>
        <time>2022-11-09T14:27:49Z</time>
      </trkpt>
      <trkpt lat="49.92528" lon="2.1437">
        <ele>72.7</ele>
        <time>2022-11-09T14:27:50Z</time>
      </trkpt>
      <trkpt lat="49.92528" lon="2.14371">
        <ele>72.7</ele>
        <time>2022-11-09T14:27:51Z</time>
      </trkpt>
      <trkpt lat="49.92529" lon="2.14372">
        <ele>72.8</ele>
        <time>2022-11-09T14:27:52Z</time>
      </trkpt>
      <trkpt lat="49.92529" lon="2.14375">
        <ele>72.9</ele>
        <time>2022-11-09T14:27:53Z</time>
      </trkpt>
      <trkpt lat="49.9253" lon="2.14376">
        <ele>73</ele>
        <time>2022-11-09T14:27:55Z</time>
      </trkpt>
      <trkpt lat="49.9253" lon="2.14378">
        <ele>73</ele>
        <time>2022-11-09T14:27:56Z</time>
      </trkpt>
      <trkpt lat="49.9253" lon="2.14379">
        <ele>73.1</ele>
        <time>2022-11-09T14:27:57Z</time>
      </trkpt>
      <trkpt lat="49.92531" lon="2.14382">
        <ele>73.2</ele>
        <time>2022-11-09T14:27:58Z</time>
      </trkpt>
      <trkpt lat="49.92531" lon="2.14383">
        <ele>73.3</ele>
        <time>2022-11-09T14:27:59Z</time>
      </trkpt>
      <trkpt lat="49.92532" lon="2.14385">
        <ele>73.3</ele>
        <time>2022-11-09T14:28:01Z</time>
      </trkpt>
      <trkpt lat="49.92532" lon="2.14387">
        <ele>73.4</ele>
        <time>2022-11-09T14:28:02Z</time>
      </trkpt>
      <trkpt lat="49.92532" lon="2.14388">
        <ele>73.5</ele>
        <time>2022-11-09T14:28:03Z</time>
      </trkpt>
      <trkpt lat="49.92533" lon="2.1439">
        <ele>73.5</ele>
        <time>2022-11-09T14:28:04Z</time>
      </trkpt>
      <trkpt lat="49.92533" lon="2.14391">
        <ele>73.6</ele>
        <time>2022-11-09T14:28:05Z</time>
      </trkpt>
      <trkpt lat="49.92533" lon="2.14393">
        <ele>73.7</ele>
        <time>2022-11-09T14:28:06Z</time>
      </trkpt>
      <trkpt lat="49.92534" lon="2.14395">
        <ele>73.7</ele>
        <time>2022-11-09T14:28:07Z</time>
      </trkpt>
      <trkpt lat="49.92534" lon="2.14396">
        <ele>73.8</ele>
        <time>2022-11-09T14:28:08Z</time>
      </trkpt>
      <trkpt lat="49.92535" lon="2.14398">
        <ele>73.9</ele>
        <time>2022-11-09T14:28:10Z</time>
      </trkpt>
      <trkpt lat="49.92535" lon="2.14399">
        <ele>73.9</ele>
        <time>2022-11-09T14:28:11Z</time>
      </trkpt>
      <trkpt lat="49.92535" lon="2.144">
        <ele>74</ele>
        <time>2022-11-09T14:28:12Z</time>
      </trkpt>
      <trkpt lat="49.92535" lon="2.14401">
        <ele>74</ele>
        <time>2022-11-09T14:28:13Z</time>
      </trkpt>
      <trkpt lat="49.92536" lon="2.14403">
        <ele>74.1</ele>
        <time>2022-11-09T14:28:14Z</time>
      </trkpt>
      <trkpt lat="49.92536" lon="2.14405">
        <ele>74.2</ele>
        <time>2022-11-09T14:28:15Z</time>
      </trkpt>
      <trkpt lat="49.92536" lon="2.14406">
        <ele>74.2</ele>
        <time>2022-11-09T14:28:16Z</time>
      </trkpt>
      <trkpt lat="49.92536" lon="2.14408">
        <ele>74.3</ele>
        <time>2022-11-09T14:28:18Z</time>
      </trkpt>
      <trkpt lat="49.92537" lon="2.14409">
        <ele>74.3</ele>
        <time>2022-11-09T14:28:19Z</time>
      </trkpt>
      <trkpt lat="49.92537" lon="2.1441">
        <ele>74.4</ele>
        <time>2022-11-09T14:28:20Z</time>
      </trkpt>
      <trkpt lat="49.92538" lon="2.14411">
        <ele>74.4</ele>
        <time>2022-11-09T14:28:21Z</time>
      </trkpt>
      <trkpt lat="49.92538" lon="2.14413">
        <ele>74.5</ele>
        <time>2022-11-09T14:28:22Z</time>
      </trkpt>
      <trkpt lat="49.92539" lon="2.14415">
        <ele>74.6</ele>
        <time>2022-11-09T14:28:23Z</time>
      </trkpt>
      <trkpt lat="49.92539" lon="2.14416">
        <ele>74.7</ele>
        <time>2022-11-09T14:28:24Z</time>
      </trkpt>
      <trkpt lat="49.92539" lon="2.14418">
        <ele>74.7</ele>
        <time>2022-11-09T14:28:25Z</time>
      </trkpt>
      <trkpt lat="49.9254" lon="2.14419">
        <ele>74.8</ele>
        <time>2022-11-09T14:28:27Z</time>
      </trkpt>
      <trkpt lat="49.9254" lon="2.1442">
        <ele>74.8</ele>
        <time>2022-11-09T14:28:28Z</time>
      </trkpt>
      <trkpt lat="49.92541" lon="2.14421">
        <ele>74.9</ele>
        <time>2022-11-09T14:28:29Z</time>
      </trkpt>
      <trkpt lat="49.92541" lon="2.14422">
        <ele>74.9</ele>
        <time>2022-11-09T14:28:30Z</time>
      </trkpt>
      <trkpt lat="49.92542" lon="2.14424">
        <ele>75</ele>
        <time>2022-11-09T14:28:31Z</time>
      </trkpt>
      <trkpt lat="49.92542" lon="2.14425">
        <ele>75.1</ele>
        <time>2022-11-09T14:28:32Z</time>
      </trkpt>
      <trkpt lat="49.92542" lon="2.14426">
        <ele>75.1</ele>
        <time>2022-11-09T14:28:33Z</time>
      </trkpt>
      <trkpt lat="49.92543" lon="2.14428">
        <ele>75.2</ele>
        <time>2022-11-09T14:28:35Z</time>
      </trkpt>
      <trkpt lat="49.92543" lon="2.14429">
        <ele>75.3</ele>
        <time>2022-11-09T14:28:36Z</time>
      </trkpt>
      <trkpt lat="49.92544" lon="2.14432">
        <ele>75.4</ele>
        <time>2022-11-09T14:28:37Z</time>
      </trkpt>
      <trkpt lat="49.92544" lon="2.14434">
        <ele>75.4</ele>
        <time>2022-11-09T14:28:38Z</time>
      </trkpt>
      <trkpt lat="49.92544" lon="2.14435">
        <ele>75.5</ele>
        <time>2022-11-09T14:28:39Z</time>
      </trkpt>
      <trkpt lat="49.92545" lon="2.14438">
        <ele>75.6</ele>
        <time>2022-11-09T14:28:41Z</time>
      </trkpt>
      <trkpt lat="49.92545" lon="2.14439">
        <ele>75.7</ele>
        <time>2022-11-09T14:28:42Z</time>
      </trkpt>
      <trkpt lat="49.92545" lon="2.14441">
        <ele>75.8</ele>
        <time>2022-11-09T14:28:43Z</time>
      </trkpt>
      <trkpt lat="49.92545" lon="2.14443">
        <ele>75.8</ele>
        <time>2022-11-09T14:28:44Z</time>
      </trkpt>
      <trkpt lat="49.92545" lon="2.14444">
        <ele>75.9</ele>
        <time>2022-11-09T14:28:46Z</time>
      </trkpt>
      <trkpt lat="49.92545" lon="2.14446">
        <ele>76</ele>
        <time>2022-11-09T14:28:47Z</time>
      </trkpt>
      <trkpt lat="49.92545" lon="2.14447">
        <ele>76</ele>
        <time>2022-11-09T14:28:48Z</time>
      </trkpt>
      <trkpt lat="49.92545" lon="2.14448">
        <ele>76.1</ele>
        <time>2022-11-09T14:28:49Z</time>
      </trkpt>
      <trkpt lat="49.92545" lon="2.1445">
        <ele>76.2</ele>
        <time>2022-11-09T14:28:50Z</time>
      </trkpt>
      <trkpt lat="49.92546" lon="2.14453">
        <ele>76.3</ele>
        <time>2022-11-09T14:28:51Z</time>
      </trkpt>
      <trkpt lat="49.92546" lon="2.14455">
        <ele>76.4</ele>
        <time>2022-11-09T14:28:52Z</time>
      </trkpt>
      <trkpt lat="49.92546" lon="2.14456">
        <ele>76.5</ele>
        <time>2022-11-09T14:28:54Z</time>
      </trkpt>
      <trkpt lat="49.92546" lon="2.14458">
        <ele>76.6</ele>
        <time>2022-11-09T14:28:55Z</time>
      </trkpt>
      <trkpt lat="49.92546" lon="2.1446">
        <ele>76.6</ele>
        <time>2022-11-09T14:28:56Z</time>
      </trkpt>
      <trkpt lat="49.92547" lon="2.14461">
        <ele>76.7</ele>
        <time>2022-11-09T14:28:57Z</time>
      </trkpt>
      <trkpt lat="49.92546" lon="2.14465">
        <ele>76.9</ele>
        <time>2022-11-09T14:28:58Z</time>
      </trkpt>
      <trkpt lat="49.92546" lon="2.14466">
        <ele>76.9</ele>
        <time>2022-11-09T14:29:00Z</time>
      </trkpt>
      <trkpt lat="49.92546" lon="2.14467">
        <ele>77</ele>
        <time>2022-11-09T14:29:01Z</time>
      </trkpt>
      <trkpt lat="49.92547" lon="2.14469">
        <ele>77.1</ele>
        <time>2022-11-09T14:29:02Z</time>
      </trkpt>
      <trkpt lat="49.92547" lon="2.14471">
        <ele>77.2</ele>
        <time>2022-11-09T14:29:03Z</time>
      </trkpt>
      <trkpt lat="49.92547" lon="2.14472">
        <ele>77.3</ele>
        <time>2022-11-09T14:29:04Z</time>
      </trkpt>
      <trkpt lat="49.92548" lon="2.14474">
        <ele>77.4</ele>
        <time>2022-11-09T14:29:06Z</time>
      </trkpt>
      <trkpt lat="49.92548" lon="2.14475">
        <ele>77.5</ele>
        <time>2022-11-09T14:29:07Z</time>
      </trkpt>
      <trkpt lat="49.92548" lon="2.14477">
        <ele>77.5</ele>
        <time>2022-11-09T14:29:08Z</time>
      </trkpt>
      <trkpt lat="49.92549" lon="2.14478">
        <ele>77.6</ele>
        <time>2022-11-09T14:29:09Z</time>
      </trkpt>
      <trkpt lat="49.92549" lon="2.1448">
        <ele>77.7</ele>
        <time>2022-11-09T14:29:11Z</time>
      </trkpt>
      <trkpt lat="49.9255" lon="2.14481">
        <ele>77.8</ele>
        <time>2022-11-09T14:29:12Z</time>
      </trkpt>
      <trkpt lat="49.9255" lon="2.14482">
        <ele>77.9</ele>
        <time>2022-11-09T14:29:13Z</time>
      </trkpt>
      <trkpt lat="49.9255" lon="2.14483">
        <ele>77.9</ele>
        <time>2022-11-09T14:29:14Z</time>
      </trkpt>
      <trkpt lat="49.9255" lon="2.14485">
        <ele>78</ele>
        <time>2022-11-09T14:29:15Z</time>
      </trkpt>
      <trkpt lat="49.92551" lon="2.14489">
        <ele>78.2</ele>
        <time>2022-11-09T14:29:16Z</time>
      </trkpt>
      <trkpt lat="49.92551" lon="2.1449">
        <ele>78.3</ele>
        <time>2022-11-09T14:29:17Z</time>
      </trkpt>
      <trkpt lat="49.92551" lon="2.14491">
        <ele>78.4</ele>
        <time>2022-11-09T14:29:19Z</time>
      </trkpt>
      <trkpt lat="49.92551" lon="2.14493">
        <ele>78.5</ele>
        <time>2022-11-09T14:29:20Z</time>
      </trkpt>
      <trkpt lat="49.92551" lon="2.14494">
        <ele>78.5</ele>
        <time>2022-11-09T14:29:21Z</time>
      </trkpt>
      <trkpt lat="49.92551" lon="2.14496">
        <ele>78.6</ele>
        <time>2022-11-09T14:29:22Z</time>
      </trkpt>
      <trkpt lat="49.92551" lon="2.14499">
        <ele>78.8</ele>
        <time>2022-11-09T14:29:24Z</time>
      </trkpt>
      <trkpt lat="49.92551" lon="2.145">
        <ele>78.9</ele>
        <time>2022-11-09T14:29:25Z</time>
      </trkpt>
      <trkpt lat="49.92551" lon="2.14501">
        <ele>78.9</ele>
        <time>2022-11-09T14:29:26Z</time>
      </trkpt>
      <trkpt lat="49.92551" lon="2.14503">
        <ele>79</ele>
        <time>2022-11-09T14:29:28Z</time>
      </trkpt>
      <trkpt lat="49.92551" lon="2.14504">
        <ele>79.1</ele>
        <time>2022-11-09T14:29:29Z</time>
      </trkpt>
      <trkpt lat="49.9255" lon="2.14505">
        <ele>79.1</ele>
        <time>2022-11-09T14:29:30Z</time>
      </trkpt>
      <trkpt lat="49.9255" lon="2.14506">
        <ele>79.2</ele>
        <time>2022-11-09T14:29:31Z</time>
      </trkpt>
      <trkpt lat="49.9255" lon="2.14507">
        <ele>79.3</ele>
        <time>2022-11-09T14:29:32Z</time>
      </trkpt>
      <trkpt lat="49.9255" lon="2.14509">
        <ele>79.4</ele>
        <time>2022-11-09T14:29:33Z</time>
      </trkpt>
      <trkpt lat="49.92551" lon="2.14511">
        <ele>79.4</ele>
        <time>2022-11-09T14:29:34Z</time>
      </trkpt>
      <trkpt lat="49.92551" lon="2.14513">
        <ele>79.5</ele>
        <time>2022-11-09T14:29:35Z</time>
      </trkpt>
      <trkpt lat="49.92551" lon="2.14514">
        <ele>79.6</ele>
        <time>2022-11-09T14:29:37Z</time>
      </trkpt>
      <trkpt lat="49.92552" lon="2.14515">
        <ele>79.7</ele>
        <time>2022-11-09T14:29:38Z</time>
      </trkpt>
      <trkpt lat="49.92552" lon="2.14517">
        <ele>79.8</ele>
        <time>2022-11-09T14:29:39Z</time>
      </trkpt>
      <trkpt lat="49.92552" lon="2.14518">
        <ele>79.8</ele>
        <time>2022-11-09T14:29:40Z</time>
      </trkpt>
      <trkpt lat="49.92553" lon="2.14519">
        <ele>79.9</ele>
        <time>2022-11-09T14:29:41Z</time>
      </trkpt>
      <trkpt lat="49.92554" lon="2.1452">
        <ele>80</ele>
        <time>2022-11-09T14:29:42Z</time>
      </trkpt>
      <trkpt lat="49.92555" lon="2.14521">
        <ele>80.1</ele>
        <time>2022-11-09T14:29:43Z</time>
      </trkpt>
      <trkpt lat="49.92555" lon="2.14523">
        <ele>80.2</ele>
        <time>2022-11-09T14:29:44Z</time>
      </trkpt>
      <trkpt lat="49.92557" lon="2.14525">
        <ele>80.4</ele>
        <time>2022-11-09T14:29:45Z</time>
      </trkpt>
      <trkpt lat="49.92558" lon="2.14526">
        <ele>80.4</ele>
        <time>2022-11-09T14:29:47Z</time>
      </trkpt>
      <trkpt lat="49.92558" lon="2.14527">
        <ele>80.5</ele>
        <time>2022-11-09T14:29:48Z</time>
      </trkpt>
      <trkpt lat="49.92559" lon="2.14528">
        <ele>80.6</ele>
        <time>2022-11-09T14:29:49Z</time>
      </trkpt>
      <trkpt lat="49.9256" lon="2.1453">
        <ele>80.7</ele>
        <time>2022-11-09T14:29:50Z</time>
      </trkpt>
      <trkpt lat="49.92561" lon="2.14531">
        <ele>80.8</ele>
        <time>2022-11-09T14:29:51Z</time>
      </trkpt>
      <trkpt lat="49.92562" lon="2.14533">
        <ele>80.9</ele>
        <time>2022-11-09T14:29:52Z</time>
      </trkpt>
      <trkpt lat="49.92563" lon="2.14534">
        <ele>81</ele>
        <time>2022-11-09T14:29:53Z</time>
      </trkpt>
      <trkpt lat="49.92563" lon="2.14535">
        <ele>81</ele>
        <time>2022-11-09T14:29:54Z</time>
      </trkpt>
      <trkpt lat="49.92564" lon="2.14537">
        <ele>81.1</ele>
        <time>2022-11-09T14:29:55Z</time>
      </trkpt>
      <trkpt lat="49.92564" lon="2.14539">
        <ele>81.2</ele>
        <time>2022-11-09T14:29:56Z</time>
      </trkpt>
      <trkpt lat="49.92565" lon="2.14541">
        <ele>81.3</ele>
        <time>2022-11-09T14:29:57Z</time>
      </trkpt>
      <trkpt lat="49.92565" lon="2.14543">
        <ele>81.4</ele>
        <time>2022-11-09T14:29:58Z</time>
      </trkpt>
      <trkpt lat="49.92565" lon="2.14545">
        <ele>81.5</ele>
        <time>2022-11-09T14:30:00Z</time>
      </trkpt>
      <trkpt lat="49.92565" lon="2.14547">
        <ele>81.6</ele>
        <time>2022-11-09T14:30:01Z</time>
      </trkpt>
      <trkpt lat="49.92566" lon="2.14549">
        <ele>81.7</ele>
        <time>2022-11-09T14:30:02Z</time>
      </trkpt>
      <trkpt lat="49.92566" lon="2.14551">
        <ele>81.8</ele>
        <time>2022-11-09T14:30:03Z</time>
      </trkpt>
      <trkpt lat="49.92566" lon="2.14555">
        <ele>81.9</ele>
        <time>2022-11-09T14:30:04Z</time>
      </trkpt>
      <trkpt lat="49.92567" lon="2.14556">
        <ele>82</ele>
        <time>2022-11-09T14:30:06Z</time>
      </trkpt>
      <trkpt lat="49.92567" lon="2.14557">
        <ele>82</ele>
        <time>2022-11-09T14:30:07Z</time>
      </trkpt>
      <trkpt lat="49.92567" lon="2.1456">
        <ele>82.1</ele>
        <time>2022-11-09T14:30:08Z</time>
      </trkpt>
      <trkpt lat="49.92567" lon="2.14561">
        <ele>82.2</ele>
        <time>2022-11-09T14:30:09Z</time>
      </trkpt>
      <trkpt lat="49.92567" lon="2.14563">
        <ele>82.2</ele>
        <time>2022-11-09T14:30:10Z</time>
      </trkpt>
      <trkpt lat="49.92567" lon="2.14565">
        <ele>82.3</ele>
        <time>2022-11-09T14:30:11Z</time>
      </trkpt>
      <trkpt lat="49.92567" lon="2.14567">
        <ele>82.4</ele>
        <time>2022-11-09T14:30:13Z</time>
      </trkpt>
      <trkpt lat="49.92567" lon="2.14568">
        <ele>82.4</ele>
        <time>2022-11-09T14:30:14Z</time>
      </trkpt>
      <trkpt lat="49.92567" lon="2.1457">
        <ele>82.5</ele>
        <time>2022-11-09T14:30:15Z</time>
      </trkpt>
      <trkpt lat="49.92567" lon="2.14572">
        <ele>82.5</ele>
        <time>2022-11-09T14:30:16Z</time>
      </trkpt>
      <trkpt lat="49.92567" lon="2.14574">
        <ele>82.6</ele>
        <time>2022-11-09T14:30:17Z</time>
      </trkpt>
      <trkpt lat="49.92567" lon="2.14575">
        <ele>82.7</ele>
        <time>2022-11-09T14:30:19Z</time>
      </trkpt>
      <trkpt lat="49.92567" lon="2.14578">
        <ele>82.7</ele>
        <time>2022-11-09T14:30:20Z</time>
      </trkpt>
      <trkpt lat="49.92567" lon="2.14579">
        <ele>82.8</ele>
        <time>2022-11-09T14:30:21Z</time>
      </trkpt>
      <trkpt lat="49.92567" lon="2.14582">
        <ele>82.9</ele>
        <time>2022-11-09T14:30:22Z</time>
      </trkpt>
      <trkpt lat="49.92567" lon="2.14584">
        <ele>82.9</ele>
        <time>2022-11-09T14:30:24Z</time>
      </trkpt>
      <trkpt lat="49.92567" lon="2.14585">
        <ele>83</ele>
        <time>2022-11-09T14:30:25Z</time>
      </trkpt>
      <trkpt lat="49.92567" lon="2.14587">
        <ele>83</ele>
        <time>2022-11-09T14:30:26Z</time>
      </trkpt>
      <trkpt lat="49.92567" lon="2.14589">
        <ele>83.1</ele>
        <time>2022-11-09T14:30:27Z</time>
      </trkpt>
      <trkpt lat="49.92567" lon="2.14591">
        <ele>83.1</ele>
        <time>2022-11-09T14:30:29Z</time>
      </trkpt>
      <trkpt lat="49.92566" lon="2.14592">
        <ele>83.1</ele>
        <time>2022-11-09T14:30:30Z</time>
      </trkpt>
      <trkpt lat="49.92566" lon="2.14594">
        <ele>83.2</ele>
        <time>2022-11-09T14:30:31Z</time>
      </trkpt>
      <trkpt lat="49.92566" lon="2.14595">
        <ele>83.2</ele>
        <time>2022-11-09T14:30:32Z</time>
      </trkpt>
      <trkpt lat="49.92566" lon="2.14597">
        <ele>83.3</ele>
        <time>2022-11-09T14:30:33Z</time>
      </trkpt>
      <trkpt lat="49.92565" lon="2.14598">
        <ele>83.3</ele>
        <time>2022-11-09T14:30:34Z</time>
      </trkpt>
      <trkpt lat="49.92565" lon="2.146">
        <ele>83.4</ele>
        <time>2022-11-09T14:30:35Z</time>
      </trkpt>
      <trkpt lat="49.92565" lon="2.14601">
        <ele>83.4</ele>
        <time>2022-11-09T14:30:37Z</time>
      </trkpt>
      <trkpt lat="49.92565" lon="2.14603">
        <ele>83.4</ele>
        <time>2022-11-09T14:30:38Z</time>
      </trkpt>
      <trkpt lat="49.92565" lon="2.14604">
        <ele>83.4</ele>
        <time>2022-11-09T14:30:39Z</time>
      </trkpt>
      <trkpt lat="49.92565" lon="2.14605">
        <ele>83.5</ele>
        <time>2022-11-09T14:30:40Z</time>
      </trkpt>
      <trkpt lat="49.92565" lon="2.14607">
        <ele>83.5</ele>
        <time>2022-11-09T14:30:41Z</time>
      </trkpt>
      <trkpt lat="49.92565" lon="2.14608">
        <ele>83.5</ele>
        <time>2022-11-09T14:30:42Z</time>
      </trkpt>
      <trkpt lat="49.92565" lon="2.1461">
        <ele>83.6</ele>
        <time>2022-11-09T14:30:43Z</time>
      </trkpt>
      <trkpt lat="49.92564" lon="2.14613">
        <ele>83.6</ele>
        <time>2022-11-09T14:30:44Z</time>
      </trkpt>
      <trkpt lat="49.92564" lon="2.14614">
        <ele>83.7</ele>
        <time>2022-11-09T14:30:45Z</time>
      </trkpt>
      <trkpt lat="49.92564" lon="2.14616">
        <ele>83.7</ele>
        <time>2022-11-09T14:30:46Z</time>
      </trkpt>
      <trkpt lat="49.92563" lon="2.14617">
        <ele>83.7</ele>
        <time>2022-11-09T14:30:47Z</time>
      </trkpt>
      <trkpt lat="49.92563" lon="2.14619">
        <ele>83.8</ele>
        <time>2022-11-09T14:30:48Z</time>
      </trkpt>
      <trkpt lat="49.92563" lon="2.14621">
        <ele>83.8</ele>
        <time>2022-11-09T14:30:50Z</time>
      </trkpt>
      <trkpt lat="49.92563" lon="2.14622">
        <ele>83.8</ele>
        <time>2022-11-09T14:30:51Z</time>
      </trkpt>
      <trkpt lat="49.92563" lon="2.14624">
        <ele>83.9</ele>
        <time>2022-11-09T14:30:52Z</time>
      </trkpt>
      <trkpt lat="49.92563" lon="2.14626">
        <ele>83.9</ele>
        <time>2022-11-09T14:30:53Z</time>
      </trkpt>
      <trkpt lat="49.92562" lon="2.14627">
        <ele>83.9</ele>
        <time>2022-11-09T14:30:54Z</time>
      </trkpt>
      <trkpt lat="49.92562" lon="2.14629">
        <ele>83.9</ele>
        <time>2022-11-09T14:30:56Z</time>
      </trkpt>
      <trkpt lat="49.92562" lon="2.1463">
        <ele>84</ele>
        <time>2022-11-09T14:30:57Z</time>
      </trkpt>
      <trkpt lat="49.92561" lon="2.14632">
        <ele>84</ele>
        <time>2022-11-09T14:30:58Z</time>
      </trkpt>
      <trkpt lat="49.92561" lon="2.14633">
        <ele>84</ele>
        <time>2022-11-09T14:30:59Z</time>
      </trkpt>
      <trkpt lat="49.92561" lon="2.14635">
        <ele>84</ele>
        <time>2022-11-09T14:31:00Z</time>
      </trkpt>
      <trkpt lat="49.92561" lon="2.14637">
        <ele>84.1</ele>
        <time>2022-11-09T14:31:01Z</time>
      </trkpt>
      <trkpt lat="49.92561" lon="2.14638">
        <ele>84.1</ele>
        <time>2022-11-09T14:31:03Z</time>
      </trkpt>
      <trkpt lat="49.92561" lon="2.1464">
        <ele>84.1</ele>
        <time>2022-11-09T14:31:04Z</time>
      </trkpt>
      <trkpt lat="49.92561" lon="2.14641">
        <ele>84.1</ele>
        <time>2022-11-09T14:31:05Z</time>
      </trkpt>
      <trkpt lat="49.92561" lon="2.14643">
        <ele>84.2</ele>
        <time>2022-11-09T14:31:06Z</time>
      </trkpt>
      <trkpt lat="49.92561" lon="2.14645">
        <ele>84.2</ele>
        <time>2022-11-09T14:31:07Z</time>
      </trkpt>
      <trkpt lat="49.92561" lon="2.14647">
        <ele>84.2</ele>
        <time>2022-11-09T14:31:08Z</time>
      </trkpt>
      <trkpt lat="49.92561" lon="2.14649">
        <ele>84.2</ele>
        <time>2022-11-09T14:31:10Z</time>
      </trkpt>
      <trkpt lat="49.92561" lon="2.1465">
        <ele>84.3</ele>
        <time>2022-11-09T14:31:11Z</time>
      </trkpt>
      <trkpt lat="49.92561" lon="2.14653">
        <ele>84.3</ele>
        <time>2022-11-09T14:31:12Z</time>
      </trkpt>
      <trkpt lat="49.92562" lon="2.14655">
        <ele>84.3</ele>
        <time>2022-11-09T14:31:13Z</time>
      </trkpt>
      <trkpt lat="49.92562" lon="2.14656">
        <ele>84.3</ele>
        <time>2022-11-09T14:31:14Z</time>
      </trkpt>
      <trkpt lat="49.92562" lon="2.14658">
        <ele>84.4</ele>
        <time>2022-11-09T14:31:16Z</time>
      </trkpt>
      <trkpt lat="49.92562" lon="2.14659">
        <ele>84.4</ele>
        <time>2022-11-09T14:31:17Z</time>
      </trkpt>
      <trkpt lat="49.92562" lon="2.14661">
        <ele>84.4</ele>
        <time>2022-11-09T14:31:18Z</time>
      </trkpt>
      <trkpt lat="49.92562" lon="2.14663">
        <ele>84.4</ele>
        <time>2022-11-09T14:31:19Z</time>
      </trkpt>
      <trkpt lat="49.92562" lon="2.14664">
        <ele>84.4</ele>
        <time>2022-11-09T14:31:20Z</time>
      </trkpt>
      <trkpt lat="49.92562" lon="2.14666">
        <ele>84.5</ele>
        <time>2022-11-09T14:31:21Z</time>
      </trkpt>
      <trkpt lat="49.92563" lon="2.1467">
        <ele>84.5</ele>
        <time>2022-11-09T14:31:22Z</time>
      </trkpt>
      <trkpt lat="49.92563" lon="2.14671">
        <ele>84.5</ele>
        <time>2022-11-09T14:31:24Z</time>
      </trkpt>
      <trkpt lat="49.92563" lon="2.14672">
        <ele>84.5</ele>
        <time>2022-11-09T14:31:25Z</time>
      </trkpt>
      <trkpt lat="49.92563" lon="2.14675">
        <ele>84.6</ele>
        <time>2022-11-09T14:31:26Z</time>
      </trkpt>
      <trkpt lat="49.92563" lon="2.14677">
        <ele>84.6</ele>
        <time>2022-11-09T14:31:27Z</time>
      </trkpt>
      <trkpt lat="49.92564" lon="2.14678">
        <ele>84.6</ele>
        <time>2022-11-09T14:31:28Z</time>
      </trkpt>
      <trkpt lat="49.92564" lon="2.14682">
        <ele>84.6</ele>
        <time>2022-11-09T14:31:30Z</time>
      </trkpt>
      <trkpt lat="49.92564" lon="2.14683">
        <ele>84.6</ele>
        <time>2022-11-09T14:31:31Z</time>
      </trkpt>
      <trkpt lat="49.92564" lon="2.14684">
        <ele>84.6</ele>
        <time>2022-11-09T14:31:32Z</time>
      </trkpt>
      <trkpt lat="49.92565" lon="2.14688">
        <ele>84.7</ele>
        <time>2022-11-09T14:31:33Z</time>
      </trkpt>
      <trkpt lat="49.92565" lon="2.14689">
        <ele>84.7</ele>
        <time>2022-11-09T14:31:34Z</time>
      </trkpt>
      <trkpt lat="49.92565" lon="2.1469">
        <ele>84.7</ele>
        <time>2022-11-09T14:31:35Z</time>
      </trkpt>
      <trkpt lat="49.92565" lon="2.14694">
        <ele>84.7</ele>
        <time>2022-11-09T14:31:36Z</time>
      </trkpt>
      <trkpt lat="49.92566" lon="2.14695">
        <ele>84.7</ele>
        <time>2022-11-09T14:31:38Z</time>
      </trkpt>
      <trkpt lat="49.92566" lon="2.14696">
        <ele>84.7</ele>
        <time>2022-11-09T14:31:39Z</time>
      </trkpt>
      <trkpt lat="49.92566" lon="2.14699">
        <ele>84.8</ele>
        <time>2022-11-09T14:31:40Z</time>
      </trkpt>
      <trkpt lat="49.92566" lon="2.147">
        <ele>84.8</ele>
        <time>2022-11-09T14:31:41Z</time>
      </trkpt>
      <trkpt lat="49.92567" lon="2.14702">
        <ele>84.8</ele>
        <time>2022-11-09T14:31:42Z</time>
      </trkpt>
      <trkpt lat="49.92568" lon="2.14704">
        <ele>84.8</ele>
        <time>2022-11-09T14:31:43Z</time>
      </trkpt>
      <trkpt lat="49.92569" lon="2.14705">
        <ele>84.8</ele>
        <time>2022-11-09T14:31:44Z</time>
      </trkpt>
      <trkpt lat="49.9257" lon="2.14707">
        <ele>84.9</ele>
        <time>2022-11-09T14:31:46Z</time>
      </trkpt>
      <trkpt lat="49.92571" lon="2.14709">
        <ele>84.9</ele>
        <time>2022-11-09T14:31:47Z</time>
      </trkpt>
      <trkpt lat="49.92572" lon="2.14711">
        <ele>84.9</ele>
        <time>2022-11-09T14:31:48Z</time>
      </trkpt>
      <trkpt lat="49.92573" lon="2.14713">
        <ele>84.9</ele>
        <time>2022-11-09T14:31:49Z</time>
      </trkpt>
      <trkpt lat="49.92574" lon="2.14716">
        <ele>85</ele>
        <time>2022-11-09T14:31:50Z</time>
      </trkpt>
      <trkpt lat="49.92574" lon="2.14718">
        <ele>85</ele>
        <time>2022-11-09T14:31:52Z</time>
      </trkpt>
      <trkpt lat="49.92574" lon="2.14719">
        <ele>85</ele>
        <time>2022-11-09T14:31:53Z</time>
      </trkpt>
      <trkpt lat="49.92574" lon="2.14721">
        <ele>85</ele>
        <time>2022-11-09T14:31:54Z</time>
      </trkpt>
      <trkpt lat="49.92575" lon="2.14722">
        <ele>85</ele>
        <time>2022-11-09T14:31:55Z</time>
      </trkpt>
      <trkpt lat="49.92575" lon="2.14725">
        <ele>85</ele>
        <time>2022-11-09T14:31:56Z</time>
      </trkpt>
      <trkpt lat="49.92575" lon="2.14727">
        <ele>85</ele>
        <time>2022-11-09T14:31:57Z</time>
      </trkpt>
      <trkpt lat="49.92575" lon="2.14729">
        <ele>85.1</ele>
        <time>2022-11-09T14:31:58Z</time>
      </trkpt>
      <trkpt lat="49.92575" lon="2.14731">
        <ele>85.1</ele>
        <time>2022-11-09T14:32:00Z</time>
      </trkpt>
      <trkpt lat="49.92575" lon="2.14733">
        <ele>85.1</ele>
        <time>2022-11-09T14:32:01Z</time>
      </trkpt>
      <trkpt lat="49.92575" lon="2.14735">
        <ele>85.1</ele>
        <time>2022-11-09T14:32:02Z</time>
      </trkpt>
      <trkpt lat="49.92575" lon="2.14736">
        <ele>85.1</ele>
        <time>2022-11-09T14:32:03Z</time>
      </trkpt>
      <trkpt lat="49.92574" lon="2.14738">
        <ele>85.2</ele>
        <time>2022-11-09T14:32:04Z</time>
      </trkpt>
      <trkpt lat="49.92574" lon="2.1474">
        <ele>85.2</ele>
        <time>2022-11-09T14:32:05Z</time>
      </trkpt>
      <trkpt lat="49.92574" lon="2.14743">
        <ele>85.2</ele>
        <time>2022-11-09T14:32:06Z</time>
      </trkpt>
      <trkpt lat="49.92574" lon="2.14745">
        <ele>85.2</ele>
        <time>2022-11-09T14:32:08Z</time>
      </trkpt>
      <trkpt lat="49.92574" lon="2.14746">
        <ele>85.2</ele>
        <time>2022-11-09T14:32:09Z</time>
      </trkpt>
      <trkpt lat="49.92574" lon="2.14748">
        <ele>85.3</ele>
        <time>2022-11-09T14:32:10Z</time>
      </trkpt>
      <trkpt lat="49.92574" lon="2.1475">
        <ele>85.3</ele>
        <time>2022-11-09T14:32:11Z</time>
      </trkpt>
      <trkpt lat="49.92574" lon="2.14752">
        <ele>85.3</ele>
        <time>2022-11-09T14:32:12Z</time>
      </trkpt>
      <trkpt lat="49.92574" lon="2.14754">
        <ele>85.3</ele>
        <time>2022-11-09T14:32:13Z</time>
      </trkpt>
      <trkpt lat="49.92574" lon="2.14755">
        <ele>85.3</ele>
        <time>2022-11-09T14:32:15Z</time>
      </trkpt>
      <trkpt lat="49.92574" lon="2.14757">
        <ele>85.3</ele>
        <time>2022-11-09T14:32:16Z</time>
      </trkpt>
      <trkpt lat="49.92574" lon="2.14758">
        <ele>85.4</ele>
        <time>2022-11-09T14:32:17Z</time>
      </trkpt>
      <trkpt lat="49.92574" lon="2.14759">
        <ele>85.4</ele>
        <time>2022-11-09T14:32:18Z</time>
      </trkpt>
      <trkpt lat="49.92575" lon="2.1476">
        <ele>85.4</ele>
        <time>2022-11-09T14:32:19Z</time>
      </trkpt>
      <trkpt lat="49.92575" lon="2.14762">
        <ele>85.4</ele>
        <time>2022-11-09T14:32:20Z</time>
      </trkpt>
      <trkpt lat="49.92575" lon="2.14763">
        <ele>85.4</ele>
        <time>2022-11-09T14:32:21Z</time>
      </trkpt>
      <trkpt lat="49.92575" lon="2.14764">
        <ele>85.4</ele>
        <time>2022-11-09T14:32:22Z</time>
      </trkpt>
      <trkpt lat="49.92575" lon="2.14767">
        <ele>85.4</ele>
        <time>2022-11-09T14:32:23Z</time>
      </trkpt>
      <trkpt lat="49.92575" lon="2.14768">
        <ele>85.5</ele>
        <time>2022-11-09T14:32:24Z</time>
      </trkpt>
      <trkpt lat="49.92575" lon="2.14769">
        <ele>85.5</ele>
        <time>2022-11-09T14:32:25Z</time>
      </trkpt>
      <trkpt lat="49.92575" lon="2.1477">
        <ele>85.5</ele>
        <time>2022-11-09T14:32:26Z</time>
      </trkpt>
      <trkpt lat="49.92575" lon="2.14772">
        <ele>85.5</ele>
        <time>2022-11-09T14:32:27Z</time>
      </trkpt>
      <trkpt lat="49.92575" lon="2.14773">
        <ele>85.5</ele>
        <time>2022-11-09T14:32:28Z</time>
      </trkpt>
      <trkpt lat="49.92575" lon="2.14775">
        <ele>85.5</ele>
        <time>2022-11-09T14:32:29Z</time>
      </trkpt>
      <trkpt lat="49.92575" lon="2.14776">
        <ele>85.5</ele>
        <time>2022-11-09T14:32:30Z</time>
      </trkpt>
      <trkpt lat="49.92575" lon="2.14778">
        <ele>85.6</ele>
        <time>2022-11-09T14:32:31Z</time>
      </trkpt>
      <trkpt lat="49.92575" lon="2.14779">
        <ele>85.6</ele>
        <time>2022-11-09T14:32:32Z</time>
      </trkpt>
      <trkpt lat="49.92575" lon="2.14781">
        <ele>85.6</ele>
        <time>2022-11-09T14:32:33Z</time>
      </trkpt>
      <trkpt lat="49.92575" lon="2.14783">
        <ele>85.6</ele>
        <time>2022-11-09T14:32:35Z</time>
      </trkpt>
      <trkpt lat="49.92575" lon="2.14784">
        <ele>85.6</ele>
        <time>2022-11-09T14:32:36Z</time>
      </trkpt>
      <trkpt lat="49.92574" lon="2.14785">
        <ele>85.7</ele>
        <time>2022-11-09T14:32:37Z</time>
      </trkpt>
      <trkpt lat="49.92574" lon="2.14787">
        <ele>85.7</ele>
        <time>2022-11-09T14:32:38Z</time>
      </trkpt>
      <trkpt lat="49.92574" lon="2.14788">
        <ele>85.7</ele>
        <time>2022-11-09T14:32:40Z</time>
      </trkpt>
      <trkpt lat="49.92574" lon="2.1479">
        <ele>85.7</ele>
        <time>2022-11-09T14:32:41Z</time>
      </trkpt>
      <trkpt lat="49.92574" lon="2.14791">
        <ele>85.7</ele>
        <time>2022-11-09T14:32:42Z</time>
      </trkpt>
      <trkpt lat="49.92573" lon="2.14792">
        <ele>85.7</ele>
        <time>2022-11-09T14:32:43Z</time>
      </trkpt>
      <trkpt lat="49.92573" lon="2.14793">
        <ele>85.8</ele>
        <time>2022-11-09T14:32:44Z</time>
      </trkpt>
      <trkpt lat="49.92572" lon="2.14796">
        <ele>85.8</ele>
        <time>2022-11-09T14:32:45Z</time>
      </trkpt>
      <trkpt lat="49.92572" lon="2.14797">
        <ele>85.8</ele>
        <time>2022-11-09T14:32:46Z</time>
      </trkpt>
      <trkpt lat="49.92572" lon="2.14798">
        <ele>85.8</ele>
        <time>2022-11-09T14:32:47Z</time>
      </trkpt>
      <trkpt lat="49.92571" lon="2.148">
        <ele>85.8</ele>
        <time>2022-11-09T14:32:48Z</time>
      </trkpt>
      <trkpt lat="49.92571" lon="2.14802">
        <ele>85.9</ele>
        <time>2022-11-09T14:32:50Z</time>
      </trkpt>
      <trkpt lat="49.92571" lon="2.14803">
        <ele>85.9</ele>
        <time>2022-11-09T14:32:51Z</time>
      </trkpt>
      <trkpt lat="49.92571" lon="2.14806">
        <ele>85.9</ele>
        <time>2022-11-09T14:32:52Z</time>
      </trkpt>
      <trkpt lat="49.92572" lon="2.14808">
        <ele>86</ele>
        <time>2022-11-09T14:32:53Z</time>
      </trkpt>
      <trkpt lat="49.92572" lon="2.14809">
        <ele>86</ele>
        <time>2022-11-09T14:32:54Z</time>
      </trkpt>
      <trkpt lat="49.92572" lon="2.14811">
        <ele>86</ele>
        <time>2022-11-09T14:32:56Z</time>
      </trkpt>
      <trkpt lat="49.92572" lon="2.14813">
        <ele>86</ele>
        <time>2022-11-09T14:32:57Z</time>
      </trkpt>
      <trkpt lat="49.92572" lon="2.14814">
        <ele>86.1</ele>
        <time>2022-11-09T14:32:58Z</time>
      </trkpt>
      <trkpt lat="49.92572" lon="2.14816">
        <ele>86.1</ele>
        <time>2022-11-09T14:32:59Z</time>
      </trkpt>
      <trkpt lat="49.92572" lon="2.14818">
        <ele>86.1</ele>
        <time>2022-11-09T14:33:00Z</time>
      </trkpt>
      <trkpt lat="49.92572" lon="2.1482">
        <ele>86.1</ele>
        <time>2022-11-09T14:33:01Z</time>
      </trkpt>
      <trkpt lat="49.92572" lon="2.14822">
        <ele>86.2</ele>
        <time>2022-11-09T14:33:03Z</time>
      </trkpt>
      <trkpt lat="49.92572" lon="2.14823">
        <ele>86.2</ele>
        <time>2022-11-09T14:33:04Z</time>
      </trkpt>
      <trkpt lat="49.92573" lon="2.14825">
        <ele>86.2</ele>
        <time>2022-11-09T14:33:05Z</time>
      </trkpt>
      <trkpt lat="49.92573" lon="2.14826">
        <ele>86.3</ele>
        <time>2022-11-09T14:33:06Z</time>
      </trkpt>
      <trkpt lat="49.92574" lon="2.14828">
        <ele>86.3</ele>
        <time>2022-11-09T14:33:07Z</time>
      </trkpt>
      <trkpt lat="49.92575" lon="2.14829">
        <ele>86.3</ele>
        <time>2022-11-09T14:33:08Z</time>
      </trkpt>
      <trkpt lat="49.92575" lon="2.14831">
        <ele>86.4</ele>
        <time>2022-11-09T14:33:09Z</time>
      </trkpt>
      <trkpt lat="49.92576" lon="2.14833">
        <ele>86.4</ele>
        <time>2022-11-09T14:33:10Z</time>
      </trkpt>
      <trkpt lat="49.92577" lon="2.14834">
        <ele>86.5</ele>
        <time>2022-11-09T14:33:12Z</time>
      </trkpt>
      <trkpt lat="49.92577" lon="2.14836">
        <ele>86.5</ele>
        <time>2022-11-09T14:33:13Z</time>
      </trkpt>
      <trkpt lat="49.92578" lon="2.14838">
        <ele>86.5</ele>
        <time>2022-11-09T14:33:14Z</time>
      </trkpt>
      <trkpt lat="49.92578" lon="2.14839">
        <ele>86.6</ele>
        <time>2022-11-09T14:33:15Z</time>
      </trkpt>
      <trkpt lat="49.92579" lon="2.14842">
        <ele>86.6</ele>
        <time>2022-11-09T14:33:16Z</time>
      </trkpt>
      <trkpt lat="49.92579" lon="2.14844">
        <ele>86.7</ele>
        <time>2022-11-09T14:33:17Z</time>
      </trkpt>
      <trkpt lat="49.92579" lon="2.14845">
        <ele>86.7</ele>
        <time>2022-11-09T14:33:18Z</time>
      </trkpt>
      <trkpt lat="49.92579" lon="2.14848">
        <ele>86.8</ele>
        <time>2022-11-09T14:33:20Z</time>
      </trkpt>
      <trkpt lat="49.92579" lon="2.14849">
        <ele>86.8</ele>
        <time>2022-11-09T14:33:21Z</time>
      </trkpt>
      <trkpt lat="49.92579" lon="2.14851">
        <ele>86.8</ele>
        <time>2022-11-09T14:33:22Z</time>
      </trkpt>
      <trkpt lat="49.92579" lon="2.14852">
        <ele>86.9</ele>
        <time>2022-11-09T14:33:23Z</time>
      </trkpt>
      <trkpt lat="49.9258" lon="2.14854">
        <ele>86.9</ele>
        <time>2022-11-09T14:33:24Z</time>
      </trkpt>
      <trkpt lat="49.9258" lon="2.14856">
        <ele>87</ele>
        <time>2022-11-09T14:33:26Z</time>
      </trkpt>
      <trkpt lat="49.9258" lon="2.14857">
        <ele>87</ele>
        <time>2022-11-09T14:33:27Z</time>
      </trkpt>
      <trkpt lat="49.9258" lon="2.14859">
        <ele>87.1</ele>
        <time>2022-11-09T14:33:28Z</time>
      </trkpt>
      <trkpt lat="49.92581" lon="2.14861">
        <ele>87.1</ele>
        <time>2022-11-09T14:33:29Z</time>
      </trkpt>
      <trkpt lat="49.92581" lon="2.14863">
        <ele>87.1</ele>
        <time>2022-11-09T14:33:31Z</time>
      </trkpt>
      <trkpt lat="49.92581" lon="2.14864">
        <ele>87.2</ele>
        <time>2022-11-09T14:33:32Z</time>
      </trkpt>
      <trkpt lat="49.92581" lon="2.14866">
        <ele>87.2</ele>
        <time>2022-11-09T14:33:33Z</time>
      </trkpt>
      <trkpt lat="49.92581" lon="2.14867">
        <ele>87.3</ele>
        <time>2022-11-09T14:33:34Z</time>
      </trkpt>
      <trkpt lat="49.92581" lon="2.14868">
        <ele>87.3</ele>
        <time>2022-11-09T14:33:35Z</time>
      </trkpt>
      <trkpt lat="49.92582" lon="2.1487">
        <ele>87.3</ele>
        <time>2022-11-09T14:33:36Z</time>
      </trkpt>
      <trkpt lat="49.92582" lon="2.14871">
        <ele>87.4</ele>
        <time>2022-11-09T14:33:37Z</time>
      </trkpt>
      <trkpt lat="49.92582" lon="2.14873">
        <ele>87.4</ele>
        <time>2022-11-09T14:33:38Z</time>
      </trkpt>
      <trkpt lat="49.92582" lon="2.14875">
        <ele>87.5</ele>
        <time>2022-11-09T14:33:39Z</time>
      </trkpt>
      <trkpt lat="49.92583" lon="2.14876">
        <ele>87.5</ele>
        <time>2022-11-09T14:33:41Z</time>
      </trkpt>
      <trkpt lat="49.92583" lon="2.14878">
        <ele>87.6</ele>
        <time>2022-11-09T14:33:42Z</time>
      </trkpt>
      <trkpt lat="49.92583" lon="2.14879">
        <ele>87.6</ele>
        <time>2022-11-09T14:33:43Z</time>
      </trkpt>
      <trkpt lat="49.92583" lon="2.1488">
        <ele>87.7</ele>
        <time>2022-11-09T14:33:44Z</time>
      </trkpt>
      <trkpt lat="49.92584" lon="2.14882">
        <ele>87.7</ele>
        <time>2022-11-09T14:33:45Z</time>
      </trkpt>
      <trkpt lat="49.92584" lon="2.14883">
        <ele>87.7</ele>
        <time>2022-11-09T14:33:46Z</time>
      </trkpt>
      <trkpt lat="49.92585" lon="2.14885">
        <ele>87.8</ele>
        <time>2022-11-09T14:33:47Z</time>
      </trkpt>
      <trkpt lat="49.92585" lon="2.14886">
        <ele>87.8</ele>
        <time>2022-11-09T14:33:48Z</time>
      </trkpt>
      <trkpt lat="49.92585" lon="2.14888">
        <ele>87.9</ele>
        <time>2022-11-09T14:33:49Z</time>
      </trkpt>
      <trkpt lat="49.92586" lon="2.14889">
        <ele>87.9</ele>
        <time>2022-11-09T14:33:51Z</time>
      </trkpt>
      <trkpt lat="49.92586" lon="2.14891">
        <ele>88</ele>
        <time>2022-11-09T14:33:52Z</time>
      </trkpt>
      <trkpt lat="49.92586" lon="2.14893">
        <ele>88.1</ele>
        <time>2022-11-09T14:33:53Z</time>
      </trkpt>
      <trkpt lat="49.92586" lon="2.14895">
        <ele>88.1</ele>
        <time>2022-11-09T14:33:54Z</time>
      </trkpt>
      <trkpt lat="49.92586" lon="2.14897">
        <ele>88.2</ele>
        <time>2022-11-09T14:33:56Z</time>
      </trkpt>
      <trkpt lat="49.92587" lon="2.14898">
        <ele>88.2</ele>
        <time>2022-11-09T14:33:57Z</time>
      </trkpt>
      <trkpt lat="49.92587" lon="2.14901">
        <ele>88.3</ele>
        <time>2022-11-09T14:33:58Z</time>
      </trkpt>
      <trkpt lat="49.92588" lon="2.14902">
        <ele>88.3</ele>
        <time>2022-11-09T14:33:59Z</time>
      </trkpt>
      <trkpt lat="49.92588" lon="2.14903">
        <ele>88.4</ele>
        <time>2022-11-09T14:34:00Z</time>
      </trkpt>
      <trkpt lat="49.92588" lon="2.14904">
        <ele>88.4</ele>
        <time>2022-11-09T14:34:01Z</time>
      </trkpt>
      <trkpt lat="49.92589" lon="2.14906">
        <ele>88.4</ele>
        <time>2022-11-09T14:34:02Z</time>
      </trkpt>
      <trkpt lat="49.92589" lon="2.14907">
        <ele>88.5</ele>
        <time>2022-11-09T14:34:04Z</time>
      </trkpt>
      <trkpt lat="49.9259" lon="2.14909">
        <ele>88.5</ele>
        <time>2022-11-09T14:34:05Z</time>
      </trkpt>
      <trkpt lat="49.9259" lon="2.1491">
        <ele>88.6</ele>
        <time>2022-11-09T14:34:06Z</time>
      </trkpt>
      <trkpt lat="49.9259" lon="2.14911">
        <ele>88.6</ele>
        <time>2022-11-09T14:34:07Z</time>
      </trkpt>
      <trkpt lat="49.9259" lon="2.14913">
        <ele>88.6</ele>
        <time>2022-11-09T14:34:08Z</time>
      </trkpt>
      <trkpt lat="49.9259" lon="2.14915">
        <ele>88.7</ele>
        <time>2022-11-09T14:34:09Z</time>
      </trkpt>
      <trkpt lat="49.9259" lon="2.14916">
        <ele>88.7</ele>
        <time>2022-11-09T14:34:10Z</time>
      </trkpt>
      <trkpt lat="49.9259" lon="2.14918">
        <ele>88.8</ele>
        <time>2022-11-09T14:34:12Z</time>
      </trkpt>
      <trkpt lat="49.9259" lon="2.14919">
        <ele>88.8</ele>
        <time>2022-11-09T14:34:13Z</time>
      </trkpt>
      <trkpt lat="49.9259" lon="2.1492">
        <ele>88.8</ele>
        <time>2022-11-09T14:34:14Z</time>
      </trkpt>
      <trkpt lat="49.9259" lon="2.1492">
        <ele>88.8</ele>
        <time>2022-11-09T14:34:15Z</time>
      </trkpt>
      <trkpt lat="49.92589" lon="2.14921">
        <ele>88.9</ele>
        <time>2022-11-09T14:34:16Z</time>
      </trkpt>
      <trkpt lat="49.92589" lon="2.14922">
        <ele>88.9</ele>
        <time>2022-11-09T14:34:17Z</time>
      </trkpt>
      <trkpt lat="49.92589" lon="2.14923">
        <ele>88.9</ele>
        <time>2022-11-09T14:34:18Z</time>
      </trkpt>
      <trkpt lat="49.92589" lon="2.14924">
        <ele>88.9</ele>
        <time>2022-11-09T14:34:20Z</time>
      </trkpt>
      <trkpt lat="49.92589" lon="2.14925">
        <ele>89</ele>
        <time>2022-11-09T14:34:21Z</time>
      </trkpt>
      <trkpt lat="49.92589" lon="2.14926">
        <ele>89</ele>
        <time>2022-11-09T14:34:22Z</time>
      </trkpt>
      <trkpt lat="49.92589" lon="2.14927">
        <ele>89</ele>
        <time>2022-11-09T14:34:23Z</time>
      </trkpt>
      <trkpt lat="49.92589" lon="2.14928">
        <ele>89.1</ele>
        <time>2022-11-09T14:34:24Z</time>
      </trkpt>
      <trkpt lat="49.9259" lon="2.1493">
        <ele>89.1</ele>
        <time>2022-11-09T14:34:25Z</time>
      </trkpt>
      <trkpt lat="49.9259" lon="2.14931">
        <ele>89.1</ele>
        <time>2022-11-09T14:34:26Z</time>
      </trkpt>
      <trkpt lat="49.9259" lon="2.14932">
        <ele>89.2</ele>
        <time>2022-11-09T14:34:28Z</time>
      </trkpt>
      <trkpt lat="49.9259" lon="2.14933">
        <ele>89.2</ele>
        <time>2022-11-09T14:34:29Z</time>
      </trkpt>
      <trkpt lat="49.9259" lon="2.14935">
        <ele>89.2</ele>
        <time>2022-11-09T14:34:30Z</time>
      </trkpt>
      <trkpt lat="49.9259" lon="2.14936">
        <ele>89.3</ele>
        <time>2022-11-09T14:34:31Z</time>
      </trkpt>
      <trkpt lat="49.9259" lon="2.14936">
        <ele>89.3</ele>
        <time>2022-11-09T14:34:32Z</time>
      </trkpt>
      <trkpt lat="49.9259" lon="2.14937">
        <ele>89.3</ele>
        <time>2022-11-09T14:34:33Z</time>
      </trkpt>
      <trkpt lat="49.92589" lon="2.14938">
        <ele>89.3</ele>
        <time>2022-11-09T14:34:34Z</time>
      </trkpt>
      <trkpt lat="49.92589" lon="2.14939">
        <ele>89.3</ele>
        <time>2022-11-09T14:34:35Z</time>
      </trkpt>
      <trkpt lat="49.92589" lon="2.14941">
        <ele>89.4</ele>
        <time>2022-11-09T14:34:36Z</time>
      </trkpt>
      <trkpt lat="49.92588" lon="2.14943">
        <ele>89.4</ele>
        <time>2022-11-09T14:34:38Z</time>
      </trkpt>
      <trkpt lat="49.92588" lon="2.14944">
        <ele>89.5</ele>
        <time>2022-11-09T14:34:39Z</time>
      </trkpt>
      <trkpt lat="49.92587" lon="2.14945">
        <ele>89.5</ele>
        <time>2022-11-09T14:34:40Z</time>
      </trkpt>
      <trkpt lat="49.92587" lon="2.14947">
        <ele>89.5</ele>
        <time>2022-11-09T14:34:42Z</time>
      </trkpt>
      <trkpt lat="49.92586" lon="2.14948">
        <ele>89.6</ele>
        <time>2022-11-09T14:34:43Z</time>
      </trkpt>
      <trkpt lat="49.92586" lon="2.14948">
        <ele>89.6</ele>
        <time>2022-11-09T14:34:44Z</time>
      </trkpt>
      <trkpt lat="49.92585" lon="2.14948">
        <ele>89.6</ele>
        <time>2022-11-09T14:34:45Z</time>
      </trkpt>
      <trkpt lat="49.92585" lon="2.14948">
        <ele>89.6</ele>
        <time>2022-11-09T14:34:46Z</time>
      </trkpt>
      <trkpt lat="49.92585" lon="2.14948">
        <ele>89.6</ele>
        <time>2022-11-09T14:34:47Z</time>
      </trkpt>
      <trkpt lat="49.92585" lon="2.14948">
        <ele>89.6</ele>
        <time>2022-11-09T14:34:48Z</time>
      </trkpt>
      <trkpt lat="49.92585" lon="2.14948">
        <ele>89.6</ele>
        <time>2022-11-09T14:34:49Z</time>
      </trkpt>
      <trkpt lat="49.92585" lon="2.14948">
        <ele>89.6</ele>
        <time>2022-11-09T14:34:50Z</time>
      </trkpt>
      <trkpt lat="49.92585" lon="2.14949">
        <ele>89.6</ele>
        <time>2022-11-09T14:34:51Z</time>
      </trkpt>
      <trkpt lat="49.92585" lon="2.14949">
        <ele>89.6</ele>
        <time>2022-11-09T14:34:52Z</time>
      </trkpt>
      <trkpt lat="49.92585" lon="2.14949">
        <ele>89.6</ele>
        <time>2022-11-09T14:34:53Z</time>
      </trkpt>
      <trkpt lat="49.92585" lon="2.14949">
        <ele>89.6</ele>
        <time>2022-11-09T14:34:54Z</time>
      </trkpt>
      <trkpt lat="49.92585" lon="2.14949">
        <ele>89.6</ele>
        <time>2022-11-09T14:34:55Z</time>
      </trkpt>
      <trkpt lat="49.92585" lon="2.14949">
        <ele>89.6</ele>
        <time>2022-11-09T14:34:56Z</time>
      </trkpt>
      <trkpt lat="49.92585" lon="2.14949">
        <ele>89.6</ele>
        <time>2022-11-09T14:34:58Z</time>
      </trkpt>
      <trkpt lat="49.92585" lon="2.14949">
        <ele>89.6</ele>
        <time>2022-11-09T14:34:59Z</time>
      </trkpt>
      <trkpt lat="49.92585" lon="2.14949">
        <ele>89.6</ele>
        <time>2022-11-09T14:35:00Z</time>
      </trkpt>
      <trkpt lat="49.92585" lon="2.14949">
        <ele>89.6</ele>
        <time>2022-11-09T14:35:01Z</time>
      </trkpt>
      <trkpt lat="49.92585" lon="2.14949">
        <ele>89.6</ele>
        <time>2022-11-09T14:35:02Z</time>
      </trkpt>
      <trkpt lat="49.92585" lon="2.14949">
        <ele>89.6</ele>
        <time>2022-11-09T14:35:03Z</time>
      </trkpt>
      <trkpt lat="49.92585" lon="2.14949">
        <ele>89.6</ele>
        <time>2022-11-09T14:35:04Z</time>
      </trkpt>
      <trkpt lat="49.92585" lon="2.14949">
        <ele>89.6</ele>
        <time>2022-11-09T14:35:05Z</time>
      </trkpt>
      <trkpt lat="49.92585" lon="2.14949">
        <ele>89.6</ele>
        <time>2022-11-09T14:35:06Z</time>
      </trkpt>
      <trkpt lat="49.92585" lon="2.14949">
        <ele>89.6</ele>
        <time>2022-11-09T14:35:07Z</time>
      </trkpt>
      <trkpt lat="49.92586" lon="2.14949">
        <ele>89.7</ele>
        <time>2022-11-09T14:35:08Z</time>
      </trkpt>
      <trkpt lat="49.92586" lon="2.14949">
        <ele>89.7</ele>
        <time>2022-11-09T14:35:09Z</time>
      </trkpt>
      <trkpt lat="49.92586" lon="2.14949">
        <ele>89.7</ele>
        <time>2022-11-09T14:35:10Z</time>
      </trkpt>
      <trkpt lat="49.92586" lon="2.14949">
        <ele>89.7</ele>
        <time>2022-11-09T14:35:11Z</time>
      </trkpt>
      <trkpt lat="49.92586" lon="2.14949">
        <ele>89.7</ele>
        <time>2022-11-09T14:35:12Z</time>
      </trkpt>
      <trkpt lat="49.92586" lon="2.14949">
        <ele>89.7</ele>
        <time>2022-11-09T14:35:13Z</time>
      </trkpt>
      <trkpt lat="49.92586" lon="2.14949">
        <ele>89.7</ele>
        <time>2022-11-09T14:35:14Z</time>
      </trkpt>
      <trkpt lat="49.92586" lon="2.14949">
        <ele>89.7</ele>
        <time>2022-11-09T14:35:15Z</time>
      </trkpt>
      <trkpt lat="49.92586" lon="2.14949">
        <ele>89.7</ele>
        <time>2022-11-09T14:35:16Z</time>
      </trkpt>
      <trkpt lat="49.92586" lon="2.14949">
        <ele>89.7</ele>
        <time>2022-11-09T14:35:17Z</time>
      </trkpt>
      <trkpt lat="49.92586" lon="2.14949">
        <ele>89.7</ele>
        <time>2022-11-09T14:35:18Z</time>
      </trkpt>
      <trkpt lat="49.92586" lon="2.14949">
        <ele>89.7</ele>
        <time>2022-11-09T14:35:19Z</time>
      </trkpt>
      <trkpt lat="49.92586" lon="2.14949">
        <ele>89.7</ele>
        <time>2022-11-09T14:35:20Z</time>
      </trkpt>
      <trkpt lat="49.92586" lon="2.14949">
        <ele>89.7</ele>
        <time>2022-11-09T14:35:21Z</time>
      </trkpt>
      <trkpt lat="49.92586" lon="2.14949">
        <ele>89.7</ele>
        <time>2022-11-09T14:35:22Z</time>
      </trkpt>
      <trkpt lat="49.92586" lon="2.14949">
        <ele>89.7</ele>
        <time>2022-11-09T14:35:23Z</time>
      </trkpt>
      <trkpt lat="49.92586" lon="2.14949">
        <ele>89.7</ele>
        <time>2022-11-09T14:35:24Z</time>
      </trkpt>
      <trkpt lat="49.92586" lon="2.14949">
        <ele>89.7</ele>
        <time>2022-11-09T14:35:25Z</time>
      </trkpt>
      <trkpt lat="49.92586" lon="2.14949">
        <ele>89.7</ele>
        <time>2022-11-09T14:35:26Z</time>
      </trkpt>
      <trkpt lat="49.92586" lon="2.14949">
        <ele>89.7</ele>
        <time>2022-11-09T14:35:27Z</time>
      </trkpt>
      <trkpt lat="49.92586" lon="2.14949">
        <ele>89.7</ele>
        <time>2022-11-09T14:35:28Z</time>
      </trkpt>
      <trkpt lat="49.92586" lon="2.14949">
        <ele>89.7</ele>
        <time>2022-11-09T14:35:29Z</time>
      </trkpt>
      <trkpt lat="49.92586" lon="2.14949">
        <ele>89.7</ele>
        <time>2022-11-09T14:35:30Z</time>
      </trkpt>
      <trkpt lat="49.92587" lon="2.14949">
        <ele>89.7</ele>
        <time>2022-11-09T14:35:31Z</time>
      </trkpt>
      <trkpt lat="49.92587" lon="2.14949">
        <ele>89.7</ele>
        <time>2022-11-09T14:35:32Z</time>
      </trkpt>
      <trkpt lat="49.92587" lon="2.14949">
        <ele>89.7</ele>
        <time>2022-11-09T14:35:33Z</time>
      </trkpt>
      <trkpt lat="49.92587" lon="2.14949">
        <ele>89.7</ele>
        <time>2022-11-09T14:35:34Z</time>
      </trkpt>
      <trkpt lat="49.92587" lon="2.14949">
        <ele>89.7</ele>
        <time>2022-11-09T14:35:35Z</time>
      </trkpt>
      <trkpt lat="49.92587" lon="2.14949">
        <ele>89.7</ele>
        <time>2022-11-09T14:35:36Z</time>
      </trkpt>
      <trkpt lat="49.92587" lon="2.14949">
        <ele>89.7</ele>
        <time>2022-11-09T14:35:37Z</time>
      </trkpt>
      <trkpt lat="49.92587" lon="2.14949">
        <ele>89.7</ele>
        <time>2022-11-09T14:35:38Z</time>
      </trkpt>
      <trkpt lat="49.92587" lon="2.14949">
        <ele>89.7</ele>
        <time>2022-11-09T14:35:39Z</time>
      </trkpt>
      <trkpt lat="49.92587" lon="2.14949">
        <ele>89.7</ele>
        <time>2022-11-09T14:35:40Z</time>
      </trkpt>
      <trkpt lat="49.92587" lon="2.14949">
        <ele>89.7</ele>
        <time>2022-11-09T14:35:41Z</time>
      </trkpt>
      <trkpt lat="49.92587" lon="2.14949">
        <ele>89.7</ele>
        <time>2022-11-09T14:35:42Z</time>
      </trkpt>
      <trkpt lat="49.92587" lon="2.14949">
        <ele>89.7</ele>
        <time>2022-11-09T14:35:43Z</time>
      </trkpt>
      <trkpt lat="49.92587" lon="2.14949">
        <ele>89.7</ele>
        <time>2022-11-09T14:35:44Z</time>
      </trkpt>
      <trkpt lat="49.92587" lon="2.14949">
        <ele>89.7</ele>
        <time>2022-11-09T14:35:45Z</time>
      </trkpt>
      <trkpt lat="49.92587" lon="2.14949">
        <ele>89.7</ele>
        <time>2022-11-09T14:35:46Z</time>
      </trkpt>
      <trkpt lat="49.92587" lon="2.14949">
        <ele>89.7</ele>
        <time>2022-11-09T14:35:47Z</time>
      </trkpt>
      <trkpt lat="49.92587" lon="2.14949">
        <ele>89.7</ele>
        <time>2022-11-09T14:35:48Z</time>
      </trkpt>
      <trkpt lat="49.92587" lon="2.14949">
        <ele>89.7</ele>
        <time>2022-11-09T14:35:49Z</time>
      </trkpt>
      <trkpt lat="49.92587" lon="2.14949">
        <ele>89.7</ele>
        <time>2022-11-09T14:35:50Z</time>
      </trkpt>
      <trkpt lat="49.92587" lon="2.14949">
        <ele>89.7</ele>
        <time>2022-11-09T14:35:51Z</time>
      </trkpt>
      <trkpt lat="49.92587" lon="2.14949">
        <ele>89.7</ele>
        <time>2022-11-09T14:35:52Z</time>
      </trkpt>
      <trkpt lat="49.92587" lon="2.14949">
        <ele>89.7</ele>
        <time>2022-11-09T14:35:53Z</time>
      </trkpt>
      <trkpt lat="49.92587" lon="2.14949">
        <ele>89.7</ele>
        <time>2022-11-09T14:35:54Z</time>
      </trkpt>
      <trkpt lat="49.92588" lon="2.14949">
        <ele>89.7</ele>
        <time>2022-11-09T14:35:55Z</time>
      </trkpt>
      <trkpt lat="49.92588" lon="2.14949">
        <ele>89.7</ele>
        <time>2022-11-09T14:35:56Z</time>
      </trkpt>
      <trkpt lat="49.92588" lon="2.14949">
        <ele>89.7</ele>
        <time>2022-11-09T14:35:57Z</time>
      </trkpt>
      <trkpt lat="49.92588" lon="2.14949">
        <ele>89.7</ele>
        <time>2022-11-09T14:35:58Z</time>
      </trkpt>
      <trkpt lat="49.92588" lon="2.14949">
        <ele>89.7</ele>
        <time>2022-11-09T14:35:59Z</time>
      </trkpt>
      <trkpt lat="49.92588" lon="2.14949">
        <ele>89.7</ele>
        <time>2022-11-09T14:36:00Z</time>
      </trkpt>
      <trkpt lat="49.92588" lon="2.14949">
        <ele>89.7</ele>
        <time>2022-11-09T14:36:01Z</time>
      </trkpt>
      <trkpt lat="49.92588" lon="2.14949">
        <ele>89.7</ele>
        <time>2022-11-09T14:36:02Z</time>
      </trkpt>
      <trkpt lat="49.92588" lon="2.14949">
        <ele>89.7</ele>
        <time>2022-11-09T14:36:03Z</time>
      </trkpt>
      <trkpt lat="49.92588" lon="2.14949">
        <ele>89.7</ele>
        <time>2022-11-09T14:36:04Z</time>
      </trkpt>
      <trkpt lat="49.92588" lon="2.14949">
        <ele>89.7</ele>
        <time>2022-11-09T14:36:05Z</time>
      </trkpt>
      <trkpt lat="49.92588" lon="2.14949">
        <ele>89.7</ele>
        <time>2022-11-09T14:36:06Z</time>
      </trkpt>
      <trkpt lat="49.92588" lon="2.14949">
        <ele>89.7</ele>
        <time>2022-11-09T14:36:07Z</time>
      </trkpt>
      <trkpt lat="49.92588" lon="2.14949">
        <ele>89.7</ele>
        <time>2022-11-09T14:36:08Z</time>
      </trkpt>
      <trkpt lat="49.92588" lon="2.14949">
        <ele>89.7</ele>
        <time>2022-11-09T14:36:09Z</time>
      </trkpt>
      <trkpt lat="49.92588" lon="2.14949">
        <ele>89.7</ele>
        <time>2022-11-09T14:36:10Z</time>
      </trkpt>
      <trkpt lat="49.92588" lon="2.14949">
        <ele>89.8</ele>
        <time>2022-11-09T14:36:11Z</time>
      </trkpt>
      <trkpt lat="49.92588" lon="2.14949">
        <ele>89.8</ele>
        <time>2022-11-09T14:36:12Z</time>
      </trkpt>
      <trkpt lat="49.92588" lon="2.14949">
        <ele>89.8</ele>
        <time>2022-11-09T14:36:13Z</time>
      </trkpt>
      <trkpt lat="49.92588" lon="2.14949">
        <ele>89.8</ele>
        <time>2022-11-09T14:36:14Z</time>
      </trkpt>
      <trkpt lat="49.92588" lon="2.14949">
        <ele>89.8</ele>
        <time>2022-11-09T14:36:15Z</time>
      </trkpt>
      <trkpt lat="49.92588" lon="2.14949">
        <ele>89.8</ele>
        <time>2022-11-09T14:36:16Z</time>
      </trkpt>
      <trkpt lat="49.92588" lon="2.14949">
        <ele>89.8</ele>
        <time>2022-11-09T14:36:17Z</time>
      </trkpt>
      <trkpt lat="49.92588" lon="2.14949">
        <ele>89.8</ele>
        <time>2022-11-09T14:36:18Z</time>
      </trkpt>
      <trkpt lat="49.92589" lon="2.14949">
        <ele>89.8</ele>
        <time>2022-11-09T14:36:19Z</time>
      </trkpt>
      <trkpt lat="49.92589" lon="2.14949">
        <ele>89.8</ele>
        <time>2022-11-09T14:36:20Z</time>
      </trkpt>
      <trkpt lat="49.92589" lon="2.14949">
        <ele>89.8</ele>
        <time>2022-11-09T14:36:21Z</time>
      </trkpt>
      <trkpt lat="49.92589" lon="2.14949">
        <ele>89.8</ele>
        <time>2022-11-09T14:36:22Z</time>
      </trkpt>
      <trkpt lat="49.92589" lon="2.14949">
        <ele>89.8</ele>
        <time>2022-11-09T14:36:23Z</time>
      </trkpt>
      <trkpt lat="49.92589" lon="2.14949">
        <ele>89.8</ele>
        <time>2022-11-09T14:36:24Z</time>
      </trkpt>
      <trkpt lat="49.92589" lon="2.14949">
        <ele>89.8</ele>
        <time>2022-11-09T14:36:25Z</time>
      </trkpt>
      <trkpt lat="49.92589" lon="2.14949">
        <ele>89.8</ele>
        <time>2022-11-09T14:36:26Z</time>
      </trkpt>
      <trkpt lat="49.92589" lon="2.14949">
        <ele>89.8</ele>
        <time>2022-11-09T14:36:27Z</time>
      </trkpt>
      <trkpt lat="49.92589" lon="2.14949">
        <ele>89.8</ele>
        <time>2022-11-09T14:36:28Z</time>
      </trkpt>
      <trkpt lat="49.92589" lon="2.14949">
        <ele>89.8</ele>
        <time>2022-11-09T14:36:29Z</time>
      </trkpt>
      <trkpt lat="49.92589" lon="2.14949">
        <ele>89.8</ele>
        <time>2022-11-09T14:36:30Z</time>
      </trkpt>
      <trkpt lat="49.92591" lon="2.14951">
        <ele>89.9</ele>
        <time>2022-11-09T14:36:31Z</time>
      </trkpt>
      <trkpt lat="49.92591" lon="2.14953">
        <ele>89.9</ele>
        <time>2022-11-09T14:36:32Z</time>
      </trkpt>
      <trkpt lat="49.9259" lon="2.14954">
        <ele>89.9</ele>
        <time>2022-11-09T14:36:33Z</time>
      </trkpt>
      <trkpt lat="49.9259" lon="2.14956">
        <ele>89.9</ele>
        <time>2022-11-09T14:36:34Z</time>
      </trkpt>
      <trkpt lat="49.9259" lon="2.14956">
        <ele>90</ele>
        <time>2022-11-09T14:36:35Z</time>
      </trkpt>
      <trkpt lat="49.92591" lon="2.14956">
        <ele>90</ele>
        <time>2022-11-09T14:36:36Z</time>
      </trkpt>
      <trkpt lat="49.92592" lon="2.14958">
        <ele>90</ele>
        <time>2022-11-09T14:36:37Z</time>
      </trkpt>
      <trkpt lat="49.92592" lon="2.14959">
        <ele>90</ele>
        <time>2022-11-09T14:36:39Z</time>
      </trkpt>
      <trkpt lat="49.92592" lon="2.14961">
        <ele>90.1</ele>
        <time>2022-11-09T14:36:40Z</time>
      </trkpt>
      <trkpt lat="49.92592" lon="2.14962">
        <ele>90.1</ele>
        <time>2022-11-09T14:36:41Z</time>
      </trkpt>
      <trkpt lat="49.92591" lon="2.14965">
        <ele>90.2</ele>
        <time>2022-11-09T14:36:42Z</time>
      </trkpt>
      <trkpt lat="49.92591" lon="2.14967">
        <ele>90.2</ele>
        <time>2022-11-09T14:36:43Z</time>
      </trkpt>
      <trkpt lat="49.9259" lon="2.14969">
        <ele>90.2</ele>
        <time>2022-11-09T14:36:44Z</time>
      </trkpt>
      <trkpt lat="49.9259" lon="2.14971">
        <ele>90.3</ele>
        <time>2022-11-09T14:36:45Z</time>
      </trkpt>
      <trkpt lat="49.92589" lon="2.14972">
        <ele>90.3</ele>
        <time>2022-11-09T14:36:47Z</time>
      </trkpt>
      <trkpt lat="49.92589" lon="2.14974">
        <ele>90.4</ele>
        <time>2022-11-09T14:36:48Z</time>
      </trkpt>
      <trkpt lat="49.92589" lon="2.14975">
        <ele>90.4</ele>
        <time>2022-11-09T14:36:49Z</time>
      </trkpt>
      <trkpt lat="49.92589" lon="2.14976">
        <ele>90.4</ele>
        <time>2022-11-09T14:36:50Z</time>
      </trkpt>
      <trkpt lat="49.92589" lon="2.14978">
        <ele>90.4</ele>
        <time>2022-11-09T14:36:51Z</time>
      </trkpt>
      <trkpt lat="49.92589" lon="2.14979">
        <ele>90.5</ele>
        <time>2022-11-09T14:36:52Z</time>
      </trkpt>
      <trkpt lat="49.92589" lon="2.14981">
        <ele>90.5</ele>
        <time>2022-11-09T14:36:53Z</time>
      </trkpt>
      <trkpt lat="49.92589" lon="2.14984">
        <ele>90.6</ele>
        <time>2022-11-09T14:36:54Z</time>
      </trkpt>
      <trkpt lat="49.9259" lon="2.14986">
        <ele>90.6</ele>
        <time>2022-11-09T14:36:55Z</time>
      </trkpt>
      <trkpt lat="49.9259" lon="2.14987">
        <ele>90.6</ele>
        <time>2022-11-09T14:36:57Z</time>
      </trkpt>
      <trkpt lat="49.92591" lon="2.14989">
        <ele>90.7</ele>
        <time>2022-11-09T14:36:58Z</time>
      </trkpt>
      <trkpt lat="49.92591" lon="2.1499">
        <ele>90.7</ele>
        <time>2022-11-09T14:36:59Z</time>
      </trkpt>
      <trkpt lat="49.92592" lon="2.14991">
        <ele>90.7</ele>
        <time>2022-11-09T14:37:00Z</time>
      </trkpt>
      <trkpt lat="49.92593" lon="2.14993">
        <ele>90.8</ele>
        <time>2022-11-09T14:37:01Z</time>
      </trkpt>
      <trkpt lat="49.92594" lon="2.14995">
        <ele>90.8</ele>
        <time>2022-11-09T14:37:02Z</time>
      </trkpt>
      <trkpt lat="49.92595" lon="2.14998">
        <ele>90.9</ele>
        <time>2022-11-09T14:37:04Z</time>
      </trkpt>
      <trkpt lat="49.92595" lon="2.14999">
        <ele>90.9</ele>
        <time>2022-11-09T14:37:05Z</time>
      </trkpt>
      <trkpt lat="49.92596" lon="2.15">
        <ele>90.9</ele>
        <time>2022-11-09T14:37:06Z</time>
      </trkpt>
      <trkpt lat="49.92597" lon="2.15003">
        <ele>91</ele>
        <time>2022-11-09T14:37:07Z</time>
      </trkpt>
      <trkpt lat="49.92597" lon="2.15004">
        <ele>91</ele>
        <time>2022-11-09T14:37:08Z</time>
      </trkpt>
      <trkpt lat="49.92597" lon="2.15006">
        <ele>91</ele>
        <time>2022-11-09T14:37:09Z</time>
      </trkpt>
      <trkpt lat="49.92598" lon="2.15009">
        <ele>91.1</ele>
        <time>2022-11-09T14:37:10Z</time>
      </trkpt>
      <trkpt lat="49.92599" lon="2.1501">
        <ele>91.1</ele>
        <time>2022-11-09T14:37:11Z</time>
      </trkpt>
      <trkpt lat="49.92599" lon="2.15011">
        <ele>91.1</ele>
        <time>2022-11-09T14:37:12Z</time>
      </trkpt>
      <trkpt lat="49.926" lon="2.15012">
        <ele>91.1</ele>
        <time>2022-11-09T14:37:14Z</time>
      </trkpt>
      <trkpt lat="49.926" lon="2.15013">
        <ele>91.2</ele>
        <time>2022-11-09T14:37:15Z</time>
      </trkpt>
      <trkpt lat="49.92601" lon="2.15015">
        <ele>91.2</ele>
        <time>2022-11-09T14:37:16Z</time>
      </trkpt>
      <trkpt lat="49.92601" lon="2.15016">
        <ele>91.2</ele>
        <time>2022-11-09T14:37:17Z</time>
      </trkpt>
      <trkpt lat="49.92602" lon="2.15017">
        <ele>91.2</ele>
        <time>2022-11-09T14:37:18Z</time>
      </trkpt>
      <trkpt lat="49.92602" lon="2.15019">
        <ele>91.2</ele>
        <time>2022-11-09T14:37:19Z</time>
      </trkpt>
      <trkpt lat="49.92602" lon="2.1502">
        <ele>91.2</ele>
        <time>2022-11-09T14:37:20Z</time>
      </trkpt>
      <trkpt lat="49.92603" lon="2.15022">
        <ele>91.2</ele>
        <time>2022-11-09T14:37:21Z</time>
      </trkpt>
      <trkpt lat="49.92603" lon="2.15024">
        <ele>91.3</ele>
        <time>2022-11-09T14:37:22Z</time>
      </trkpt>
      <trkpt lat="49.92603" lon="2.15026">
        <ele>91.3</ele>
        <time>2022-11-09T14:37:24Z</time>
      </trkpt>
      <trkpt lat="49.92603" lon="2.15027">
        <ele>91.3</ele>
        <time>2022-11-09T14:37:25Z</time>
      </trkpt>
      <trkpt lat="49.92603" lon="2.15027">
        <ele>91.3</ele>
        <time>2022-11-09T14:37:26Z</time>
      </trkpt>
      <trkpt lat="49.92603" lon="2.15027">
        <ele>91.3</ele>
        <time>2022-11-09T14:37:27Z</time>
      </trkpt>
      <trkpt lat="49.92603" lon="2.15028">
        <ele>91.3</ele>
        <time>2022-11-09T14:37:28Z</time>
      </trkpt>
      <trkpt lat="49.92603" lon="2.15031">
        <ele>91.3</ele>
        <time>2022-11-09T14:37:29Z</time>
      </trkpt>
      <trkpt lat="49.92603" lon="2.15033">
        <ele>91.3</ele>
        <time>2022-11-09T14:37:30Z</time>
      </trkpt>
      <trkpt lat="49.92603" lon="2.15034">
        <ele>91.3</ele>
        <time>2022-11-09T14:37:31Z</time>
      </trkpt>
      <trkpt lat="49.92603" lon="2.15037">
        <ele>91.3</ele>
        <time>2022-11-09T14:37:33Z</time>
      </trkpt>
      <trkpt lat="49.92604" lon="2.15039">
        <ele>91.3</ele>
        <time>2022-11-09T14:37:34Z</time>
      </trkpt>
      <trkpt lat="49.92604" lon="2.15043">
        <ele>91.3</ele>
        <time>2022-11-09T14:37:35Z</time>
      </trkpt>
      <trkpt lat="49.92604" lon="2.15044">
        <ele>91.3</ele>
        <time>2022-11-09T14:37:36Z</time>
      </trkpt>
      <trkpt lat="49.92604" lon="2.15047">
        <ele>91.3</ele>
        <time>2022-11-09T14:37:37Z</time>
      </trkpt>
      <trkpt lat="49.92605" lon="2.15051">
        <ele>91.3</ele>
        <time>2022-11-09T14:37:39Z</time>
      </trkpt>
      <trkpt lat="49.92605" lon="2.15053">
        <ele>91.3</ele>
        <time>2022-11-09T14:37:40Z</time>
      </trkpt>
      <trkpt lat="49.92605" lon="2.15056">
        <ele>91.3</ele>
        <time>2022-11-09T14:37:41Z</time>
      </trkpt>
      <trkpt lat="49.92605" lon="2.15059">
        <ele>91.3</ele>
        <time>2022-11-09T14:37:42Z</time>
      </trkpt>
      <trkpt lat="49.92606" lon="2.15061">
        <ele>91.3</ele>
        <time>2022-11-09T14:37:43Z</time>
      </trkpt>
      <trkpt lat="49.92606" lon="2.15062">
        <ele>91.3</ele>
        <time>2022-11-09T14:37:44Z</time>
      </trkpt>
      <trkpt lat="49.92607" lon="2.15065">
        <ele>91.3</ele>
        <time>2022-11-09T14:37:45Z</time>
      </trkpt>
      <trkpt lat="49.92607" lon="2.15067">
        <ele>91.3</ele>
        <time>2022-11-09T14:37:47Z</time>
      </trkpt>
      <trkpt lat="49.92608" lon="2.1507">
        <ele>91.3</ele>
        <time>2022-11-09T14:37:48Z</time>
      </trkpt>
      <trkpt lat="49.92608" lon="2.15071">
        <ele>91.3</ele>
        <time>2022-11-09T14:37:49Z</time>
      </trkpt>
      <trkpt lat="49.92609" lon="2.15073">
        <ele>91.3</ele>
        <time>2022-11-09T14:37:50Z</time>
      </trkpt>
      <trkpt lat="49.92609" lon="2.15075">
        <ele>91.3</ele>
        <time>2022-11-09T14:37:51Z</time>
      </trkpt>
      <trkpt lat="49.92609" lon="2.15077">
        <ele>91.3</ele>
        <time>2022-11-09T14:37:52Z</time>
      </trkpt>
      <trkpt lat="49.9261" lon="2.15079">
        <ele>91.3</ele>
        <time>2022-11-09T14:37:53Z</time>
      </trkpt>
      <trkpt lat="49.9261" lon="2.15081">
        <ele>91.2</ele>
        <time>2022-11-09T14:37:54Z</time>
      </trkpt>
      <trkpt lat="49.92611" lon="2.15084">
        <ele>91.2</ele>
        <time>2022-11-09T14:37:55Z</time>
      </trkpt>
      <trkpt lat="49.92612" lon="2.15085">
        <ele>91.2</ele>
        <time>2022-11-09T14:37:57Z</time>
      </trkpt>
      <trkpt lat="49.92612" lon="2.15086">
        <ele>91.2</ele>
        <time>2022-11-09T14:37:58Z</time>
      </trkpt>
      <trkpt lat="49.92613" lon="2.15089">
        <ele>91.2</ele>
        <time>2022-11-09T14:37:59Z</time>
      </trkpt>
      <trkpt lat="49.92613" lon="2.1509">
        <ele>91.2</ele>
        <time>2022-11-09T14:38:00Z</time>
      </trkpt>
      <trkpt lat="49.92613" lon="2.15092">
        <ele>91.2</ele>
        <time>2022-11-09T14:38:01Z</time>
      </trkpt>
      <trkpt lat="49.92614" lon="2.15094">
        <ele>91.1</ele>
        <time>2022-11-09T14:38:02Z</time>
      </trkpt>
      <trkpt lat="49.92614" lon="2.15096">
        <ele>91.1</ele>
        <time>2022-11-09T14:38:03Z</time>
      </trkpt>
      <trkpt lat="49.92615" lon="2.15098">
        <ele>91.1</ele>
        <time>2022-11-09T14:38:04Z</time>
      </trkpt>
      <trkpt lat="49.92615" lon="2.151">
        <ele>91.1</ele>
        <time>2022-11-09T14:38:05Z</time>
      </trkpt>
      <trkpt lat="49.92616" lon="2.15103">
        <ele>91.1</ele>
        <time>2022-11-09T14:38:06Z</time>
      </trkpt>
      <trkpt lat="49.92616" lon="2.15104">
        <ele>91</ele>
        <time>2022-11-09T14:38:08Z</time>
      </trkpt>
      <trkpt lat="49.92616" lon="2.15106">
        <ele>91</ele>
        <time>2022-11-09T14:38:09Z</time>
      </trkpt>
      <trkpt lat="49.92617" lon="2.15109">
        <ele>91</ele>
        <time>2022-11-09T14:38:10Z</time>
      </trkpt>
      <trkpt lat="49.92617" lon="2.1511">
        <ele>91</ele>
        <time>2022-11-09T14:38:11Z</time>
      </trkpt>
      <trkpt lat="49.92618" lon="2.15111">
        <ele>91</ele>
        <time>2022-11-09T14:38:12Z</time>
      </trkpt>
      <trkpt lat="49.92618" lon="2.15113">
        <ele>90.9</ele>
        <time>2022-11-09T14:38:13Z</time>
      </trkpt>
      <trkpt lat="49.92619" lon="2.15115">
        <ele>90.9</ele>
        <time>2022-11-09T14:38:14Z</time>
      </trkpt>
      <trkpt lat="49.92619" lon="2.15117">
        <ele>90.9</ele>
        <time>2022-11-09T14:38:15Z</time>
      </trkpt>
      <trkpt lat="49.9262" lon="2.15119">
        <ele>90.9</ele>
        <time>2022-11-09T14:38:16Z</time>
      </trkpt>
      <trkpt lat="49.9262" lon="2.15123">
        <ele>90.8</ele>
        <time>2022-11-09T14:38:17Z</time>
      </trkpt>
      <trkpt lat="49.92621" lon="2.15124">
        <ele>90.8</ele>
        <time>2022-11-09T14:38:18Z</time>
      </trkpt>
      <trkpt lat="49.92621" lon="2.15125">
        <ele>90.8</ele>
        <time>2022-11-09T14:38:19Z</time>
      </trkpt>
      <trkpt lat="49.92621" lon="2.15127">
        <ele>90.8</ele>
        <time>2022-11-09T14:38:21Z</time>
      </trkpt>
      <trkpt lat="49.92622" lon="2.15129">
        <ele>90.8</ele>
        <time>2022-11-09T14:38:22Z</time>
      </trkpt>
      <trkpt lat="49.92622" lon="2.1513">
        <ele>90.8</ele>
        <time>2022-11-09T14:38:23Z</time>
      </trkpt>
      <trkpt lat="49.92622" lon="2.15133">
        <ele>90.7</ele>
        <time>2022-11-09T14:38:24Z</time>
      </trkpt>
      <trkpt lat="49.92623" lon="2.15135">
        <ele>90.7</ele>
        <time>2022-11-09T14:38:25Z</time>
      </trkpt>
      <trkpt lat="49.92623" lon="2.15136">
        <ele>90.7</ele>
        <time>2022-11-09T14:38:26Z</time>
      </trkpt>
      <trkpt lat="49.92623" lon="2.15139">
        <ele>90.7</ele>
        <time>2022-11-09T14:38:27Z</time>
      </trkpt>
      <trkpt lat="49.92623" lon="2.1514">
        <ele>90.7</ele>
        <time>2022-11-09T14:38:28Z</time>
      </trkpt>
      <trkpt lat="49.92624" lon="2.15141">
        <ele>90.6</ele>
        <time>2022-11-09T14:38:29Z</time>
      </trkpt>
      <trkpt lat="49.92624" lon="2.15143">
        <ele>90.6</ele>
        <time>2022-11-09T14:38:30Z</time>
      </trkpt>
      <trkpt lat="49.92624" lon="2.15145">
        <ele>90.6</ele>
        <time>2022-11-09T14:38:31Z</time>
      </trkpt>
      <trkpt lat="49.92625" lon="2.15147">
        <ele>90.6</ele>
        <time>2022-11-09T14:38:33Z</time>
      </trkpt>
      <trkpt lat="49.92625" lon="2.15148">
        <ele>90.6</ele>
        <time>2022-11-09T14:38:34Z</time>
      </trkpt>
      <trkpt lat="49.92625" lon="2.1515">
        <ele>90.6</ele>
        <time>2022-11-09T14:38:35Z</time>
      </trkpt>
      <trkpt lat="49.92625" lon="2.15151">
        <ele>90.5</ele>
        <time>2022-11-09T14:38:36Z</time>
      </trkpt>
      <trkpt lat="49.92626" lon="2.15154">
        <ele>90.5</ele>
        <time>2022-11-09T14:38:37Z</time>
      </trkpt>
      <trkpt lat="49.92626" lon="2.15155">
        <ele>90.5</ele>
        <time>2022-11-09T14:38:38Z</time>
      </trkpt>
      <trkpt lat="49.92626" lon="2.15157">
        <ele>90.5</ele>
        <time>2022-11-09T14:38:39Z</time>
      </trkpt>
      <trkpt lat="49.92626" lon="2.15159">
        <ele>90.5</ele>
        <time>2022-11-09T14:38:40Z</time>
      </trkpt>
      <trkpt lat="49.92626" lon="2.1516">
        <ele>90.5</ele>
        <time>2022-11-09T14:38:41Z</time>
      </trkpt>
      <trkpt lat="49.92627" lon="2.15162">
        <ele>90.4</ele>
        <time>2022-11-09T14:38:42Z</time>
      </trkpt>
      <trkpt lat="49.92627" lon="2.15164">
        <ele>90.4</ele>
        <time>2022-11-09T14:38:44Z</time>
      </trkpt>
      <trkpt lat="49.92627" lon="2.15166">
        <ele>90.4</ele>
        <time>2022-11-09T14:38:45Z</time>
      </trkpt>
      <trkpt lat="49.92627" lon="2.15169">
        <ele>90.4</ele>
        <time>2022-11-09T14:38:46Z</time>
      </trkpt>
      <trkpt lat="49.92628" lon="2.15171">
        <ele>90.3</ele>
        <time>2022-11-09T14:38:47Z</time>
      </trkpt>
      <trkpt lat="49.92628" lon="2.15172">
        <ele>90.3</ele>
        <time>2022-11-09T14:38:48Z</time>
      </trkpt>
      <trkpt lat="49.92628" lon="2.15175">
        <ele>90.3</ele>
        <time>2022-11-09T14:38:49Z</time>
      </trkpt>
      <trkpt lat="49.92628" lon="2.15176">
        <ele>90.3</ele>
        <time>2022-11-09T14:38:50Z</time>
      </trkpt>
      <trkpt lat="49.92628" lon="2.15178">
        <ele>90.3</ele>
        <time>2022-11-09T14:38:51Z</time>
      </trkpt>
      <trkpt lat="49.92628" lon="2.15181">
        <ele>90.2</ele>
        <time>2022-11-09T14:38:52Z</time>
      </trkpt>
      <trkpt lat="49.92628" lon="2.15182">
        <ele>90.2</ele>
        <time>2022-11-09T14:38:53Z</time>
      </trkpt>
      <trkpt lat="49.92628" lon="2.15183">
        <ele>90.2</ele>
        <time>2022-11-09T14:38:54Z</time>
      </trkpt>
      <trkpt lat="49.92629" lon="2.15186">
        <ele>90.2</ele>
        <time>2022-11-09T14:38:55Z</time>
      </trkpt>
      <trkpt lat="49.92629" lon="2.15188">
        <ele>90.2</ele>
        <time>2022-11-09T14:38:57Z</time>
      </trkpt>
      <trkpt lat="49.92629" lon="2.15189">
        <ele>90.1</ele>
        <time>2022-11-09T14:38:58Z</time>
      </trkpt>
      <trkpt lat="49.9263" lon="2.1519">
        <ele>90.1</ele>
        <time>2022-11-09T14:38:59Z</time>
      </trkpt>
      <trkpt lat="49.9263" lon="2.15192">
        <ele>90.1</ele>
        <time>2022-11-09T14:39:00Z</time>
      </trkpt>
      <trkpt lat="49.9263" lon="2.15194">
        <ele>90.1</ele>
        <time>2022-11-09T14:39:01Z</time>
      </trkpt>
      <trkpt lat="49.92631" lon="2.15197">
        <ele>90</ele>
        <time>2022-11-09T14:39:02Z</time>
      </trkpt>
      <trkpt lat="49.92631" lon="2.15198">
        <ele>90</ele>
        <time>2022-11-09T14:39:03Z</time>
      </trkpt>
      <trkpt lat="49.92631" lon="2.15199">
        <ele>90</ele>
        <time>2022-11-09T14:39:04Z</time>
      </trkpt>
      <trkpt lat="49.92632" lon="2.15202">
        <ele>89.9</ele>
        <time>2022-11-09T14:39:05Z</time>
      </trkpt>
      <trkpt lat="49.92632" lon="2.15204">
        <ele>89.9</ele>
        <time>2022-11-09T14:39:06Z</time>
      </trkpt>
      <trkpt lat="49.92632" lon="2.15205">
        <ele>89.9</ele>
        <time>2022-11-09T14:39:07Z</time>
      </trkpt>
      <trkpt lat="49.92632" lon="2.15206">
        <ele>89.9</ele>
        <time>2022-11-09T14:39:08Z</time>
      </trkpt>
      <trkpt lat="49.92633" lon="2.15208">
        <ele>89.8</ele>
        <time>2022-11-09T14:39:10Z</time>
      </trkpt>
      <trkpt lat="49.92633" lon="2.1521">
        <ele>89.8</ele>
        <time>2022-11-09T14:39:11Z</time>
      </trkpt>
      <trkpt lat="49.92633" lon="2.15213">
        <ele>89.7</ele>
        <time>2022-11-09T14:39:12Z</time>
      </trkpt>
      <trkpt lat="49.92633" lon="2.15215">
        <ele>89.7</ele>
        <time>2022-11-09T14:39:13Z</time>
      </trkpt>
      <trkpt lat="49.92632" lon="2.15216">
        <ele>89.7</ele>
        <time>2022-11-09T14:39:14Z</time>
      </trkpt>
      <trkpt lat="49.92632" lon="2.15218">
        <ele>89.6</ele>
        <time>2022-11-09T14:39:15Z</time>
      </trkpt>
      <trkpt lat="49.92632" lon="2.1522">
        <ele>89.6</ele>
        <time>2022-11-09T14:39:16Z</time>
      </trkpt>
      <trkpt lat="49.92632" lon="2.15224">
        <ele>89.6</ele>
        <time>2022-11-09T14:39:17Z</time>
      </trkpt>
      <trkpt lat="49.92632" lon="2.15225">
        <ele>89.5</ele>
        <time>2022-11-09T14:39:18Z</time>
      </trkpt>
      <trkpt lat="49.92632" lon="2.15226">
        <ele>89.5</ele>
        <time>2022-11-09T14:39:19Z</time>
      </trkpt>
      <trkpt lat="49.92632" lon="2.15229">
        <ele>89.5</ele>
        <time>2022-11-09T14:39:20Z</time>
      </trkpt>
      <trkpt lat="49.92632" lon="2.15231">
        <ele>89.4</ele>
        <time>2022-11-09T14:39:22Z</time>
      </trkpt>
      <trkpt lat="49.92632" lon="2.15233">
        <ele>89.4</ele>
        <time>2022-11-09T14:39:23Z</time>
      </trkpt>
      <trkpt lat="49.92632" lon="2.15235">
        <ele>89.4</ele>
        <time>2022-11-09T14:39:24Z</time>
      </trkpt>
      <trkpt lat="49.92632" lon="2.15237">
        <ele>89.3</ele>
        <time>2022-11-09T14:39:25Z</time>
      </trkpt>
      <trkpt lat="49.92632" lon="2.1524">
        <ele>89.3</ele>
        <time>2022-11-09T14:39:26Z</time>
      </trkpt>
      <trkpt lat="49.92632" lon="2.15241">
        <ele>89.2</ele>
        <time>2022-11-09T14:39:27Z</time>
      </trkpt>
      <trkpt lat="49.92632" lon="2.15243">
        <ele>89.2</ele>
        <time>2022-11-09T14:39:28Z</time>
      </trkpt>
      <trkpt lat="49.92633" lon="2.15245">
        <ele>89.2</ele>
        <time>2022-11-09T14:39:29Z</time>
      </trkpt>
      <trkpt lat="49.92633" lon="2.15246">
        <ele>89.1</ele>
        <time>2022-11-09T14:39:30Z</time>
      </trkpt>
      <trkpt lat="49.92633" lon="2.15248">
        <ele>89.1</ele>
        <time>2022-11-09T14:39:31Z</time>
      </trkpt>
      <trkpt lat="49.92634" lon="2.15251">
        <ele>89</ele>
        <time>2022-11-09T14:39:32Z</time>
      </trkpt>
      <trkpt lat="49.92634" lon="2.15253">
        <ele>89</ele>
        <time>2022-11-09T14:39:34Z</time>
      </trkpt>
      <trkpt lat="49.92635" lon="2.15254">
        <ele>89</ele>
        <time>2022-11-09T14:39:35Z</time>
      </trkpt>
      <trkpt lat="49.92635" lon="2.15256">
        <ele>88.9</ele>
        <time>2022-11-09T14:39:36Z</time>
      </trkpt>
      <trkpt lat="49.92635" lon="2.15257">
        <ele>88.9</ele>
        <time>2022-11-09T14:39:37Z</time>
      </trkpt>
      <trkpt lat="49.92636" lon="2.1526">
        <ele>88.8</ele>
        <time>2022-11-09T14:39:38Z</time>
      </trkpt>
      <trkpt lat="49.92636" lon="2.15262">
        <ele>88.8</ele>
        <time>2022-11-09T14:39:39Z</time>
      </trkpt>
      <trkpt lat="49.92637" lon="2.15263">
        <ele>88.7</ele>
        <time>2022-11-09T14:39:40Z</time>
      </trkpt>
      <trkpt lat="49.92637" lon="2.15266">
        <ele>88.7</ele>
        <time>2022-11-09T14:39:41Z</time>
      </trkpt>
      <trkpt lat="49.92637" lon="2.15268">
        <ele>88.6</ele>
        <time>2022-11-09T14:39:42Z</time>
      </trkpt>
      <trkpt lat="49.92637" lon="2.15269">
        <ele>88.6</ele>
        <time>2022-11-09T14:39:43Z</time>
      </trkpt>
      <trkpt lat="49.92638" lon="2.15272">
        <ele>88.5</ele>
        <time>2022-11-09T14:39:44Z</time>
      </trkpt>
      <trkpt lat="49.92638" lon="2.15274">
        <ele>88.5</ele>
        <time>2022-11-09T14:39:45Z</time>
      </trkpt>
      <trkpt lat="49.92638" lon="2.15275">
        <ele>88.5</ele>
        <time>2022-11-09T14:39:46Z</time>
      </trkpt>
      <trkpt lat="49.92638" lon="2.15276">
        <ele>88.4</ele>
        <time>2022-11-09T14:39:47Z</time>
      </trkpt>
      <trkpt lat="49.92639" lon="2.15278">
        <ele>88.4</ele>
        <time>2022-11-09T14:39:49Z</time>
      </trkpt>
      <trkpt lat="49.92639" lon="2.1528">
        <ele>88.3</ele>
        <time>2022-11-09T14:39:50Z</time>
      </trkpt>
      <trkpt lat="49.9264" lon="2.15283">
        <ele>88.2</ele>
        <time>2022-11-09T14:39:51Z</time>
      </trkpt>
      <trkpt lat="49.9264" lon="2.15284">
        <ele>88.2</ele>
        <time>2022-11-09T14:39:52Z</time>
      </trkpt>
      <trkpt lat="49.9264" lon="2.15286">
        <ele>88.2</ele>
        <time>2022-11-09T14:39:53Z</time>
      </trkpt>
      <trkpt lat="49.9264" lon="2.15289">
        <ele>88.1</ele>
        <time>2022-11-09T14:39:54Z</time>
      </trkpt>
      <trkpt lat="49.9264" lon="2.1529">
        <ele>88</ele>
        <time>2022-11-09T14:39:55Z</time>
      </trkpt>
      <trkpt lat="49.9264" lon="2.15291">
        <ele>88</ele>
        <time>2022-11-09T14:39:56Z</time>
      </trkpt>
      <trkpt lat="49.92641" lon="2.15295">
        <ele>87.9</ele>
        <time>2022-11-09T14:39:57Z</time>
      </trkpt>
      <trkpt lat="49.92641" lon="2.15296">
        <ele>87.9</ele>
        <time>2022-11-09T14:39:58Z</time>
      </trkpt>
      <trkpt lat="49.92641" lon="2.15297">
        <ele>87.8</ele>
        <time>2022-11-09T14:39:59Z</time>
      </trkpt>
      <trkpt lat="49.92641" lon="2.15299">
        <ele>87.8</ele>
        <time>2022-11-09T14:40:01Z</time>
      </trkpt>
      <trkpt lat="49.9264" lon="2.153">
        <ele>87.7</ele>
        <time>2022-11-09T14:40:02Z</time>
      </trkpt>
      <trkpt lat="49.9264" lon="2.15302">
        <ele>87.7</ele>
        <time>2022-11-09T14:40:03Z</time>
      </trkpt>
      <trkpt lat="49.9264" lon="2.15305">
        <ele>87.6</ele>
        <time>2022-11-09T14:40:04Z</time>
      </trkpt>
      <trkpt lat="49.9264" lon="2.15306">
        <ele>87.6</ele>
        <time>2022-11-09T14:40:05Z</time>
      </trkpt>
      <trkpt lat="49.9264" lon="2.15308">
        <ele>87.5</ele>
        <time>2022-11-09T14:40:07Z</time>
      </trkpt>
      <trkpt lat="49.9264" lon="2.15309">
        <ele>87.5</ele>
        <time>2022-11-09T14:40:08Z</time>
      </trkpt>
      <trkpt lat="49.9264" lon="2.15311">
        <ele>87.4</ele>
        <time>2022-11-09T14:40:09Z</time>
      </trkpt>
      <trkpt lat="49.9264" lon="2.15312">
        <ele>87.4</ele>
        <time>2022-11-09T14:40:10Z</time>
      </trkpt>
      <trkpt lat="49.9264" lon="2.15316">
        <ele>87.3</ele>
        <time>2022-11-09T14:40:11Z</time>
      </trkpt>
      <trkpt lat="49.9264" lon="2.15317">
        <ele>87.2</ele>
        <time>2022-11-09T14:40:12Z</time>
      </trkpt>
      <trkpt lat="49.9264" lon="2.15318">
        <ele>87.2</ele>
        <time>2022-11-09T14:40:13Z</time>
      </trkpt>
      <trkpt lat="49.9264" lon="2.15321">
        <ele>87.1</ele>
        <time>2022-11-09T14:40:14Z</time>
      </trkpt>
      <trkpt lat="49.9264" lon="2.15323">
        <ele>87</ele>
        <time>2022-11-09T14:40:15Z</time>
      </trkpt>
      <trkpt lat="49.9264" lon="2.15324">
        <ele>87</ele>
        <time>2022-11-09T14:40:16Z</time>
      </trkpt>
      <trkpt lat="49.92639" lon="2.15327">
        <ele>86.9</ele>
        <time>2022-11-09T14:40:18Z</time>
      </trkpt>
      <trkpt lat="49.92639" lon="2.15329">
        <ele>86.9</ele>
        <time>2022-11-09T14:40:19Z</time>
      </trkpt>
      <trkpt lat="49.92639" lon="2.1533">
        <ele>86.8</ele>
        <time>2022-11-09T14:40:20Z</time>
      </trkpt>
      <trkpt lat="49.92639" lon="2.15332">
        <ele>86.8</ele>
        <time>2022-11-09T14:40:21Z</time>
      </trkpt>
      <trkpt lat="49.92639" lon="2.15335">
        <ele>86.7</ele>
        <time>2022-11-09T14:40:22Z</time>
      </trkpt>
      <trkpt lat="49.92639" lon="2.15337">
        <ele>86.6</ele>
        <time>2022-11-09T14:40:23Z</time>
      </trkpt>
      <trkpt lat="49.92639" lon="2.15339">
        <ele>86.6</ele>
        <time>2022-11-09T14:40:24Z</time>
      </trkpt>
      <trkpt lat="49.92639" lon="2.15341">
        <ele>86.5</ele>
        <time>2022-11-09T14:40:26Z</time>
      </trkpt>
      <trkpt lat="49.92639" lon="2.15344">
        <ele>86.4</ele>
        <time>2022-11-09T14:40:27Z</time>
      </trkpt>
      <trkpt lat="49.92639" lon="2.15345">
        <ele>86.4</ele>
        <time>2022-11-09T14:40:28Z</time>
      </trkpt>
      <trkpt lat="49.92639" lon="2.15346">
        <ele>86.3</ele>
        <time>2022-11-09T14:40:29Z</time>
      </trkpt>
      <trkpt lat="49.9264" lon="2.15349">
        <ele>86.3</ele>
        <time>2022-11-09T14:40:30Z</time>
      </trkpt>
      <trkpt lat="49.9264" lon="2.15351">
        <ele>86.2</ele>
        <time>2022-11-09T14:40:31Z</time>
      </trkpt>
      <trkpt lat="49.9264" lon="2.15353">
        <ele>86.1</ele>
        <time>2022-11-09T14:40:32Z</time>
      </trkpt>
      <trkpt lat="49.9264" lon="2.15355">
        <ele>86.1</ele>
        <time>2022-11-09T14:40:33Z</time>
      </trkpt>
      <trkpt lat="49.9264" lon="2.15357">
        <ele>86</ele>
        <time>2022-11-09T14:40:34Z</time>
      </trkpt>
      <trkpt lat="49.9264" lon="2.15359">
        <ele>86</ele>
        <time>2022-11-09T14:40:35Z</time>
      </trkpt>
      <trkpt lat="49.9264" lon="2.15361">
        <ele>85.9</ele>
        <time>2022-11-09T14:40:37Z</time>
      </trkpt>
      <trkpt lat="49.9264" lon="2.15363">
        <ele>85.9</ele>
        <time>2022-11-09T14:40:38Z</time>
      </trkpt>
      <trkpt lat="49.92641" lon="2.15364">
        <ele>85.8</ele>
        <time>2022-11-09T14:40:39Z</time>
      </trkpt>
      <trkpt lat="49.92641" lon="2.15366">
        <ele>85.8</ele>
        <time>2022-11-09T14:40:40Z</time>
      </trkpt>
      <trkpt lat="49.92642" lon="2.15369">
        <ele>85.7</ele>
        <time>2022-11-09T14:40:41Z</time>
      </trkpt>
      <trkpt lat="49.92642" lon="2.1537">
        <ele>85.7</ele>
        <time>2022-11-09T14:40:42Z</time>
      </trkpt>
      <trkpt lat="49.92643" lon="2.15371">
        <ele>85.6</ele>
        <time>2022-11-09T14:40:43Z</time>
      </trkpt>
      <trkpt lat="49.92643" lon="2.15374">
        <ele>85.6</ele>
        <time>2022-11-09T14:40:44Z</time>
      </trkpt>
      <trkpt lat="49.92644" lon="2.15376">
        <ele>85.5</ele>
        <time>2022-11-09T14:40:45Z</time>
      </trkpt>
      <trkpt lat="49.92644" lon="2.15378">
        <ele>85.5</ele>
        <time>2022-11-09T14:40:46Z</time>
      </trkpt>
      <trkpt lat="49.92644" lon="2.1538">
        <ele>85.4</ele>
        <time>2022-11-09T14:40:47Z</time>
      </trkpt>
      <trkpt lat="49.92644" lon="2.15382">
        <ele>85.3</ele>
        <time>2022-11-09T14:40:48Z</time>
      </trkpt>
      <trkpt lat="49.92645" lon="2.15385">
        <ele>85.3</ele>
        <time>2022-11-09T14:40:49Z</time>
      </trkpt>
      <trkpt lat="49.92645" lon="2.15387">
        <ele>85.2</ele>
        <time>2022-11-09T14:40:51Z</time>
      </trkpt>
      <trkpt lat="49.92646" lon="2.15388">
        <ele>85.2</ele>
        <time>2022-11-09T14:40:52Z</time>
      </trkpt>
      <trkpt lat="49.92646" lon="2.1539">
        <ele>85.2</ele>
        <time>2022-11-09T14:40:53Z</time>
      </trkpt>
      <trkpt lat="49.92646" lon="2.15393">
        <ele>85.1</ele>
        <time>2022-11-09T14:40:54Z</time>
      </trkpt>
      <trkpt lat="49.92647" lon="2.15395">
        <ele>85</ele>
        <time>2022-11-09T14:40:56Z</time>
      </trkpt>
      <trkpt lat="49.92647" lon="2.15397">
        <ele>85</ele>
        <time>2022-11-09T14:40:57Z</time>
      </trkpt>
      <trkpt lat="49.92647" lon="2.15399">
        <ele>84.9</ele>
        <time>2022-11-09T14:40:58Z</time>
      </trkpt>
      <trkpt lat="49.92647" lon="2.154">
        <ele>84.9</ele>
        <time>2022-11-09T14:40:59Z</time>
      </trkpt>
      <trkpt lat="49.92647" lon="2.15404">
        <ele>84.8</ele>
        <time>2022-11-09T14:41:00Z</time>
      </trkpt>
      <trkpt lat="49.92647" lon="2.15405">
        <ele>84.8</ele>
        <time>2022-11-09T14:41:01Z</time>
      </trkpt>
      <trkpt lat="49.92647" lon="2.15406">
        <ele>84.7</ele>
        <time>2022-11-09T14:41:02Z</time>
      </trkpt>
      <trkpt lat="49.92647" lon="2.1541">
        <ele>84.7</ele>
        <time>2022-11-09T14:41:03Z</time>
      </trkpt>
      <trkpt lat="49.92647" lon="2.15411">
        <ele>84.6</ele>
        <time>2022-11-09T14:41:04Z</time>
      </trkpt>
      <trkpt lat="49.92647" lon="2.15412">
        <ele>84.6</ele>
        <time>2022-11-09T14:41:05Z</time>
      </trkpt>
      <trkpt lat="49.92647" lon="2.15414">
        <ele>84.5</ele>
        <time>2022-11-09T14:41:06Z</time>
      </trkpt>
      <trkpt lat="49.92647" lon="2.15416">
        <ele>84.5</ele>
        <time>2022-11-09T14:41:07Z</time>
      </trkpt>
      <trkpt lat="49.92647" lon="2.15418">
        <ele>84.4</ele>
        <time>2022-11-09T14:41:09Z</time>
      </trkpt>
      <trkpt lat="49.92647" lon="2.15422">
        <ele>84.4</ele>
        <time>2022-11-09T14:41:10Z</time>
      </trkpt>
      <trkpt lat="49.92648" lon="2.15423">
        <ele>84.3</ele>
        <time>2022-11-09T14:41:11Z</time>
      </trkpt>
      <trkpt lat="49.92648" lon="2.15425">
        <ele>84.3</ele>
        <time>2022-11-09T14:41:12Z</time>
      </trkpt>
      <trkpt lat="49.92648" lon="2.15426">
        <ele>84.3</ele>
        <time>2022-11-09T14:41:13Z</time>
      </trkpt>
      <trkpt lat="49.92648" lon="2.15428">
        <ele>84.2</ele>
        <time>2022-11-09T14:41:15Z</time>
      </trkpt>
      <trkpt lat="49.92648" lon="2.1543">
        <ele>84.2</ele>
        <time>2022-11-09T14:41:16Z</time>
      </trkpt>
      <trkpt lat="49.92648" lon="2.15432">
        <ele>84.1</ele>
        <time>2022-11-09T14:41:17Z</time>
      </trkpt>
      <trkpt lat="49.92648" lon="2.15434">
        <ele>84.1</ele>
        <time>2022-11-09T14:41:18Z</time>
      </trkpt>
      <trkpt lat="49.92648" lon="2.15436">
        <ele>84.1</ele>
        <time>2022-11-09T14:41:19Z</time>
      </trkpt>
      <trkpt lat="49.92648" lon="2.15439">
        <ele>84</ele>
        <time>2022-11-09T14:41:20Z</time>
      </trkpt>
      <trkpt lat="49.92648" lon="2.1544">
        <ele>84</ele>
        <time>2022-11-09T14:41:21Z</time>
      </trkpt>
      <trkpt lat="49.92648" lon="2.15442">
        <ele>84</ele>
        <time>2022-11-09T14:41:22Z</time>
      </trkpt>
      <trkpt lat="49.92648" lon="2.15445">
        <ele>83.9</ele>
        <time>2022-11-09T14:41:23Z</time>
      </trkpt>
      <trkpt lat="49.92648" lon="2.15446">
        <ele>83.9</ele>
        <time>2022-11-09T14:41:24Z</time>
      </trkpt>
      <trkpt lat="49.92648" lon="2.15448">
        <ele>83.8</ele>
        <time>2022-11-09T14:41:25Z</time>
      </trkpt>
      <trkpt lat="49.92648" lon="2.15449">
        <ele>83.8</ele>
        <time>2022-11-09T14:41:26Z</time>
      </trkpt>
      <trkpt lat="49.92648" lon="2.15451">
        <ele>83.8</ele>
        <time>2022-11-09T14:41:27Z</time>
      </trkpt>
      <trkpt lat="49.92648" lon="2.15453">
        <ele>83.8</ele>
        <time>2022-11-09T14:41:29Z</time>
      </trkpt>
      <trkpt lat="49.92648" lon="2.15455">
        <ele>83.7</ele>
        <time>2022-11-09T14:41:30Z</time>
      </trkpt>
      <trkpt lat="49.92648" lon="2.15456">
        <ele>83.7</ele>
        <time>2022-11-09T14:41:31Z</time>
      </trkpt>
      <trkpt lat="49.92648" lon="2.15458">
        <ele>83.6</ele>
        <time>2022-11-09T14:41:32Z</time>
      </trkpt>
      <trkpt lat="49.92648" lon="2.15462">
        <ele>83.6</ele>
        <time>2022-11-09T14:41:33Z</time>
      </trkpt>
      <trkpt lat="49.92647" lon="2.15463">
        <ele>83.6</ele>
        <time>2022-11-09T14:41:34Z</time>
      </trkpt>
      <trkpt lat="49.92647" lon="2.15464">
        <ele>83.5</ele>
        <time>2022-11-09T14:41:35Z</time>
      </trkpt>
      <trkpt lat="49.92647" lon="2.15468">
        <ele>83.5</ele>
        <time>2022-11-09T14:41:36Z</time>
      </trkpt>
      <trkpt lat="49.92647" lon="2.15469">
        <ele>83.5</ele>
        <time>2022-11-09T14:41:37Z</time>
      </trkpt>
      <trkpt lat="49.92647" lon="2.1547">
        <ele>83.4</ele>
        <time>2022-11-09T14:41:38Z</time>
      </trkpt>
      <trkpt lat="49.92647" lon="2.15472">
        <ele>83.4</ele>
        <time>2022-11-09T14:41:40Z</time>
      </trkpt>
      <trkpt lat="49.92647" lon="2.15474">
        <ele>83.4</ele>
        <time>2022-11-09T14:41:41Z</time>
      </trkpt>
      <trkpt lat="49.92647" lon="2.15476">
        <ele>83.3</ele>
        <time>2022-11-09T14:41:42Z</time>
      </trkpt>
      <trkpt lat="49.92648" lon="2.15477">
        <ele>83.3</ele>
        <time>2022-11-09T14:41:43Z</time>
      </trkpt>
      <trkpt lat="49.92648" lon="2.15479">
        <ele>83.3</ele>
        <time>2022-11-09T14:41:44Z</time>
      </trkpt>
      <trkpt lat="49.92648" lon="2.15481">
        <ele>83.2</ele>
        <time>2022-11-09T14:41:45Z</time>
      </trkpt>
      <trkpt lat="49.92649" lon="2.15483">
        <ele>83.2</ele>
        <time>2022-11-09T14:41:47Z</time>
      </trkpt>
      <trkpt lat="49.92649" lon="2.15484">
        <ele>83.1</ele>
        <time>2022-11-09T14:41:48Z</time>
      </trkpt>
      <trkpt lat="49.92649" lon="2.15486">
        <ele>83.1</ele>
        <time>2022-11-09T14:41:49Z</time>
      </trkpt>
      <trkpt lat="49.92649" lon="2.1549">
        <ele>83</ele>
        <time>2022-11-09T14:41:50Z</time>
      </trkpt>
      <trkpt lat="49.92649" lon="2.15491">
        <ele>83</ele>
        <time>2022-11-09T14:41:51Z</time>
      </trkpt>
      <trkpt lat="49.92649" lon="2.15492">
        <ele>83</ele>
        <time>2022-11-09T14:41:52Z</time>
      </trkpt>
      <trkpt lat="49.92649" lon="2.15494">
        <ele>83</ele>
        <time>2022-11-09T14:41:53Z</time>
      </trkpt>
      <trkpt lat="49.9265" lon="2.15495">
        <ele>82.9</ele>
        <time>2022-11-09T14:41:54Z</time>
      </trkpt>
      <trkpt lat="49.9265" lon="2.15497">
        <ele>82.9</ele>
        <time>2022-11-09T14:41:56Z</time>
      </trkpt>
      <trkpt lat="49.9265" lon="2.15499">
        <ele>82.8</ele>
        <time>2022-11-09T14:41:57Z</time>
      </trkpt>
      <trkpt lat="49.9265" lon="2.15501">
        <ele>82.8</ele>
        <time>2022-11-09T14:41:58Z</time>
      </trkpt>
      <trkpt lat="49.9265" lon="2.15503">
        <ele>82.8</ele>
        <time>2022-11-09T14:41:59Z</time>
      </trkpt>
      <trkpt lat="49.9265" lon="2.15505">
        <ele>82.7</ele>
        <time>2022-11-09T14:42:00Z</time>
      </trkpt>
      <trkpt lat="49.9265" lon="2.15507">
        <ele>82.7</ele>
        <time>2022-11-09T14:42:01Z</time>
      </trkpt>
      <trkpt lat="49.92651" lon="2.15509">
        <ele>82.7</ele>
        <time>2022-11-09T14:42:02Z</time>
      </trkpt>
      <trkpt lat="49.92651" lon="2.15511">
        <ele>82.6</ele>
        <time>2022-11-09T14:42:03Z</time>
      </trkpt>
      <trkpt lat="49.92651" lon="2.15513">
        <ele>82.6</ele>
        <time>2022-11-09T14:42:05Z</time>
      </trkpt>
      <trkpt lat="49.92651" lon="2.15517">
        <ele>82.5</ele>
        <time>2022-11-09T14:42:07Z</time>
      </trkpt>
      <trkpt lat="49.92651" lon="2.15518">
        <ele>82.5</ele>
        <time>2022-11-09T14:42:08Z</time>
      </trkpt>
      <trkpt lat="49.92651" lon="2.15522">
        <ele>82.4</ele>
        <time>2022-11-09T14:42:09Z</time>
      </trkpt>
      <trkpt lat="49.92651" lon="2.15524">
        <ele>82.4</ele>
        <time>2022-11-09T14:42:10Z</time>
      </trkpt>
      <trkpt lat="49.92651" lon="2.15525">
        <ele>82.4</ele>
        <time>2022-11-09T14:42:11Z</time>
      </trkpt>
      <trkpt lat="49.92651" lon="2.15529">
        <ele>82.3</ele>
        <time>2022-11-09T14:42:13Z</time>
      </trkpt>
      <trkpt lat="49.92651" lon="2.1553">
        <ele>82.3</ele>
        <time>2022-11-09T14:42:14Z</time>
      </trkpt>
      <trkpt lat="49.92651" lon="2.15531">
        <ele>82.3</ele>
        <time>2022-11-09T14:42:15Z</time>
      </trkpt>
      <trkpt lat="49.9265" lon="2.15534">
        <ele>82.3</ele>
        <time>2022-11-09T14:42:16Z</time>
      </trkpt>
      <trkpt lat="49.9265" lon="2.15536">
        <ele>82.3</ele>
        <time>2022-11-09T14:42:17Z</time>
      </trkpt>
      <trkpt lat="49.9265" lon="2.15537">
        <ele>82.3</ele>
        <time>2022-11-09T14:42:18Z</time>
      </trkpt>
      <trkpt lat="49.9265" lon="2.15539">
        <ele>82.2</ele>
        <time>2022-11-09T14:42:19Z</time>
      </trkpt>
      <trkpt lat="49.9265" lon="2.15541">
        <ele>82.2</ele>
        <time>2022-11-09T14:42:20Z</time>
      </trkpt>
      <trkpt lat="49.9265" lon="2.15543">
        <ele>82.2</ele>
        <time>2022-11-09T14:42:21Z</time>
      </trkpt>
      <trkpt lat="49.9265" lon="2.15545">
        <ele>82.2</ele>
        <time>2022-11-09T14:42:22Z</time>
      </trkpt>
      <trkpt lat="49.92649" lon="2.15547">
        <ele>82.2</ele>
        <time>2022-11-09T14:42:24Z</time>
      </trkpt>
      <trkpt lat="49.92649" lon="2.15549">
        <ele>82.2</ele>
        <time>2022-11-09T14:42:25Z</time>
      </trkpt>
      <trkpt lat="49.92649" lon="2.15551">
        <ele>82.1</ele>
        <time>2022-11-09T14:42:26Z</time>
      </trkpt>
      <trkpt lat="49.92649" lon="2.15553">
        <ele>82.1</ele>
        <time>2022-11-09T14:42:27Z</time>
      </trkpt>
      <trkpt lat="49.92649" lon="2.15554">
        <ele>82.1</ele>
        <time>2022-11-09T14:42:28Z</time>
      </trkpt>
      <trkpt lat="49.92649" lon="2.15556">
        <ele>82.1</ele>
        <time>2022-11-09T14:42:29Z</time>
      </trkpt>
      <trkpt lat="49.92649" lon="2.15558">
        <ele>82.1</ele>
        <time>2022-11-09T14:42:30Z</time>
      </trkpt>
      <trkpt lat="49.92649" lon="2.1556">
        <ele>82.1</ele>
        <time>2022-11-09T14:42:31Z</time>
      </trkpt>
      <trkpt lat="49.92649" lon="2.15562">
        <ele>82.1</ele>
        <time>2022-11-09T14:42:32Z</time>
      </trkpt>
      <trkpt lat="49.92649" lon="2.15563">
        <ele>82.1</ele>
        <time>2022-11-09T14:42:34Z</time>
      </trkpt>
      <trkpt lat="49.92649" lon="2.15565">
        <ele>82.1</ele>
        <time>2022-11-09T14:42:35Z</time>
      </trkpt>
      <trkpt lat="49.9265" lon="2.15567">
        <ele>82</ele>
        <time>2022-11-09T14:42:36Z</time>
      </trkpt>
      <trkpt lat="49.9265" lon="2.1557">
        <ele>82</ele>
        <time>2022-11-09T14:42:37Z</time>
      </trkpt>
      <trkpt lat="49.9265" lon="2.15572">
        <ele>82</ele>
        <time>2022-11-09T14:42:38Z</time>
      </trkpt>
      <trkpt lat="49.9265" lon="2.15573">
        <ele>82</ele>
        <time>2022-11-09T14:42:39Z</time>
      </trkpt>
      <trkpt lat="49.9265" lon="2.15575">
        <ele>82</ele>
        <time>2022-11-09T14:42:41Z</time>
      </trkpt>
      <trkpt lat="49.9265" lon="2.15577">
        <ele>82</ele>
        <time>2022-11-09T14:42:42Z</time>
      </trkpt>
      <trkpt lat="49.9265" lon="2.15579">
        <ele>82</ele>
        <time>2022-11-09T14:42:43Z</time>
      </trkpt>
      <trkpt lat="49.9265" lon="2.1558">
        <ele>82</ele>
        <time>2022-11-09T14:42:44Z</time>
      </trkpt>
      <trkpt lat="49.9265" lon="2.15582">
        <ele>82</ele>
        <time>2022-11-09T14:42:45Z</time>
      </trkpt>
      <trkpt lat="49.92651" lon="2.15583">
        <ele>82</ele>
        <time>2022-11-09T14:42:46Z</time>
      </trkpt>
      <trkpt lat="49.92651" lon="2.15584">
        <ele>81.9</ele>
        <time>2022-11-09T14:42:47Z</time>
      </trkpt>
      <trkpt lat="49.92651" lon="2.15585">
        <ele>81.9</ele>
        <time>2022-11-09T14:42:49Z</time>
      </trkpt>
      <trkpt lat="49.92651" lon="2.15585">
        <ele>81.9</ele>
        <time>2022-11-09T14:42:50Z</time>
      </trkpt>
      <trkpt lat="49.92651" lon="2.15585">
        <ele>81.9</ele>
        <time>2022-11-09T14:42:51Z</time>
      </trkpt>
      <trkpt lat="49.92651" lon="2.15585">
        <ele>81.9</ele>
        <time>2022-11-09T14:42:52Z</time>
      </trkpt>
      <trkpt lat="49.92651" lon="2.15585">
        <ele>81.9</ele>
        <time>2022-11-09T14:42:53Z</time>
      </trkpt>
      <trkpt lat="49.92651" lon="2.15584">
        <ele>81.9</ele>
        <time>2022-11-09T14:42:54Z</time>
      </trkpt>
      <trkpt lat="49.92651" lon="2.15584">
        <ele>81.9</ele>
        <time>2022-11-09T14:42:55Z</time>
      </trkpt>
      <trkpt lat="49.92651" lon="2.15584">
        <ele>81.9</ele>
        <time>2022-11-09T14:42:56Z</time>
      </trkpt>
      <trkpt lat="49.92651" lon="2.15584">
        <ele>81.9</ele>
        <time>2022-11-09T14:42:57Z</time>
      </trkpt>
      <trkpt lat="49.92651" lon="2.15584">
        <ele>81.9</ele>
        <time>2022-11-09T14:42:58Z</time>
      </trkpt>
      <trkpt lat="49.92651" lon="2.15583">
        <ele>81.9</ele>
        <time>2022-11-09T14:42:59Z</time>
      </trkpt>
      <trkpt lat="49.92651" lon="2.15583">
        <ele>81.9</ele>
        <time>2022-11-09T14:43:00Z</time>
      </trkpt>
      <trkpt lat="49.92651" lon="2.15583">
        <ele>81.9</ele>
        <time>2022-11-09T14:43:01Z</time>
      </trkpt>
      <trkpt lat="49.92651" lon="2.15582">
        <ele>81.9</ele>
        <time>2022-11-09T14:43:02Z</time>
      </trkpt>
      <trkpt lat="49.92651" lon="2.15582">
        <ele>81.9</ele>
        <time>2022-11-09T14:43:03Z</time>
      </trkpt>
      <trkpt lat="49.92651" lon="2.15582">
        <ele>81.9</ele>
        <time>2022-11-09T14:43:04Z</time>
      </trkpt>
      <trkpt lat="49.92651" lon="2.15582">
        <ele>81.9</ele>
        <time>2022-11-09T14:43:05Z</time>
      </trkpt>
      <trkpt lat="49.92651" lon="2.15582">
        <ele>81.9</ele>
        <time>2022-11-09T14:43:06Z</time>
      </trkpt>
      <trkpt lat="49.92651" lon="2.15581">
        <ele>81.9</ele>
        <time>2022-11-09T14:43:07Z</time>
      </trkpt>
      <trkpt lat="49.92651" lon="2.1558">
        <ele>81.8</ele>
        <time>2022-11-09T14:43:08Z</time>
      </trkpt>
      <trkpt lat="49.92651" lon="2.1558">
        <ele>81.8</ele>
        <time>2022-11-09T14:43:09Z</time>
      </trkpt>
      <trkpt lat="49.92651" lon="2.1558">
        <ele>81.8</ele>
        <time>2022-11-09T14:43:10Z</time>
      </trkpt>
      <trkpt lat="49.92651" lon="2.1558">
        <ele>81.8</ele>
        <time>2022-11-09T14:43:11Z</time>
      </trkpt>
      <trkpt lat="49.92651" lon="2.1558">
        <ele>81.8</ele>
        <time>2022-11-09T14:43:12Z</time>
      </trkpt>
      <trkpt lat="49.92651" lon="2.1558">
        <ele>81.8</ele>
        <time>2022-11-09T14:43:13Z</time>
      </trkpt>
      <trkpt lat="49.92651" lon="2.1558">
        <ele>81.8</ele>
        <time>2022-11-09T14:43:14Z</time>
      </trkpt>
      <trkpt lat="49.92651" lon="2.1558">
        <ele>81.8</ele>
        <time>2022-11-09T14:43:15Z</time>
      </trkpt>
      <trkpt lat="49.92651" lon="2.1558">
        <ele>81.8</ele>
        <time>2022-11-09T14:43:16Z</time>
      </trkpt>
      <trkpt lat="49.92651" lon="2.1558">
        <ele>81.8</ele>
        <time>2022-11-09T14:43:17Z</time>
      </trkpt>
      <trkpt lat="49.92651" lon="2.1558">
        <ele>81.8</ele>
        <time>2022-11-09T14:43:18Z</time>
      </trkpt>
      <trkpt lat="49.92651" lon="2.1558">
        <ele>81.8</ele>
        <time>2022-11-09T14:43:19Z</time>
      </trkpt>
      <trkpt lat="49.92651" lon="2.1558">
        <ele>81.8</ele>
        <time>2022-11-09T14:43:20Z</time>
      </trkpt>
      <trkpt lat="49.92651" lon="2.1558">
        <ele>81.8</ele>
        <time>2022-11-09T14:43:21Z</time>
      </trkpt>
      <trkpt lat="49.92651" lon="2.1558">
        <ele>81.8</ele>
        <time>2022-11-09T14:43:22Z</time>
      </trkpt>
      <trkpt lat="49.92651" lon="2.1558">
        <ele>81.8</ele>
        <time>2022-11-09T14:43:23Z</time>
      </trkpt>
      <trkpt lat="49.92651" lon="2.1558">
        <ele>81.8</ele>
        <time>2022-11-09T14:43:24Z</time>
      </trkpt>
      <trkpt lat="49.92651" lon="2.1558">
        <ele>81.8</ele>
        <time>2022-11-09T14:43:25Z</time>
      </trkpt>
      <trkpt lat="49.92651" lon="2.1558">
        <ele>81.8</ele>
        <time>2022-11-09T14:43:26Z</time>
      </trkpt>
      <trkpt lat="49.92651" lon="2.1558">
        <ele>81.8</ele>
        <time>2022-11-09T14:43:27Z</time>
      </trkpt>
      <trkpt lat="49.92651" lon="2.15581">
        <ele>81.8</ele>
        <time>2022-11-09T14:43:28Z</time>
      </trkpt>
      <trkpt lat="49.92651" lon="2.15581">
        <ele>81.8</ele>
        <time>2022-11-09T14:43:29Z</time>
      </trkpt>
      <trkpt lat="49.92651" lon="2.15583">
        <ele>81.8</ele>
        <time>2022-11-09T14:43:30Z</time>
      </trkpt>
      <trkpt lat="49.92651" lon="2.15584">
        <ele>81.8</ele>
        <time>2022-11-09T14:43:31Z</time>
      </trkpt>
      <trkpt lat="49.92652" lon="2.15586">
        <ele>81.8</ele>
        <time>2022-11-09T14:43:32Z</time>
      </trkpt>
      <trkpt lat="49.92653" lon="2.15587">
        <ele>81.7</ele>
        <time>2022-11-09T14:43:33Z</time>
      </trkpt>
      <trkpt lat="49.92653" lon="2.15589">
        <ele>81.7</ele>
        <time>2022-11-09T14:43:34Z</time>
      </trkpt>
      <trkpt lat="49.92653" lon="2.15591">
        <ele>81.7</ele>
        <time>2022-11-09T14:43:36Z</time>
      </trkpt>
      <trkpt lat="49.92653" lon="2.15592">
        <ele>81.6</ele>
        <time>2022-11-09T14:43:37Z</time>
      </trkpt>
      <trkpt lat="49.92653" lon="2.15594">
        <ele>81.6</ele>
        <time>2022-11-09T14:43:38Z</time>
      </trkpt>
      <trkpt lat="49.92653" lon="2.15595">
        <ele>81.6</ele>
        <time>2022-11-09T14:43:39Z</time>
      </trkpt>
      <trkpt lat="49.92653" lon="2.15596">
        <ele>81.6</ele>
        <time>2022-11-09T14:43:40Z</time>
      </trkpt>
      <trkpt lat="49.92653" lon="2.15598">
        <ele>81.6</ele>
        <time>2022-11-09T14:43:42Z</time>
      </trkpt>
      <trkpt lat="49.92653" lon="2.156">
        <ele>81.5</ele>
        <time>2022-11-09T14:43:43Z</time>
      </trkpt>
      <trkpt lat="49.92653" lon="2.15603">
        <ele>81.5</ele>
        <time>2022-11-09T14:43:44Z</time>
      </trkpt>
      <trkpt lat="49.92652" lon="2.15604">
        <ele>81.4</ele>
        <time>2022-11-09T14:43:45Z</time>
      </trkpt>
      <trkpt lat="49.92652" lon="2.15606">
        <ele>81.4</ele>
        <time>2022-11-09T14:43:47Z</time>
      </trkpt>
      <trkpt lat="49.92652" lon="2.15607">
        <ele>81.4</ele>
        <time>2022-11-09T14:43:48Z</time>
      </trkpt>
      <trkpt lat="49.92651" lon="2.1561">
        <ele>81.3</ele>
        <time>2022-11-09T14:43:49Z</time>
      </trkpt>
      <trkpt lat="49.92651" lon="2.15612">
        <ele>81.3</ele>
        <time>2022-11-09T14:43:50Z</time>
      </trkpt>
      <trkpt lat="49.92651" lon="2.15613">
        <ele>81.3</ele>
        <time>2022-11-09T14:43:51Z</time>
      </trkpt>
      <trkpt lat="49.92651" lon="2.15615">
        <ele>81.3</ele>
        <time>2022-11-09T14:43:52Z</time>
      </trkpt>
      <trkpt lat="49.92651" lon="2.15616">
        <ele>81.2</ele>
        <time>2022-11-09T14:43:54Z</time>
      </trkpt>
      <trkpt lat="49.92651" lon="2.15618">
        <ele>81.2</ele>
        <time>2022-11-09T14:43:55Z</time>
      </trkpt>
      <trkpt lat="49.92651" lon="2.15619">
        <ele>81.2</ele>
        <time>2022-11-09T14:43:56Z</time>
      </trkpt>
      <trkpt lat="49.9265" lon="2.15619">
        <ele>81.2</ele>
        <time>2022-11-09T14:43:57Z</time>
      </trkpt>
      <trkpt lat="49.9265" lon="2.1562">
        <ele>81.2</ele>
        <time>2022-11-09T14:43:58Z</time>
      </trkpt>
      <trkpt lat="49.9265" lon="2.15622">
        <ele>81.1</ele>
        <time>2022-11-09T14:43:59Z</time>
      </trkpt>
      <trkpt lat="49.9265" lon="2.15624">
        <ele>81.1</ele>
        <time>2022-11-09T14:44:00Z</time>
      </trkpt>
      <trkpt lat="49.9265" lon="2.15627">
        <ele>81.1</ele>
        <time>2022-11-09T14:44:01Z</time>
      </trkpt>
      <trkpt lat="49.9265" lon="2.15629">
        <ele>81</ele>
        <time>2022-11-09T14:44:02Z</time>
      </trkpt>
      <trkpt lat="49.9265" lon="2.15632">
        <ele>81</ele>
        <time>2022-11-09T14:44:03Z</time>
      </trkpt>
      <trkpt lat="49.9265" lon="2.15635">
        <ele>80.9</ele>
        <time>2022-11-09T14:44:04Z</time>
      </trkpt>
      <trkpt lat="49.9265" lon="2.15636">
        <ele>80.9</ele>
        <time>2022-11-09T14:44:06Z</time>
      </trkpt>
      <trkpt lat="49.9265" lon="2.15638">
        <ele>80.9</ele>
        <time>2022-11-09T14:44:07Z</time>
      </trkpt>
      <trkpt lat="49.9265" lon="2.15639">
        <ele>80.8</ele>
        <time>2022-11-09T14:44:08Z</time>
      </trkpt>
      <trkpt lat="49.92649" lon="2.1564">
        <ele>80.8</ele>
        <time>2022-11-09T14:44:09Z</time>
      </trkpt>
      <trkpt lat="49.92649" lon="2.15641">
        <ele>80.8</ele>
        <time>2022-11-09T14:44:10Z</time>
      </trkpt>
      <trkpt lat="49.92649" lon="2.15644">
        <ele>80.8</ele>
        <time>2022-11-09T14:44:11Z</time>
      </trkpt>
      <trkpt lat="49.92649" lon="2.15647">
        <ele>80.7</ele>
        <time>2022-11-09T14:44:12Z</time>
      </trkpt>
      <trkpt lat="49.92649" lon="2.1565">
        <ele>80.6</ele>
        <time>2022-11-09T14:44:13Z</time>
      </trkpt>
      <trkpt lat="49.92648" lon="2.15654">
        <ele>80.6</ele>
        <time>2022-11-09T14:44:15Z</time>
      </trkpt>
      <trkpt lat="49.92648" lon="2.1566">
        <ele>80.5</ele>
        <time>2022-11-09T14:44:16Z</time>
      </trkpt>
      <trkpt lat="49.92648" lon="2.15661">
        <ele>80.4</ele>
        <time>2022-11-09T14:44:17Z</time>
      </trkpt>
      <trkpt lat="49.92647" lon="2.15663">
        <ele>80.4</ele>
        <time>2022-11-09T14:44:18Z</time>
      </trkpt>
      <trkpt lat="49.92646" lon="2.15665">
        <ele>80.3</ele>
        <time>2022-11-09T14:44:19Z</time>
      </trkpt>
      <trkpt lat="49.92646" lon="2.15669">
        <ele>80.3</ele>
        <time>2022-11-09T14:44:21Z</time>
      </trkpt>
      <trkpt lat="49.92646" lon="2.1567">
        <ele>80.3</ele>
        <time>2022-11-09T14:44:22Z</time>
      </trkpt>
      <trkpt lat="49.92646" lon="2.15671">
        <ele>80.2</ele>
        <time>2022-11-09T14:44:23Z</time>
      </trkpt>
      <trkpt lat="49.92645" lon="2.15673">
        <ele>80.2</ele>
        <time>2022-11-09T14:44:24Z</time>
      </trkpt>
      <trkpt lat="49.92645" lon="2.15675">
        <ele>80.1</ele>
        <time>2022-11-09T14:44:25Z</time>
      </trkpt>
      <trkpt lat="49.92645" lon="2.15678">
        <ele>80.1</ele>
        <time>2022-11-09T14:44:26Z</time>
      </trkpt>
      <trkpt lat="49.92644" lon="2.1568">
        <ele>80.1</ele>
        <time>2022-11-09T14:44:27Z</time>
      </trkpt>
      <trkpt lat="49.92644" lon="2.15682">
        <ele>80</ele>
        <time>2022-11-09T14:44:28Z</time>
      </trkpt>
      <trkpt lat="49.92644" lon="2.15684">
        <ele>80</ele>
        <time>2022-11-09T14:44:29Z</time>
      </trkpt>
      <trkpt lat="49.92644" lon="2.15686">
        <ele>79.9</ele>
        <time>2022-11-09T14:44:30Z</time>
      </trkpt>
      <trkpt lat="49.92643" lon="2.15688">
        <ele>79.9</ele>
        <time>2022-11-09T14:44:31Z</time>
      </trkpt>
      <trkpt lat="49.92643" lon="2.1569">
        <ele>79.8</ele>
        <time>2022-11-09T14:44:33Z</time>
      </trkpt>
      <trkpt lat="49.92642" lon="2.15692">
        <ele>79.8</ele>
        <time>2022-11-09T14:44:34Z</time>
      </trkpt>
      <trkpt lat="49.92642" lon="2.15694">
        <ele>79.8</ele>
        <time>2022-11-09T14:44:35Z</time>
      </trkpt>
      <trkpt lat="49.92642" lon="2.15696">
        <ele>79.7</ele>
        <time>2022-11-09T14:44:36Z</time>
      </trkpt>
      <trkpt lat="49.92642" lon="2.15698">
        <ele>79.7</ele>
        <time>2022-11-09T14:44:37Z</time>
      </trkpt>
      <trkpt lat="49.92642" lon="2.157">
        <ele>79.6</ele>
        <time>2022-11-09T14:44:38Z</time>
      </trkpt>
      <trkpt lat="49.92641" lon="2.15702">
        <ele>79.6</ele>
        <time>2022-11-09T14:44:39Z</time>
      </trkpt>
      <trkpt lat="49.92641" lon="2.15704">
        <ele>79.5</ele>
        <time>2022-11-09T14:44:41Z</time>
      </trkpt>
      <trkpt lat="49.92641" lon="2.15706">
        <ele>79.5</ele>
        <time>2022-11-09T14:44:42Z</time>
      </trkpt>
      <trkpt lat="49.9264" lon="2.15708">
        <ele>79.4</ele>
        <time>2022-11-09T14:44:43Z</time>
      </trkpt>
      <trkpt lat="49.9264" lon="2.1571">
        <ele>79.4</ele>
        <time>2022-11-09T14:44:44Z</time>
      </trkpt>
      <trkpt lat="49.9264" lon="2.15712">
        <ele>79.3</ele>
        <time>2022-11-09T14:44:45Z</time>
      </trkpt>
      <trkpt lat="49.92639" lon="2.15715">
        <ele>79.2</ele>
        <time>2022-11-09T14:44:46Z</time>
      </trkpt>
      <trkpt lat="49.92639" lon="2.15717">
        <ele>79.2</ele>
        <time>2022-11-09T14:44:47Z</time>
      </trkpt>
      <trkpt lat="49.92639" lon="2.15718">
        <ele>79.2</ele>
        <time>2022-11-09T14:44:48Z</time>
      </trkpt>
      <trkpt lat="49.92639" lon="2.1572">
        <ele>79.1</ele>
        <time>2022-11-09T14:44:50Z</time>
      </trkpt>
      <trkpt lat="49.92639" lon="2.15722">
        <ele>79.1</ele>
        <time>2022-11-09T14:44:51Z</time>
      </trkpt>
      <trkpt lat="49.92639" lon="2.15725">
        <ele>79</ele>
        <time>2022-11-09T14:44:52Z</time>
      </trkpt>
      <trkpt lat="49.92638" lon="2.15727">
        <ele>78.9</ele>
        <time>2022-11-09T14:44:54Z</time>
      </trkpt>
      <trkpt lat="49.92638" lon="2.15729">
        <ele>78.9</ele>
        <time>2022-11-09T14:44:55Z</time>
      </trkpt>
      <trkpt lat="49.92638" lon="2.15731">
        <ele>78.8</ele>
        <time>2022-11-09T14:44:56Z</time>
      </trkpt>
      <trkpt lat="49.92637" lon="2.15734">
        <ele>78.8</ele>
        <time>2022-11-09T14:44:57Z</time>
      </trkpt>
      <trkpt lat="49.92637" lon="2.15736">
        <ele>78.7</ele>
        <time>2022-11-09T14:44:58Z</time>
      </trkpt>
      <trkpt lat="49.92637" lon="2.15738">
        <ele>78.7</ele>
        <time>2022-11-09T14:44:59Z</time>
      </trkpt>
      <trkpt lat="49.92636" lon="2.15741">
        <ele>78.6</ele>
        <time>2022-11-09T14:45:00Z</time>
      </trkpt>
      <trkpt lat="49.92636" lon="2.15743">
        <ele>78.6</ele>
        <time>2022-11-09T14:45:01Z</time>
      </trkpt>
      <trkpt lat="49.92636" lon="2.15745">
        <ele>78.5</ele>
        <time>2022-11-09T14:45:02Z</time>
      </trkpt>
      <trkpt lat="49.92636" lon="2.15747">
        <ele>78.5</ele>
        <time>2022-11-09T14:45:03Z</time>
      </trkpt>
      <trkpt lat="49.92635" lon="2.15748">
        <ele>78.5</ele>
        <time>2022-11-09T14:45:04Z</time>
      </trkpt>
      <trkpt lat="49.92635" lon="2.1575">
        <ele>78.4</ele>
        <time>2022-11-09T14:45:05Z</time>
      </trkpt>
      <trkpt lat="49.92635" lon="2.15753">
        <ele>78.4</ele>
        <time>2022-11-09T14:45:06Z</time>
      </trkpt>
      <trkpt lat="49.92635" lon="2.15755">
        <ele>78.3</ele>
        <time>2022-11-09T14:45:07Z</time>
      </trkpt>
      <trkpt lat="49.92634" lon="2.15758">
        <ele>78.2</ele>
        <time>2022-11-09T14:45:09Z</time>
      </trkpt>
      <trkpt lat="49.92634" lon="2.1576">
        <ele>78.2</ele>
        <time>2022-11-09T14:45:10Z</time>
      </trkpt>
      <trkpt lat="49.92634" lon="2.15761">
        <ele>78.2</ele>
        <time>2022-11-09T14:45:11Z</time>
      </trkpt>
      <trkpt lat="49.92634" lon="2.15763">
        <ele>78.1</ele>
        <time>2022-11-09T14:45:12Z</time>
      </trkpt>
      <trkpt lat="49.92634" lon="2.15766">
        <ele>78.1</ele>
        <time>2022-11-09T14:45:13Z</time>
      </trkpt>
      <trkpt lat="49.92633" lon="2.15768">
        <ele>78</ele>
        <time>2022-11-09T14:45:14Z</time>
      </trkpt>
      <trkpt lat="49.92633" lon="2.1577">
        <ele>78</ele>
        <time>2022-11-09T14:45:15Z</time>
      </trkpt>
      <trkpt lat="49.92633" lon="2.15772">
        <ele>77.9</ele>
        <time>2022-11-09T14:45:16Z</time>
      </trkpt>
      <trkpt lat="49.92633" lon="2.15775">
        <ele>77.9</ele>
        <time>2022-11-09T14:45:17Z</time>
      </trkpt>
      <trkpt lat="49.92632" lon="2.15778">
        <ele>77.8</ele>
        <time>2022-11-09T14:45:18Z</time>
      </trkpt>
      <trkpt lat="49.92632" lon="2.15779">
        <ele>77.8</ele>
        <time>2022-11-09T14:45:19Z</time>
      </trkpt>
      <trkpt lat="49.92632" lon="2.1578">
        <ele>77.8</ele>
        <time>2022-11-09T14:45:20Z</time>
      </trkpt>
      <trkpt lat="49.92632" lon="2.15784">
        <ele>77.7</ele>
        <time>2022-11-09T14:45:21Z</time>
      </trkpt>
      <trkpt lat="49.92632" lon="2.15785">
        <ele>77.7</ele>
        <time>2022-11-09T14:45:23Z</time>
      </trkpt>
      <trkpt lat="49.92632" lon="2.15787">
        <ele>77.6</ele>
        <time>2022-11-09T14:45:24Z</time>
      </trkpt>
      <trkpt lat="49.92631" lon="2.15789">
        <ele>77.6</ele>
        <time>2022-11-09T14:45:25Z</time>
      </trkpt>
      <trkpt lat="49.92631" lon="2.1579">
        <ele>77.6</ele>
        <time>2022-11-09T14:45:26Z</time>
      </trkpt>
      <trkpt lat="49.92631" lon="2.15793">
        <ele>77.5</ele>
        <time>2022-11-09T14:45:27Z</time>
      </trkpt>
      <trkpt lat="49.92631" lon="2.15795">
        <ele>77.5</ele>
        <time>2022-11-09T14:45:28Z</time>
      </trkpt>
      <trkpt lat="49.92631" lon="2.15796">
        <ele>77.4</ele>
        <time>2022-11-09T14:45:29Z</time>
      </trkpt>
      <trkpt lat="49.92631" lon="2.15798">
        <ele>77.4</ele>
        <time>2022-11-09T14:45:30Z</time>
      </trkpt>
      <trkpt lat="49.92631" lon="2.15801">
        <ele>77.3</ele>
        <time>2022-11-09T14:45:31Z</time>
      </trkpt>
      <trkpt lat="49.9263" lon="2.15804">
        <ele>77.3</ele>
        <time>2022-11-09T14:45:32Z</time>
      </trkpt>
      <trkpt lat="49.9263" lon="2.15805">
        <ele>77.2</ele>
        <time>2022-11-09T14:45:33Z</time>
      </trkpt>
      <trkpt lat="49.9263" lon="2.15806">
        <ele>77.2</ele>
        <time>2022-11-09T14:45:34Z</time>
      </trkpt>
      <trkpt lat="49.9263" lon="2.15809">
        <ele>77.1</ele>
        <time>2022-11-09T14:45:35Z</time>
      </trkpt>
      <trkpt lat="49.9263" lon="2.1581">
        <ele>77.1</ele>
        <time>2022-11-09T14:45:37Z</time>
      </trkpt>
      <trkpt lat="49.92629" lon="2.15812">
        <ele>77.1</ele>
        <time>2022-11-09T14:45:38Z</time>
      </trkpt>
      <trkpt lat="49.92629" lon="2.15815">
        <ele>77</ele>
        <time>2022-11-09T14:45:39Z</time>
      </trkpt>
      <trkpt lat="49.92629" lon="2.15816">
        <ele>77</ele>
        <time>2022-11-09T14:45:40Z</time>
      </trkpt>
      <trkpt lat="49.92629" lon="2.15818">
        <ele>76.9</ele>
        <time>2022-11-09T14:45:41Z</time>
      </trkpt>
      <trkpt lat="49.92629" lon="2.15821">
        <ele>76.9</ele>
        <time>2022-11-09T14:45:42Z</time>
      </trkpt>
      <trkpt lat="49.92628" lon="2.15822">
        <ele>76.8</ele>
        <time>2022-11-09T14:45:43Z</time>
      </trkpt>
      <trkpt lat="49.92628" lon="2.15824">
        <ele>76.8</ele>
        <time>2022-11-09T14:45:44Z</time>
      </trkpt>
      <trkpt lat="49.92628" lon="2.15825">
        <ele>76.8</ele>
        <time>2022-11-09T14:45:45Z</time>
      </trkpt>
      <trkpt lat="49.92628" lon="2.15827">
        <ele>76.7</ele>
        <time>2022-11-09T14:45:46Z</time>
      </trkpt>
      <trkpt lat="49.92628" lon="2.15829">
        <ele>76.7</ele>
        <time>2022-11-09T14:45:47Z</time>
      </trkpt>
      <trkpt lat="49.92628" lon="2.15831">
        <ele>76.6</ele>
        <time>2022-11-09T14:45:49Z</time>
      </trkpt>
      <trkpt lat="49.92628" lon="2.15832">
        <ele>76.6</ele>
        <time>2022-11-09T14:45:50Z</time>
      </trkpt>
      <trkpt lat="49.92628" lon="2.15834">
        <ele>76.6</ele>
        <time>2022-11-09T14:45:51Z</time>
      </trkpt>
      <trkpt lat="49.92628" lon="2.15838">
        <ele>76.5</ele>
        <time>2022-11-09T14:45:52Z</time>
      </trkpt>
      <trkpt lat="49.92628" lon="2.15839">
        <ele>76.5</ele>
        <time>2022-11-09T14:45:53Z</time>
      </trkpt>
      <trkpt lat="49.92628" lon="2.1584">
        <ele>76.4</ele>
        <time>2022-11-09T14:45:54Z</time>
      </trkpt>
      <trkpt lat="49.92628" lon="2.15844">
        <ele>76.4</ele>
        <time>2022-11-09T14:45:55Z</time>
      </trkpt>
      <trkpt lat="49.92628" lon="2.15845">
        <ele>76.3</ele>
        <time>2022-11-09T14:45:56Z</time>
      </trkpt>
      <trkpt lat="49.92628" lon="2.15846">
        <ele>76.3</ele>
        <time>2022-11-09T14:45:57Z</time>
      </trkpt>
      <trkpt lat="49.92629" lon="2.15848">
        <ele>76.3</ele>
        <time>2022-11-09T14:45:58Z</time>
      </trkpt>
      <trkpt lat="49.92629" lon="2.15849">
        <ele>76.2</ele>
        <time>2022-11-09T14:45:59Z</time>
      </trkpt>
      <trkpt lat="49.92629" lon="2.15851">
        <ele>76.2</ele>
        <time>2022-11-09T14:46:00Z</time>
      </trkpt>
      <trkpt lat="49.92629" lon="2.15853">
        <ele>76.2</ele>
        <time>2022-11-09T14:46:02Z</time>
      </trkpt>
      <trkpt lat="49.92629" lon="2.15855">
        <ele>76.1</ele>
        <time>2022-11-09T14:46:03Z</time>
      </trkpt>
      <trkpt lat="49.92629" lon="2.15857">
        <ele>76.1</ele>
        <time>2022-11-09T14:46:04Z</time>
      </trkpt>
      <trkpt lat="49.92629" lon="2.15858">
        <ele>76.1</ele>
        <time>2022-11-09T14:46:05Z</time>
      </trkpt>
      <trkpt lat="49.92629" lon="2.1586">
        <ele>76</ele>
        <time>2022-11-09T14:46:06Z</time>
      </trkpt>
      <trkpt lat="49.92629" lon="2.15861">
        <ele>76</ele>
        <time>2022-11-09T14:46:07Z</time>
      </trkpt>
      <trkpt lat="49.92629" lon="2.15864">
        <ele>75.9</ele>
        <time>2022-11-09T14:46:09Z</time>
      </trkpt>
      <trkpt lat="49.92629" lon="2.15866">
        <ele>75.9</ele>
        <time>2022-11-09T14:46:10Z</time>
      </trkpt>
      <trkpt lat="49.92629" lon="2.15868">
        <ele>75.9</ele>
        <time>2022-11-09T14:46:11Z</time>
      </trkpt>
      <trkpt lat="49.92629" lon="2.1587">
        <ele>75.8</ele>
        <time>2022-11-09T14:46:12Z</time>
      </trkpt>
      <trkpt lat="49.92629" lon="2.15872">
        <ele>75.8</ele>
        <time>2022-11-09T14:46:13Z</time>
      </trkpt>
      <trkpt lat="49.92629" lon="2.15876">
        <ele>75.7</ele>
        <time>2022-11-09T14:46:14Z</time>
      </trkpt>
      <trkpt lat="49.92629" lon="2.15877">
        <ele>75.7</ele>
        <time>2022-11-09T14:46:15Z</time>
      </trkpt>
      <trkpt lat="49.92629" lon="2.15878">
        <ele>75.7</ele>
        <time>2022-11-09T14:46:16Z</time>
      </trkpt>
      <trkpt lat="49.92629" lon="2.15881">
        <ele>75.6</ele>
        <time>2022-11-09T14:46:17Z</time>
      </trkpt>
      <trkpt lat="49.92629" lon="2.15883">
        <ele>75.6</ele>
        <time>2022-11-09T14:46:18Z</time>
      </trkpt>
      <trkpt lat="49.92629" lon="2.15886">
        <ele>75.5</ele>
        <time>2022-11-09T14:46:20Z</time>
      </trkpt>
      <trkpt lat="49.92629" lon="2.15887">
        <ele>75.5</ele>
        <time>2022-11-09T14:46:21Z</time>
      </trkpt>
      <trkpt lat="49.92629" lon="2.15889">
        <ele>75.5</ele>
        <time>2022-11-09T14:46:22Z</time>
      </trkpt>
      <trkpt lat="49.92629" lon="2.15891">
        <ele>75.4</ele>
        <time>2022-11-09T14:46:23Z</time>
      </trkpt>
      <trkpt lat="49.9263" lon="2.15893">
        <ele>75.4</ele>
        <time>2022-11-09T14:46:24Z</time>
      </trkpt>
      <trkpt lat="49.9263" lon="2.15896">
        <ele>75.3</ele>
        <time>2022-11-09T14:46:25Z</time>
      </trkpt>
      <trkpt lat="49.9263" lon="2.15898">
        <ele>75.3</ele>
        <time>2022-11-09T14:46:26Z</time>
      </trkpt>
      <trkpt lat="49.9263" lon="2.15899">
        <ele>75.3</ele>
        <time>2022-11-09T14:46:27Z</time>
      </trkpt>
      <trkpt lat="49.92631" lon="2.15901">
        <ele>75.2</ele>
        <time>2022-11-09T14:46:29Z</time>
      </trkpt>
      <trkpt lat="49.92631" lon="2.15902">
        <ele>75.2</ele>
        <time>2022-11-09T14:46:30Z</time>
      </trkpt>
      <trkpt lat="49.92631" lon="2.15904">
        <ele>75.2</ele>
        <time>2022-11-09T14:46:31Z</time>
      </trkpt>
      <trkpt lat="49.9263" lon="2.15907">
        <ele>75.1</ele>
        <time>2022-11-09T14:46:32Z</time>
      </trkpt>
      <trkpt lat="49.9263" lon="2.15909">
        <ele>75.1</ele>
        <time>2022-11-09T14:46:33Z</time>
      </trkpt>
      <trkpt lat="49.9263" lon="2.1591">
        <ele>75</ele>
        <time>2022-11-09T14:46:34Z</time>
      </trkpt>
      <trkpt lat="49.9263" lon="2.15914">
        <ele>75</ele>
        <time>2022-11-09T14:46:35Z</time>
      </trkpt>
      <trkpt lat="49.9263" lon="2.15915">
        <ele>74.9</ele>
        <time>2022-11-09T14:46:36Z</time>
      </trkpt>
      <trkpt lat="49.9263" lon="2.15916">
        <ele>74.9</ele>
        <time>2022-11-09T14:46:37Z</time>
      </trkpt>
      <trkpt lat="49.9263" lon="2.15918">
        <ele>74.9</ele>
        <time>2022-11-09T14:46:38Z</time>
      </trkpt>
      <trkpt lat="49.9263" lon="2.1592">
        <ele>74.9</ele>
        <time>2022-11-09T14:46:39Z</time>
      </trkpt>
      <trkpt lat="49.9263" lon="2.15922">
        <ele>74.8</ele>
        <time>2022-11-09T14:46:40Z</time>
      </trkpt>
      <trkpt lat="49.9263" lon="2.15925">
        <ele>74.8</ele>
        <time>2022-11-09T14:46:41Z</time>
      </trkpt>
      <trkpt lat="49.9263" lon="2.15926">
        <ele>74.7</ele>
        <time>2022-11-09T14:46:43Z</time>
      </trkpt>
      <trkpt lat="49.9263" lon="2.15928">
        <ele>74.7</ele>
        <time>2022-11-09T14:46:44Z</time>
      </trkpt>
      <trkpt lat="49.92629" lon="2.15931">
        <ele>74.6</ele>
        <time>2022-11-09T14:46:45Z</time>
      </trkpt>
      <trkpt lat="49.92629" lon="2.15932">
        <ele>74.6</ele>
        <time>2022-11-09T14:46:46Z</time>
      </trkpt>
      <trkpt lat="49.92629" lon="2.15934">
        <ele>74.6</ele>
        <time>2022-11-09T14:46:47Z</time>
      </trkpt>
      <trkpt lat="49.92629" lon="2.15935">
        <ele>74.5</ele>
        <time>2022-11-09T14:46:48Z</time>
      </trkpt>
      <trkpt lat="49.9263" lon="2.15937">
        <ele>74.5</ele>
        <time>2022-11-09T14:46:49Z</time>
      </trkpt>
      <trkpt lat="49.9263" lon="2.15939">
        <ele>74.5</ele>
        <time>2022-11-09T14:46:50Z</time>
      </trkpt>
      <trkpt lat="49.9263" lon="2.15941">
        <ele>74.4</ele>
        <time>2022-11-09T14:46:51Z</time>
      </trkpt>
      <trkpt lat="49.9263" lon="2.15943">
        <ele>74.4</ele>
        <time>2022-11-09T14:46:52Z</time>
      </trkpt>
      <trkpt lat="49.92631" lon="2.15945">
        <ele>74.4</ele>
        <time>2022-11-09T14:46:54Z</time>
      </trkpt>
      <trkpt lat="49.92631" lon="2.15947">
        <ele>74.3</ele>
        <time>2022-11-09T14:46:55Z</time>
      </trkpt>
      <trkpt lat="49.92631" lon="2.15949">
        <ele>74.3</ele>
        <time>2022-11-09T14:46:56Z</time>
      </trkpt>
      <trkpt lat="49.92631" lon="2.1595">
        <ele>74.3</ele>
        <time>2022-11-09T14:46:57Z</time>
      </trkpt>
      <trkpt lat="49.92632" lon="2.15953">
        <ele>74.2</ele>
        <time>2022-11-09T14:46:58Z</time>
      </trkpt>
      <trkpt lat="49.92632" lon="2.15955">
        <ele>74.2</ele>
        <time>2022-11-09T14:46:59Z</time>
      </trkpt>
      <trkpt lat="49.92632" lon="2.15956">
        <ele>74.1</ele>
        <time>2022-11-09T14:47:00Z</time>
      </trkpt>
      <trkpt lat="49.92632" lon="2.15958">
        <ele>74.1</ele>
        <time>2022-11-09T14:47:01Z</time>
      </trkpt>
      <trkpt lat="49.92632" lon="2.15959">
        <ele>74.1</ele>
        <time>2022-11-09T14:47:02Z</time>
      </trkpt>
      <trkpt lat="49.92632" lon="2.15961">
        <ele>74</ele>
        <time>2022-11-09T14:47:03Z</time>
      </trkpt>
      <trkpt lat="49.92633" lon="2.15963">
        <ele>74</ele>
        <time>2022-11-09T14:47:05Z</time>
      </trkpt>
      <trkpt lat="49.92633" lon="2.15966">
        <ele>73.9</ele>
        <time>2022-11-09T14:47:06Z</time>
      </trkpt>
      <trkpt lat="49.92633" lon="2.15968">
        <ele>73.9</ele>
        <time>2022-11-09T14:47:07Z</time>
      </trkpt>
      <trkpt lat="49.92633" lon="2.1597">
        <ele>73.8</ele>
        <time>2022-11-09T14:47:08Z</time>
      </trkpt>
      <trkpt lat="49.92633" lon="2.15972">
        <ele>73.8</ele>
        <time>2022-11-09T14:47:09Z</time>
      </trkpt>
      <trkpt lat="49.92634" lon="2.15975">
        <ele>73.7</ele>
        <time>2022-11-09T14:47:11Z</time>
      </trkpt>
      <trkpt lat="49.92634" lon="2.15977">
        <ele>73.7</ele>
        <time>2022-11-09T14:47:12Z</time>
      </trkpt>
      <trkpt lat="49.92634" lon="2.15978">
        <ele>73.7</ele>
        <time>2022-11-09T14:47:13Z</time>
      </trkpt>
      <trkpt lat="49.92634" lon="2.1598">
        <ele>73.6</ele>
        <time>2022-11-09T14:47:14Z</time>
      </trkpt>
      <trkpt lat="49.92635" lon="2.15983">
        <ele>73.6</ele>
        <time>2022-11-09T14:47:15Z</time>
      </trkpt>
      <trkpt lat="49.92635" lon="2.15984">
        <ele>73.5</ele>
        <time>2022-11-09T14:47:16Z</time>
      </trkpt>
      <trkpt lat="49.92635" lon="2.15986">
        <ele>73.5</ele>
        <time>2022-11-09T14:47:17Z</time>
      </trkpt>
      <trkpt lat="49.92635" lon="2.15988">
        <ele>73.5</ele>
        <time>2022-11-09T14:47:18Z</time>
      </trkpt>
      <trkpt lat="49.92635" lon="2.1599">
        <ele>73.4</ele>
        <time>2022-11-09T14:47:19Z</time>
      </trkpt>
      <trkpt lat="49.92635" lon="2.15992">
        <ele>73.4</ele>
        <time>2022-11-09T14:47:20Z</time>
      </trkpt>
      <trkpt lat="49.92635" lon="2.15995">
        <ele>73.3</ele>
        <time>2022-11-09T14:47:21Z</time>
      </trkpt>
      <trkpt lat="49.92635" lon="2.15998">
        <ele>73.2</ele>
        <time>2022-11-09T14:47:23Z</time>
      </trkpt>
      <trkpt lat="49.92635" lon="2.15999">
        <ele>73.2</ele>
        <time>2022-11-09T14:47:24Z</time>
      </trkpt>
      <trkpt lat="49.92635" lon="2.16">
        <ele>73.2</ele>
        <time>2022-11-09T14:47:25Z</time>
      </trkpt>
      <trkpt lat="49.92636" lon="2.16003">
        <ele>73.1</ele>
        <time>2022-11-09T14:47:26Z</time>
      </trkpt>
      <trkpt lat="49.92636" lon="2.16005">
        <ele>73.1</ele>
        <time>2022-11-09T14:47:27Z</time>
      </trkpt>
      <trkpt lat="49.92636" lon="2.16006">
        <ele>73.1</ele>
        <time>2022-11-09T14:47:28Z</time>
      </trkpt>
      <trkpt lat="49.92636" lon="2.16008">
        <ele>73</ele>
        <time>2022-11-09T14:47:29Z</time>
      </trkpt>
      <trkpt lat="49.92636" lon="2.1601">
        <ele>73</ele>
        <time>2022-11-09T14:47:30Z</time>
      </trkpt>
      <trkpt lat="49.92637" lon="2.16012">
        <ele>72.9</ele>
        <time>2022-11-09T14:47:31Z</time>
      </trkpt>
      <trkpt lat="49.92637" lon="2.16014">
        <ele>72.9</ele>
        <time>2022-11-09T14:47:32Z</time>
      </trkpt>
      <trkpt lat="49.92637" lon="2.16018">
        <ele>72.8</ele>
        <time>2022-11-09T14:47:33Z</time>
      </trkpt>
      <trkpt lat="49.92638" lon="2.16019">
        <ele>72.8</ele>
        <time>2022-11-09T14:47:34Z</time>
      </trkpt>
      <trkpt lat="49.92638" lon="2.1602">
        <ele>72.7</ele>
        <time>2022-11-09T14:47:35Z</time>
      </trkpt>
      <trkpt lat="49.92638" lon="2.16024">
        <ele>72.7</ele>
        <time>2022-11-09T14:47:36Z</time>
      </trkpt>
      <trkpt lat="49.92638" lon="2.16025">
        <ele>72.6</ele>
        <time>2022-11-09T14:47:38Z</time>
      </trkpt>
      <trkpt lat="49.92638" lon="2.16026">
        <ele>72.6</ele>
        <time>2022-11-09T14:47:39Z</time>
      </trkpt>
      <trkpt lat="49.92638" lon="2.1603">
        <ele>72.5</ele>
        <time>2022-11-09T14:47:40Z</time>
      </trkpt>
      <trkpt lat="49.92638" lon="2.16031">
        <ele>72.5</ele>
        <time>2022-11-09T14:47:41Z</time>
      </trkpt>
      <trkpt lat="49.92638" lon="2.16032">
        <ele>72.4</ele>
        <time>2022-11-09T14:47:42Z</time>
      </trkpt>
      <trkpt lat="49.92638" lon="2.16036">
        <ele>72.3</ele>
        <time>2022-11-09T14:47:43Z</time>
      </trkpt>
      <trkpt lat="49.92638" lon="2.16037">
        <ele>72.3</ele>
        <time>2022-11-09T14:47:44Z</time>
      </trkpt>
      <trkpt lat="49.92638" lon="2.16038">
        <ele>72.3</ele>
        <time>2022-11-09T14:47:45Z</time>
      </trkpt>
      <trkpt lat="49.92638" lon="2.1604">
        <ele>72.2</ele>
        <time>2022-11-09T14:47:46Z</time>
      </trkpt>
      <trkpt lat="49.92638" lon="2.16042">
        <ele>72.2</ele>
        <time>2022-11-09T14:47:47Z</time>
      </trkpt>
      <trkpt lat="49.92638" lon="2.16044">
        <ele>72.1</ele>
        <time>2022-11-09T14:47:49Z</time>
      </trkpt>
      <trkpt lat="49.92638" lon="2.16046">
        <ele>72.1</ele>
        <time>2022-11-09T14:47:50Z</time>
      </trkpt>
      <trkpt lat="49.92638" lon="2.16048">
        <ele>72</ele>
        <time>2022-11-09T14:47:51Z</time>
      </trkpt>
      <trkpt lat="49.92638" lon="2.16049">
        <ele>72</ele>
        <time>2022-11-09T14:47:52Z</time>
      </trkpt>
      <trkpt lat="49.92638" lon="2.1605">
        <ele>72</ele>
        <time>2022-11-09T14:47:53Z</time>
      </trkpt>
      <trkpt lat="49.92639" lon="2.16052">
        <ele>72</ele>
        <time>2022-11-09T14:47:54Z</time>
      </trkpt>
      <trkpt lat="49.92639" lon="2.16054">
        <ele>71.9</ele>
        <time>2022-11-09T14:47:55Z</time>
      </trkpt>
      <trkpt lat="49.9264" lon="2.16057">
        <ele>71.8</ele>
        <time>2022-11-09T14:47:56Z</time>
      </trkpt>
      <trkpt lat="49.9264" lon="2.16058">
        <ele>71.8</ele>
        <time>2022-11-09T14:47:57Z</time>
      </trkpt>
      <trkpt lat="49.9264" lon="2.16059">
        <ele>71.8</ele>
        <time>2022-11-09T14:47:58Z</time>
      </trkpt>
      <trkpt lat="49.9264" lon="2.16062">
        <ele>71.7</ele>
        <time>2022-11-09T14:47:59Z</time>
      </trkpt>
      <trkpt lat="49.92641" lon="2.16064">
        <ele>71.6</ele>
        <time>2022-11-09T14:48:01Z</time>
      </trkpt>
      <trkpt lat="49.92641" lon="2.16065">
        <ele>71.6</ele>
        <time>2022-11-09T14:48:02Z</time>
      </trkpt>
      <trkpt lat="49.92641" lon="2.16066">
        <ele>71.6</ele>
        <time>2022-11-09T14:48:03Z</time>
      </trkpt>
      <trkpt lat="49.92641" lon="2.16068">
        <ele>71.5</ele>
        <time>2022-11-09T14:48:04Z</time>
      </trkpt>
      <trkpt lat="49.92642" lon="2.1607">
        <ele>71.5</ele>
        <time>2022-11-09T14:48:05Z</time>
      </trkpt>
      <trkpt lat="49.92642" lon="2.16072">
        <ele>71.4</ele>
        <time>2022-11-09T14:48:07Z</time>
      </trkpt>
      <trkpt lat="49.92642" lon="2.16074">
        <ele>71.4</ele>
        <time>2022-11-09T14:48:08Z</time>
      </trkpt>
      <trkpt lat="49.92643" lon="2.16078">
        <ele>71.3</ele>
        <time>2022-11-09T14:48:09Z</time>
      </trkpt>
      <trkpt lat="49.92643" lon="2.16079">
        <ele>71.2</ele>
        <time>2022-11-09T14:48:10Z</time>
      </trkpt>
      <trkpt lat="49.92643" lon="2.1608">
        <ele>71.1</ele>
        <time>2022-11-09T14:48:11Z</time>
      </trkpt>
      <trkpt lat="49.92643" lon="2.16082">
        <ele>71.1</ele>
        <time>2022-11-09T14:48:12Z</time>
      </trkpt>
      <trkpt lat="49.92643" lon="2.16084">
        <ele>71</ele>
        <time>2022-11-09T14:48:13Z</time>
      </trkpt>
      <trkpt lat="49.92643" lon="2.16086">
        <ele>71</ele>
        <time>2022-11-09T14:48:14Z</time>
      </trkpt>
      <trkpt lat="49.92643" lon="2.16089">
        <ele>70.9</ele>
        <time>2022-11-09T14:48:15Z</time>
      </trkpt>
      <trkpt lat="49.92643" lon="2.16091">
        <ele>70.9</ele>
        <time>2022-11-09T14:48:17Z</time>
      </trkpt>
      <trkpt lat="49.92643" lon="2.16092">
        <ele>70.8</ele>
        <time>2022-11-09T14:48:18Z</time>
      </trkpt>
      <trkpt lat="49.92643" lon="2.16095">
        <ele>70.8</ele>
        <time>2022-11-09T14:48:19Z</time>
      </trkpt>
      <trkpt lat="49.92643" lon="2.16096">
        <ele>70.7</ele>
        <time>2022-11-09T14:48:20Z</time>
      </trkpt>
      <trkpt lat="49.92643" lon="2.16098">
        <ele>70.7</ele>
        <time>2022-11-09T14:48:21Z</time>
      </trkpt>
      <trkpt lat="49.92643" lon="2.16101">
        <ele>70.6</ele>
        <time>2022-11-09T14:48:22Z</time>
      </trkpt>
      <trkpt lat="49.92643" lon="2.16102">
        <ele>70.5</ele>
        <time>2022-11-09T14:48:23Z</time>
      </trkpt>
      <trkpt lat="49.92643" lon="2.16104">
        <ele>70.5</ele>
        <time>2022-11-09T14:48:24Z</time>
      </trkpt>
      <trkpt lat="49.92643" lon="2.16107">
        <ele>70.4</ele>
        <time>2022-11-09T14:48:25Z</time>
      </trkpt>
      <trkpt lat="49.92643" lon="2.16108">
        <ele>70.4</ele>
        <time>2022-11-09T14:48:26Z</time>
      </trkpt>
      <trkpt lat="49.92643" lon="2.16109">
        <ele>70.3</ele>
        <time>2022-11-09T14:48:27Z</time>
      </trkpt>
      <trkpt lat="49.92643" lon="2.16111">
        <ele>70.3</ele>
        <time>2022-11-09T14:48:29Z</time>
      </trkpt>
      <trkpt lat="49.92643" lon="2.16114">
        <ele>70.2</ele>
        <time>2022-11-09T14:48:30Z</time>
      </trkpt>
      <trkpt lat="49.92642" lon="2.16117">
        <ele>70.1</ele>
        <time>2022-11-09T14:48:31Z</time>
      </trkpt>
      <trkpt lat="49.92642" lon="2.16118">
        <ele>70.1</ele>
        <time>2022-11-09T14:48:32Z</time>
      </trkpt>
      <trkpt lat="49.92642" lon="2.1612">
        <ele>70.1</ele>
        <time>2022-11-09T14:48:33Z</time>
      </trkpt>
      <trkpt lat="49.92642" lon="2.16122">
        <ele>70</ele>
        <time>2022-11-09T14:48:34Z</time>
      </trkpt>
      <trkpt lat="49.92643" lon="2.16124">
        <ele>70</ele>
        <time>2022-11-09T14:48:35Z</time>
      </trkpt>
      <trkpt lat="49.92643" lon="2.16125">
        <ele>69.9</ele>
        <time>2022-11-09T14:48:36Z</time>
      </trkpt>
      <trkpt lat="49.92643" lon="2.16128">
        <ele>69.8</ele>
        <time>2022-11-09T14:48:38Z</time>
      </trkpt>
      <trkpt lat="49.92643" lon="2.1613">
        <ele>69.8</ele>
        <time>2022-11-09T14:48:39Z</time>
      </trkpt>
      <trkpt lat="49.92643" lon="2.16131">
        <ele>69.8</ele>
        <time>2022-11-09T14:48:40Z</time>
      </trkpt>
      <trkpt lat="49.92643" lon="2.16134">
        <ele>69.7</ele>
        <time>2022-11-09T14:48:41Z</time>
      </trkpt>
      <trkpt lat="49.92643" lon="2.16136">
        <ele>69.6</ele>
        <time>2022-11-09T14:48:42Z</time>
      </trkpt>
      <trkpt lat="49.92643" lon="2.16137">
        <ele>69.6</ele>
        <time>2022-11-09T14:48:43Z</time>
      </trkpt>
      <trkpt lat="49.92643" lon="2.1614">
        <ele>69.5</ele>
        <time>2022-11-09T14:48:44Z</time>
      </trkpt>
      <trkpt lat="49.92643" lon="2.16142">
        <ele>69.5</ele>
        <time>2022-11-09T14:48:45Z</time>
      </trkpt>
      <trkpt lat="49.92643" lon="2.16143">
        <ele>69.4</ele>
        <time>2022-11-09T14:48:46Z</time>
      </trkpt>
      <trkpt lat="49.92643" lon="2.16145">
        <ele>69.4</ele>
        <time>2022-11-09T14:48:48Z</time>
      </trkpt>
      <trkpt lat="49.92643" lon="2.16147">
        <ele>69.3</ele>
        <time>2022-11-09T14:48:49Z</time>
      </trkpt>
      <trkpt lat="49.92643" lon="2.1615">
        <ele>69.3</ele>
        <time>2022-11-09T14:48:50Z</time>
      </trkpt>
      <trkpt lat="49.92643" lon="2.16152">
        <ele>69.1</ele>
        <time>2022-11-09T14:48:51Z</time>
      </trkpt>
      <trkpt lat="49.92643" lon="2.16153">
        <ele>69.1</ele>
        <time>2022-11-09T14:48:52Z</time>
      </trkpt>
      <trkpt lat="49.92643" lon="2.16155">
        <ele>69.1</ele>
        <time>2022-11-09T14:48:53Z</time>
      </trkpt>
      <trkpt lat="49.92643" lon="2.16157">
        <ele>69</ele>
        <time>2022-11-09T14:48:54Z</time>
      </trkpt>
      <trkpt lat="49.92642" lon="2.16158">
        <ele>69</ele>
        <time>2022-11-09T14:48:55Z</time>
      </trkpt>
      <trkpt lat="49.92642" lon="2.1616">
        <ele>68.9</ele>
        <time>2022-11-09T14:48:57Z</time>
      </trkpt>
      <trkpt lat="49.92642" lon="2.16162">
        <ele>68.9</ele>
        <time>2022-11-09T14:48:58Z</time>
      </trkpt>
      <trkpt lat="49.92642" lon="2.16163">
        <ele>68.8</ele>
        <time>2022-11-09T14:48:59Z</time>
      </trkpt>
      <trkpt lat="49.92642" lon="2.16165">
        <ele>68.8</ele>
        <time>2022-11-09T14:49:00Z</time>
      </trkpt>
      <trkpt lat="49.92642" lon="2.16167">
        <ele>68.7</ele>
        <time>2022-11-09T14:49:01Z</time>
      </trkpt>
      <trkpt lat="49.92642" lon="2.16168">
        <ele>68.7</ele>
        <time>2022-11-09T14:49:02Z</time>
      </trkpt>
      <trkpt lat="49.92642" lon="2.1617">
        <ele>68.7</ele>
        <time>2022-11-09T14:49:03Z</time>
      </trkpt>
      <trkpt lat="49.92641" lon="2.16171">
        <ele>68.6</ele>
        <time>2022-11-09T14:49:05Z</time>
      </trkpt>
      <trkpt lat="49.92641" lon="2.16173">
        <ele>68.6</ele>
        <time>2022-11-09T14:49:06Z</time>
      </trkpt>
      <trkpt lat="49.92641" lon="2.16174">
        <ele>68.5</ele>
        <time>2022-11-09T14:49:07Z</time>
      </trkpt>
      <trkpt lat="49.9264" lon="2.16176">
        <ele>68.5</ele>
        <time>2022-11-09T14:49:08Z</time>
      </trkpt>
      <trkpt lat="49.9264" lon="2.16178">
        <ele>68.4</ele>
        <time>2022-11-09T14:49:09Z</time>
      </trkpt>
      <trkpt lat="49.92639" lon="2.1618">
        <ele>68.4</ele>
        <time>2022-11-09T14:49:10Z</time>
      </trkpt>
      <trkpt lat="49.92639" lon="2.16181">
        <ele>68.3</ele>
        <time>2022-11-09T14:49:11Z</time>
      </trkpt>
      <trkpt lat="49.92639" lon="2.16183">
        <ele>68.3</ele>
        <time>2022-11-09T14:49:13Z</time>
      </trkpt>
      <trkpt lat="49.92638" lon="2.16184">
        <ele>68.2</ele>
        <time>2022-11-09T14:49:14Z</time>
      </trkpt>
      <trkpt lat="49.92638" lon="2.16186">
        <ele>68.2</ele>
        <time>2022-11-09T14:49:15Z</time>
      </trkpt>
      <trkpt lat="49.92637" lon="2.16187">
        <ele>68.1</ele>
        <time>2022-11-09T14:49:16Z</time>
      </trkpt>
      <trkpt lat="49.92637" lon="2.16189">
        <ele>68.1</ele>
        <time>2022-11-09T14:49:17Z</time>
      </trkpt>
      <trkpt lat="49.92636" lon="2.1619">
        <ele>68.1</ele>
        <time>2022-11-09T14:49:19Z</time>
      </trkpt>
      <trkpt lat="49.92636" lon="2.16191">
        <ele>68</ele>
        <time>2022-11-09T14:49:20Z</time>
      </trkpt>
      <trkpt lat="49.92635" lon="2.16193">
        <ele>67.9</ele>
        <time>2022-11-09T14:49:21Z</time>
      </trkpt>
      <trkpt lat="49.92635" lon="2.16194">
        <ele>67.9</ele>
        <time>2022-11-09T14:49:22Z</time>
      </trkpt>
      <trkpt lat="49.92634" lon="2.16196">
        <ele>67.8</ele>
        <time>2022-11-09T14:49:24Z</time>
      </trkpt>
      <trkpt lat="49.92634" lon="2.16197">
        <ele>67.8</ele>
        <time>2022-11-09T14:49:25Z</time>
      </trkpt>
      <trkpt lat="49.92633" lon="2.16198">
        <ele>67.7</ele>
        <time>2022-11-09T14:49:26Z</time>
      </trkpt>
      <trkpt lat="49.92633" lon="2.16199">
        <ele>67.7</ele>
        <time>2022-11-09T14:49:27Z</time>
      </trkpt>
      <trkpt lat="49.92632" lon="2.162">
        <ele>67.6</ele>
        <time>2022-11-09T14:49:29Z</time>
      </trkpt>
      <trkpt lat="49.92632" lon="2.162">
        <ele>67.6</ele>
        <time>2022-11-09T14:49:30Z</time>
      </trkpt>
      <trkpt lat="49.92632" lon="2.162">
        <ele>67.6</ele>
        <time>2022-11-09T14:49:31Z</time>
      </trkpt>
      <trkpt lat="49.92631" lon="2.16201">
        <ele>67.5</ele>
        <time>2022-11-09T14:49:33Z</time>
      </trkpt>
      <trkpt lat="49.9263" lon="2.16201">
        <ele>67.5</ele>
        <time>2022-11-09T14:49:34Z</time>
      </trkpt>
      <trkpt lat="49.9263" lon="2.16201">
        <ele>67.5</ele>
        <time>2022-11-09T14:49:35Z</time>
      </trkpt>
      <trkpt lat="49.92629" lon="2.16202">
        <ele>67.4</ele>
        <time>2022-11-09T14:49:37Z</time>
      </trkpt>
      <trkpt lat="49.92629" lon="2.16202">
        <ele>67.4</ele>
        <time>2022-11-09T14:49:38Z</time>
      </trkpt>
      <trkpt lat="49.92628" lon="2.16203">
        <ele>67.4</ele>
        <time>2022-11-09T14:49:39Z</time>
      </trkpt>
      <trkpt lat="49.92628" lon="2.16203">
        <ele>67.4</ele>
        <time>2022-11-09T14:49:40Z</time>
      </trkpt>
      <trkpt lat="49.92628" lon="2.16202">
        <ele>67.4</ele>
        <time>2022-11-09T14:49:41Z</time>
      </trkpt>
      <trkpt lat="49.92628" lon="2.16202">
        <ele>67.4</ele>
        <time>2022-11-09T14:49:42Z</time>
      </trkpt>
      <trkpt lat="49.92629" lon="2.16202">
        <ele>67.3</ele>
        <time>2022-11-09T14:49:44Z</time>
      </trkpt>
      <trkpt lat="49.92629" lon="2.16201">
        <ele>67.3</ele>
        <time>2022-11-09T14:49:45Z</time>
      </trkpt>
      <trkpt lat="49.92629" lon="2.16201">
        <ele>67.3</ele>
        <time>2022-11-09T14:49:46Z</time>
      </trkpt>
      <trkpt lat="49.92629" lon="2.16201">
        <ele>67.3</ele>
        <time>2022-11-09T14:49:47Z</time>
      </trkpt>
      <trkpt lat="49.92629" lon="2.16201">
        <ele>67.3</ele>
        <time>2022-11-09T14:49:48Z</time>
      </trkpt>
      <trkpt lat="49.9263" lon="2.16201">
        <ele>67.3</ele>
        <time>2022-11-09T14:49:49Z</time>
      </trkpt>
      <trkpt lat="49.9263" lon="2.16201">
        <ele>67.2</ele>
        <time>2022-11-09T14:49:50Z</time>
      </trkpt>
      <trkpt lat="49.9263" lon="2.16201">
        <ele>67.2</ele>
        <time>2022-11-09T14:49:51Z</time>
      </trkpt>
      <trkpt lat="49.9263" lon="2.16201">
        <ele>67.2</ele>
        <time>2022-11-09T14:49:52Z</time>
      </trkpt>
      <trkpt lat="49.92631" lon="2.16201">
        <ele>67.2</ele>
        <time>2022-11-09T14:49:53Z</time>
      </trkpt>
      <trkpt lat="49.92631" lon="2.16201">
        <ele>67.2</ele>
        <time>2022-11-09T14:49:54Z</time>
      </trkpt>
      <trkpt lat="49.92631" lon="2.16199">
        <ele>67.1</ele>
        <time>2022-11-09T14:49:55Z</time>
      </trkpt>
      <trkpt lat="49.92632" lon="2.16198">
        <ele>67.1</ele>
        <time>2022-11-09T14:49:56Z</time>
      </trkpt>
      <trkpt lat="49.92632" lon="2.16198">
        <ele>67.1</ele>
        <time>2022-11-09T14:49:57Z</time>
      </trkpt>
      <trkpt lat="49.92632" lon="2.16198">
        <ele>67.1</ele>
        <time>2022-11-09T14:49:58Z</time>
      </trkpt>
      <trkpt lat="49.92632" lon="2.16198">
        <ele>67.1</ele>
        <time>2022-11-09T14:49:59Z</time>
      </trkpt>
      <trkpt lat="49.92632" lon="2.16197">
        <ele>67.1</ele>
        <time>2022-11-09T14:50:00Z</time>
      </trkpt>
      <trkpt lat="49.92632" lon="2.16197">
        <ele>67.1</ele>
        <time>2022-11-09T14:50:01Z</time>
      </trkpt>
      <trkpt lat="49.92632" lon="2.16197">
        <ele>67.1</ele>
        <time>2022-11-09T14:50:02Z</time>
      </trkpt>
      <trkpt lat="49.92632" lon="2.16197">
        <ele>67.1</ele>
        <time>2022-11-09T14:50:03Z</time>
      </trkpt>
      <trkpt lat="49.92632" lon="2.16197">
        <ele>67.1</ele>
        <time>2022-11-09T14:50:04Z</time>
      </trkpt>
      <trkpt lat="49.92632" lon="2.16197">
        <ele>67.1</ele>
        <time>2022-11-09T14:50:05Z</time>
      </trkpt>
      <trkpt lat="49.92632" lon="2.16197">
        <ele>67.1</ele>
        <time>2022-11-09T14:50:06Z</time>
      </trkpt>
      <trkpt lat="49.92632" lon="2.16197">
        <ele>67.1</ele>
        <time>2022-11-09T14:50:07Z</time>
      </trkpt>
      <trkpt lat="49.92632" lon="2.16197">
        <ele>67.1</ele>
        <time>2022-11-09T14:50:08Z</time>
      </trkpt>
      <trkpt lat="49.92632" lon="2.16197">
        <ele>67.1</ele>
        <time>2022-11-09T14:50:09Z</time>
      </trkpt>
      <trkpt lat="49.92632" lon="2.16197">
        <ele>67.1</ele>
        <time>2022-11-09T14:50:10Z</time>
      </trkpt>
      <trkpt lat="49.92632" lon="2.16197">
        <ele>67.1</ele>
        <time>2022-11-09T14:50:11Z</time>
      </trkpt>
      <trkpt lat="49.92632" lon="2.16197">
        <ele>67.1</ele>
        <time>2022-11-09T14:50:12Z</time>
      </trkpt>
      <trkpt lat="49.92632" lon="2.16197">
        <ele>67.1</ele>
        <time>2022-11-09T14:50:13Z</time>
      </trkpt>
      <trkpt lat="49.92632" lon="2.16197">
        <ele>67.1</ele>
        <time>2022-11-09T14:50:14Z</time>
      </trkpt>
      <trkpt lat="49.92632" lon="2.16197">
        <ele>67.1</ele>
        <time>2022-11-09T14:50:15Z</time>
      </trkpt>
      <trkpt lat="49.92632" lon="2.16197">
        <ele>67.1</ele>
        <time>2022-11-09T14:50:16Z</time>
      </trkpt>
      <trkpt lat="49.92632" lon="2.16197">
        <ele>67.1</ele>
        <time>2022-11-09T14:50:17Z</time>
      </trkpt>
      <trkpt lat="49.92632" lon="2.16197">
        <ele>67.1</ele>
        <time>2022-11-09T14:50:18Z</time>
      </trkpt>
      <trkpt lat="49.92632" lon="2.16197">
        <ele>67.1</ele>
        <time>2022-11-09T14:50:19Z</time>
      </trkpt>
      <trkpt lat="49.92632" lon="2.16197">
        <ele>67.1</ele>
        <time>2022-11-09T14:50:20Z</time>
      </trkpt>
      <trkpt lat="49.92632" lon="2.16197">
        <ele>67.1</ele>
        <time>2022-11-09T14:50:21Z</time>
      </trkpt>
      <trkpt lat="49.92632" lon="2.16197">
        <ele>67.1</ele>
        <time>2022-11-09T14:50:22Z</time>
      </trkpt>
      <trkpt lat="49.92632" lon="2.16197">
        <ele>67.1</ele>
        <time>2022-11-09T14:50:23Z</time>
      </trkpt>
      <trkpt lat="49.92632" lon="2.16197">
        <ele>67.1</ele>
        <time>2022-11-09T14:50:24Z</time>
      </trkpt>
      <trkpt lat="49.92632" lon="2.16197">
        <ele>67.1</ele>
        <time>2022-11-09T14:50:25Z</time>
      </trkpt>
      <trkpt lat="49.92632" lon="2.16197">
        <ele>67.1</ele>
        <time>2022-11-09T14:50:26Z</time>
      </trkpt>
      <trkpt lat="49.92632" lon="2.16197">
        <ele>67.1</ele>
        <time>2022-11-09T14:50:27Z</time>
      </trkpt>
      <trkpt lat="49.92632" lon="2.16197">
        <ele>67.1</ele>
        <time>2022-11-09T14:50:28Z</time>
      </trkpt>
      <trkpt lat="49.92632" lon="2.16197">
        <ele>67.1</ele>
        <time>2022-11-09T14:50:29Z</time>
      </trkpt>
      <trkpt lat="49.92632" lon="2.16197">
        <ele>67.1</ele>
        <time>2022-11-09T14:50:30Z</time>
      </trkpt>
      <trkpt lat="49.92632" lon="2.16197">
        <ele>67.1</ele>
        <time>2022-11-09T14:50:31Z</time>
      </trkpt>
      <trkpt lat="49.92632" lon="2.16197">
        <ele>67.1</ele>
        <time>2022-11-09T14:50:32Z</time>
      </trkpt>
      <trkpt lat="49.92632" lon="2.16197">
        <ele>67.1</ele>
        <time>2022-11-09T14:50:33Z</time>
      </trkpt>
      <trkpt lat="49.92632" lon="2.16197">
        <ele>67.1</ele>
        <time>2022-11-09T14:50:34Z</time>
      </trkpt>
      <trkpt lat="49.92632" lon="2.16197">
        <ele>67.1</ele>
        <time>2022-11-09T14:50:35Z</time>
      </trkpt>
      <trkpt lat="49.92632" lon="2.16197">
        <ele>67.1</ele>
        <time>2022-11-09T14:50:36Z</time>
      </trkpt>
      <trkpt lat="49.92632" lon="2.16197">
        <ele>67.1</ele>
        <time>2022-11-09T14:50:37Z</time>
      </trkpt>
      <trkpt lat="49.92632" lon="2.16197">
        <ele>67.1</ele>
        <time>2022-11-09T14:50:38Z</time>
      </trkpt>
      <trkpt lat="49.92632" lon="2.16197">
        <ele>67.1</ele>
        <time>2022-11-09T14:50:39Z</time>
      </trkpt>
      <trkpt lat="49.92632" lon="2.16197">
        <ele>67.1</ele>
        <time>2022-11-09T14:50:40Z</time>
      </trkpt>
      <trkpt lat="49.92632" lon="2.16197">
        <ele>67.1</ele>
        <time>2022-11-09T14:50:41Z</time>
      </trkpt>
      <trkpt lat="49.92632" lon="2.16197">
        <ele>67.1</ele>
        <time>2022-11-09T14:50:42Z</time>
      </trkpt>
      <trkpt lat="49.92632" lon="2.16197">
        <ele>67.1</ele>
        <time>2022-11-09T14:50:43Z</time>
      </trkpt>
      <trkpt lat="49.92632" lon="2.16197">
        <ele>67.1</ele>
        <time>2022-11-09T14:50:44Z</time>
      </trkpt>
      <trkpt lat="49.92632" lon="2.16197">
        <ele>67.1</ele>
        <time>2022-11-09T14:50:45Z</time>
      </trkpt>
      <trkpt lat="49.92632" lon="2.16197">
        <ele>67.1</ele>
        <time>2022-11-09T14:50:46Z</time>
      </trkpt>
      <trkpt lat="49.92632" lon="2.16197">
        <ele>67.1</ele>
        <time>2022-11-09T14:50:47Z</time>
      </trkpt>
      <trkpt lat="49.92632" lon="2.16197">
        <ele>67.1</ele>
        <time>2022-11-09T14:50:48Z</time>
      </trkpt>
      <trkpt lat="49.92632" lon="2.16197">
        <ele>67.1</ele>
        <time>2022-11-09T14:50:49Z</time>
      </trkpt>
      <trkpt lat="49.92632" lon="2.16197">
        <ele>67.1</ele>
        <time>2022-11-09T14:50:50Z</time>
      </trkpt>
      <trkpt lat="49.92632" lon="2.16197">
        <ele>67.1</ele>
        <time>2022-11-09T14:50:51Z</time>
      </trkpt>
      <trkpt lat="49.92632" lon="2.16197">
        <ele>67.1</ele>
        <time>2022-11-09T14:50:52Z</time>
      </trkpt>
      <trkpt lat="49.92632" lon="2.16197">
        <ele>67.1</ele>
        <time>2022-11-09T14:50:53Z</time>
      </trkpt>
      <trkpt lat="49.92632" lon="2.16197">
        <ele>67.1</ele>
        <time>2022-11-09T14:50:54Z</time>
      </trkpt>
      <trkpt lat="49.92632" lon="2.16197">
        <ele>67.1</ele>
        <time>2022-11-09T14:50:55Z</time>
      </trkpt>
      <trkpt lat="49.92632" lon="2.16197">
        <ele>67.1</ele>
        <time>2022-11-09T14:50:56Z</time>
      </trkpt>
      <trkpt lat="49.92632" lon="2.16197">
        <ele>67.1</ele>
        <time>2022-11-09T14:50:57Z</time>
      </trkpt>
      <trkpt lat="49.92632" lon="2.16197">
        <ele>67.1</ele>
        <time>2022-11-09T14:50:58Z</time>
      </trkpt>
      <trkpt lat="49.92632" lon="2.16197">
        <ele>67.1</ele>
        <time>2022-11-09T14:50:59Z</time>
      </trkpt>
      <trkpt lat="49.92632" lon="2.16197">
        <ele>67.1</ele>
        <time>2022-11-09T14:51:00Z</time>
      </trkpt>
      <trkpt lat="49.92632" lon="2.16197">
        <ele>67.1</ele>
        <time>2022-11-09T14:51:01Z</time>
      </trkpt>
      <trkpt lat="49.92632" lon="2.16197">
        <ele>67.1</ele>
        <time>2022-11-09T14:51:02Z</time>
      </trkpt>
      <trkpt lat="49.92632" lon="2.16197">
        <ele>67.1</ele>
        <time>2022-11-09T14:51:03Z</time>
      </trkpt>
      <trkpt lat="49.92632" lon="2.16197">
        <ele>67.1</ele>
        <time>2022-11-09T14:51:04Z</time>
      </trkpt>
      <trkpt lat="49.92632" lon="2.16197">
        <ele>67.1</ele>
        <time>2022-11-09T14:51:05Z</time>
      </trkpt>
      <trkpt lat="49.92632" lon="2.16197">
        <ele>67.1</ele>
        <time>2022-11-09T14:51:06Z</time>
      </trkpt>
      <trkpt lat="49.92632" lon="2.16197">
        <ele>67.1</ele>
        <time>2022-11-09T14:51:07Z</time>
      </trkpt>
      <trkpt lat="49.92632" lon="2.16197">
        <ele>67.1</ele>
        <time>2022-11-09T14:51:08Z</time>
      </trkpt>
      <trkpt lat="49.92632" lon="2.16197">
        <ele>67.1</ele>
        <time>2022-11-09T14:51:09Z</time>
      </trkpt>
      <trkpt lat="49.92632" lon="2.16197">
        <ele>67.1</ele>
        <time>2022-11-09T14:51:10Z</time>
      </trkpt>
      <trkpt lat="49.92632" lon="2.16197">
        <ele>67.1</ele>
        <time>2022-11-09T14:51:11Z</time>
      </trkpt>
      <trkpt lat="49.92632" lon="2.16197">
        <ele>67.1</ele>
        <time>2022-11-09T14:51:12Z</time>
      </trkpt>
      <trkpt lat="49.92632" lon="2.16197">
        <ele>67.1</ele>
        <time>2022-11-09T14:51:13Z</time>
      </trkpt>
      <trkpt lat="49.92632" lon="2.16197">
        <ele>67.1</ele>
        <time>2022-11-09T14:51:14Z</time>
      </trkpt>
      <trkpt lat="49.92632" lon="2.16197">
        <ele>67.1</ele>
        <time>2022-11-09T14:51:15Z</time>
      </trkpt>
      <trkpt lat="49.92632" lon="2.16197">
        <ele>67.1</ele>
        <time>2022-11-09T14:51:16Z</time>
      </trkpt>
      <trkpt lat="49.92632" lon="2.16197">
        <ele>67.1</ele>
        <time>2022-11-09T14:51:17Z</time>
      </trkpt>
      <trkpt lat="49.92632" lon="2.16197">
        <ele>67.1</ele>
        <time>2022-11-09T14:51:18Z</time>
      </trkpt>
      <trkpt lat="49.92632" lon="2.16197">
        <ele>67.1</ele>
        <time>2022-11-09T14:51:19Z</time>
      </trkpt>
      <trkpt lat="49.92633" lon="2.16197">
        <ele>67</ele>
        <time>2022-11-09T14:51:20Z</time>
      </trkpt>
      <trkpt lat="49.92634" lon="2.16196">
        <ele>66.9</ele>
        <time>2022-11-09T14:51:21Z</time>
      </trkpt>
      <trkpt lat="49.92634" lon="2.16196">
        <ele>66.9</ele>
        <time>2022-11-09T14:51:22Z</time>
      </trkpt>
      <trkpt lat="49.92634" lon="2.16196">
        <ele>66.9</ele>
        <time>2022-11-09T14:51:23Z</time>
      </trkpt>
      <trkpt lat="49.92634" lon="2.16196">
        <ele>66.9</ele>
        <time>2022-11-09T14:51:24Z</time>
      </trkpt>
      <trkpt lat="49.92634" lon="2.16197">
        <ele>66.9</ele>
        <time>2022-11-09T14:51:25Z</time>
      </trkpt>
      <trkpt lat="49.92634" lon="2.16198">
        <ele>66.8</ele>
        <time>2022-11-09T14:51:26Z</time>
      </trkpt>
      <trkpt lat="49.92635" lon="2.16198">
        <ele>66.8</ele>
        <time>2022-11-09T14:51:27Z</time>
      </trkpt>
      <trkpt lat="49.92635" lon="2.16199">
        <ele>66.7</ele>
        <time>2022-11-09T14:51:28Z</time>
      </trkpt>
      <trkpt lat="49.92636" lon="2.162">
        <ele>66.7</ele>
        <time>2022-11-09T14:51:29Z</time>
      </trkpt>
      <trkpt lat="49.92636" lon="2.16201">
        <ele>66.6</ele>
        <time>2022-11-09T14:51:30Z</time>
      </trkpt>
      <trkpt lat="49.92636" lon="2.16203">
        <ele>66.6</ele>
        <time>2022-11-09T14:51:32Z</time>
      </trkpt>
      <trkpt lat="49.92635" lon="2.16205">
        <ele>66.5</ele>
        <time>2022-11-09T14:51:33Z</time>
      </trkpt>
      <trkpt lat="49.92635" lon="2.16207">
        <ele>66.4</ele>
        <time>2022-11-09T14:51:34Z</time>
      </trkpt>
      <trkpt lat="49.92634" lon="2.16209">
        <ele>66.3</ele>
        <time>2022-11-09T14:51:35Z</time>
      </trkpt>
      <trkpt lat="49.92633" lon="2.16212">
        <ele>66.2</ele>
        <time>2022-11-09T14:51:36Z</time>
      </trkpt>
      <trkpt lat="49.92633" lon="2.16213">
        <ele>66.1</ele>
        <time>2022-11-09T14:51:37Z</time>
      </trkpt>
      <trkpt lat="49.92633" lon="2.16214">
        <ele>66.1</ele>
        <time>2022-11-09T14:51:38Z</time>
      </trkpt>
      <trkpt lat="49.92632" lon="2.16217">
        <ele>65.9</ele>
        <time>2022-11-09T14:51:40Z</time>
      </trkpt>
      <trkpt lat="49.92631" lon="2.16218">
        <ele>65.9</ele>
        <time>2022-11-09T14:51:41Z</time>
      </trkpt>
      <trkpt lat="49.9263" lon="2.1622">
        <ele>65.8</ele>
        <time>2022-11-09T14:51:42Z</time>
      </trkpt>
      <trkpt lat="49.9263" lon="2.16221">
        <ele>65.8</ele>
        <time>2022-11-09T14:51:43Z</time>
      </trkpt>
      <trkpt lat="49.92629" lon="2.16223">
        <ele>65.7</ele>
        <time>2022-11-09T14:51:44Z</time>
      </trkpt>
      <trkpt lat="49.92629" lon="2.16224">
        <ele>65.6</ele>
        <time>2022-11-09T14:51:45Z</time>
      </trkpt>
      <trkpt lat="49.92628" lon="2.16226">
        <ele>65.5</ele>
        <time>2022-11-09T14:51:47Z</time>
      </trkpt>
      <trkpt lat="49.92628" lon="2.16228">
        <ele>65.5</ele>
        <time>2022-11-09T14:51:48Z</time>
      </trkpt>
      <trkpt lat="49.92627" lon="2.16229">
        <ele>65.4</ele>
        <time>2022-11-09T14:51:49Z</time>
      </trkpt>
      <trkpt lat="49.92625" lon="2.16229">
        <ele>65.3</ele>
        <time>2022-11-09T14:51:50Z</time>
      </trkpt>
      <trkpt lat="49.92624" lon="2.16229">
        <ele>65.2</ele>
        <time>2022-11-09T14:51:51Z</time>
      </trkpt>
      <trkpt lat="49.92623" lon="2.1623">
        <ele>65.2</ele>
        <time>2022-11-09T14:51:53Z</time>
      </trkpt>
      <trkpt lat="49.92623" lon="2.16231">
        <ele>65.1</ele>
        <time>2022-11-09T14:51:54Z</time>
      </trkpt>
      <trkpt lat="49.92623" lon="2.16232">
        <ele>65.1</ele>
        <time>2022-11-09T14:51:55Z</time>
      </trkpt>
      <trkpt lat="49.92622" lon="2.16233">
        <ele>65</ele>
        <time>2022-11-09T14:51:56Z</time>
      </trkpt>
      <trkpt lat="49.92621" lon="2.16235">
        <ele>64.9</ele>
        <time>2022-11-09T14:51:57Z</time>
      </trkpt>
      <trkpt lat="49.9262" lon="2.16237">
        <ele>64.8</ele>
        <time>2022-11-09T14:51:58Z</time>
      </trkpt>
      <trkpt lat="49.92619" lon="2.16241">
        <ele>64.6</ele>
        <time>2022-11-09T14:51:59Z</time>
      </trkpt>
      <trkpt lat="49.92619" lon="2.16243">
        <ele>64.6</ele>
        <time>2022-11-09T14:52:00Z</time>
      </trkpt>
      <trkpt lat="49.92618" lon="2.16248">
        <ele>64.4</ele>
        <time>2022-11-09T14:52:02Z</time>
      </trkpt>
      <trkpt lat="49.92618" lon="2.16249">
        <ele>64.3</ele>
        <time>2022-11-09T14:52:03Z</time>
      </trkpt>
      <trkpt lat="49.92618" lon="2.16253">
        <ele>64.2</ele>
        <time>2022-11-09T14:52:04Z</time>
      </trkpt>
      <trkpt lat="49.92617" lon="2.16254">
        <ele>64.1</ele>
        <time>2022-11-09T14:52:06Z</time>
      </trkpt>
      <trkpt lat="49.92617" lon="2.16255">
        <ele>64.1</ele>
        <time>2022-11-09T14:52:07Z</time>
      </trkpt>
      <trkpt lat="49.92617" lon="2.16258">
        <ele>63.9</ele>
        <time>2022-11-09T14:52:08Z</time>
      </trkpt>
      <trkpt lat="49.92616" lon="2.1626">
        <ele>63.9</ele>
        <time>2022-11-09T14:52:09Z</time>
      </trkpt>
      <trkpt lat="49.92616" lon="2.16261">
        <ele>63.8</ele>
        <time>2022-11-09T14:52:10Z</time>
      </trkpt>
      <trkpt lat="49.92616" lon="2.16264">
        <ele>63.7</ele>
        <time>2022-11-09T14:52:11Z</time>
      </trkpt>
      <trkpt lat="49.92615" lon="2.16266">
        <ele>63.6</ele>
        <time>2022-11-09T14:52:12Z</time>
      </trkpt>
      <trkpt lat="49.92614" lon="2.16269">
        <ele>63.5</ele>
        <time>2022-11-09T14:52:13Z</time>
      </trkpt>
      <trkpt lat="49.92614" lon="2.16271">
        <ele>63.4</ele>
        <time>2022-11-09T14:52:14Z</time>
      </trkpt>
      <trkpt lat="49.92613" lon="2.16273">
        <ele>63.3</ele>
        <time>2022-11-09T14:52:15Z</time>
      </trkpt>
      <trkpt lat="49.92613" lon="2.16275">
        <ele>63.1</ele>
        <time>2022-11-09T14:52:17Z</time>
      </trkpt>
      <trkpt lat="49.92612" lon="2.16278">
        <ele>63</ele>
        <time>2022-11-09T14:52:18Z</time>
      </trkpt>
      <trkpt lat="49.92611" lon="2.1628">
        <ele>62.9</ele>
        <time>2022-11-09T14:52:19Z</time>
      </trkpt>
      <trkpt lat="49.92611" lon="2.16282">
        <ele>62.8</ele>
        <time>2022-11-09T14:52:20Z</time>
      </trkpt>
      <trkpt lat="49.9261" lon="2.16285">
        <ele>62.7</ele>
        <time>2022-11-09T14:52:21Z</time>
      </trkpt>
      <trkpt lat="49.9261" lon="2.16287">
        <ele>62.6</ele>
        <time>2022-11-09T14:52:22Z</time>
      </trkpt>
      <trkpt lat="49.9261" lon="2.16289">
        <ele>62.5</ele>
        <time>2022-11-09T14:52:23Z</time>
      </trkpt>
      <trkpt lat="49.92609" lon="2.16292">
        <ele>62.4</ele>
        <time>2022-11-09T14:52:24Z</time>
      </trkpt>
      <trkpt lat="49.92609" lon="2.16294">
        <ele>62.3</ele>
        <time>2022-11-09T14:52:25Z</time>
      </trkpt>
      <trkpt lat="49.92609" lon="2.16297">
        <ele>62.1</ele>
        <time>2022-11-09T14:52:27Z</time>
      </trkpt>
      <trkpt lat="49.92608" lon="2.16299">
        <ele>62</ele>
        <time>2022-11-09T14:52:28Z</time>
      </trkpt>
      <trkpt lat="49.92608" lon="2.16301">
        <ele>61.9</ele>
        <time>2022-11-09T14:52:29Z</time>
      </trkpt>
      <trkpt lat="49.92607" lon="2.16303">
        <ele>61.8</ele>
        <time>2022-11-09T14:52:30Z</time>
      </trkpt>
      <trkpt lat="49.92607" lon="2.16306">
        <ele>61.7</ele>
        <time>2022-11-09T14:52:31Z</time>
      </trkpt>
      <trkpt lat="49.92606" lon="2.16307">
        <ele>61.6</ele>
        <time>2022-11-09T14:52:32Z</time>
      </trkpt>
      <trkpt lat="49.92606" lon="2.16308">
        <ele>61.5</ele>
        <time>2022-11-09T14:52:33Z</time>
      </trkpt>
      <trkpt lat="49.92606" lon="2.1631">
        <ele>61.5</ele>
        <time>2022-11-09T14:52:34Z</time>
      </trkpt>
      <trkpt lat="49.92605" lon="2.16312">
        <ele>61.4</ele>
        <time>2022-11-09T14:52:35Z</time>
      </trkpt>
      <trkpt lat="49.92605" lon="2.16314">
        <ele>61.3</ele>
        <time>2022-11-09T14:52:37Z</time>
      </trkpt>
      <trkpt lat="49.92604" lon="2.16317">
        <ele>61.1</ele>
        <time>2022-11-09T14:52:38Z</time>
      </trkpt>
      <trkpt lat="49.92604" lon="2.16318">
        <ele>61</ele>
        <time>2022-11-09T14:52:39Z</time>
      </trkpt>
      <trkpt lat="49.92604" lon="2.1632">
        <ele>61</ele>
        <time>2022-11-09T14:52:40Z</time>
      </trkpt>
      <trkpt lat="49.92604" lon="2.16322">
        <ele>60.9</ele>
        <time>2022-11-09T14:52:41Z</time>
      </trkpt>
      <trkpt lat="49.92603" lon="2.16323">
        <ele>60.8</ele>
        <time>2022-11-09T14:52:42Z</time>
      </trkpt>
      <trkpt lat="49.92603" lon="2.16325">
        <ele>60.7</ele>
        <time>2022-11-09T14:52:43Z</time>
      </trkpt>
      <trkpt lat="49.92603" lon="2.16326">
        <ele>60.6</ele>
        <time>2022-11-09T14:52:44Z</time>
      </trkpt>
      <trkpt lat="49.92602" lon="2.16327">
        <ele>60.5</ele>
        <time>2022-11-09T14:52:46Z</time>
      </trkpt>
      <trkpt lat="49.92601" lon="2.16329">
        <ele>60.4</ele>
        <time>2022-11-09T14:52:47Z</time>
      </trkpt>
      <trkpt lat="49.92601" lon="2.1633">
        <ele>60.3</ele>
        <time>2022-11-09T14:52:48Z</time>
      </trkpt>
      <trkpt lat="49.926" lon="2.16332">
        <ele>60.2</ele>
        <time>2022-11-09T14:52:49Z</time>
      </trkpt>
      <trkpt lat="49.926" lon="2.16333">
        <ele>60.1</ele>
        <time>2022-11-09T14:52:50Z</time>
      </trkpt>
      <trkpt lat="49.92599" lon="2.16335">
        <ele>60</ele>
        <time>2022-11-09T14:52:51Z</time>
      </trkpt>
      <trkpt lat="49.92598" lon="2.16337">
        <ele>60</ele>
        <time>2022-11-09T14:52:52Z</time>
      </trkpt>
      <trkpt lat="49.92598" lon="2.16338">
        <ele>59.9</ele>
        <time>2022-11-09T14:52:53Z</time>
      </trkpt>
      <trkpt lat="49.92597" lon="2.1634">
        <ele>59.7</ele>
        <time>2022-11-09T14:52:55Z</time>
      </trkpt>
      <trkpt lat="49.92597" lon="2.16343">
        <ele>59.6</ele>
        <time>2022-11-09T14:52:56Z</time>
      </trkpt>
      <trkpt lat="49.92596" lon="2.16346">
        <ele>59.4</ele>
        <time>2022-11-09T14:52:57Z</time>
      </trkpt>
      <trkpt lat="49.92595" lon="2.16347">
        <ele>59.3</ele>
        <time>2022-11-09T14:52:58Z</time>
      </trkpt>
      <trkpt lat="49.92595" lon="2.16348">
        <ele>59.2</ele>
        <time>2022-11-09T14:52:59Z</time>
      </trkpt>
      <trkpt lat="49.92594" lon="2.1635">
        <ele>59.1</ele>
        <time>2022-11-09T14:53:00Z</time>
      </trkpt>
      <trkpt lat="49.92593" lon="2.16352">
        <ele>59</ele>
        <time>2022-11-09T14:53:01Z</time>
      </trkpt>
      <trkpt lat="49.92593" lon="2.16354">
        <ele>58.9</ele>
        <time>2022-11-09T14:53:03Z</time>
      </trkpt>
      <trkpt lat="49.92593" lon="2.16356">
        <ele>58.8</ele>
        <time>2022-11-09T14:53:04Z</time>
      </trkpt>
      <trkpt lat="49.92592" lon="2.16357">
        <ele>58.7</ele>
        <time>2022-11-09T14:53:05Z</time>
      </trkpt>
      <trkpt lat="49.92592" lon="2.16359">
        <ele>58.6</ele>
        <time>2022-11-09T14:53:06Z</time>
      </trkpt>
      <trkpt lat="49.92591" lon="2.16362">
        <ele>58.4</ele>
        <time>2022-11-09T14:53:07Z</time>
      </trkpt>
      <trkpt lat="49.9259" lon="2.16363">
        <ele>58.3</ele>
        <time>2022-11-09T14:53:08Z</time>
      </trkpt>
      <trkpt lat="49.9259" lon="2.16364">
        <ele>58.3</ele>
        <time>2022-11-09T14:53:09Z</time>
      </trkpt>
      <trkpt lat="49.92589" lon="2.16366">
        <ele>58.1</ele>
        <time>2022-11-09T14:53:11Z</time>
      </trkpt>
      <trkpt lat="49.92588" lon="2.16368">
        <ele>58</ele>
        <time>2022-11-09T14:53:12Z</time>
      </trkpt>
      <trkpt lat="49.92587" lon="2.16369">
        <ele>57.9</ele>
        <time>2022-11-09T14:53:13Z</time>
      </trkpt>
      <trkpt lat="49.92587" lon="2.16371">
        <ele>57.8</ele>
        <time>2022-11-09T14:53:14Z</time>
      </trkpt>
      <trkpt lat="49.92586" lon="2.16372">
        <ele>57.7</ele>
        <time>2022-11-09T14:53:15Z</time>
      </trkpt>
      <trkpt lat="49.92586" lon="2.16374">
        <ele>57.5</ele>
        <time>2022-11-09T14:53:16Z</time>
      </trkpt>
      <trkpt lat="49.92585" lon="2.16375">
        <ele>57.4</ele>
        <time>2022-11-09T14:53:17Z</time>
      </trkpt>
      <trkpt lat="49.92584" lon="2.16377">
        <ele>57.3</ele>
        <time>2022-11-09T14:53:18Z</time>
      </trkpt>
      <trkpt lat="49.92583" lon="2.16379">
        <ele>57.1</ele>
        <time>2022-11-09T14:53:20Z</time>
      </trkpt>
      <trkpt lat="49.92582" lon="2.1638">
        <ele>57</ele>
        <time>2022-11-09T14:53:21Z</time>
      </trkpt>
      <trkpt lat="49.92581" lon="2.16381">
        <ele>57</ele>
        <time>2022-11-09T14:53:22Z</time>
      </trkpt>
      <trkpt lat="49.92581" lon="2.16382">
        <ele>56.8</ele>
        <time>2022-11-09T14:53:23Z</time>
      </trkpt>
      <trkpt lat="49.9258" lon="2.16383">
        <ele>56.7</ele>
        <time>2022-11-09T14:53:24Z</time>
      </trkpt>
      <trkpt lat="49.92579" lon="2.16386">
        <ele>56.5</ele>
        <time>2022-11-09T14:53:26Z</time>
      </trkpt>
      <trkpt lat="49.92578" lon="2.16387">
        <ele>56.4</ele>
        <time>2022-11-09T14:53:27Z</time>
      </trkpt>
      <trkpt lat="49.92578" lon="2.16388">
        <ele>56.3</ele>
        <time>2022-11-09T14:53:28Z</time>
      </trkpt>
      <trkpt lat="49.92577" lon="2.16389">
        <ele>56.2</ele>
        <time>2022-11-09T14:53:29Z</time>
      </trkpt>
      <trkpt lat="49.92577" lon="2.16391">
        <ele>56.1</ele>
        <time>2022-11-09T14:53:30Z</time>
      </trkpt>
      <trkpt lat="49.92576" lon="2.16392">
        <ele>56</ele>
        <time>2022-11-09T14:53:31Z</time>
      </trkpt>
      <trkpt lat="49.92576" lon="2.16393">
        <ele>55.9</ele>
        <time>2022-11-09T14:53:32Z</time>
      </trkpt>
      <trkpt lat="49.92575" lon="2.16394">
        <ele>55.9</ele>
        <time>2022-11-09T14:53:33Z</time>
      </trkpt>
      <trkpt lat="49.92575" lon="2.16395">
        <ele>55.7</ele>
        <time>2022-11-09T14:53:34Z</time>
      </trkpt>
      <trkpt lat="49.92574" lon="2.16396">
        <ele>55.6</ele>
        <time>2022-11-09T14:53:36Z</time>
      </trkpt>
      <trkpt lat="49.92573" lon="2.16398">
        <ele>55.5</ele>
        <time>2022-11-09T14:53:37Z</time>
      </trkpt>
      <trkpt lat="49.92573" lon="2.16399">
        <ele>55.4</ele>
        <time>2022-11-09T14:53:38Z</time>
      </trkpt>
      <trkpt lat="49.92573" lon="2.164">
        <ele>55.3</ele>
        <time>2022-11-09T14:53:39Z</time>
      </trkpt>
      <trkpt lat="49.92572" lon="2.16402">
        <ele>55.1</ele>
        <time>2022-11-09T14:53:40Z</time>
      </trkpt>
      <trkpt lat="49.92571" lon="2.16404">
        <ele>55</ele>
        <time>2022-11-09T14:53:41Z</time>
      </trkpt>
      <trkpt lat="49.9257" lon="2.16406">
        <ele>54.8</ele>
        <time>2022-11-09T14:53:42Z</time>
      </trkpt>
      <trkpt lat="49.92569" lon="2.16407">
        <ele>54.6</ele>
        <time>2022-11-09T14:53:43Z</time>
      </trkpt>
      <trkpt lat="49.92568" lon="2.16408">
        <ele>54.5</ele>
        <time>2022-11-09T14:53:44Z</time>
      </trkpt>
      <trkpt lat="49.92567" lon="2.1641">
        <ele>54.3</ele>
        <time>2022-11-09T14:53:45Z</time>
      </trkpt>
      <trkpt lat="49.92566" lon="2.16411">
        <ele>54.1</ele>
        <time>2022-11-09T14:53:46Z</time>
      </trkpt>
      <trkpt lat="49.92564" lon="2.16413">
        <ele>53.9</ele>
        <time>2022-11-09T14:53:48Z</time>
      </trkpt>
      <trkpt lat="49.92564" lon="2.16414">
        <ele>53.8</ele>
        <time>2022-11-09T14:53:49Z</time>
      </trkpt>
      <trkpt lat="49.92563" lon="2.16415">
        <ele>53.7</ele>
        <time>2022-11-09T14:53:50Z</time>
      </trkpt>
      <trkpt lat="49.92562" lon="2.16418">
        <ele>53.4</ele>
        <time>2022-11-09T14:53:51Z</time>
      </trkpt>
      <trkpt lat="49.92561" lon="2.16419">
        <ele>53.3</ele>
        <time>2022-11-09T14:53:52Z</time>
      </trkpt>
      <trkpt lat="49.92561" lon="2.1642">
        <ele>53.2</ele>
        <time>2022-11-09T14:53:53Z</time>
      </trkpt>
      <trkpt lat="49.9256" lon="2.16421">
        <ele>53.1</ele>
        <time>2022-11-09T14:53:54Z</time>
      </trkpt>
      <trkpt lat="49.92559" lon="2.16423">
        <ele>52.9</ele>
        <time>2022-11-09T14:53:55Z</time>
      </trkpt>
      <trkpt lat="49.92558" lon="2.16424">
        <ele>52.7</ele>
        <time>2022-11-09T14:53:57Z</time>
      </trkpt>
      <trkpt lat="49.92558" lon="2.16426">
        <ele>52.6</ele>
        <time>2022-11-09T14:53:58Z</time>
      </trkpt>
      <trkpt lat="49.92557" lon="2.16427">
        <ele>52.5</ele>
        <time>2022-11-09T14:53:59Z</time>
      </trkpt>
      <trkpt lat="49.92556" lon="2.16428">
        <ele>52.4</ele>
        <time>2022-11-09T14:54:00Z</time>
      </trkpt>
      <trkpt lat="49.92555" lon="2.16431">
        <ele>52.1</ele>
        <time>2022-11-09T14:54:01Z</time>
      </trkpt>
      <trkpt lat="49.92554" lon="2.16432">
        <ele>52</ele>
        <time>2022-11-09T14:54:02Z</time>
      </trkpt>
      <trkpt lat="49.92554" lon="2.16433">
        <ele>51.9</ele>
        <time>2022-11-09T14:54:03Z</time>
      </trkpt>
      <trkpt lat="49.92553" lon="2.16435">
        <ele>51.7</ele>
        <time>2022-11-09T14:54:05Z</time>
      </trkpt>
      <trkpt lat="49.92552" lon="2.16437">
        <ele>51.5</ele>
        <time>2022-11-09T14:54:06Z</time>
      </trkpt>
      <trkpt lat="49.92551" lon="2.1644">
        <ele>51.3</ele>
        <time>2022-11-09T14:54:07Z</time>
      </trkpt>
      <trkpt lat="49.9255" lon="2.16441">
        <ele>51.2</ele>
        <time>2022-11-09T14:54:08Z</time>
      </trkpt>
      <trkpt lat="49.9255" lon="2.16442">
        <ele>51.1</ele>
        <time>2022-11-09T14:54:09Z</time>
      </trkpt>
      <trkpt lat="49.92549" lon="2.16444">
        <ele>51</ele>
        <time>2022-11-09T14:54:11Z</time>
      </trkpt>
      <trkpt lat="49.92548" lon="2.16446">
        <ele>50.8</ele>
        <time>2022-11-09T14:54:12Z</time>
      </trkpt>
      <trkpt lat="49.92547" lon="2.16448">
        <ele>50.6</ele>
        <time>2022-11-09T14:54:13Z</time>
      </trkpt>
      <trkpt lat="49.92546" lon="2.16449">
        <ele>50.5</ele>
        <time>2022-11-09T14:54:14Z</time>
      </trkpt>
      <trkpt lat="49.92546" lon="2.1645">
        <ele>50.4</ele>
        <time>2022-11-09T14:54:15Z</time>
      </trkpt>
      <trkpt lat="49.92545" lon="2.16453">
        <ele>50.2</ele>
        <time>2022-11-09T14:54:16Z</time>
      </trkpt>
      <trkpt lat="49.92544" lon="2.16454">
        <ele>50.1</ele>
        <time>2022-11-09T14:54:17Z</time>
      </trkpt>
      <trkpt lat="49.92543" lon="2.16455">
        <ele>50</ele>
        <time>2022-11-09T14:54:18Z</time>
      </trkpt>
      <trkpt lat="49.92543" lon="2.16456">
        <ele>49.9</ele>
        <time>2022-11-09T14:54:19Z</time>
      </trkpt>
      <trkpt lat="49.92542" lon="2.16457">
        <ele>49.8</ele>
        <time>2022-11-09T14:54:20Z</time>
      </trkpt>
      <trkpt lat="49.92542" lon="2.16459">
        <ele>49.7</ele>
        <time>2022-11-09T14:54:21Z</time>
      </trkpt>
      <trkpt lat="49.92541" lon="2.1646">
        <ele>49.6</ele>
        <time>2022-11-09T14:54:23Z</time>
      </trkpt>
      <trkpt lat="49.92541" lon="2.16462">
        <ele>49.5</ele>
        <time>2022-11-09T14:54:24Z</time>
      </trkpt>
      <trkpt lat="49.9254" lon="2.16463">
        <ele>49.4</ele>
        <time>2022-11-09T14:54:25Z</time>
      </trkpt>
      <trkpt lat="49.92539" lon="2.16464">
        <ele>49.2</ele>
        <time>2022-11-09T14:54:26Z</time>
      </trkpt>
      <trkpt lat="49.92539" lon="2.16466">
        <ele>49.1</ele>
        <time>2022-11-09T14:54:27Z</time>
      </trkpt>
      <trkpt lat="49.92538" lon="2.16467">
        <ele>49</ele>
        <time>2022-11-09T14:54:28Z</time>
      </trkpt>
      <trkpt lat="49.92537" lon="2.16468">
        <ele>48.9</ele>
        <time>2022-11-09T14:54:29Z</time>
      </trkpt>
      <trkpt lat="49.92536" lon="2.16469">
        <ele>48.8</ele>
        <time>2022-11-09T14:54:31Z</time>
      </trkpt>
      <trkpt lat="49.92535" lon="2.16469">
        <ele>48.7</ele>
        <time>2022-11-09T14:54:32Z</time>
      </trkpt>
      <trkpt lat="49.92534" lon="2.16471">
        <ele>48.5</ele>
        <time>2022-11-09T14:54:33Z</time>
      </trkpt>
      <trkpt lat="49.92534" lon="2.16472">
        <ele>48.4</ele>
        <time>2022-11-09T14:54:34Z</time>
      </trkpt>
      <trkpt lat="49.92533" lon="2.16473">
        <ele>48.4</ele>
        <time>2022-11-09T14:54:35Z</time>
      </trkpt>
      <trkpt lat="49.92533" lon="2.16473">
        <ele>48.3</ele>
        <time>2022-11-09T14:54:36Z</time>
      </trkpt>
      <trkpt lat="49.92532" lon="2.16474">
        <ele>48.2</ele>
        <time>2022-11-09T14:54:37Z</time>
      </trkpt>
      <trkpt lat="49.92531" lon="2.16475">
        <ele>48.1</ele>
        <time>2022-11-09T14:54:39Z</time>
      </trkpt>
      <trkpt lat="49.9253" lon="2.16477">
        <ele>48</ele>
        <time>2022-11-09T14:54:40Z</time>
      </trkpt>
      <trkpt lat="49.92529" lon="2.16478">
        <ele>47.9</ele>
        <time>2022-11-09T14:54:41Z</time>
      </trkpt>
      <trkpt lat="49.92529" lon="2.16479">
        <ele>47.7</ele>
        <time>2022-11-09T14:54:42Z</time>
      </trkpt>
      <trkpt lat="49.92528" lon="2.1648">
        <ele>47.6</ele>
        <time>2022-11-09T14:54:43Z</time>
      </trkpt>
      <trkpt lat="49.92527" lon="2.16481">
        <ele>47.5</ele>
        <time>2022-11-09T14:54:44Z</time>
      </trkpt>
      <trkpt lat="49.92526" lon="2.16482">
        <ele>47.4</ele>
        <time>2022-11-09T14:54:45Z</time>
      </trkpt>
      <trkpt lat="49.92526" lon="2.16484">
        <ele>47.3</ele>
        <time>2022-11-09T14:54:46Z</time>
      </trkpt>
      <trkpt lat="49.92526" lon="2.16485">
        <ele>47.2</ele>
        <time>2022-11-09T14:54:48Z</time>
      </trkpt>
      <trkpt lat="49.92525" lon="2.16486">
        <ele>47.2</ele>
        <time>2022-11-09T14:54:49Z</time>
      </trkpt>
      <trkpt lat="49.92525" lon="2.16488">
        <ele>47.1</ele>
        <time>2022-11-09T14:54:50Z</time>
      </trkpt>
      <trkpt lat="49.92525" lon="2.16489">
        <ele>47</ele>
        <time>2022-11-09T14:54:51Z</time>
      </trkpt>
      <trkpt lat="49.92524" lon="2.1649">
        <ele>46.9</ele>
        <time>2022-11-09T14:54:52Z</time>
      </trkpt>
      <trkpt lat="49.92523" lon="2.16492">
        <ele>46.7</ele>
        <time>2022-11-09T14:54:53Z</time>
      </trkpt>
      <trkpt lat="49.92523" lon="2.16494">
        <ele>46.6</ele>
        <time>2022-11-09T14:54:54Z</time>
      </trkpt>
      <trkpt lat="49.92522" lon="2.16495">
        <ele>46.5</ele>
        <time>2022-11-09T14:54:55Z</time>
      </trkpt>
      <trkpt lat="49.92521" lon="2.16496">
        <ele>46.4</ele>
        <time>2022-11-09T14:54:57Z</time>
      </trkpt>
      <trkpt lat="49.9252" lon="2.16498">
        <ele>46.3</ele>
        <time>2022-11-09T14:54:58Z</time>
      </trkpt>
      <trkpt lat="49.9252" lon="2.16499">
        <ele>46.2</ele>
        <time>2022-11-09T14:54:59Z</time>
      </trkpt>
      <trkpt lat="49.92519" lon="2.16501">
        <ele>46</ele>
        <time>2022-11-09T14:55:00Z</time>
      </trkpt>
      <trkpt lat="49.92519" lon="2.16502">
        <ele>45.9</ele>
        <time>2022-11-09T14:55:01Z</time>
      </trkpt>
      <trkpt lat="49.92518" lon="2.16503">
        <ele>45.9</ele>
        <time>2022-11-09T14:55:02Z</time>
      </trkpt>
      <trkpt lat="49.92518" lon="2.16504">
        <ele>45.8</ele>
        <time>2022-11-09T14:55:03Z</time>
      </trkpt>
      <trkpt lat="49.92517" lon="2.16505">
        <ele>45.7</ele>
        <time>2022-11-09T14:55:05Z</time>
      </trkpt>
      <trkpt lat="49.92516" lon="2.16507">
        <ele>45.6</ele>
        <time>2022-11-09T14:55:06Z</time>
      </trkpt>
      <trkpt lat="49.92516" lon="2.16508">
        <ele>45.5</ele>
        <time>2022-11-09T14:55:07Z</time>
      </trkpt>
      <trkpt lat="49.92515" lon="2.16509">
        <ele>45.4</ele>
        <time>2022-11-09T14:55:08Z</time>
      </trkpt>
      <trkpt lat="49.92515" lon="2.16511">
        <ele>45.2</ele>
        <time>2022-11-09T14:55:09Z</time>
      </trkpt>
      <trkpt lat="49.92514" lon="2.16512">
        <ele>45.1</ele>
        <time>2022-11-09T14:55:10Z</time>
      </trkpt>
      <trkpt lat="49.92514" lon="2.16514">
        <ele>45</ele>
        <time>2022-11-09T14:55:12Z</time>
      </trkpt>
      <trkpt lat="49.92513" lon="2.16515">
        <ele>44.9</ele>
        <time>2022-11-09T14:55:13Z</time>
      </trkpt>
      <trkpt lat="49.92513" lon="2.16517">
        <ele>44.8</ele>
        <time>2022-11-09T14:55:14Z</time>
      </trkpt>
      <trkpt lat="49.92512" lon="2.16518">
        <ele>44.7</ele>
        <time>2022-11-09T14:55:15Z</time>
      </trkpt>
      <trkpt lat="49.92512" lon="2.1652">
        <ele>44.6</ele>
        <time>2022-11-09T14:55:16Z</time>
      </trkpt>
      <trkpt lat="49.92511" lon="2.16522">
        <ele>44.5</ele>
        <time>2022-11-09T14:55:17Z</time>
      </trkpt>
      <trkpt lat="49.92511" lon="2.16523">
        <ele>44.4</ele>
        <time>2022-11-09T14:55:18Z</time>
      </trkpt>
      <trkpt lat="49.92511" lon="2.16525">
        <ele>44.3</ele>
        <time>2022-11-09T14:55:19Z</time>
      </trkpt>
      <trkpt lat="49.9251" lon="2.16526">
        <ele>44.1</ele>
        <time>2022-11-09T14:55:21Z</time>
      </trkpt>
      <trkpt lat="49.9251" lon="2.16528">
        <ele>44</ele>
        <time>2022-11-09T14:55:22Z</time>
      </trkpt>
      <trkpt lat="49.92509" lon="2.16529">
        <ele>43.9</ele>
        <time>2022-11-09T14:55:23Z</time>
      </trkpt>
      <trkpt lat="49.92509" lon="2.16531">
        <ele>43.8</ele>
        <time>2022-11-09T14:55:24Z</time>
      </trkpt>
      <trkpt lat="49.92508" lon="2.16534">
        <ele>43.6</ele>
        <time>2022-11-09T14:55:25Z</time>
      </trkpt>
      <trkpt lat="49.92507" lon="2.16535">
        <ele>43.5</ele>
        <time>2022-11-09T14:55:26Z</time>
      </trkpt>
      <trkpt lat="49.92507" lon="2.16536">
        <ele>43.4</ele>
        <time>2022-11-09T14:55:27Z</time>
      </trkpt>
      <trkpt lat="49.92506" lon="2.16537">
        <ele>43.3</ele>
        <time>2022-11-09T14:55:28Z</time>
      </trkpt>
      <trkpt lat="49.92506" lon="2.16539">
        <ele>43.2</ele>
        <time>2022-11-09T14:55:30Z</time>
      </trkpt>
      <trkpt lat="49.92505" lon="2.16541">
        <ele>43.1</ele>
        <time>2022-11-09T14:55:31Z</time>
      </trkpt>
      <trkpt lat="49.92505" lon="2.16542">
        <ele>43</ele>
        <time>2022-11-09T14:55:32Z</time>
      </trkpt>
      <trkpt lat="49.92504" lon="2.16543">
        <ele>42.8</ele>
        <time>2022-11-09T14:55:33Z</time>
      </trkpt>
      <trkpt lat="49.92504" lon="2.16545">
        <ele>42.7</ele>
        <time>2022-11-09T14:55:34Z</time>
      </trkpt>
      <trkpt lat="49.92503" lon="2.16547">
        <ele>42.6</ele>
        <time>2022-11-09T14:55:35Z</time>
      </trkpt>
      <trkpt lat="49.92503" lon="2.16548">
        <ele>42.5</ele>
        <time>2022-11-09T14:55:36Z</time>
      </trkpt>
      <trkpt lat="49.92502" lon="2.1655">
        <ele>42.4</ele>
        <time>2022-11-09T14:55:38Z</time>
      </trkpt>
      <trkpt lat="49.92502" lon="2.16551">
        <ele>42.3</ele>
        <time>2022-11-09T14:55:39Z</time>
      </trkpt>
      <trkpt lat="49.92501" lon="2.16553">
        <ele>42.1</ele>
        <time>2022-11-09T14:55:40Z</time>
      </trkpt>
      <trkpt lat="49.925" lon="2.16554">
        <ele>42</ele>
        <time>2022-11-09T14:55:41Z</time>
      </trkpt>
      <trkpt lat="49.925" lon="2.16555">
        <ele>41.9</ele>
        <time>2022-11-09T14:55:42Z</time>
      </trkpt>
      <trkpt lat="49.92499" lon="2.16557">
        <ele>41.8</ele>
        <time>2022-11-09T14:55:43Z</time>
      </trkpt>
      <trkpt lat="49.92499" lon="2.16558">
        <ele>41.7</ele>
        <time>2022-11-09T14:55:44Z</time>
      </trkpt>
      <trkpt lat="49.92499" lon="2.1656">
        <ele>41.6</ele>
        <time>2022-11-09T14:55:45Z</time>
      </trkpt>
      <trkpt lat="49.92498" lon="2.16561">
        <ele>41.6</ele>
        <time>2022-11-09T14:55:46Z</time>
      </trkpt>
      <trkpt lat="49.92498" lon="2.16562">
        <ele>41.5</ele>
        <time>2022-11-09T14:55:47Z</time>
      </trkpt>
      <trkpt lat="49.92498" lon="2.16564">
        <ele>41.3</ele>
        <time>2022-11-09T14:55:49Z</time>
      </trkpt>
      <trkpt lat="49.92497" lon="2.16565">
        <ele>41.2</ele>
        <time>2022-11-09T14:55:50Z</time>
      </trkpt>
      <trkpt lat="49.92496" lon="2.16566">
        <ele>41.2</ele>
        <time>2022-11-09T14:55:51Z</time>
      </trkpt>
      <trkpt lat="49.92496" lon="2.16567">
        <ele>41.1</ele>
        <time>2022-11-09T14:55:52Z</time>
      </trkpt>
      <trkpt lat="49.92495" lon="2.16568">
        <ele>41</ele>
        <time>2022-11-09T14:55:53Z</time>
      </trkpt>
      <trkpt lat="49.92495" lon="2.16569">
        <ele>40.9</ele>
        <time>2022-11-09T14:55:54Z</time>
      </trkpt>
      <trkpt lat="49.92494" lon="2.1657">
        <ele>40.9</ele>
        <time>2022-11-09T14:55:55Z</time>
      </trkpt>
      <trkpt lat="49.92494" lon="2.16571">
        <ele>40.8</ele>
        <time>2022-11-09T14:55:56Z</time>
      </trkpt>
      <trkpt lat="49.92494" lon="2.16572">
        <ele>40.7</ele>
        <time>2022-11-09T14:55:58Z</time>
      </trkpt>
      <trkpt lat="49.92493" lon="2.16574">
        <ele>40.6</ele>
        <time>2022-11-09T14:55:59Z</time>
      </trkpt>
      <trkpt lat="49.92493" lon="2.16575">
        <ele>40.5</ele>
        <time>2022-11-09T14:56:00Z</time>
      </trkpt>
      <trkpt lat="49.92492" lon="2.16577">
        <ele>40.4</ele>
        <time>2022-11-09T14:56:01Z</time>
      </trkpt>
      <trkpt lat="49.92492" lon="2.16578">
        <ele>40.3</ele>
        <time>2022-11-09T14:56:02Z</time>
      </trkpt>
      <trkpt lat="49.92491" lon="2.16579">
        <ele>40.3</ele>
        <time>2022-11-09T14:56:03Z</time>
      </trkpt>
      <trkpt lat="49.92491" lon="2.16579">
        <ele>40.2</ele>
        <time>2022-11-09T14:56:04Z</time>
      </trkpt>
      <trkpt lat="49.92491" lon="2.1658">
        <ele>40.2</ele>
        <time>2022-11-09T14:56:05Z</time>
      </trkpt>
      <trkpt lat="49.92491" lon="2.16581">
        <ele>40.1</ele>
        <time>2022-11-09T14:56:06Z</time>
      </trkpt>
      <trkpt lat="49.92491" lon="2.16582">
        <ele>40.1</ele>
        <time>2022-11-09T14:56:08Z</time>
      </trkpt>
      <trkpt lat="49.92491" lon="2.16584">
        <ele>40</ele>
        <time>2022-11-09T14:56:09Z</time>
      </trkpt>
      <trkpt lat="49.92491" lon="2.16586">
        <ele>39.9</ele>
        <time>2022-11-09T14:56:10Z</time>
      </trkpt>
      <trkpt lat="49.92491" lon="2.16587">
        <ele>39.8</ele>
        <time>2022-11-09T14:56:11Z</time>
      </trkpt>
      <trkpt lat="49.92491" lon="2.16589">
        <ele>39.6</ele>
        <time>2022-11-09T14:56:12Z</time>
      </trkpt>
      <trkpt lat="49.9249" lon="2.16591">
        <ele>39.6</ele>
        <time>2022-11-09T14:56:13Z</time>
      </trkpt>
      <trkpt lat="49.92489" lon="2.16592">
        <ele>39.5</ele>
        <time>2022-11-09T14:56:14Z</time>
      </trkpt>
      <trkpt lat="49.92489" lon="2.16593">
        <ele>39.4</ele>
        <time>2022-11-09T14:56:16Z</time>
      </trkpt>
      <trkpt lat="49.92488" lon="2.16594">
        <ele>39.2</ele>
        <time>2022-11-09T14:56:17Z</time>
      </trkpt>
      <trkpt lat="49.92487" lon="2.16596">
        <ele>39.1</ele>
        <time>2022-11-09T14:56:18Z</time>
      </trkpt>
      <trkpt lat="49.92487" lon="2.16597">
        <ele>39</ele>
        <time>2022-11-09T14:56:19Z</time>
      </trkpt>
      <trkpt lat="49.92486" lon="2.16599">
        <ele>38.9</ele>
        <time>2022-11-09T14:56:20Z</time>
      </trkpt>
      <trkpt lat="49.92486" lon="2.166">
        <ele>38.8</ele>
        <time>2022-11-09T14:56:21Z</time>
      </trkpt>
      <trkpt lat="49.92485" lon="2.16603">
        <ele>38.6</ele>
        <time>2022-11-09T14:56:23Z</time>
      </trkpt>
      <trkpt lat="49.92484" lon="2.16604">
        <ele>38.6</ele>
        <time>2022-11-09T14:56:24Z</time>
      </trkpt>
      <trkpt lat="49.92484" lon="2.16605">
        <ele>38.5</ele>
        <time>2022-11-09T14:56:25Z</time>
      </trkpt>
      <trkpt lat="49.92483" lon="2.16607">
        <ele>38.4</ele>
        <time>2022-11-09T14:56:26Z</time>
      </trkpt>
      <trkpt lat="49.92483" lon="2.16608">
        <ele>38.3</ele>
        <time>2022-11-09T14:56:27Z</time>
      </trkpt>
      <trkpt lat="49.92482" lon="2.1661">
        <ele>38.2</ele>
        <time>2022-11-09T14:56:28Z</time>
      </trkpt>
      <trkpt lat="49.92482" lon="2.16613">
        <ele>38</ele>
        <time>2022-11-09T14:56:29Z</time>
      </trkpt>
      <trkpt lat="49.92481" lon="2.16614">
        <ele>37.9</ele>
        <time>2022-11-09T14:56:30Z</time>
      </trkpt>
      <trkpt lat="49.92481" lon="2.16616">
        <ele>37.9</ele>
        <time>2022-11-09T14:56:31Z</time>
      </trkpt>
      <trkpt lat="49.9248" lon="2.16618">
        <ele>37.7</ele>
        <time>2022-11-09T14:56:33Z</time>
      </trkpt>
      <trkpt lat="49.9248" lon="2.1662">
        <ele>37.6</ele>
        <time>2022-11-09T14:56:34Z</time>
      </trkpt>
      <trkpt lat="49.9248" lon="2.16623">
        <ele>37.4</ele>
        <time>2022-11-09T14:56:35Z</time>
      </trkpt>
      <trkpt lat="49.92479" lon="2.16625">
        <ele>37.3</ele>
        <time>2022-11-09T14:56:36Z</time>
      </trkpt>
      <trkpt lat="49.92479" lon="2.1663">
        <ele>37</ele>
        <time>2022-11-09T14:56:37Z</time>
      </trkpt>
      <trkpt lat="49.92478" lon="2.16631">
        <ele>36.9</ele>
        <time>2022-11-09T14:56:38Z</time>
      </trkpt>
      <trkpt lat="49.92478" lon="2.16633">
        <ele>36.7</ele>
        <time>2022-11-09T14:56:39Z</time>
      </trkpt>
      <trkpt lat="49.92477" lon="2.16636">
        <ele>36.6</ele>
        <time>2022-11-09T14:56:40Z</time>
      </trkpt>
      <trkpt lat="49.92477" lon="2.16639">
        <ele>36.4</ele>
        <time>2022-11-09T14:56:41Z</time>
      </trkpt>
      <trkpt lat="49.92477" lon="2.16641">
        <ele>36.2</ele>
        <time>2022-11-09T14:56:42Z</time>
      </trkpt>
      <trkpt lat="49.92476" lon="2.16644">
        <ele>36</ele>
        <time>2022-11-09T14:56:43Z</time>
      </trkpt>
      <trkpt lat="49.92476" lon="2.16647">
        <ele>35.8</ele>
        <time>2022-11-09T14:56:45Z</time>
      </trkpt>
      <trkpt lat="49.92476" lon="2.1665">
        <ele>35.6</ele>
        <time>2022-11-09T14:56:46Z</time>
      </trkpt>
      <trkpt lat="49.92476" lon="2.16652">
        <ele>35.5</ele>
        <time>2022-11-09T14:56:47Z</time>
      </trkpt>
      <trkpt lat="49.92475" lon="2.16655">
        <ele>35.3</ele>
        <time>2022-11-09T14:56:48Z</time>
      </trkpt>
      <trkpt lat="49.92475" lon="2.16657">
        <ele>35.1</ele>
        <time>2022-11-09T14:56:50Z</time>
      </trkpt>
      <trkpt lat="49.92474" lon="2.16659">
        <ele>35</ele>
        <time>2022-11-09T14:56:51Z</time>
      </trkpt>
      <trkpt lat="49.92474" lon="2.16661">
        <ele>34.8</ele>
        <time>2022-11-09T14:56:52Z</time>
      </trkpt>
      <trkpt lat="49.92473" lon="2.16664">
        <ele>34.6</ele>
        <time>2022-11-09T14:56:53Z</time>
      </trkpt>
      <trkpt lat="49.92473" lon="2.16666">
        <ele>34.5</ele>
        <time>2022-11-09T14:56:54Z</time>
      </trkpt>
      <trkpt lat="49.92473" lon="2.16667">
        <ele>34.4</ele>
        <time>2022-11-09T14:56:55Z</time>
      </trkpt>
      <trkpt lat="49.92472" lon="2.1667">
        <ele>34.3</ele>
        <time>2022-11-09T14:56:56Z</time>
      </trkpt>
      <trkpt lat="49.92472" lon="2.16671">
        <ele>34.2</ele>
        <time>2022-11-09T14:56:57Z</time>
      </trkpt>
      <trkpt lat="49.92472" lon="2.16673">
        <ele>34.1</ele>
        <time>2022-11-09T14:56:58Z</time>
      </trkpt>
      <trkpt lat="49.92471" lon="2.16676">
        <ele>33.9</ele>
        <time>2022-11-09T14:56:59Z</time>
      </trkpt>
      <trkpt lat="49.92471" lon="2.16677">
        <ele>33.8</ele>
        <time>2022-11-09T14:57:00Z</time>
      </trkpt>
      <trkpt lat="49.92471" lon="2.16679">
        <ele>33.7</ele>
        <time>2022-11-09T14:57:01Z</time>
      </trkpt>
      <trkpt lat="49.9247" lon="2.16682">
        <ele>33.5</ele>
        <time>2022-11-09T14:57:02Z</time>
      </trkpt>
      <trkpt lat="49.9247" lon="2.16683">
        <ele>33.4</ele>
        <time>2022-11-09T14:57:03Z</time>
      </trkpt>
      <trkpt lat="49.9247" lon="2.16685">
        <ele>33.4</ele>
        <time>2022-11-09T14:57:04Z</time>
      </trkpt>
      <trkpt lat="49.9247" lon="2.16687">
        <ele>33.2</ele>
        <time>2022-11-09T14:57:05Z</time>
      </trkpt>
      <trkpt lat="49.92469" lon="2.16688">
        <ele>33.1</ele>
        <time>2022-11-09T14:57:06Z</time>
      </trkpt>
      <trkpt lat="49.92469" lon="2.1669">
        <ele>33.1</ele>
        <time>2022-11-09T14:57:08Z</time>
      </trkpt>
      <trkpt lat="49.92469" lon="2.16692">
        <ele>33</ele>
        <time>2022-11-09T14:57:09Z</time>
      </trkpt>
      <trkpt lat="49.92469" lon="2.16693">
        <ele>32.9</ele>
        <time>2022-11-09T14:57:10Z</time>
      </trkpt>
      <trkpt lat="49.92469" lon="2.16694">
        <ele>32.8</ele>
        <time>2022-11-09T14:57:11Z</time>
      </trkpt>
      <trkpt lat="49.92468" lon="2.16696">
        <ele>32.7</ele>
        <time>2022-11-09T14:57:12Z</time>
      </trkpt>
      <trkpt lat="49.92468" lon="2.16698">
        <ele>32.6</ele>
        <time>2022-11-09T14:57:13Z</time>
      </trkpt>
      <trkpt lat="49.92468" lon="2.167">
        <ele>32.5</ele>
        <time>2022-11-09T14:57:14Z</time>
      </trkpt>
      <trkpt lat="49.92468" lon="2.16702">
        <ele>32.4</ele>
        <time>2022-11-09T14:57:15Z</time>
      </trkpt>
      <trkpt lat="49.92468" lon="2.16704">
        <ele>32.3</ele>
        <time>2022-11-09T14:57:16Z</time>
      </trkpt>
      <trkpt lat="49.92469" lon="2.16705">
        <ele>32.3</ele>
        <time>2022-11-09T14:57:18Z</time>
      </trkpt>
      <trkpt lat="49.92469" lon="2.16707">
        <ele>32.2</ele>
        <time>2022-11-09T14:57:19Z</time>
      </trkpt>
      <trkpt lat="49.92469" lon="2.16708">
        <ele>32.1</ele>
        <time>2022-11-09T14:57:20Z</time>
      </trkpt>
      <trkpt lat="49.92469" lon="2.16711">
        <ele>32</ele>
        <time>2022-11-09T14:57:21Z</time>
      </trkpt>
      <trkpt lat="49.92469" lon="2.16714">
        <ele>31.8</ele>
        <time>2022-11-09T14:57:22Z</time>
      </trkpt>
      <trkpt lat="49.92469" lon="2.16715">
        <ele>31.8</ele>
        <time>2022-11-09T14:57:23Z</time>
      </trkpt>
      <trkpt lat="49.92469" lon="2.16716">
        <ele>31.7</ele>
        <time>2022-11-09T14:57:24Z</time>
      </trkpt>
      <trkpt lat="49.92469" lon="2.16719">
        <ele>31.6</ele>
        <time>2022-11-09T14:57:25Z</time>
      </trkpt>
      <trkpt lat="49.92469" lon="2.16721">
        <ele>31.5</ele>
        <time>2022-11-09T14:57:26Z</time>
      </trkpt>
      <trkpt lat="49.92469" lon="2.16724">
        <ele>31.4</ele>
        <time>2022-11-09T14:57:28Z</time>
      </trkpt>
      <trkpt lat="49.9247" lon="2.16725">
        <ele>31.3</ele>
        <time>2022-11-09T14:57:29Z</time>
      </trkpt>
      <trkpt lat="49.9247" lon="2.16727">
        <ele>31.2</ele>
        <time>2022-11-09T14:57:30Z</time>
      </trkpt>
      <trkpt lat="49.9247" lon="2.1673">
        <ele>31.1</ele>
        <time>2022-11-09T14:57:31Z</time>
      </trkpt>
      <trkpt lat="49.9247" lon="2.16734">
        <ele>31</ele>
        <time>2022-11-09T14:57:32Z</time>
      </trkpt>
      <trkpt lat="49.92471" lon="2.16736">
        <ele>30.9</ele>
        <time>2022-11-09T14:57:34Z</time>
      </trkpt>
      <trkpt lat="49.92471" lon="2.16738">
        <ele>30.8</ele>
        <time>2022-11-09T14:57:35Z</time>
      </trkpt>
      <trkpt lat="49.92471" lon="2.16739">
        <ele>30.7</ele>
        <time>2022-11-09T14:57:36Z</time>
      </trkpt>
      <trkpt lat="49.92471" lon="2.16741">
        <ele>30.7</ele>
        <time>2022-11-09T14:57:37Z</time>
      </trkpt>
      <trkpt lat="49.92471" lon="2.16743">
        <ele>30.6</ele>
        <time>2022-11-09T14:57:38Z</time>
      </trkpt>
      <trkpt lat="49.92471" lon="2.16746">
        <ele>30.5</ele>
        <time>2022-11-09T14:57:39Z</time>
      </trkpt>
      <trkpt lat="49.92471" lon="2.16748">
        <ele>30.4</ele>
        <time>2022-11-09T14:57:40Z</time>
      </trkpt>
      <trkpt lat="49.92471" lon="2.16751">
        <ele>30.3</ele>
        <time>2022-11-09T14:57:41Z</time>
      </trkpt>
      <trkpt lat="49.92471" lon="2.16754">
        <ele>30.2</ele>
        <time>2022-11-09T14:57:42Z</time>
      </trkpt>
      <trkpt lat="49.92471" lon="2.16756">
        <ele>30.1</ele>
        <time>2022-11-09T14:57:43Z</time>
      </trkpt>
      <trkpt lat="49.92471" lon="2.16757">
        <ele>30</ele>
        <time>2022-11-09T14:57:44Z</time>
      </trkpt>
      <trkpt lat="49.92472" lon="2.1676">
        <ele>29.9</ele>
        <time>2022-11-09T14:57:46Z</time>
      </trkpt>
      <trkpt lat="49.92472" lon="2.16761">
        <ele>29.9</ele>
        <time>2022-11-09T14:57:47Z</time>
      </trkpt>
      <trkpt lat="49.92472" lon="2.16762">
        <ele>29.8</ele>
        <time>2022-11-09T14:57:48Z</time>
      </trkpt>
      <trkpt lat="49.92472" lon="2.16764">
        <ele>29.8</ele>
        <time>2022-11-09T14:57:49Z</time>
      </trkpt>
      <trkpt lat="49.92473" lon="2.16765">
        <ele>29.7</ele>
        <time>2022-11-09T14:57:50Z</time>
      </trkpt>
      <trkpt lat="49.92473" lon="2.16767">
        <ele>29.6</ele>
        <time>2022-11-09T14:57:51Z</time>
      </trkpt>
      <trkpt lat="49.92474" lon="2.16769">
        <ele>29.5</ele>
        <time>2022-11-09T14:57:53Z</time>
      </trkpt>
      <trkpt lat="49.92474" lon="2.16771">
        <ele>29.5</ele>
        <time>2022-11-09T14:57:54Z</time>
      </trkpt>
      <trkpt lat="49.92474" lon="2.16772">
        <ele>29.4</ele>
        <time>2022-11-09T14:57:55Z</time>
      </trkpt>
      <trkpt lat="49.92474" lon="2.16774">
        <ele>29.4</ele>
        <time>2022-11-09T14:57:56Z</time>
      </trkpt>
      <trkpt lat="49.92475" lon="2.16776">
        <ele>29.3</ele>
        <time>2022-11-09T14:57:57Z</time>
      </trkpt>
      <trkpt lat="49.92476" lon="2.16779">
        <ele>29.2</ele>
        <time>2022-11-09T14:57:58Z</time>
      </trkpt>
      <trkpt lat="49.92476" lon="2.1678">
        <ele>29.1</ele>
        <time>2022-11-09T14:57:59Z</time>
      </trkpt>
      <trkpt lat="49.92476" lon="2.16782">
        <ele>29.1</ele>
        <time>2022-11-09T14:58:00Z</time>
      </trkpt>
      <trkpt lat="49.92477" lon="2.16783">
        <ele>29</ele>
        <time>2022-11-09T14:58:01Z</time>
      </trkpt>
      <trkpt lat="49.92477" lon="2.16785">
        <ele>28.9</ele>
        <time>2022-11-09T14:58:02Z</time>
      </trkpt>
      <trkpt lat="49.92478" lon="2.16787">
        <ele>28.9</ele>
        <time>2022-11-09T14:58:03Z</time>
      </trkpt>
      <trkpt lat="49.92478" lon="2.1679">
        <ele>28.8</ele>
        <time>2022-11-09T14:58:05Z</time>
      </trkpt>
      <trkpt lat="49.92478" lon="2.16791">
        <ele>28.7</ele>
        <time>2022-11-09T14:58:06Z</time>
      </trkpt>
      <trkpt lat="49.92478" lon="2.16792">
        <ele>28.7</ele>
        <time>2022-11-09T14:58:07Z</time>
      </trkpt>
      <trkpt lat="49.92478" lon="2.16796">
        <ele>28.6</ele>
        <time>2022-11-09T14:58:08Z</time>
      </trkpt>
      <trkpt lat="49.92478" lon="2.16797">
        <ele>28.6</ele>
        <time>2022-11-09T14:58:09Z</time>
      </trkpt>
      <trkpt lat="49.92478" lon="2.16798">
        <ele>28.5</ele>
        <time>2022-11-09T14:58:10Z</time>
      </trkpt>
      <trkpt lat="49.92478" lon="2.168">
        <ele>28.5</ele>
        <time>2022-11-09T14:58:11Z</time>
      </trkpt>
      <trkpt lat="49.92478" lon="2.16801">
        <ele>28.4</ele>
        <time>2022-11-09T14:58:13Z</time>
      </trkpt>
      <trkpt lat="49.92478" lon="2.16802">
        <ele>28.4</ele>
        <time>2022-11-09T14:58:14Z</time>
      </trkpt>
      <trkpt lat="49.92478" lon="2.16803">
        <ele>28.4</ele>
        <time>2022-11-09T14:58:15Z</time>
      </trkpt>
      <trkpt lat="49.92479" lon="2.16805">
        <ele>28.3</ele>
        <time>2022-11-09T14:58:16Z</time>
      </trkpt>
      <trkpt lat="49.9248" lon="2.16808">
        <ele>28.2</ele>
        <time>2022-11-09T14:58:17Z</time>
      </trkpt>
      <trkpt lat="49.92481" lon="2.1681">
        <ele>28.2</ele>
        <time>2022-11-09T14:58:18Z</time>
      </trkpt>
      <trkpt lat="49.92482" lon="2.16811">
        <ele>28.1</ele>
        <time>2022-11-09T14:58:19Z</time>
      </trkpt>
      <trkpt lat="49.92483" lon="2.16814">
        <ele>28</ele>
        <time>2022-11-09T14:58:20Z</time>
      </trkpt>
      <trkpt lat="49.92483" lon="2.16816">
        <ele>28</ele>
        <time>2022-11-09T14:58:22Z</time>
      </trkpt>
      <trkpt lat="49.92484" lon="2.16817">
        <ele>27.9</ele>
        <time>2022-11-09T14:58:23Z</time>
      </trkpt>
      <trkpt lat="49.92484" lon="2.16819">
        <ele>27.9</ele>
        <time>2022-11-09T14:58:24Z</time>
      </trkpt>
      <trkpt lat="49.92484" lon="2.1682">
        <ele>27.8</ele>
        <time>2022-11-09T14:58:25Z</time>
      </trkpt>
      <trkpt lat="49.92485" lon="2.16822">
        <ele>27.8</ele>
        <time>2022-11-09T14:58:26Z</time>
      </trkpt>
      <trkpt lat="49.92486" lon="2.16824">
        <ele>27.7</ele>
        <time>2022-11-09T14:58:27Z</time>
      </trkpt>
      <trkpt lat="49.92487" lon="2.16827">
        <ele>27.6</ele>
        <time>2022-11-09T14:58:29Z</time>
      </trkpt>
      <trkpt lat="49.92488" lon="2.16828">
        <ele>27.6</ele>
        <time>2022-11-09T14:58:30Z</time>
      </trkpt>
      <trkpt lat="49.92489" lon="2.16829">
        <ele>27.6</ele>
        <time>2022-11-09T14:58:31Z</time>
      </trkpt>
      <trkpt lat="49.9249" lon="2.1683">
        <ele>27.5</ele>
        <time>2022-11-09T14:58:32Z</time>
      </trkpt>
      <trkpt lat="49.92491" lon="2.16832">
        <ele>27.5</ele>
        <time>2022-11-09T14:58:33Z</time>
      </trkpt>
      <trkpt lat="49.92492" lon="2.16834">
        <ele>27.4</ele>
        <time>2022-11-09T14:58:34Z</time>
      </trkpt>
      <trkpt lat="49.92493" lon="2.16835">
        <ele>27.4</ele>
        <time>2022-11-09T14:58:35Z</time>
      </trkpt>
      <trkpt lat="49.92494" lon="2.16838">
        <ele>27.3</ele>
        <time>2022-11-09T14:58:37Z</time>
      </trkpt>
      <trkpt lat="49.92495" lon="2.16839">
        <ele>27.2</ele>
        <time>2022-11-09T14:58:38Z</time>
      </trkpt>
      <trkpt lat="49.92496" lon="2.16843">
        <ele>27.1</ele>
        <time>2022-11-09T14:58:39Z</time>
      </trkpt>
      <trkpt lat="49.92496" lon="2.16844">
        <ele>27.1</ele>
        <time>2022-11-09T14:58:41Z</time>
      </trkpt>
      <trkpt lat="49.92497" lon="2.16846">
        <ele>27.1</ele>
        <time>2022-11-09T14:58:42Z</time>
      </trkpt>
      <trkpt lat="49.92497" lon="2.16848">
        <ele>27</ele>
        <time>2022-11-09T14:58:43Z</time>
      </trkpt>
      <trkpt lat="49.92498" lon="2.16849">
        <ele>27</ele>
        <time>2022-11-09T14:58:44Z</time>
      </trkpt>
      <trkpt lat="49.92498" lon="2.16852">
        <ele>26.9</ele>
        <time>2022-11-09T14:58:45Z</time>
      </trkpt>
      <trkpt lat="49.92499" lon="2.16853">
        <ele>26.9</ele>
        <time>2022-11-09T14:58:46Z</time>
      </trkpt>
      <trkpt lat="49.92499" lon="2.16855">
        <ele>26.9</ele>
        <time>2022-11-09T14:58:47Z</time>
      </trkpt>
      <trkpt lat="49.92499" lon="2.16856">
        <ele>26.8</ele>
        <time>2022-11-09T14:58:48Z</time>
      </trkpt>
      <trkpt lat="49.925" lon="2.16858">
        <ele>26.8</ele>
        <time>2022-11-09T14:58:49Z</time>
      </trkpt>
      <trkpt lat="49.92501" lon="2.1686">
        <ele>26.7</ele>
        <time>2022-11-09T14:58:51Z</time>
      </trkpt>
      <trkpt lat="49.92501" lon="2.16861">
        <ele>26.7</ele>
        <time>2022-11-09T14:58:52Z</time>
      </trkpt>
      <trkpt lat="49.92502" lon="2.16862">
        <ele>26.7</ele>
        <time>2022-11-09T14:58:53Z</time>
      </trkpt>
      <trkpt lat="49.92503" lon="2.16864">
        <ele>26.6</ele>
        <time>2022-11-09T14:58:54Z</time>
      </trkpt>
      <trkpt lat="49.92503" lon="2.16865">
        <ele>26.6</ele>
        <time>2022-11-09T14:58:55Z</time>
      </trkpt>
      <trkpt lat="49.92504" lon="2.16866">
        <ele>26.6</ele>
        <time>2022-11-09T14:58:56Z</time>
      </trkpt>
      <trkpt lat="49.92504" lon="2.16868">
        <ele>26.5</ele>
        <time>2022-11-09T14:58:57Z</time>
      </trkpt>
      <trkpt lat="49.92505" lon="2.16869">
        <ele>26.5</ele>
        <time>2022-11-09T14:58:58Z</time>
      </trkpt>
      <trkpt lat="49.92506" lon="2.1687">
        <ele>26.5</ele>
        <time>2022-11-09T14:58:59Z</time>
      </trkpt>
      <trkpt lat="49.92506" lon="2.16872">
        <ele>26.5</ele>
        <time>2022-11-09T14:59:01Z</time>
      </trkpt>
      <trkpt lat="49.92507" lon="2.16873">
        <ele>26.4</ele>
        <time>2022-11-09T14:59:02Z</time>
      </trkpt>
      <trkpt lat="49.92507" lon="2.16875">
        <ele>26.4</ele>
        <time>2022-11-09T14:59:03Z</time>
      </trkpt>
      <trkpt lat="49.92508" lon="2.16877">
        <ele>26.4</ele>
        <time>2022-11-09T14:59:04Z</time>
      </trkpt>
      <trkpt lat="49.92508" lon="2.16878">
        <ele>26.4</ele>
        <time>2022-11-09T14:59:05Z</time>
      </trkpt>
      <trkpt lat="49.92509" lon="2.1688">
        <ele>26.3</ele>
        <time>2022-11-09T14:59:06Z</time>
      </trkpt>
      <trkpt lat="49.9251" lon="2.16883">
        <ele>26.3</ele>
        <time>2022-11-09T14:59:08Z</time>
      </trkpt>
      <trkpt lat="49.9251" lon="2.16885">
        <ele>26.3</ele>
        <time>2022-11-09T14:59:09Z</time>
      </trkpt>
      <trkpt lat="49.92511" lon="2.16887">
        <ele>26.3</ele>
        <time>2022-11-09T14:59:10Z</time>
      </trkpt>
      <trkpt lat="49.92512" lon="2.1689">
        <ele>26.2</ele>
        <time>2022-11-09T14:59:11Z</time>
      </trkpt>
      <trkpt lat="49.92512" lon="2.16892">
        <ele>26.2</ele>
        <time>2022-11-09T14:59:12Z</time>
      </trkpt>
      <trkpt lat="49.92512" lon="2.16893">
        <ele>26.2</ele>
        <time>2022-11-09T14:59:13Z</time>
      </trkpt>
      <trkpt lat="49.92513" lon="2.16896">
        <ele>26.2</ele>
        <time>2022-11-09T14:59:14Z</time>
      </trkpt>
      <trkpt lat="49.92514" lon="2.16897">
        <ele>26.2</ele>
        <time>2022-11-09T14:59:15Z</time>
      </trkpt>
      <trkpt lat="49.92514" lon="2.16898">
        <ele>26.2</ele>
        <time>2022-11-09T14:59:16Z</time>
      </trkpt>
      <trkpt lat="49.92515" lon="2.16901">
        <ele>26.1</ele>
        <time>2022-11-09T14:59:18Z</time>
      </trkpt>
      <trkpt lat="49.92516" lon="2.16902">
        <ele>26.1</ele>
        <time>2022-11-09T14:59:19Z</time>
      </trkpt>
      <trkpt lat="49.92516" lon="2.16903">
        <ele>26.1</ele>
        <time>2022-11-09T14:59:20Z</time>
      </trkpt>
      <trkpt lat="49.92517" lon="2.16905">
        <ele>26.1</ele>
        <time>2022-11-09T14:59:21Z</time>
      </trkpt>
      <trkpt lat="49.92518" lon="2.16907">
        <ele>26.1</ele>
        <time>2022-11-09T14:59:22Z</time>
      </trkpt>
      <trkpt lat="49.92519" lon="2.1691">
        <ele>26.1</ele>
        <time>2022-11-09T14:59:23Z</time>
      </trkpt>
      <trkpt lat="49.92519" lon="2.16912">
        <ele>26.1</ele>
        <time>2022-11-09T14:59:25Z</time>
      </trkpt>
      <trkpt lat="49.9252" lon="2.16913">
        <ele>26.1</ele>
        <time>2022-11-09T14:59:26Z</time>
      </trkpt>
      <trkpt lat="49.92521" lon="2.16915">
        <ele>26.1</ele>
        <time>2022-11-09T14:59:27Z</time>
      </trkpt>
      <trkpt lat="49.92521" lon="2.16916">
        <ele>26.1</ele>
        <time>2022-11-09T14:59:28Z</time>
      </trkpt>
      <trkpt lat="49.92522" lon="2.16919">
        <ele>26.1</ele>
        <time>2022-11-09T14:59:29Z</time>
      </trkpt>
      <trkpt lat="49.92523" lon="2.1692">
        <ele>26.1</ele>
        <time>2022-11-09T14:59:30Z</time>
      </trkpt>
      <trkpt lat="49.92523" lon="2.16921">
        <ele>26.1</ele>
        <time>2022-11-09T14:59:31Z</time>
      </trkpt>
      <trkpt lat="49.92524" lon="2.16924">
        <ele>26.1</ele>
        <time>2022-11-09T14:59:32Z</time>
      </trkpt>
      <trkpt lat="49.92524" lon="2.16925">
        <ele>26.1</ele>
        <time>2022-11-09T14:59:33Z</time>
      </trkpt>
      <trkpt lat="49.92524" lon="2.16926">
        <ele>26.1</ele>
        <time>2022-11-09T14:59:34Z</time>
      </trkpt>
      <trkpt lat="49.92525" lon="2.16929">
        <ele>26.1</ele>
        <time>2022-11-09T14:59:36Z</time>
      </trkpt>
      <trkpt lat="49.92526" lon="2.1693">
        <ele>26.1</ele>
        <time>2022-11-09T14:59:37Z</time>
      </trkpt>
      <trkpt lat="49.92526" lon="2.16932">
        <ele>26.1</ele>
        <time>2022-11-09T14:59:38Z</time>
      </trkpt>
      <trkpt lat="49.92527" lon="2.16934">
        <ele>26.1</ele>
        <time>2022-11-09T14:59:39Z</time>
      </trkpt>
      <trkpt lat="49.92527" lon="2.16936">
        <ele>26.1</ele>
        <time>2022-11-09T14:59:40Z</time>
      </trkpt>
      <trkpt lat="49.92528" lon="2.16937">
        <ele>26.1</ele>
        <time>2022-11-09T14:59:41Z</time>
      </trkpt>
      <trkpt lat="49.92529" lon="2.16939">
        <ele>26.1</ele>
        <time>2022-11-09T14:59:42Z</time>
      </trkpt>
      <trkpt lat="49.92529" lon="2.1694">
        <ele>26.1</ele>
        <time>2022-11-09T14:59:43Z</time>
      </trkpt>
      <trkpt lat="49.9253" lon="2.16942">
        <ele>26.1</ele>
        <time>2022-11-09T14:59:44Z</time>
      </trkpt>
      <trkpt lat="49.92531" lon="2.16944">
        <ele>26.2</ele>
        <time>2022-11-09T14:59:46Z</time>
      </trkpt>
      <trkpt lat="49.92531" lon="2.16946">
        <ele>26.2</ele>
        <time>2022-11-09T14:59:47Z</time>
      </trkpt>
      <trkpt lat="49.92531" lon="2.16947">
        <ele>26.2</ele>
        <time>2022-11-09T14:59:48Z</time>
      </trkpt>
      <trkpt lat="49.92531" lon="2.16949">
        <ele>26.2</ele>
        <time>2022-11-09T14:59:49Z</time>
      </trkpt>
      <trkpt lat="49.92532" lon="2.16951">
        <ele>26.2</ele>
        <time>2022-11-09T14:59:50Z</time>
      </trkpt>
      <trkpt lat="49.92532" lon="2.16954">
        <ele>26.3</ele>
        <time>2022-11-09T14:59:51Z</time>
      </trkpt>
      <trkpt lat="49.92532" lon="2.16956">
        <ele>26.3</ele>
        <time>2022-11-09T14:59:52Z</time>
      </trkpt>
      <trkpt lat="49.92533" lon="2.16957">
        <ele>26.3</ele>
        <time>2022-11-09T14:59:53Z</time>
      </trkpt>
      <trkpt lat="49.92533" lon="2.1696">
        <ele>26.3</ele>
        <time>2022-11-09T14:59:55Z</time>
      </trkpt>
      <trkpt lat="49.92533" lon="2.16961">
        <ele>26.4</ele>
        <time>2022-11-09T14:59:56Z</time>
      </trkpt>
      <trkpt lat="49.92533" lon="2.16963">
        <ele>26.4</ele>
        <time>2022-11-09T14:59:57Z</time>
      </trkpt>
      <trkpt lat="49.92534" lon="2.16966">
        <ele>26.4</ele>
        <time>2022-11-09T14:59:58Z</time>
      </trkpt>
      <trkpt lat="49.92534" lon="2.16967">
        <ele>26.4</ele>
        <time>2022-11-09T14:59:59Z</time>
      </trkpt>
      <trkpt lat="49.92534" lon="2.16968">
        <ele>26.5</ele>
        <time>2022-11-09T15:00:00Z</time>
      </trkpt>
      <trkpt lat="49.92535" lon="2.16971">
        <ele>26.5</ele>
        <time>2022-11-09T15:00:02Z</time>
      </trkpt>
      <trkpt lat="49.92536" lon="2.16973">
        <ele>26.6</ele>
        <time>2022-11-09T15:00:03Z</time>
      </trkpt>
      <trkpt lat="49.92537" lon="2.16976">
        <ele>26.6</ele>
        <time>2022-11-09T15:00:04Z</time>
      </trkpt>
      <trkpt lat="49.92537" lon="2.16977">
        <ele>26.6</ele>
        <time>2022-11-09T15:00:05Z</time>
      </trkpt>
      <trkpt lat="49.92538" lon="2.16978">
        <ele>26.7</ele>
        <time>2022-11-09T15:00:06Z</time>
      </trkpt>
      <trkpt lat="49.92538" lon="2.1698">
        <ele>26.7</ele>
        <time>2022-11-09T15:00:07Z</time>
      </trkpt>
      <trkpt lat="49.92539" lon="2.16982">
        <ele>26.8</ele>
        <time>2022-11-09T15:00:08Z</time>
      </trkpt>
      <trkpt lat="49.92539" lon="2.16984">
        <ele>26.8</ele>
        <time>2022-11-09T15:00:09Z</time>
      </trkpt>
      <trkpt lat="49.9254" lon="2.16986">
        <ele>26.8</ele>
        <time>2022-11-09T15:00:10Z</time>
      </trkpt>
      <trkpt lat="49.9254" lon="2.16988">
        <ele>26.9</ele>
        <time>2022-11-09T15:00:12Z</time>
      </trkpt>
      <trkpt lat="49.92541" lon="2.1699">
        <ele>26.9</ele>
        <time>2022-11-09T15:00:13Z</time>
      </trkpt>
      <trkpt lat="49.92542" lon="2.16993">
        <ele>27</ele>
        <time>2022-11-09T15:00:14Z</time>
      </trkpt>
      <trkpt lat="49.92542" lon="2.16995">
        <ele>27</ele>
        <time>2022-11-09T15:00:15Z</time>
      </trkpt>
      <trkpt lat="49.92542" lon="2.16996">
        <ele>27.1</ele>
        <time>2022-11-09T15:00:16Z</time>
      </trkpt>
      <trkpt lat="49.92543" lon="2.16998">
        <ele>27.1</ele>
        <time>2022-11-09T15:00:17Z</time>
      </trkpt>
      <trkpt lat="49.92543" lon="2.16999">
        <ele>27.2</ele>
        <time>2022-11-09T15:00:19Z</time>
      </trkpt>
      <trkpt lat="49.92544" lon="2.17001">
        <ele>27.2</ele>
        <time>2022-11-09T15:00:20Z</time>
      </trkpt>
      <trkpt lat="49.92544" lon="2.17002">
        <ele>27.2</ele>
        <time>2022-11-09T15:00:21Z</time>
      </trkpt>
      <trkpt lat="49.92545" lon="2.17004">
        <ele>27.2</ele>
        <time>2022-11-09T15:00:22Z</time>
      </trkpt>
      <trkpt lat="49.92546" lon="2.17005">
        <ele>27.3</ele>
        <time>2022-11-09T15:00:24Z</time>
      </trkpt>
      <trkpt lat="49.92546" lon="2.17006">
        <ele>27.3</ele>
        <time>2022-11-09T15:00:25Z</time>
      </trkpt>
      <trkpt lat="49.92547" lon="2.17007">
        <ele>27.3</ele>
        <time>2022-11-09T15:00:26Z</time>
      </trkpt>
      <trkpt lat="49.92547" lon="2.17007">
        <ele>27.3</ele>
        <time>2022-11-09T15:00:27Z</time>
      </trkpt>
      <trkpt lat="49.92547" lon="2.17007">
        <ele>27.3</ele>
        <time>2022-11-09T15:00:28Z</time>
      </trkpt>
      <trkpt lat="49.92547" lon="2.17007">
        <ele>27.3</ele>
        <time>2022-11-09T15:00:29Z</time>
      </trkpt>
      <trkpt lat="49.92547" lon="2.17007">
        <ele>27.3</ele>
        <time>2022-11-09T15:00:30Z</time>
      </trkpt>
      <trkpt lat="49.92547" lon="2.17007">
        <ele>27.3</ele>
        <time>2022-11-09T15:00:31Z</time>
      </trkpt>
      <trkpt lat="49.92547" lon="2.17007">
        <ele>27.3</ele>
        <time>2022-11-09T15:00:32Z</time>
      </trkpt>
      <trkpt lat="49.92547" lon="2.17007">
        <ele>27.3</ele>
        <time>2022-11-09T15:00:33Z</time>
      </trkpt>
      <trkpt lat="49.92547" lon="2.17007">
        <ele>27.3</ele>
        <time>2022-11-09T15:00:34Z</time>
      </trkpt>
      <trkpt lat="49.92547" lon="2.17007">
        <ele>27.3</ele>
        <time>2022-11-09T15:00:35Z</time>
      </trkpt>
      <trkpt lat="49.92547" lon="2.17007">
        <ele>27.3</ele>
        <time>2022-11-09T15:00:36Z</time>
      </trkpt>
      <trkpt lat="49.92546" lon="2.17007">
        <ele>27.3</ele>
        <time>2022-11-09T15:00:37Z</time>
      </trkpt>
      <trkpt lat="49.92546" lon="2.17007">
        <ele>27.3</ele>
        <time>2022-11-09T15:00:38Z</time>
      </trkpt>
      <trkpt lat="49.92546" lon="2.17007">
        <ele>27.3</ele>
        <time>2022-11-09T15:00:39Z</time>
      </trkpt>
      <trkpt lat="49.92546" lon="2.17007">
        <ele>27.3</ele>
        <time>2022-11-09T15:00:40Z</time>
      </trkpt>
      <trkpt lat="49.92546" lon="2.17007">
        <ele>27.3</ele>
        <time>2022-11-09T15:00:41Z</time>
      </trkpt>
      <trkpt lat="49.92546" lon="2.17007">
        <ele>27.3</ele>
        <time>2022-11-09T15:00:42Z</time>
      </trkpt>
      <trkpt lat="49.92546" lon="2.17007">
        <ele>27.3</ele>
        <time>2022-11-09T15:00:43Z</time>
      </trkpt>
      <trkpt lat="49.92546" lon="2.17006">
        <ele>27.3</ele>
        <time>2022-11-09T15:00:44Z</time>
      </trkpt>
      <trkpt lat="49.92546" lon="2.17006">
        <ele>27.3</ele>
        <time>2022-11-09T15:00:45Z</time>
      </trkpt>
      <trkpt lat="49.92546" lon="2.17006">
        <ele>27.3</ele>
        <time>2022-11-09T15:00:46Z</time>
      </trkpt>
      <trkpt lat="49.92546" lon="2.17006">
        <ele>27.3</ele>
        <time>2022-11-09T15:00:47Z</time>
      </trkpt>
      <trkpt lat="49.92546" lon="2.17006">
        <ele>27.3</ele>
        <time>2022-11-09T15:00:48Z</time>
      </trkpt>
      <trkpt lat="49.92546" lon="2.17006">
        <ele>27.3</ele>
        <time>2022-11-09T15:00:49Z</time>
      </trkpt>
      <trkpt lat="49.92546" lon="2.17005">
        <ele>27.3</ele>
        <time>2022-11-09T15:00:50Z</time>
      </trkpt>
      <trkpt lat="49.92545" lon="2.17005">
        <ele>27.3</ele>
        <time>2022-11-09T15:00:51Z</time>
      </trkpt>
      <trkpt lat="49.92546" lon="2.17006">
        <ele>27.4</ele>
        <time>2022-11-09T15:00:52Z</time>
      </trkpt>
      <trkpt lat="49.92546" lon="2.17009">
        <ele>27.4</ele>
        <time>2022-11-09T15:00:53Z</time>
      </trkpt>
      <trkpt lat="49.92547" lon="2.17011">
        <ele>27.4</ele>
        <time>2022-11-09T15:00:54Z</time>
      </trkpt>
      <trkpt lat="49.92547" lon="2.17012">
        <ele>27.4</ele>
        <time>2022-11-09T15:00:56Z</time>
      </trkpt>
      <trkpt lat="49.92546" lon="2.17014">
        <ele>27.4</ele>
        <time>2022-11-09T15:00:57Z</time>
      </trkpt>
      <trkpt lat="49.92546" lon="2.17016">
        <ele>27.7</ele>
        <time>2022-11-09T15:00:59Z</time>
      </trkpt>
      <trkpt lat="49.92546" lon="2.17016">
        <ele>27.7</ele>
        <time>2022-11-09T15:01:00Z</time>
      </trkpt>
      <trkpt lat="49.92546" lon="2.17018">
        <ele>27.7</ele>
        <time>2022-11-09T15:01:01Z</time>
      </trkpt>
      <trkpt lat="49.92547" lon="2.17019">
        <ele>27.7</ele>
        <time>2022-11-09T15:01:03Z</time>
      </trkpt>
      <trkpt lat="49.92547" lon="2.17019">
        <ele>27.7</ele>
        <time>2022-11-09T15:01:04Z</time>
      </trkpt>
      <trkpt lat="49.92547" lon="2.1702">
        <ele>27.7</ele>
        <time>2022-11-09T15:01:05Z</time>
      </trkpt>
      <trkpt lat="49.92548" lon="2.17021">
        <ele>27.7</ele>
        <time>2022-11-09T15:01:06Z</time>
      </trkpt>
      <trkpt lat="49.92548" lon="2.17021">
        <ele>27.7</ele>
        <time>2022-11-09T15:01:07Z</time>
      </trkpt>
      <trkpt lat="49.92548" lon="2.17022">
        <ele>27.7</ele>
        <time>2022-11-09T15:01:08Z</time>
      </trkpt>
      <trkpt lat="49.92548" lon="2.17022">
        <ele>27.7</ele>
        <time>2022-11-09T15:01:09Z</time>
      </trkpt>
      <trkpt lat="49.92547" lon="2.17023">
        <ele>27.7</ele>
        <time>2022-11-09T15:01:10Z</time>
      </trkpt>
      <trkpt lat="49.92547" lon="2.17023">
        <ele>27.7</ele>
        <time>2022-11-09T15:01:11Z</time>
      </trkpt>
      <trkpt lat="49.92547" lon="2.17023">
        <ele>27.7</ele>
        <time>2022-11-09T15:01:12Z</time>
      </trkpt>
      <trkpt lat="49.92547" lon="2.17022">
        <ele>27.7</ele>
        <time>2022-11-09T15:01:13Z</time>
      </trkpt>
      <trkpt lat="49.92547" lon="2.17022">
        <ele>27.7</ele>
        <time>2022-11-09T15:01:14Z</time>
      </trkpt>
      <trkpt lat="49.92547" lon="2.17022">
        <ele>27.7</ele>
        <time>2022-11-09T15:01:15Z</time>
      </trkpt>
      <trkpt lat="49.92547" lon="2.17022">
        <ele>27.7</ele>
        <time>2022-11-09T15:01:16Z</time>
      </trkpt>
      <trkpt lat="49.92547" lon="2.17022">
        <ele>27.8</ele>
        <time>2022-11-09T15:01:17Z</time>
      </trkpt>
      <trkpt lat="49.92547" lon="2.17022">
        <ele>27.8</ele>
        <time>2022-11-09T15:01:18Z</time>
      </trkpt>
      <trkpt lat="49.92547" lon="2.17022">
        <ele>27.8</ele>
        <time>2022-11-09T15:01:19Z</time>
      </trkpt>
      <trkpt lat="49.92547" lon="2.17022">
        <ele>27.8</ele>
        <time>2022-11-09T15:01:20Z</time>
      </trkpt>
      <trkpt lat="49.92547" lon="2.17022">
        <ele>27.8</ele>
        <time>2022-11-09T15:01:21Z</time>
      </trkpt>
      <trkpt lat="49.92547" lon="2.17022">
        <ele>27.8</ele>
        <time>2022-11-09T15:01:22Z</time>
      </trkpt>
      <trkpt lat="49.92547" lon="2.17021">
        <ele>27.8</ele>
        <time>2022-11-09T15:01:23Z</time>
      </trkpt>
      <trkpt lat="49.92547" lon="2.17021">
        <ele>27.8</ele>
        <time>2022-11-09T15:01:24Z</time>
      </trkpt>
      <trkpt lat="49.92547" lon="2.17021">
        <ele>27.8</ele>
        <time>2022-11-09T15:01:25Z</time>
      </trkpt>
      <trkpt lat="49.92547" lon="2.17021">
        <ele>27.8</ele>
        <time>2022-11-09T15:01:26Z</time>
      </trkpt>
      <trkpt lat="49.92547" lon="2.17021">
        <ele>27.8</ele>
        <time>2022-11-09T15:01:27Z</time>
      </trkpt>
      <trkpt lat="49.92547" lon="2.17021">
        <ele>27.8</ele>
        <time>2022-11-09T15:01:28Z</time>
      </trkpt>
      <trkpt lat="49.92548" lon="2.1702">
        <ele>27.8</ele>
        <time>2022-11-09T15:01:29Z</time>
      </trkpt>
      <trkpt lat="49.92549" lon="2.17018">
        <ele>27.8</ele>
        <time>2022-11-09T15:01:30Z</time>
      </trkpt>
      <trkpt lat="49.92549" lon="2.17018">
        <ele>27.8</ele>
        <time>2022-11-09T15:01:31Z</time>
      </trkpt>
      <trkpt lat="49.92549" lon="2.17018">
        <ele>27.8</ele>
        <time>2022-11-09T15:01:32Z</time>
      </trkpt>
      <trkpt lat="49.92549" lon="2.17018">
        <ele>27.8</ele>
        <time>2022-11-09T15:01:33Z</time>
      </trkpt>
      <trkpt lat="49.92548" lon="2.17021">
        <ele>27.8</ele>
        <time>2022-11-09T15:01:35Z</time>
      </trkpt>
      <trkpt lat="49.92547" lon="2.17021">
        <ele>27.8</ele>
        <time>2022-11-09T15:01:36Z</time>
      </trkpt>
      <trkpt lat="49.92547" lon="2.17021">
        <ele>27.8</ele>
        <time>2022-11-09T15:01:37Z</time>
      </trkpt>
      <trkpt lat="49.92547" lon="2.1702">
        <ele>27.9</ele>
        <time>2022-11-09T15:01:38Z</time>
      </trkpt>
      <trkpt lat="49.92547" lon="2.17019">
        <ele>27.9</ele>
        <time>2022-11-09T15:01:39Z</time>
      </trkpt>
      <trkpt lat="49.92546" lon="2.17017">
        <ele>27.9</ele>
        <time>2022-11-09T15:01:41Z</time>
      </trkpt>
      <trkpt lat="49.92546" lon="2.17016">
        <ele>27.9</ele>
        <time>2022-11-09T15:01:42Z</time>
      </trkpt>
      <trkpt lat="49.92546" lon="2.17015">
        <ele>27.9</ele>
        <time>2022-11-09T15:01:43Z</time>
      </trkpt>
      <trkpt lat="49.92547" lon="2.17015">
        <ele>27.9</ele>
        <time>2022-11-09T15:01:44Z</time>
      </trkpt>
      <trkpt lat="49.92547" lon="2.17014">
        <ele>27.9</ele>
        <time>2022-11-09T15:01:45Z</time>
      </trkpt>
      <trkpt lat="49.92547" lon="2.17014">
        <ele>27.9</ele>
        <time>2022-11-09T15:01:46Z</time>
      </trkpt>
      <trkpt lat="49.92547" lon="2.17013">
        <ele>27.9</ele>
        <time>2022-11-09T15:01:47Z</time>
      </trkpt>
      <trkpt lat="49.92547" lon="2.17013">
        <ele>27.9</ele>
        <time>2022-11-09T15:01:48Z</time>
      </trkpt>
      <trkpt lat="49.92547" lon="2.17012">
        <ele>27.9</ele>
        <time>2022-11-09T15:01:49Z</time>
      </trkpt>
      <trkpt lat="49.92547" lon="2.17011">
        <ele>28</ele>
        <time>2022-11-09T15:01:51Z</time>
      </trkpt>
      <trkpt lat="49.92548" lon="2.17011">
        <ele>28</ele>
        <time>2022-11-09T15:01:52Z</time>
      </trkpt>
      <trkpt lat="49.92548" lon="2.17011">
        <ele>28</ele>
        <time>2022-11-09T15:01:53Z</time>
      </trkpt>
      <trkpt lat="49.92548" lon="2.17011">
        <ele>28</ele>
        <time>2022-11-09T15:01:54Z</time>
      </trkpt>
      <trkpt lat="49.92548" lon="2.17011">
        <ele>28</ele>
        <time>2022-11-09T15:01:55Z</time>
      </trkpt>
      <trkpt lat="49.92548" lon="2.17011">
        <ele>28</ele>
        <time>2022-11-09T15:01:56Z</time>
      </trkpt>
      <trkpt lat="49.92547" lon="2.17012">
        <ele>28</ele>
        <time>2022-11-09T15:01:57Z</time>
      </trkpt>
      <trkpt lat="49.92547" lon="2.17012">
        <ele>28</ele>
        <time>2022-11-09T15:01:59Z</time>
      </trkpt>
      <trkpt lat="49.92546" lon="2.17011">
        <ele>28</ele>
        <time>2022-11-09T15:02:00Z</time>
      </trkpt>
      <trkpt lat="49.92546" lon="2.17011">
        <ele>28</ele>
        <time>2022-11-09T15:02:01Z</time>
      </trkpt>
      <trkpt lat="49.92545" lon="2.17011">
        <ele>28</ele>
        <time>2022-11-09T15:02:02Z</time>
      </trkpt>
      <trkpt lat="49.92544" lon="2.17012">
        <ele>28.1</ele>
        <time>2022-11-09T15:02:03Z</time>
      </trkpt>
      <trkpt lat="49.92544" lon="2.17013">
        <ele>28.1</ele>
        <time>2022-11-09T15:02:04Z</time>
      </trkpt>
      <trkpt lat="49.92544" lon="2.17015">
        <ele>28.1</ele>
        <time>2022-11-09T15:02:05Z</time>
      </trkpt>
      <trkpt lat="49.92543" lon="2.17016">
        <ele>28.2</ele>
        <time>2022-11-09T15:02:06Z</time>
      </trkpt>
      <trkpt lat="49.92543" lon="2.17018">
        <ele>28.2</ele>
        <time>2022-11-09T15:02:08Z</time>
      </trkpt>
      <trkpt lat="49.92542" lon="2.17019">
        <ele>28.2</ele>
        <time>2022-11-09T15:02:09Z</time>
      </trkpt>
      <trkpt lat="49.92542" lon="2.17021">
        <ele>28.3</ele>
        <time>2022-11-09T15:02:10Z</time>
      </trkpt>
      <trkpt lat="49.92541" lon="2.17022">
        <ele>28.3</ele>
        <time>2022-11-09T15:02:11Z</time>
      </trkpt>
      <trkpt lat="49.92541" lon="2.17024">
        <ele>28.3</ele>
        <time>2022-11-09T15:02:12Z</time>
      </trkpt>
      <trkpt lat="49.9254" lon="2.17025">
        <ele>28.4</ele>
        <time>2022-11-09T15:02:13Z</time>
      </trkpt>
      <trkpt lat="49.92539" lon="2.17026">
        <ele>28.4</ele>
        <time>2022-11-09T15:02:14Z</time>
      </trkpt>
      <trkpt lat="49.92539" lon="2.17027">
        <ele>28.4</ele>
        <time>2022-11-09T15:02:15Z</time>
      </trkpt>
      <trkpt lat="49.92538" lon="2.17028">
        <ele>28.4</ele>
        <time>2022-11-09T15:02:16Z</time>
      </trkpt>
      <trkpt lat="49.92537" lon="2.17029">
        <ele>28.5</ele>
        <time>2022-11-09T15:02:17Z</time>
      </trkpt>
      <trkpt lat="49.92536" lon="2.1703">
        <ele>28.5</ele>
        <time>2022-11-09T15:02:18Z</time>
      </trkpt>
      <trkpt lat="49.92536" lon="2.17031">
        <ele>28.5</ele>
        <time>2022-11-09T15:02:20Z</time>
      </trkpt>
      <trkpt lat="49.92535" lon="2.17031">
        <ele>28.6</ele>
        <time>2022-11-09T15:02:21Z</time>
      </trkpt>
      <trkpt lat="49.92534" lon="2.17032">
        <ele>28.6</ele>
        <time>2022-11-09T15:02:22Z</time>
      </trkpt>
      <trkpt lat="49.92533" lon="2.17033">
        <ele>28.6</ele>
        <time>2022-11-09T15:02:23Z</time>
      </trkpt>
      <trkpt lat="49.92532" lon="2.17034">
        <ele>28.7</ele>
        <time>2022-11-09T15:02:24Z</time>
      </trkpt>
      <trkpt lat="49.92531" lon="2.17035">
        <ele>28.7</ele>
        <time>2022-11-09T15:02:25Z</time>
      </trkpt>
      <trkpt lat="49.9253" lon="2.17036">
        <ele>28.8</ele>
        <time>2022-11-09T15:02:27Z</time>
      </trkpt>
      <trkpt lat="49.92529" lon="2.17036">
        <ele>28.8</ele>
        <time>2022-11-09T15:02:28Z</time>
      </trkpt>
      <trkpt lat="49.92528" lon="2.17037">
        <ele>28.8</ele>
        <time>2022-11-09T15:02:29Z</time>
      </trkpt>
      <trkpt lat="49.92527" lon="2.17037">
        <ele>28.9</ele>
        <time>2022-11-09T15:02:30Z</time>
      </trkpt>
      <trkpt lat="49.92526" lon="2.17038">
        <ele>28.9</ele>
        <time>2022-11-09T15:02:31Z</time>
      </trkpt>
      <trkpt lat="49.92525" lon="2.17039">
        <ele>29</ele>
        <time>2022-11-09T15:02:32Z</time>
      </trkpt>
      <trkpt lat="49.92524" lon="2.1704">
        <ele>29</ele>
        <time>2022-11-09T15:02:33Z</time>
      </trkpt>
      <trkpt lat="49.92523" lon="2.17041">
        <ele>29</ele>
        <time>2022-11-09T15:02:34Z</time>
      </trkpt>
      <trkpt lat="49.92522" lon="2.17042">
        <ele>29.1</ele>
        <time>2022-11-09T15:02:35Z</time>
      </trkpt>
      <trkpt lat="49.92521" lon="2.17043">
        <ele>29.1</ele>
        <time>2022-11-09T15:02:36Z</time>
      </trkpt>
      <trkpt lat="49.92521" lon="2.17044">
        <ele>29.2</ele>
        <time>2022-11-09T15:02:38Z</time>
      </trkpt>
      <trkpt lat="49.9252" lon="2.17045">
        <ele>29.2</ele>
        <time>2022-11-09T15:02:39Z</time>
      </trkpt>
      <trkpt lat="49.92519" lon="2.17046">
        <ele>29.2</ele>
        <time>2022-11-09T15:02:40Z</time>
      </trkpt>
      <trkpt lat="49.92518" lon="2.17048">
        <ele>29.3</ele>
        <time>2022-11-09T15:02:41Z</time>
      </trkpt>
      <trkpt lat="49.92517" lon="2.17049">
        <ele>29.3</ele>
        <time>2022-11-09T15:02:42Z</time>
      </trkpt>
      <trkpt lat="49.92516" lon="2.1705">
        <ele>29.4</ele>
        <time>2022-11-09T15:02:43Z</time>
      </trkpt>
      <trkpt lat="49.92515" lon="2.17052">
        <ele>29.4</ele>
        <time>2022-11-09T15:02:45Z</time>
      </trkpt>
      <trkpt lat="49.92514" lon="2.17053">
        <ele>29.5</ele>
        <time>2022-11-09T15:02:46Z</time>
      </trkpt>
      <trkpt lat="49.92513" lon="2.17054">
        <ele>29.5</ele>
        <time>2022-11-09T15:02:47Z</time>
      </trkpt>
      <trkpt lat="49.92512" lon="2.17055">
        <ele>29.6</ele>
        <time>2022-11-09T15:02:48Z</time>
      </trkpt>
      <trkpt lat="49.92511" lon="2.17056">
        <ele>29.6</ele>
        <time>2022-11-09T15:02:49Z</time>
      </trkpt>
      <trkpt lat="49.9251" lon="2.17057">
        <ele>29.7</ele>
        <time>2022-11-09T15:02:50Z</time>
      </trkpt>
      <trkpt lat="49.9251" lon="2.17058">
        <ele>29.7</ele>
        <time>2022-11-09T15:02:51Z</time>
      </trkpt>
      <trkpt lat="49.92509" lon="2.1706">
        <ele>29.8</ele>
        <time>2022-11-09T15:02:52Z</time>
      </trkpt>
      <trkpt lat="49.92509" lon="2.17061">
        <ele>29.8</ele>
        <time>2022-11-09T15:02:54Z</time>
      </trkpt>
      <trkpt lat="49.92509" lon="2.17062">
        <ele>29.8</ele>
        <time>2022-11-09T15:02:55Z</time>
      </trkpt>
      <trkpt lat="49.92509" lon="2.17063">
        <ele>29.8</ele>
        <time>2022-11-09T15:02:56Z</time>
      </trkpt>
      <trkpt lat="49.92508" lon="2.17064">
        <ele>29.9</ele>
        <time>2022-11-09T15:02:57Z</time>
      </trkpt>
      <trkpt lat="49.92507" lon="2.17065">
        <ele>29.9</ele>
        <time>2022-11-09T15:02:58Z</time>
      </trkpt>
      <trkpt lat="49.92506" lon="2.17066">
        <ele>30</ele>
        <time>2022-11-09T15:02:59Z</time>
      </trkpt>
      <trkpt lat="49.92505" lon="2.17067">
        <ele>30</ele>
        <time>2022-11-09T15:03:00Z</time>
      </trkpt>
      <trkpt lat="49.92505" lon="2.17068">
        <ele>30</ele>
        <time>2022-11-09T15:03:01Z</time>
      </trkpt>
      <trkpt lat="49.92504" lon="2.17069">
        <ele>30.1</ele>
        <time>2022-11-09T15:03:03Z</time>
      </trkpt>
      <trkpt lat="49.92502" lon="2.1707">
        <ele>30.1</ele>
        <time>2022-11-09T15:03:04Z</time>
      </trkpt>
      <trkpt lat="49.92501" lon="2.17072">
        <ele>30.2</ele>
        <time>2022-11-09T15:03:05Z</time>
      </trkpt>
      <trkpt lat="49.92498" lon="2.17074">
        <ele>30.3</ele>
        <time>2022-11-09T15:03:06Z</time>
      </trkpt>
      <trkpt lat="49.92498" lon="2.17074">
        <ele>30.3</ele>
        <time>2022-11-09T15:03:07Z</time>
      </trkpt>
      <trkpt lat="49.92495" lon="2.17076">
        <ele>30.4</ele>
        <time>2022-11-09T15:03:08Z</time>
      </trkpt>
      <trkpt lat="49.92494" lon="2.17077">
        <ele>30.5</ele>
        <time>2022-11-09T15:03:09Z</time>
      </trkpt>
      <trkpt lat="49.92493" lon="2.17078">
        <ele>30.5</ele>
        <time>2022-11-09T15:03:10Z</time>
      </trkpt>
      <trkpt lat="49.92491" lon="2.17079">
        <ele>30.6</ele>
        <time>2022-11-09T15:03:12Z</time>
      </trkpt>
      <trkpt lat="49.9249" lon="2.1708">
        <ele>30.6</ele>
        <time>2022-11-09T15:03:13Z</time>
      </trkpt>
      <trkpt lat="49.92489" lon="2.17081">
        <ele>30.7</ele>
        <time>2022-11-09T15:03:14Z</time>
      </trkpt>
      <trkpt lat="49.92487" lon="2.17082">
        <ele>30.7</ele>
        <time>2022-11-09T15:03:15Z</time>
      </trkpt>
      <trkpt lat="49.92486" lon="2.17084">
        <ele>30.8</ele>
        <time>2022-11-09T15:03:16Z</time>
      </trkpt>
      <trkpt lat="49.92485" lon="2.17085">
        <ele>30.8</ele>
        <time>2022-11-09T15:03:17Z</time>
      </trkpt>
      <trkpt lat="49.92483" lon="2.17086">
        <ele>30.9</ele>
        <time>2022-11-09T15:03:19Z</time>
      </trkpt>
      <trkpt lat="49.92482" lon="2.17088">
        <ele>30.9</ele>
        <time>2022-11-09T15:03:20Z</time>
      </trkpt>
      <trkpt lat="49.92481" lon="2.17089">
        <ele>31</ele>
        <time>2022-11-09T15:03:21Z</time>
      </trkpt>
      <trkpt lat="49.9248" lon="2.1709">
        <ele>31</ele>
        <time>2022-11-09T15:03:22Z</time>
      </trkpt>
      <trkpt lat="49.92478" lon="2.17092">
        <ele>31.1</ele>
        <time>2022-11-09T15:03:23Z</time>
      </trkpt>
      <trkpt lat="49.92477" lon="2.17093">
        <ele>31.1</ele>
        <time>2022-11-09T15:03:24Z</time>
      </trkpt>
      <trkpt lat="49.92476" lon="2.17095">
        <ele>31.2</ele>
        <time>2022-11-09T15:03:25Z</time>
      </trkpt>
      <trkpt lat="49.92475" lon="2.17097">
        <ele>31.2</ele>
        <time>2022-11-09T15:03:26Z</time>
      </trkpt>
      <trkpt lat="49.92474" lon="2.17098">
        <ele>31.3</ele>
        <time>2022-11-09T15:03:27Z</time>
      </trkpt>
      <trkpt lat="49.92472" lon="2.17099">
        <ele>31.3</ele>
        <time>2022-11-09T15:03:29Z</time>
      </trkpt>
      <trkpt lat="49.92471" lon="2.171">
        <ele>31.4</ele>
        <time>2022-11-09T15:03:30Z</time>
      </trkpt>
      <trkpt lat="49.9247" lon="2.17101">
        <ele>31.4</ele>
        <time>2022-11-09T15:03:31Z</time>
      </trkpt>
      <trkpt lat="49.92469" lon="2.17103">
        <ele>31.4</ele>
        <time>2022-11-09T15:03:32Z</time>
      </trkpt>
      <trkpt lat="49.92468" lon="2.17104">
        <ele>31.5</ele>
        <time>2022-11-09T15:03:33Z</time>
      </trkpt>
      <trkpt lat="49.92466" lon="2.17105">
        <ele>31.5</ele>
        <time>2022-11-09T15:03:34Z</time>
      </trkpt>
      <trkpt lat="49.92465" lon="2.17107">
        <ele>31.6</ele>
        <time>2022-11-09T15:03:35Z</time>
      </trkpt>
      <trkpt lat="49.92464" lon="2.17108">
        <ele>31.6</ele>
        <time>2022-11-09T15:03:37Z</time>
      </trkpt>
      <trkpt lat="49.92463" lon="2.17109">
        <ele>31.6</ele>
        <time>2022-11-09T15:03:38Z</time>
      </trkpt>
      <trkpt lat="49.92462" lon="2.17111">
        <ele>31.7</ele>
        <time>2022-11-09T15:03:39Z</time>
      </trkpt>
      <trkpt lat="49.92461" lon="2.17111">
        <ele>31.7</ele>
        <time>2022-11-09T15:03:40Z</time>
      </trkpt>
      <trkpt lat="49.9246" lon="2.17112">
        <ele>31.7</ele>
        <time>2022-11-09T15:03:41Z</time>
      </trkpt>
      <trkpt lat="49.92458" lon="2.17114">
        <ele>31.8</ele>
        <time>2022-11-09T15:03:42Z</time>
      </trkpt>
      <trkpt lat="49.92457" lon="2.17115">
        <ele>31.8</ele>
        <time>2022-11-09T15:03:44Z</time>
      </trkpt>
      <trkpt lat="49.92456" lon="2.17115">
        <ele>31.9</ele>
        <time>2022-11-09T15:03:45Z</time>
      </trkpt>
      <trkpt lat="49.92455" lon="2.17116">
        <ele>31.9</ele>
        <time>2022-11-09T15:03:46Z</time>
      </trkpt>
      <trkpt lat="49.92454" lon="2.17117">
        <ele>31.9</ele>
        <time>2022-11-09T15:03:47Z</time>
      </trkpt>
      <trkpt lat="49.92452" lon="2.17118">
        <ele>32</ele>
        <time>2022-11-09T15:03:48Z</time>
      </trkpt>
      <trkpt lat="49.92452" lon="2.17119">
        <ele>32</ele>
        <time>2022-11-09T15:03:50Z</time>
      </trkpt>
      <trkpt lat="49.92451" lon="2.17119">
        <ele>32</ele>
        <time>2022-11-09T15:03:51Z</time>
      </trkpt>
      <trkpt lat="49.92449" lon="2.17121">
        <ele>32.1</ele>
        <time>2022-11-09T15:03:52Z</time>
      </trkpt>
      <trkpt lat="49.92449" lon="2.17122">
        <ele>32.1</ele>
        <time>2022-11-09T15:03:53Z</time>
      </trkpt>
      <trkpt lat="49.92448" lon="2.17122">
        <ele>32.1</ele>
        <time>2022-11-09T15:03:54Z</time>
      </trkpt>
      <trkpt lat="49.92446" lon="2.17125">
        <ele>32.2</ele>
        <time>2022-11-09T15:03:55Z</time>
      </trkpt>
      <trkpt lat="49.92445" lon="2.17126">
        <ele>32.2</ele>
        <time>2022-11-09T15:03:57Z</time>
      </trkpt>
      <trkpt lat="49.92444" lon="2.17127">
        <ele>32.3</ele>
        <time>2022-11-09T15:03:58Z</time>
      </trkpt>
      <trkpt lat="49.92443" lon="2.17128">
        <ele>32.3</ele>
        <time>2022-11-09T15:03:59Z</time>
      </trkpt>
      <trkpt lat="49.92442" lon="2.17129">
        <ele>32.4</ele>
        <time>2022-11-09T15:04:00Z</time>
      </trkpt>
      <trkpt lat="49.92441" lon="2.17131">
        <ele>32.4</ele>
        <time>2022-11-09T15:04:01Z</time>
      </trkpt>
      <trkpt lat="49.9244" lon="2.17133">
        <ele>32.5</ele>
        <time>2022-11-09T15:04:02Z</time>
      </trkpt>
      <trkpt lat="49.92439" lon="2.17134">
        <ele>32.5</ele>
        <time>2022-11-09T15:04:04Z</time>
      </trkpt>
      <trkpt lat="49.92438" lon="2.17136">
        <ele>32.5</ele>
        <time>2022-11-09T15:04:05Z</time>
      </trkpt>
      <trkpt lat="49.92437" lon="2.17137">
        <ele>32.6</ele>
        <time>2022-11-09T15:04:06Z</time>
      </trkpt>
      <trkpt lat="49.92436" lon="2.17139">
        <ele>32.6</ele>
        <time>2022-11-09T15:04:07Z</time>
      </trkpt>
      <trkpt lat="49.92434" lon="2.1714">
        <ele>32.7</ele>
        <time>2022-11-09T15:04:08Z</time>
      </trkpt>
      <trkpt lat="49.92433" lon="2.17141">
        <ele>32.7</ele>
        <time>2022-11-09T15:04:09Z</time>
      </trkpt>
      <trkpt lat="49.92432" lon="2.17143">
        <ele>32.8</ele>
        <time>2022-11-09T15:04:11Z</time>
      </trkpt>
      <trkpt lat="49.92431" lon="2.17144">
        <ele>32.8</ele>
        <time>2022-11-09T15:04:12Z</time>
      </trkpt>
      <trkpt lat="49.92431" lon="2.17145">
        <ele>32.9</ele>
        <time>2022-11-09T15:04:13Z</time>
      </trkpt>
      <trkpt lat="49.92429" lon="2.17147">
        <ele>32.9</ele>
        <time>2022-11-09T15:04:14Z</time>
      </trkpt>
      <trkpt lat="49.92428" lon="2.17148">
        <ele>33</ele>
        <time>2022-11-09T15:04:15Z</time>
      </trkpt>
      <trkpt lat="49.92427" lon="2.17149">
        <ele>33</ele>
        <time>2022-11-09T15:04:16Z</time>
      </trkpt>
      <trkpt lat="49.92426" lon="2.1715">
        <ele>33</ele>
        <time>2022-11-09T15:04:17Z</time>
      </trkpt>
      <trkpt lat="49.92426" lon="2.17151">
        <ele>33.1</ele>
        <time>2022-11-09T15:04:19Z</time>
      </trkpt>
      <trkpt lat="49.92425" lon="2.17152">
        <ele>33.1</ele>
        <time>2022-11-09T15:04:20Z</time>
      </trkpt>
      <trkpt lat="49.92424" lon="2.17153">
        <ele>33.1</ele>
        <time>2022-11-09T15:04:21Z</time>
      </trkpt>
      <trkpt lat="49.92423" lon="2.17154">
        <ele>33.2</ele>
        <time>2022-11-09T15:04:22Z</time>
      </trkpt>
      <trkpt lat="49.92422" lon="2.17155">
        <ele>33.2</ele>
        <time>2022-11-09T15:04:23Z</time>
      </trkpt>
      <trkpt lat="49.92421" lon="2.17157">
        <ele>33.3</ele>
        <time>2022-11-09T15:04:24Z</time>
      </trkpt>
      <trkpt lat="49.9242" lon="2.17158">
        <ele>33.3</ele>
        <time>2022-11-09T15:04:25Z</time>
      </trkpt>
      <trkpt lat="49.92419" lon="2.17159">
        <ele>33.4</ele>
        <time>2022-11-09T15:04:27Z</time>
      </trkpt>
      <trkpt lat="49.92418" lon="2.1716">
        <ele>33.4</ele>
        <time>2022-11-09T15:04:28Z</time>
      </trkpt>
      <trkpt lat="49.92417" lon="2.17162">
        <ele>33.4</ele>
        <time>2022-11-09T15:04:29Z</time>
      </trkpt>
      <trkpt lat="49.92416" lon="2.17163">
        <ele>33.5</ele>
        <time>2022-11-09T15:04:30Z</time>
      </trkpt>
      <trkpt lat="49.92415" lon="2.17164">
        <ele>33.5</ele>
        <time>2022-11-09T15:04:31Z</time>
      </trkpt>
      <trkpt lat="49.92414" lon="2.17165">
        <ele>33.5</ele>
        <time>2022-11-09T15:04:32Z</time>
      </trkpt>
      <trkpt lat="49.92414" lon="2.17166">
        <ele>33.6</ele>
        <time>2022-11-09T15:04:33Z</time>
      </trkpt>
      <trkpt lat="49.92412" lon="2.17169">
        <ele>33.6</ele>
        <time>2022-11-09T15:04:35Z</time>
      </trkpt>
      <trkpt lat="49.92412" lon="2.17169">
        <ele>33.6</ele>
        <time>2022-11-09T15:04:36Z</time>
      </trkpt>
      <trkpt lat="49.92411" lon="2.1717">
        <ele>33.7</ele>
        <time>2022-11-09T15:04:37Z</time>
      </trkpt>
      <trkpt lat="49.92409" lon="2.17173">
        <ele>33.7</ele>
        <time>2022-11-09T15:04:38Z</time>
      </trkpt>
      <trkpt lat="49.92409" lon="2.17173">
        <ele>33.7</ele>
        <time>2022-11-09T15:04:39Z</time>
      </trkpt>
      <trkpt lat="49.92408" lon="2.17174">
        <ele>33.8</ele>
        <time>2022-11-09T15:04:40Z</time>
      </trkpt>
      <trkpt lat="49.92407" lon="2.17176">
        <ele>33.8</ele>
        <time>2022-11-09T15:04:41Z</time>
      </trkpt>
      <trkpt lat="49.92406" lon="2.17177">
        <ele>33.8</ele>
        <time>2022-11-09T15:04:43Z</time>
      </trkpt>
      <trkpt lat="49.92406" lon="2.17178">
        <ele>33.8</ele>
        <time>2022-11-09T15:04:44Z</time>
      </trkpt>
      <trkpt lat="49.92405" lon="2.17179">
        <ele>33.9</ele>
        <time>2022-11-09T15:04:45Z</time>
      </trkpt>
      <trkpt lat="49.92404" lon="2.1718">
        <ele>33.9</ele>
        <time>2022-11-09T15:04:46Z</time>
      </trkpt>
      <trkpt lat="49.92403" lon="2.17181">
        <ele>33.9</ele>
        <time>2022-11-09T15:04:47Z</time>
      </trkpt>
      <trkpt lat="49.92402" lon="2.17182">
        <ele>33.9</ele>
        <time>2022-11-09T15:04:48Z</time>
      </trkpt>
      <trkpt lat="49.92401" lon="2.17183">
        <ele>34</ele>
        <time>2022-11-09T15:04:50Z</time>
      </trkpt>
      <trkpt lat="49.924" lon="2.17184">
        <ele>34</ele>
        <time>2022-11-09T15:04:51Z</time>
      </trkpt>
      <trkpt lat="49.92399" lon="2.17185">
        <ele>34</ele>
        <time>2022-11-09T15:04:52Z</time>
      </trkpt>
      <trkpt lat="49.92398" lon="2.17186">
        <ele>34</ele>
        <time>2022-11-09T15:04:53Z</time>
      </trkpt>
      <trkpt lat="49.92397" lon="2.17187">
        <ele>34.1</ele>
        <time>2022-11-09T15:04:54Z</time>
      </trkpt>
      <trkpt lat="49.92395" lon="2.17189">
        <ele>34.1</ele>
        <time>2022-11-09T15:04:55Z</time>
      </trkpt>
      <trkpt lat="49.92395" lon="2.1719">
        <ele>34.1</ele>
        <time>2022-11-09T15:04:57Z</time>
      </trkpt>
      <trkpt lat="49.92394" lon="2.17191">
        <ele>34.1</ele>
        <time>2022-11-09T15:04:58Z</time>
      </trkpt>
      <trkpt lat="49.92393" lon="2.17193">
        <ele>34.2</ele>
        <time>2022-11-09T15:04:59Z</time>
      </trkpt>
      <trkpt lat="49.92392" lon="2.17194">
        <ele>34.2</ele>
        <time>2022-11-09T15:05:00Z</time>
      </trkpt>
      <trkpt lat="49.92392" lon="2.17195">
        <ele>34.2</ele>
        <time>2022-11-09T15:05:01Z</time>
      </trkpt>
      <trkpt lat="49.9239" lon="2.17197">
        <ele>34.3</ele>
        <time>2022-11-09T15:05:03Z</time>
      </trkpt>
      <trkpt lat="49.9239" lon="2.17198">
        <ele>34.3</ele>
        <time>2022-11-09T15:05:04Z</time>
      </trkpt>
      <trkpt lat="49.92389" lon="2.17199">
        <ele>34.3</ele>
        <time>2022-11-09T15:05:05Z</time>
      </trkpt>
      <trkpt lat="49.92388" lon="2.172">
        <ele>34.3</ele>
        <time>2022-11-09T15:05:06Z</time>
      </trkpt>
      <trkpt lat="49.92387" lon="2.17201">
        <ele>34.3</ele>
        <time>2022-11-09T15:05:08Z</time>
      </trkpt>
      <trkpt lat="49.92386" lon="2.17202">
        <ele>34.3</ele>
        <time>2022-11-09T15:05:09Z</time>
      </trkpt>
      <trkpt lat="49.92385" lon="2.17203">
        <ele>34.4</ele>
        <time>2022-11-09T15:05:10Z</time>
      </trkpt>
      <trkpt lat="49.92385" lon="2.17204">
        <ele>34.4</ele>
        <time>2022-11-09T15:05:11Z</time>
      </trkpt>
      <trkpt lat="49.92384" lon="2.17205">
        <ele>34.4</ele>
        <time>2022-11-09T15:05:12Z</time>
      </trkpt>
      <trkpt lat="49.92383" lon="2.17208">
        <ele>34.4</ele>
        <time>2022-11-09T15:05:13Z</time>
      </trkpt>
      <trkpt lat="49.92382" lon="2.17209">
        <ele>34.4</ele>
        <time>2022-11-09T15:05:14Z</time>
      </trkpt>
      <trkpt lat="49.92381" lon="2.17209">
        <ele>34.5</ele>
        <time>2022-11-09T15:05:15Z</time>
      </trkpt>
      <trkpt lat="49.9238" lon="2.17211">
        <ele>34.5</ele>
        <time>2022-11-09T15:05:16Z</time>
      </trkpt>
      <trkpt lat="49.92379" lon="2.17212">
        <ele>34.5</ele>
        <time>2022-11-09T15:05:17Z</time>
      </trkpt>
      <trkpt lat="49.92378" lon="2.17213">
        <ele>34.5</ele>
        <time>2022-11-09T15:05:19Z</time>
      </trkpt>
      <trkpt lat="49.92376" lon="2.17215">
        <ele>34.6</ele>
        <time>2022-11-09T15:05:20Z</time>
      </trkpt>
      <trkpt lat="49.92376" lon="2.17216">
        <ele>34.6</ele>
        <time>2022-11-09T15:05:21Z</time>
      </trkpt>
      <trkpt lat="49.92375" lon="2.17217">
        <ele>34.6</ele>
        <time>2022-11-09T15:05:22Z</time>
      </trkpt>
      <trkpt lat="49.92373" lon="2.17218">
        <ele>34.6</ele>
        <time>2022-11-09T15:05:23Z</time>
      </trkpt>
      <trkpt lat="49.92372" lon="2.17219">
        <ele>34.6</ele>
        <time>2022-11-09T15:05:25Z</time>
      </trkpt>
      <trkpt lat="49.92372" lon="2.17219">
        <ele>34.6</ele>
        <time>2022-11-09T15:05:26Z</time>
      </trkpt>
      <trkpt lat="49.9237" lon="2.17221">
        <ele>34.7</ele>
        <time>2022-11-09T15:05:27Z</time>
      </trkpt>
      <trkpt lat="49.92369" lon="2.17221">
        <ele>34.7</ele>
        <time>2022-11-09T15:05:28Z</time>
      </trkpt>
      <trkpt lat="49.92368" lon="2.17222">
        <ele>34.7</ele>
        <time>2022-11-09T15:05:29Z</time>
      </trkpt>
      <trkpt lat="49.92366" lon="2.17224">
        <ele>34.7</ele>
        <time>2022-11-09T15:05:31Z</time>
      </trkpt>
      <trkpt lat="49.92366" lon="2.17225">
        <ele>34.8</ele>
        <time>2022-11-09T15:05:32Z</time>
      </trkpt>
      <trkpt lat="49.92365" lon="2.17226">
        <ele>34.8</ele>
        <time>2022-11-09T15:05:33Z</time>
      </trkpt>
      <trkpt lat="49.92364" lon="2.17227">
        <ele>34.8</ele>
        <time>2022-11-09T15:05:34Z</time>
      </trkpt>
      <trkpt lat="49.92363" lon="2.17228">
        <ele>34.8</ele>
        <time>2022-11-09T15:05:35Z</time>
      </trkpt>
      <trkpt lat="49.92362" lon="2.17229">
        <ele>34.9</ele>
        <time>2022-11-09T15:05:36Z</time>
      </trkpt>
      <trkpt lat="49.92361" lon="2.1723">
        <ele>34.9</ele>
        <time>2022-11-09T15:05:38Z</time>
      </trkpt>
      <trkpt lat="49.9236" lon="2.17232">
        <ele>34.9</ele>
        <time>2022-11-09T15:05:39Z</time>
      </trkpt>
      <trkpt lat="49.9236" lon="2.17233">
        <ele>34.9</ele>
        <time>2022-11-09T15:05:40Z</time>
      </trkpt>
      <trkpt lat="49.92359" lon="2.17234">
        <ele>35</ele>
        <time>2022-11-09T15:05:41Z</time>
      </trkpt>
      <trkpt lat="49.92358" lon="2.17235">
        <ele>35</ele>
        <time>2022-11-09T15:05:42Z</time>
      </trkpt>
      <trkpt lat="49.92357" lon="2.17236">
        <ele>35</ele>
        <time>2022-11-09T15:05:43Z</time>
      </trkpt>
      <trkpt lat="49.92356" lon="2.17238">
        <ele>35</ele>
        <time>2022-11-09T15:05:44Z</time>
      </trkpt>
      <trkpt lat="49.92356" lon="2.17239">
        <ele>35.1</ele>
        <time>2022-11-09T15:05:46Z</time>
      </trkpt>
      <trkpt lat="49.92355" lon="2.1724">
        <ele>35.1</ele>
        <time>2022-11-09T15:05:47Z</time>
      </trkpt>
      <trkpt lat="49.92354" lon="2.17241">
        <ele>35.1</ele>
        <time>2022-11-09T15:05:48Z</time>
      </trkpt>
      <trkpt lat="49.92354" lon="2.17242">
        <ele>35.1</ele>
        <time>2022-11-09T15:05:49Z</time>
      </trkpt>
      <trkpt lat="49.92353" lon="2.17243">
        <ele>35.1</ele>
        <time>2022-11-09T15:05:50Z</time>
      </trkpt>
      <trkpt lat="49.92352" lon="2.17244">
        <ele>35.2</ele>
        <time>2022-11-09T15:05:51Z</time>
      </trkpt>
      <trkpt lat="49.92351" lon="2.17246">
        <ele>35.2</ele>
        <time>2022-11-09T15:05:52Z</time>
      </trkpt>
      <trkpt lat="49.9235" lon="2.17247">
        <ele>35.2</ele>
        <time>2022-11-09T15:05:53Z</time>
      </trkpt>
      <trkpt lat="49.92349" lon="2.17248">
        <ele>35.2</ele>
        <time>2022-11-09T15:05:54Z</time>
      </trkpt>
      <trkpt lat="49.92348" lon="2.17249">
        <ele>35.3</ele>
        <time>2022-11-09T15:05:56Z</time>
      </trkpt>
      <trkpt lat="49.92347" lon="2.1725">
        <ele>35.3</ele>
        <time>2022-11-09T15:05:57Z</time>
      </trkpt>
      <trkpt lat="49.92347" lon="2.17252">
        <ele>35.3</ele>
        <time>2022-11-09T15:05:58Z</time>
      </trkpt>
      <trkpt lat="49.92346" lon="2.17253">
        <ele>35.3</ele>
        <time>2022-11-09T15:05:59Z</time>
      </trkpt>
      <trkpt lat="49.92344" lon="2.17255">
        <ele>35.4</ele>
        <time>2022-11-09T15:06:00Z</time>
      </trkpt>
      <trkpt lat="49.92344" lon="2.17256">
        <ele>35.4</ele>
        <time>2022-11-09T15:06:02Z</time>
      </trkpt>
      <trkpt lat="49.92343" lon="2.17257">
        <ele>35.4</ele>
        <time>2022-11-09T15:06:03Z</time>
      </trkpt>
      <trkpt lat="49.92342" lon="2.17258">
        <ele>35.4</ele>
        <time>2022-11-09T15:06:04Z</time>
      </trkpt>
      <trkpt lat="49.92341" lon="2.17258">
        <ele>35.5</ele>
        <time>2022-11-09T15:06:05Z</time>
      </trkpt>
      <trkpt lat="49.9234" lon="2.1726">
        <ele>35.5</ele>
        <time>2022-11-09T15:06:06Z</time>
      </trkpt>
      <trkpt lat="49.92339" lon="2.17261">
        <ele>35.5</ele>
        <time>2022-11-09T15:06:07Z</time>
      </trkpt>
      <trkpt lat="49.92338" lon="2.17262">
        <ele>35.5</ele>
        <time>2022-11-09T15:06:08Z</time>
      </trkpt>
      <trkpt lat="49.92338" lon="2.17263">
        <ele>35.6</ele>
        <time>2022-11-09T15:06:10Z</time>
      </trkpt>
      <trkpt lat="49.92337" lon="2.17264">
        <ele>35.6</ele>
        <time>2022-11-09T15:06:11Z</time>
      </trkpt>
      <trkpt lat="49.92336" lon="2.17265">
        <ele>35.6</ele>
        <time>2022-11-09T15:06:12Z</time>
      </trkpt>
      <trkpt lat="49.92334" lon="2.17267">
        <ele>35.6</ele>
        <time>2022-11-09T15:06:13Z</time>
      </trkpt>
      <trkpt lat="49.92333" lon="2.17268">
        <ele>35.7</ele>
        <time>2022-11-09T15:06:14Z</time>
      </trkpt>
      <trkpt lat="49.92333" lon="2.17269">
        <ele>35.7</ele>
        <time>2022-11-09T15:06:15Z</time>
      </trkpt>
      <trkpt lat="49.92332" lon="2.1727">
        <ele>35.7</ele>
        <time>2022-11-09T15:06:17Z</time>
      </trkpt>
      <trkpt lat="49.92331" lon="2.17272">
        <ele>35.7</ele>
        <time>2022-11-09T15:06:18Z</time>
      </trkpt>
      <trkpt lat="49.92329" lon="2.17273">
        <ele>35.8</ele>
        <time>2022-11-09T15:06:19Z</time>
      </trkpt>
      <trkpt lat="49.92328" lon="2.17274">
        <ele>35.8</ele>
        <time>2022-11-09T15:06:20Z</time>
      </trkpt>
      <trkpt lat="49.92327" lon="2.17276">
        <ele>35.8</ele>
        <time>2022-11-09T15:06:21Z</time>
      </trkpt>
      <trkpt lat="49.92326" lon="2.17277">
        <ele>35.8</ele>
        <time>2022-11-09T15:06:22Z</time>
      </trkpt>
      <trkpt lat="49.92324" lon="2.17279">
        <ele>35.9</ele>
        <time>2022-11-09T15:06:24Z</time>
      </trkpt>
      <trkpt lat="49.92324" lon="2.1728">
        <ele>35.9</ele>
        <time>2022-11-09T15:06:25Z</time>
      </trkpt>
      <trkpt lat="49.92323" lon="2.1728">
        <ele>35.9</ele>
        <time>2022-11-09T15:06:26Z</time>
      </trkpt>
      <trkpt lat="49.92322" lon="2.17282">
        <ele>35.9</ele>
        <time>2022-11-09T15:06:27Z</time>
      </trkpt>
      <trkpt lat="49.92321" lon="2.17283">
        <ele>36</ele>
        <time>2022-11-09T15:06:28Z</time>
      </trkpt>
      <trkpt lat="49.9232" lon="2.17284">
        <ele>36</ele>
        <time>2022-11-09T15:06:30Z</time>
      </trkpt>
      <trkpt lat="49.9232" lon="2.17285">
        <ele>36</ele>
        <time>2022-11-09T15:06:31Z</time>
      </trkpt>
      <trkpt lat="49.92319" lon="2.17286">
        <ele>36</ele>
        <time>2022-11-09T15:06:32Z</time>
      </trkpt>
      <trkpt lat="49.92317" lon="2.17288">
        <ele>36.1</ele>
        <time>2022-11-09T15:06:34Z</time>
      </trkpt>
      <trkpt lat="49.92317" lon="2.17289">
        <ele>36.1</ele>
        <time>2022-11-09T15:06:35Z</time>
      </trkpt>
      <trkpt lat="49.92316" lon="2.1729">
        <ele>36.1</ele>
        <time>2022-11-09T15:06:36Z</time>
      </trkpt>
      <trkpt lat="49.92315" lon="2.17292">
        <ele>36.2</ele>
        <time>2022-11-09T15:06:37Z</time>
      </trkpt>
      <trkpt lat="49.92314" lon="2.17293">
        <ele>36.2</ele>
        <time>2022-11-09T15:06:38Z</time>
      </trkpt>
      <trkpt lat="49.92313" lon="2.17295">
        <ele>36.2</ele>
        <time>2022-11-09T15:06:39Z</time>
      </trkpt>
      <trkpt lat="49.92312" lon="2.17296">
        <ele>36.2</ele>
        <time>2022-11-09T15:06:41Z</time>
      </trkpt>
      <trkpt lat="49.92311" lon="2.17298">
        <ele>36.3</ele>
        <time>2022-11-09T15:06:42Z</time>
      </trkpt>
      <trkpt lat="49.9231" lon="2.17299">
        <ele>36.3</ele>
        <time>2022-11-09T15:06:43Z</time>
      </trkpt>
      <trkpt lat="49.9231" lon="2.173">
        <ele>36.3</ele>
        <time>2022-11-09T15:06:44Z</time>
      </trkpt>
      <trkpt lat="49.92309" lon="2.17301">
        <ele>36.4</ele>
        <time>2022-11-09T15:06:45Z</time>
      </trkpt>
      <trkpt lat="49.92308" lon="2.17303">
        <ele>36.4</ele>
        <time>2022-11-09T15:06:46Z</time>
      </trkpt>
      <trkpt lat="49.92307" lon="2.17304">
        <ele>36.4</ele>
        <time>2022-11-09T15:06:48Z</time>
      </trkpt>
      <trkpt lat="49.92305" lon="2.17306">
        <ele>36.5</ele>
        <time>2022-11-09T15:06:49Z</time>
      </trkpt>
      <trkpt lat="49.92305" lon="2.17307">
        <ele>36.5</ele>
        <time>2022-11-09T15:06:50Z</time>
      </trkpt>
      <trkpt lat="49.92304" lon="2.17308">
        <ele>36.5</ele>
        <time>2022-11-09T15:06:51Z</time>
      </trkpt>
      <trkpt lat="49.92303" lon="2.17311">
        <ele>36.6</ele>
        <time>2022-11-09T15:06:52Z</time>
      </trkpt>
      <trkpt lat="49.92302" lon="2.17312">
        <ele>36.6</ele>
        <time>2022-11-09T15:06:53Z</time>
      </trkpt>
      <trkpt lat="49.92301" lon="2.17313">
        <ele>36.6</ele>
        <time>2022-11-09T15:06:54Z</time>
      </trkpt>
      <trkpt lat="49.923" lon="2.17316">
        <ele>36.7</ele>
        <time>2022-11-09T15:06:56Z</time>
      </trkpt>
      <trkpt lat="49.923" lon="2.17317">
        <ele>36.7</ele>
        <time>2022-11-09T15:06:57Z</time>
      </trkpt>
      <trkpt lat="49.923" lon="2.17318">
        <ele>36.7</ele>
        <time>2022-11-09T15:06:58Z</time>
      </trkpt>
      <trkpt lat="49.92298" lon="2.1732">
        <ele>36.7</ele>
        <time>2022-11-09T15:06:59Z</time>
      </trkpt>
      <trkpt lat="49.92297" lon="2.17321">
        <ele>36.8</ele>
        <time>2022-11-09T15:07:00Z</time>
      </trkpt>
      <trkpt lat="49.92297" lon="2.17322">
        <ele>36.8</ele>
        <time>2022-11-09T15:07:01Z</time>
      </trkpt>
      <trkpt lat="49.92295" lon="2.17324">
        <ele>36.8</ele>
        <time>2022-11-09T15:07:02Z</time>
      </trkpt>
      <trkpt lat="49.92295" lon="2.17325">
        <ele>36.9</ele>
        <time>2022-11-09T15:07:04Z</time>
      </trkpt>
      <trkpt lat="49.92294" lon="2.17326">
        <ele>36.9</ele>
        <time>2022-11-09T15:07:05Z</time>
      </trkpt>
      <trkpt lat="49.92293" lon="2.17326">
        <ele>36.9</ele>
        <time>2022-11-09T15:07:06Z</time>
      </trkpt>
      <trkpt lat="49.92292" lon="2.17327">
        <ele>36.9</ele>
        <time>2022-11-09T15:07:07Z</time>
      </trkpt>
      <trkpt lat="49.92291" lon="2.17329">
        <ele>37</ele>
        <time>2022-11-09T15:07:08Z</time>
      </trkpt>
      <trkpt lat="49.92289" lon="2.17331">
        <ele>37</ele>
        <time>2022-11-09T15:07:09Z</time>
      </trkpt>
      <trkpt lat="49.92288" lon="2.17331">
        <ele>37</ele>
        <time>2022-11-09T15:07:10Z</time>
      </trkpt>
      <trkpt lat="49.92288" lon="2.17332">
        <ele>37.1</ele>
        <time>2022-11-09T15:07:11Z</time>
      </trkpt>
      <trkpt lat="49.92286" lon="2.17333">
        <ele>37.1</ele>
        <time>2022-11-09T15:07:13Z</time>
      </trkpt>
      <trkpt lat="49.92286" lon="2.17334">
        <ele>37.1</ele>
        <time>2022-11-09T15:07:14Z</time>
      </trkpt>
      <trkpt lat="49.92285" lon="2.17335">
        <ele>37.1</ele>
        <time>2022-11-09T15:07:15Z</time>
      </trkpt>
      <trkpt lat="49.92283" lon="2.17337">
        <ele>37.2</ele>
        <time>2022-11-09T15:07:16Z</time>
      </trkpt>
      <trkpt lat="49.92283" lon="2.17338">
        <ele>37.2</ele>
        <time>2022-11-09T15:07:17Z</time>
      </trkpt>
      <trkpt lat="49.92282" lon="2.17339">
        <ele>37.2</ele>
        <time>2022-11-09T15:07:18Z</time>
      </trkpt>
      <trkpt lat="49.92281" lon="2.1734">
        <ele>37.2</ele>
        <time>2022-11-09T15:07:20Z</time>
      </trkpt>
      <trkpt lat="49.9228" lon="2.17341">
        <ele>37.3</ele>
        <time>2022-11-09T15:07:21Z</time>
      </trkpt>
      <trkpt lat="49.9228" lon="2.17341">
        <ele>37.3</ele>
        <time>2022-11-09T15:07:22Z</time>
      </trkpt>
      <trkpt lat="49.92279" lon="2.17342">
        <ele>37.3</ele>
        <time>2022-11-09T15:07:23Z</time>
      </trkpt>
      <trkpt lat="49.92278" lon="2.17343">
        <ele>37.3</ele>
        <time>2022-11-09T15:07:24Z</time>
      </trkpt>
      <trkpt lat="49.92278" lon="2.17344">
        <ele>37.4</ele>
        <time>2022-11-09T15:07:25Z</time>
      </trkpt>
      <trkpt lat="49.92277" lon="2.17346">
        <ele>37.4</ele>
        <time>2022-11-09T15:07:26Z</time>
      </trkpt>
      <trkpt lat="49.92276" lon="2.17347">
        <ele>37.4</ele>
        <time>2022-11-09T15:07:27Z</time>
      </trkpt>
      <trkpt lat="49.92275" lon="2.17348">
        <ele>37.5</ele>
        <time>2022-11-09T15:07:29Z</time>
      </trkpt>
      <trkpt lat="49.92274" lon="2.17349">
        <ele>37.5</ele>
        <time>2022-11-09T15:07:30Z</time>
      </trkpt>
      <trkpt lat="49.92274" lon="2.17351">
        <ele>37.5</ele>
        <time>2022-11-09T15:07:31Z</time>
      </trkpt>
      <trkpt lat="49.92274" lon="2.17352">
        <ele>37.5</ele>
        <time>2022-11-09T15:07:32Z</time>
      </trkpt>
      <trkpt lat="49.92273" lon="2.17354">
        <ele>37.6</ele>
        <time>2022-11-09T15:07:33Z</time>
      </trkpt>
      <trkpt lat="49.92273" lon="2.17355">
        <ele>37.6</ele>
        <time>2022-11-09T15:07:34Z</time>
      </trkpt>
      <trkpt lat="49.92272" lon="2.17357">
        <ele>37.6</ele>
        <time>2022-11-09T15:07:35Z</time>
      </trkpt>
      <trkpt lat="49.92272" lon="2.17358">
        <ele>37.6</ele>
        <time>2022-11-09T15:07:36Z</time>
      </trkpt>
      <trkpt lat="49.92271" lon="2.1736">
        <ele>37.7</ele>
        <time>2022-11-09T15:07:38Z</time>
      </trkpt>
      <trkpt lat="49.92271" lon="2.17361">
        <ele>37.7</ele>
        <time>2022-11-09T15:07:39Z</time>
      </trkpt>
      <trkpt lat="49.9227" lon="2.17362">
        <ele>37.7</ele>
        <time>2022-11-09T15:07:40Z</time>
      </trkpt>
      <trkpt lat="49.9227" lon="2.17364">
        <ele>37.7</ele>
        <time>2022-11-09T15:07:41Z</time>
      </trkpt>
      <trkpt lat="49.92269" lon="2.17365">
        <ele>37.8</ele>
        <time>2022-11-09T15:07:42Z</time>
      </trkpt>
      <trkpt lat="49.92267" lon="2.17368">
        <ele>37.8</ele>
        <time>2022-11-09T15:07:43Z</time>
      </trkpt>
      <trkpt lat="49.92267" lon="2.17369">
        <ele>37.8</ele>
        <time>2022-11-09T15:07:45Z</time>
      </trkpt>
      <trkpt lat="49.92266" lon="2.17369">
        <ele>37.9</ele>
        <time>2022-11-09T15:07:46Z</time>
      </trkpt>
      <trkpt lat="49.92265" lon="2.1737">
        <ele>37.9</ele>
        <time>2022-11-09T15:07:47Z</time>
      </trkpt>
      <trkpt lat="49.92264" lon="2.17372">
        <ele>37.9</ele>
        <time>2022-11-09T15:07:48Z</time>
      </trkpt>
      <trkpt lat="49.92263" lon="2.17373">
        <ele>37.9</ele>
        <time>2022-11-09T15:07:49Z</time>
      </trkpt>
      <trkpt lat="49.92261" lon="2.17375">
        <ele>38</ele>
        <time>2022-11-09T15:07:50Z</time>
      </trkpt>
      <trkpt lat="49.9226" lon="2.17376">
        <ele>38</ele>
        <time>2022-11-09T15:07:52Z</time>
      </trkpt>
      <trkpt lat="49.9226" lon="2.17377">
        <ele>38.1</ele>
        <time>2022-11-09T15:07:53Z</time>
      </trkpt>
      <trkpt lat="49.92259" lon="2.17378">
        <ele>38.1</ele>
        <time>2022-11-09T15:07:54Z</time>
      </trkpt>
      <trkpt lat="49.92258" lon="2.17379">
        <ele>38.1</ele>
        <time>2022-11-09T15:07:55Z</time>
      </trkpt>
      <trkpt lat="49.92257" lon="2.1738">
        <ele>38.1</ele>
        <time>2022-11-09T15:07:56Z</time>
      </trkpt>
      <trkpt lat="49.92255" lon="2.17381">
        <ele>38.2</ele>
        <time>2022-11-09T15:07:57Z</time>
      </trkpt>
      <trkpt lat="49.92254" lon="2.17383">
        <ele>38.2</ele>
        <time>2022-11-09T15:07:58Z</time>
      </trkpt>
      <trkpt lat="49.92253" lon="2.17384">
        <ele>38.3</ele>
        <time>2022-11-09T15:08:00Z</time>
      </trkpt>
      <trkpt lat="49.92252" lon="2.17385">
        <ele>38.3</ele>
        <time>2022-11-09T15:08:01Z</time>
      </trkpt>
      <trkpt lat="49.92251" lon="2.17386">
        <ele>38.3</ele>
        <time>2022-11-09T15:08:02Z</time>
      </trkpt>
      <trkpt lat="49.9225" lon="2.17387">
        <ele>38.3</ele>
        <time>2022-11-09T15:08:03Z</time>
      </trkpt>
      <trkpt lat="49.92249" lon="2.17388">
        <ele>38.4</ele>
        <time>2022-11-09T15:08:04Z</time>
      </trkpt>
      <trkpt lat="49.92248" lon="2.17389">
        <ele>38.4</ele>
        <time>2022-11-09T15:08:05Z</time>
      </trkpt>
      <trkpt lat="49.92247" lon="2.1739">
        <ele>38.4</ele>
        <time>2022-11-09T15:08:07Z</time>
      </trkpt>
      <trkpt lat="49.92246" lon="2.17391">
        <ele>38.4</ele>
        <time>2022-11-09T15:08:08Z</time>
      </trkpt>
      <trkpt lat="49.92245" lon="2.17393">
        <ele>38.5</ele>
        <time>2022-11-09T15:08:09Z</time>
      </trkpt>
      <trkpt lat="49.92244" lon="2.17394">
        <ele>38.5</ele>
        <time>2022-11-09T15:08:10Z</time>
      </trkpt>
      <trkpt lat="49.92243" lon="2.17394">
        <ele>38.5</ele>
        <time>2022-11-09T15:08:11Z</time>
      </trkpt>
      <trkpt lat="49.92242" lon="2.17396">
        <ele>38.6</ele>
        <time>2022-11-09T15:08:12Z</time>
      </trkpt>
      <trkpt lat="49.92241" lon="2.17397">
        <ele>38.6</ele>
        <time>2022-11-09T15:08:13Z</time>
      </trkpt>
      <trkpt lat="49.9224" lon="2.17398">
        <ele>38.6</ele>
        <time>2022-11-09T15:08:15Z</time>
      </trkpt>
      <trkpt lat="49.92239" lon="2.17399">
        <ele>38.7</ele>
        <time>2022-11-09T15:08:16Z</time>
      </trkpt>
      <trkpt lat="49.92238" lon="2.17399">
        <ele>38.7</ele>
        <time>2022-11-09T15:08:17Z</time>
      </trkpt>
      <trkpt lat="49.92237" lon="2.174">
        <ele>38.7</ele>
        <time>2022-11-09T15:08:18Z</time>
      </trkpt>
      <trkpt lat="49.92236" lon="2.17401">
        <ele>38.7</ele>
        <time>2022-11-09T15:08:19Z</time>
      </trkpt>
      <trkpt lat="49.92235" lon="2.17402">
        <ele>38.8</ele>
        <time>2022-11-09T15:08:20Z</time>
      </trkpt>
      <trkpt lat="49.92234" lon="2.17402">
        <ele>38.8</ele>
        <time>2022-11-09T15:08:21Z</time>
      </trkpt>
      <trkpt lat="49.92234" lon="2.17403">
        <ele>38.8</ele>
        <time>2022-11-09T15:08:23Z</time>
      </trkpt>
      <trkpt lat="49.92233" lon="2.17404">
        <ele>38.8</ele>
        <time>2022-11-09T15:08:24Z</time>
      </trkpt>
      <trkpt lat="49.92232" lon="2.17404">
        <ele>38.9</ele>
        <time>2022-11-09T15:08:25Z</time>
      </trkpt>
      <trkpt lat="49.92231" lon="2.17405">
        <ele>38.9</ele>
        <time>2022-11-09T15:08:26Z</time>
      </trkpt>
      <trkpt lat="49.9223" lon="2.17405">
        <ele>38.9</ele>
        <time>2022-11-09T15:08:27Z</time>
      </trkpt>
      <trkpt lat="49.92229" lon="2.17406">
        <ele>38.9</ele>
        <time>2022-11-09T15:08:28Z</time>
      </trkpt>
      <trkpt lat="49.92229" lon="2.17406">
        <ele>38.9</ele>
        <time>2022-11-09T15:08:30Z</time>
      </trkpt>
      <trkpt lat="49.92228" lon="2.17407">
        <ele>39</ele>
        <time>2022-11-09T15:08:31Z</time>
      </trkpt>
      <trkpt lat="49.92227" lon="2.17408">
        <ele>39</ele>
        <time>2022-11-09T15:08:32Z</time>
      </trkpt>
      <trkpt lat="49.92227" lon="2.17408">
        <ele>39</ele>
        <time>2022-11-09T15:08:33Z</time>
      </trkpt>
      <trkpt lat="49.92226" lon="2.17409">
        <ele>39</ele>
        <time>2022-11-09T15:08:34Z</time>
      </trkpt>
      <trkpt lat="49.92225" lon="2.1741">
        <ele>39.1</ele>
        <time>2022-11-09T15:08:35Z</time>
      </trkpt>
      <trkpt lat="49.92224" lon="2.17411">
        <ele>39.1</ele>
        <time>2022-11-09T15:08:36Z</time>
      </trkpt>
      <trkpt lat="49.92223" lon="2.17411">
        <ele>39.1</ele>
        <time>2022-11-09T15:08:38Z</time>
      </trkpt>
      <trkpt lat="49.92222" lon="2.17412">
        <ele>39.2</ele>
        <time>2022-11-09T15:08:39Z</time>
      </trkpt>
      <trkpt lat="49.92221" lon="2.17413">
        <ele>39.2</ele>
        <time>2022-11-09T15:08:40Z</time>
      </trkpt>
      <trkpt lat="49.9222" lon="2.17414">
        <ele>39.2</ele>
        <time>2022-11-09T15:08:41Z</time>
      </trkpt>
      <trkpt lat="49.92219" lon="2.17415">
        <ele>39.2</ele>
        <time>2022-11-09T15:08:42Z</time>
      </trkpt>
      <trkpt lat="49.92218" lon="2.17416">
        <ele>39.3</ele>
        <time>2022-11-09T15:08:43Z</time>
      </trkpt>
      <trkpt lat="49.92217" lon="2.17417">
        <ele>39.3</ele>
        <time>2022-11-09T15:08:44Z</time>
      </trkpt>
      <trkpt lat="49.92216" lon="2.17419">
        <ele>39.3</ele>
        <time>2022-11-09T15:08:45Z</time>
      </trkpt>
      <trkpt lat="49.92216" lon="2.1742">
        <ele>39.4</ele>
        <time>2022-11-09T15:08:47Z</time>
      </trkpt>
      <trkpt lat="49.92214" lon="2.17422">
        <ele>39.4</ele>
        <time>2022-11-09T15:08:48Z</time>
      </trkpt>
      <trkpt lat="49.92213" lon="2.17423">
        <ele>39.4</ele>
        <time>2022-11-09T15:08:49Z</time>
      </trkpt>
      <trkpt lat="49.92213" lon="2.17424">
        <ele>39.5</ele>
        <time>2022-11-09T15:08:50Z</time>
      </trkpt>
      <trkpt lat="49.92212" lon="2.17425">
        <ele>39.5</ele>
        <time>2022-11-09T15:08:51Z</time>
      </trkpt>
      <trkpt lat="49.92211" lon="2.17427">
        <ele>39.5</ele>
        <time>2022-11-09T15:08:53Z</time>
      </trkpt>
      <trkpt lat="49.9221" lon="2.17428">
        <ele>39.5</ele>
        <time>2022-11-09T15:08:54Z</time>
      </trkpt>
      <trkpt lat="49.92209" lon="2.17429">
        <ele>39.6</ele>
        <time>2022-11-09T15:08:55Z</time>
      </trkpt>
      <trkpt lat="49.92208" lon="2.1743">
        <ele>39.6</ele>
        <time>2022-11-09T15:08:56Z</time>
      </trkpt>
      <trkpt lat="49.92207" lon="2.17432">
        <ele>39.6</ele>
        <time>2022-11-09T15:08:57Z</time>
      </trkpt>
      <trkpt lat="49.92206" lon="2.17433">
        <ele>39.6</ele>
        <time>2022-11-09T15:08:58Z</time>
      </trkpt>
      <trkpt lat="49.92205" lon="2.17434">
        <ele>39.7</ele>
        <time>2022-11-09T15:08:59Z</time>
      </trkpt>
      <trkpt lat="49.92203" lon="2.17435">
        <ele>39.7</ele>
        <time>2022-11-09T15:09:00Z</time>
      </trkpt>
      <trkpt lat="49.92202" lon="2.17436">
        <ele>39.7</ele>
        <time>2022-11-09T15:09:01Z</time>
      </trkpt>
      <trkpt lat="49.92201" lon="2.17437">
        <ele>39.8</ele>
        <time>2022-11-09T15:09:02Z</time>
      </trkpt>
      <trkpt lat="49.922" lon="2.17438">
        <ele>39.8</ele>
        <time>2022-11-09T15:09:04Z</time>
      </trkpt>
      <trkpt lat="49.92199" lon="2.1744">
        <ele>39.8</ele>
        <time>2022-11-09T15:09:05Z</time>
      </trkpt>
      <trkpt lat="49.92197" lon="2.17441">
        <ele>39.8</ele>
        <time>2022-11-09T15:09:06Z</time>
      </trkpt>
      <trkpt lat="49.92196" lon="2.17442">
        <ele>39.9</ele>
        <time>2022-11-09T15:09:07Z</time>
      </trkpt>
      <trkpt lat="49.92195" lon="2.17443">
        <ele>39.9</ele>
        <time>2022-11-09T15:09:08Z</time>
      </trkpt>
      <trkpt lat="49.92194" lon="2.17445">
        <ele>39.9</ele>
        <time>2022-11-09T15:09:09Z</time>
      </trkpt>
      <trkpt lat="49.92193" lon="2.17447">
        <ele>40</ele>
        <time>2022-11-09T15:09:10Z</time>
      </trkpt>
      <trkpt lat="49.92192" lon="2.17448">
        <ele>40</ele>
        <time>2022-11-09T15:09:12Z</time>
      </trkpt>
      <trkpt lat="49.92191" lon="2.1745">
        <ele>40</ele>
        <time>2022-11-09T15:09:13Z</time>
      </trkpt>
      <trkpt lat="49.9219" lon="2.17451">
        <ele>40.1</ele>
        <time>2022-11-09T15:09:14Z</time>
      </trkpt>
      <trkpt lat="49.92189" lon="2.17453">
        <ele>40.1</ele>
        <time>2022-11-09T15:09:15Z</time>
      </trkpt>
      <trkpt lat="49.92187" lon="2.17454">
        <ele>40.1</ele>
        <time>2022-11-09T15:09:16Z</time>
      </trkpt>
      <trkpt lat="49.92186" lon="2.17455">
        <ele>40.2</ele>
        <time>2022-11-09T15:09:17Z</time>
      </trkpt>
      <trkpt lat="49.92185" lon="2.17456">
        <ele>40.2</ele>
        <time>2022-11-09T15:09:19Z</time>
      </trkpt>
      <trkpt lat="49.92184" lon="2.17458">
        <ele>40.2</ele>
        <time>2022-11-09T15:09:20Z</time>
      </trkpt>
      <trkpt lat="49.92183" lon="2.17459">
        <ele>40.2</ele>
        <time>2022-11-09T15:09:21Z</time>
      </trkpt>
      <trkpt lat="49.92183" lon="2.1746">
        <ele>40.3</ele>
        <time>2022-11-09T15:09:22Z</time>
      </trkpt>
      <trkpt lat="49.92181" lon="2.17463">
        <ele>40.3</ele>
        <time>2022-11-09T15:09:23Z</time>
      </trkpt>
      <trkpt lat="49.92181" lon="2.17464">
        <ele>40.3</ele>
        <time>2022-11-09T15:09:24Z</time>
      </trkpt>
      <trkpt lat="49.9218" lon="2.17465">
        <ele>40.3</ele>
        <time>2022-11-09T15:09:25Z</time>
      </trkpt>
      <trkpt lat="49.92179" lon="2.17466">
        <ele>40.4</ele>
        <time>2022-11-09T15:09:26Z</time>
      </trkpt>
      <trkpt lat="49.92178" lon="2.17467">
        <ele>40.4</ele>
        <time>2022-11-09T15:09:28Z</time>
      </trkpt>
      <trkpt lat="49.92178" lon="2.17469">
        <ele>40.4</ele>
        <time>2022-11-09T15:09:29Z</time>
      </trkpt>
      <trkpt lat="49.92177" lon="2.1747">
        <ele>40.4</ele>
        <time>2022-11-09T15:09:30Z</time>
      </trkpt>
      <trkpt lat="49.92176" lon="2.17471">
        <ele>40.5</ele>
        <time>2022-11-09T15:09:31Z</time>
      </trkpt>
      <trkpt lat="49.92176" lon="2.17472">
        <ele>40.5</ele>
        <time>2022-11-09T15:09:32Z</time>
      </trkpt>
      <trkpt lat="49.92175" lon="2.17475">
        <ele>40.5</ele>
        <time>2022-11-09T15:09:33Z</time>
      </trkpt>
      <trkpt lat="49.92174" lon="2.17476">
        <ele>40.6</ele>
        <time>2022-11-09T15:09:34Z</time>
      </trkpt>
      <trkpt lat="49.92174" lon="2.17477">
        <ele>40.6</ele>
        <time>2022-11-09T15:09:35Z</time>
      </trkpt>
      <trkpt lat="49.92173" lon="2.17479">
        <ele>40.6</ele>
        <time>2022-11-09T15:09:36Z</time>
      </trkpt>
      <trkpt lat="49.92172" lon="2.17481">
        <ele>40.6</ele>
        <time>2022-11-09T15:09:37Z</time>
      </trkpt>
      <trkpt lat="49.92172" lon="2.17482">
        <ele>40.7</ele>
        <time>2022-11-09T15:09:39Z</time>
      </trkpt>
      <trkpt lat="49.92171" lon="2.17483">
        <ele>40.7</ele>
        <time>2022-11-09T15:09:40Z</time>
      </trkpt>
      <trkpt lat="49.9217" lon="2.17484">
        <ele>40.7</ele>
        <time>2022-11-09T15:09:41Z</time>
      </trkpt>
      <trkpt lat="49.92169" lon="2.17485">
        <ele>40.8</ele>
        <time>2022-11-09T15:09:42Z</time>
      </trkpt>
      <trkpt lat="49.92168" lon="2.17486">
        <ele>40.8</ele>
        <time>2022-11-09T15:09:43Z</time>
      </trkpt>
      <trkpt lat="49.92167" lon="2.17488">
        <ele>40.8</ele>
        <time>2022-11-09T15:09:44Z</time>
      </trkpt>
      <trkpt lat="49.92165" lon="2.1749">
        <ele>40.8</ele>
        <time>2022-11-09T15:09:45Z</time>
      </trkpt>
      <trkpt lat="49.92165" lon="2.17491">
        <ele>40.8</ele>
        <time>2022-11-09T15:09:47Z</time>
      </trkpt>
      <trkpt lat="49.92164" lon="2.17492">
        <ele>40.9</ele>
        <time>2022-11-09T15:09:48Z</time>
      </trkpt>
      <trkpt lat="49.92162" lon="2.17494">
        <ele>40.9</ele>
        <time>2022-11-09T15:09:49Z</time>
      </trkpt>
      <trkpt lat="49.92162" lon="2.17495">
        <ele>40.9</ele>
        <time>2022-11-09T15:09:50Z</time>
      </trkpt>
      <trkpt lat="49.92161" lon="2.17495">
        <ele>41</ele>
        <time>2022-11-09T15:09:51Z</time>
      </trkpt>
      <trkpt lat="49.9216" lon="2.17497">
        <ele>41</ele>
        <time>2022-11-09T15:09:52Z</time>
      </trkpt>
      <trkpt lat="49.92159" lon="2.17498">
        <ele>41</ele>
        <time>2022-11-09T15:09:53Z</time>
      </trkpt>
      <trkpt lat="49.92158" lon="2.17499">
        <ele>41.1</ele>
        <time>2022-11-09T15:09:55Z</time>
      </trkpt>
      <trkpt lat="49.92157" lon="2.17501">
        <ele>41.1</ele>
        <time>2022-11-09T15:09:56Z</time>
      </trkpt>
      <trkpt lat="49.92157" lon="2.17502">
        <ele>41.1</ele>
        <time>2022-11-09T15:09:57Z</time>
      </trkpt>
      <trkpt lat="49.92156" lon="2.17504">
        <ele>41.2</ele>
        <time>2022-11-09T15:09:58Z</time>
      </trkpt>
      <trkpt lat="49.92155" lon="2.17505">
        <ele>41.2</ele>
        <time>2022-11-09T15:09:59Z</time>
      </trkpt>
      <trkpt lat="49.92154" lon="2.17507">
        <ele>41.2</ele>
        <time>2022-11-09T15:10:00Z</time>
      </trkpt>
      <trkpt lat="49.92153" lon="2.17508">
        <ele>41.3</ele>
        <time>2022-11-09T15:10:02Z</time>
      </trkpt>
      <trkpt lat="49.92153" lon="2.17509">
        <ele>41.3</ele>
        <time>2022-11-09T15:10:03Z</time>
      </trkpt>
      <trkpt lat="49.92152" lon="2.17511">
        <ele>41.3</ele>
        <time>2022-11-09T15:10:04Z</time>
      </trkpt>
      <trkpt lat="49.92152" lon="2.17512">
        <ele>41.3</ele>
        <time>2022-11-09T15:10:05Z</time>
      </trkpt>
      <trkpt lat="49.92151" lon="2.17514">
        <ele>41.4</ele>
        <time>2022-11-09T15:10:06Z</time>
      </trkpt>
      <trkpt lat="49.92151" lon="2.17515">
        <ele>41.4</ele>
        <time>2022-11-09T15:10:07Z</time>
      </trkpt>
      <trkpt lat="49.9215" lon="2.17516">
        <ele>41.4</ele>
        <time>2022-11-09T15:10:09Z</time>
      </trkpt>
      <trkpt lat="49.9215" lon="2.17517">
        <ele>41.4</ele>
        <time>2022-11-09T15:10:10Z</time>
      </trkpt>
      <trkpt lat="49.92149" lon="2.17518">
        <ele>41.4</ele>
        <time>2022-11-09T15:10:11Z</time>
      </trkpt>
      <trkpt lat="49.92148" lon="2.1752">
        <ele>41.5</ele>
        <time>2022-11-09T15:10:12Z</time>
      </trkpt>
      <trkpt lat="49.92147" lon="2.17522">
        <ele>41.5</ele>
        <time>2022-11-09T15:10:13Z</time>
      </trkpt>
      <trkpt lat="49.92146" lon="2.17523">
        <ele>41.5</ele>
        <time>2022-11-09T15:10:14Z</time>
      </trkpt>
      <trkpt lat="49.92146" lon="2.17524">
        <ele>41.5</ele>
        <time>2022-11-09T15:10:15Z</time>
      </trkpt>
      <trkpt lat="49.92144" lon="2.17526">
        <ele>41.5</ele>
        <time>2022-11-09T15:10:16Z</time>
      </trkpt>
      <trkpt lat="49.92144" lon="2.17527">
        <ele>41.6</ele>
        <time>2022-11-09T15:10:17Z</time>
      </trkpt>
      <trkpt lat="49.92143" lon="2.17528">
        <ele>41.6</ele>
        <time>2022-11-09T15:10:18Z</time>
      </trkpt>
      <trkpt lat="49.92142" lon="2.1753">
        <ele>41.6</ele>
        <time>2022-11-09T15:10:20Z</time>
      </trkpt>
      <trkpt lat="49.92141" lon="2.17531">
        <ele>41.6</ele>
        <time>2022-11-09T15:10:21Z</time>
      </trkpt>
      <trkpt lat="49.92141" lon="2.17532">
        <ele>41.7</ele>
        <time>2022-11-09T15:10:22Z</time>
      </trkpt>
      <trkpt lat="49.9214" lon="2.17535">
        <ele>41.7</ele>
        <time>2022-11-09T15:10:23Z</time>
      </trkpt>
      <trkpt lat="49.92139" lon="2.17536">
        <ele>41.7</ele>
        <time>2022-11-09T15:10:24Z</time>
      </trkpt>
      <trkpt lat="49.92139" lon="2.17537">
        <ele>41.8</ele>
        <time>2022-11-09T15:10:25Z</time>
      </trkpt>
      <trkpt lat="49.92138" lon="2.1754">
        <ele>41.8</ele>
        <time>2022-11-09T15:10:26Z</time>
      </trkpt>
      <trkpt lat="49.92137" lon="2.17542">
        <ele>41.8</ele>
        <time>2022-11-09T15:10:28Z</time>
      </trkpt>
      <trkpt lat="49.92137" lon="2.17543">
        <ele>41.8</ele>
        <time>2022-11-09T15:10:29Z</time>
      </trkpt>
      <trkpt lat="49.92136" lon="2.17545">
        <ele>41.9</ele>
        <time>2022-11-09T15:10:30Z</time>
      </trkpt>
      <trkpt lat="49.92136" lon="2.17547">
        <ele>41.9</ele>
        <time>2022-11-09T15:10:31Z</time>
      </trkpt>
      <trkpt lat="49.92135" lon="2.17549">
        <ele>42</ele>
        <time>2022-11-09T15:10:32Z</time>
      </trkpt>
      <trkpt lat="49.92135" lon="2.17551">
        <ele>42</ele>
        <time>2022-11-09T15:10:33Z</time>
      </trkpt>
      <trkpt lat="49.92134" lon="2.17552">
        <ele>42</ele>
        <time>2022-11-09T15:10:35Z</time>
      </trkpt>
      <trkpt lat="49.92133" lon="2.17554">
        <ele>42.1</ele>
        <time>2022-11-09T15:10:36Z</time>
      </trkpt>
      <trkpt lat="49.92133" lon="2.17556">
        <ele>42.1</ele>
        <time>2022-11-09T15:10:37Z</time>
      </trkpt>
      <trkpt lat="49.92132" lon="2.17557">
        <ele>42.1</ele>
        <time>2022-11-09T15:10:38Z</time>
      </trkpt>
      <trkpt lat="49.92131" lon="2.17559">
        <ele>42.1</ele>
        <time>2022-11-09T15:10:39Z</time>
      </trkpt>
      <trkpt lat="49.92131" lon="2.1756">
        <ele>42.2</ele>
        <time>2022-11-09T15:10:40Z</time>
      </trkpt>
      <trkpt lat="49.9213" lon="2.17562">
        <ele>42.2</ele>
        <time>2022-11-09T15:10:41Z</time>
      </trkpt>
      <trkpt lat="49.92129" lon="2.17563">
        <ele>42.2</ele>
        <time>2022-11-09T15:10:43Z</time>
      </trkpt>
      <trkpt lat="49.92128" lon="2.17564">
        <ele>42.2</ele>
        <time>2022-11-09T15:10:44Z</time>
      </trkpt>
      <trkpt lat="49.92128" lon="2.17566">
        <ele>42.2</ele>
        <time>2022-11-09T15:10:45Z</time>
      </trkpt>
      <trkpt lat="49.92127" lon="2.17567">
        <ele>42.3</ele>
        <time>2022-11-09T15:10:46Z</time>
      </trkpt>
      <trkpt lat="49.92127" lon="2.17569">
        <ele>42.3</ele>
        <time>2022-11-09T15:10:47Z</time>
      </trkpt>
      <trkpt lat="49.92126" lon="2.17571">
        <ele>42.3</ele>
        <time>2022-11-09T15:10:48Z</time>
      </trkpt>
      <trkpt lat="49.92125" lon="2.17572">
        <ele>42.3</ele>
        <time>2022-11-09T15:10:49Z</time>
      </trkpt>
      <trkpt lat="49.92124" lon="2.17575">
        <ele>42.4</ele>
        <time>2022-11-09T15:10:51Z</time>
      </trkpt>
      <trkpt lat="49.92123" lon="2.17576">
        <ele>42.4</ele>
        <time>2022-11-09T15:10:52Z</time>
      </trkpt>
      <trkpt lat="49.92123" lon="2.17577">
        <ele>42.4</ele>
        <time>2022-11-09T15:10:53Z</time>
      </trkpt>
      <trkpt lat="49.92122" lon="2.1758">
        <ele>42.5</ele>
        <time>2022-11-09T15:10:54Z</time>
      </trkpt>
      <trkpt lat="49.92121" lon="2.17581">
        <ele>42.5</ele>
        <time>2022-11-09T15:10:55Z</time>
      </trkpt>
      <trkpt lat="49.92121" lon="2.17582">
        <ele>42.5</ele>
        <time>2022-11-09T15:10:56Z</time>
      </trkpt>
      <trkpt lat="49.9212" lon="2.17583">
        <ele>42.5</ele>
        <time>2022-11-09T15:10:58Z</time>
      </trkpt>
      <trkpt lat="49.92119" lon="2.17584">
        <ele>42.5</ele>
        <time>2022-11-09T15:10:59Z</time>
      </trkpt>
      <trkpt lat="49.92119" lon="2.17586">
        <ele>42.6</ele>
        <time>2022-11-09T15:11:00Z</time>
      </trkpt>
      <trkpt lat="49.92119" lon="2.17588">
        <ele>42.6</ele>
        <time>2022-11-09T15:11:01Z</time>
      </trkpt>
      <trkpt lat="49.92118" lon="2.17589">
        <ele>42.6</ele>
        <time>2022-11-09T15:11:02Z</time>
      </trkpt>
      <trkpt lat="49.92118" lon="2.17591">
        <ele>42.6</ele>
        <time>2022-11-09T15:11:03Z</time>
      </trkpt>
      <trkpt lat="49.92117" lon="2.17592">
        <ele>42.6</ele>
        <time>2022-11-09T15:11:05Z</time>
      </trkpt>
      <trkpt lat="49.92117" lon="2.17593">
        <ele>42.7</ele>
        <time>2022-11-09T15:11:06Z</time>
      </trkpt>
      <trkpt lat="49.92116" lon="2.17595">
        <ele>42.7</ele>
        <time>2022-11-09T15:11:07Z</time>
      </trkpt>
      <trkpt lat="49.92116" lon="2.17598">
        <ele>42.7</ele>
        <time>2022-11-09T15:11:08Z</time>
      </trkpt>
      <trkpt lat="49.92115" lon="2.17599">
        <ele>42.7</ele>
        <time>2022-11-09T15:11:09Z</time>
      </trkpt>
      <trkpt lat="49.92115" lon="2.176">
        <ele>42.8</ele>
        <time>2022-11-09T15:11:10Z</time>
      </trkpt>
      <trkpt lat="49.92115" lon="2.17602">
        <ele>42.8</ele>
        <time>2022-11-09T15:11:11Z</time>
      </trkpt>
      <trkpt lat="49.92114" lon="2.17603">
        <ele>42.8</ele>
        <time>2022-11-09T15:11:13Z</time>
      </trkpt>
      <trkpt lat="49.92114" lon="2.17605">
        <ele>42.8</ele>
        <time>2022-11-09T15:11:14Z</time>
      </trkpt>
      <trkpt lat="49.92114" lon="2.17607">
        <ele>42.9</ele>
        <time>2022-11-09T15:11:15Z</time>
      </trkpt>
      <trkpt lat="49.92113" lon="2.1761">
        <ele>42.9</ele>
        <time>2022-11-09T15:11:16Z</time>
      </trkpt>
      <trkpt lat="49.92113" lon="2.17612">
        <ele>43</ele>
        <time>2022-11-09T15:11:17Z</time>
      </trkpt>
      <trkpt lat="49.92113" lon="2.17614">
        <ele>43</ele>
        <time>2022-11-09T15:11:18Z</time>
      </trkpt>
      <trkpt lat="49.92113" lon="2.17617">
        <ele>43</ele>
        <time>2022-11-09T15:11:19Z</time>
      </trkpt>
      <trkpt lat="49.92113" lon="2.17619">
        <ele>43.1</ele>
        <time>2022-11-09T15:11:20Z</time>
      </trkpt>
      <trkpt lat="49.92112" lon="2.17621">
        <ele>43.1</ele>
        <time>2022-11-09T15:11:21Z</time>
      </trkpt>
      <trkpt lat="49.92112" lon="2.17623">
        <ele>43.1</ele>
        <time>2022-11-09T15:11:23Z</time>
      </trkpt>
      <trkpt lat="49.92112" lon="2.17625">
        <ele>43.2</ele>
        <time>2022-11-09T15:11:24Z</time>
      </trkpt>
      <trkpt lat="49.92111" lon="2.17627">
        <ele>43.2</ele>
        <time>2022-11-09T15:11:25Z</time>
      </trkpt>
      <trkpt lat="49.9211" lon="2.17631">
        <ele>43.3</ele>
        <time>2022-11-09T15:11:26Z</time>
      </trkpt>
      <trkpt lat="49.92109" lon="2.17632">
        <ele>43.3</ele>
        <time>2022-11-09T15:11:28Z</time>
      </trkpt>
      <trkpt lat="49.92109" lon="2.17634">
        <ele>43.4</ele>
        <time>2022-11-09T15:11:29Z</time>
      </trkpt>
      <trkpt lat="49.92108" lon="2.17635">
        <ele>43.4</ele>
        <time>2022-11-09T15:11:30Z</time>
      </trkpt>
      <trkpt lat="49.92107" lon="2.17637">
        <ele>43.4</ele>
        <time>2022-11-09T15:11:31Z</time>
      </trkpt>
      <trkpt lat="49.92107" lon="2.17639">
        <ele>43.5</ele>
        <time>2022-11-09T15:11:32Z</time>
      </trkpt>
      <trkpt lat="49.92106" lon="2.1764">
        <ele>43.5</ele>
        <time>2022-11-09T15:11:33Z</time>
      </trkpt>
      <trkpt lat="49.92105" lon="2.17642">
        <ele>43.6</ele>
        <time>2022-11-09T15:11:34Z</time>
      </trkpt>
      <trkpt lat="49.92104" lon="2.17644">
        <ele>43.6</ele>
        <time>2022-11-09T15:11:35Z</time>
      </trkpt>
      <trkpt lat="49.92103" lon="2.17647">
        <ele>43.7</ele>
        <time>2022-11-09T15:11:37Z</time>
      </trkpt>
      <trkpt lat="49.92102" lon="2.17648">
        <ele>43.7</ele>
        <time>2022-11-09T15:11:38Z</time>
      </trkpt>
      <trkpt lat="49.92102" lon="2.17649">
        <ele>43.7</ele>
        <time>2022-11-09T15:11:39Z</time>
      </trkpt>
      <trkpt lat="49.92101" lon="2.17652">
        <ele>43.8</ele>
        <time>2022-11-09T15:11:40Z</time>
      </trkpt>
      <trkpt lat="49.921" lon="2.17653">
        <ele>43.8</ele>
        <time>2022-11-09T15:11:41Z</time>
      </trkpt>
      <trkpt lat="49.921" lon="2.17654">
        <ele>43.8</ele>
        <time>2022-11-09T15:11:42Z</time>
      </trkpt>
      <trkpt lat="49.92099" lon="2.17656">
        <ele>43.9</ele>
        <time>2022-11-09T15:11:43Z</time>
      </trkpt>
      <trkpt lat="49.92098" lon="2.17657">
        <ele>43.9</ele>
        <time>2022-11-09T15:11:44Z</time>
      </trkpt>
      <trkpt lat="49.92098" lon="2.17658">
        <ele>43.9</ele>
        <time>2022-11-09T15:11:45Z</time>
      </trkpt>
      <trkpt lat="49.92097" lon="2.17661">
        <ele>44</ele>
        <time>2022-11-09T15:11:47Z</time>
      </trkpt>
      <trkpt lat="49.92096" lon="2.17662">
        <ele>44</ele>
        <time>2022-11-09T15:11:48Z</time>
      </trkpt>
      <trkpt lat="49.92096" lon="2.17663">
        <ele>44</ele>
        <time>2022-11-09T15:11:49Z</time>
      </trkpt>
      <trkpt lat="49.92095" lon="2.17666">
        <ele>44.1</ele>
        <time>2022-11-09T15:11:50Z</time>
      </trkpt>
      <trkpt lat="49.92094" lon="2.17667">
        <ele>44.1</ele>
        <time>2022-11-09T15:11:51Z</time>
      </trkpt>
      <trkpt lat="49.92094" lon="2.17668">
        <ele>44.2</ele>
        <time>2022-11-09T15:11:52Z</time>
      </trkpt>
      <trkpt lat="49.92093" lon="2.1767">
        <ele>44.2</ele>
        <time>2022-11-09T15:11:53Z</time>
      </trkpt>
      <trkpt lat="49.92092" lon="2.17671">
        <ele>44.2</ele>
        <time>2022-11-09T15:11:54Z</time>
      </trkpt>
      <trkpt lat="49.92092" lon="2.17673">
        <ele>44.3</ele>
        <time>2022-11-09T15:11:56Z</time>
      </trkpt>
      <trkpt lat="49.92091" lon="2.17675">
        <ele>44.3</ele>
        <time>2022-11-09T15:11:57Z</time>
      </trkpt>
      <trkpt lat="49.92091" lon="2.17676">
        <ele>44.3</ele>
        <time>2022-11-09T15:11:58Z</time>
      </trkpt>
      <trkpt lat="49.9209" lon="2.17678">
        <ele>44.3</ele>
        <time>2022-11-09T15:11:59Z</time>
      </trkpt>
      <trkpt lat="49.9209" lon="2.1768">
        <ele>44.4</ele>
        <time>2022-11-09T15:12:00Z</time>
      </trkpt>
      <trkpt lat="49.92089" lon="2.17682">
        <ele>44.4</ele>
        <time>2022-11-09T15:12:01Z</time>
      </trkpt>
      <trkpt lat="49.92088" lon="2.17685">
        <ele>44.5</ele>
        <time>2022-11-09T15:12:02Z</time>
      </trkpt>
      <trkpt lat="49.92088" lon="2.17686">
        <ele>44.5</ele>
        <time>2022-11-09T15:12:03Z</time>
      </trkpt>
      <trkpt lat="49.92087" lon="2.17687">
        <ele>44.5</ele>
        <time>2022-11-09T15:12:04Z</time>
      </trkpt>
      <trkpt lat="49.92086" lon="2.17688">
        <ele>44.6</ele>
        <time>2022-11-09T15:12:06Z</time>
      </trkpt>
      <trkpt lat="49.92085" lon="2.1769">
        <ele>44.6</ele>
        <time>2022-11-09T15:12:07Z</time>
      </trkpt>
      <trkpt lat="49.92084" lon="2.1769">
        <ele>44.6</ele>
        <time>2022-11-09T15:12:08Z</time>
      </trkpt>
      <trkpt lat="49.92084" lon="2.17691">
        <ele>44.6</ele>
        <time>2022-11-09T15:12:09Z</time>
      </trkpt>
      <trkpt lat="49.92083" lon="2.17692">
        <ele>44.7</ele>
        <time>2022-11-09T15:12:10Z</time>
      </trkpt>
      <trkpt lat="49.92082" lon="2.17693">
        <ele>44.7</ele>
        <time>2022-11-09T15:12:11Z</time>
      </trkpt>
      <trkpt lat="49.92081" lon="2.17695">
        <ele>44.7</ele>
        <time>2022-11-09T15:12:12Z</time>
      </trkpt>
      <trkpt lat="49.9208" lon="2.17696">
        <ele>44.8</ele>
        <time>2022-11-09T15:12:13Z</time>
      </trkpt>
      <trkpt lat="49.9208" lon="2.17697">
        <ele>44.8</ele>
        <time>2022-11-09T15:12:14Z</time>
      </trkpt>
      <trkpt lat="49.92079" lon="2.177">
        <ele>44.8</ele>
        <time>2022-11-09T15:12:15Z</time>
      </trkpt>
      <trkpt lat="49.92078" lon="2.17701">
        <ele>44.9</ele>
        <time>2022-11-09T15:12:17Z</time>
      </trkpt>
      <trkpt lat="49.92078" lon="2.17702">
        <ele>44.9</ele>
        <time>2022-11-09T15:12:18Z</time>
      </trkpt>
      <trkpt lat="49.92077" lon="2.17704">
        <ele>44.9</ele>
        <time>2022-11-09T15:12:19Z</time>
      </trkpt>
      <trkpt lat="49.92077" lon="2.17705">
        <ele>44.9</ele>
        <time>2022-11-09T15:12:20Z</time>
      </trkpt>
      <trkpt lat="49.92076" lon="2.17707">
        <ele>45</ele>
        <time>2022-11-09T15:12:21Z</time>
      </trkpt>
      <trkpt lat="49.92075" lon="2.17709">
        <ele>45</ele>
        <time>2022-11-09T15:12:22Z</time>
      </trkpt>
      <trkpt lat="49.92074" lon="2.17711">
        <ele>45.1</ele>
        <time>2022-11-09T15:12:23Z</time>
      </trkpt>
      <trkpt lat="49.92073" lon="2.17713">
        <ele>45.1</ele>
        <time>2022-11-09T15:12:24Z</time>
      </trkpt>
      <trkpt lat="49.92073" lon="2.17715">
        <ele>45.2</ele>
        <time>2022-11-09T15:12:25Z</time>
      </trkpt>
      <trkpt lat="49.92072" lon="2.17718">
        <ele>45.2</ele>
        <time>2022-11-09T15:12:26Z</time>
      </trkpt>
      <trkpt lat="49.92071" lon="2.1772">
        <ele>45.3</ele>
        <time>2022-11-09T15:12:28Z</time>
      </trkpt>
      <trkpt lat="49.92071" lon="2.17722">
        <ele>45.3</ele>
        <time>2022-11-09T15:12:29Z</time>
      </trkpt>
      <trkpt lat="49.9207" lon="2.17724">
        <ele>45.3</ele>
        <time>2022-11-09T15:12:30Z</time>
      </trkpt>
      <trkpt lat="49.9207" lon="2.17726">
        <ele>45.4</ele>
        <time>2022-11-09T15:12:31Z</time>
      </trkpt>
      <trkpt lat="49.92069" lon="2.17728">
        <ele>45.4</ele>
        <time>2022-11-09T15:12:32Z</time>
      </trkpt>
      <trkpt lat="49.92069" lon="2.17729">
        <ele>45.4</ele>
        <time>2022-11-09T15:12:33Z</time>
      </trkpt>
      <trkpt lat="49.92068" lon="2.17731">
        <ele>45.5</ele>
        <time>2022-11-09T15:12:34Z</time>
      </trkpt>
      <trkpt lat="49.92068" lon="2.17732">
        <ele>45.5</ele>
        <time>2022-11-09T15:12:35Z</time>
      </trkpt>
      <trkpt lat="49.92067" lon="2.17734">
        <ele>45.5</ele>
        <time>2022-11-09T15:12:36Z</time>
      </trkpt>
      <trkpt lat="49.92067" lon="2.17737">
        <ele>45.6</ele>
        <time>2022-11-09T15:12:37Z</time>
      </trkpt>
      <trkpt lat="49.92067" lon="2.17738">
        <ele>45.6</ele>
        <time>2022-11-09T15:12:38Z</time>
      </trkpt>
      <trkpt lat="49.92067" lon="2.17739">
        <ele>45.7</ele>
        <time>2022-11-09T15:12:39Z</time>
      </trkpt>
      <trkpt lat="49.92066" lon="2.17741">
        <ele>45.7</ele>
        <time>2022-11-09T15:12:40Z</time>
      </trkpt>
      <trkpt lat="49.92066" lon="2.17743">
        <ele>45.7</ele>
        <time>2022-11-09T15:12:42Z</time>
      </trkpt>
      <trkpt lat="49.92065" lon="2.17745">
        <ele>45.8</ele>
        <time>2022-11-09T15:12:43Z</time>
      </trkpt>
      <trkpt lat="49.92064" lon="2.17747">
        <ele>45.8</ele>
        <time>2022-11-09T15:12:44Z</time>
      </trkpt>
      <trkpt lat="49.92063" lon="2.17748">
        <ele>45.9</ele>
        <time>2022-11-09T15:12:45Z</time>
      </trkpt>
      <trkpt lat="49.92063" lon="2.17749">
        <ele>45.9</ele>
        <time>2022-11-09T15:12:46Z</time>
      </trkpt>
      <trkpt lat="49.92062" lon="2.1775">
        <ele>45.9</ele>
        <time>2022-11-09T15:12:47Z</time>
      </trkpt>
      <trkpt lat="49.92061" lon="2.17752">
        <ele>45.9</ele>
        <time>2022-11-09T15:12:48Z</time>
      </trkpt>
      <trkpt lat="49.9206" lon="2.17753">
        <ele>46</ele>
        <time>2022-11-09T15:12:49Z</time>
      </trkpt>
      <trkpt lat="49.92059" lon="2.17754">
        <ele>46</ele>
        <time>2022-11-09T15:12:51Z</time>
      </trkpt>
      <trkpt lat="49.92058" lon="2.17755">
        <ele>46</ele>
        <time>2022-11-09T15:12:52Z</time>
      </trkpt>
      <trkpt lat="49.92058" lon="2.17757">
        <ele>46.1</ele>
        <time>2022-11-09T15:12:53Z</time>
      </trkpt>
      <trkpt lat="49.92057" lon="2.17758">
        <ele>46.1</ele>
        <time>2022-11-09T15:12:54Z</time>
      </trkpt>
      <trkpt lat="49.92056" lon="2.17759">
        <ele>46.1</ele>
        <time>2022-11-09T15:12:55Z</time>
      </trkpt>
      <trkpt lat="49.92055" lon="2.17761">
        <ele>46.2</ele>
        <time>2022-11-09T15:12:56Z</time>
      </trkpt>
      <trkpt lat="49.92055" lon="2.17762">
        <ele>46.2</ele>
        <time>2022-11-09T15:12:57Z</time>
      </trkpt>
      <trkpt lat="49.92054" lon="2.17763">
        <ele>46.2</ele>
        <time>2022-11-09T15:12:59Z</time>
      </trkpt>
      <trkpt lat="49.92053" lon="2.17764">
        <ele>46.2</ele>
        <time>2022-11-09T15:13:00Z</time>
      </trkpt>
      <trkpt lat="49.92052" lon="2.17765">
        <ele>46.3</ele>
        <time>2022-11-09T15:13:01Z</time>
      </trkpt>
      <trkpt lat="49.92051" lon="2.17766">
        <ele>46.3</ele>
        <time>2022-11-09T15:13:02Z</time>
      </trkpt>
      <trkpt lat="49.9205" lon="2.17767">
        <ele>46.3</ele>
        <time>2022-11-09T15:13:03Z</time>
      </trkpt>
      <trkpt lat="49.92049" lon="2.17768">
        <ele>46.4</ele>
        <time>2022-11-09T15:13:04Z</time>
      </trkpt>
      <trkpt lat="49.92049" lon="2.17769">
        <ele>46.4</ele>
        <time>2022-11-09T15:13:05Z</time>
      </trkpt>
      <trkpt lat="49.92048" lon="2.17771">
        <ele>46.4</ele>
        <time>2022-11-09T15:13:06Z</time>
      </trkpt>
      <trkpt lat="49.92047" lon="2.17772">
        <ele>46.4</ele>
        <time>2022-11-09T15:13:08Z</time>
      </trkpt>
      <trkpt lat="49.92046" lon="2.17773">
        <ele>46.5</ele>
        <time>2022-11-09T15:13:09Z</time>
      </trkpt>
      <trkpt lat="49.92046" lon="2.17774">
        <ele>46.5</ele>
        <time>2022-11-09T15:13:10Z</time>
      </trkpt>
      <trkpt lat="49.92044" lon="2.17776">
        <ele>46.5</ele>
        <time>2022-11-09T15:13:11Z</time>
      </trkpt>
      <trkpt lat="49.92043" lon="2.17777">
        <ele>46.6</ele>
        <time>2022-11-09T15:13:12Z</time>
      </trkpt>
      <trkpt lat="49.92043" lon="2.17777">
        <ele>46.6</ele>
        <time>2022-11-09T15:13:13Z</time>
      </trkpt>
      <trkpt lat="49.92042" lon="2.17779">
        <ele>46.6</ele>
        <time>2022-11-09T15:13:14Z</time>
      </trkpt>
      <trkpt lat="49.92041" lon="2.1778">
        <ele>46.7</ele>
        <time>2022-11-09T15:13:16Z</time>
      </trkpt>
      <trkpt lat="49.9204" lon="2.17782">
        <ele>46.7</ele>
        <time>2022-11-09T15:13:17Z</time>
      </trkpt>
      <trkpt lat="49.92039" lon="2.17784">
        <ele>46.8</ele>
        <time>2022-11-09T15:13:18Z</time>
      </trkpt>
      <trkpt lat="49.92038" lon="2.17785">
        <ele>46.8</ele>
        <time>2022-11-09T15:13:19Z</time>
      </trkpt>
      <trkpt lat="49.92038" lon="2.17786">
        <ele>46.8</ele>
        <time>2022-11-09T15:13:20Z</time>
      </trkpt>
      <trkpt lat="49.92036" lon="2.17789">
        <ele>46.9</ele>
        <time>2022-11-09T15:13:21Z</time>
      </trkpt>
      <trkpt lat="49.92036" lon="2.1779">
        <ele>46.9</ele>
        <time>2022-11-09T15:13:22Z</time>
      </trkpt>
      <trkpt lat="49.92035" lon="2.17791">
        <ele>46.9</ele>
        <time>2022-11-09T15:13:23Z</time>
      </trkpt>
      <trkpt lat="49.92034" lon="2.17793">
        <ele>47</ele>
        <time>2022-11-09T15:13:25Z</time>
      </trkpt>
      <trkpt lat="49.92033" lon="2.17794">
        <ele>47</ele>
        <time>2022-11-09T15:13:26Z</time>
      </trkpt>
      <trkpt lat="49.92032" lon="2.17795">
        <ele>47</ele>
        <time>2022-11-09T15:13:27Z</time>
      </trkpt>
      <trkpt lat="49.92031" lon="2.17796">
        <ele>47.1</ele>
        <time>2022-11-09T15:13:28Z</time>
      </trkpt>
      <trkpt lat="49.9203" lon="2.17798">
        <ele>47.1</ele>
        <time>2022-11-09T15:13:30Z</time>
      </trkpt>
      <trkpt lat="49.92029" lon="2.17799">
        <ele>47.1</ele>
        <time>2022-11-09T15:13:31Z</time>
      </trkpt>
      <trkpt lat="49.92028" lon="2.178">
        <ele>47.2</ele>
        <time>2022-11-09T15:13:32Z</time>
      </trkpt>
      <trkpt lat="49.92027" lon="2.17802">
        <ele>47.2</ele>
        <time>2022-11-09T15:13:33Z</time>
      </trkpt>
      <trkpt lat="49.92026" lon="2.17804">
        <ele>47.3</ele>
        <time>2022-11-09T15:13:34Z</time>
      </trkpt>
      <trkpt lat="49.92025" lon="2.17804">
        <ele>47.3</ele>
        <time>2022-11-09T15:13:35Z</time>
      </trkpt>
      <trkpt lat="49.92025" lon="2.17805">
        <ele>47.3</ele>
        <time>2022-11-09T15:13:36Z</time>
      </trkpt>
      <trkpt lat="49.92024" lon="2.17806">
        <ele>47.3</ele>
        <time>2022-11-09T15:13:38Z</time>
      </trkpt>
      <trkpt lat="49.92023" lon="2.17808">
        <ele>47.4</ele>
        <time>2022-11-09T15:13:39Z</time>
      </trkpt>
      <trkpt lat="49.92022" lon="2.17809">
        <ele>47.4</ele>
        <time>2022-11-09T15:13:40Z</time>
      </trkpt>
      <trkpt lat="49.92021" lon="2.1781">
        <ele>47.4</ele>
        <time>2022-11-09T15:13:41Z</time>
      </trkpt>
      <trkpt lat="49.9202" lon="2.17811">
        <ele>47.4</ele>
        <time>2022-11-09T15:13:42Z</time>
      </trkpt>
      <trkpt lat="49.92019" lon="2.17812">
        <ele>47.5</ele>
        <time>2022-11-09T15:13:43Z</time>
      </trkpt>
      <trkpt lat="49.92019" lon="2.17813">
        <ele>47.5</ele>
        <time>2022-11-09T15:13:44Z</time>
      </trkpt>
      <trkpt lat="49.92018" lon="2.17814">
        <ele>47.5</ele>
        <time>2022-11-09T15:13:45Z</time>
      </trkpt>
      <trkpt lat="49.92018" lon="2.17816">
        <ele>47.5</ele>
        <time>2022-11-09T15:13:47Z</time>
      </trkpt>
      <trkpt lat="49.92017" lon="2.17817">
        <ele>47.6</ele>
        <time>2022-11-09T15:13:48Z</time>
      </trkpt>
      <trkpt lat="49.92017" lon="2.17818">
        <ele>47.6</ele>
        <time>2022-11-09T15:13:49Z</time>
      </trkpt>
      <trkpt lat="49.92016" lon="2.1782">
        <ele>47.6</ele>
        <time>2022-11-09T15:13:50Z</time>
      </trkpt>
      <trkpt lat="49.92015" lon="2.17821">
        <ele>47.7</ele>
        <time>2022-11-09T15:13:51Z</time>
      </trkpt>
      <trkpt lat="49.92015" lon="2.17822">
        <ele>47.7</ele>
        <time>2022-11-09T15:13:52Z</time>
      </trkpt>
      <trkpt lat="49.92014" lon="2.17823">
        <ele>47.7</ele>
        <time>2022-11-09T15:13:53Z</time>
      </trkpt>
      <trkpt lat="49.92012" lon="2.17825">
        <ele>47.8</ele>
        <time>2022-11-09T15:13:54Z</time>
      </trkpt>
      <trkpt lat="49.92012" lon="2.17826">
        <ele>47.8</ele>
        <time>2022-11-09T15:13:56Z</time>
      </trkpt>
      <trkpt lat="49.92011" lon="2.17827">
        <ele>47.8</ele>
        <time>2022-11-09T15:13:57Z</time>
      </trkpt>
      <trkpt lat="49.9201" lon="2.17829">
        <ele>47.9</ele>
        <time>2022-11-09T15:13:58Z</time>
      </trkpt>
      <trkpt lat="49.9201" lon="2.1783">
        <ele>47.9</ele>
        <time>2022-11-09T15:13:59Z</time>
      </trkpt>
      <trkpt lat="49.92008" lon="2.17832">
        <ele>47.9</ele>
        <time>2022-11-09T15:14:01Z</time>
      </trkpt>
      <trkpt lat="49.92007" lon="2.17833">
        <ele>48</ele>
        <time>2022-11-09T15:14:02Z</time>
      </trkpt>
      <trkpt lat="49.92006" lon="2.17835">
        <ele>48</ele>
        <time>2022-11-09T15:14:03Z</time>
      </trkpt>
      <trkpt lat="49.92005" lon="2.17837">
        <ele>48.1</ele>
        <time>2022-11-09T15:14:04Z</time>
      </trkpt>
      <trkpt lat="49.92004" lon="2.17838">
        <ele>48.1</ele>
        <time>2022-11-09T15:14:05Z</time>
      </trkpt>
      <trkpt lat="49.92004" lon="2.1784">
        <ele>48.1</ele>
        <time>2022-11-09T15:14:06Z</time>
      </trkpt>
      <trkpt lat="49.92002" lon="2.17842">
        <ele>48.2</ele>
        <time>2022-11-09T15:14:07Z</time>
      </trkpt>
      <trkpt lat="49.92002" lon="2.17843">
        <ele>48.2</ele>
        <time>2022-11-09T15:14:08Z</time>
      </trkpt>
      <trkpt lat="49.92001" lon="2.17845">
        <ele>48.2</ele>
        <time>2022-11-09T15:14:09Z</time>
      </trkpt>
      <trkpt lat="49.92001" lon="2.17846">
        <ele>48.3</ele>
        <time>2022-11-09T15:14:11Z</time>
      </trkpt>
      <trkpt lat="49.92" lon="2.17848">
        <ele>48.3</ele>
        <time>2022-11-09T15:14:12Z</time>
      </trkpt>
      <trkpt lat="49.91999" lon="2.1785">
        <ele>48.3</ele>
        <time>2022-11-09T15:14:13Z</time>
      </trkpt>
      <trkpt lat="49.91998" lon="2.17852">
        <ele>48.4</ele>
        <time>2022-11-09T15:14:14Z</time>
      </trkpt>
      <trkpt lat="49.91997" lon="2.17853">
        <ele>48.4</ele>
        <time>2022-11-09T15:14:15Z</time>
      </trkpt>
      <trkpt lat="49.91996" lon="2.17855">
        <ele>48.4</ele>
        <time>2022-11-09T15:14:16Z</time>
      </trkpt>
      <trkpt lat="49.91995" lon="2.17857">
        <ele>48.5</ele>
        <time>2022-11-09T15:14:17Z</time>
      </trkpt>
      <trkpt lat="49.91994" lon="2.17858">
        <ele>48.5</ele>
        <time>2022-11-09T15:14:19Z</time>
      </trkpt>
      <trkpt lat="49.91993" lon="2.1786">
        <ele>48.5</ele>
        <time>2022-11-09T15:14:20Z</time>
      </trkpt>
      <trkpt lat="49.91992" lon="2.17862">
        <ele>48.6</ele>
        <time>2022-11-09T15:14:21Z</time>
      </trkpt>
      <trkpt lat="49.91992" lon="2.17864">
        <ele>48.6</ele>
        <time>2022-11-09T15:14:22Z</time>
      </trkpt>
      <trkpt lat="49.91991" lon="2.17866">
        <ele>48.6</ele>
        <time>2022-11-09T15:14:23Z</time>
      </trkpt>
      <trkpt lat="49.91989" lon="2.17869">
        <ele>48.7</ele>
        <time>2022-11-09T15:14:24Z</time>
      </trkpt>
      <trkpt lat="49.91989" lon="2.1787">
        <ele>48.7</ele>
        <time>2022-11-09T15:14:25Z</time>
      </trkpt>
      <trkpt lat="49.91988" lon="2.17871">
        <ele>48.7</ele>
        <time>2022-11-09T15:14:26Z</time>
      </trkpt>
      <trkpt lat="49.91987" lon="2.17872">
        <ele>48.7</ele>
        <time>2022-11-09T15:14:28Z</time>
      </trkpt>
      <trkpt lat="49.91986" lon="2.17874">
        <ele>48.8</ele>
        <time>2022-11-09T15:14:29Z</time>
      </trkpt>
      <trkpt lat="49.91986" lon="2.17876">
        <ele>48.8</ele>
        <time>2022-11-09T15:14:30Z</time>
      </trkpt>
      <trkpt lat="49.91985" lon="2.17877">
        <ele>48.8</ele>
        <time>2022-11-09T15:14:31Z</time>
      </trkpt>
      <trkpt lat="49.91984" lon="2.17879">
        <ele>48.9</ele>
        <time>2022-11-09T15:14:32Z</time>
      </trkpt>
      <trkpt lat="49.91983" lon="2.17881">
        <ele>48.9</ele>
        <time>2022-11-09T15:14:33Z</time>
      </trkpt>
      <trkpt lat="49.91982" lon="2.17882">
        <ele>48.9</ele>
        <time>2022-11-09T15:14:34Z</time>
      </trkpt>
      <trkpt lat="49.91981" lon="2.17884">
        <ele>49</ele>
        <time>2022-11-09T15:14:35Z</time>
      </trkpt>
      <trkpt lat="49.9198" lon="2.17887">
        <ele>49</ele>
        <time>2022-11-09T15:14:37Z</time>
      </trkpt>
      <trkpt lat="49.91979" lon="2.17887">
        <ele>49</ele>
        <time>2022-11-09T15:14:38Z</time>
      </trkpt>
      <trkpt lat="49.91979" lon="2.17888">
        <ele>49.1</ele>
        <time>2022-11-09T15:14:39Z</time>
      </trkpt>
      <trkpt lat="49.91977" lon="2.17891">
        <ele>49.1</ele>
        <time>2022-11-09T15:14:40Z</time>
      </trkpt>
      <trkpt lat="49.91977" lon="2.17892">
        <ele>49.1</ele>
        <time>2022-11-09T15:14:41Z</time>
      </trkpt>
      <trkpt lat="49.91976" lon="2.17893">
        <ele>49.2</ele>
        <time>2022-11-09T15:14:42Z</time>
      </trkpt>
      <trkpt lat="49.91975" lon="2.17894">
        <ele>49.2</ele>
        <time>2022-11-09T15:14:43Z</time>
      </trkpt>
      <trkpt lat="49.91975" lon="2.17896">
        <ele>49.2</ele>
        <time>2022-11-09T15:14:44Z</time>
      </trkpt>
      <trkpt lat="49.91974" lon="2.17897">
        <ele>49.3</ele>
        <time>2022-11-09T15:14:45Z</time>
      </trkpt>
      <trkpt lat="49.91973" lon="2.179">
        <ele>49.3</ele>
        <time>2022-11-09T15:14:46Z</time>
      </trkpt>
      <trkpt lat="49.91972" lon="2.17901">
        <ele>49.3</ele>
        <time>2022-11-09T15:14:48Z</time>
      </trkpt>
      <trkpt lat="49.91972" lon="2.17902">
        <ele>49.4</ele>
        <time>2022-11-09T15:14:49Z</time>
      </trkpt>
      <trkpt lat="49.91971" lon="2.17904">
        <ele>49.4</ele>
        <time>2022-11-09T15:14:50Z</time>
      </trkpt>
      <trkpt lat="49.9197" lon="2.17905">
        <ele>49.4</ele>
        <time>2022-11-09T15:14:51Z</time>
      </trkpt>
      <trkpt lat="49.91969" lon="2.17907">
        <ele>49.5</ele>
        <time>2022-11-09T15:14:52Z</time>
      </trkpt>
      <trkpt lat="49.91969" lon="2.17908">
        <ele>49.5</ele>
        <time>2022-11-09T15:14:53Z</time>
      </trkpt>
      <trkpt lat="49.91968" lon="2.17909">
        <ele>49.5</ele>
        <time>2022-11-09T15:14:54Z</time>
      </trkpt>
      <trkpt lat="49.91967" lon="2.17911">
        <ele>49.6</ele>
        <time>2022-11-09T15:14:55Z</time>
      </trkpt>
      <trkpt lat="49.91966" lon="2.17913">
        <ele>49.6</ele>
        <time>2022-11-09T15:14:57Z</time>
      </trkpt>
      <trkpt lat="49.91965" lon="2.17914">
        <ele>49.6</ele>
        <time>2022-11-09T15:14:58Z</time>
      </trkpt>
      <trkpt lat="49.91965" lon="2.17915">
        <ele>49.7</ele>
        <time>2022-11-09T15:14:59Z</time>
      </trkpt>
      <trkpt lat="49.91963" lon="2.17916">
        <ele>49.7</ele>
        <time>2022-11-09T15:15:00Z</time>
      </trkpt>
      <trkpt lat="49.91962" lon="2.17918">
        <ele>49.7</ele>
        <time>2022-11-09T15:15:02Z</time>
      </trkpt>
      <trkpt lat="49.91962" lon="2.1792">
        <ele>49.8</ele>
        <time>2022-11-09T15:15:03Z</time>
      </trkpt>
      <trkpt lat="49.91961" lon="2.17921">
        <ele>49.8</ele>
        <time>2022-11-09T15:15:04Z</time>
      </trkpt>
      <trkpt lat="49.9196" lon="2.17922">
        <ele>49.8</ele>
        <time>2022-11-09T15:15:05Z</time>
      </trkpt>
      <trkpt lat="49.9196" lon="2.17924">
        <ele>49.8</ele>
        <time>2022-11-09T15:15:06Z</time>
      </trkpt>
      <trkpt lat="49.91959" lon="2.17925">
        <ele>49.9</ele>
        <time>2022-11-09T15:15:07Z</time>
      </trkpt>
      <trkpt lat="49.91959" lon="2.17927">
        <ele>49.9</ele>
        <time>2022-11-09T15:15:08Z</time>
      </trkpt>
      <trkpt lat="49.91958" lon="2.17928">
        <ele>49.9</ele>
        <time>2022-11-09T15:15:09Z</time>
      </trkpt>
      <trkpt lat="49.91957" lon="2.1793">
        <ele>50</ele>
        <time>2022-11-09T15:15:10Z</time>
      </trkpt>
      <trkpt lat="49.91957" lon="2.17932">
        <ele>50</ele>
        <time>2022-11-09T15:15:12Z</time>
      </trkpt>
      <trkpt lat="49.91956" lon="2.17933">
        <ele>50</ele>
        <time>2022-11-09T15:15:13Z</time>
      </trkpt>
      <trkpt lat="49.91956" lon="2.17935">
        <ele>50</ele>
        <time>2022-11-09T15:15:14Z</time>
      </trkpt>
      <trkpt lat="49.91955" lon="2.17936">
        <ele>50.1</ele>
        <time>2022-11-09T15:15:15Z</time>
      </trkpt>
      <trkpt lat="49.91954" lon="2.17938">
        <ele>50.1</ele>
        <time>2022-11-09T15:15:16Z</time>
      </trkpt>
      <trkpt lat="49.91953" lon="2.17939">
        <ele>50.1</ele>
        <time>2022-11-09T15:15:17Z</time>
      </trkpt>
      <trkpt lat="49.91953" lon="2.1794">
        <ele>50.2</ele>
        <time>2022-11-09T15:15:18Z</time>
      </trkpt>
      <trkpt lat="49.91952" lon="2.17942">
        <ele>50.2</ele>
        <time>2022-11-09T15:15:20Z</time>
      </trkpt>
      <trkpt lat="49.91951" lon="2.17943">
        <ele>50.2</ele>
        <time>2022-11-09T15:15:21Z</time>
      </trkpt>
      <trkpt lat="49.9195" lon="2.17944">
        <ele>50.2</ele>
        <time>2022-11-09T15:15:22Z</time>
      </trkpt>
      <trkpt lat="49.91949" lon="2.17946">
        <ele>50.3</ele>
        <time>2022-11-09T15:15:23Z</time>
      </trkpt>
      <trkpt lat="49.91949" lon="2.17948">
        <ele>50.3</ele>
        <time>2022-11-09T15:15:25Z</time>
      </trkpt>
      <trkpt lat="49.91948" lon="2.17949">
        <ele>50.3</ele>
        <time>2022-11-09T15:15:26Z</time>
      </trkpt>
      <trkpt lat="49.91947" lon="2.1795">
        <ele>50.4</ele>
        <time>2022-11-09T15:15:27Z</time>
      </trkpt>
      <trkpt lat="49.91946" lon="2.17951">
        <ele>50.4</ele>
        <time>2022-11-09T15:15:28Z</time>
      </trkpt>
      <trkpt lat="49.91946" lon="2.17953">
        <ele>50.4</ele>
        <time>2022-11-09T15:15:29Z</time>
      </trkpt>
      <trkpt lat="49.91945" lon="2.17954">
        <ele>50.5</ele>
        <time>2022-11-09T15:15:30Z</time>
      </trkpt>
      <trkpt lat="49.91944" lon="2.17955">
        <ele>50.5</ele>
        <time>2022-11-09T15:15:32Z</time>
      </trkpt>
      <trkpt lat="49.91943" lon="2.17957">
        <ele>50.5</ele>
        <time>2022-11-09T15:15:33Z</time>
      </trkpt>
      <trkpt lat="49.91943" lon="2.17958">
        <ele>50.5</ele>
        <time>2022-11-09T15:15:34Z</time>
      </trkpt>
      <trkpt lat="49.91942" lon="2.17959">
        <ele>50.6</ele>
        <time>2022-11-09T15:15:35Z</time>
      </trkpt>
      <trkpt lat="49.91941" lon="2.17961">
        <ele>50.6</ele>
        <time>2022-11-09T15:15:36Z</time>
      </trkpt>
      <trkpt lat="49.9194" lon="2.17962">
        <ele>50.6</ele>
        <time>2022-11-09T15:15:37Z</time>
      </trkpt>
      <trkpt lat="49.9194" lon="2.17963">
        <ele>50.6</ele>
        <time>2022-11-09T15:15:38Z</time>
      </trkpt>
      <trkpt lat="49.91939" lon="2.17964">
        <ele>50.7</ele>
        <time>2022-11-09T15:15:40Z</time>
      </trkpt>
      <trkpt lat="49.91938" lon="2.17965">
        <ele>50.7</ele>
        <time>2022-11-09T15:15:41Z</time>
      </trkpt>
      <trkpt lat="49.91938" lon="2.17967">
        <ele>50.7</ele>
        <time>2022-11-09T15:15:42Z</time>
      </trkpt>
      <trkpt lat="49.91937" lon="2.17968">
        <ele>50.8</ele>
        <time>2022-11-09T15:15:43Z</time>
      </trkpt>
      <trkpt lat="49.91936" lon="2.1797">
        <ele>50.8</ele>
        <time>2022-11-09T15:15:44Z</time>
      </trkpt>
      <trkpt lat="49.91936" lon="2.17971">
        <ele>50.8</ele>
        <time>2022-11-09T15:15:45Z</time>
      </trkpt>
      <trkpt lat="49.91935" lon="2.17973">
        <ele>50.8</ele>
        <time>2022-11-09T15:15:46Z</time>
      </trkpt>
      <trkpt lat="49.91935" lon="2.17974">
        <ele>50.9</ele>
        <time>2022-11-09T15:15:47Z</time>
      </trkpt>
      <trkpt lat="49.91934" lon="2.17975">
        <ele>50.9</ele>
        <time>2022-11-09T15:15:49Z</time>
      </trkpt>
      <trkpt lat="49.91933" lon="2.17977">
        <ele>50.9</ele>
        <time>2022-11-09T15:15:50Z</time>
      </trkpt>
      <trkpt lat="49.91932" lon="2.17978">
        <ele>51</ele>
        <time>2022-11-09T15:15:51Z</time>
      </trkpt>
      <trkpt lat="49.91932" lon="2.17979">
        <ele>51</ele>
        <time>2022-11-09T15:15:52Z</time>
      </trkpt>
      <trkpt lat="49.91931" lon="2.1798">
        <ele>51</ele>
        <time>2022-11-09T15:15:53Z</time>
      </trkpt>
      <trkpt lat="49.9193" lon="2.17981">
        <ele>51</ele>
        <time>2022-11-09T15:15:54Z</time>
      </trkpt>
      <trkpt lat="49.91929" lon="2.17982">
        <ele>51.1</ele>
        <time>2022-11-09T15:15:55Z</time>
      </trkpt>
      <trkpt lat="49.91928" lon="2.17983">
        <ele>51.1</ele>
        <time>2022-11-09T15:15:57Z</time>
      </trkpt>
      <trkpt lat="49.91927" lon="2.17984">
        <ele>51.1</ele>
        <time>2022-11-09T15:15:58Z</time>
      </trkpt>
      <trkpt lat="49.91926" lon="2.17985">
        <ele>51.2</ele>
        <time>2022-11-09T15:15:59Z</time>
      </trkpt>
      <trkpt lat="49.91925" lon="2.17987">
        <ele>51.2</ele>
        <time>2022-11-09T15:16:00Z</time>
      </trkpt>
      <trkpt lat="49.91924" lon="2.17988">
        <ele>51.2</ele>
        <time>2022-11-09T15:16:01Z</time>
      </trkpt>
      <trkpt lat="49.91924" lon="2.17989">
        <ele>51.3</ele>
        <time>2022-11-09T15:16:02Z</time>
      </trkpt>
      <trkpt lat="49.91923" lon="2.17991">
        <ele>51.3</ele>
        <time>2022-11-09T15:16:03Z</time>
      </trkpt>
      <trkpt lat="49.91922" lon="2.17992">
        <ele>51.3</ele>
        <time>2022-11-09T15:16:05Z</time>
      </trkpt>
      <trkpt lat="49.91922" lon="2.17993">
        <ele>51.4</ele>
        <time>2022-11-09T15:16:06Z</time>
      </trkpt>
      <trkpt lat="49.91921" lon="2.17994">
        <ele>51.4</ele>
        <time>2022-11-09T15:16:07Z</time>
      </trkpt>
      <trkpt lat="49.9192" lon="2.17994">
        <ele>51.4</ele>
        <time>2022-11-09T15:16:08Z</time>
      </trkpt>
      <trkpt lat="49.91918" lon="2.17996">
        <ele>51.5</ele>
        <time>2022-11-09T15:16:09Z</time>
      </trkpt>
      <trkpt lat="49.91918" lon="2.17997">
        <ele>51.5</ele>
        <time>2022-11-09T15:16:10Z</time>
      </trkpt>
      <trkpt lat="49.91917" lon="2.17998">
        <ele>51.5</ele>
        <time>2022-11-09T15:16:11Z</time>
      </trkpt>
      <trkpt lat="49.91916" lon="2.17999">
        <ele>51.6</ele>
        <time>2022-11-09T15:16:12Z</time>
      </trkpt>
      <trkpt lat="49.91915" lon="2.18">
        <ele>51.6</ele>
        <time>2022-11-09T15:16:14Z</time>
      </trkpt>
      <trkpt lat="49.91914" lon="2.18001">
        <ele>51.6</ele>
        <time>2022-11-09T15:16:15Z</time>
      </trkpt>
      <trkpt lat="49.91914" lon="2.18003">
        <ele>51.7</ele>
        <time>2022-11-09T15:16:16Z</time>
      </trkpt>
      <trkpt lat="49.91913" lon="2.18004">
        <ele>51.7</ele>
        <time>2022-11-09T15:16:17Z</time>
      </trkpt>
      <trkpt lat="49.91912" lon="2.18005">
        <ele>51.7</ele>
        <time>2022-11-09T15:16:18Z</time>
      </trkpt>
      <trkpt lat="49.91912" lon="2.18007">
        <ele>51.8</ele>
        <time>2022-11-09T15:16:19Z</time>
      </trkpt>
      <trkpt lat="49.91911" lon="2.18008">
        <ele>51.8</ele>
        <time>2022-11-09T15:16:20Z</time>
      </trkpt>
      <trkpt lat="49.91911" lon="2.18009">
        <ele>51.8</ele>
        <time>2022-11-09T15:16:21Z</time>
      </trkpt>
      <trkpt lat="49.91911" lon="2.18011">
        <ele>51.8</ele>
        <time>2022-11-09T15:16:22Z</time>
      </trkpt>
      <trkpt lat="49.9191" lon="2.18012">
        <ele>51.9</ele>
        <time>2022-11-09T15:16:24Z</time>
      </trkpt>
      <trkpt lat="49.91909" lon="2.18013">
        <ele>51.9</ele>
        <time>2022-11-09T15:16:25Z</time>
      </trkpt>
      <trkpt lat="49.91908" lon="2.18014">
        <ele>51.9</ele>
        <time>2022-11-09T15:16:26Z</time>
      </trkpt>
      <trkpt lat="49.91908" lon="2.18015">
        <ele>52</ele>
        <time>2022-11-09T15:16:27Z</time>
      </trkpt>
      <trkpt lat="49.91907" lon="2.18016">
        <ele>52</ele>
        <time>2022-11-09T15:16:28Z</time>
      </trkpt>
      <trkpt lat="49.91906" lon="2.18017">
        <ele>52</ele>
        <time>2022-11-09T15:16:29Z</time>
      </trkpt>
      <trkpt lat="49.91905" lon="2.18018">
        <ele>52</ele>
        <time>2022-11-09T15:16:30Z</time>
      </trkpt>
      <trkpt lat="49.91904" lon="2.18019">
        <ele>52.1</ele>
        <time>2022-11-09T15:16:32Z</time>
      </trkpt>
      <trkpt lat="49.91902" lon="2.18021">
        <ele>52.1</ele>
        <time>2022-11-09T15:16:34Z</time>
      </trkpt>
      <trkpt lat="49.91901" lon="2.18023">
        <ele>52.2</ele>
        <time>2022-11-09T15:16:35Z</time>
      </trkpt>
      <trkpt lat="49.919" lon="2.18024">
        <ele>52.2</ele>
        <time>2022-11-09T15:16:36Z</time>
      </trkpt>
      <trkpt lat="49.91899" lon="2.18025">
        <ele>52.3</ele>
        <time>2022-11-09T15:16:37Z</time>
      </trkpt>
      <trkpt lat="49.91898" lon="2.18027">
        <ele>52.3</ele>
        <time>2022-11-09T15:16:38Z</time>
      </trkpt>
      <trkpt lat="49.91897" lon="2.18028">
        <ele>52.4</ele>
        <time>2022-11-09T15:16:39Z</time>
      </trkpt>
      <trkpt lat="49.91896" lon="2.18028">
        <ele>52.4</ele>
        <time>2022-11-09T15:16:40Z</time>
      </trkpt>
      <trkpt lat="49.91895" lon="2.1803">
        <ele>52.4</ele>
        <time>2022-11-09T15:16:41Z</time>
      </trkpt>
      <trkpt lat="49.91894" lon="2.18031">
        <ele>52.5</ele>
        <time>2022-11-09T15:16:42Z</time>
      </trkpt>
      <trkpt lat="49.91893" lon="2.18032">
        <ele>52.5</ele>
        <time>2022-11-09T15:16:44Z</time>
      </trkpt>
      <trkpt lat="49.91892" lon="2.18033">
        <ele>52.5</ele>
        <time>2022-11-09T15:16:45Z</time>
      </trkpt>
      <trkpt lat="49.91891" lon="2.18034">
        <ele>52.6</ele>
        <time>2022-11-09T15:16:46Z</time>
      </trkpt>
      <trkpt lat="49.9189" lon="2.18034">
        <ele>52.6</ele>
        <time>2022-11-09T15:16:47Z</time>
      </trkpt>
      <trkpt lat="49.91889" lon="2.18036">
        <ele>52.7</ele>
        <time>2022-11-09T15:16:48Z</time>
      </trkpt>
      <trkpt lat="49.91888" lon="2.18037">
        <ele>52.7</ele>
        <time>2022-11-09T15:16:49Z</time>
      </trkpt>
      <trkpt lat="49.91887" lon="2.18038">
        <ele>52.7</ele>
        <time>2022-11-09T15:16:50Z</time>
      </trkpt>
      <trkpt lat="49.91886" lon="2.1804">
        <ele>52.8</ele>
        <time>2022-11-09T15:16:51Z</time>
      </trkpt>
      <trkpt lat="49.91885" lon="2.18041">
        <ele>52.8</ele>
        <time>2022-11-09T15:16:53Z</time>
      </trkpt>
      <trkpt lat="49.91884" lon="2.18042">
        <ele>52.8</ele>
        <time>2022-11-09T15:16:54Z</time>
      </trkpt>
      <trkpt lat="49.91883" lon="2.18044">
        <ele>52.9</ele>
        <time>2022-11-09T15:16:55Z</time>
      </trkpt>
      <trkpt lat="49.91882" lon="2.18045">
        <ele>52.9</ele>
        <time>2022-11-09T15:16:56Z</time>
      </trkpt>
      <trkpt lat="49.91881" lon="2.18047">
        <ele>53</ele>
        <time>2022-11-09T15:16:57Z</time>
      </trkpt>
      <trkpt lat="49.9188" lon="2.18048">
        <ele>53</ele>
        <time>2022-11-09T15:16:58Z</time>
      </trkpt>
      <trkpt lat="49.91879" lon="2.1805">
        <ele>53.1</ele>
        <time>2022-11-09T15:16:59Z</time>
      </trkpt>
      <trkpt lat="49.91878" lon="2.18051">
        <ele>53.1</ele>
        <time>2022-11-09T15:17:01Z</time>
      </trkpt>
      <trkpt lat="49.91877" lon="2.18053">
        <ele>53.2</ele>
        <time>2022-11-09T15:17:02Z</time>
      </trkpt>
      <trkpt lat="49.91876" lon="2.18054">
        <ele>53.2</ele>
        <time>2022-11-09T15:17:03Z</time>
      </trkpt>
      <trkpt lat="49.91874" lon="2.18056">
        <ele>53.3</ele>
        <time>2022-11-09T15:17:04Z</time>
      </trkpt>
      <trkpt lat="49.91873" lon="2.18057">
        <ele>53.3</ele>
        <time>2022-11-09T15:17:05Z</time>
      </trkpt>
      <trkpt lat="49.91871" lon="2.18059">
        <ele>53.4</ele>
        <time>2022-11-09T15:17:07Z</time>
      </trkpt>
      <trkpt lat="49.91871" lon="2.18059">
        <ele>53.4</ele>
        <time>2022-11-09T15:17:08Z</time>
      </trkpt>
      <trkpt lat="49.9187" lon="2.1806">
        <ele>53.5</ele>
        <time>2022-11-09T15:17:09Z</time>
      </trkpt>
      <trkpt lat="49.91868" lon="2.18062">
        <ele>53.5</ele>
        <time>2022-11-09T15:17:10Z</time>
      </trkpt>
      <trkpt lat="49.91868" lon="2.18063">
        <ele>53.6</ele>
        <time>2022-11-09T15:17:11Z</time>
      </trkpt>
      <trkpt lat="49.91867" lon="2.18064">
        <ele>53.6</ele>
        <time>2022-11-09T15:17:12Z</time>
      </trkpt>
      <trkpt lat="49.91866" lon="2.18065">
        <ele>53.6</ele>
        <time>2022-11-09T15:17:13Z</time>
      </trkpt>
      <trkpt lat="49.91865" lon="2.18067">
        <ele>53.7</ele>
        <time>2022-11-09T15:17:14Z</time>
      </trkpt>
      <trkpt lat="49.91864" lon="2.18069">
        <ele>53.7</ele>
        <time>2022-11-09T15:17:16Z</time>
      </trkpt>
      <trkpt lat="49.91863" lon="2.1807">
        <ele>53.8</ele>
        <time>2022-11-09T15:17:17Z</time>
      </trkpt>
      <trkpt lat="49.91862" lon="2.18072">
        <ele>53.8</ele>
        <time>2022-11-09T15:17:18Z</time>
      </trkpt>
      <trkpt lat="49.91861" lon="2.18073">
        <ele>53.9</ele>
        <time>2022-11-09T15:17:19Z</time>
      </trkpt>
      <trkpt lat="49.9186" lon="2.18074">
        <ele>53.9</ele>
        <time>2022-11-09T15:17:20Z</time>
      </trkpt>
      <trkpt lat="49.9186" lon="2.18076">
        <ele>53.9</ele>
        <time>2022-11-09T15:17:21Z</time>
      </trkpt>
      <trkpt lat="49.91858" lon="2.18077">
        <ele>54</ele>
        <time>2022-11-09T15:17:22Z</time>
      </trkpt>
      <trkpt lat="49.91857" lon="2.1808">
        <ele>54.1</ele>
        <time>2022-11-09T15:17:23Z</time>
      </trkpt>
      <trkpt lat="49.91856" lon="2.1808">
        <ele>54.1</ele>
        <time>2022-11-09T15:17:25Z</time>
      </trkpt>
      <trkpt lat="49.91856" lon="2.18081">
        <ele>54.1</ele>
        <time>2022-11-09T15:17:26Z</time>
      </trkpt>
      <trkpt lat="49.91854" lon="2.18083">
        <ele>54.2</ele>
        <time>2022-11-09T15:17:27Z</time>
      </trkpt>
      <trkpt lat="49.91853" lon="2.18084">
        <ele>54.2</ele>
        <time>2022-11-09T15:17:28Z</time>
      </trkpt>
      <trkpt lat="49.91853" lon="2.18084">
        <ele>54.2</ele>
        <time>2022-11-09T15:17:29Z</time>
      </trkpt>
      <trkpt lat="49.91852" lon="2.18086">
        <ele>54.3</ele>
        <time>2022-11-09T15:17:30Z</time>
      </trkpt>
      <trkpt lat="49.91851" lon="2.18087">
        <ele>54.3</ele>
        <time>2022-11-09T15:17:31Z</time>
      </trkpt>
      <trkpt lat="49.91849" lon="2.18089">
        <ele>54.4</ele>
        <time>2022-11-09T15:17:32Z</time>
      </trkpt>
      <trkpt lat="49.91848" lon="2.1809">
        <ele>54.4</ele>
        <time>2022-11-09T15:17:33Z</time>
      </trkpt>
      <trkpt lat="49.91847" lon="2.18093">
        <ele>54.5</ele>
        <time>2022-11-09T15:17:34Z</time>
      </trkpt>
      <trkpt lat="49.91846" lon="2.18094">
        <ele>54.6</ele>
        <time>2022-11-09T15:17:36Z</time>
      </trkpt>
      <trkpt lat="49.91845" lon="2.18095">
        <ele>54.6</ele>
        <time>2022-11-09T15:17:37Z</time>
      </trkpt>
      <trkpt lat="49.91845" lon="2.18096">
        <ele>54.6</ele>
        <time>2022-11-09T15:17:38Z</time>
      </trkpt>
      <trkpt lat="49.91844" lon="2.18098">
        <ele>54.7</ele>
        <time>2022-11-09T15:17:39Z</time>
      </trkpt>
      <trkpt lat="49.91843" lon="2.18099">
        <ele>54.7</ele>
        <time>2022-11-09T15:17:40Z</time>
      </trkpt>
      <trkpt lat="49.91842" lon="2.18101">
        <ele>54.8</ele>
        <time>2022-11-09T15:17:41Z</time>
      </trkpt>
      <trkpt lat="49.91842" lon="2.18102">
        <ele>54.8</ele>
        <time>2022-11-09T15:17:43Z</time>
      </trkpt>
      <trkpt lat="49.91841" lon="2.18104">
        <ele>54.9</ele>
        <time>2022-11-09T15:17:44Z</time>
      </trkpt>
      <trkpt lat="49.9184" lon="2.18105">
        <ele>54.9</ele>
        <time>2022-11-09T15:17:45Z</time>
      </trkpt>
      <trkpt lat="49.91839" lon="2.18106">
        <ele>55</ele>
        <time>2022-11-09T15:17:46Z</time>
      </trkpt>
      <trkpt lat="49.91838" lon="2.18108">
        <ele>55</ele>
        <time>2022-11-09T15:17:47Z</time>
      </trkpt>
      <trkpt lat="49.91837" lon="2.18109">
        <ele>55</ele>
        <time>2022-11-09T15:17:48Z</time>
      </trkpt>
      <trkpt lat="49.91836" lon="2.1811">
        <ele>55.1</ele>
        <time>2022-11-09T15:17:49Z</time>
      </trkpt>
      <trkpt lat="49.91836" lon="2.18111">
        <ele>55.1</ele>
        <time>2022-11-09T15:17:51Z</time>
      </trkpt>
      <trkpt lat="49.91835" lon="2.18112">
        <ele>55.2</ele>
        <time>2022-11-09T15:17:52Z</time>
      </trkpt>
      <trkpt lat="49.91834" lon="2.18112">
        <ele>55.2</ele>
        <time>2022-11-09T15:17:53Z</time>
      </trkpt>
      <trkpt lat="49.91834" lon="2.18113">
        <ele>55.2</ele>
        <time>2022-11-09T15:17:54Z</time>
      </trkpt>
      <trkpt lat="49.91833" lon="2.18115">
        <ele>55.3</ele>
        <time>2022-11-09T15:17:55Z</time>
      </trkpt>
      <trkpt lat="49.91833" lon="2.18116">
        <ele>55.3</ele>
        <time>2022-11-09T15:17:56Z</time>
      </trkpt>
      <trkpt lat="49.91832" lon="2.18117">
        <ele>55.4</ele>
        <time>2022-11-09T15:17:57Z</time>
      </trkpt>
      <trkpt lat="49.91831" lon="2.18119">
        <ele>55.4</ele>
        <time>2022-11-09T15:17:58Z</time>
      </trkpt>
      <trkpt lat="49.9183" lon="2.1812">
        <ele>55.5</ele>
        <time>2022-11-09T15:18:00Z</time>
      </trkpt>
      <trkpt lat="49.91828" lon="2.18122">
        <ele>55.5</ele>
        <time>2022-11-09T15:18:01Z</time>
      </trkpt>
      <trkpt lat="49.91828" lon="2.18123">
        <ele>55.6</ele>
        <time>2022-11-09T15:18:02Z</time>
      </trkpt>
      <trkpt lat="49.91827" lon="2.18124">
        <ele>55.6</ele>
        <time>2022-11-09T15:18:03Z</time>
      </trkpt>
      <trkpt lat="49.91826" lon="2.18126">
        <ele>55.7</ele>
        <time>2022-11-09T15:18:04Z</time>
      </trkpt>
      <trkpt lat="49.91825" lon="2.18127">
        <ele>55.7</ele>
        <time>2022-11-09T15:18:05Z</time>
      </trkpt>
      <trkpt lat="49.91823" lon="2.18129">
        <ele>55.8</ele>
        <time>2022-11-09T15:18:06Z</time>
      </trkpt>
      <trkpt lat="49.91822" lon="2.1813">
        <ele>55.9</ele>
        <time>2022-11-09T15:18:08Z</time>
      </trkpt>
      <trkpt lat="49.91821" lon="2.18131">
        <ele>55.9</ele>
        <time>2022-11-09T15:18:09Z</time>
      </trkpt>
      <trkpt lat="49.9182" lon="2.18132">
        <ele>56</ele>
        <time>2022-11-09T15:18:10Z</time>
      </trkpt>
      <trkpt lat="49.91819" lon="2.18133">
        <ele>56</ele>
        <time>2022-11-09T15:18:11Z</time>
      </trkpt>
      <trkpt lat="49.91818" lon="2.18134">
        <ele>56.1</ele>
        <time>2022-11-09T15:18:12Z</time>
      </trkpt>
      <trkpt lat="49.91817" lon="2.18135">
        <ele>56.1</ele>
        <time>2022-11-09T15:18:13Z</time>
      </trkpt>
      <trkpt lat="49.91816" lon="2.18136">
        <ele>56.2</ele>
        <time>2022-11-09T15:18:15Z</time>
      </trkpt>
      <trkpt lat="49.91815" lon="2.18137">
        <ele>56.2</ele>
        <time>2022-11-09T15:18:16Z</time>
      </trkpt>
      <trkpt lat="49.91814" lon="2.18138">
        <ele>56.2</ele>
        <time>2022-11-09T15:18:17Z</time>
      </trkpt>
      <trkpt lat="49.91813" lon="2.1814">
        <ele>56.3</ele>
        <time>2022-11-09T15:18:18Z</time>
      </trkpt>
      <trkpt lat="49.91812" lon="2.18141">
        <ele>56.4</ele>
        <time>2022-11-09T15:18:19Z</time>
      </trkpt>
      <trkpt lat="49.91811" lon="2.18142">
        <ele>56.4</ele>
        <time>2022-11-09T15:18:20Z</time>
      </trkpt>
      <trkpt lat="49.91811" lon="2.18142">
        <ele>56.4</ele>
        <time>2022-11-09T15:18:21Z</time>
      </trkpt>
      <trkpt lat="49.9181" lon="2.18144">
        <ele>56.5</ele>
        <time>2022-11-09T15:18:23Z</time>
      </trkpt>
      <trkpt lat="49.91809" lon="2.18145">
        <ele>56.6</ele>
        <time>2022-11-09T15:18:24Z</time>
      </trkpt>
      <trkpt lat="49.91807" lon="2.18146">
        <ele>56.6</ele>
        <time>2022-11-09T15:18:25Z</time>
      </trkpt>
      <trkpt lat="49.91806" lon="2.18147">
        <ele>56.7</ele>
        <time>2022-11-09T15:18:26Z</time>
      </trkpt>
      <trkpt lat="49.91806" lon="2.18148">
        <ele>56.7</ele>
        <time>2022-11-09T15:18:27Z</time>
      </trkpt>
      <trkpt lat="49.91804" lon="2.18149">
        <ele>56.8</ele>
        <time>2022-11-09T15:18:28Z</time>
      </trkpt>
      <trkpt lat="49.91803" lon="2.18151">
        <ele>56.8</ele>
        <time>2022-11-09T15:18:29Z</time>
      </trkpt>
      <trkpt lat="49.91802" lon="2.18152">
        <ele>56.9</ele>
        <time>2022-11-09T15:18:31Z</time>
      </trkpt>
      <trkpt lat="49.91801" lon="2.18153">
        <ele>57</ele>
        <time>2022-11-09T15:18:32Z</time>
      </trkpt>
      <trkpt lat="49.918" lon="2.18154">
        <ele>57</ele>
        <time>2022-11-09T15:18:33Z</time>
      </trkpt>
      <trkpt lat="49.91799" lon="2.18156">
        <ele>57.1</ele>
        <time>2022-11-09T15:18:34Z</time>
      </trkpt>
      <trkpt lat="49.91798" lon="2.18157">
        <ele>57.1</ele>
        <time>2022-11-09T15:18:35Z</time>
      </trkpt>
      <trkpt lat="49.91797" lon="2.18157">
        <ele>57.2</ele>
        <time>2022-11-09T15:18:36Z</time>
      </trkpt>
      <trkpt lat="49.91795" lon="2.18159">
        <ele>57.3</ele>
        <time>2022-11-09T15:18:37Z</time>
      </trkpt>
      <trkpt lat="49.91795" lon="2.18159">
        <ele>57.3</ele>
        <time>2022-11-09T15:18:39Z</time>
      </trkpt>
      <trkpt lat="49.91794" lon="2.1816">
        <ele>57.4</ele>
        <time>2022-11-09T15:18:40Z</time>
      </trkpt>
      <trkpt lat="49.91793" lon="2.18161">
        <ele>57.4</ele>
        <time>2022-11-09T15:18:41Z</time>
      </trkpt>
      <trkpt lat="49.91792" lon="2.18162">
        <ele>57.5</ele>
        <time>2022-11-09T15:18:42Z</time>
      </trkpt>
      <trkpt lat="49.91791" lon="2.18163">
        <ele>57.6</ele>
        <time>2022-11-09T15:18:43Z</time>
      </trkpt>
      <trkpt lat="49.9179" lon="2.18163">
        <ele>57.6</ele>
        <time>2022-11-09T15:18:45Z</time>
      </trkpt>
      <trkpt lat="49.91789" lon="2.18164">
        <ele>57.7</ele>
        <time>2022-11-09T15:18:46Z</time>
      </trkpt>
      <trkpt lat="49.91788" lon="2.18165">
        <ele>57.7</ele>
        <time>2022-11-09T15:18:47Z</time>
      </trkpt>
      <trkpt lat="49.91787" lon="2.18166">
        <ele>57.8</ele>
        <time>2022-11-09T15:18:48Z</time>
      </trkpt>
      <trkpt lat="49.91786" lon="2.18168">
        <ele>57.9</ele>
        <time>2022-11-09T15:18:50Z</time>
      </trkpt>
      <trkpt lat="49.91785" lon="2.18168">
        <ele>57.9</ele>
        <time>2022-11-09T15:18:51Z</time>
      </trkpt>
      <trkpt lat="49.91785" lon="2.18169">
        <ele>58</ele>
        <time>2022-11-09T15:18:52Z</time>
      </trkpt>
      <trkpt lat="49.91784" lon="2.18169">
        <ele>58</ele>
        <time>2022-11-09T15:18:53Z</time>
      </trkpt>
      <trkpt lat="49.91783" lon="2.1817">
        <ele>58</ele>
        <time>2022-11-09T15:18:54Z</time>
      </trkpt>
      <trkpt lat="49.91783" lon="2.1817">
        <ele>58.1</ele>
        <time>2022-11-09T15:18:55Z</time>
      </trkpt>
      <trkpt lat="49.91782" lon="2.1817">
        <ele>58.1</ele>
        <time>2022-11-09T15:18:57Z</time>
      </trkpt>
      <trkpt lat="49.91781" lon="2.18171">
        <ele>58.2</ele>
        <time>2022-11-09T15:18:58Z</time>
      </trkpt>
      <trkpt lat="49.9178" lon="2.18171">
        <ele>58.3</ele>
        <time>2022-11-09T15:18:59Z</time>
      </trkpt>
      <trkpt lat="49.9178" lon="2.18172">
        <ele>58.3</ele>
        <time>2022-11-09T15:19:01Z</time>
      </trkpt>
      <trkpt lat="49.91779" lon="2.18174">
        <ele>58.4</ele>
        <time>2022-11-09T15:19:02Z</time>
      </trkpt>
      <trkpt lat="49.91779" lon="2.18175">
        <ele>58.4</ele>
        <time>2022-11-09T15:19:04Z</time>
      </trkpt>
      <trkpt lat="49.91778" lon="2.18176">
        <ele>58.5</ele>
        <time>2022-11-09T15:19:05Z</time>
      </trkpt>
      <trkpt lat="49.91778" lon="2.18178">
        <ele>58.6</ele>
        <time>2022-11-09T15:19:06Z</time>
      </trkpt>
      <trkpt lat="49.91777" lon="2.18179">
        <ele>58.7</ele>
        <time>2022-11-09T15:19:08Z</time>
      </trkpt>
      <trkpt lat="49.91777" lon="2.1818">
        <ele>58.7</ele>
        <time>2022-11-09T15:19:09Z</time>
      </trkpt>
      <trkpt lat="49.91777" lon="2.18181">
        <ele>58.8</ele>
        <time>2022-11-09T15:19:10Z</time>
      </trkpt>
      <trkpt lat="49.91776" lon="2.18182">
        <ele>58.8</ele>
        <time>2022-11-09T15:19:11Z</time>
      </trkpt>
      <trkpt lat="49.91776" lon="2.18183">
        <ele>58.9</ele>
        <time>2022-11-09T15:19:12Z</time>
      </trkpt>
      <trkpt lat="49.91776" lon="2.18183">
        <ele>58.9</ele>
        <time>2022-11-09T15:19:13Z</time>
      </trkpt>
      <trkpt lat="49.91775" lon="2.18184">
        <ele>58.9</ele>
        <time>2022-11-09T15:19:14Z</time>
      </trkpt>
      <trkpt lat="49.91775" lon="2.18184">
        <ele>58.9</ele>
        <time>2022-11-09T15:19:15Z</time>
      </trkpt>
      <trkpt lat="49.91775" lon="2.18185">
        <ele>59</ele>
        <time>2022-11-09T15:19:17Z</time>
      </trkpt>
      <trkpt lat="49.91775" lon="2.18185">
        <ele>59</ele>
        <time>2022-11-09T15:19:18Z</time>
      </trkpt>
      <trkpt lat="49.91775" lon="2.18185">
        <ele>59</ele>
        <time>2022-11-09T15:19:19Z</time>
      </trkpt>
      <trkpt lat="49.91774" lon="2.18187">
        <ele>59.1</ele>
        <time>2022-11-09T15:19:21Z</time>
      </trkpt>
      <trkpt lat="49.91774" lon="2.18187">
        <ele>59.1</ele>
        <time>2022-11-09T15:19:22Z</time>
      </trkpt>
      <trkpt lat="49.91774" lon="2.18188">
        <ele>59.1</ele>
        <time>2022-11-09T15:19:23Z</time>
      </trkpt>
      <trkpt lat="49.91774" lon="2.18188">
        <ele>59.1</ele>
        <time>2022-11-09T15:19:24Z</time>
      </trkpt>
      <trkpt lat="49.91773" lon="2.18189">
        <ele>59.2</ele>
        <time>2022-11-09T15:19:25Z</time>
      </trkpt>
      <trkpt lat="49.91773" lon="2.1819">
        <ele>59.2</ele>
        <time>2022-11-09T15:19:26Z</time>
      </trkpt>
      <trkpt lat="49.91773" lon="2.18191">
        <ele>59.2</ele>
        <time>2022-11-09T15:19:27Z</time>
      </trkpt>
      <trkpt lat="49.91773" lon="2.18192">
        <ele>59.3</ele>
        <time>2022-11-09T15:19:28Z</time>
      </trkpt>
      <trkpt lat="49.91772" lon="2.18193">
        <ele>59.3</ele>
        <time>2022-11-09T15:19:30Z</time>
      </trkpt>
      <trkpt lat="49.91772" lon="2.18193">
        <ele>59.3</ele>
        <time>2022-11-09T15:19:31Z</time>
      </trkpt>
      <trkpt lat="49.91772" lon="2.18193">
        <ele>59.3</ele>
        <time>2022-11-09T15:19:32Z</time>
      </trkpt>
      <trkpt lat="49.91772" lon="2.18193">
        <ele>59.3</ele>
        <time>2022-11-09T15:19:33Z</time>
      </trkpt>
      <trkpt lat="49.91772" lon="2.18193">
        <ele>59.4</ele>
        <time>2022-11-09T15:19:34Z</time>
      </trkpt>
      <trkpt lat="49.91772" lon="2.18192">
        <ele>59.4</ele>
        <time>2022-11-09T15:19:35Z</time>
      </trkpt>
      <trkpt lat="49.91772" lon="2.18192">
        <ele>59.4</ele>
        <time>2022-11-09T15:19:36Z</time>
      </trkpt>
      <trkpt lat="49.91772" lon="2.18191">
        <ele>59.4</ele>
        <time>2022-11-09T15:19:37Z</time>
      </trkpt>
      <trkpt lat="49.91772" lon="2.18191">
        <ele>59.4</ele>
        <time>2022-11-09T15:19:38Z</time>
      </trkpt>
      <trkpt lat="49.91772" lon="2.18191">
        <ele>59.4</ele>
        <time>2022-11-09T15:19:39Z</time>
      </trkpt>
      <trkpt lat="49.91772" lon="2.18191">
        <ele>59.4</ele>
        <time>2022-11-09T15:19:40Z</time>
      </trkpt>
      <trkpt lat="49.91773" lon="2.18191">
        <ele>59.4</ele>
        <time>2022-11-09T15:19:41Z</time>
      </trkpt>
      <trkpt lat="49.91773" lon="2.1819">
        <ele>59.4</ele>
        <time>2022-11-09T15:19:42Z</time>
      </trkpt>
      <trkpt lat="49.91773" lon="2.1819">
        <ele>59.4</ele>
        <time>2022-11-09T15:19:43Z</time>
      </trkpt>
      <trkpt lat="49.91773" lon="2.1819">
        <ele>59.4</ele>
        <time>2022-11-09T15:19:44Z</time>
      </trkpt>
      <trkpt lat="49.91773" lon="2.1819">
        <ele>59.4</ele>
        <time>2022-11-09T15:19:45Z</time>
      </trkpt>
      <trkpt lat="49.91773" lon="2.1819">
        <ele>59.5</ele>
        <time>2022-11-09T15:19:46Z</time>
      </trkpt>
      <trkpt lat="49.91773" lon="2.1819">
        <ele>59.5</ele>
        <time>2022-11-09T15:19:47Z</time>
      </trkpt>
      <trkpt lat="49.91773" lon="2.1819">
        <ele>59.5</ele>
        <time>2022-11-09T15:19:48Z</time>
      </trkpt>
      <trkpt lat="49.91774" lon="2.1819">
        <ele>59.5</ele>
        <time>2022-11-09T15:19:49Z</time>
      </trkpt>
      <trkpt lat="49.91774" lon="2.18189">
        <ele>59.5</ele>
        <time>2022-11-09T15:19:50Z</time>
      </trkpt>
      <trkpt lat="49.91774" lon="2.18189">
        <ele>59.5</ele>
        <time>2022-11-09T15:19:51Z</time>
      </trkpt>
      <trkpt lat="49.91774" lon="2.18189">
        <ele>59.5</ele>
        <time>2022-11-09T15:19:52Z</time>
      </trkpt>
      <trkpt lat="49.91774" lon="2.18189">
        <ele>59.5</ele>
        <time>2022-11-09T15:19:53Z</time>
      </trkpt>
      <trkpt lat="49.91774" lon="2.18189">
        <ele>59.5</ele>
        <time>2022-11-09T15:19:54Z</time>
      </trkpt>
      <trkpt lat="49.91774" lon="2.18189">
        <ele>59.5</ele>
        <time>2022-11-09T15:19:55Z</time>
      </trkpt>
      <trkpt lat="49.91774" lon="2.18189">
        <ele>59.5</ele>
        <time>2022-11-09T15:19:56Z</time>
      </trkpt>
      <trkpt lat="49.91774" lon="2.18189">
        <ele>59.5</ele>
        <time>2022-11-09T15:19:57Z</time>
      </trkpt>
      <trkpt lat="49.91774" lon="2.18189">
        <ele>59.5</ele>
        <time>2022-11-09T15:19:58Z</time>
      </trkpt>
      <trkpt lat="49.91774" lon="2.18189">
        <ele>59.5</ele>
        <time>2022-11-09T15:19:59Z</time>
      </trkpt>
      <trkpt lat="49.91774" lon="2.18189">
        <ele>59.5</ele>
        <time>2022-11-09T15:20:00Z</time>
      </trkpt>
      <trkpt lat="49.91774" lon="2.18189">
        <ele>59.5</ele>
        <time>2022-11-09T15:20:01Z</time>
      </trkpt>
      <trkpt lat="49.91774" lon="2.18189">
        <ele>59.5</ele>
        <time>2022-11-09T15:20:02Z</time>
      </trkpt>
      <trkpt lat="49.91774" lon="2.18189">
        <ele>59.5</ele>
        <time>2022-11-09T15:20:03Z</time>
      </trkpt>
      <trkpt lat="49.91774" lon="2.18189">
        <ele>59.5</ele>
        <time>2022-11-09T15:20:04Z</time>
      </trkpt>
      <trkpt lat="49.91774" lon="2.18189">
        <ele>59.5</ele>
        <time>2022-11-09T15:20:05Z</time>
      </trkpt>
      <trkpt lat="49.91774" lon="2.18189">
        <ele>59.5</ele>
        <time>2022-11-09T15:20:06Z</time>
      </trkpt>
      <trkpt lat="49.91774" lon="2.18189">
        <ele>59.5</ele>
        <time>2022-11-09T15:20:07Z</time>
      </trkpt>
      <trkpt lat="49.91774" lon="2.18189">
        <ele>59.5</ele>
        <time>2022-11-09T15:20:08Z</time>
      </trkpt>
      <trkpt lat="49.91774" lon="2.18189">
        <ele>59.5</ele>
        <time>2022-11-09T15:20:09Z</time>
      </trkpt>
      <trkpt lat="49.91774" lon="2.18189">
        <ele>59.5</ele>
        <time>2022-11-09T15:20:10Z</time>
      </trkpt>
      <trkpt lat="49.91774" lon="2.18189">
        <ele>59.5</ele>
        <time>2022-11-09T15:20:11Z</time>
      </trkpt>
      <trkpt lat="49.91774" lon="2.18189">
        <ele>59.5</ele>
        <time>2022-11-09T15:20:12Z</time>
      </trkpt>
      <trkpt lat="49.91774" lon="2.18189">
        <ele>59.5</ele>
        <time>2022-11-09T15:20:13Z</time>
      </trkpt>
      <trkpt lat="49.91774" lon="2.18189">
        <ele>59.5</ele>
        <time>2022-11-09T15:20:14Z</time>
      </trkpt>
      <trkpt lat="49.91774" lon="2.18189">
        <ele>59.5</ele>
        <time>2022-11-09T15:20:15Z</time>
      </trkpt>
      <trkpt lat="49.91774" lon="2.18189">
        <ele>59.5</ele>
        <time>2022-11-09T15:20:16Z</time>
      </trkpt>
      <trkpt lat="49.91774" lon="2.18189">
        <ele>59.5</ele>
        <time>2022-11-09T15:20:17Z</time>
      </trkpt>
      <trkpt lat="49.91774" lon="2.18189">
        <ele>59.5</ele>
        <time>2022-11-09T15:20:18Z</time>
      </trkpt>
      <trkpt lat="49.91774" lon="2.18189">
        <ele>59.5</ele>
        <time>2022-11-09T15:20:19Z</time>
      </trkpt>
      <trkpt lat="49.91774" lon="2.18189">
        <ele>59.5</ele>
        <time>2022-11-09T15:20:20Z</time>
      </trkpt>
      <trkpt lat="49.91774" lon="2.18189">
        <ele>59.5</ele>
        <time>2022-11-09T15:20:21Z</time>
      </trkpt>
      <trkpt lat="49.91774" lon="2.18189">
        <ele>59.5</ele>
        <time>2022-11-09T15:20:22Z</time>
      </trkpt>
      <trkpt lat="49.91774" lon="2.18189">
        <ele>59.5</ele>
        <time>2022-11-09T15:20:23Z</time>
      </trkpt>
      <trkpt lat="49.91774" lon="2.18189">
        <ele>59.5</ele>
        <time>2022-11-09T15:20:24Z</time>
      </trkpt>
      <trkpt lat="49.91774" lon="2.18189">
        <ele>59.5</ele>
        <time>2022-11-09T15:20:25Z</time>
      </trkpt>
      <trkpt lat="49.91774" lon="2.18189">
        <ele>59.5</ele>
        <time>2022-11-09T15:20:26Z</time>
      </trkpt>
      <trkpt lat="49.91774" lon="2.18189">
        <ele>59.5</ele>
        <time>2022-11-09T15:20:27Z</time>
      </trkpt>
      <trkpt lat="49.91774" lon="2.18189">
        <ele>59.5</ele>
        <time>2022-11-09T15:20:28Z</time>
      </trkpt>
      <trkpt lat="49.91774" lon="2.18189">
        <ele>59.5</ele>
        <time>2022-11-09T15:20:29Z</time>
      </trkpt>
      <trkpt lat="49.91774" lon="2.18189">
        <ele>59.5</ele>
        <time>2022-11-09T15:20:30Z</time>
      </trkpt>
      <trkpt lat="49.91774" lon="2.18189">
        <ele>59.5</ele>
        <time>2022-11-09T15:20:31Z</time>
      </trkpt>
      <trkpt lat="49.91774" lon="2.18189">
        <ele>59.5</ele>
        <time>2022-11-09T15:20:32Z</time>
      </trkpt>
      <trkpt lat="49.91774" lon="2.18189">
        <ele>59.5</ele>
        <time>2022-11-09T15:20:33Z</time>
      </trkpt>
      <trkpt lat="49.91774" lon="2.18189">
        <ele>59.5</ele>
        <time>2022-11-09T15:20:34Z</time>
      </trkpt>
      <trkpt lat="49.91774" lon="2.18189">
        <ele>59.5</ele>
        <time>2022-11-09T15:20:35Z</time>
      </trkpt>
      <trkpt lat="49.91774" lon="2.18189">
        <ele>59.5</ele>
        <time>2022-11-09T15:20:36Z</time>
      </trkpt>
      <trkpt lat="49.91774" lon="2.18189">
        <ele>59.5</ele>
        <time>2022-11-09T15:20:37Z</time>
      </trkpt>
      <trkpt lat="49.91774" lon="2.18189">
        <ele>59.5</ele>
        <time>2022-11-09T15:20:38Z</time>
      </trkpt>
      <trkpt lat="49.91774" lon="2.18189">
        <ele>59.5</ele>
        <time>2022-11-09T15:20:39Z</time>
      </trkpt>
      <trkpt lat="49.91774" lon="2.18189">
        <ele>59.5</ele>
        <time>2022-11-09T15:20:40Z</time>
      </trkpt>
      <trkpt lat="49.91774" lon="2.18189">
        <ele>59.5</ele>
        <time>2022-11-09T15:20:41Z</time>
      </trkpt>
      <trkpt lat="49.91774" lon="2.18189">
        <ele>59.5</ele>
        <time>2022-11-09T15:20:42Z</time>
      </trkpt>
      <trkpt lat="49.91774" lon="2.18189">
        <ele>59.5</ele>
        <time>2022-11-09T15:20:43Z</time>
      </trkpt>
      <trkpt lat="49.91774" lon="2.18189">
        <ele>59.5</ele>
        <time>2022-11-09T15:20:44Z</time>
      </trkpt>
      <trkpt lat="49.91774" lon="2.18189">
        <ele>59.5</ele>
        <time>2022-11-09T15:20:45Z</time>
      </trkpt>
      <trkpt lat="49.91774" lon="2.18189">
        <ele>59.5</ele>
        <time>2022-11-09T15:20:46Z</time>
      </trkpt>
      <trkpt lat="49.91774" lon="2.18189">
        <ele>59.5</ele>
        <time>2022-11-09T15:20:47Z</time>
      </trkpt>
      <trkpt lat="49.91774" lon="2.18189">
        <ele>59.5</ele>
        <time>2022-11-09T15:20:48Z</time>
      </trkpt>
      <trkpt lat="49.91774" lon="2.18189">
        <ele>59.5</ele>
        <time>2022-11-09T15:20:49Z</time>
      </trkpt>
      <trkpt lat="49.91774" lon="2.18189">
        <ele>59.5</ele>
        <time>2022-11-09T15:20:50Z</time>
      </trkpt>
      <trkpt lat="49.91774" lon="2.18189">
        <ele>59.5</ele>
        <time>2022-11-09T15:20:51Z</time>
      </trkpt>
      <trkpt lat="49.91774" lon="2.18189">
        <ele>59.5</ele>
        <time>2022-11-09T15:20:52Z</time>
      </trkpt>
      <trkpt lat="49.91774" lon="2.18189">
        <ele>59.5</ele>
        <time>2022-11-09T15:20:53Z</time>
      </trkpt>
      <trkpt lat="49.91774" lon="2.18189">
        <ele>59.5</ele>
        <time>2022-11-09T15:20:54Z</time>
      </trkpt>
      <trkpt lat="49.91774" lon="2.18189">
        <ele>59.5</ele>
        <time>2022-11-09T15:20:55Z</time>
      </trkpt>
      <trkpt lat="49.91774" lon="2.18189">
        <ele>59.5</ele>
        <time>2022-11-09T15:20:56Z</time>
      </trkpt>
      <trkpt lat="49.91774" lon="2.18189">
        <ele>59.5</ele>
        <time>2022-11-09T15:20:57Z</time>
      </trkpt>
      <trkpt lat="49.91774" lon="2.18189">
        <ele>59.5</ele>
        <time>2022-11-09T15:20:58Z</time>
      </trkpt>
      <trkpt lat="49.91774" lon="2.18189">
        <ele>59.5</ele>
        <time>2022-11-09T15:20:59Z</time>
      </trkpt>
      <trkpt lat="49.91774" lon="2.18189">
        <ele>59.5</ele>
        <time>2022-11-09T15:21:00Z</time>
      </trkpt>
      <trkpt lat="49.91774" lon="2.18189">
        <ele>59.5</ele>
        <time>2022-11-09T15:21:01Z</time>
      </trkpt>
      <trkpt lat="49.91774" lon="2.18189">
        <ele>59.5</ele>
        <time>2022-11-09T15:21:02Z</time>
      </trkpt>
      <trkpt lat="49.91774" lon="2.18189">
        <ele>59.5</ele>
        <time>2022-11-09T15:21:03Z</time>
      </trkpt>
      <trkpt lat="49.91774" lon="2.18189">
        <ele>59.5</ele>
        <time>2022-11-09T15:21:04Z</time>
      </trkpt>
      <trkpt lat="49.91774" lon="2.18189">
        <ele>59.5</ele>
        <time>2022-11-09T15:21:05Z</time>
      </trkpt>
      <trkpt lat="49.91774" lon="2.18189">
        <ele>59.5</ele>
        <time>2022-11-09T15:21:06Z</time>
      </trkpt>
      <trkpt lat="49.91774" lon="2.18189">
        <ele>59.5</ele>
        <time>2022-11-09T15:21:07Z</time>
      </trkpt>
      <trkpt lat="49.91774" lon="2.18189">
        <ele>59.5</ele>
        <time>2022-11-09T15:21:08Z</time>
      </trkpt>
      <trkpt lat="49.91774" lon="2.18189">
        <ele>59.5</ele>
        <time>2022-11-09T15:21:09Z</time>
      </trkpt>
      <trkpt lat="49.91774" lon="2.18189">
        <ele>59.5</ele>
        <time>2022-11-09T15:21:10Z</time>
      </trkpt>
      <trkpt lat="49.91774" lon="2.18189">
        <ele>59.5</ele>
        <time>2022-11-09T15:21:11Z</time>
      </trkpt>
      <trkpt lat="49.91774" lon="2.18189">
        <ele>59.5</ele>
        <time>2022-11-09T15:21:12Z</time>
      </trkpt>
      <trkpt lat="49.91774" lon="2.18189">
        <ele>59.5</ele>
        <time>2022-11-09T15:21:13Z</time>
      </trkpt>
      <trkpt lat="49.91774" lon="2.18189">
        <ele>59.5</ele>
        <time>2022-11-09T15:21:14Z</time>
      </trkpt>
      <trkpt lat="49.91774" lon="2.18189">
        <ele>59.5</ele>
        <time>2022-11-09T15:21:15Z</time>
      </trkpt>
      <trkpt lat="49.91774" lon="2.18189">
        <ele>59.5</ele>
        <time>2022-11-09T15:21:16Z</time>
      </trkpt>
      <trkpt lat="49.91774" lon="2.18189">
        <ele>59.5</ele>
        <time>2022-11-09T15:21:17Z</time>
      </trkpt>
      <trkpt lat="49.91774" lon="2.18189">
        <ele>59.5</ele>
        <time>2022-11-09T15:21:18Z</time>
      </trkpt>
      <trkpt lat="49.91774" lon="2.18189">
        <ele>59.5</ele>
        <time>2022-11-09T15:21:19Z</time>
      </trkpt>
      <trkpt lat="49.91774" lon="2.18189">
        <ele>59.5</ele>
        <time>2022-11-09T15:21:20Z</time>
      </trkpt>
      <trkpt lat="49.91774" lon="2.18189">
        <ele>59.5</ele>
        <time>2022-11-09T15:21:21Z</time>
      </trkpt>
      <trkpt lat="49.91774" lon="2.18189">
        <ele>59.5</ele>
        <time>2022-11-09T15:21:22Z</time>
      </trkpt>
      <trkpt lat="49.91774" lon="2.18189">
        <ele>59.5</ele>
        <time>2022-11-09T15:21:23Z</time>
      </trkpt>
      <trkpt lat="49.91774" lon="2.18189">
        <ele>59.5</ele>
        <time>2022-11-09T15:21:24Z</time>
      </trkpt>
      <trkpt lat="49.91774" lon="2.18189">
        <ele>59.5</ele>
        <time>2022-11-09T15:21:25Z</time>
      </trkpt>
      <trkpt lat="49.91774" lon="2.18189">
        <ele>59.5</ele>
        <time>2022-11-09T15:21:26Z</time>
      </trkpt>
      <trkpt lat="49.91774" lon="2.18189">
        <ele>59.5</ele>
        <time>2022-11-09T15:21:27Z</time>
      </trkpt>
      <trkpt lat="49.91774" lon="2.18189">
        <ele>59.5</ele>
        <time>2022-11-09T15:21:28Z</time>
      </trkpt>
      <trkpt lat="49.91774" lon="2.18189">
        <ele>59.5</ele>
        <time>2022-11-09T15:21:29Z</time>
      </trkpt>
      <trkpt lat="49.91774" lon="2.18189">
        <ele>59.5</ele>
        <time>2022-11-09T15:21:30Z</time>
      </trkpt>
      <trkpt lat="49.91774" lon="2.18189">
        <ele>59.5</ele>
        <time>2022-11-09T15:21:31Z</time>
      </trkpt>
      <trkpt lat="49.91774" lon="2.18189">
        <ele>59.5</ele>
        <time>2022-11-09T15:21:32Z</time>
      </trkpt>
      <trkpt lat="49.91774" lon="2.18189">
        <ele>59.5</ele>
        <time>2022-11-09T15:21:33Z</time>
      </trkpt>
      <trkpt lat="49.91774" lon="2.18189">
        <ele>59.5</ele>
        <time>2022-11-09T15:21:34Z</time>
      </trkpt>
      <trkpt lat="49.91774" lon="2.18189">
        <ele>59.5</ele>
        <time>2022-11-09T15:21:35Z</time>
      </trkpt>
      <trkpt lat="49.91774" lon="2.18189">
        <ele>59.5</ele>
        <time>2022-11-09T15:21:36Z</time>
      </trkpt>
      <trkpt lat="49.91774" lon="2.18189">
        <ele>59.5</ele>
        <time>2022-11-09T15:21:37Z</time>
      </trkpt>
      <trkpt lat="49.91774" lon="2.18189">
        <ele>59.5</ele>
        <time>2022-11-09T15:21:38Z</time>
      </trkpt>
      <trkpt lat="49.91774" lon="2.18189">
        <ele>59.5</ele>
        <time>2022-11-09T15:21:39Z</time>
      </trkpt>
      <trkpt lat="49.91774" lon="2.18189">
        <ele>59.5</ele>
        <time>2022-11-09T15:21:40Z</time>
      </trkpt>
      <trkpt lat="49.91774" lon="2.18189">
        <ele>59.5</ele>
        <time>2022-11-09T15:21:41Z</time>
      </trkpt>
      <trkpt lat="49.91774" lon="2.18189">
        <ele>59.5</ele>
        <time>2022-11-09T15:21:42Z</time>
      </trkpt>
      <trkpt lat="49.91774" lon="2.18189">
        <ele>59.5</ele>
        <time>2022-11-09T15:21:43Z</time>
      </trkpt>
      <trkpt lat="49.91774" lon="2.18189">
        <ele>59.5</ele>
        <time>2022-11-09T15:21:44Z</time>
      </trkpt>
      <trkpt lat="49.91774" lon="2.18189">
        <ele>59.5</ele>
        <time>2022-11-09T15:21:45Z</time>
      </trkpt>
      <trkpt lat="49.91774" lon="2.18189">
        <ele>59.5</ele>
        <time>2022-11-09T15:21:46Z</time>
      </trkpt>
      <trkpt lat="49.91774" lon="2.18189">
        <ele>59.5</ele>
        <time>2022-11-09T15:21:47Z</time>
      </trkpt>
      <trkpt lat="49.91774" lon="2.18189">
        <ele>59.5</ele>
        <time>2022-11-09T15:21:48Z</time>
      </trkpt>
      <trkpt lat="49.91774" lon="2.18189">
        <ele>59.5</ele>
        <time>2022-11-09T15:21:49Z</time>
      </trkpt>
      <trkpt lat="49.91774" lon="2.18189">
        <ele>59.5</ele>
        <time>2022-11-09T15:21:50Z</time>
      </trkpt>
      <trkpt lat="49.91774" lon="2.18189">
        <ele>59.5</ele>
        <time>2022-11-09T15:21:51Z</time>
      </trkpt>
      <trkpt lat="49.91774" lon="2.18189">
        <ele>59.5</ele>
        <time>2022-11-09T15:21:52Z</time>
      </trkpt>
      <trkpt lat="49.91774" lon="2.18189">
        <ele>59.5</ele>
        <time>2022-11-09T15:21:53Z</time>
      </trkpt>
      <trkpt lat="49.91774" lon="2.18189">
        <ele>59.5</ele>
        <time>2022-11-09T15:21:54Z</time>
      </trkpt>
      <trkpt lat="49.91774" lon="2.18189">
        <ele>59.5</ele>
        <time>2022-11-09T15:21:55Z</time>
      </trkpt>
      <trkpt lat="49.91774" lon="2.18189">
        <ele>59.5</ele>
        <time>2022-11-09T15:21:56Z</time>
      </trkpt>
      <trkpt lat="49.91774" lon="2.18189">
        <ele>59.5</ele>
        <time>2022-11-09T15:21:57Z</time>
      </trkpt>
      <trkpt lat="49.91774" lon="2.18189">
        <ele>59.5</ele>
        <time>2022-11-09T15:21:58Z</time>
      </trkpt>
      <trkpt lat="49.91774" lon="2.18189">
        <ele>59.5</ele>
        <time>2022-11-09T15:21:59Z</time>
      </trkpt>
      <trkpt lat="49.91774" lon="2.18189">
        <ele>59.5</ele>
        <time>2022-11-09T15:22:00Z</time>
      </trkpt>
      <trkpt lat="49.91774" lon="2.18189">
        <ele>59.5</ele>
        <time>2022-11-09T15:22:01Z</time>
      </trkpt>
      <trkpt lat="49.91774" lon="2.18189">
        <ele>59.5</ele>
        <time>2022-11-09T15:22:02Z</time>
      </trkpt>
      <trkpt lat="49.91774" lon="2.18189">
        <ele>59.5</ele>
        <time>2022-11-09T15:22:03Z</time>
      </trkpt>
      <trkpt lat="49.91774" lon="2.18189">
        <ele>59.5</ele>
        <time>2022-11-09T15:22:04Z</time>
      </trkpt>
      <trkpt lat="49.91774" lon="2.18189">
        <ele>59.5</ele>
        <time>2022-11-09T15:22:05Z</time>
      </trkpt>
      <trkpt lat="49.91774" lon="2.18189">
        <ele>59.5</ele>
        <time>2022-11-09T15:22:06Z</time>
      </trkpt>
      <trkpt lat="49.91774" lon="2.18189">
        <ele>59.5</ele>
        <time>2022-11-09T15:22:07Z</time>
      </trkpt>
      <trkpt lat="49.91774" lon="2.18189">
        <ele>59.5</ele>
        <time>2022-11-09T15:22:08Z</time>
      </trkpt>
      <trkpt lat="49.91774" lon="2.18189">
        <ele>59.5</ele>
        <time>2022-11-09T15:22:09Z</time>
      </trkpt>
      <trkpt lat="49.91774" lon="2.18189">
        <ele>59.5</ele>
        <time>2022-11-09T15:22:10Z</time>
      </trkpt>
      <trkpt lat="49.91774" lon="2.18189">
        <ele>59.5</ele>
        <time>2022-11-09T15:22:11Z</time>
      </trkpt>
      <trkpt lat="49.91774" lon="2.18189">
        <ele>59.5</ele>
        <time>2022-11-09T15:22:12Z</time>
      </trkpt>
      <trkpt lat="49.91774" lon="2.18189">
        <ele>59.5</ele>
        <time>2022-11-09T15:22:13Z</time>
      </trkpt>
      <trkpt lat="49.91774" lon="2.18189">
        <ele>59.5</ele>
        <time>2022-11-09T15:22:14Z</time>
      </trkpt>
      <trkpt lat="49.91774" lon="2.18189">
        <ele>59.5</ele>
        <time>2022-11-09T15:22:15Z</time>
      </trkpt>
      <trkpt lat="49.91774" lon="2.18189">
        <ele>59.5</ele>
        <time>2022-11-09T15:22:16Z</time>
      </trkpt>
      <trkpt lat="49.91774" lon="2.18189">
        <ele>59.5</ele>
        <time>2022-11-09T15:22:17Z</time>
      </trkpt>
      <trkpt lat="49.91774" lon="2.18189">
        <ele>59.5</ele>
        <time>2022-11-09T15:22:18Z</time>
      </trkpt>
      <trkpt lat="49.91774" lon="2.18189">
        <ele>59.5</ele>
        <time>2022-11-09T15:22:19Z</time>
      </trkpt>
      <trkpt lat="49.91774" lon="2.18189">
        <ele>59.5</ele>
        <time>2022-11-09T15:22:20Z</time>
      </trkpt>
      <trkpt lat="49.91774" lon="2.18189">
        <ele>59.5</ele>
        <time>2022-11-09T15:22:21Z</time>
      </trkpt>
      <trkpt lat="49.91774" lon="2.18189">
        <ele>59.5</ele>
        <time>2022-11-09T15:22:22Z</time>
      </trkpt>
      <trkpt lat="49.91775" lon="2.18188">
        <ele>59.6</ele>
        <time>2022-11-09T15:22:23Z</time>
      </trkpt>
      <trkpt lat="49.91775" lon="2.18186">
        <ele>59.6</ele>
        <time>2022-11-09T15:22:24Z</time>
      </trkpt>
      <trkpt lat="49.91775" lon="2.18186">
        <ele>59.7</ele>
        <time>2022-11-09T15:22:25Z</time>
      </trkpt>
      <trkpt lat="49.91774" lon="2.18186">
        <ele>59.7</ele>
        <time>2022-11-09T15:22:26Z</time>
      </trkpt>
      <trkpt lat="49.91774" lon="2.18185">
        <ele>59.7</ele>
        <time>2022-11-09T15:22:27Z</time>
      </trkpt>
      <trkpt lat="49.91773" lon="2.18185">
        <ele>59.8</ele>
        <time>2022-11-09T15:22:28Z</time>
      </trkpt>
      <trkpt lat="49.91773" lon="2.18185">
        <ele>59.8</ele>
        <time>2022-11-09T15:22:29Z</time>
      </trkpt>
      <trkpt lat="49.91772" lon="2.18185">
        <ele>59.8</ele>
        <time>2022-11-09T15:22:30Z</time>
      </trkpt>
      <trkpt lat="49.91771" lon="2.18185">
        <ele>59.9</ele>
        <time>2022-11-09T15:22:31Z</time>
      </trkpt>
      <trkpt lat="49.9177" lon="2.18186">
        <ele>59.9</ele>
        <time>2022-11-09T15:22:32Z</time>
      </trkpt>
      <trkpt lat="49.91769" lon="2.18188">
        <ele>60</ele>
        <time>2022-11-09T15:22:33Z</time>
      </trkpt>
      <trkpt lat="49.91768" lon="2.18189">
        <ele>60.1</ele>
        <time>2022-11-09T15:22:35Z</time>
      </trkpt>
      <trkpt lat="49.91767" lon="2.1819">
        <ele>60.1</ele>
        <time>2022-11-09T15:22:36Z</time>
      </trkpt>
      <trkpt lat="49.91767" lon="2.18192">
        <ele>60.2</ele>
        <time>2022-11-09T15:22:37Z</time>
      </trkpt>
      <trkpt lat="49.91766" lon="2.18194">
        <ele>60.3</ele>
        <time>2022-11-09T15:22:38Z</time>
      </trkpt>
      <trkpt lat="49.91765" lon="2.18196">
        <ele>60.4</ele>
        <time>2022-11-09T15:22:40Z</time>
      </trkpt>
      <trkpt lat="49.91765" lon="2.18197">
        <ele>60.4</ele>
        <time>2022-11-09T15:22:41Z</time>
      </trkpt>
      <trkpt lat="49.91764" lon="2.18201">
        <ele>60.6</ele>
        <time>2022-11-09T15:22:42Z</time>
      </trkpt>
      <trkpt lat="49.91764" lon="2.18203">
        <ele>60.6</ele>
        <time>2022-11-09T15:22:43Z</time>
      </trkpt>
      <trkpt lat="49.91764" lon="2.18205">
        <ele>60.7</ele>
        <time>2022-11-09T15:22:45Z</time>
      </trkpt>
      <trkpt lat="49.91764" lon="2.18207">
        <ele>60.8</ele>
        <time>2022-11-09T15:22:46Z</time>
      </trkpt>
      <trkpt lat="49.91764" lon="2.18212">
        <ele>61</ele>
        <time>2022-11-09T15:22:47Z</time>
      </trkpt>
      <trkpt lat="49.91763" lon="2.18213">
        <ele>61</ele>
        <time>2022-11-09T15:22:48Z</time>
      </trkpt>
      <trkpt lat="49.91763" lon="2.18216">
        <ele>61.1</ele>
        <time>2022-11-09T15:22:50Z</time>
      </trkpt>
      <trkpt lat="49.91763" lon="2.18218">
        <ele>61.2</ele>
        <time>2022-11-09T15:22:51Z</time>
      </trkpt>
      <trkpt lat="49.91763" lon="2.18222">
        <ele>61.3</ele>
        <time>2022-11-09T15:22:52Z</time>
      </trkpt>
      <trkpt lat="49.91762" lon="2.18223">
        <ele>61.3</ele>
        <time>2022-11-09T15:22:53Z</time>
      </trkpt>
      <trkpt lat="49.91762" lon="2.18225">
        <ele>61.4</ele>
        <time>2022-11-09T15:22:54Z</time>
      </trkpt>
      <trkpt lat="49.91761" lon="2.18228">
        <ele>61.5</ele>
        <time>2022-11-09T15:22:55Z</time>
      </trkpt>
      <trkpt lat="49.91761" lon="2.1823">
        <ele>61.6</ele>
        <time>2022-11-09T15:22:57Z</time>
      </trkpt>
      <trkpt lat="49.9176" lon="2.18231">
        <ele>61.6</ele>
        <time>2022-11-09T15:22:58Z</time>
      </trkpt>
      <trkpt lat="49.9176" lon="2.18233">
        <ele>61.7</ele>
        <time>2022-11-09T15:22:59Z</time>
      </trkpt>
      <trkpt lat="49.91759" lon="2.18234">
        <ele>61.7</ele>
        <time>2022-11-09T15:23:00Z</time>
      </trkpt>
      <trkpt lat="49.91759" lon="2.18238">
        <ele>61.9</ele>
        <time>2022-11-09T15:23:01Z</time>
      </trkpt>
      <trkpt lat="49.91758" lon="2.18239">
        <ele>61.9</ele>
        <time>2022-11-09T15:23:03Z</time>
      </trkpt>
      <trkpt lat="49.91758" lon="2.1824">
        <ele>62</ele>
        <time>2022-11-09T15:23:04Z</time>
      </trkpt>
      <trkpt lat="49.91757" lon="2.18243">
        <ele>62.1</ele>
        <time>2022-11-09T15:23:05Z</time>
      </trkpt>
      <trkpt lat="49.91756" lon="2.18245">
        <ele>62.2</ele>
        <time>2022-11-09T15:23:06Z</time>
      </trkpt>
      <trkpt lat="49.91756" lon="2.18246">
        <ele>62.2</ele>
        <time>2022-11-09T15:23:08Z</time>
      </trkpt>
      <trkpt lat="49.91756" lon="2.18248">
        <ele>62.3</ele>
        <time>2022-11-09T15:23:09Z</time>
      </trkpt>
      <trkpt lat="49.91755" lon="2.1825">
        <ele>62.4</ele>
        <time>2022-11-09T15:23:10Z</time>
      </trkpt>
      <trkpt lat="49.91755" lon="2.18251">
        <ele>62.4</ele>
        <time>2022-11-09T15:23:11Z</time>
      </trkpt>
      <trkpt lat="49.91755" lon="2.18252">
        <ele>62.5</ele>
        <time>2022-11-09T15:23:12Z</time>
      </trkpt>
      <trkpt lat="49.91754" lon="2.18254">
        <ele>62.5</ele>
        <time>2022-11-09T15:23:13Z</time>
      </trkpt>
      <trkpt lat="49.91754" lon="2.18255">
        <ele>62.6</ele>
        <time>2022-11-09T15:23:14Z</time>
      </trkpt>
      <trkpt lat="49.91754" lon="2.18257">
        <ele>62.7</ele>
        <time>2022-11-09T15:23:15Z</time>
      </trkpt>
      <trkpt lat="49.91753" lon="2.18259">
        <ele>62.8</ele>
        <time>2022-11-09T15:23:16Z</time>
      </trkpt>
      <trkpt lat="49.91753" lon="2.18261">
        <ele>62.9</ele>
        <time>2022-11-09T15:23:17Z</time>
      </trkpt>
      <trkpt lat="49.91753" lon="2.18263">
        <ele>63</ele>
        <time>2022-11-09T15:23:18Z</time>
      </trkpt>
      <trkpt lat="49.91752" lon="2.18264">
        <ele>63.1</ele>
        <time>2022-11-09T15:23:20Z</time>
      </trkpt>
      <trkpt lat="49.91752" lon="2.18266">
        <ele>63.1</ele>
        <time>2022-11-09T15:23:21Z</time>
      </trkpt>
      <trkpt lat="49.91751" lon="2.18269">
        <ele>63.2</ele>
        <time>2022-11-09T15:23:22Z</time>
      </trkpt>
      <trkpt lat="49.91751" lon="2.1827">
        <ele>63.3</ele>
        <time>2022-11-09T15:23:23Z</time>
      </trkpt>
      <trkpt lat="49.9175" lon="2.18272">
        <ele>63.4</ele>
        <time>2022-11-09T15:23:24Z</time>
      </trkpt>
      <trkpt lat="49.9175" lon="2.18274">
        <ele>63.5</ele>
        <time>2022-11-09T15:23:26Z</time>
      </trkpt>
      <trkpt lat="49.91749" lon="2.18275">
        <ele>63.6</ele>
        <time>2022-11-09T15:23:27Z</time>
      </trkpt>
      <trkpt lat="49.91749" lon="2.18277">
        <ele>63.7</ele>
        <time>2022-11-09T15:23:28Z</time>
      </trkpt>
      <trkpt lat="49.91749" lon="2.18279">
        <ele>63.8</ele>
        <time>2022-11-09T15:23:29Z</time>
      </trkpt>
      <trkpt lat="49.91748" lon="2.1828">
        <ele>63.9</ele>
        <time>2022-11-09T15:23:30Z</time>
      </trkpt>
      <trkpt lat="49.91748" lon="2.18282">
        <ele>64</ele>
        <time>2022-11-09T15:23:31Z</time>
      </trkpt>
      <trkpt lat="49.91747" lon="2.18283">
        <ele>64</ele>
        <time>2022-11-09T15:23:32Z</time>
      </trkpt>
      <trkpt lat="49.91747" lon="2.18285">
        <ele>64.1</ele>
        <time>2022-11-09T15:23:34Z</time>
      </trkpt>
      <trkpt lat="49.91747" lon="2.18286">
        <ele>64.2</ele>
        <time>2022-11-09T15:23:35Z</time>
      </trkpt>
      <trkpt lat="49.91747" lon="2.18288">
        <ele>64.3</ele>
        <time>2022-11-09T15:23:36Z</time>
      </trkpt>
      <trkpt lat="49.91747" lon="2.18289">
        <ele>64.3</ele>
        <time>2022-11-09T15:23:37Z</time>
      </trkpt>
      <trkpt lat="49.91747" lon="2.1829">
        <ele>64.4</ele>
        <time>2022-11-09T15:23:38Z</time>
      </trkpt>
      <trkpt lat="49.91747" lon="2.18293">
        <ele>64.5</ele>
        <time>2022-11-09T15:23:39Z</time>
      </trkpt>
      <trkpt lat="49.91747" lon="2.18294">
        <ele>64.6</ele>
        <time>2022-11-09T15:23:40Z</time>
      </trkpt>
      <trkpt lat="49.91747" lon="2.18296">
        <ele>64.7</ele>
        <time>2022-11-09T15:23:42Z</time>
      </trkpt>
      <trkpt lat="49.91748" lon="2.18298">
        <ele>64.8</ele>
        <time>2022-11-09T15:23:43Z</time>
      </trkpt>
      <trkpt lat="49.91748" lon="2.183">
        <ele>64.9</ele>
        <time>2022-11-09T15:23:44Z</time>
      </trkpt>
      <trkpt lat="49.91748" lon="2.18301">
        <ele>65</ele>
        <time>2022-11-09T15:23:45Z</time>
      </trkpt>
      <trkpt lat="49.91748" lon="2.18302">
        <ele>65.1</ele>
        <time>2022-11-09T15:23:46Z</time>
      </trkpt>
      <trkpt lat="49.91748" lon="2.18305">
        <ele>65.2</ele>
        <time>2022-11-09T15:23:47Z</time>
      </trkpt>
      <trkpt lat="49.91748" lon="2.18307">
        <ele>65.3</ele>
        <time>2022-11-09T15:23:48Z</time>
      </trkpt>
      <trkpt lat="49.91748" lon="2.1831">
        <ele>65.5</ele>
        <time>2022-11-09T15:23:49Z</time>
      </trkpt>
      <trkpt lat="49.91748" lon="2.18311">
        <ele>65.5</ele>
        <time>2022-11-09T15:23:51Z</time>
      </trkpt>
      <trkpt lat="49.91747" lon="2.18313">
        <ele>65.6</ele>
        <time>2022-11-09T15:23:52Z</time>
      </trkpt>
      <trkpt lat="49.91747" lon="2.18314">
        <ele>65.7</ele>
        <time>2022-11-09T15:23:53Z</time>
      </trkpt>
      <trkpt lat="49.91747" lon="2.18315">
        <ele>65.7</ele>
        <time>2022-11-09T15:23:54Z</time>
      </trkpt>
      <trkpt lat="49.91747" lon="2.18318">
        <ele>65.8</ele>
        <time>2022-11-09T15:23:55Z</time>
      </trkpt>
      <trkpt lat="49.91747" lon="2.1832">
        <ele>65.9</ele>
        <time>2022-11-09T15:23:56Z</time>
      </trkpt>
      <trkpt lat="49.91748" lon="2.18321">
        <ele>66</ele>
        <time>2022-11-09T15:23:57Z</time>
      </trkpt>
      <trkpt lat="49.91748" lon="2.18323">
        <ele>66.1</ele>
        <time>2022-11-09T15:23:59Z</time>
      </trkpt>
      <trkpt lat="49.91748" lon="2.18325">
        <ele>66.2</ele>
        <time>2022-11-09T15:24:00Z</time>
      </trkpt>
      <trkpt lat="49.91749" lon="2.18326">
        <ele>66.2</ele>
        <time>2022-11-09T15:24:01Z</time>
      </trkpt>
      <trkpt lat="49.91749" lon="2.18327">
        <ele>66.3</ele>
        <time>2022-11-09T15:24:02Z</time>
      </trkpt>
      <trkpt lat="49.91749" lon="2.18329">
        <ele>66.4</ele>
        <time>2022-11-09T15:24:03Z</time>
      </trkpt>
      <trkpt lat="49.91749" lon="2.1833">
        <ele>66.4</ele>
        <time>2022-11-09T15:24:04Z</time>
      </trkpt>
      <trkpt lat="49.9175" lon="2.18332">
        <ele>66.5</ele>
        <time>2022-11-09T15:24:05Z</time>
      </trkpt>
      <trkpt lat="49.9175" lon="2.18333">
        <ele>66.6</ele>
        <time>2022-11-09T15:24:06Z</time>
      </trkpt>
      <trkpt lat="49.91751" lon="2.18335">
        <ele>66.6</ele>
        <time>2022-11-09T15:24:07Z</time>
      </trkpt>
      <trkpt lat="49.91752" lon="2.18336">
        <ele>66.7</ele>
        <time>2022-11-09T15:24:08Z</time>
      </trkpt>
      <trkpt lat="49.91752" lon="2.18337">
        <ele>66.8</ele>
        <time>2022-11-09T15:24:10Z</time>
      </trkpt>
      <trkpt lat="49.91753" lon="2.18339">
        <ele>66.9</ele>
        <time>2022-11-09T15:24:11Z</time>
      </trkpt>
      <trkpt lat="49.91753" lon="2.1834">
        <ele>66.9</ele>
        <time>2022-11-09T15:24:12Z</time>
      </trkpt>
      <trkpt lat="49.91754" lon="2.18342">
        <ele>67</ele>
        <time>2022-11-09T15:24:13Z</time>
      </trkpt>
      <trkpt lat="49.91754" lon="2.18343">
        <ele>67</ele>
        <time>2022-11-09T15:24:14Z</time>
      </trkpt>
      <trkpt lat="49.91755" lon="2.18345">
        <ele>67.1</ele>
        <time>2022-11-09T15:24:15Z</time>
      </trkpt>
      <trkpt lat="49.91755" lon="2.18346">
        <ele>67.2</ele>
        <time>2022-11-09T15:24:16Z</time>
      </trkpt>
      <trkpt lat="49.91756" lon="2.18348">
        <ele>67.2</ele>
        <time>2022-11-09T15:24:17Z</time>
      </trkpt>
      <trkpt lat="49.91756" lon="2.1835">
        <ele>67.3</ele>
        <time>2022-11-09T15:24:19Z</time>
      </trkpt>
      <trkpt lat="49.91756" lon="2.18351">
        <ele>67.3</ele>
        <time>2022-11-09T15:24:20Z</time>
      </trkpt>
      <trkpt lat="49.91757" lon="2.18353">
        <ele>67.4</ele>
        <time>2022-11-09T15:24:21Z</time>
      </trkpt>
      <trkpt lat="49.91757" lon="2.18355">
        <ele>67.5</ele>
        <time>2022-11-09T15:24:22Z</time>
      </trkpt>
      <trkpt lat="49.91758" lon="2.18357">
        <ele>67.6</ele>
        <time>2022-11-09T15:24:24Z</time>
      </trkpt>
      <trkpt lat="49.91759" lon="2.18358">
        <ele>67.6</ele>
        <time>2022-11-09T15:24:25Z</time>
      </trkpt>
      <trkpt lat="49.91759" lon="2.18359">
        <ele>67.6</ele>
        <time>2022-11-09T15:24:26Z</time>
      </trkpt>
      <trkpt lat="49.91759" lon="2.1836">
        <ele>67.7</ele>
        <time>2022-11-09T15:24:27Z</time>
      </trkpt>
      <trkpt lat="49.91761" lon="2.18362">
        <ele>67.8</ele>
        <time>2022-11-09T15:24:28Z</time>
      </trkpt>
      <trkpt lat="49.91761" lon="2.18363">
        <ele>67.8</ele>
        <time>2022-11-09T15:24:30Z</time>
      </trkpt>
      <trkpt lat="49.91762" lon="2.18364">
        <ele>67.8</ele>
        <time>2022-11-09T15:24:31Z</time>
      </trkpt>
      <trkpt lat="49.91762" lon="2.18367">
        <ele>67.9</ele>
        <time>2022-11-09T15:24:32Z</time>
      </trkpt>
      <trkpt lat="49.91763" lon="2.18368">
        <ele>68</ele>
        <time>2022-11-09T15:24:33Z</time>
      </trkpt>
      <trkpt lat="49.91763" lon="2.1837">
        <ele>68</ele>
        <time>2022-11-09T15:24:34Z</time>
      </trkpt>
      <trkpt lat="49.91764" lon="2.18371">
        <ele>68.1</ele>
        <time>2022-11-09T15:24:35Z</time>
      </trkpt>
      <trkpt lat="49.91764" lon="2.18373">
        <ele>68.1</ele>
        <time>2022-11-09T15:24:36Z</time>
      </trkpt>
      <trkpt lat="49.91765" lon="2.18374">
        <ele>68.2</ele>
        <time>2022-11-09T15:24:38Z</time>
      </trkpt>
      <trkpt lat="49.91765" lon="2.18376">
        <ele>68.2</ele>
        <time>2022-11-09T15:24:39Z</time>
      </trkpt>
      <trkpt lat="49.91766" lon="2.18377">
        <ele>68.3</ele>
        <time>2022-11-09T15:24:40Z</time>
      </trkpt>
      <trkpt lat="49.91766" lon="2.18379">
        <ele>68.4</ele>
        <time>2022-11-09T15:24:41Z</time>
      </trkpt>
      <trkpt lat="49.91767" lon="2.18381">
        <ele>68.4</ele>
        <time>2022-11-09T15:24:42Z</time>
      </trkpt>
      <trkpt lat="49.91767" lon="2.18383">
        <ele>68.5</ele>
        <time>2022-11-09T15:24:43Z</time>
      </trkpt>
      <trkpt lat="49.91767" lon="2.18384">
        <ele>68.5</ele>
        <time>2022-11-09T15:24:45Z</time>
      </trkpt>
      <trkpt lat="49.91768" lon="2.18388">
        <ele>68.6</ele>
        <time>2022-11-09T15:24:46Z</time>
      </trkpt>
      <trkpt lat="49.91768" lon="2.18389">
        <ele>68.7</ele>
        <time>2022-11-09T15:24:47Z</time>
      </trkpt>
      <trkpt lat="49.91768" lon="2.1839">
        <ele>68.7</ele>
        <time>2022-11-09T15:24:48Z</time>
      </trkpt>
      <trkpt lat="49.91769" lon="2.18392">
        <ele>68.8</ele>
        <time>2022-11-09T15:24:49Z</time>
      </trkpt>
      <trkpt lat="49.91769" lon="2.18394">
        <ele>68.9</ele>
        <time>2022-11-09T15:24:50Z</time>
      </trkpt>
      <trkpt lat="49.9177" lon="2.18397">
        <ele>68.9</ele>
        <time>2022-11-09T15:24:51Z</time>
      </trkpt>
      <trkpt lat="49.9177" lon="2.18399">
        <ele>69</ele>
        <time>2022-11-09T15:24:53Z</time>
      </trkpt>
      <trkpt lat="49.9177" lon="2.184">
        <ele>69</ele>
        <time>2022-11-09T15:24:54Z</time>
      </trkpt>
      <trkpt lat="49.91771" lon="2.18401">
        <ele>69.1</ele>
        <time>2022-11-09T15:24:55Z</time>
      </trkpt>
      <trkpt lat="49.91771" lon="2.18403">
        <ele>69.1</ele>
        <time>2022-11-09T15:24:56Z</time>
      </trkpt>
      <trkpt lat="49.91772" lon="2.18404">
        <ele>69.2</ele>
        <time>2022-11-09T15:24:57Z</time>
      </trkpt>
      <trkpt lat="49.91773" lon="2.18406">
        <ele>69.2</ele>
        <time>2022-11-09T15:24:58Z</time>
      </trkpt>
      <trkpt lat="49.91773" lon="2.18408">
        <ele>69.3</ele>
        <time>2022-11-09T15:24:59Z</time>
      </trkpt>
      <trkpt lat="49.91774" lon="2.1841">
        <ele>69.3</ele>
        <time>2022-11-09T15:25:01Z</time>
      </trkpt>
      <trkpt lat="49.91774" lon="2.18412">
        <ele>69.4</ele>
        <time>2022-11-09T15:25:02Z</time>
      </trkpt>
      <trkpt lat="49.91775" lon="2.18413">
        <ele>69.4</ele>
        <time>2022-11-09T15:25:03Z</time>
      </trkpt>
      <trkpt lat="49.91775" lon="2.18415">
        <ele>69.5</ele>
        <time>2022-11-09T15:25:04Z</time>
      </trkpt>
      <trkpt lat="49.91776" lon="2.18417">
        <ele>69.5</ele>
        <time>2022-11-09T15:25:05Z</time>
      </trkpt>
      <trkpt lat="49.91776" lon="2.18419">
        <ele>69.6</ele>
        <time>2022-11-09T15:25:06Z</time>
      </trkpt>
      <trkpt lat="49.91777" lon="2.18421">
        <ele>69.6</ele>
        <time>2022-11-09T15:25:07Z</time>
      </trkpt>
      <trkpt lat="49.91777" lon="2.18423">
        <ele>69.7</ele>
        <time>2022-11-09T15:25:08Z</time>
      </trkpt>
      <trkpt lat="49.91778" lon="2.18426">
        <ele>69.7</ele>
        <time>2022-11-09T15:25:10Z</time>
      </trkpt>
      <trkpt lat="49.91779" lon="2.18427">
        <ele>69.8</ele>
        <time>2022-11-09T15:25:11Z</time>
      </trkpt>
      <trkpt lat="49.91779" lon="2.18428">
        <ele>69.8</ele>
        <time>2022-11-09T15:25:12Z</time>
      </trkpt>
      <trkpt lat="49.91779" lon="2.18431">
        <ele>69.9</ele>
        <time>2022-11-09T15:25:13Z</time>
      </trkpt>
      <trkpt lat="49.9178" lon="2.18432">
        <ele>69.9</ele>
        <time>2022-11-09T15:25:14Z</time>
      </trkpt>
      <trkpt lat="49.9178" lon="2.18433">
        <ele>69.9</ele>
        <time>2022-11-09T15:25:15Z</time>
      </trkpt>
      <trkpt lat="49.91781" lon="2.18435">
        <ele>70</ele>
        <time>2022-11-09T15:25:16Z</time>
      </trkpt>
      <trkpt lat="49.91781" lon="2.18437">
        <ele>70</ele>
        <time>2022-11-09T15:25:17Z</time>
      </trkpt>
      <trkpt lat="49.91781" lon="2.18439">
        <ele>70.1</ele>
        <time>2022-11-09T15:25:19Z</time>
      </trkpt>
      <trkpt lat="49.91781" lon="2.1844">
        <ele>70.1</ele>
        <time>2022-11-09T15:25:20Z</time>
      </trkpt>
      <trkpt lat="49.91782" lon="2.18442">
        <ele>70.1</ele>
        <time>2022-11-09T15:25:21Z</time>
      </trkpt>
      <trkpt lat="49.91782" lon="2.18443">
        <ele>70.2</ele>
        <time>2022-11-09T15:25:22Z</time>
      </trkpt>
      <trkpt lat="49.91783" lon="2.18446">
        <ele>70.3</ele>
        <time>2022-11-09T15:25:23Z</time>
      </trkpt>
      <trkpt lat="49.91783" lon="2.18448">
        <ele>70.3</ele>
        <time>2022-11-09T15:25:24Z</time>
      </trkpt>
      <trkpt lat="49.91784" lon="2.18449">
        <ele>70.3</ele>
        <time>2022-11-09T15:25:25Z</time>
      </trkpt>
      <trkpt lat="49.91784" lon="2.18452">
        <ele>70.4</ele>
        <time>2022-11-09T15:25:26Z</time>
      </trkpt>
      <trkpt lat="49.91785" lon="2.18453">
        <ele>70.4</ele>
        <time>2022-11-09T15:25:28Z</time>
      </trkpt>
      <trkpt lat="49.91785" lon="2.18455">
        <ele>70.5</ele>
        <time>2022-11-09T15:25:29Z</time>
      </trkpt>
      <trkpt lat="49.91785" lon="2.18456">
        <ele>70.5</ele>
        <time>2022-11-09T15:25:30Z</time>
      </trkpt>
      <trkpt lat="49.91786" lon="2.18458">
        <ele>70.5</ele>
        <time>2022-11-09T15:25:31Z</time>
      </trkpt>
      <trkpt lat="49.91786" lon="2.1846">
        <ele>70.6</ele>
        <time>2022-11-09T15:25:32Z</time>
      </trkpt>
      <trkpt lat="49.91786" lon="2.18462">
        <ele>70.6</ele>
        <time>2022-11-09T15:25:33Z</time>
      </trkpt>
      <trkpt lat="49.91787" lon="2.18464">
        <ele>70.7</ele>
        <time>2022-11-09T15:25:34Z</time>
      </trkpt>
      <trkpt lat="49.91787" lon="2.18467">
        <ele>70.7</ele>
        <time>2022-11-09T15:25:35Z</time>
      </trkpt>
      <trkpt lat="49.91787" lon="2.18468">
        <ele>70.7</ele>
        <time>2022-11-09T15:25:37Z</time>
      </trkpt>
      <trkpt lat="49.91788" lon="2.1847">
        <ele>70.8</ele>
        <time>2022-11-09T15:25:38Z</time>
      </trkpt>
      <trkpt lat="49.91788" lon="2.18471">
        <ele>70.8</ele>
        <time>2022-11-09T15:25:39Z</time>
      </trkpt>
      <trkpt lat="49.91788" lon="2.18472">
        <ele>70.8</ele>
        <time>2022-11-09T15:25:40Z</time>
      </trkpt>
      <trkpt lat="49.91788" lon="2.18473">
        <ele>70.9</ele>
        <time>2022-11-09T15:25:41Z</time>
      </trkpt>
      <trkpt lat="49.91788" lon="2.18475">
        <ele>70.9</ele>
        <time>2022-11-09T15:25:42Z</time>
      </trkpt>
      <trkpt lat="49.91788" lon="2.18476">
        <ele>70.9</ele>
        <time>2022-11-09T15:25:43Z</time>
      </trkpt>
      <trkpt lat="49.91788" lon="2.18478">
        <ele>71</ele>
        <time>2022-11-09T15:25:44Z</time>
      </trkpt>
      <trkpt lat="49.91789" lon="2.1848">
        <ele>71</ele>
        <time>2022-11-09T15:25:45Z</time>
      </trkpt>
      <trkpt lat="49.91789" lon="2.18482">
        <ele>71</ele>
        <time>2022-11-09T15:25:46Z</time>
      </trkpt>
      <trkpt lat="49.91789" lon="2.18485">
        <ele>71.1</ele>
        <time>2022-11-09T15:25:47Z</time>
      </trkpt>
      <trkpt lat="49.91789" lon="2.18486">
        <ele>71.1</ele>
        <time>2022-11-09T15:25:48Z</time>
      </trkpt>
      <trkpt lat="49.91789" lon="2.18488">
        <ele>71.2</ele>
        <time>2022-11-09T15:25:49Z</time>
      </trkpt>
      <trkpt lat="49.9179" lon="2.1849">
        <ele>71.2</ele>
        <time>2022-11-09T15:25:50Z</time>
      </trkpt>
      <trkpt lat="49.9179" lon="2.18493">
        <ele>71.2</ele>
        <time>2022-11-09T15:25:52Z</time>
      </trkpt>
      <trkpt lat="49.91791" lon="2.18495">
        <ele>71.3</ele>
        <time>2022-11-09T15:25:53Z</time>
      </trkpt>
      <trkpt lat="49.91791" lon="2.18496">
        <ele>71.3</ele>
        <time>2022-11-09T15:25:54Z</time>
      </trkpt>
      <trkpt lat="49.91791" lon="2.18498">
        <ele>71.3</ele>
        <time>2022-11-09T15:25:55Z</time>
      </trkpt>
      <trkpt lat="49.91792" lon="2.185">
        <ele>71.4</ele>
        <time>2022-11-09T15:25:56Z</time>
      </trkpt>
      <trkpt lat="49.91792" lon="2.18502">
        <ele>71.4</ele>
        <time>2022-11-09T15:25:58Z</time>
      </trkpt>
      <trkpt lat="49.91793" lon="2.18505">
        <ele>71.5</ele>
        <time>2022-11-09T15:25:59Z</time>
      </trkpt>
      <trkpt lat="49.91793" lon="2.18506">
        <ele>71.5</ele>
        <time>2022-11-09T15:26:00Z</time>
      </trkpt>
      <trkpt lat="49.91793" lon="2.18508">
        <ele>71.5</ele>
        <time>2022-11-09T15:26:01Z</time>
      </trkpt>
      <trkpt lat="49.91794" lon="2.18511">
        <ele>71.6</ele>
        <time>2022-11-09T15:26:02Z</time>
      </trkpt>
      <trkpt lat="49.91794" lon="2.18512">
        <ele>71.6</ele>
        <time>2022-11-09T15:26:03Z</time>
      </trkpt>
      <trkpt lat="49.91794" lon="2.18513">
        <ele>71.6</ele>
        <time>2022-11-09T15:26:04Z</time>
      </trkpt>
      <trkpt lat="49.91795" lon="2.18515">
        <ele>71.6</ele>
        <time>2022-11-09T15:26:06Z</time>
      </trkpt>
      <trkpt lat="49.91795" lon="2.18517">
        <ele>71.7</ele>
        <time>2022-11-09T15:26:07Z</time>
      </trkpt>
      <trkpt lat="49.91795" lon="2.18518">
        <ele>71.7</ele>
        <time>2022-11-09T15:26:08Z</time>
      </trkpt>
      <trkpt lat="49.91796" lon="2.18521">
        <ele>71.8</ele>
        <time>2022-11-09T15:26:09Z</time>
      </trkpt>
      <trkpt lat="49.91797" lon="2.18522">
        <ele>71.8</ele>
        <time>2022-11-09T15:26:10Z</time>
      </trkpt>
      <trkpt lat="49.91797" lon="2.18523">
        <ele>71.8</ele>
        <time>2022-11-09T15:26:11Z</time>
      </trkpt>
      <trkpt lat="49.91797" lon="2.18525">
        <ele>71.8</ele>
        <time>2022-11-09T15:26:12Z</time>
      </trkpt>
      <trkpt lat="49.91798" lon="2.18527">
        <ele>71.9</ele>
        <time>2022-11-09T15:26:13Z</time>
      </trkpt>
      <trkpt lat="49.91798" lon="2.18529">
        <ele>71.9</ele>
        <time>2022-11-09T15:26:15Z</time>
      </trkpt>
      <trkpt lat="49.91799" lon="2.18531">
        <ele>71.9</ele>
        <time>2022-11-09T15:26:16Z</time>
      </trkpt>
      <trkpt lat="49.91799" lon="2.18532">
        <ele>72</ele>
        <time>2022-11-09T15:26:17Z</time>
      </trkpt>
      <trkpt lat="49.918" lon="2.18533">
        <ele>72</ele>
        <time>2022-11-09T15:26:18Z</time>
      </trkpt>
      <trkpt lat="49.91801" lon="2.18535">
        <ele>72</ele>
        <time>2022-11-09T15:26:19Z</time>
      </trkpt>
      <trkpt lat="49.91801" lon="2.18537">
        <ele>72.1</ele>
        <time>2022-11-09T15:26:20Z</time>
      </trkpt>
      <trkpt lat="49.91802" lon="2.18539">
        <ele>72.1</ele>
        <time>2022-11-09T15:26:21Z</time>
      </trkpt>
      <trkpt lat="49.91803" lon="2.1854">
        <ele>72.1</ele>
        <time>2022-11-09T15:26:22Z</time>
      </trkpt>
      <trkpt lat="49.91803" lon="2.18542">
        <ele>72.2</ele>
        <time>2022-11-09T15:26:24Z</time>
      </trkpt>
      <trkpt lat="49.91804" lon="2.18544">
        <ele>72.2</ele>
        <time>2022-11-09T15:26:25Z</time>
      </trkpt>
      <trkpt lat="49.91804" lon="2.18545">
        <ele>72.2</ele>
        <time>2022-11-09T15:26:26Z</time>
      </trkpt>
      <trkpt lat="49.91805" lon="2.18547">
        <ele>72.2</ele>
        <time>2022-11-09T15:26:27Z</time>
      </trkpt>
      <trkpt lat="49.91805" lon="2.18548">
        <ele>72.3</ele>
        <time>2022-11-09T15:26:28Z</time>
      </trkpt>
      <trkpt lat="49.91806" lon="2.1855">
        <ele>72.3</ele>
        <time>2022-11-09T15:26:29Z</time>
      </trkpt>
      <trkpt lat="49.91806" lon="2.18552">
        <ele>72.3</ele>
        <time>2022-11-09T15:26:30Z</time>
      </trkpt>
      <trkpt lat="49.91807" lon="2.18553">
        <ele>72.3</ele>
        <time>2022-11-09T15:26:32Z</time>
      </trkpt>
      <trkpt lat="49.91807" lon="2.18555">
        <ele>72.4</ele>
        <time>2022-11-09T15:26:33Z</time>
      </trkpt>
      <trkpt lat="49.91808" lon="2.18556">
        <ele>72.4</ele>
        <time>2022-11-09T15:26:34Z</time>
      </trkpt>
      <trkpt lat="49.91808" lon="2.18559">
        <ele>72.4</ele>
        <time>2022-11-09T15:26:35Z</time>
      </trkpt>
      <trkpt lat="49.91809" lon="2.1856">
        <ele>72.5</ele>
        <time>2022-11-09T15:26:36Z</time>
      </trkpt>
      <trkpt lat="49.91809" lon="2.18561">
        <ele>72.5</ele>
        <time>2022-11-09T15:26:37Z</time>
      </trkpt>
      <trkpt lat="49.9181" lon="2.18564">
        <ele>72.5</ele>
        <time>2022-11-09T15:26:38Z</time>
      </trkpt>
      <trkpt lat="49.91811" lon="2.18565">
        <ele>72.6</ele>
        <time>2022-11-09T15:26:40Z</time>
      </trkpt>
      <trkpt lat="49.91811" lon="2.18566">
        <ele>72.6</ele>
        <time>2022-11-09T15:26:41Z</time>
      </trkpt>
      <trkpt lat="49.91811" lon="2.18568">
        <ele>72.6</ele>
        <time>2022-11-09T15:26:42Z</time>
      </trkpt>
      <trkpt lat="49.91812" lon="2.18569">
        <ele>72.6</ele>
        <time>2022-11-09T15:26:43Z</time>
      </trkpt>
      <trkpt lat="49.91812" lon="2.18571">
        <ele>72.7</ele>
        <time>2022-11-09T15:26:44Z</time>
      </trkpt>
      <trkpt lat="49.91813" lon="2.18573">
        <ele>72.7</ele>
        <time>2022-11-09T15:26:45Z</time>
      </trkpt>
      <trkpt lat="49.91814" lon="2.18574">
        <ele>72.7</ele>
        <time>2022-11-09T15:26:46Z</time>
      </trkpt>
      <trkpt lat="49.91814" lon="2.18576">
        <ele>72.8</ele>
        <time>2022-11-09T15:26:47Z</time>
      </trkpt>
      <trkpt lat="49.91815" lon="2.18579">
        <ele>72.8</ele>
        <time>2022-11-09T15:26:48Z</time>
      </trkpt>
      <trkpt lat="49.91816" lon="2.1858">
        <ele>72.8</ele>
        <time>2022-11-09T15:26:50Z</time>
      </trkpt>
      <trkpt lat="49.91816" lon="2.18581">
        <ele>72.8</ele>
        <time>2022-11-09T15:26:51Z</time>
      </trkpt>
      <trkpt lat="49.91816" lon="2.18582">
        <ele>72.9</ele>
        <time>2022-11-09T15:26:52Z</time>
      </trkpt>
      <trkpt lat="49.91816" lon="2.18583">
        <ele>72.9</ele>
        <time>2022-11-09T15:26:53Z</time>
      </trkpt>
      <trkpt lat="49.91817" lon="2.18585">
        <ele>72.9</ele>
        <time>2022-11-09T15:26:54Z</time>
      </trkpt>
      <trkpt lat="49.91817" lon="2.18587">
        <ele>72.9</ele>
        <time>2022-11-09T15:26:56Z</time>
      </trkpt>
      <trkpt lat="49.91818" lon="2.18589">
        <ele>73</ele>
        <time>2022-11-09T15:26:57Z</time>
      </trkpt>
      <trkpt lat="49.91818" lon="2.18591">
        <ele>73</ele>
        <time>2022-11-09T15:26:58Z</time>
      </trkpt>
      <trkpt lat="49.91818" lon="2.18593">
        <ele>73</ele>
        <time>2022-11-09T15:26:59Z</time>
      </trkpt>
      <trkpt lat="49.91819" lon="2.18595">
        <ele>73</ele>
        <time>2022-11-09T15:27:00Z</time>
      </trkpt>
      <trkpt lat="49.91819" lon="2.18597">
        <ele>73</ele>
        <time>2022-11-09T15:27:01Z</time>
      </trkpt>
      <trkpt lat="49.91819" lon="2.18598">
        <ele>73</ele>
        <time>2022-11-09T15:27:02Z</time>
      </trkpt>
      <trkpt lat="49.9182" lon="2.18601">
        <ele>73.1</ele>
        <time>2022-11-09T15:27:03Z</time>
      </trkpt>
      <trkpt lat="49.91821" lon="2.18602">
        <ele>73.1</ele>
        <time>2022-11-09T15:27:05Z</time>
      </trkpt>
      <trkpt lat="49.91821" lon="2.18603">
        <ele>73.1</ele>
        <time>2022-11-09T15:27:06Z</time>
      </trkpt>
      <trkpt lat="49.91822" lon="2.18606">
        <ele>73.1</ele>
        <time>2022-11-09T15:27:07Z</time>
      </trkpt>
      <trkpt lat="49.91823" lon="2.18607">
        <ele>73.1</ele>
        <time>2022-11-09T15:27:08Z</time>
      </trkpt>
      <trkpt lat="49.91823" lon="2.18608">
        <ele>73.1</ele>
        <time>2022-11-09T15:27:09Z</time>
      </trkpt>
      <trkpt lat="49.91824" lon="2.1861">
        <ele>73.2</ele>
        <time>2022-11-09T15:27:11Z</time>
      </trkpt>
      <trkpt lat="49.91824" lon="2.18611">
        <ele>73.2</ele>
        <time>2022-11-09T15:27:12Z</time>
      </trkpt>
      <trkpt lat="49.91825" lon="2.18613">
        <ele>73.2</ele>
        <time>2022-11-09T15:27:13Z</time>
      </trkpt>
      <trkpt lat="49.91826" lon="2.18615">
        <ele>73.2</ele>
        <time>2022-11-09T15:27:14Z</time>
      </trkpt>
      <trkpt lat="49.91827" lon="2.18617">
        <ele>73.2</ele>
        <time>2022-11-09T15:27:15Z</time>
      </trkpt>
      <trkpt lat="49.91827" lon="2.18618">
        <ele>73.2</ele>
        <time>2022-11-09T15:27:16Z</time>
      </trkpt>
      <trkpt lat="49.91828" lon="2.18619">
        <ele>73.2</ele>
        <time>2022-11-09T15:27:17Z</time>
      </trkpt>
      <trkpt lat="49.91829" lon="2.18621">
        <ele>73.2</ele>
        <time>2022-11-09T15:27:18Z</time>
      </trkpt>
      <trkpt lat="49.91829" lon="2.18623">
        <ele>73.2</ele>
        <time>2022-11-09T15:27:20Z</time>
      </trkpt>
      <trkpt lat="49.9183" lon="2.18626">
        <ele>73.3</ele>
        <time>2022-11-09T15:27:21Z</time>
      </trkpt>
      <trkpt lat="49.91831" lon="2.18627">
        <ele>73.3</ele>
        <time>2022-11-09T15:27:22Z</time>
      </trkpt>
      <trkpt lat="49.91831" lon="2.18628">
        <ele>73.3</ele>
        <time>2022-11-09T15:27:23Z</time>
      </trkpt>
      <trkpt lat="49.91832" lon="2.18631">
        <ele>73.3</ele>
        <time>2022-11-09T15:27:24Z</time>
      </trkpt>
      <trkpt lat="49.91833" lon="2.18632">
        <ele>73.3</ele>
        <time>2022-11-09T15:27:25Z</time>
      </trkpt>
      <trkpt lat="49.91834" lon="2.18633">
        <ele>73.3</ele>
        <time>2022-11-09T15:27:26Z</time>
      </trkpt>
      <trkpt lat="49.91834" lon="2.18635">
        <ele>73.3</ele>
        <time>2022-11-09T15:27:27Z</time>
      </trkpt>
      <trkpt lat="49.91835" lon="2.18637">
        <ele>73.3</ele>
        <time>2022-11-09T15:27:28Z</time>
      </trkpt>
      <trkpt lat="49.91836" lon="2.18639">
        <ele>73.3</ele>
        <time>2022-11-09T15:27:30Z</time>
      </trkpt>
      <trkpt lat="49.91836" lon="2.1864">
        <ele>73.3</ele>
        <time>2022-11-09T15:27:31Z</time>
      </trkpt>
      <trkpt lat="49.91837" lon="2.18641">
        <ele>73.4</ele>
        <time>2022-11-09T15:27:32Z</time>
      </trkpt>
      <trkpt lat="49.91838" lon="2.18642">
        <ele>73.4</ele>
        <time>2022-11-09T15:27:33Z</time>
      </trkpt>
      <trkpt lat="49.91839" lon="2.18645">
        <ele>73.4</ele>
        <time>2022-11-09T15:27:34Z</time>
      </trkpt>
      <trkpt lat="49.9184" lon="2.18646">
        <ele>73.4</ele>
        <time>2022-11-09T15:27:35Z</time>
      </trkpt>
      <trkpt lat="49.9184" lon="2.18648">
        <ele>73.4</ele>
        <time>2022-11-09T15:27:36Z</time>
      </trkpt>
      <trkpt lat="49.91841" lon="2.18649">
        <ele>73.4</ele>
        <time>2022-11-09T15:27:37Z</time>
      </trkpt>
      <trkpt lat="49.91842" lon="2.18651">
        <ele>73.4</ele>
        <time>2022-11-09T15:27:38Z</time>
      </trkpt>
      <trkpt lat="49.91842" lon="2.18652">
        <ele>73.4</ele>
        <time>2022-11-09T15:27:40Z</time>
      </trkpt>
      <trkpt lat="49.91843" lon="2.18653">
        <ele>73.4</ele>
        <time>2022-11-09T15:27:41Z</time>
      </trkpt>
      <trkpt lat="49.91844" lon="2.18654">
        <ele>73.4</ele>
        <time>2022-11-09T15:27:42Z</time>
      </trkpt>
      <trkpt lat="49.91844" lon="2.18656">
        <ele>73.4</ele>
        <time>2022-11-09T15:27:43Z</time>
      </trkpt>
      <trkpt lat="49.91845" lon="2.18657">
        <ele>73.4</ele>
        <time>2022-11-09T15:27:44Z</time>
      </trkpt>
      <trkpt lat="49.91846" lon="2.18658">
        <ele>73.5</ele>
        <time>2022-11-09T15:27:45Z</time>
      </trkpt>
      <trkpt lat="49.91847" lon="2.18659">
        <ele>73.5</ele>
        <time>2022-11-09T15:27:46Z</time>
      </trkpt>
      <trkpt lat="49.91848" lon="2.18661">
        <ele>73.5</ele>
        <time>2022-11-09T15:27:47Z</time>
      </trkpt>
      <trkpt lat="49.91849" lon="2.18662">
        <ele>73.5</ele>
        <time>2022-11-09T15:27:49Z</time>
      </trkpt>
      <trkpt lat="49.9185" lon="2.18663">
        <ele>73.5</ele>
        <time>2022-11-09T15:27:50Z</time>
      </trkpt>
      <trkpt lat="49.9185" lon="2.18664">
        <ele>73.5</ele>
        <time>2022-11-09T15:27:51Z</time>
      </trkpt>
      <trkpt lat="49.91851" lon="2.18666">
        <ele>73.5</ele>
        <time>2022-11-09T15:27:52Z</time>
      </trkpt>
      <trkpt lat="49.91852" lon="2.18667">
        <ele>73.5</ele>
        <time>2022-11-09T15:27:53Z</time>
      </trkpt>
      <trkpt lat="49.91853" lon="2.1867">
        <ele>73.5</ele>
        <time>2022-11-09T15:27:54Z</time>
      </trkpt>
      <trkpt lat="49.91853" lon="2.18671">
        <ele>73.5</ele>
        <time>2022-11-09T15:27:55Z</time>
      </trkpt>
      <trkpt lat="49.91854" lon="2.18672">
        <ele>73.5</ele>
        <time>2022-11-09T15:27:56Z</time>
      </trkpt>
      <trkpt lat="49.91855" lon="2.18675">
        <ele>73.5</ele>
        <time>2022-11-09T15:27:58Z</time>
      </trkpt>
      <trkpt lat="49.91855" lon="2.18676">
        <ele>73.5</ele>
        <time>2022-11-09T15:27:59Z</time>
      </trkpt>
      <trkpt lat="49.91856" lon="2.18677">
        <ele>73.5</ele>
        <time>2022-11-09T15:28:00Z</time>
      </trkpt>
      <trkpt lat="49.91856" lon="2.18679">
        <ele>73.5</ele>
        <time>2022-11-09T15:28:01Z</time>
      </trkpt>
      <trkpt lat="49.91857" lon="2.1868">
        <ele>73.5</ele>
        <time>2022-11-09T15:28:02Z</time>
      </trkpt>
      <trkpt lat="49.91858" lon="2.18682">
        <ele>73.5</ele>
        <time>2022-11-09T15:28:03Z</time>
      </trkpt>
      <trkpt lat="49.91859" lon="2.18684">
        <ele>73.5</ele>
        <time>2022-11-09T15:28:04Z</time>
      </trkpt>
      <trkpt lat="49.9186" lon="2.18685">
        <ele>73.5</ele>
        <time>2022-11-09T15:28:05Z</time>
      </trkpt>
      <trkpt lat="49.9186" lon="2.18686">
        <ele>73.5</ele>
        <time>2022-11-09T15:28:06Z</time>
      </trkpt>
      <trkpt lat="49.91862" lon="2.18689">
        <ele>73.5</ele>
        <time>2022-11-09T15:28:08Z</time>
      </trkpt>
      <trkpt lat="49.91862" lon="2.18689">
        <ele>73.5</ele>
        <time>2022-11-09T15:28:09Z</time>
      </trkpt>
      <trkpt lat="49.91863" lon="2.1869">
        <ele>73.5</ele>
        <time>2022-11-09T15:28:10Z</time>
      </trkpt>
      <trkpt lat="49.91865" lon="2.18692">
        <ele>73.5</ele>
        <time>2022-11-09T15:28:11Z</time>
      </trkpt>
      <trkpt lat="49.91865" lon="2.18693">
        <ele>73.5</ele>
        <time>2022-11-09T15:28:12Z</time>
      </trkpt>
      <trkpt lat="49.91866" lon="2.18694">
        <ele>73.5</ele>
        <time>2022-11-09T15:28:13Z</time>
      </trkpt>
      <trkpt lat="49.91867" lon="2.18696">
        <ele>73.5</ele>
        <time>2022-11-09T15:28:14Z</time>
      </trkpt>
      <trkpt lat="49.91868" lon="2.18698">
        <ele>73.5</ele>
        <time>2022-11-09T15:28:15Z</time>
      </trkpt>
      <trkpt lat="49.91869" lon="2.18699">
        <ele>73.5</ele>
        <time>2022-11-09T15:28:17Z</time>
      </trkpt>
      <trkpt lat="49.91869" lon="2.187">
        <ele>73.5</ele>
        <time>2022-11-09T15:28:18Z</time>
      </trkpt>
      <trkpt lat="49.9187" lon="2.18702">
        <ele>73.5</ele>
        <time>2022-11-09T15:28:19Z</time>
      </trkpt>
      <trkpt lat="49.9187" lon="2.18703">
        <ele>73.5</ele>
        <time>2022-11-09T15:28:20Z</time>
      </trkpt>
      <trkpt lat="49.91871" lon="2.18705">
        <ele>73.5</ele>
        <time>2022-11-09T15:28:21Z</time>
      </trkpt>
      <trkpt lat="49.91872" lon="2.18706">
        <ele>73.5</ele>
        <time>2022-11-09T15:28:22Z</time>
      </trkpt>
      <trkpt lat="49.91873" lon="2.18709">
        <ele>73.5</ele>
        <time>2022-11-09T15:28:23Z</time>
      </trkpt>
      <trkpt lat="49.91874" lon="2.1871">
        <ele>73.5</ele>
        <time>2022-11-09T15:28:24Z</time>
      </trkpt>
      <trkpt lat="49.91874" lon="2.18711">
        <ele>73.5</ele>
        <time>2022-11-09T15:28:25Z</time>
      </trkpt>
      <trkpt lat="49.91875" lon="2.18713">
        <ele>73.5</ele>
        <time>2022-11-09T15:28:26Z</time>
      </trkpt>
      <trkpt lat="49.91876" lon="2.18714">
        <ele>73.5</ele>
        <time>2022-11-09T15:28:28Z</time>
      </trkpt>
      <trkpt lat="49.91876" lon="2.18716">
        <ele>73.5</ele>
        <time>2022-11-09T15:28:29Z</time>
      </trkpt>
      <trkpt lat="49.91877" lon="2.18717">
        <ele>73.5</ele>
        <time>2022-11-09T15:28:30Z</time>
      </trkpt>
      <trkpt lat="49.91877" lon="2.18718">
        <ele>73.5</ele>
        <time>2022-11-09T15:28:31Z</time>
      </trkpt>
      <trkpt lat="49.91878" lon="2.18719">
        <ele>73.5</ele>
        <time>2022-11-09T15:28:32Z</time>
      </trkpt>
      <trkpt lat="49.9188" lon="2.18722">
        <ele>73.4</ele>
        <time>2022-11-09T15:28:33Z</time>
      </trkpt>
      <trkpt lat="49.9188" lon="2.18723">
        <ele>73.4</ele>
        <time>2022-11-09T15:28:34Z</time>
      </trkpt>
      <trkpt lat="49.91881" lon="2.18724">
        <ele>73.4</ele>
        <time>2022-11-09T15:28:35Z</time>
      </trkpt>
      <trkpt lat="49.91882" lon="2.18726">
        <ele>73.4</ele>
        <time>2022-11-09T15:28:36Z</time>
      </trkpt>
      <trkpt lat="49.91883" lon="2.18727">
        <ele>73.4</ele>
        <time>2022-11-09T15:28:38Z</time>
      </trkpt>
      <trkpt lat="49.91883" lon="2.18728">
        <ele>73.4</ele>
        <time>2022-11-09T15:28:39Z</time>
      </trkpt>
      <trkpt lat="49.91884" lon="2.18729">
        <ele>73.4</ele>
        <time>2022-11-09T15:28:40Z</time>
      </trkpt>
      <trkpt lat="49.91885" lon="2.1873">
        <ele>73.4</ele>
        <time>2022-11-09T15:28:41Z</time>
      </trkpt>
      <trkpt lat="49.91885" lon="2.18732">
        <ele>73.4</ele>
        <time>2022-11-09T15:28:42Z</time>
      </trkpt>
      <trkpt lat="49.91887" lon="2.18734">
        <ele>73.4</ele>
        <time>2022-11-09T15:28:43Z</time>
      </trkpt>
      <trkpt lat="49.91888" lon="2.18735">
        <ele>73.4</ele>
        <time>2022-11-09T15:28:44Z</time>
      </trkpt>
      <trkpt lat="49.91888" lon="2.18736">
        <ele>73.4</ele>
        <time>2022-11-09T15:28:45Z</time>
      </trkpt>
      <trkpt lat="49.91889" lon="2.18737">
        <ele>73.4</ele>
        <time>2022-11-09T15:28:46Z</time>
      </trkpt>
      <trkpt lat="49.9189" lon="2.18739">
        <ele>73.4</ele>
        <time>2022-11-09T15:28:48Z</time>
      </trkpt>
      <trkpt lat="49.9189" lon="2.1874">
        <ele>73.4</ele>
        <time>2022-11-09T15:28:49Z</time>
      </trkpt>
      <trkpt lat="49.9189" lon="2.18741">
        <ele>73.4</ele>
        <time>2022-11-09T15:28:50Z</time>
      </trkpt>
      <trkpt lat="49.91891" lon="2.18742">
        <ele>73.4</ele>
        <time>2022-11-09T15:28:51Z</time>
      </trkpt>
      <trkpt lat="49.91892" lon="2.18743">
        <ele>73.3</ele>
        <time>2022-11-09T15:28:52Z</time>
      </trkpt>
      <trkpt lat="49.91893" lon="2.18746">
        <ele>73.3</ele>
        <time>2022-11-09T15:28:54Z</time>
      </trkpt>
      <trkpt lat="49.91894" lon="2.18747">
        <ele>73.3</ele>
        <time>2022-11-09T15:28:55Z</time>
      </trkpt>
      <trkpt lat="49.91894" lon="2.18748">
        <ele>73.3</ele>
        <time>2022-11-09T15:28:56Z</time>
      </trkpt>
      <trkpt lat="49.91895" lon="2.18749">
        <ele>73.3</ele>
        <time>2022-11-09T15:28:57Z</time>
      </trkpt>
      <trkpt lat="49.91896" lon="2.1875">
        <ele>73.3</ele>
        <time>2022-11-09T15:28:58Z</time>
      </trkpt>
      <trkpt lat="49.91896" lon="2.18752">
        <ele>73.3</ele>
        <time>2022-11-09T15:28:59Z</time>
      </trkpt>
      <trkpt lat="49.91897" lon="2.18753">
        <ele>73.3</ele>
        <time>2022-11-09T15:29:00Z</time>
      </trkpt>
      <trkpt lat="49.91898" lon="2.18754">
        <ele>73.3</ele>
        <time>2022-11-09T15:29:01Z</time>
      </trkpt>
      <trkpt lat="49.91898" lon="2.18756">
        <ele>73.3</ele>
        <time>2022-11-09T15:29:02Z</time>
      </trkpt>
      <trkpt lat="49.919" lon="2.18758">
        <ele>73.2</ele>
        <time>2022-11-09T15:29:03Z</time>
      </trkpt>
      <trkpt lat="49.919" lon="2.18759">
        <ele>73.2</ele>
        <time>2022-11-09T15:29:04Z</time>
      </trkpt>
      <trkpt lat="49.91901" lon="2.1876">
        <ele>73.2</ele>
        <time>2022-11-09T15:29:05Z</time>
      </trkpt>
      <trkpt lat="49.91902" lon="2.18762">
        <ele>73.2</ele>
        <time>2022-11-09T15:29:07Z</time>
      </trkpt>
      <trkpt lat="49.91903" lon="2.18763">
        <ele>73.2</ele>
        <time>2022-11-09T15:29:08Z</time>
      </trkpt>
      <trkpt lat="49.91903" lon="2.18764">
        <ele>73.2</ele>
        <time>2022-11-09T15:29:09Z</time>
      </trkpt>
      <trkpt lat="49.91904" lon="2.18765">
        <ele>73.2</ele>
        <time>2022-11-09T15:29:10Z</time>
      </trkpt>
      <trkpt lat="49.91905" lon="2.18766">
        <ele>73.2</ele>
        <time>2022-11-09T15:29:11Z</time>
      </trkpt>
      <trkpt lat="49.91905" lon="2.18768">
        <ele>73.2</ele>
        <time>2022-11-09T15:29:12Z</time>
      </trkpt>
      <trkpt lat="49.91906" lon="2.1877">
        <ele>73.2</ele>
        <time>2022-11-09T15:29:13Z</time>
      </trkpt>
      <trkpt lat="49.91906" lon="2.18772">
        <ele>73.1</ele>
        <time>2022-11-09T15:29:15Z</time>
      </trkpt>
      <trkpt lat="49.91907" lon="2.18773">
        <ele>73.1</ele>
        <time>2022-11-09T15:29:16Z</time>
      </trkpt>
      <trkpt lat="49.91908" lon="2.18775">
        <ele>73.1</ele>
        <time>2022-11-09T15:29:17Z</time>
      </trkpt>
      <trkpt lat="49.9191" lon="2.18777">
        <ele>73.1</ele>
        <time>2022-11-09T15:29:18Z</time>
      </trkpt>
      <trkpt lat="49.9191" lon="2.18779">
        <ele>73.1</ele>
        <time>2022-11-09T15:29:19Z</time>
      </trkpt>
      <trkpt lat="49.91911" lon="2.1878">
        <ele>73</ele>
        <time>2022-11-09T15:29:20Z</time>
      </trkpt>
      <trkpt lat="49.91912" lon="2.18782">
        <ele>73</ele>
        <time>2022-11-09T15:29:21Z</time>
      </trkpt>
      <trkpt lat="49.91913" lon="2.18783">
        <ele>73</ele>
        <time>2022-11-09T15:29:22Z</time>
      </trkpt>
      <trkpt lat="49.91914" lon="2.18784">
        <ele>73</ele>
        <time>2022-11-09T15:29:24Z</time>
      </trkpt>
      <trkpt lat="49.91915" lon="2.18785">
        <ele>73</ele>
        <time>2022-11-09T15:29:25Z</time>
      </trkpt>
      <trkpt lat="49.91916" lon="2.18786">
        <ele>73</ele>
        <time>2022-11-09T15:29:26Z</time>
      </trkpt>
      <trkpt lat="49.91917" lon="2.18787">
        <ele>72.9</ele>
        <time>2022-11-09T15:29:27Z</time>
      </trkpt>
      <trkpt lat="49.91918" lon="2.18788">
        <ele>72.9</ele>
        <time>2022-11-09T15:29:28Z</time>
      </trkpt>
      <trkpt lat="49.91919" lon="2.1879">
        <ele>72.9</ele>
        <time>2022-11-09T15:29:29Z</time>
      </trkpt>
      <trkpt lat="49.9192" lon="2.18791">
        <ele>72.9</ele>
        <time>2022-11-09T15:29:30Z</time>
      </trkpt>
      <trkpt lat="49.91921" lon="2.18794">
        <ele>72.8</ele>
        <time>2022-11-09T15:29:31Z</time>
      </trkpt>
      <trkpt lat="49.91922" lon="2.18795">
        <ele>72.8</ele>
        <time>2022-11-09T15:29:32Z</time>
      </trkpt>
      <trkpt lat="49.91923" lon="2.18796">
        <ele>72.8</ele>
        <time>2022-11-09T15:29:33Z</time>
      </trkpt>
      <trkpt lat="49.91924" lon="2.18798">
        <ele>72.8</ele>
        <time>2022-11-09T15:29:35Z</time>
      </trkpt>
      <trkpt lat="49.91924" lon="2.18799">
        <ele>72.8</ele>
        <time>2022-11-09T15:29:36Z</time>
      </trkpt>
      <trkpt lat="49.91925" lon="2.188">
        <ele>72.8</ele>
        <time>2022-11-09T15:29:37Z</time>
      </trkpt>
      <trkpt lat="49.91926" lon="2.18803">
        <ele>72.7</ele>
        <time>2022-11-09T15:29:38Z</time>
      </trkpt>
      <trkpt lat="49.91927" lon="2.18804">
        <ele>72.7</ele>
        <time>2022-11-09T15:29:39Z</time>
      </trkpt>
      <trkpt lat="49.91927" lon="2.18805">
        <ele>72.7</ele>
        <time>2022-11-09T15:29:40Z</time>
      </trkpt>
      <trkpt lat="49.91928" lon="2.18807">
        <ele>72.7</ele>
        <time>2022-11-09T15:29:42Z</time>
      </trkpt>
      <trkpt lat="49.91929" lon="2.18808">
        <ele>72.7</ele>
        <time>2022-11-09T15:29:43Z</time>
      </trkpt>
      <trkpt lat="49.91929" lon="2.18809">
        <ele>72.7</ele>
        <time>2022-11-09T15:29:44Z</time>
      </trkpt>
      <trkpt lat="49.91931" lon="2.18812">
        <ele>72.6</ele>
        <time>2022-11-09T15:29:45Z</time>
      </trkpt>
      <trkpt lat="49.91931" lon="2.18813">
        <ele>72.6</ele>
        <time>2022-11-09T15:29:46Z</time>
      </trkpt>
      <trkpt lat="49.91932" lon="2.18814">
        <ele>72.6</ele>
        <time>2022-11-09T15:29:47Z</time>
      </trkpt>
      <trkpt lat="49.91932" lon="2.18815">
        <ele>72.6</ele>
        <time>2022-11-09T15:29:48Z</time>
      </trkpt>
      <trkpt lat="49.91933" lon="2.18816">
        <ele>72.6</ele>
        <time>2022-11-09T15:29:49Z</time>
      </trkpt>
      <trkpt lat="49.91933" lon="2.18818">
        <ele>72.6</ele>
        <time>2022-11-09T15:29:50Z</time>
      </trkpt>
      <trkpt lat="49.91935" lon="2.1882">
        <ele>72.6</ele>
        <time>2022-11-09T15:29:51Z</time>
      </trkpt>
      <trkpt lat="49.91935" lon="2.18821">
        <ele>72.6</ele>
        <time>2022-11-09T15:29:52Z</time>
      </trkpt>
      <trkpt lat="49.91935" lon="2.18823">
        <ele>72.5</ele>
        <time>2022-11-09T15:29:53Z</time>
      </trkpt>
      <trkpt lat="49.91937" lon="2.18825">
        <ele>72.5</ele>
        <time>2022-11-09T15:29:55Z</time>
      </trkpt>
      <trkpt lat="49.91937" lon="2.18826">
        <ele>72.5</ele>
        <time>2022-11-09T15:29:56Z</time>
      </trkpt>
      <trkpt lat="49.91938" lon="2.18827">
        <ele>72.5</ele>
        <time>2022-11-09T15:29:57Z</time>
      </trkpt>
      <trkpt lat="49.91939" lon="2.1883">
        <ele>72.5</ele>
        <time>2022-11-09T15:29:58Z</time>
      </trkpt>
      <trkpt lat="49.9194" lon="2.18831">
        <ele>72.5</ele>
        <time>2022-11-09T15:29:59Z</time>
      </trkpt>
      <trkpt lat="49.91941" lon="2.18832">
        <ele>72.4</ele>
        <time>2022-11-09T15:30:00Z</time>
      </trkpt>
      <trkpt lat="49.91942" lon="2.18833">
        <ele>72.4</ele>
        <time>2022-11-09T15:30:02Z</time>
      </trkpt>
      <trkpt lat="49.91942" lon="2.18834">
        <ele>72.4</ele>
        <time>2022-11-09T15:30:03Z</time>
      </trkpt>
      <trkpt lat="49.91943" lon="2.18836">
        <ele>72.4</ele>
        <time>2022-11-09T15:30:04Z</time>
      </trkpt>
      <trkpt lat="49.91943" lon="2.18837">
        <ele>72.4</ele>
        <time>2022-11-09T15:30:05Z</time>
      </trkpt>
      <trkpt lat="49.91944" lon="2.18838">
        <ele>72.4</ele>
        <time>2022-11-09T15:30:06Z</time>
      </trkpt>
      <trkpt lat="49.91944" lon="2.1884">
        <ele>72.4</ele>
        <time>2022-11-09T15:30:07Z</time>
      </trkpt>
      <trkpt lat="49.91945" lon="2.18842">
        <ele>72.4</ele>
        <time>2022-11-09T15:30:08Z</time>
      </trkpt>
      <trkpt lat="49.91946" lon="2.18844">
        <ele>72.3</ele>
        <time>2022-11-09T15:30:09Z</time>
      </trkpt>
      <trkpt lat="49.91947" lon="2.18846">
        <ele>72.3</ele>
        <time>2022-11-09T15:30:10Z</time>
      </trkpt>
      <trkpt lat="49.91948" lon="2.18847">
        <ele>72.3</ele>
        <time>2022-11-09T15:30:11Z</time>
      </trkpt>
      <trkpt lat="49.91948" lon="2.18848">
        <ele>72.3</ele>
        <time>2022-11-09T15:30:12Z</time>
      </trkpt>
      <trkpt lat="49.91949" lon="2.1885">
        <ele>72.3</ele>
        <time>2022-11-09T15:30:13Z</time>
      </trkpt>
      <trkpt lat="49.9195" lon="2.18852">
        <ele>72.2</ele>
        <time>2022-11-09T15:30:14Z</time>
      </trkpt>
      <trkpt lat="49.9195" lon="2.18853">
        <ele>72.2</ele>
        <time>2022-11-09T15:30:16Z</time>
      </trkpt>
      <trkpt lat="49.91951" lon="2.18855">
        <ele>72.2</ele>
        <time>2022-11-09T15:30:17Z</time>
      </trkpt>
      <trkpt lat="49.91952" lon="2.18856">
        <ele>72.2</ele>
        <time>2022-11-09T15:30:18Z</time>
      </trkpt>
      <trkpt lat="49.91952" lon="2.18857">
        <ele>72.2</ele>
        <time>2022-11-09T15:30:19Z</time>
      </trkpt>
      <trkpt lat="49.91953" lon="2.18859">
        <ele>72.2</ele>
        <time>2022-11-09T15:30:20Z</time>
      </trkpt>
      <trkpt lat="49.91954" lon="2.1886">
        <ele>72.2</ele>
        <time>2022-11-09T15:30:21Z</time>
      </trkpt>
      <trkpt lat="49.91955" lon="2.18863">
        <ele>72.1</ele>
        <time>2022-11-09T15:30:22Z</time>
      </trkpt>
      <trkpt lat="49.91955" lon="2.18864">
        <ele>72.1</ele>
        <time>2022-11-09T15:30:23Z</time>
      </trkpt>
      <trkpt lat="49.91956" lon="2.18865">
        <ele>72.1</ele>
        <time>2022-11-09T15:30:24Z</time>
      </trkpt>
      <trkpt lat="49.91957" lon="2.18868">
        <ele>72.1</ele>
        <time>2022-11-09T15:30:25Z</time>
      </trkpt>
      <trkpt lat="49.91957" lon="2.18869">
        <ele>72.1</ele>
        <time>2022-11-09T15:30:26Z</time>
      </trkpt>
      <trkpt lat="49.91958" lon="2.1887">
        <ele>72.1</ele>
        <time>2022-11-09T15:30:27Z</time>
      </trkpt>
      <trkpt lat="49.91958" lon="2.18871">
        <ele>72</ele>
        <time>2022-11-09T15:30:28Z</time>
      </trkpt>
      <trkpt lat="49.91959" lon="2.18873">
        <ele>72</ele>
        <time>2022-11-09T15:30:30Z</time>
      </trkpt>
      <trkpt lat="49.9196" lon="2.18875">
        <ele>72</ele>
        <time>2022-11-09T15:30:31Z</time>
      </trkpt>
      <trkpt lat="49.9196" lon="2.18876">
        <ele>72</ele>
        <time>2022-11-09T15:30:32Z</time>
      </trkpt>
      <trkpt lat="49.9196" lon="2.18877">
        <ele>72</ele>
        <time>2022-11-09T15:30:33Z</time>
      </trkpt>
      <trkpt lat="49.91961" lon="2.18879">
        <ele>72</ele>
        <time>2022-11-09T15:30:34Z</time>
      </trkpt>
      <trkpt lat="49.91962" lon="2.1888">
        <ele>72</ele>
        <time>2022-11-09T15:30:35Z</time>
      </trkpt>
      <trkpt lat="49.91962" lon="2.18882">
        <ele>71.9</ele>
        <time>2022-11-09T15:30:36Z</time>
      </trkpt>
      <trkpt lat="49.91963" lon="2.18884">
        <ele>71.9</ele>
        <time>2022-11-09T15:30:38Z</time>
      </trkpt>
      <trkpt lat="49.91964" lon="2.18887">
        <ele>71.9</ele>
        <time>2022-11-09T15:30:39Z</time>
      </trkpt>
      <trkpt lat="49.91964" lon="2.18888">
        <ele>71.9</ele>
        <time>2022-11-09T15:30:40Z</time>
      </trkpt>
      <trkpt lat="49.91965" lon="2.18889">
        <ele>71.9</ele>
        <time>2022-11-09T15:30:41Z</time>
      </trkpt>
      <trkpt lat="49.91965" lon="2.18891">
        <ele>71.8</ele>
        <time>2022-11-09T15:30:42Z</time>
      </trkpt>
      <trkpt lat="49.91967" lon="2.18894">
        <ele>71.8</ele>
        <time>2022-11-09T15:30:44Z</time>
      </trkpt>
      <trkpt lat="49.91967" lon="2.18895">
        <ele>71.8</ele>
        <time>2022-11-09T15:30:45Z</time>
      </trkpt>
      <trkpt lat="49.91968" lon="2.18897">
        <ele>71.8</ele>
        <time>2022-11-09T15:30:46Z</time>
      </trkpt>
      <trkpt lat="49.91969" lon="2.18898">
        <ele>71.8</ele>
        <time>2022-11-09T15:30:47Z</time>
      </trkpt>
      <trkpt lat="49.9197" lon="2.18901">
        <ele>71.7</ele>
        <time>2022-11-09T15:30:48Z</time>
      </trkpt>
      <trkpt lat="49.9197" lon="2.18902">
        <ele>71.7</ele>
        <time>2022-11-09T15:30:49Z</time>
      </trkpt>
      <trkpt lat="49.91971" lon="2.18903">
        <ele>71.7</ele>
        <time>2022-11-09T15:30:50Z</time>
      </trkpt>
      <trkpt lat="49.91971" lon="2.18904">
        <ele>71.7</ele>
        <time>2022-11-09T15:30:51Z</time>
      </trkpt>
      <trkpt lat="49.91972" lon="2.18906">
        <ele>71.7</ele>
        <time>2022-11-09T15:30:52Z</time>
      </trkpt>
      <trkpt lat="49.91973" lon="2.18908">
        <ele>71.7</ele>
        <time>2022-11-09T15:30:54Z</time>
      </trkpt>
      <trkpt lat="49.91974" lon="2.1891">
        <ele>71.6</ele>
        <time>2022-11-09T15:30:55Z</time>
      </trkpt>
      <trkpt lat="49.91975" lon="2.18911">
        <ele>71.6</ele>
        <time>2022-11-09T15:30:56Z</time>
      </trkpt>
      <trkpt lat="49.91975" lon="2.18912">
        <ele>71.6</ele>
        <time>2022-11-09T15:30:57Z</time>
      </trkpt>
      <trkpt lat="49.91976" lon="2.18915">
        <ele>71.6</ele>
        <time>2022-11-09T15:30:58Z</time>
      </trkpt>
      <trkpt lat="49.91977" lon="2.18916">
        <ele>71.6</ele>
        <time>2022-11-09T15:30:59Z</time>
      </trkpt>
      <trkpt lat="49.91977" lon="2.18917">
        <ele>71.6</ele>
        <time>2022-11-09T15:31:00Z</time>
      </trkpt>
      <trkpt lat="49.91979" lon="2.18919">
        <ele>71.5</ele>
        <time>2022-11-09T15:31:01Z</time>
      </trkpt>
      <trkpt lat="49.91979" lon="2.1892">
        <ele>71.5</ele>
        <time>2022-11-09T15:31:02Z</time>
      </trkpt>
      <trkpt lat="49.9198" lon="2.18922">
        <ele>71.5</ele>
        <time>2022-11-09T15:31:03Z</time>
      </trkpt>
      <trkpt lat="49.91981" lon="2.18924">
        <ele>71.5</ele>
        <time>2022-11-09T15:31:04Z</time>
      </trkpt>
      <trkpt lat="49.91982" lon="2.18926">
        <ele>71.5</ele>
        <time>2022-11-09T15:31:05Z</time>
      </trkpt>
      <trkpt lat="49.91982" lon="2.18927">
        <ele>71.5</ele>
        <time>2022-11-09T15:31:06Z</time>
      </trkpt>
      <trkpt lat="49.91983" lon="2.18929">
        <ele>71.4</ele>
        <time>2022-11-09T15:31:08Z</time>
      </trkpt>
      <trkpt lat="49.91983" lon="2.1893">
        <ele>71.4</ele>
        <time>2022-11-09T15:31:09Z</time>
      </trkpt>
      <trkpt lat="49.91984" lon="2.18932">
        <ele>71.4</ele>
        <time>2022-11-09T15:31:10Z</time>
      </trkpt>
      <trkpt lat="49.91984" lon="2.18933">
        <ele>71.4</ele>
        <time>2022-11-09T15:31:11Z</time>
      </trkpt>
      <trkpt lat="49.91985" lon="2.18935">
        <ele>71.4</ele>
        <time>2022-11-09T15:31:12Z</time>
      </trkpt>
      <trkpt lat="49.91985" lon="2.18936">
        <ele>71.3</ele>
        <time>2022-11-09T15:31:13Z</time>
      </trkpt>
      <trkpt lat="49.91986" lon="2.18938">
        <ele>71.3</ele>
        <time>2022-11-09T15:31:14Z</time>
      </trkpt>
      <trkpt lat="49.91987" lon="2.18939">
        <ele>71.3</ele>
        <time>2022-11-09T15:31:15Z</time>
      </trkpt>
      <trkpt lat="49.91988" lon="2.18941">
        <ele>71.3</ele>
        <time>2022-11-09T15:31:17Z</time>
      </trkpt>
      <trkpt lat="49.91989" lon="2.18942">
        <ele>71.3</ele>
        <time>2022-11-09T15:31:18Z</time>
      </trkpt>
      <trkpt lat="49.91989" lon="2.18943">
        <ele>71.2</ele>
        <time>2022-11-09T15:31:19Z</time>
      </trkpt>
      <trkpt lat="49.9199" lon="2.18945">
        <ele>71.2</ele>
        <time>2022-11-09T15:31:20Z</time>
      </trkpt>
      <trkpt lat="49.9199" lon="2.18946">
        <ele>71.2</ele>
        <time>2022-11-09T15:31:21Z</time>
      </trkpt>
      <trkpt lat="49.91991" lon="2.18948">
        <ele>71.2</ele>
        <time>2022-11-09T15:31:22Z</time>
      </trkpt>
      <trkpt lat="49.91992" lon="2.18949">
        <ele>71.2</ele>
        <time>2022-11-09T15:31:23Z</time>
      </trkpt>
      <trkpt lat="49.91992" lon="2.18951">
        <ele>71.1</ele>
        <time>2022-11-09T15:31:25Z</time>
      </trkpt>
      <trkpt lat="49.91993" lon="2.18952">
        <ele>71.1</ele>
        <time>2022-11-09T15:31:26Z</time>
      </trkpt>
      <trkpt lat="49.91994" lon="2.18953">
        <ele>71.1</ele>
        <time>2022-11-09T15:31:27Z</time>
      </trkpt>
      <trkpt lat="49.91995" lon="2.18956">
        <ele>71.1</ele>
        <time>2022-11-09T15:31:28Z</time>
      </trkpt>
      <trkpt lat="49.91995" lon="2.18957">
        <ele>71.1</ele>
        <time>2022-11-09T15:31:29Z</time>
      </trkpt>
      <trkpt lat="49.91996" lon="2.18958">
        <ele>71.1</ele>
        <time>2022-11-09T15:31:30Z</time>
      </trkpt>
      <trkpt lat="49.91996" lon="2.1896">
        <ele>71</ele>
        <time>2022-11-09T15:31:32Z</time>
      </trkpt>
      <trkpt lat="49.91997" lon="2.18961">
        <ele>71</ele>
        <time>2022-11-09T15:31:33Z</time>
      </trkpt>
      <trkpt lat="49.91997" lon="2.18962">
        <ele>71</ele>
        <time>2022-11-09T15:31:34Z</time>
      </trkpt>
      <trkpt lat="49.91998" lon="2.18963">
        <ele>71</ele>
        <time>2022-11-09T15:31:35Z</time>
      </trkpt>
      <trkpt lat="49.91999" lon="2.18965">
        <ele>71</ele>
        <time>2022-11-09T15:31:36Z</time>
      </trkpt>
      <trkpt lat="49.92" lon="2.18966">
        <ele>71</ele>
        <time>2022-11-09T15:31:37Z</time>
      </trkpt>
      <trkpt lat="49.92" lon="2.18968">
        <ele>71</ele>
        <time>2022-11-09T15:31:38Z</time>
      </trkpt>
      <trkpt lat="49.92001" lon="2.18969">
        <ele>70.9</ele>
        <time>2022-11-09T15:31:39Z</time>
      </trkpt>
      <trkpt lat="49.92002" lon="2.1897">
        <ele>70.9</ele>
        <time>2022-11-09T15:31:40Z</time>
      </trkpt>
      <trkpt lat="49.92003" lon="2.18971">
        <ele>70.9</ele>
        <time>2022-11-09T15:31:41Z</time>
      </trkpt>
      <trkpt lat="49.92003" lon="2.18973">
        <ele>70.9</ele>
        <time>2022-11-09T15:31:43Z</time>
      </trkpt>
      <trkpt lat="49.92004" lon="2.18974">
        <ele>70.9</ele>
        <time>2022-11-09T15:31:44Z</time>
      </trkpt>
      <trkpt lat="49.92004" lon="2.18977">
        <ele>70.9</ele>
        <time>2022-11-09T15:31:45Z</time>
      </trkpt>
      <trkpt lat="49.92005" lon="2.18978">
        <ele>70.9</ele>
        <time>2022-11-09T15:31:46Z</time>
      </trkpt>
      <trkpt lat="49.92005" lon="2.18979">
        <ele>70.9</ele>
        <time>2022-11-09T15:31:47Z</time>
      </trkpt>
      <trkpt lat="49.92005" lon="2.1898">
        <ele>70.9</ele>
        <time>2022-11-09T15:31:48Z</time>
      </trkpt>
      <trkpt lat="49.92006" lon="2.18981">
        <ele>70.9</ele>
        <time>2022-11-09T15:31:50Z</time>
      </trkpt>
      <trkpt lat="49.92006" lon="2.18982">
        <ele>70.9</ele>
        <time>2022-11-09T15:31:51Z</time>
      </trkpt>
      <trkpt lat="49.92005" lon="2.18983">
        <ele>70.9</ele>
        <time>2022-11-09T15:31:52Z</time>
      </trkpt>
      <trkpt lat="49.92005" lon="2.18984">
        <ele>70.9</ele>
        <time>2022-11-09T15:31:53Z</time>
      </trkpt>
      <trkpt lat="49.92005" lon="2.18984">
        <ele>70.9</ele>
        <time>2022-11-09T15:31:54Z</time>
      </trkpt>
      <trkpt lat="49.92004" lon="2.18984">
        <ele>70.9</ele>
        <time>2022-11-09T15:31:55Z</time>
      </trkpt>
      <trkpt lat="49.92004" lon="2.18984">
        <ele>70.9</ele>
        <time>2022-11-09T15:31:56Z</time>
      </trkpt>
      <trkpt lat="49.92004" lon="2.18984">
        <ele>70.9</ele>
        <time>2022-11-09T15:31:57Z</time>
      </trkpt>
      <trkpt lat="49.92003" lon="2.18984">
        <ele>70.9</ele>
        <time>2022-11-09T15:31:58Z</time>
      </trkpt>
      <trkpt lat="49.92003" lon="2.18984">
        <ele>70.9</ele>
        <time>2022-11-09T15:31:59Z</time>
      </trkpt>
      <trkpt lat="49.92003" lon="2.18984">
        <ele>70.9</ele>
        <time>2022-11-09T15:32:00Z</time>
      </trkpt>
      <trkpt lat="49.92003" lon="2.18984">
        <ele>70.9</ele>
        <time>2022-11-09T15:32:01Z</time>
      </trkpt>
      <trkpt lat="49.92003" lon="2.18984">
        <ele>70.9</ele>
        <time>2022-11-09T15:32:02Z</time>
      </trkpt>
      <trkpt lat="49.92003" lon="2.18984">
        <ele>70.9</ele>
        <time>2022-11-09T15:32:03Z</time>
      </trkpt>
      <trkpt lat="49.92003" lon="2.18984">
        <ele>70.9</ele>
        <time>2022-11-09T15:32:04Z</time>
      </trkpt>
      <trkpt lat="49.92003" lon="2.18984">
        <ele>70.9</ele>
        <time>2022-11-09T15:32:05Z</time>
      </trkpt>
      <trkpt lat="49.92003" lon="2.18984">
        <ele>70.9</ele>
        <time>2022-11-09T15:32:06Z</time>
      </trkpt>
      <trkpt lat="49.92003" lon="2.18984">
        <ele>70.9</ele>
        <time>2022-11-09T15:32:07Z</time>
      </trkpt>
      <trkpt lat="49.92003" lon="2.18984">
        <ele>70.9</ele>
        <time>2022-11-09T15:32:08Z</time>
      </trkpt>
      <trkpt lat="49.92003" lon="2.18984">
        <ele>70.9</ele>
        <time>2022-11-09T15:32:09Z</time>
      </trkpt>
      <trkpt lat="49.92003" lon="2.18984">
        <ele>70.9</ele>
        <time>2022-11-09T15:32:10Z</time>
      </trkpt>
      <trkpt lat="49.92003" lon="2.18983">
        <ele>70.9</ele>
        <time>2022-11-09T15:32:11Z</time>
      </trkpt>
      <trkpt lat="49.92003" lon="2.18983">
        <ele>70.8</ele>
        <time>2022-11-09T15:32:12Z</time>
      </trkpt>
      <trkpt lat="49.92003" lon="2.18982">
        <ele>70.8</ele>
        <time>2022-11-09T15:32:13Z</time>
      </trkpt>
      <trkpt lat="49.92003" lon="2.18982">
        <ele>70.8</ele>
        <time>2022-11-09T15:32:14Z</time>
      </trkpt>
      <trkpt lat="49.92003" lon="2.18982">
        <ele>70.8</ele>
        <time>2022-11-09T15:32:15Z</time>
      </trkpt>
      <trkpt lat="49.92003" lon="2.18981">
        <ele>70.8</ele>
        <time>2022-11-09T15:32:16Z</time>
      </trkpt>
      <trkpt lat="49.92003" lon="2.1898">
        <ele>70.8</ele>
        <time>2022-11-09T15:32:17Z</time>
      </trkpt>
      <trkpt lat="49.92002" lon="2.18982">
        <ele>70.8</ele>
        <time>2022-11-09T15:32:18Z</time>
      </trkpt>
      <trkpt lat="49.92002" lon="2.18982">
        <ele>70.8</ele>
        <time>2022-11-09T15:32:19Z</time>
      </trkpt>
      <trkpt lat="49.92001" lon="2.18983">
        <ele>70.8</ele>
        <time>2022-11-09T15:32:20Z</time>
      </trkpt>
      <trkpt lat="49.92001" lon="2.18984">
        <ele>70.8</ele>
        <time>2022-11-09T15:32:21Z</time>
      </trkpt>
      <trkpt lat="49.92001" lon="2.18985">
        <ele>70.8</ele>
        <time>2022-11-09T15:32:22Z</time>
      </trkpt>
      <trkpt lat="49.92001" lon="2.18986">
        <ele>70.8</ele>
        <time>2022-11-09T15:32:24Z</time>
      </trkpt>
      <trkpt lat="49.92" lon="2.18987">
        <ele>70.8</ele>
        <time>2022-11-09T15:32:25Z</time>
      </trkpt>
      <trkpt lat="49.92" lon="2.18987">
        <ele>70.8</ele>
        <time>2022-11-09T15:32:26Z</time>
      </trkpt>
      <trkpt lat="49.92" lon="2.18988">
        <ele>70.8</ele>
        <time>2022-11-09T15:32:27Z</time>
      </trkpt>
      <trkpt lat="49.92" lon="2.18989">
        <ele>70.8</ele>
        <time>2022-11-09T15:32:28Z</time>
      </trkpt>
      <trkpt lat="49.92001" lon="2.1899">
        <ele>70.8</ele>
        <time>2022-11-09T15:32:29Z</time>
      </trkpt>
      <trkpt lat="49.92001" lon="2.1899">
        <ele>70.8</ele>
        <time>2022-11-09T15:32:30Z</time>
      </trkpt>
      <trkpt lat="49.92001" lon="2.1899">
        <ele>70.8</ele>
        <time>2022-11-09T15:32:31Z</time>
      </trkpt>
      <trkpt lat="49.92001" lon="2.1899">
        <ele>70.8</ele>
        <time>2022-11-09T15:32:32Z</time>
      </trkpt>
      <trkpt lat="49.92001" lon="2.1899">
        <ele>70.8</ele>
        <time>2022-11-09T15:32:33Z</time>
      </trkpt>
      <trkpt lat="49.92001" lon="2.18989">
        <ele>70.8</ele>
        <time>2022-11-09T15:32:34Z</time>
      </trkpt>
      <trkpt lat="49.92002" lon="2.18989">
        <ele>70.8</ele>
        <time>2022-11-09T15:32:35Z</time>
      </trkpt>
      <trkpt lat="49.92002" lon="2.18989">
        <ele>70.8</ele>
        <time>2022-11-09T15:32:36Z</time>
      </trkpt>
      <trkpt lat="49.92002" lon="2.18989">
        <ele>70.8</ele>
        <time>2022-11-09T15:32:37Z</time>
      </trkpt>
      <trkpt lat="49.92002" lon="2.18989">
        <ele>70.8</ele>
        <time>2022-11-09T15:32:38Z</time>
      </trkpt>
      <trkpt lat="49.92002" lon="2.18989">
        <ele>70.8</ele>
        <time>2022-11-09T15:32:39Z</time>
      </trkpt>
      <trkpt lat="49.92002" lon="2.18989">
        <ele>70.8</ele>
        <time>2022-11-09T15:32:40Z</time>
      </trkpt>
      <trkpt lat="49.92002" lon="2.18989">
        <ele>70.8</ele>
        <time>2022-11-09T15:32:41Z</time>
      </trkpt>
      <trkpt lat="49.92003" lon="2.18988">
        <ele>70.8</ele>
        <time>2022-11-09T15:32:42Z</time>
      </trkpt>
      <trkpt lat="49.92003" lon="2.18988">
        <ele>70.8</ele>
        <time>2022-11-09T15:32:43Z</time>
      </trkpt>
      <trkpt lat="49.92004" lon="2.18989">
        <ele>70.8</ele>
        <time>2022-11-09T15:32:44Z</time>
      </trkpt>
      <trkpt lat="49.92005" lon="2.18989">
        <ele>70.7</ele>
        <time>2022-11-09T15:32:45Z</time>
      </trkpt>
      <trkpt lat="49.92006" lon="2.1899">
        <ele>70.7</ele>
        <time>2022-11-09T15:32:47Z</time>
      </trkpt>
      <trkpt lat="49.92007" lon="2.18991">
        <ele>70.7</ele>
        <time>2022-11-09T15:32:48Z</time>
      </trkpt>
      <trkpt lat="49.92008" lon="2.18991">
        <ele>70.7</ele>
        <time>2022-11-09T15:32:49Z</time>
      </trkpt>
      <trkpt lat="49.92009" lon="2.18992">
        <ele>70.7</ele>
        <time>2022-11-09T15:32:51Z</time>
      </trkpt>
      <trkpt lat="49.9201" lon="2.18992">
        <ele>70.7</ele>
        <time>2022-11-09T15:32:52Z</time>
      </trkpt>
      <trkpt lat="49.9201" lon="2.18993">
        <ele>70.7</ele>
        <time>2022-11-09T15:32:53Z</time>
      </trkpt>
      <trkpt lat="49.92011" lon="2.18993">
        <ele>70.7</ele>
        <time>2022-11-09T15:32:54Z</time>
      </trkpt>
      <trkpt lat="49.92012" lon="2.18995">
        <ele>70.6</ele>
        <time>2022-11-09T15:32:55Z</time>
      </trkpt>
      <trkpt lat="49.92013" lon="2.18996">
        <ele>70.6</ele>
        <time>2022-11-09T15:32:56Z</time>
      </trkpt>
      <trkpt lat="49.92013" lon="2.18997">
        <ele>70.6</ele>
        <time>2022-11-09T15:32:58Z</time>
      </trkpt>
      <trkpt lat="49.92014" lon="2.18998">
        <ele>70.6</ele>
        <time>2022-11-09T15:32:59Z</time>
      </trkpt>
      <trkpt lat="49.92015" lon="2.18999">
        <ele>70.6</ele>
        <time>2022-11-09T15:33:00Z</time>
      </trkpt>
      <trkpt lat="49.92016" lon="2.19">
        <ele>70.6</ele>
        <time>2022-11-09T15:33:01Z</time>
      </trkpt>
      <trkpt lat="49.92016" lon="2.19001">
        <ele>70.5</ele>
        <time>2022-11-09T15:33:02Z</time>
      </trkpt>
      <trkpt lat="49.92017" lon="2.19002">
        <ele>70.5</ele>
        <time>2022-11-09T15:33:04Z</time>
      </trkpt>
      <trkpt lat="49.92018" lon="2.19003">
        <ele>70.5</ele>
        <time>2022-11-09T15:33:05Z</time>
      </trkpt>
      <trkpt lat="49.92019" lon="2.19004">
        <ele>70.5</ele>
        <time>2022-11-09T15:33:06Z</time>
      </trkpt>
      <trkpt lat="49.92019" lon="2.19004">
        <ele>70.5</ele>
        <time>2022-11-09T15:33:07Z</time>
      </trkpt>
      <trkpt lat="49.9202" lon="2.19005">
        <ele>70.4</ele>
        <time>2022-11-09T15:33:08Z</time>
      </trkpt>
      <trkpt lat="49.92021" lon="2.19007">
        <ele>70.4</ele>
        <time>2022-11-09T15:33:09Z</time>
      </trkpt>
      <trkpt lat="49.92022" lon="2.19008">
        <ele>70.4</ele>
        <time>2022-11-09T15:33:11Z</time>
      </trkpt>
      <trkpt lat="49.92022" lon="2.1901">
        <ele>70.4</ele>
        <time>2022-11-09T15:33:12Z</time>
      </trkpt>
      <trkpt lat="49.92022" lon="2.19011">
        <ele>70.3</ele>
        <time>2022-11-09T15:33:13Z</time>
      </trkpt>
      <trkpt lat="49.92023" lon="2.19012">
        <ele>70.3</ele>
        <time>2022-11-09T15:33:14Z</time>
      </trkpt>
      <trkpt lat="49.92024" lon="2.19012">
        <ele>70.3</ele>
        <time>2022-11-09T15:33:15Z</time>
      </trkpt>
      <trkpt lat="49.92024" lon="2.19014">
        <ele>70.3</ele>
        <time>2022-11-09T15:33:16Z</time>
      </trkpt>
      <trkpt lat="49.92025" lon="2.19015">
        <ele>70.2</ele>
        <time>2022-11-09T15:33:17Z</time>
      </trkpt>
      <trkpt lat="49.92025" lon="2.19016">
        <ele>70.2</ele>
        <time>2022-11-09T15:33:18Z</time>
      </trkpt>
      <trkpt lat="49.92026" lon="2.19017">
        <ele>70.2</ele>
        <time>2022-11-09T15:33:20Z</time>
      </trkpt>
      <trkpt lat="49.92026" lon="2.19019">
        <ele>70.2</ele>
        <time>2022-11-09T15:33:21Z</time>
      </trkpt>
      <trkpt lat="49.92027" lon="2.1902">
        <ele>70.2</ele>
        <time>2022-11-09T15:33:22Z</time>
      </trkpt>
      <trkpt lat="49.92027" lon="2.19021">
        <ele>70.1</ele>
        <time>2022-11-09T15:33:23Z</time>
      </trkpt>
      <trkpt lat="49.92028" lon="2.19022">
        <ele>70.1</ele>
        <time>2022-11-09T15:33:24Z</time>
      </trkpt>
      <trkpt lat="49.92029" lon="2.19023">
        <ele>70.1</ele>
        <time>2022-11-09T15:33:25Z</time>
      </trkpt>
      <trkpt lat="49.9203" lon="2.19025">
        <ele>70.1</ele>
        <time>2022-11-09T15:33:26Z</time>
      </trkpt>
      <trkpt lat="49.9203" lon="2.19025">
        <ele>70</ele>
        <time>2022-11-09T15:33:28Z</time>
      </trkpt>
      <trkpt lat="49.92031" lon="2.19026">
        <ele>70</ele>
        <time>2022-11-09T15:33:29Z</time>
      </trkpt>
      <trkpt lat="49.92031" lon="2.19026">
        <ele>70</ele>
        <time>2022-11-09T15:33:30Z</time>
      </trkpt>
      <trkpt lat="49.92032" lon="2.19027">
        <ele>70</ele>
        <time>2022-11-09T15:33:31Z</time>
      </trkpt>
      <trkpt lat="49.92033" lon="2.19028">
        <ele>70</ele>
        <time>2022-11-09T15:33:32Z</time>
      </trkpt>
      <trkpt lat="49.92033" lon="2.19029">
        <ele>70</ele>
        <time>2022-11-09T15:33:34Z</time>
      </trkpt>
      <trkpt lat="49.92034" lon="2.1903">
        <ele>69.9</ele>
        <time>2022-11-09T15:33:35Z</time>
      </trkpt>
      <trkpt lat="49.92035" lon="2.19031">
        <ele>69.9</ele>
        <time>2022-11-09T15:33:36Z</time>
      </trkpt>
      <trkpt lat="49.92035" lon="2.19032">
        <ele>69.9</ele>
        <time>2022-11-09T15:33:37Z</time>
      </trkpt>
      <trkpt lat="49.92036" lon="2.19032">
        <ele>69.9</ele>
        <time>2022-11-09T15:33:39Z</time>
      </trkpt>
      <trkpt lat="49.92037" lon="2.19033">
        <ele>69.9</ele>
        <time>2022-11-09T15:33:40Z</time>
      </trkpt>
      <trkpt lat="49.92038" lon="2.19034">
        <ele>69.8</ele>
        <time>2022-11-09T15:33:41Z</time>
      </trkpt>
      <trkpt lat="49.92038" lon="2.19035">
        <ele>69.8</ele>
        <time>2022-11-09T15:33:42Z</time>
      </trkpt>
      <trkpt lat="49.92039" lon="2.19037">
        <ele>69.8</ele>
        <time>2022-11-09T15:33:43Z</time>
      </trkpt>
      <trkpt lat="49.92039" lon="2.19038">
        <ele>69.8</ele>
        <time>2022-11-09T15:33:44Z</time>
      </trkpt>
      <trkpt lat="49.9204" lon="2.19039">
        <ele>69.8</ele>
        <time>2022-11-09T15:33:45Z</time>
      </trkpt>
      <trkpt lat="49.92041" lon="2.1904">
        <ele>69.7</ele>
        <time>2022-11-09T15:33:47Z</time>
      </trkpt>
      <trkpt lat="49.92041" lon="2.19041">
        <ele>69.7</ele>
        <time>2022-11-09T15:33:48Z</time>
      </trkpt>
      <trkpt lat="49.92042" lon="2.19042">
        <ele>69.7</ele>
        <time>2022-11-09T15:33:49Z</time>
      </trkpt>
      <trkpt lat="49.92043" lon="2.19043">
        <ele>69.7</ele>
        <time>2022-11-09T15:33:51Z</time>
      </trkpt>
      <trkpt lat="49.92044" lon="2.19044">
        <ele>69.6</ele>
        <time>2022-11-09T15:33:52Z</time>
      </trkpt>
      <trkpt lat="49.92045" lon="2.19045">
        <ele>69.6</ele>
        <time>2022-11-09T15:33:53Z</time>
      </trkpt>
      <trkpt lat="49.92046" lon="2.19046">
        <ele>69.6</ele>
        <time>2022-11-09T15:33:54Z</time>
      </trkpt>
      <trkpt lat="49.92047" lon="2.19047">
        <ele>69.5</ele>
        <time>2022-11-09T15:33:55Z</time>
      </trkpt>
      <trkpt lat="49.92048" lon="2.19048">
        <ele>69.5</ele>
        <time>2022-11-09T15:33:56Z</time>
      </trkpt>
      <trkpt lat="49.92049" lon="2.19049">
        <ele>69.5</ele>
        <time>2022-11-09T15:33:57Z</time>
      </trkpt>
      <trkpt lat="49.9205" lon="2.1905">
        <ele>69.5</ele>
        <time>2022-11-09T15:33:58Z</time>
      </trkpt>
      <trkpt lat="49.92051" lon="2.19051">
        <ele>69.4</ele>
        <time>2022-11-09T15:33:59Z</time>
      </trkpt>
      <trkpt lat="49.92052" lon="2.19052">
        <ele>69.4</ele>
        <time>2022-11-09T15:34:01Z</time>
      </trkpt>
      <trkpt lat="49.92053" lon="2.19053">
        <ele>69.4</ele>
        <time>2022-11-09T15:34:02Z</time>
      </trkpt>
      <trkpt lat="49.92054" lon="2.19054">
        <ele>69.3</ele>
        <time>2022-11-09T15:34:03Z</time>
      </trkpt>
      <trkpt lat="49.92054" lon="2.19056">
        <ele>69.3</ele>
        <time>2022-11-09T15:34:04Z</time>
      </trkpt>
      <trkpt lat="49.92056" lon="2.19059">
        <ele>69.3</ele>
        <time>2022-11-09T15:34:05Z</time>
      </trkpt>
      <trkpt lat="49.92056" lon="2.1906">
        <ele>69.2</ele>
        <time>2022-11-09T15:34:06Z</time>
      </trkpt>
      <trkpt lat="49.92057" lon="2.19061">
        <ele>69.2</ele>
        <time>2022-11-09T15:34:07Z</time>
      </trkpt>
      <trkpt lat="49.92058" lon="2.19064">
        <ele>69.2</ele>
        <time>2022-11-09T15:34:08Z</time>
      </trkpt>
      <trkpt lat="49.92059" lon="2.19064">
        <ele>69.1</ele>
        <time>2022-11-09T15:34:09Z</time>
      </trkpt>
      <trkpt lat="49.92059" lon="2.19065">
        <ele>69.1</ele>
        <time>2022-11-09T15:34:10Z</time>
      </trkpt>
      <trkpt lat="49.9206" lon="2.19067">
        <ele>69.1</ele>
        <time>2022-11-09T15:34:12Z</time>
      </trkpt>
      <trkpt lat="49.92061" lon="2.19068">
        <ele>69.1</ele>
        <time>2022-11-09T15:34:13Z</time>
      </trkpt>
      <trkpt lat="49.92062" lon="2.19069">
        <ele>69</ele>
        <time>2022-11-09T15:34:14Z</time>
      </trkpt>
      <trkpt lat="49.92063" lon="2.19072">
        <ele>69</ele>
        <time>2022-11-09T15:34:15Z</time>
      </trkpt>
      <trkpt lat="49.92064" lon="2.19073">
        <ele>69</ele>
        <time>2022-11-09T15:34:16Z</time>
      </trkpt>
      <trkpt lat="49.92064" lon="2.19074">
        <ele>69</ele>
        <time>2022-11-09T15:34:17Z</time>
      </trkpt>
      <trkpt lat="49.92066" lon="2.19076">
        <ele>68.9</ele>
        <time>2022-11-09T15:34:18Z</time>
      </trkpt>
      <trkpt lat="49.92066" lon="2.19077">
        <ele>68.9</ele>
        <time>2022-11-09T15:34:19Z</time>
      </trkpt>
      <trkpt lat="49.92067" lon="2.19078">
        <ele>68.9</ele>
        <time>2022-11-09T15:34:20Z</time>
      </trkpt>
      <trkpt lat="49.92068" lon="2.19079">
        <ele>68.9</ele>
        <time>2022-11-09T15:34:21Z</time>
      </trkpt>
      <trkpt lat="49.92069" lon="2.19081">
        <ele>68.8</ele>
        <time>2022-11-09T15:34:23Z</time>
      </trkpt>
      <trkpt lat="49.92069" lon="2.19082">
        <ele>68.8</ele>
        <time>2022-11-09T15:34:24Z</time>
      </trkpt>
      <trkpt lat="49.9207" lon="2.19083">
        <ele>68.8</ele>
        <time>2022-11-09T15:34:25Z</time>
      </trkpt>
      <trkpt lat="49.92071" lon="2.19084">
        <ele>68.8</ele>
        <time>2022-11-09T15:34:26Z</time>
      </trkpt>
      <trkpt lat="49.92072" lon="2.19085">
        <ele>68.7</ele>
        <time>2022-11-09T15:34:27Z</time>
      </trkpt>
      <trkpt lat="49.92072" lon="2.19087">
        <ele>68.7</ele>
        <time>2022-11-09T15:34:28Z</time>
      </trkpt>
      <trkpt lat="49.92073" lon="2.19088">
        <ele>68.7</ele>
        <time>2022-11-09T15:34:29Z</time>
      </trkpt>
      <trkpt lat="49.92074" lon="2.19089">
        <ele>68.7</ele>
        <time>2022-11-09T15:34:30Z</time>
      </trkpt>
      <trkpt lat="49.92075" lon="2.1909">
        <ele>68.6</ele>
        <time>2022-11-09T15:34:32Z</time>
      </trkpt>
      <trkpt lat="49.92075" lon="2.19091">
        <ele>68.6</ele>
        <time>2022-11-09T15:34:33Z</time>
      </trkpt>
      <trkpt lat="49.92076" lon="2.19092">
        <ele>68.6</ele>
        <time>2022-11-09T15:34:34Z</time>
      </trkpt>
      <trkpt lat="49.92076" lon="2.19094">
        <ele>68.6</ele>
        <time>2022-11-09T15:34:35Z</time>
      </trkpt>
      <trkpt lat="49.92077" lon="2.19095">
        <ele>68.5</ele>
        <time>2022-11-09T15:34:36Z</time>
      </trkpt>
      <trkpt lat="49.92078" lon="2.19096">
        <ele>68.5</ele>
        <time>2022-11-09T15:34:37Z</time>
      </trkpt>
      <trkpt lat="49.92079" lon="2.19098">
        <ele>68.5</ele>
        <time>2022-11-09T15:34:39Z</time>
      </trkpt>
      <trkpt lat="49.9208" lon="2.19099">
        <ele>68.5</ele>
        <time>2022-11-09T15:34:40Z</time>
      </trkpt>
      <trkpt lat="49.9208" lon="2.191">
        <ele>68.4</ele>
        <time>2022-11-09T15:34:41Z</time>
      </trkpt>
      <trkpt lat="49.92081" lon="2.19101">
        <ele>68.4</ele>
        <time>2022-11-09T15:34:42Z</time>
      </trkpt>
      <trkpt lat="49.92081" lon="2.19102">
        <ele>68.4</ele>
        <time>2022-11-09T15:34:43Z</time>
      </trkpt>
      <trkpt lat="49.92082" lon="2.19103">
        <ele>68.4</ele>
        <time>2022-11-09T15:34:44Z</time>
      </trkpt>
      <trkpt lat="49.92083" lon="2.19104">
        <ele>68.4</ele>
        <time>2022-11-09T15:34:45Z</time>
      </trkpt>
      <trkpt lat="49.92084" lon="2.19106">
        <ele>68.3</ele>
        <time>2022-11-09T15:34:46Z</time>
      </trkpt>
      <trkpt lat="49.92085" lon="2.19107">
        <ele>68.3</ele>
        <time>2022-11-09T15:34:47Z</time>
      </trkpt>
      <trkpt lat="49.92086" lon="2.19109">
        <ele>68.3</ele>
        <time>2022-11-09T15:34:48Z</time>
      </trkpt>
      <trkpt lat="49.92087" lon="2.1911">
        <ele>68.2</ele>
        <time>2022-11-09T15:34:49Z</time>
      </trkpt>
      <trkpt lat="49.92088" lon="2.19112">
        <ele>68.2</ele>
        <time>2022-11-09T15:34:51Z</time>
      </trkpt>
      <trkpt lat="49.92088" lon="2.19113">
        <ele>68.2</ele>
        <time>2022-11-09T15:34:52Z</time>
      </trkpt>
      <trkpt lat="49.92089" lon="2.19114">
        <ele>68.2</ele>
        <time>2022-11-09T15:34:53Z</time>
      </trkpt>
      <trkpt lat="49.9209" lon="2.19115">
        <ele>68.1</ele>
        <time>2022-11-09T15:34:54Z</time>
      </trkpt>
      <trkpt lat="49.92091" lon="2.19116">
        <ele>68.1</ele>
        <time>2022-11-09T15:34:55Z</time>
      </trkpt>
      <trkpt lat="49.92092" lon="2.19117">
        <ele>68.1</ele>
        <time>2022-11-09T15:34:56Z</time>
      </trkpt>
      <trkpt lat="49.92093" lon="2.19118">
        <ele>68.1</ele>
        <time>2022-11-09T15:34:57Z</time>
      </trkpt>
      <trkpt lat="49.92094" lon="2.19119">
        <ele>68</ele>
        <time>2022-11-09T15:34:58Z</time>
      </trkpt>
      <trkpt lat="49.92095" lon="2.19121">
        <ele>68</ele>
        <time>2022-11-09T15:34:59Z</time>
      </trkpt>
      <trkpt lat="49.92096" lon="2.19122">
        <ele>68</ele>
        <time>2022-11-09T15:35:01Z</time>
      </trkpt>
      <trkpt lat="49.92097" lon="2.19123">
        <ele>68</ele>
        <time>2022-11-09T15:35:02Z</time>
      </trkpt>
      <trkpt lat="49.92097" lon="2.19124">
        <ele>67.9</ele>
        <time>2022-11-09T15:35:03Z</time>
      </trkpt>
      <trkpt lat="49.92099" lon="2.19126">
        <ele>67.9</ele>
        <time>2022-11-09T15:35:04Z</time>
      </trkpt>
      <trkpt lat="49.921" lon="2.19127">
        <ele>67.9</ele>
        <time>2022-11-09T15:35:05Z</time>
      </trkpt>
      <trkpt lat="49.921" lon="2.19128">
        <ele>67.9</ele>
        <time>2022-11-09T15:35:06Z</time>
      </trkpt>
      <trkpt lat="49.92102" lon="2.1913">
        <ele>67.8</ele>
        <time>2022-11-09T15:35:08Z</time>
      </trkpt>
      <trkpt lat="49.92103" lon="2.19131">
        <ele>67.8</ele>
        <time>2022-11-09T15:35:09Z</time>
      </trkpt>
      <trkpt lat="49.92103" lon="2.19132">
        <ele>67.8</ele>
        <time>2022-11-09T15:35:10Z</time>
      </trkpt>
      <trkpt lat="49.92104" lon="2.19134">
        <ele>67.7</ele>
        <time>2022-11-09T15:35:11Z</time>
      </trkpt>
      <trkpt lat="49.92105" lon="2.19135">
        <ele>67.7</ele>
        <time>2022-11-09T15:35:12Z</time>
      </trkpt>
      <trkpt lat="49.92106" lon="2.19136">
        <ele>67.7</ele>
        <time>2022-11-09T15:35:13Z</time>
      </trkpt>
      <trkpt lat="49.92107" lon="2.19139">
        <ele>67.7</ele>
        <time>2022-11-09T15:35:14Z</time>
      </trkpt>
      <trkpt lat="49.92108" lon="2.1914">
        <ele>67.6</ele>
        <time>2022-11-09T15:35:16Z</time>
      </trkpt>
      <trkpt lat="49.92109" lon="2.19141">
        <ele>67.6</ele>
        <time>2022-11-09T15:35:17Z</time>
      </trkpt>
      <trkpt lat="49.92109" lon="2.19142">
        <ele>67.6</ele>
        <time>2022-11-09T15:35:18Z</time>
      </trkpt>
      <trkpt lat="49.9211" lon="2.19144">
        <ele>67.6</ele>
        <time>2022-11-09T15:35:19Z</time>
      </trkpt>
      <trkpt lat="49.92111" lon="2.19145">
        <ele>67.5</ele>
        <time>2022-11-09T15:35:20Z</time>
      </trkpt>
      <trkpt lat="49.92112" lon="2.19146">
        <ele>67.5</ele>
        <time>2022-11-09T15:35:21Z</time>
      </trkpt>
      <trkpt lat="49.92112" lon="2.19148">
        <ele>67.5</ele>
        <time>2022-11-09T15:35:22Z</time>
      </trkpt>
      <trkpt lat="49.92114" lon="2.1915">
        <ele>67.5</ele>
        <time>2022-11-09T15:35:24Z</time>
      </trkpt>
      <trkpt lat="49.92115" lon="2.19151">
        <ele>67.4</ele>
        <time>2022-11-09T15:35:25Z</time>
      </trkpt>
      <trkpt lat="49.92115" lon="2.19151">
        <ele>67.4</ele>
        <time>2022-11-09T15:35:26Z</time>
      </trkpt>
      <trkpt lat="49.92117" lon="2.19153">
        <ele>67.4</ele>
        <time>2022-11-09T15:35:27Z</time>
      </trkpt>
      <trkpt lat="49.92117" lon="2.19154">
        <ele>67.4</ele>
        <time>2022-11-09T15:35:28Z</time>
      </trkpt>
      <trkpt lat="49.92118" lon="2.19155">
        <ele>67.3</ele>
        <time>2022-11-09T15:35:29Z</time>
      </trkpt>
      <trkpt lat="49.92119" lon="2.19156">
        <ele>67.3</ele>
        <time>2022-11-09T15:35:30Z</time>
      </trkpt>
      <trkpt lat="49.9212" lon="2.19156">
        <ele>67.3</ele>
        <time>2022-11-09T15:35:31Z</time>
      </trkpt>
      <trkpt lat="49.92121" lon="2.19157">
        <ele>67.3</ele>
        <time>2022-11-09T15:35:32Z</time>
      </trkpt>
      <trkpt lat="49.92122" lon="2.19158">
        <ele>67.3</ele>
        <time>2022-11-09T15:35:33Z</time>
      </trkpt>
      <trkpt lat="49.92123" lon="2.19159">
        <ele>67.2</ele>
        <time>2022-11-09T15:35:34Z</time>
      </trkpt>
      <trkpt lat="49.92124" lon="2.1916">
        <ele>67.2</ele>
        <time>2022-11-09T15:35:35Z</time>
      </trkpt>
      <trkpt lat="49.92124" lon="2.19162">
        <ele>67.2</ele>
        <time>2022-11-09T15:35:36Z</time>
      </trkpt>
      <trkpt lat="49.92125" lon="2.19163">
        <ele>67.2</ele>
        <time>2022-11-09T15:35:37Z</time>
      </trkpt>
      <trkpt lat="49.92125" lon="2.19165">
        <ele>67.1</ele>
        <time>2022-11-09T15:35:39Z</time>
      </trkpt>
      <trkpt lat="49.92126" lon="2.19166">
        <ele>67.1</ele>
        <time>2022-11-09T15:35:40Z</time>
      </trkpt>
      <trkpt lat="49.92126" lon="2.19168">
        <ele>67.1</ele>
        <time>2022-11-09T15:35:41Z</time>
      </trkpt>
      <trkpt lat="49.92127" lon="2.19169">
        <ele>67.1</ele>
        <time>2022-11-09T15:35:42Z</time>
      </trkpt>
      <trkpt lat="49.92128" lon="2.19172">
        <ele>67</ele>
        <time>2022-11-09T15:35:43Z</time>
      </trkpt>
      <trkpt lat="49.92129" lon="2.19173">
        <ele>67</ele>
        <time>2022-11-09T15:35:44Z</time>
      </trkpt>
      <trkpt lat="49.92129" lon="2.19174">
        <ele>67</ele>
        <time>2022-11-09T15:35:45Z</time>
      </trkpt>
      <trkpt lat="49.9213" lon="2.19176">
        <ele>66.9</ele>
        <time>2022-11-09T15:35:46Z</time>
      </trkpt>
      <trkpt lat="49.92131" lon="2.19178">
        <ele>66.9</ele>
        <time>2022-11-09T15:35:47Z</time>
      </trkpt>
      <trkpt lat="49.92132" lon="2.19179">
        <ele>66.9</ele>
        <time>2022-11-09T15:35:49Z</time>
      </trkpt>
      <trkpt lat="49.92132" lon="2.1918">
        <ele>66.8</ele>
        <time>2022-11-09T15:35:50Z</time>
      </trkpt>
      <trkpt lat="49.92133" lon="2.19181">
        <ele>66.8</ele>
        <time>2022-11-09T15:35:51Z</time>
      </trkpt>
      <trkpt lat="49.92134" lon="2.19182">
        <ele>66.8</ele>
        <time>2022-11-09T15:35:52Z</time>
      </trkpt>
      <trkpt lat="49.92135" lon="2.19184">
        <ele>66.7</ele>
        <time>2022-11-09T15:35:53Z</time>
      </trkpt>
      <trkpt lat="49.92136" lon="2.19186">
        <ele>66.7</ele>
        <time>2022-11-09T15:35:54Z</time>
      </trkpt>
      <trkpt lat="49.92137" lon="2.19188">
        <ele>66.6</ele>
        <time>2022-11-09T15:35:56Z</time>
      </trkpt>
      <trkpt lat="49.92138" lon="2.19189">
        <ele>66.6</ele>
        <time>2022-11-09T15:35:57Z</time>
      </trkpt>
      <trkpt lat="49.92139" lon="2.19191">
        <ele>66.6</ele>
        <time>2022-11-09T15:35:58Z</time>
      </trkpt>
      <trkpt lat="49.92141" lon="2.19193">
        <ele>66.5</ele>
        <time>2022-11-09T15:35:59Z</time>
      </trkpt>
      <trkpt lat="49.92141" lon="2.19194">
        <ele>66.5</ele>
        <time>2022-11-09T15:36:00Z</time>
      </trkpt>
      <trkpt lat="49.92142" lon="2.19195">
        <ele>66.5</ele>
        <time>2022-11-09T15:36:01Z</time>
      </trkpt>
      <trkpt lat="49.92143" lon="2.19196">
        <ele>66.4</ele>
        <time>2022-11-09T15:36:02Z</time>
      </trkpt>
      <trkpt lat="49.92144" lon="2.19197">
        <ele>66.4</ele>
        <time>2022-11-09T15:36:03Z</time>
      </trkpt>
      <trkpt lat="49.92144" lon="2.19199">
        <ele>66.4</ele>
        <time>2022-11-09T15:36:04Z</time>
      </trkpt>
      <trkpt lat="49.92145" lon="2.192">
        <ele>66.3</ele>
        <time>2022-11-09T15:36:05Z</time>
      </trkpt>
      <trkpt lat="49.92145" lon="2.19202">
        <ele>66.3</ele>
        <time>2022-11-09T15:36:07Z</time>
      </trkpt>
      <trkpt lat="49.92146" lon="2.19203">
        <ele>66.3</ele>
        <time>2022-11-09T15:36:08Z</time>
      </trkpt>
      <trkpt lat="49.92147" lon="2.19205">
        <ele>66.3</ele>
        <time>2022-11-09T15:36:09Z</time>
      </trkpt>
      <trkpt lat="49.92147" lon="2.19207">
        <ele>66.2</ele>
        <time>2022-11-09T15:36:10Z</time>
      </trkpt>
      <trkpt lat="49.92148" lon="2.19208">
        <ele>66.2</ele>
        <time>2022-11-09T15:36:11Z</time>
      </trkpt>
      <trkpt lat="49.9215" lon="2.1921">
        <ele>66.2</ele>
        <time>2022-11-09T15:36:12Z</time>
      </trkpt>
      <trkpt lat="49.9215" lon="2.19211">
        <ele>66.1</ele>
        <time>2022-11-09T15:36:13Z</time>
      </trkpt>
      <trkpt lat="49.92151" lon="2.19212">
        <ele>66.1</ele>
        <time>2022-11-09T15:36:14Z</time>
      </trkpt>
      <trkpt lat="49.92152" lon="2.19214">
        <ele>66.1</ele>
        <time>2022-11-09T15:36:15Z</time>
      </trkpt>
      <trkpt lat="49.92153" lon="2.19215">
        <ele>66.1</ele>
        <time>2022-11-09T15:36:16Z</time>
      </trkpt>
      <trkpt lat="49.92153" lon="2.19217">
        <ele>66</ele>
        <time>2022-11-09T15:36:17Z</time>
      </trkpt>
      <trkpt lat="49.92154" lon="2.19218">
        <ele>66</ele>
        <time>2022-11-09T15:36:19Z</time>
      </trkpt>
      <trkpt lat="49.92155" lon="2.19219">
        <ele>66</ele>
        <time>2022-11-09T15:36:20Z</time>
      </trkpt>
      <trkpt lat="49.92156" lon="2.1922">
        <ele>66</ele>
        <time>2022-11-09T15:36:21Z</time>
      </trkpt>
      <trkpt lat="49.92157" lon="2.19223">
        <ele>65.9</ele>
        <time>2022-11-09T15:36:22Z</time>
      </trkpt>
      <trkpt lat="49.92158" lon="2.19223">
        <ele>65.9</ele>
        <time>2022-11-09T15:36:23Z</time>
      </trkpt>
      <trkpt lat="49.92159" lon="2.19224">
        <ele>65.9</ele>
        <time>2022-11-09T15:36:24Z</time>
      </trkpt>
      <trkpt lat="49.9216" lon="2.19227">
        <ele>65.8</ele>
        <time>2022-11-09T15:36:25Z</time>
      </trkpt>
      <trkpt lat="49.92161" lon="2.19228">
        <ele>65.8</ele>
        <time>2022-11-09T15:36:26Z</time>
      </trkpt>
      <trkpt lat="49.92161" lon="2.19229">
        <ele>65.8</ele>
        <time>2022-11-09T15:36:27Z</time>
      </trkpt>
      <trkpt lat="49.92162" lon="2.1923">
        <ele>65.7</ele>
        <time>2022-11-09T15:36:28Z</time>
      </trkpt>
      <trkpt lat="49.92163" lon="2.19232">
        <ele>65.7</ele>
        <time>2022-11-09T15:36:29Z</time>
      </trkpt>
      <trkpt lat="49.92164" lon="2.19233">
        <ele>65.7</ele>
        <time>2022-11-09T15:36:30Z</time>
      </trkpt>
      <trkpt lat="49.92165" lon="2.19235">
        <ele>65.6</ele>
        <time>2022-11-09T15:36:31Z</time>
      </trkpt>
      <trkpt lat="49.92166" lon="2.19236">
        <ele>65.6</ele>
        <time>2022-11-09T15:36:32Z</time>
      </trkpt>
      <trkpt lat="49.92166" lon="2.19237">
        <ele>65.6</ele>
        <time>2022-11-09T15:36:33Z</time>
      </trkpt>
      <trkpt lat="49.92167" lon="2.19238">
        <ele>65.5</ele>
        <time>2022-11-09T15:36:34Z</time>
      </trkpt>
      <trkpt lat="49.92168" lon="2.19239">
        <ele>65.5</ele>
        <time>2022-11-09T15:36:36Z</time>
      </trkpt>
      <trkpt lat="49.92169" lon="2.19241">
        <ele>65.5</ele>
        <time>2022-11-09T15:36:37Z</time>
      </trkpt>
      <trkpt lat="49.9217" lon="2.19243">
        <ele>65.4</ele>
        <time>2022-11-09T15:36:38Z</time>
      </trkpt>
      <trkpt lat="49.92171" lon="2.19244">
        <ele>65.4</ele>
        <time>2022-11-09T15:36:39Z</time>
      </trkpt>
      <trkpt lat="49.92172" lon="2.19245">
        <ele>65.3</ele>
        <time>2022-11-09T15:36:40Z</time>
      </trkpt>
      <trkpt lat="49.92172" lon="2.19247">
        <ele>65.3</ele>
        <time>2022-11-09T15:36:41Z</time>
      </trkpt>
      <trkpt lat="49.92174" lon="2.19249">
        <ele>65.2</ele>
        <time>2022-11-09T15:36:42Z</time>
      </trkpt>
      <trkpt lat="49.92175" lon="2.1925">
        <ele>65.2</ele>
        <time>2022-11-09T15:36:43Z</time>
      </trkpt>
      <trkpt lat="49.92175" lon="2.19251">
        <ele>65.2</ele>
        <time>2022-11-09T15:36:44Z</time>
      </trkpt>
      <trkpt lat="49.92176" lon="2.19252">
        <ele>65.1</ele>
        <time>2022-11-09T15:36:45Z</time>
      </trkpt>
      <trkpt lat="49.92177" lon="2.19253">
        <ele>65.1</ele>
        <time>2022-11-09T15:36:46Z</time>
      </trkpt>
      <trkpt lat="49.92178" lon="2.19255">
        <ele>65.1</ele>
        <time>2022-11-09T15:36:47Z</time>
      </trkpt>
      <trkpt lat="49.92179" lon="2.19257">
        <ele>65</ele>
        <time>2022-11-09T15:36:48Z</time>
      </trkpt>
      <trkpt lat="49.92179" lon="2.19258">
        <ele>65</ele>
        <time>2022-11-09T15:36:50Z</time>
      </trkpt>
      <trkpt lat="49.9218" lon="2.1926">
        <ele>64.9</ele>
        <time>2022-11-09T15:36:51Z</time>
      </trkpt>
      <trkpt lat="49.92181" lon="2.19262">
        <ele>64.9</ele>
        <time>2022-11-09T15:36:52Z</time>
      </trkpt>
      <trkpt lat="49.92182" lon="2.19263">
        <ele>64.9</ele>
        <time>2022-11-09T15:36:53Z</time>
      </trkpt>
      <trkpt lat="49.92182" lon="2.19265">
        <ele>64.8</ele>
        <time>2022-11-09T15:36:54Z</time>
      </trkpt>
      <trkpt lat="49.92183" lon="2.19266">
        <ele>64.8</ele>
        <time>2022-11-09T15:36:55Z</time>
      </trkpt>
      <trkpt lat="49.92183" lon="2.19268">
        <ele>64.8</ele>
        <time>2022-11-09T15:36:57Z</time>
      </trkpt>
      <trkpt lat="49.92184" lon="2.19269">
        <ele>64.7</ele>
        <time>2022-11-09T15:36:58Z</time>
      </trkpt>
      <trkpt lat="49.92184" lon="2.19271">
        <ele>64.7</ele>
        <time>2022-11-09T15:36:59Z</time>
      </trkpt>
      <trkpt lat="49.92185" lon="2.19272">
        <ele>64.7</ele>
        <time>2022-11-09T15:37:00Z</time>
      </trkpt>
      <trkpt lat="49.92186" lon="2.19274">
        <ele>64.6</ele>
        <time>2022-11-09T15:37:01Z</time>
      </trkpt>
      <trkpt lat="49.92187" lon="2.19276">
        <ele>64.6</ele>
        <time>2022-11-09T15:37:02Z</time>
      </trkpt>
      <trkpt lat="49.92187" lon="2.19277">
        <ele>64.5</ele>
        <time>2022-11-09T15:37:03Z</time>
      </trkpt>
      <trkpt lat="49.92188" lon="2.19278">
        <ele>64.5</ele>
        <time>2022-11-09T15:37:04Z</time>
      </trkpt>
      <trkpt lat="49.92189" lon="2.1928">
        <ele>64.5</ele>
        <time>2022-11-09T15:37:05Z</time>
      </trkpt>
      <trkpt lat="49.92189" lon="2.19281">
        <ele>64.5</ele>
        <time>2022-11-09T15:37:06Z</time>
      </trkpt>
      <trkpt lat="49.9219" lon="2.19282">
        <ele>64.4</ele>
        <time>2022-11-09T15:37:08Z</time>
      </trkpt>
      <trkpt lat="49.92191" lon="2.19284">
        <ele>64.4</ele>
        <time>2022-11-09T15:37:09Z</time>
      </trkpt>
      <trkpt lat="49.92192" lon="2.19285">
        <ele>64.4</ele>
        <time>2022-11-09T15:37:10Z</time>
      </trkpt>
      <trkpt lat="49.92192" lon="2.19286">
        <ele>64.3</ele>
        <time>2022-11-09T15:37:12Z</time>
      </trkpt>
      <trkpt lat="49.92193" lon="2.19288">
        <ele>64.3</ele>
        <time>2022-11-09T15:37:13Z</time>
      </trkpt>
      <trkpt lat="49.92194" lon="2.19289">
        <ele>64.3</ele>
        <time>2022-11-09T15:37:14Z</time>
      </trkpt>
      <trkpt lat="49.92194" lon="2.19291">
        <ele>64.2</ele>
        <time>2022-11-09T15:37:15Z</time>
      </trkpt>
      <trkpt lat="49.92195" lon="2.19293">
        <ele>64.2</ele>
        <time>2022-11-09T15:37:16Z</time>
      </trkpt>
      <trkpt lat="49.92196" lon="2.19294">
        <ele>64.2</ele>
        <time>2022-11-09T15:37:18Z</time>
      </trkpt>
      <trkpt lat="49.92196" lon="2.19294">
        <ele>64.1</ele>
        <time>2022-11-09T15:37:19Z</time>
      </trkpt>
      <trkpt lat="49.92197" lon="2.19295">
        <ele>64.1</ele>
        <time>2022-11-09T15:37:20Z</time>
      </trkpt>
      <trkpt lat="49.92197" lon="2.19296">
        <ele>64.1</ele>
        <time>2022-11-09T15:37:21Z</time>
      </trkpt>
      <trkpt lat="49.92198" lon="2.19297">
        <ele>64.1</ele>
        <time>2022-11-09T15:37:23Z</time>
      </trkpt>
      <trkpt lat="49.92199" lon="2.19298">
        <ele>64</ele>
        <time>2022-11-09T15:37:24Z</time>
      </trkpt>
      <trkpt lat="49.92199" lon="2.19299">
        <ele>64</ele>
        <time>2022-11-09T15:37:25Z</time>
      </trkpt>
      <trkpt lat="49.922" lon="2.193">
        <ele>64</ele>
        <time>2022-11-09T15:37:26Z</time>
      </trkpt>
      <trkpt lat="49.92201" lon="2.19301">
        <ele>63.9</ele>
        <time>2022-11-09T15:37:27Z</time>
      </trkpt>
      <trkpt lat="49.92201" lon="2.19302">
        <ele>63.9</ele>
        <time>2022-11-09T15:37:29Z</time>
      </trkpt>
      <trkpt lat="49.92202" lon="2.19304">
        <ele>63.9</ele>
        <time>2022-11-09T15:37:30Z</time>
      </trkpt>
      <trkpt lat="49.92202" lon="2.19305">
        <ele>63.8</ele>
        <time>2022-11-09T15:37:31Z</time>
      </trkpt>
      <trkpt lat="49.92203" lon="2.19307">
        <ele>63.8</ele>
        <time>2022-11-09T15:37:33Z</time>
      </trkpt>
      <trkpt lat="49.92204" lon="2.1931">
        <ele>63.7</ele>
        <time>2022-11-09T15:37:34Z</time>
      </trkpt>
      <trkpt lat="49.92204" lon="2.19311">
        <ele>63.7</ele>
        <time>2022-11-09T15:37:36Z</time>
      </trkpt>
      <trkpt lat="49.92205" lon="2.19312">
        <ele>63.7</ele>
        <time>2022-11-09T15:37:37Z</time>
      </trkpt>
      <trkpt lat="49.92206" lon="2.19314">
        <ele>63.7</ele>
        <time>2022-11-09T15:37:38Z</time>
      </trkpt>
      <trkpt lat="49.92206" lon="2.19315">
        <ele>63.6</ele>
        <time>2022-11-09T15:37:39Z</time>
      </trkpt>
      <trkpt lat="49.92207" lon="2.19316">
        <ele>63.6</ele>
        <time>2022-11-09T15:37:40Z</time>
      </trkpt>
      <trkpt lat="49.92207" lon="2.19317">
        <ele>63.6</ele>
        <time>2022-11-09T15:37:41Z</time>
      </trkpt>
      <trkpt lat="49.92208" lon="2.19319">
        <ele>63.6</ele>
        <time>2022-11-09T15:37:42Z</time>
      </trkpt>
      <trkpt lat="49.92208" lon="2.1932">
        <ele>63.5</ele>
        <time>2022-11-09T15:37:43Z</time>
      </trkpt>
      <trkpt lat="49.92208" lon="2.19321">
        <ele>63.5</ele>
        <time>2022-11-09T15:37:44Z</time>
      </trkpt>
      <trkpt lat="49.92209" lon="2.19322">
        <ele>63.5</ele>
        <time>2022-11-09T15:37:45Z</time>
      </trkpt>
      <trkpt lat="49.9221" lon="2.19323">
        <ele>63.5</ele>
        <time>2022-11-09T15:37:47Z</time>
      </trkpt>
      <trkpt lat="49.9221" lon="2.19324">
        <ele>63.4</ele>
        <time>2022-11-09T15:37:48Z</time>
      </trkpt>
      <trkpt lat="49.92211" lon="2.19324">
        <ele>63.4</ele>
        <time>2022-11-09T15:37:49Z</time>
      </trkpt>
      <trkpt lat="49.92212" lon="2.19325">
        <ele>63.4</ele>
        <time>2022-11-09T15:37:50Z</time>
      </trkpt>
      <trkpt lat="49.92213" lon="2.19326">
        <ele>63.3</ele>
        <time>2022-11-09T15:37:51Z</time>
      </trkpt>
      <trkpt lat="49.92215" lon="2.19328">
        <ele>63.3</ele>
        <time>2022-11-09T15:37:52Z</time>
      </trkpt>
      <trkpt lat="49.92216" lon="2.19329">
        <ele>63.3</ele>
        <time>2022-11-09T15:37:54Z</time>
      </trkpt>
      <trkpt lat="49.92216" lon="2.1933">
        <ele>63.2</ele>
        <time>2022-11-09T15:37:55Z</time>
      </trkpt>
      <trkpt lat="49.92217" lon="2.19331">
        <ele>63.2</ele>
        <time>2022-11-09T15:37:56Z</time>
      </trkpt>
      <trkpt lat="49.92217" lon="2.19333">
        <ele>63.2</ele>
        <time>2022-11-09T15:37:57Z</time>
      </trkpt>
      <trkpt lat="49.92218" lon="2.19335">
        <ele>63.1</ele>
        <time>2022-11-09T15:37:58Z</time>
      </trkpt>
      <trkpt lat="49.92218" lon="2.19336">
        <ele>63.1</ele>
        <time>2022-11-09T15:37:59Z</time>
      </trkpt>
      <trkpt lat="49.92219" lon="2.19338">
        <ele>63.1</ele>
        <time>2022-11-09T15:38:00Z</time>
      </trkpt>
      <trkpt lat="49.92219" lon="2.19339">
        <ele>63.1</ele>
        <time>2022-11-09T15:38:01Z</time>
      </trkpt>
      <trkpt lat="49.9222" lon="2.19342">
        <ele>63</ele>
        <time>2022-11-09T15:38:02Z</time>
      </trkpt>
      <trkpt lat="49.92221" lon="2.19344">
        <ele>63</ele>
        <time>2022-11-09T15:38:04Z</time>
      </trkpt>
      <trkpt lat="49.92221" lon="2.19345">
        <ele>62.9</ele>
        <time>2022-11-09T15:38:05Z</time>
      </trkpt>
      <trkpt lat="49.92222" lon="2.19348">
        <ele>62.9</ele>
        <time>2022-11-09T15:38:06Z</time>
      </trkpt>
      <trkpt lat="49.92222" lon="2.19349">
        <ele>62.9</ele>
        <time>2022-11-09T15:38:08Z</time>
      </trkpt>
      <trkpt lat="49.92223" lon="2.1935">
        <ele>62.8</ele>
        <time>2022-11-09T15:38:09Z</time>
      </trkpt>
      <trkpt lat="49.92224" lon="2.19353">
        <ele>62.8</ele>
        <time>2022-11-09T15:38:10Z</time>
      </trkpt>
      <trkpt lat="49.92224" lon="2.19354">
        <ele>62.7</ele>
        <time>2022-11-09T15:38:11Z</time>
      </trkpt>
      <trkpt lat="49.92225" lon="2.19355">
        <ele>62.7</ele>
        <time>2022-11-09T15:38:12Z</time>
      </trkpt>
      <trkpt lat="49.92226" lon="2.19358">
        <ele>62.6</ele>
        <time>2022-11-09T15:38:13Z</time>
      </trkpt>
      <trkpt lat="49.92227" lon="2.19359">
        <ele>62.6</ele>
        <time>2022-11-09T15:38:14Z</time>
      </trkpt>
      <trkpt lat="49.92227" lon="2.19359">
        <ele>62.6</ele>
        <time>2022-11-09T15:38:15Z</time>
      </trkpt>
      <trkpt lat="49.92228" lon="2.19361">
        <ele>62.5</ele>
        <time>2022-11-09T15:38:16Z</time>
      </trkpt>
      <trkpt lat="49.92229" lon="2.19362">
        <ele>62.5</ele>
        <time>2022-11-09T15:38:17Z</time>
      </trkpt>
      <trkpt lat="49.92229" lon="2.19364">
        <ele>62.5</ele>
        <time>2022-11-09T15:38:19Z</time>
      </trkpt>
      <trkpt lat="49.9223" lon="2.19365">
        <ele>62.4</ele>
        <time>2022-11-09T15:38:20Z</time>
      </trkpt>
      <trkpt lat="49.92231" lon="2.19366">
        <ele>62.4</ele>
        <time>2022-11-09T15:38:21Z</time>
      </trkpt>
      <trkpt lat="49.92232" lon="2.19368">
        <ele>62.3</ele>
        <time>2022-11-09T15:38:22Z</time>
      </trkpt>
      <trkpt lat="49.92233" lon="2.19368">
        <ele>62.3</ele>
        <time>2022-11-09T15:38:23Z</time>
      </trkpt>
      <trkpt lat="49.92234" lon="2.1937">
        <ele>62.3</ele>
        <time>2022-11-09T15:38:24Z</time>
      </trkpt>
      <trkpt lat="49.92235" lon="2.19372">
        <ele>62.2</ele>
        <time>2022-11-09T15:38:26Z</time>
      </trkpt>
      <trkpt lat="49.92236" lon="2.19374">
        <ele>62.1</ele>
        <time>2022-11-09T15:38:27Z</time>
      </trkpt>
      <trkpt lat="49.92237" lon="2.19375">
        <ele>62.1</ele>
        <time>2022-11-09T15:38:28Z</time>
      </trkpt>
      <trkpt lat="49.92238" lon="2.19376">
        <ele>62.1</ele>
        <time>2022-11-09T15:38:29Z</time>
      </trkpt>
      <trkpt lat="49.92239" lon="2.19378">
        <ele>62</ele>
        <time>2022-11-09T15:38:30Z</time>
      </trkpt>
      <trkpt lat="49.92239" lon="2.19379">
        <ele>62</ele>
        <time>2022-11-09T15:38:31Z</time>
      </trkpt>
      <trkpt lat="49.9224" lon="2.1938">
        <ele>62</ele>
        <time>2022-11-09T15:38:32Z</time>
      </trkpt>
      <trkpt lat="49.92241" lon="2.19382">
        <ele>61.9</ele>
        <time>2022-11-09T15:38:33Z</time>
      </trkpt>
      <trkpt lat="49.92241" lon="2.19383">
        <ele>61.9</ele>
        <time>2022-11-09T15:38:34Z</time>
      </trkpt>
      <trkpt lat="49.92242" lon="2.19384">
        <ele>61.9</ele>
        <time>2022-11-09T15:38:35Z</time>
      </trkpt>
      <trkpt lat="49.92242" lon="2.19386">
        <ele>61.8</ele>
        <time>2022-11-09T15:38:36Z</time>
      </trkpt>
      <trkpt lat="49.92243" lon="2.19387">
        <ele>61.8</ele>
        <time>2022-11-09T15:38:37Z</time>
      </trkpt>
      <trkpt lat="49.92243" lon="2.19388">
        <ele>61.8</ele>
        <time>2022-11-09T15:38:38Z</time>
      </trkpt>
      <trkpt lat="49.92244" lon="2.19391">
        <ele>61.7</ele>
        <time>2022-11-09T15:38:40Z</time>
      </trkpt>
      <trkpt lat="49.92245" lon="2.19392">
        <ele>61.7</ele>
        <time>2022-11-09T15:38:41Z</time>
      </trkpt>
      <trkpt lat="49.92245" lon="2.19394">
        <ele>61.7</ele>
        <time>2022-11-09T15:38:42Z</time>
      </trkpt>
      <trkpt lat="49.92246" lon="2.19396">
        <ele>61.6</ele>
        <time>2022-11-09T15:38:43Z</time>
      </trkpt>
      <trkpt lat="49.92247" lon="2.19397">
        <ele>61.6</ele>
        <time>2022-11-09T15:38:44Z</time>
      </trkpt>
      <trkpt lat="49.92247" lon="2.19398">
        <ele>61.6</ele>
        <time>2022-11-09T15:38:45Z</time>
      </trkpt>
      <trkpt lat="49.92248" lon="2.194">
        <ele>61.6</ele>
        <time>2022-11-09T15:38:46Z</time>
      </trkpt>
      <trkpt lat="49.92248" lon="2.19402">
        <ele>61.5</ele>
        <time>2022-11-09T15:38:47Z</time>
      </trkpt>
      <trkpt lat="49.92249" lon="2.19403">
        <ele>61.5</ele>
        <time>2022-11-09T15:38:48Z</time>
      </trkpt>
      <trkpt lat="49.92249" lon="2.19404">
        <ele>61.5</ele>
        <time>2022-11-09T15:38:49Z</time>
      </trkpt>
      <trkpt lat="49.9225" lon="2.19406">
        <ele>61.5</ele>
        <time>2022-11-09T15:38:50Z</time>
      </trkpt>
      <trkpt lat="49.9225" lon="2.19408">
        <ele>61.4</ele>
        <time>2022-11-09T15:38:51Z</time>
      </trkpt>
      <trkpt lat="49.92251" lon="2.19409">
        <ele>61.4</ele>
        <time>2022-11-09T15:38:53Z</time>
      </trkpt>
      <trkpt lat="49.92252" lon="2.19411">
        <ele>61.4</ele>
        <time>2022-11-09T15:38:54Z</time>
      </trkpt>
      <trkpt lat="49.92252" lon="2.19412">
        <ele>61.4</ele>
        <time>2022-11-09T15:38:55Z</time>
      </trkpt>
      <trkpt lat="49.92253" lon="2.19414">
        <ele>61.3</ele>
        <time>2022-11-09T15:38:56Z</time>
      </trkpt>
      <trkpt lat="49.92253" lon="2.19416">
        <ele>61.3</ele>
        <time>2022-11-09T15:38:57Z</time>
      </trkpt>
      <trkpt lat="49.92254" lon="2.19418">
        <ele>61.3</ele>
        <time>2022-11-09T15:38:59Z</time>
      </trkpt>
      <trkpt lat="49.92254" lon="2.19419">
        <ele>61.2</ele>
        <time>2022-11-09T15:39:00Z</time>
      </trkpt>
      <trkpt lat="49.92255" lon="2.19421">
        <ele>61.2</ele>
        <time>2022-11-09T15:39:01Z</time>
      </trkpt>
      <trkpt lat="49.92256" lon="2.19423">
        <ele>61.2</ele>
        <time>2022-11-09T15:39:02Z</time>
      </trkpt>
      <trkpt lat="49.92257" lon="2.19424">
        <ele>61.1</ele>
        <time>2022-11-09T15:39:03Z</time>
      </trkpt>
      <trkpt lat="49.92257" lon="2.19425">
        <ele>61.1</ele>
        <time>2022-11-09T15:39:04Z</time>
      </trkpt>
      <trkpt lat="49.92259" lon="2.19428">
        <ele>61.1</ele>
        <time>2022-11-09T15:39:05Z</time>
      </trkpt>
      <trkpt lat="49.92259" lon="2.19429">
        <ele>61.1</ele>
        <time>2022-11-09T15:39:06Z</time>
      </trkpt>
      <trkpt lat="49.9226" lon="2.1943">
        <ele>61</ele>
        <time>2022-11-09T15:39:07Z</time>
      </trkpt>
      <trkpt lat="49.9226" lon="2.19432">
        <ele>61</ele>
        <time>2022-11-09T15:39:08Z</time>
      </trkpt>
      <trkpt lat="49.92261" lon="2.19434">
        <ele>61</ele>
        <time>2022-11-09T15:39:09Z</time>
      </trkpt>
      <trkpt lat="49.92261" lon="2.19436">
        <ele>60.9</ele>
        <time>2022-11-09T15:39:11Z</time>
      </trkpt>
      <trkpt lat="49.92262" lon="2.19439">
        <ele>60.9</ele>
        <time>2022-11-09T15:39:12Z</time>
      </trkpt>
      <trkpt lat="49.92262" lon="2.19441">
        <ele>60.9</ele>
        <time>2022-11-09T15:39:13Z</time>
      </trkpt>
      <trkpt lat="49.92262" lon="2.19442">
        <ele>60.9</ele>
        <time>2022-11-09T15:39:14Z</time>
      </trkpt>
      <trkpt lat="49.92262" lon="2.19444">
        <ele>60.8</ele>
        <time>2022-11-09T15:39:15Z</time>
      </trkpt>
      <trkpt lat="49.92262" lon="2.19446">
        <ele>60.8</ele>
        <time>2022-11-09T15:39:16Z</time>
      </trkpt>
      <trkpt lat="49.92263" lon="2.19448">
        <ele>60.8</ele>
        <time>2022-11-09T15:39:17Z</time>
      </trkpt>
      <trkpt lat="49.92263" lon="2.1945">
        <ele>60.7</ele>
        <time>2022-11-09T15:39:18Z</time>
      </trkpt>
      <trkpt lat="49.92263" lon="2.19453">
        <ele>60.7</ele>
        <time>2022-11-09T15:39:20Z</time>
      </trkpt>
      <trkpt lat="49.92263" lon="2.19455">
        <ele>60.7</ele>
        <time>2022-11-09T15:39:21Z</time>
      </trkpt>
      <trkpt lat="49.92264" lon="2.19458">
        <ele>60.6</ele>
        <time>2022-11-09T15:39:22Z</time>
      </trkpt>
      <trkpt lat="49.92264" lon="2.1946">
        <ele>60.6</ele>
        <time>2022-11-09T15:39:24Z</time>
      </trkpt>
      <trkpt lat="49.92264" lon="2.19462">
        <ele>60.6</ele>
        <time>2022-11-09T15:39:25Z</time>
      </trkpt>
      <trkpt lat="49.92265" lon="2.19463">
        <ele>60.5</ele>
        <time>2022-11-09T15:39:26Z</time>
      </trkpt>
      <trkpt lat="49.92265" lon="2.19465">
        <ele>60.5</ele>
        <time>2022-11-09T15:39:27Z</time>
      </trkpt>
      <trkpt lat="49.92266" lon="2.19468">
        <ele>60.4</ele>
        <time>2022-11-09T15:39:28Z</time>
      </trkpt>
      <trkpt lat="49.92266" lon="2.19469">
        <ele>60.4</ele>
        <time>2022-11-09T15:39:29Z</time>
      </trkpt>
      <trkpt lat="49.92266" lon="2.19471">
        <ele>60.4</ele>
        <time>2022-11-09T15:39:30Z</time>
      </trkpt>
      <trkpt lat="49.92267" lon="2.19474">
        <ele>60.3</ele>
        <time>2022-11-09T15:39:31Z</time>
      </trkpt>
      <trkpt lat="49.92267" lon="2.19475">
        <ele>60.3</ele>
        <time>2022-11-09T15:39:32Z</time>
      </trkpt>
      <trkpt lat="49.92267" lon="2.19476">
        <ele>60.3</ele>
        <time>2022-11-09T15:39:33Z</time>
      </trkpt>
      <trkpt lat="49.92268" lon="2.19478">
        <ele>60.2</ele>
        <time>2022-11-09T15:39:34Z</time>
      </trkpt>
      <trkpt lat="49.92269" lon="2.19479">
        <ele>60.2</ele>
        <time>2022-11-09T15:39:36Z</time>
      </trkpt>
      <trkpt lat="49.9227" lon="2.1948">
        <ele>60.1</ele>
        <time>2022-11-09T15:39:37Z</time>
      </trkpt>
      <trkpt lat="49.92271" lon="2.19482">
        <ele>60</ele>
        <time>2022-11-09T15:39:38Z</time>
      </trkpt>
      <trkpt lat="49.92272" lon="2.19482">
        <ele>60</ele>
        <time>2022-11-09T15:39:39Z</time>
      </trkpt>
      <trkpt lat="49.92273" lon="2.19483">
        <ele>60</ele>
        <time>2022-11-09T15:39:40Z</time>
      </trkpt>
      <trkpt lat="49.92275" lon="2.19484">
        <ele>60</ele>
        <time>2022-11-09T15:39:41Z</time>
      </trkpt>
      <trkpt lat="49.92276" lon="2.19485">
        <ele>60</ele>
        <time>2022-11-09T15:39:42Z</time>
      </trkpt>
      <trkpt lat="49.92276" lon="2.19485">
        <ele>60</ele>
        <time>2022-11-09T15:39:43Z</time>
      </trkpt>
      <trkpt lat="49.92278" lon="2.19486">
        <ele>60</ele>
        <time>2022-11-09T15:39:45Z</time>
      </trkpt>
      <trkpt lat="49.9228" lon="2.19486">
        <ele>60</ele>
        <time>2022-11-09T15:39:46Z</time>
      </trkpt>
      <trkpt lat="49.92281" lon="2.19485">
        <ele>60</ele>
        <time>2022-11-09T15:39:47Z</time>
      </trkpt>
      <trkpt lat="49.92282" lon="2.19485">
        <ele>60</ele>
        <time>2022-11-09T15:39:48Z</time>
      </trkpt>
      <trkpt lat="49.92283" lon="2.19484">
        <ele>60</ele>
        <time>2022-11-09T15:39:49Z</time>
      </trkpt>
      <trkpt lat="49.92285" lon="2.19482">
        <ele>60</ele>
        <time>2022-11-09T15:39:51Z</time>
      </trkpt>
      <trkpt lat="49.92286" lon="2.19482">
        <ele>60</ele>
        <time>2022-11-09T15:39:52Z</time>
      </trkpt>
      <trkpt lat="49.92286" lon="2.19481">
        <ele>60</ele>
        <time>2022-11-09T15:39:53Z</time>
      </trkpt>
      <trkpt lat="49.92287" lon="2.19479">
        <ele>60</ele>
        <time>2022-11-09T15:39:54Z</time>
      </trkpt>
      <trkpt lat="49.92288" lon="2.19477">
        <ele>60</ele>
        <time>2022-11-09T15:39:55Z</time>
      </trkpt>
      <trkpt lat="49.92289" lon="2.19475">
        <ele>60.1</ele>
        <time>2022-11-09T15:39:56Z</time>
      </trkpt>
      <trkpt lat="49.92289" lon="2.19473">
        <ele>60.1</ele>
        <time>2022-11-09T15:39:57Z</time>
      </trkpt>
      <trkpt lat="49.9229" lon="2.1947">
        <ele>60.1</ele>
        <time>2022-11-09T15:39:58Z</time>
      </trkpt>
      <trkpt lat="49.9229" lon="2.19468">
        <ele>60.1</ele>
        <time>2022-11-09T15:40:00Z</time>
      </trkpt>
      <trkpt lat="49.9229" lon="2.19465">
        <ele>60.1</ele>
        <time>2022-11-09T15:40:01Z</time>
      </trkpt>
      <trkpt lat="49.92291" lon="2.19463">
        <ele>60.1</ele>
        <time>2022-11-09T15:40:02Z</time>
      </trkpt>
      <trkpt lat="49.92292" lon="2.1946">
        <ele>60.2</ele>
        <time>2022-11-09T15:40:03Z</time>
      </trkpt>
      <trkpt lat="49.92293" lon="2.19458">
        <ele>60.2</ele>
        <time>2022-11-09T15:40:04Z</time>
      </trkpt>
      <trkpt lat="49.92294" lon="2.19455">
        <ele>60.2</ele>
        <time>2022-11-09T15:40:06Z</time>
      </trkpt>
      <trkpt lat="49.92294" lon="2.19454">
        <ele>60.2</ele>
        <time>2022-11-09T15:40:07Z</time>
      </trkpt>
      <trkpt lat="49.92295" lon="2.19452">
        <ele>60.3</ele>
        <time>2022-11-09T15:40:08Z</time>
      </trkpt>
      <trkpt lat="49.92296" lon="2.19449">
        <ele>60.3</ele>
        <time>2022-11-09T15:40:09Z</time>
      </trkpt>
      <trkpt lat="49.92296" lon="2.19447">
        <ele>60.3</ele>
        <time>2022-11-09T15:40:10Z</time>
      </trkpt>
      <trkpt lat="49.92297" lon="2.19445">
        <ele>60.4</ele>
        <time>2022-11-09T15:40:11Z</time>
      </trkpt>
      <trkpt lat="49.92298" lon="2.19443">
        <ele>60.4</ele>
        <time>2022-11-09T15:40:12Z</time>
      </trkpt>
      <trkpt lat="49.92299" lon="2.19441">
        <ele>60.4</ele>
        <time>2022-11-09T15:40:13Z</time>
      </trkpt>
      <trkpt lat="49.923" lon="2.19439">
        <ele>60.5</ele>
        <time>2022-11-09T15:40:15Z</time>
      </trkpt>
      <trkpt lat="49.92301" lon="2.19437">
        <ele>60.5</ele>
        <time>2022-11-09T15:40:16Z</time>
      </trkpt>
      <trkpt lat="49.92303" lon="2.19436">
        <ele>60.5</ele>
        <time>2022-11-09T15:40:17Z</time>
      </trkpt>
      <trkpt lat="49.92304" lon="2.19435">
        <ele>60.6</ele>
        <time>2022-11-09T15:40:18Z</time>
      </trkpt>
      <trkpt lat="49.92306" lon="2.19433">
        <ele>60.6</ele>
        <time>2022-11-09T15:40:19Z</time>
      </trkpt>
      <trkpt lat="49.92307" lon="2.19431">
        <ele>60.6</ele>
        <time>2022-11-09T15:40:20Z</time>
      </trkpt>
      <trkpt lat="49.92309" lon="2.1943">
        <ele>60.7</ele>
        <time>2022-11-09T15:40:21Z</time>
      </trkpt>
      <trkpt lat="49.9231" lon="2.19429">
        <ele>60.7</ele>
        <time>2022-11-09T15:40:22Z</time>
      </trkpt>
      <trkpt lat="49.92311" lon="2.19428">
        <ele>60.7</ele>
        <time>2022-11-09T15:40:24Z</time>
      </trkpt>
      <trkpt lat="49.92313" lon="2.19427">
        <ele>60.8</ele>
        <time>2022-11-09T15:40:25Z</time>
      </trkpt>
      <trkpt lat="49.92314" lon="2.19425">
        <ele>60.8</ele>
        <time>2022-11-09T15:40:26Z</time>
      </trkpt>
      <trkpt lat="49.92315" lon="2.19424">
        <ele>60.8</ele>
        <time>2022-11-09T15:40:27Z</time>
      </trkpt>
      <trkpt lat="49.92316" lon="2.19422">
        <ele>60.8</ele>
        <time>2022-11-09T15:40:28Z</time>
      </trkpt>
      <trkpt lat="49.92317" lon="2.19421">
        <ele>60.9</ele>
        <time>2022-11-09T15:40:29Z</time>
      </trkpt>
      <trkpt lat="49.92318" lon="2.19419">
        <ele>60.9</ele>
        <time>2022-11-09T15:40:30Z</time>
      </trkpt>
      <trkpt lat="49.92319" lon="2.19418">
        <ele>60.9</ele>
        <time>2022-11-09T15:40:31Z</time>
      </trkpt>
      <trkpt lat="49.9232" lon="2.19417">
        <ele>60.9</ele>
        <time>2022-11-09T15:40:33Z</time>
      </trkpt>
      <trkpt lat="49.9232" lon="2.19416">
        <ele>60.9</ele>
        <time>2022-11-09T15:40:34Z</time>
      </trkpt>
      <trkpt lat="49.92321" lon="2.19415">
        <ele>60.9</ele>
        <time>2022-11-09T15:40:35Z</time>
      </trkpt>
      <trkpt lat="49.92322" lon="2.19414">
        <ele>61</ele>
        <time>2022-11-09T15:40:36Z</time>
      </trkpt>
      <trkpt lat="49.92322" lon="2.19412">
        <ele>61</ele>
        <time>2022-11-09T15:40:37Z</time>
      </trkpt>
      <trkpt lat="49.92323" lon="2.19411">
        <ele>61</ele>
        <time>2022-11-09T15:40:38Z</time>
      </trkpt>
      <trkpt lat="49.92324" lon="2.1941">
        <ele>61</ele>
        <time>2022-11-09T15:40:39Z</time>
      </trkpt>
      <trkpt lat="49.92324" lon="2.19408">
        <ele>61</ele>
        <time>2022-11-09T15:40:40Z</time>
      </trkpt>
      <trkpt lat="49.92325" lon="2.19406">
        <ele>61.1</ele>
        <time>2022-11-09T15:40:41Z</time>
      </trkpt>
      <trkpt lat="49.92326" lon="2.19405">
        <ele>61.1</ele>
        <time>2022-11-09T15:40:43Z</time>
      </trkpt>
      <trkpt lat="49.92326" lon="2.19403">
        <ele>61.1</ele>
        <time>2022-11-09T15:40:44Z</time>
      </trkpt>
      <trkpt lat="49.92327" lon="2.19402">
        <ele>61.1</ele>
        <time>2022-11-09T15:40:45Z</time>
      </trkpt>
      <trkpt lat="49.92327" lon="2.19402">
        <ele>61.1</ele>
        <time>2022-11-09T15:40:46Z</time>
      </trkpt>
      <trkpt lat="49.92328" lon="2.19401">
        <ele>61.1</ele>
        <time>2022-11-09T15:40:47Z</time>
      </trkpt>
      <trkpt lat="49.92328" lon="2.19399">
        <ele>61.1</ele>
        <time>2022-11-09T15:40:48Z</time>
      </trkpt>
      <trkpt lat="49.92329" lon="2.19397">
        <ele>61.2</ele>
        <time>2022-11-09T15:40:49Z</time>
      </trkpt>
      <trkpt lat="49.92329" lon="2.19395">
        <ele>61.2</ele>
        <time>2022-11-09T15:40:50Z</time>
      </trkpt>
      <trkpt lat="49.92329" lon="2.19394">
        <ele>61.2</ele>
        <time>2022-11-09T15:40:51Z</time>
      </trkpt>
      <trkpt lat="49.9233" lon="2.19392">
        <ele>61.2</ele>
        <time>2022-11-09T15:40:52Z</time>
      </trkpt>
      <trkpt lat="49.9233" lon="2.1939">
        <ele>61.2</ele>
        <time>2022-11-09T15:40:54Z</time>
      </trkpt>
      <trkpt lat="49.92331" lon="2.19387">
        <ele>61.3</ele>
        <time>2022-11-09T15:40:55Z</time>
      </trkpt>
      <trkpt lat="49.92332" lon="2.19386">
        <ele>61.3</ele>
        <time>2022-11-09T15:40:56Z</time>
      </trkpt>
      <trkpt lat="49.92332" lon="2.19385">
        <ele>61.3</ele>
        <time>2022-11-09T15:40:57Z</time>
      </trkpt>
      <trkpt lat="49.92333" lon="2.19382">
        <ele>61.3</ele>
        <time>2022-11-09T15:40:58Z</time>
      </trkpt>
      <trkpt lat="49.92333" lon="2.19381">
        <ele>61.3</ele>
        <time>2022-11-09T15:40:59Z</time>
      </trkpt>
      <trkpt lat="49.92333" lon="2.19379">
        <ele>61.3</ele>
        <time>2022-11-09T15:41:00Z</time>
      </trkpt>
      <trkpt lat="49.92333" lon="2.19378">
        <ele>61.3</ele>
        <time>2022-11-09T15:41:01Z</time>
      </trkpt>
      <trkpt lat="49.92334" lon="2.19376">
        <ele>61.4</ele>
        <time>2022-11-09T15:41:03Z</time>
      </trkpt>
      <trkpt lat="49.92334" lon="2.19374">
        <ele>61.4</ele>
        <time>2022-11-09T15:41:04Z</time>
      </trkpt>
      <trkpt lat="49.92334" lon="2.19373">
        <ele>61.4</ele>
        <time>2022-11-09T15:41:05Z</time>
      </trkpt>
      <trkpt lat="49.92334" lon="2.19371">
        <ele>61.4</ele>
        <time>2022-11-09T15:41:06Z</time>
      </trkpt>
      <trkpt lat="49.92334" lon="2.1937">
        <ele>61.4</ele>
        <time>2022-11-09T15:41:07Z</time>
      </trkpt>
      <trkpt lat="49.92334" lon="2.19367">
        <ele>61.5</ele>
        <time>2022-11-09T15:41:08Z</time>
      </trkpt>
      <trkpt lat="49.92334" lon="2.19365">
        <ele>61.5</ele>
        <time>2022-11-09T15:41:09Z</time>
      </trkpt>
      <trkpt lat="49.92334" lon="2.19364">
        <ele>61.5</ele>
        <time>2022-11-09T15:41:11Z</time>
      </trkpt>
      <trkpt lat="49.92334" lon="2.19362">
        <ele>61.5</ele>
        <time>2022-11-09T15:41:12Z</time>
      </trkpt>
      <trkpt lat="49.92334" lon="2.19361">
        <ele>61.5</ele>
        <time>2022-11-09T15:41:13Z</time>
      </trkpt>
      <trkpt lat="49.92334" lon="2.1936">
        <ele>61.5</ele>
        <time>2022-11-09T15:41:14Z</time>
      </trkpt>
      <trkpt lat="49.92333" lon="2.19357">
        <ele>61.5</ele>
        <time>2022-11-09T15:41:15Z</time>
      </trkpt>
      <trkpt lat="49.92333" lon="2.19355">
        <ele>61.6</ele>
        <time>2022-11-09T15:41:16Z</time>
      </trkpt>
      <trkpt lat="49.92333" lon="2.19353">
        <ele>61.6</ele>
        <time>2022-11-09T15:41:17Z</time>
      </trkpt>
      <trkpt lat="49.92333" lon="2.1935">
        <ele>61.6</ele>
        <time>2022-11-09T15:41:18Z</time>
      </trkpt>
      <trkpt lat="49.92333" lon="2.19347">
        <ele>61.6</ele>
        <time>2022-11-09T15:41:19Z</time>
      </trkpt>
      <trkpt lat="49.92333" lon="2.19345">
        <ele>61.7</ele>
        <time>2022-11-09T15:41:21Z</time>
      </trkpt>
      <trkpt lat="49.92333" lon="2.19344">
        <ele>61.7</ele>
        <time>2022-11-09T15:41:22Z</time>
      </trkpt>
      <trkpt lat="49.92333" lon="2.19341">
        <ele>61.7</ele>
        <time>2022-11-09T15:41:23Z</time>
      </trkpt>
      <trkpt lat="49.92333" lon="2.1934">
        <ele>61.7</ele>
        <time>2022-11-09T15:41:24Z</time>
      </trkpt>
      <trkpt lat="49.92333" lon="2.19338">
        <ele>61.7</ele>
        <time>2022-11-09T15:41:25Z</time>
      </trkpt>
      <trkpt lat="49.92333" lon="2.19336">
        <ele>61.7</ele>
        <time>2022-11-09T15:41:26Z</time>
      </trkpt>
      <trkpt lat="49.92334" lon="2.19334">
        <ele>61.8</ele>
        <time>2022-11-09T15:41:27Z</time>
      </trkpt>
      <trkpt lat="49.92335" lon="2.19332">
        <ele>61.8</ele>
        <time>2022-11-09T15:41:28Z</time>
      </trkpt>
      <trkpt lat="49.92335" lon="2.1933">
        <ele>61.8</ele>
        <time>2022-11-09T15:41:29Z</time>
      </trkpt>
      <trkpt lat="49.92336" lon="2.19328">
        <ele>61.8</ele>
        <time>2022-11-09T15:41:31Z</time>
      </trkpt>
      <trkpt lat="49.92336" lon="2.19327">
        <ele>61.9</ele>
        <time>2022-11-09T15:41:32Z</time>
      </trkpt>
      <trkpt lat="49.92337" lon="2.19326">
        <ele>61.9</ele>
        <time>2022-11-09T15:41:33Z</time>
      </trkpt>
      <trkpt lat="49.92337" lon="2.19324">
        <ele>61.9</ele>
        <time>2022-11-09T15:41:34Z</time>
      </trkpt>
      <trkpt lat="49.92338" lon="2.19323">
        <ele>61.9</ele>
        <time>2022-11-09T15:41:35Z</time>
      </trkpt>
      <trkpt lat="49.92339" lon="2.19321">
        <ele>61.9</ele>
        <time>2022-11-09T15:41:36Z</time>
      </trkpt>
      <trkpt lat="49.92339" lon="2.19318">
        <ele>62</ele>
        <time>2022-11-09T15:41:37Z</time>
      </trkpt>
      <trkpt lat="49.9234" lon="2.19317">
        <ele>62</ele>
        <time>2022-11-09T15:41:39Z</time>
      </trkpt>
      <trkpt lat="49.9234" lon="2.19316">
        <ele>62</ele>
        <time>2022-11-09T15:41:40Z</time>
      </trkpt>
      <trkpt lat="49.9234" lon="2.19313">
        <ele>62</ele>
        <time>2022-11-09T15:41:41Z</time>
      </trkpt>
      <trkpt lat="49.92341" lon="2.19312">
        <ele>62.1</ele>
        <time>2022-11-09T15:41:42Z</time>
      </trkpt>
      <trkpt lat="49.92341" lon="2.1931">
        <ele>62.1</ele>
        <time>2022-11-09T15:41:43Z</time>
      </trkpt>
      <trkpt lat="49.92341" lon="2.19308">
        <ele>62.1</ele>
        <time>2022-11-09T15:41:44Z</time>
      </trkpt>
      <trkpt lat="49.92341" lon="2.19306">
        <ele>62.1</ele>
        <time>2022-11-09T15:41:45Z</time>
      </trkpt>
      <trkpt lat="49.92342" lon="2.19304">
        <ele>62.2</ele>
        <time>2022-11-09T15:41:47Z</time>
      </trkpt>
      <trkpt lat="49.92342" lon="2.19303">
        <ele>62.2</ele>
        <time>2022-11-09T15:41:48Z</time>
      </trkpt>
      <trkpt lat="49.92342" lon="2.19301">
        <ele>62.2</ele>
        <time>2022-11-09T15:41:49Z</time>
      </trkpt>
      <trkpt lat="49.92342" lon="2.19299">
        <ele>62.2</ele>
        <time>2022-11-09T15:41:50Z</time>
      </trkpt>
      <trkpt lat="49.92342" lon="2.19297">
        <ele>62.2</ele>
        <time>2022-11-09T15:41:51Z</time>
      </trkpt>
      <trkpt lat="49.92343" lon="2.19295">
        <ele>62.3</ele>
        <time>2022-11-09T15:41:52Z</time>
      </trkpt>
      <trkpt lat="49.92343" lon="2.19291">
        <ele>62.3</ele>
        <time>2022-11-09T15:41:53Z</time>
      </trkpt>
      <trkpt lat="49.92343" lon="2.1929">
        <ele>62.3</ele>
        <time>2022-11-09T15:41:55Z</time>
      </trkpt>
      <trkpt lat="49.92343" lon="2.19288">
        <ele>62.3</ele>
        <time>2022-11-09T15:41:56Z</time>
      </trkpt>
      <trkpt lat="49.92342" lon="2.19285">
        <ele>62.4</ele>
        <time>2022-11-09T15:41:57Z</time>
      </trkpt>
      <trkpt lat="49.92342" lon="2.19284">
        <ele>62.4</ele>
        <time>2022-11-09T15:41:58Z</time>
      </trkpt>
      <trkpt lat="49.92342" lon="2.19283">
        <ele>62.4</ele>
        <time>2022-11-09T15:41:59Z</time>
      </trkpt>
      <trkpt lat="49.92342" lon="2.19281">
        <ele>62.5</ele>
        <time>2022-11-09T15:42:00Z</time>
      </trkpt>
      <trkpt lat="49.92342" lon="2.19278">
        <ele>62.5</ele>
        <time>2022-11-09T15:42:01Z</time>
      </trkpt>
      <trkpt lat="49.92342" lon="2.19275">
        <ele>62.5</ele>
        <time>2022-11-09T15:42:02Z</time>
      </trkpt>
      <trkpt lat="49.92342" lon="2.19274">
        <ele>62.5</ele>
        <time>2022-11-09T15:42:04Z</time>
      </trkpt>
      <trkpt lat="49.92342" lon="2.19273">
        <ele>62.6</ele>
        <time>2022-11-09T15:42:05Z</time>
      </trkpt>
      <trkpt lat="49.92343" lon="2.19271">
        <ele>62.6</ele>
        <time>2022-11-09T15:42:06Z</time>
      </trkpt>
      <trkpt lat="49.92343" lon="2.19269">
        <ele>62.6</ele>
        <time>2022-11-09T15:42:07Z</time>
      </trkpt>
      <trkpt lat="49.92343" lon="2.19267">
        <ele>62.6</ele>
        <time>2022-11-09T15:42:08Z</time>
      </trkpt>
      <trkpt lat="49.92343" lon="2.19264">
        <ele>62.7</ele>
        <time>2022-11-09T15:42:09Z</time>
      </trkpt>
      <trkpt lat="49.92344" lon="2.19263">
        <ele>62.7</ele>
        <time>2022-11-09T15:42:10Z</time>
      </trkpt>
      <trkpt lat="49.92344" lon="2.19262">
        <ele>62.7</ele>
        <time>2022-11-09T15:42:11Z</time>
      </trkpt>
      <trkpt lat="49.92345" lon="2.19259">
        <ele>62.7</ele>
        <time>2022-11-09T15:42:13Z</time>
      </trkpt>
      <trkpt lat="49.92345" lon="2.19258">
        <ele>62.7</ele>
        <time>2022-11-09T15:42:14Z</time>
      </trkpt>
      <trkpt lat="49.92346" lon="2.19257">
        <ele>62.7</ele>
        <time>2022-11-09T15:42:15Z</time>
      </trkpt>
      <trkpt lat="49.92346" lon="2.19255">
        <ele>62.7</ele>
        <time>2022-11-09T15:42:16Z</time>
      </trkpt>
      <trkpt lat="49.92347" lon="2.19254">
        <ele>62.8</ele>
        <time>2022-11-09T15:42:17Z</time>
      </trkpt>
      <trkpt lat="49.92348" lon="2.19252">
        <ele>62.8</ele>
        <time>2022-11-09T15:42:18Z</time>
      </trkpt>
      <trkpt lat="49.92348" lon="2.1925">
        <ele>62.8</ele>
        <time>2022-11-09T15:42:19Z</time>
      </trkpt>
      <trkpt lat="49.92349" lon="2.19249">
        <ele>62.8</ele>
        <time>2022-11-09T15:42:20Z</time>
      </trkpt>
      <trkpt lat="49.9235" lon="2.19247">
        <ele>62.8</ele>
        <time>2022-11-09T15:42:22Z</time>
      </trkpt>
      <trkpt lat="49.9235" lon="2.19246">
        <ele>62.8</ele>
        <time>2022-11-09T15:42:23Z</time>
      </trkpt>
      <trkpt lat="49.9235" lon="2.19244">
        <ele>62.9</ele>
        <time>2022-11-09T15:42:24Z</time>
      </trkpt>
      <trkpt lat="49.92351" lon="2.19243">
        <ele>62.9</ele>
        <time>2022-11-09T15:42:25Z</time>
      </trkpt>
      <trkpt lat="49.92351" lon="2.19241">
        <ele>62.9</ele>
        <time>2022-11-09T15:42:26Z</time>
      </trkpt>
      <trkpt lat="49.92352" lon="2.1924">
        <ele>62.9</ele>
        <time>2022-11-09T15:42:27Z</time>
      </trkpt>
      <trkpt lat="49.92353" lon="2.19239">
        <ele>62.9</ele>
        <time>2022-11-09T15:42:29Z</time>
      </trkpt>
      <trkpt lat="49.92353" lon="2.19238">
        <ele>62.9</ele>
        <time>2022-11-09T15:42:30Z</time>
      </trkpt>
      <trkpt lat="49.92354" lon="2.19236">
        <ele>63</ele>
        <time>2022-11-09T15:42:31Z</time>
      </trkpt>
      <trkpt lat="49.92355" lon="2.19235">
        <ele>63</ele>
        <time>2022-11-09T15:42:32Z</time>
      </trkpt>
      <trkpt lat="49.92356" lon="2.19234">
        <ele>63</ele>
        <time>2022-11-09T15:42:33Z</time>
      </trkpt>
      <trkpt lat="49.92356" lon="2.19233">
        <ele>63</ele>
        <time>2022-11-09T15:42:34Z</time>
      </trkpt>
      <trkpt lat="49.92357" lon="2.19232">
        <ele>63</ele>
        <time>2022-11-09T15:42:35Z</time>
      </trkpt>
      <trkpt lat="49.92358" lon="2.19229">
        <ele>63</ele>
        <time>2022-11-09T15:42:37Z</time>
      </trkpt>
      <trkpt lat="49.92359" lon="2.19228">
        <ele>63.1</ele>
        <time>2022-11-09T15:42:38Z</time>
      </trkpt>
      <trkpt lat="49.92359" lon="2.19227">
        <ele>63.1</ele>
        <time>2022-11-09T15:42:39Z</time>
      </trkpt>
      <trkpt lat="49.9236" lon="2.19224">
        <ele>63.1</ele>
        <time>2022-11-09T15:42:40Z</time>
      </trkpt>
      <trkpt lat="49.92361" lon="2.19223">
        <ele>63.1</ele>
        <time>2022-11-09T15:42:41Z</time>
      </trkpt>
      <trkpt lat="49.92361" lon="2.19222">
        <ele>63.1</ele>
        <time>2022-11-09T15:42:42Z</time>
      </trkpt>
      <trkpt lat="49.92361" lon="2.1922">
        <ele>63.1</ele>
        <time>2022-11-09T15:42:43Z</time>
      </trkpt>
      <trkpt lat="49.92362" lon="2.19219">
        <ele>63.2</ele>
        <time>2022-11-09T15:42:45Z</time>
      </trkpt>
      <trkpt lat="49.92362" lon="2.19217">
        <ele>63.2</ele>
        <time>2022-11-09T15:42:46Z</time>
      </trkpt>
      <trkpt lat="49.92363" lon="2.19216">
        <ele>63.2</ele>
        <time>2022-11-09T15:42:47Z</time>
      </trkpt>
      <trkpt lat="49.92363" lon="2.19214">
        <ele>63.2</ele>
        <time>2022-11-09T15:42:48Z</time>
      </trkpt>
      <trkpt lat="49.92364" lon="2.19213">
        <ele>63.2</ele>
        <time>2022-11-09T15:42:49Z</time>
      </trkpt>
      <trkpt lat="49.92364" lon="2.19211">
        <ele>63.2</ele>
        <time>2022-11-09T15:42:50Z</time>
      </trkpt>
      <trkpt lat="49.92364" lon="2.1921">
        <ele>63.2</ele>
        <time>2022-11-09T15:42:51Z</time>
      </trkpt>
      <trkpt lat="49.92365" lon="2.19209">
        <ele>63.3</ele>
        <time>2022-11-09T15:42:52Z</time>
      </trkpt>
      <trkpt lat="49.92365" lon="2.19208">
        <ele>63.3</ele>
        <time>2022-11-09T15:42:53Z</time>
      </trkpt>
      <trkpt lat="49.92366" lon="2.19205">
        <ele>63.3</ele>
        <time>2022-11-09T15:42:54Z</time>
      </trkpt>
      <trkpt lat="49.92366" lon="2.19204">
        <ele>63.3</ele>
        <time>2022-11-09T15:42:55Z</time>
      </trkpt>
      <trkpt lat="49.92367" lon="2.19203">
        <ele>63.3</ele>
        <time>2022-11-09T15:42:56Z</time>
      </trkpt>
      <trkpt lat="49.92367" lon="2.19201">
        <ele>63.3</ele>
        <time>2022-11-09T15:42:58Z</time>
      </trkpt>
      <trkpt lat="49.92367" lon="2.192">
        <ele>63.4</ele>
        <time>2022-11-09T15:42:59Z</time>
      </trkpt>
      <trkpt lat="49.92367" lon="2.19198">
        <ele>63.4</ele>
        <time>2022-11-09T15:43:00Z</time>
      </trkpt>
      <trkpt lat="49.92367" lon="2.19197">
        <ele>63.4</ele>
        <time>2022-11-09T15:43:01Z</time>
      </trkpt>
      <trkpt lat="49.92367" lon="2.19196">
        <ele>63.4</ele>
        <time>2022-11-09T15:43:02Z</time>
      </trkpt>
      <trkpt lat="49.92368" lon="2.19194">
        <ele>63.4</ele>
        <time>2022-11-09T15:43:03Z</time>
      </trkpt>
      <trkpt lat="49.92368" lon="2.19193">
        <ele>63.4</ele>
        <time>2022-11-09T15:43:04Z</time>
      </trkpt>
      <trkpt lat="49.92368" lon="2.19191">
        <ele>63.4</ele>
        <time>2022-11-09T15:43:05Z</time>
      </trkpt>
      <trkpt lat="49.92368" lon="2.19189">
        <ele>63.5</ele>
        <time>2022-11-09T15:43:06Z</time>
      </trkpt>
      <trkpt lat="49.92369" lon="2.19188">
        <ele>63.5</ele>
        <time>2022-11-09T15:43:07Z</time>
      </trkpt>
      <trkpt lat="49.92369" lon="2.19186">
        <ele>63.5</ele>
        <time>2022-11-09T15:43:09Z</time>
      </trkpt>
      <trkpt lat="49.92369" lon="2.19185">
        <ele>63.5</ele>
        <time>2022-11-09T15:43:10Z</time>
      </trkpt>
      <trkpt lat="49.9237" lon="2.19183">
        <ele>63.5</ele>
        <time>2022-11-09T15:43:11Z</time>
      </trkpt>
      <trkpt lat="49.92371" lon="2.19182">
        <ele>63.5</ele>
        <time>2022-11-09T15:43:12Z</time>
      </trkpt>
      <trkpt lat="49.92371" lon="2.19181">
        <ele>63.6</ele>
        <time>2022-11-09T15:43:14Z</time>
      </trkpt>
      <trkpt lat="49.92372" lon="2.1918">
        <ele>63.6</ele>
        <time>2022-11-09T15:43:15Z</time>
      </trkpt>
      <trkpt lat="49.92373" lon="2.19179">
        <ele>63.6</ele>
        <time>2022-11-09T15:43:16Z</time>
      </trkpt>
      <trkpt lat="49.92373" lon="2.19177">
        <ele>63.6</ele>
        <time>2022-11-09T15:43:17Z</time>
      </trkpt>
      <trkpt lat="49.92374" lon="2.19176">
        <ele>63.6</ele>
        <time>2022-11-09T15:43:18Z</time>
      </trkpt>
      <trkpt lat="49.92375" lon="2.19174">
        <ele>63.6</ele>
        <time>2022-11-09T15:43:19Z</time>
      </trkpt>
      <trkpt lat="49.92375" lon="2.19173">
        <ele>63.7</ele>
        <time>2022-11-09T15:43:21Z</time>
      </trkpt>
      <trkpt lat="49.92376" lon="2.19172">
        <ele>63.7</ele>
        <time>2022-11-09T15:43:22Z</time>
      </trkpt>
      <trkpt lat="49.92377" lon="2.19171">
        <ele>63.7</ele>
        <time>2022-11-09T15:43:23Z</time>
      </trkpt>
      <trkpt lat="49.92377" lon="2.1917">
        <ele>63.7</ele>
        <time>2022-11-09T15:43:25Z</time>
      </trkpt>
      <trkpt lat="49.92377" lon="2.19169">
        <ele>63.7</ele>
        <time>2022-11-09T15:43:26Z</time>
      </trkpt>
      <trkpt lat="49.92378" lon="2.19167">
        <ele>63.7</ele>
        <time>2022-11-09T15:43:27Z</time>
      </trkpt>
      <trkpt lat="49.92378" lon="2.19166">
        <ele>63.7</ele>
        <time>2022-11-09T15:43:29Z</time>
      </trkpt>
      <trkpt lat="49.92378" lon="2.19165">
        <ele>63.7</ele>
        <time>2022-11-09T15:43:30Z</time>
      </trkpt>
      <trkpt lat="49.92378" lon="2.19164">
        <ele>63.8</ele>
        <time>2022-11-09T15:43:31Z</time>
      </trkpt>
      <trkpt lat="49.92378" lon="2.19162">
        <ele>63.8</ele>
        <time>2022-11-09T15:43:32Z</time>
      </trkpt>
      <trkpt lat="49.92378" lon="2.19161">
        <ele>63.8</ele>
        <time>2022-11-09T15:43:33Z</time>
      </trkpt>
      <trkpt lat="49.92379" lon="2.1916">
        <ele>63.8</ele>
        <time>2022-11-09T15:43:35Z</time>
      </trkpt>
      <trkpt lat="49.9238" lon="2.19158">
        <ele>63.8</ele>
        <time>2022-11-09T15:43:36Z</time>
      </trkpt>
      <trkpt lat="49.9238" lon="2.19157">
        <ele>63.8</ele>
        <time>2022-11-09T15:43:37Z</time>
      </trkpt>
      <trkpt lat="49.92381" lon="2.19156">
        <ele>63.8</ele>
        <time>2022-11-09T15:43:39Z</time>
      </trkpt>
      <trkpt lat="49.92381" lon="2.19155">
        <ele>63.8</ele>
        <time>2022-11-09T15:43:40Z</time>
      </trkpt>
      <trkpt lat="49.92382" lon="2.19153">
        <ele>63.9</ele>
        <time>2022-11-09T15:43:41Z</time>
      </trkpt>
      <trkpt lat="49.92382" lon="2.19152">
        <ele>63.9</ele>
        <time>2022-11-09T15:43:42Z</time>
      </trkpt>
      <trkpt lat="49.92383" lon="2.19151">
        <ele>63.9</ele>
        <time>2022-11-09T15:43:43Z</time>
      </trkpt>
      <trkpt lat="49.92383" lon="2.19149">
        <ele>63.9</ele>
        <time>2022-11-09T15:43:45Z</time>
      </trkpt>
      <trkpt lat="49.92383" lon="2.19148">
        <ele>63.9</ele>
        <time>2022-11-09T15:43:46Z</time>
      </trkpt>
      <trkpt lat="49.92384" lon="2.19147">
        <ele>63.9</ele>
        <time>2022-11-09T15:43:47Z</time>
      </trkpt>
      <trkpt lat="49.92384" lon="2.19146">
        <ele>63.9</ele>
        <time>2022-11-09T15:43:48Z</time>
      </trkpt>
      <trkpt lat="49.92384" lon="2.19145">
        <ele>63.9</ele>
        <time>2022-11-09T15:43:49Z</time>
      </trkpt>
      <trkpt lat="49.92385" lon="2.19143">
        <ele>64</ele>
        <time>2022-11-09T15:43:51Z</time>
      </trkpt>
      <trkpt lat="49.92386" lon="2.19142">
        <ele>64</ele>
        <time>2022-11-09T15:43:52Z</time>
      </trkpt>
      <trkpt lat="49.92386" lon="2.19141">
        <ele>64</ele>
        <time>2022-11-09T15:43:53Z</time>
      </trkpt>
      <trkpt lat="49.92387" lon="2.1914">
        <ele>64</ele>
        <time>2022-11-09T15:43:54Z</time>
      </trkpt>
      <trkpt lat="49.92388" lon="2.19138">
        <ele>64</ele>
        <time>2022-11-09T15:43:56Z</time>
      </trkpt>
      <trkpt lat="49.92388" lon="2.19137">
        <ele>64</ele>
        <time>2022-11-09T15:43:57Z</time>
      </trkpt>
      <trkpt lat="49.92389" lon="2.19136">
        <ele>64</ele>
        <time>2022-11-09T15:43:58Z</time>
      </trkpt>
      <trkpt lat="49.9239" lon="2.19135">
        <ele>64.1</ele>
        <time>2022-11-09T15:43:59Z</time>
      </trkpt>
      <trkpt lat="49.9239" lon="2.19134">
        <ele>64.1</ele>
        <time>2022-11-09T15:44:00Z</time>
      </trkpt>
      <trkpt lat="49.92391" lon="2.19133">
        <ele>64.1</ele>
        <time>2022-11-09T15:44:01Z</time>
      </trkpt>
      <trkpt lat="49.92391" lon="2.19132">
        <ele>64.1</ele>
        <time>2022-11-09T15:44:02Z</time>
      </trkpt>
      <trkpt lat="49.92392" lon="2.19131">
        <ele>64.1</ele>
        <time>2022-11-09T15:44:03Z</time>
      </trkpt>
      <trkpt lat="49.92393" lon="2.1913">
        <ele>64.1</ele>
        <time>2022-11-09T15:44:04Z</time>
      </trkpt>
      <trkpt lat="49.92394" lon="2.19128">
        <ele>64.2</ele>
        <time>2022-11-09T15:44:05Z</time>
      </trkpt>
      <trkpt lat="49.92394" lon="2.19127">
        <ele>64.2</ele>
        <time>2022-11-09T15:44:07Z</time>
      </trkpt>
      <trkpt lat="49.92395" lon="2.19126">
        <ele>64.2</ele>
        <time>2022-11-09T15:44:08Z</time>
      </trkpt>
      <trkpt lat="49.92396" lon="2.19125">
        <ele>64.2</ele>
        <time>2022-11-09T15:44:09Z</time>
      </trkpt>
      <trkpt lat="49.92396" lon="2.19123">
        <ele>64.2</ele>
        <time>2022-11-09T15:44:10Z</time>
      </trkpt>
      <trkpt lat="49.92397" lon="2.19119">
        <ele>64.3</ele>
        <time>2022-11-09T15:44:11Z</time>
      </trkpt>
      <trkpt lat="49.92397" lon="2.19117">
        <ele>64.3</ele>
        <time>2022-11-09T15:44:13Z</time>
      </trkpt>
      <trkpt lat="49.92398" lon="2.19115">
        <ele>64.3</ele>
        <time>2022-11-09T15:44:14Z</time>
      </trkpt>
      <trkpt lat="49.92398" lon="2.19114">
        <ele>64.3</ele>
        <time>2022-11-09T15:44:15Z</time>
      </trkpt>
      <trkpt lat="49.92398" lon="2.19112">
        <ele>64.3</ele>
        <time>2022-11-09T15:44:16Z</time>
      </trkpt>
      <trkpt lat="49.92399" lon="2.1911">
        <ele>64.4</ele>
        <time>2022-11-09T15:44:18Z</time>
      </trkpt>
      <trkpt lat="49.92399" lon="2.19109">
        <ele>64.4</ele>
        <time>2022-11-09T15:44:19Z</time>
      </trkpt>
      <trkpt lat="49.92399" lon="2.19108">
        <ele>64.4</ele>
        <time>2022-11-09T15:44:20Z</time>
      </trkpt>
      <trkpt lat="49.92399" lon="2.19106">
        <ele>64.4</ele>
        <time>2022-11-09T15:44:21Z</time>
      </trkpt>
      <trkpt lat="49.92399" lon="2.19104">
        <ele>64.4</ele>
        <time>2022-11-09T15:44:22Z</time>
      </trkpt>
      <trkpt lat="49.924" lon="2.19103">
        <ele>64.4</ele>
        <time>2022-11-09T15:44:23Z</time>
      </trkpt>
      <trkpt lat="49.924" lon="2.19102">
        <ele>64.5</ele>
        <time>2022-11-09T15:44:25Z</time>
      </trkpt>
      <trkpt lat="49.924" lon="2.191">
        <ele>64.5</ele>
        <time>2022-11-09T15:44:26Z</time>
      </trkpt>
      <trkpt lat="49.92401" lon="2.19098">
        <ele>64.5</ele>
        <time>2022-11-09T15:44:27Z</time>
      </trkpt>
      <trkpt lat="49.92401" lon="2.19097">
        <ele>64.5</ele>
        <time>2022-11-09T15:44:29Z</time>
      </trkpt>
      <trkpt lat="49.92402" lon="2.19096">
        <ele>64.5</ele>
        <time>2022-11-09T15:44:30Z</time>
      </trkpt>
      <trkpt lat="49.92403" lon="2.19094">
        <ele>64.5</ele>
        <time>2022-11-09T15:44:31Z</time>
      </trkpt>
      <trkpt lat="49.92403" lon="2.19093">
        <ele>64.6</ele>
        <time>2022-11-09T15:44:33Z</time>
      </trkpt>
      <trkpt lat="49.92404" lon="2.19092">
        <ele>64.6</ele>
        <time>2022-11-09T15:44:34Z</time>
      </trkpt>
      <trkpt lat="49.92405" lon="2.19091">
        <ele>64.6</ele>
        <time>2022-11-09T15:44:35Z</time>
      </trkpt>
      <trkpt lat="49.92405" lon="2.1909">
        <ele>64.6</ele>
        <time>2022-11-09T15:44:36Z</time>
      </trkpt>
      <trkpt lat="49.92406" lon="2.19089">
        <ele>64.6</ele>
        <time>2022-11-09T15:44:37Z</time>
      </trkpt>
      <trkpt lat="49.92407" lon="2.19089">
        <ele>64.6</ele>
        <time>2022-11-09T15:44:39Z</time>
      </trkpt>
      <trkpt lat="49.92407" lon="2.19088">
        <ele>64.6</ele>
        <time>2022-11-09T15:44:40Z</time>
      </trkpt>
      <trkpt lat="49.92408" lon="2.19087">
        <ele>64.6</ele>
        <time>2022-11-09T15:44:41Z</time>
      </trkpt>
      <trkpt lat="49.92408" lon="2.19086">
        <ele>64.6</ele>
        <time>2022-11-09T15:44:42Z</time>
      </trkpt>
      <trkpt lat="49.92409" lon="2.19085">
        <ele>64.5</ele>
        <time>2022-11-09T15:44:43Z</time>
      </trkpt>
      <trkpt lat="49.92409" lon="2.19084">
        <ele>64.5</ele>
        <time>2022-11-09T15:44:45Z</time>
      </trkpt>
      <trkpt lat="49.9241" lon="2.19083">
        <ele>64.5</ele>
        <time>2022-11-09T15:44:46Z</time>
      </trkpt>
      <trkpt lat="49.9241" lon="2.19082">
        <ele>64.6</ele>
        <time>2022-11-09T15:44:47Z</time>
      </trkpt>
      <trkpt lat="49.9241" lon="2.19081">
        <ele>64.6</ele>
        <time>2022-11-09T15:44:48Z</time>
      </trkpt>
      <trkpt lat="49.92411" lon="2.1908">
        <ele>64.6</ele>
        <time>2022-11-09T15:44:50Z</time>
      </trkpt>
      <trkpt lat="49.92411" lon="2.19079">
        <ele>64.6</ele>
        <time>2022-11-09T15:44:51Z</time>
      </trkpt>
      <trkpt lat="49.92412" lon="2.19078">
        <ele>64.6</ele>
        <time>2022-11-09T15:44:52Z</time>
      </trkpt>
      <trkpt lat="49.92413" lon="2.19077">
        <ele>64.6</ele>
        <time>2022-11-09T15:44:54Z</time>
      </trkpt>
      <trkpt lat="49.92413" lon="2.19076">
        <ele>64.6</ele>
        <time>2022-11-09T15:44:55Z</time>
      </trkpt>
      <trkpt lat="49.92414" lon="2.19076">
        <ele>64.6</ele>
        <time>2022-11-09T15:44:56Z</time>
      </trkpt>
      <trkpt lat="49.92414" lon="2.19077">
        <ele>64.6</ele>
        <time>2022-11-09T15:44:57Z</time>
      </trkpt>
      <trkpt lat="49.92415" lon="2.19077">
        <ele>64.6</ele>
        <time>2022-11-09T15:44:58Z</time>
      </trkpt>
      <trkpt lat="49.92415" lon="2.19077">
        <ele>64.6</ele>
        <time>2022-11-09T15:44:59Z</time>
      </trkpt>
      <trkpt lat="49.92416" lon="2.19076">
        <ele>64.6</ele>
        <time>2022-11-09T15:45:00Z</time>
      </trkpt>
      <trkpt lat="49.92417" lon="2.19075">
        <ele>64.6</ele>
        <time>2022-11-09T15:45:01Z</time>
      </trkpt>
      <trkpt lat="49.92418" lon="2.19074">
        <ele>64.7</ele>
        <time>2022-11-09T15:45:03Z</time>
      </trkpt>
      <trkpt lat="49.92418" lon="2.19073">
        <ele>64.7</ele>
        <time>2022-11-09T15:45:04Z</time>
      </trkpt>
      <trkpt lat="49.92419" lon="2.19072">
        <ele>64.7</ele>
        <time>2022-11-09T15:45:05Z</time>
      </trkpt>
      <trkpt lat="49.9242" lon="2.19072">
        <ele>64.7</ele>
        <time>2022-11-09T15:45:06Z</time>
      </trkpt>
      <trkpt lat="49.92421" lon="2.19071">
        <ele>64.7</ele>
        <time>2022-11-09T15:45:08Z</time>
      </trkpt>
      <trkpt lat="49.92421" lon="2.19071">
        <ele>64.7</ele>
        <time>2022-11-09T15:45:09Z</time>
      </trkpt>
      <trkpt lat="49.92422" lon="2.19071">
        <ele>64.7</ele>
        <time>2022-11-09T15:45:10Z</time>
      </trkpt>
      <trkpt lat="49.92422" lon="2.19071">
        <ele>64.7</ele>
        <time>2022-11-09T15:45:11Z</time>
      </trkpt>
      <trkpt lat="49.92422" lon="2.19071">
        <ele>64.7</ele>
        <time>2022-11-09T15:45:12Z</time>
      </trkpt>
      <trkpt lat="49.92422" lon="2.19071">
        <ele>64.7</ele>
        <time>2022-11-09T15:45:13Z</time>
      </trkpt>
      <trkpt lat="49.92422" lon="2.19071">
        <ele>64.7</ele>
        <time>2022-11-09T15:45:14Z</time>
      </trkpt>
      <trkpt lat="49.92422" lon="2.19071">
        <ele>64.7</ele>
        <time>2022-11-09T15:45:15Z</time>
      </trkpt>
      <trkpt lat="49.92422" lon="2.19071">
        <ele>64.7</ele>
        <time>2022-11-09T15:45:16Z</time>
      </trkpt>
      <trkpt lat="49.92422" lon="2.19071">
        <ele>64.7</ele>
        <time>2022-11-09T15:45:17Z</time>
      </trkpt>
      <trkpt lat="49.92422" lon="2.19071">
        <ele>64.7</ele>
        <time>2022-11-09T15:45:18Z</time>
      </trkpt>
      <trkpt lat="49.92422" lon="2.19072">
        <ele>64.7</ele>
        <time>2022-11-09T15:45:19Z</time>
      </trkpt>
      <trkpt lat="49.92422" lon="2.19072">
        <ele>64.7</ele>
        <time>2022-11-09T15:45:20Z</time>
      </trkpt>
      <trkpt lat="49.92422" lon="2.19072">
        <ele>64.7</ele>
        <time>2022-11-09T15:45:21Z</time>
      </trkpt>
      <trkpt lat="49.92422" lon="2.19072">
        <ele>64.7</ele>
        <time>2022-11-09T15:45:22Z</time>
      </trkpt>
      <trkpt lat="49.92422" lon="2.19072">
        <ele>64.7</ele>
        <time>2022-11-09T15:45:23Z</time>
      </trkpt>
      <trkpt lat="49.92422" lon="2.19072">
        <ele>64.7</ele>
        <time>2022-11-09T15:45:24Z</time>
      </trkpt>
      <trkpt lat="49.92422" lon="2.19072">
        <ele>64.7</ele>
        <time>2022-11-09T15:45:25Z</time>
      </trkpt>
      <trkpt lat="49.92422" lon="2.19073">
        <ele>64.7</ele>
        <time>2022-11-09T15:45:26Z</time>
      </trkpt>
      <trkpt lat="49.92421" lon="2.19072">
        <ele>64.7</ele>
        <time>2022-11-09T15:45:27Z</time>
      </trkpt>
      <trkpt lat="49.92421" lon="2.19072">
        <ele>64.7</ele>
        <time>2022-11-09T15:45:28Z</time>
      </trkpt>
      <trkpt lat="49.92421" lon="2.19072">
        <ele>64.7</ele>
        <time>2022-11-09T15:45:29Z</time>
      </trkpt>
      <trkpt lat="49.92421" lon="2.19072">
        <ele>64.7</ele>
        <time>2022-11-09T15:45:30Z</time>
      </trkpt>
      <trkpt lat="49.92421" lon="2.19072">
        <ele>64.7</ele>
        <time>2022-11-09T15:45:31Z</time>
      </trkpt>
      <trkpt lat="49.92421" lon="2.19072">
        <ele>64.7</ele>
        <time>2022-11-09T15:45:32Z</time>
      </trkpt>
      <trkpt lat="49.92421" lon="2.19072">
        <ele>64.7</ele>
        <time>2022-11-09T15:45:33Z</time>
      </trkpt>
      <trkpt lat="49.92421" lon="2.19072">
        <ele>64.7</ele>
        <time>2022-11-09T15:45:34Z</time>
      </trkpt>
      <trkpt lat="49.92421" lon="2.19072">
        <ele>64.7</ele>
        <time>2022-11-09T15:45:35Z</time>
      </trkpt>
      <trkpt lat="49.92421" lon="2.19072">
        <ele>64.7</ele>
        <time>2022-11-09T15:45:36Z</time>
      </trkpt>
      <trkpt lat="49.92421" lon="2.19072">
        <ele>64.7</ele>
        <time>2022-11-09T15:45:37Z</time>
      </trkpt>
      <trkpt lat="49.92421" lon="2.19072">
        <ele>64.7</ele>
        <time>2022-11-09T15:45:38Z</time>
      </trkpt>
      <trkpt lat="49.92421" lon="2.19072">
        <ele>64.7</ele>
        <time>2022-11-09T15:45:39Z</time>
      </trkpt>
      <trkpt lat="49.92421" lon="2.19072">
        <ele>64.7</ele>
        <time>2022-11-09T15:45:40Z</time>
      </trkpt>
      <trkpt lat="49.92421" lon="2.19072">
        <ele>64.7</ele>
        <time>2022-11-09T15:45:41Z</time>
      </trkpt>
      <trkpt lat="49.92421" lon="2.19072">
        <ele>64.7</ele>
        <time>2022-11-09T15:45:42Z</time>
      </trkpt>
      <trkpt lat="49.92421" lon="2.19072">
        <ele>64.7</ele>
        <time>2022-11-09T15:45:43Z</time>
      </trkpt>
      <trkpt lat="49.92421" lon="2.19072">
        <ele>64.7</ele>
        <time>2022-11-09T15:45:44Z</time>
      </trkpt>
      <trkpt lat="49.92421" lon="2.19072">
        <ele>64.7</ele>
        <time>2022-11-09T15:45:45Z</time>
      </trkpt>
      <trkpt lat="49.92421" lon="2.19072">
        <ele>64.7</ele>
        <time>2022-11-09T15:45:46Z</time>
      </trkpt>
      <trkpt lat="49.92421" lon="2.19072">
        <ele>64.7</ele>
        <time>2022-11-09T15:45:47Z</time>
      </trkpt>
      <trkpt lat="49.92421" lon="2.19072">
        <ele>64.7</ele>
        <time>2022-11-09T15:45:48Z</time>
      </trkpt>
      <trkpt lat="49.92421" lon="2.19072">
        <ele>64.7</ele>
        <time>2022-11-09T15:45:49Z</time>
      </trkpt>
      <trkpt lat="49.92421" lon="2.19072">
        <ele>64.7</ele>
        <time>2022-11-09T15:45:50Z</time>
      </trkpt>
      <trkpt lat="49.92421" lon="2.19072">
        <ele>64.7</ele>
        <time>2022-11-09T15:45:51Z</time>
      </trkpt>
      <trkpt lat="49.92421" lon="2.19072">
        <ele>64.7</ele>
        <time>2022-11-09T15:45:52Z</time>
      </trkpt>
      <trkpt lat="49.92421" lon="2.19072">
        <ele>64.7</ele>
        <time>2022-11-09T15:45:53Z</time>
      </trkpt>
      <trkpt lat="49.92421" lon="2.19072">
        <ele>64.7</ele>
        <time>2022-11-09T15:45:54Z</time>
      </trkpt>
      <trkpt lat="49.92421" lon="2.19072">
        <ele>64.7</ele>
        <time>2022-11-09T15:45:55Z</time>
      </trkpt>
      <trkpt lat="49.92421" lon="2.19072">
        <ele>64.7</ele>
        <time>2022-11-09T15:45:56Z</time>
      </trkpt>
      <trkpt lat="49.92421" lon="2.19072">
        <ele>64.7</ele>
        <time>2022-11-09T15:45:57Z</time>
      </trkpt>
      <trkpt lat="49.92421" lon="2.19072">
        <ele>64.7</ele>
        <time>2022-11-09T15:45:58Z</time>
      </trkpt>
      <trkpt lat="49.92421" lon="2.19072">
        <ele>64.7</ele>
        <time>2022-11-09T15:45:59Z</time>
      </trkpt>
      <trkpt lat="49.92421" lon="2.19072">
        <ele>64.7</ele>
        <time>2022-11-09T15:46:00Z</time>
      </trkpt>
      <trkpt lat="49.92421" lon="2.19072">
        <ele>64.7</ele>
        <time>2022-11-09T15:46:01Z</time>
      </trkpt>
      <trkpt lat="49.92421" lon="2.19072">
        <ele>64.7</ele>
        <time>2022-11-09T15:46:02Z</time>
      </trkpt>
      <trkpt lat="49.92421" lon="2.19072">
        <ele>64.7</ele>
        <time>2022-11-09T15:46:03Z</time>
      </trkpt>
      <trkpt lat="49.92421" lon="2.19072">
        <ele>64.7</ele>
        <time>2022-11-09T15:46:04Z</time>
      </trkpt>
      <trkpt lat="49.92421" lon="2.19072">
        <ele>64.7</ele>
        <time>2022-11-09T15:46:05Z</time>
      </trkpt>
      <trkpt lat="49.92421" lon="2.19072">
        <ele>64.7</ele>
        <time>2022-11-09T15:46:06Z</time>
      </trkpt>
      <trkpt lat="49.92421" lon="2.19072">
        <ele>64.7</ele>
        <time>2022-11-09T15:46:07Z</time>
      </trkpt>
      <trkpt lat="49.92421" lon="2.19072">
        <ele>64.7</ele>
        <time>2022-11-09T15:46:08Z</time>
      </trkpt>
      <trkpt lat="49.92421" lon="2.19072">
        <ele>64.7</ele>
        <time>2022-11-09T15:46:09Z</time>
      </trkpt>
      <trkpt lat="49.92421" lon="2.19072">
        <ele>64.7</ele>
        <time>2022-11-09T15:46:10Z</time>
      </trkpt>
      <trkpt lat="49.92421" lon="2.19072">
        <ele>64.7</ele>
        <time>2022-11-09T15:46:11Z</time>
      </trkpt>
      <trkpt lat="49.92421" lon="2.19072">
        <ele>64.7</ele>
        <time>2022-11-09T15:46:12Z</time>
      </trkpt>
      <trkpt lat="49.92421" lon="2.19072">
        <ele>64.7</ele>
        <time>2022-11-09T15:46:13Z</time>
      </trkpt>
      <trkpt lat="49.92421" lon="2.19072">
        <ele>64.7</ele>
        <time>2022-11-09T15:46:14Z</time>
      </trkpt>
      <trkpt lat="49.92421" lon="2.19072">
        <ele>64.7</ele>
        <time>2022-11-09T15:46:15Z</time>
      </trkpt>
      <trkpt lat="49.92421" lon="2.19072">
        <ele>64.7</ele>
        <time>2022-11-09T15:46:16Z</time>
      </trkpt>
      <trkpt lat="49.92421" lon="2.19072">
        <ele>64.7</ele>
        <time>2022-11-09T15:46:17Z</time>
      </trkpt>
      <trkpt lat="49.92421" lon="2.19072">
        <ele>64.7</ele>
        <time>2022-11-09T15:46:18Z</time>
      </trkpt>
      <trkpt lat="49.92421" lon="2.19072">
        <ele>64.7</ele>
        <time>2022-11-09T15:46:19Z</time>
      </trkpt>
      <trkpt lat="49.92421" lon="2.19072">
        <ele>64.7</ele>
        <time>2022-11-09T15:46:20Z</time>
      </trkpt>
      <trkpt lat="49.92421" lon="2.19072">
        <ele>64.7</ele>
        <time>2022-11-09T15:46:21Z</time>
      </trkpt>
      <trkpt lat="49.92421" lon="2.19072">
        <ele>64.7</ele>
        <time>2022-11-09T15:46:22Z</time>
      </trkpt>
      <trkpt lat="49.92421" lon="2.19072">
        <ele>64.7</ele>
        <time>2022-11-09T15:46:23Z</time>
      </trkpt>
      <trkpt lat="49.92421" lon="2.19072">
        <ele>64.7</ele>
        <time>2022-11-09T15:46:24Z</time>
      </trkpt>
      <trkpt lat="49.92421" lon="2.19072">
        <ele>64.7</ele>
        <time>2022-11-09T15:46:25Z</time>
      </trkpt>
      <trkpt lat="49.92421" lon="2.19072">
        <ele>64.7</ele>
        <time>2022-11-09T15:46:26Z</time>
      </trkpt>
      <trkpt lat="49.92421" lon="2.19072">
        <ele>64.7</ele>
        <time>2022-11-09T15:46:27Z</time>
      </trkpt>
      <trkpt lat="49.92421" lon="2.19072">
        <ele>64.7</ele>
        <time>2022-11-09T15:46:28Z</time>
      </trkpt>
      <trkpt lat="49.92421" lon="2.19072">
        <ele>64.7</ele>
        <time>2022-11-09T15:46:29Z</time>
      </trkpt>
      <trkpt lat="49.92421" lon="2.19072">
        <ele>64.7</ele>
        <time>2022-11-09T15:46:30Z</time>
      </trkpt>
      <trkpt lat="49.92421" lon="2.19072">
        <ele>64.7</ele>
        <time>2022-11-09T15:46:31Z</time>
      </trkpt>
      <trkpt lat="49.92421" lon="2.19072">
        <ele>64.7</ele>
        <time>2022-11-09T15:46:32Z</time>
      </trkpt>
      <trkpt lat="49.92421" lon="2.19072">
        <ele>64.7</ele>
        <time>2022-11-09T15:46:33Z</time>
      </trkpt>
      <trkpt lat="49.92421" lon="2.19072">
        <ele>64.7</ele>
        <time>2022-11-09T15:46:34Z</time>
      </trkpt>
      <trkpt lat="49.92421" lon="2.19072">
        <ele>64.7</ele>
        <time>2022-11-09T15:46:35Z</time>
      </trkpt>
      <trkpt lat="49.92421" lon="2.19072">
        <ele>64.7</ele>
        <time>2022-11-09T15:46:36Z</time>
      </trkpt>
      <trkpt lat="49.92421" lon="2.19072">
        <ele>64.7</ele>
        <time>2022-11-09T15:46:37Z</time>
      </trkpt>
      <trkpt lat="49.92421" lon="2.19072">
        <ele>64.7</ele>
        <time>2022-11-09T15:46:38Z</time>
      </trkpt>
      <trkpt lat="49.92421" lon="2.19072">
        <ele>64.7</ele>
        <time>2022-11-09T15:46:39Z</time>
      </trkpt>
      <trkpt lat="49.92421" lon="2.19072">
        <ele>64.7</ele>
        <time>2022-11-09T15:46:40Z</time>
      </trkpt>
      <trkpt lat="49.92421" lon="2.19072">
        <ele>64.7</ele>
        <time>2022-11-09T15:46:41Z</time>
      </trkpt>
      <trkpt lat="49.92421" lon="2.19072">
        <ele>64.7</ele>
        <time>2022-11-09T15:46:42Z</time>
      </trkpt>
      <trkpt lat="49.92421" lon="2.19072">
        <ele>64.7</ele>
        <time>2022-11-09T15:46:43Z</time>
      </trkpt>
      <trkpt lat="49.92421" lon="2.19072">
        <ele>64.7</ele>
        <time>2022-11-09T15:46:44Z</time>
      </trkpt>
      <trkpt lat="49.92421" lon="2.19072">
        <ele>64.7</ele>
        <time>2022-11-09T15:46:45Z</time>
      </trkpt>
      <trkpt lat="49.92421" lon="2.19072">
        <ele>64.7</ele>
        <time>2022-11-09T15:46:46Z</time>
      </trkpt>
      <trkpt lat="49.92421" lon="2.19072">
        <ele>64.7</ele>
        <time>2022-11-09T15:46:47Z</time>
      </trkpt>
      <trkpt lat="49.92421" lon="2.19072">
        <ele>64.7</ele>
        <time>2022-11-09T15:46:48Z</time>
      </trkpt>
      <trkpt lat="49.92421" lon="2.19072">
        <ele>64.7</ele>
        <time>2022-11-09T15:46:49Z</time>
      </trkpt>
      <trkpt lat="49.92421" lon="2.19072">
        <ele>64.7</ele>
        <time>2022-11-09T15:46:50Z</time>
      </trkpt>
      <trkpt lat="49.92421" lon="2.19072">
        <ele>64.7</ele>
        <time>2022-11-09T15:46:51Z</time>
      </trkpt>
      <trkpt lat="49.92421" lon="2.19072">
        <ele>64.7</ele>
        <time>2022-11-09T15:46:52Z</time>
      </trkpt>
      <trkpt lat="49.92421" lon="2.19072">
        <ele>64.7</ele>
        <time>2022-11-09T15:46:53Z</time>
      </trkpt>
      <trkpt lat="49.92421" lon="2.19072">
        <ele>64.7</ele>
        <time>2022-11-09T15:46:54Z</time>
      </trkpt>
      <trkpt lat="49.92421" lon="2.19072">
        <ele>64.7</ele>
        <time>2022-11-09T15:46:55Z</time>
      </trkpt>
      <trkpt lat="49.92421" lon="2.19072">
        <ele>64.7</ele>
        <time>2022-11-09T15:46:56Z</time>
      </trkpt>
      <trkpt lat="49.92421" lon="2.19072">
        <ele>64.7</ele>
        <time>2022-11-09T15:46:57Z</time>
      </trkpt>
      <trkpt lat="49.92421" lon="2.19072">
        <ele>64.7</ele>
        <time>2022-11-09T15:46:58Z</time>
      </trkpt>
      <trkpt lat="49.92421" lon="2.19072">
        <ele>64.7</ele>
        <time>2022-11-09T15:46:59Z</time>
      </trkpt>
      <trkpt lat="49.92421" lon="2.19072">
        <ele>64.7</ele>
        <time>2022-11-09T15:47:00Z</time>
      </trkpt>
      <trkpt lat="49.92421" lon="2.19072">
        <ele>64.7</ele>
        <time>2022-11-09T15:47:01Z</time>
      </trkpt>
      <trkpt lat="49.92421" lon="2.19072">
        <ele>64.7</ele>
        <time>2022-11-09T15:47:02Z</time>
      </trkpt>
      <trkpt lat="49.92421" lon="2.19072">
        <ele>64.7</ele>
        <time>2022-11-09T15:47:03Z</time>
      </trkpt>
      <trkpt lat="49.92421" lon="2.19072">
        <ele>64.7</ele>
        <time>2022-11-09T15:47:04Z</time>
      </trkpt>
      <trkpt lat="49.92421" lon="2.19072">
        <ele>64.7</ele>
        <time>2022-11-09T15:47:05Z</time>
      </trkpt>
      <trkpt lat="49.92421" lon="2.19072">
        <ele>64.7</ele>
        <time>2022-11-09T15:47:06Z</time>
      </trkpt>
      <trkpt lat="49.92421" lon="2.19072">
        <ele>64.7</ele>
        <time>2022-11-09T15:47:07Z</time>
      </trkpt>
      <trkpt lat="49.92421" lon="2.19072">
        <ele>64.7</ele>
        <time>2022-11-09T15:47:08Z</time>
      </trkpt>
      <trkpt lat="49.92421" lon="2.19072">
        <ele>64.7</ele>
        <time>2022-11-09T15:47:09Z</time>
      </trkpt>
      <trkpt lat="49.92421" lon="2.19072">
        <ele>64.7</ele>
        <time>2022-11-09T15:47:10Z</time>
      </trkpt>
      <trkpt lat="49.92421" lon="2.19072">
        <ele>64.7</ele>
        <time>2022-11-09T15:47:11Z</time>
      </trkpt>
      <trkpt lat="49.92421" lon="2.19072">
        <ele>64.7</ele>
        <time>2022-11-09T15:47:12Z</time>
      </trkpt>
      <trkpt lat="49.92421" lon="2.19072">
        <ele>64.7</ele>
        <time>2022-11-09T15:47:13Z</time>
      </trkpt>
      <trkpt lat="49.92421" lon="2.19072">
        <ele>64.7</ele>
        <time>2022-11-09T15:47:14Z</time>
      </trkpt>
      <trkpt lat="49.92421" lon="2.19072">
        <ele>64.7</ele>
        <time>2022-11-09T15:47:15Z</time>
      </trkpt>
      <trkpt lat="49.92421" lon="2.19072">
        <ele>64.7</ele>
        <time>2022-11-09T15:47:16Z</time>
      </trkpt>
      <trkpt lat="49.92421" lon="2.19072">
        <ele>64.7</ele>
        <time>2022-11-09T15:47:17Z</time>
      </trkpt>
      <trkpt lat="49.92421" lon="2.19072">
        <ele>64.7</ele>
        <time>2022-11-09T15:47:18Z</time>
      </trkpt>
      <trkpt lat="49.92421" lon="2.19072">
        <ele>64.7</ele>
        <time>2022-11-09T15:47:19Z</time>
      </trkpt>
      <trkpt lat="49.92421" lon="2.19072">
        <ele>64.7</ele>
        <time>2022-11-09T15:47:20Z</time>
      </trkpt>
      <trkpt lat="49.92421" lon="2.19072">
        <ele>64.7</ele>
        <time>2022-11-09T15:47:21Z</time>
      </trkpt>
      <trkpt lat="49.92421" lon="2.19072">
        <ele>64.7</ele>
        <time>2022-11-09T15:47:22Z</time>
      </trkpt>
      <trkpt lat="49.92421" lon="2.19072">
        <ele>64.7</ele>
        <time>2022-11-09T15:47:23Z</time>
      </trkpt>
      <trkpt lat="49.92421" lon="2.19072">
        <ele>64.7</ele>
        <time>2022-11-09T15:47:24Z</time>
      </trkpt>
      <trkpt lat="49.92421" lon="2.19072">
        <ele>64.7</ele>
        <time>2022-11-09T15:47:25Z</time>
      </trkpt>
      <trkpt lat="49.92421" lon="2.19072">
        <ele>64.7</ele>
        <time>2022-11-09T15:47:26Z</time>
      </trkpt>
      <trkpt lat="49.92421" lon="2.19072">
        <ele>64.7</ele>
        <time>2022-11-09T15:47:27Z</time>
      </trkpt>
      <trkpt lat="49.92421" lon="2.19072">
        <ele>64.7</ele>
        <time>2022-11-09T15:47:28Z</time>
      </trkpt>
      <trkpt lat="49.92421" lon="2.19072">
        <ele>64.7</ele>
        <time>2022-11-09T15:47:29Z</time>
      </trkpt>
      <trkpt lat="49.92421" lon="2.19072">
        <ele>64.7</ele>
        <time>2022-11-09T15:47:30Z</time>
      </trkpt>
      <trkpt lat="49.92421" lon="2.19072">
        <ele>64.7</ele>
        <time>2022-11-09T15:47:31Z</time>
      </trkpt>
      <trkpt lat="49.92421" lon="2.19072">
        <ele>64.7</ele>
        <time>2022-11-09T15:47:32Z</time>
      </trkpt>
      <trkpt lat="49.92421" lon="2.19072">
        <ele>64.7</ele>
        <time>2022-11-09T15:47:33Z</time>
      </trkpt>
      <trkpt lat="49.9242" lon="2.19071">
        <ele>64.7</ele>
        <time>2022-11-09T15:47:34Z</time>
      </trkpt>
      <trkpt lat="49.9242" lon="2.19071">
        <ele>64.7</ele>
        <time>2022-11-09T15:47:35Z</time>
      </trkpt>
      <trkpt lat="49.9242" lon="2.19071">
        <ele>64.7</ele>
        <time>2022-11-09T15:47:36Z</time>
      </trkpt>
      <trkpt lat="49.9242" lon="2.19071">
        <ele>64.7</ele>
        <time>2022-11-09T15:47:37Z</time>
      </trkpt>
      <trkpt lat="49.92421" lon="2.19072">
        <ele>64.7</ele>
        <time>2022-11-09T15:47:38Z</time>
      </trkpt>
      <trkpt lat="49.92421" lon="2.19071">
        <ele>64.7</ele>
        <time>2022-11-09T15:47:39Z</time>
      </trkpt>
      <trkpt lat="49.92421" lon="2.19071">
        <ele>64.7</ele>
        <time>2022-11-09T15:47:41Z</time>
      </trkpt>
      <trkpt lat="49.92421" lon="2.1907">
        <ele>64.8</ele>
        <time>2022-11-09T15:47:42Z</time>
      </trkpt>
      <trkpt lat="49.92422" lon="2.19069">
        <ele>64.8</ele>
        <time>2022-11-09T15:47:43Z</time>
      </trkpt>
      <trkpt lat="49.92423" lon="2.19069">
        <ele>64.8</ele>
        <time>2022-11-09T15:47:44Z</time>
      </trkpt>
      <trkpt lat="49.92423" lon="2.19069">
        <ele>64.8</ele>
        <time>2022-11-09T15:47:45Z</time>
      </trkpt>
      <trkpt lat="49.92423" lon="2.19069">
        <ele>64.8</ele>
        <time>2022-11-09T15:47:46Z</time>
      </trkpt>
      <trkpt lat="49.92423" lon="2.19069">
        <ele>64.8</ele>
        <time>2022-11-09T15:47:47Z</time>
      </trkpt>
      <trkpt lat="49.92423" lon="2.19069">
        <ele>64.8</ele>
        <time>2022-11-09T15:47:48Z</time>
      </trkpt>
      <trkpt lat="49.92423" lon="2.1907">
        <ele>64.8</ele>
        <time>2022-11-09T15:47:49Z</time>
      </trkpt>
      <trkpt lat="49.92424" lon="2.19069">
        <ele>64.8</ele>
        <time>2022-11-09T15:47:50Z</time>
      </trkpt>
      <trkpt lat="49.92424" lon="2.19069">
        <ele>64.8</ele>
        <time>2022-11-09T15:47:51Z</time>
      </trkpt>
      <trkpt lat="49.92424" lon="2.19069">
        <ele>64.8</ele>
        <time>2022-11-09T15:47:52Z</time>
      </trkpt>
      <trkpt lat="49.92424" lon="2.19069">
        <ele>64.8</ele>
        <time>2022-11-09T15:47:53Z</time>
      </trkpt>
      <trkpt lat="49.92424" lon="2.19069">
        <ele>64.8</ele>
        <time>2022-11-09T15:47:54Z</time>
      </trkpt>
      <trkpt lat="49.92424" lon="2.19069">
        <ele>64.8</ele>
        <time>2022-11-09T15:47:55Z</time>
      </trkpt>
      <trkpt lat="49.92424" lon="2.19069">
        <ele>64.8</ele>
        <time>2022-11-09T15:47:56Z</time>
      </trkpt>
      <trkpt lat="49.92423" lon="2.19069">
        <ele>64.8</ele>
        <time>2022-11-09T15:47:57Z</time>
      </trkpt>
      <trkpt lat="49.92423" lon="2.19069">
        <ele>64.8</ele>
        <time>2022-11-09T15:47:58Z</time>
      </trkpt>
      <trkpt lat="49.92423" lon="2.19069">
        <ele>64.8</ele>
        <time>2022-11-09T15:47:59Z</time>
      </trkpt>
      <trkpt lat="49.92423" lon="2.19069">
        <ele>64.8</ele>
        <time>2022-11-09T15:48:00Z</time>
      </trkpt>
      <trkpt lat="49.92423" lon="2.19069">
        <ele>64.8</ele>
        <time>2022-11-09T15:48:01Z</time>
      </trkpt>
      <trkpt lat="49.92423" lon="2.19069">
        <ele>64.8</ele>
        <time>2022-11-09T15:48:02Z</time>
      </trkpt>
      <trkpt lat="49.92423" lon="2.19069">
        <ele>64.8</ele>
        <time>2022-11-09T15:48:03Z</time>
      </trkpt>
      <trkpt lat="49.92423" lon="2.19069">
        <ele>64.8</ele>
        <time>2022-11-09T15:48:04Z</time>
      </trkpt>
      <trkpt lat="49.92423" lon="2.19069">
        <ele>64.8</ele>
        <time>2022-11-09T15:48:05Z</time>
      </trkpt>
      <trkpt lat="49.92423" lon="2.19069">
        <ele>64.8</ele>
        <time>2022-11-09T15:48:06Z</time>
      </trkpt>
      <trkpt lat="49.92423" lon="2.19069">
        <ele>64.8</ele>
        <time>2022-11-09T15:48:07Z</time>
      </trkpt>
      <trkpt lat="49.92423" lon="2.19069">
        <ele>64.8</ele>
        <time>2022-11-09T15:48:08Z</time>
      </trkpt>
      <trkpt lat="49.92423" lon="2.19069">
        <ele>64.8</ele>
        <time>2022-11-09T15:48:09Z</time>
      </trkpt>
      <trkpt lat="49.92423" lon="2.19069">
        <ele>64.8</ele>
        <time>2022-11-09T15:48:10Z</time>
      </trkpt>
      <trkpt lat="49.92423" lon="2.19069">
        <ele>64.8</ele>
        <time>2022-11-09T15:48:11Z</time>
      </trkpt>
      <trkpt lat="49.92423" lon="2.19069">
        <ele>64.8</ele>
        <time>2022-11-09T15:48:12Z</time>
      </trkpt>
      <trkpt lat="49.92423" lon="2.19069">
        <ele>64.8</ele>
        <time>2022-11-09T15:48:13Z</time>
      </trkpt>
      <trkpt lat="49.92423" lon="2.19069">
        <ele>64.8</ele>
        <time>2022-11-09T15:48:14Z</time>
      </trkpt>
      <trkpt lat="49.92423" lon="2.19069">
        <ele>64.8</ele>
        <time>2022-11-09T15:48:15Z</time>
      </trkpt>
      <trkpt lat="49.92423" lon="2.19069">
        <ele>64.8</ele>
        <time>2022-11-09T15:48:16Z</time>
      </trkpt>
      <trkpt lat="49.92423" lon="2.19069">
        <ele>64.8</ele>
        <time>2022-11-09T15:48:17Z</time>
      </trkpt>
      <trkpt lat="49.92423" lon="2.19069">
        <ele>64.8</ele>
        <time>2022-11-09T15:48:18Z</time>
      </trkpt>
      <trkpt lat="49.92423" lon="2.19069">
        <ele>64.8</ele>
        <time>2022-11-09T15:48:19Z</time>
      </trkpt>
      <trkpt lat="49.92423" lon="2.19069">
        <ele>64.8</ele>
        <time>2022-11-09T15:48:20Z</time>
      </trkpt>
      <trkpt lat="49.92423" lon="2.19069">
        <ele>64.8</ele>
        <time>2022-11-09T15:48:21Z</time>
      </trkpt>
      <trkpt lat="49.92423" lon="2.19069">
        <ele>64.8</ele>
        <time>2022-11-09T15:48:22Z</time>
      </trkpt>
      <trkpt lat="49.92423" lon="2.19069">
        <ele>64.8</ele>
        <time>2022-11-09T15:48:23Z</time>
      </trkpt>
      <trkpt lat="49.92423" lon="2.19069">
        <ele>64.8</ele>
        <time>2022-11-09T15:48:24Z</time>
      </trkpt>
      <trkpt lat="49.92423" lon="2.19069">
        <ele>64.8</ele>
        <time>2022-11-09T15:48:25Z</time>
      </trkpt>
      <trkpt lat="49.92423" lon="2.19069">
        <ele>64.8</ele>
        <time>2022-11-09T15:48:26Z</time>
      </trkpt>
      <trkpt lat="49.92423" lon="2.19069">
        <ele>64.8</ele>
        <time>2022-11-09T15:48:27Z</time>
      </trkpt>
      <trkpt lat="49.92423" lon="2.19069">
        <ele>64.8</ele>
        <time>2022-11-09T15:48:28Z</time>
      </trkpt>
      <trkpt lat="49.92423" lon="2.19069">
        <ele>64.8</ele>
        <time>2022-11-09T15:48:29Z</time>
      </trkpt>
      <trkpt lat="49.92423" lon="2.19069">
        <ele>64.8</ele>
        <time>2022-11-09T15:48:30Z</time>
      </trkpt>
      <trkpt lat="49.92423" lon="2.19069">
        <ele>64.8</ele>
        <time>2022-11-09T15:48:31Z</time>
      </trkpt>
      <trkpt lat="49.92423" lon="2.19069">
        <ele>64.8</ele>
        <time>2022-11-09T15:48:32Z</time>
      </trkpt>
      <trkpt lat="49.92423" lon="2.19069">
        <ele>64.8</ele>
        <time>2022-11-09T15:48:33Z</time>
      </trkpt>
      <trkpt lat="49.92423" lon="2.19069">
        <ele>64.8</ele>
        <time>2022-11-09T15:48:34Z</time>
      </trkpt>
      <trkpt lat="49.92423" lon="2.19069">
        <ele>64.8</ele>
        <time>2022-11-09T15:48:35Z</time>
      </trkpt>
      <trkpt lat="49.92423" lon="2.19069">
        <ele>64.8</ele>
        <time>2022-11-09T15:48:36Z</time>
      </trkpt>
      <trkpt lat="49.92423" lon="2.19069">
        <ele>64.8</ele>
        <time>2022-11-09T15:48:37Z</time>
      </trkpt>
      <trkpt lat="49.92423" lon="2.19069">
        <ele>64.8</ele>
        <time>2022-11-09T15:48:38Z</time>
      </trkpt>
      <trkpt lat="49.92423" lon="2.19069">
        <ele>64.8</ele>
        <time>2022-11-09T15:48:39Z</time>
      </trkpt>
      <trkpt lat="49.92423" lon="2.19069">
        <ele>64.8</ele>
        <time>2022-11-09T15:48:40Z</time>
      </trkpt>
      <trkpt lat="49.92423" lon="2.19069">
        <ele>64.8</ele>
        <time>2022-11-09T15:48:41Z</time>
      </trkpt>
      <trkpt lat="49.92423" lon="2.19069">
        <ele>64.8</ele>
        <time>2022-11-09T15:48:42Z</time>
      </trkpt>
      <trkpt lat="49.92423" lon="2.19069">
        <ele>64.8</ele>
        <time>2022-11-09T15:48:43Z</time>
      </trkpt>
      <trkpt lat="49.92423" lon="2.19069">
        <ele>64.8</ele>
        <time>2022-11-09T15:48:44Z</time>
      </trkpt>
      <trkpt lat="49.92423" lon="2.19069">
        <ele>64.8</ele>
        <time>2022-11-09T15:48:45Z</time>
      </trkpt>
      <trkpt lat="49.92423" lon="2.19069">
        <ele>64.8</ele>
        <time>2022-11-09T15:48:46Z</time>
      </trkpt>
      <trkpt lat="49.92423" lon="2.19069">
        <ele>64.8</ele>
        <time>2022-11-09T15:48:47Z</time>
      </trkpt>
      <trkpt lat="49.92423" lon="2.19069">
        <ele>64.8</ele>
        <time>2022-11-09T15:48:48Z</time>
      </trkpt>
      <trkpt lat="49.92423" lon="2.19069">
        <ele>64.8</ele>
        <time>2022-11-09T15:48:49Z</time>
      </trkpt>
      <trkpt lat="49.92423" lon="2.19069">
        <ele>64.8</ele>
        <time>2022-11-09T15:48:50Z</time>
      </trkpt>
      <trkpt lat="49.92423" lon="2.19069">
        <ele>64.8</ele>
        <time>2022-11-09T15:48:51Z</time>
      </trkpt>
      <trkpt lat="49.92423" lon="2.19069">
        <ele>64.8</ele>
        <time>2022-11-09T15:48:52Z</time>
      </trkpt>
      <trkpt lat="49.92423" lon="2.19069">
        <ele>64.8</ele>
        <time>2022-11-09T15:48:53Z</time>
      </trkpt>
      <trkpt lat="49.92423" lon="2.19069">
        <ele>64.8</ele>
        <time>2022-11-09T15:48:54Z</time>
      </trkpt>
      <trkpt lat="49.92423" lon="2.19069">
        <ele>64.8</ele>
        <time>2022-11-09T15:48:55Z</time>
      </trkpt>
      <trkpt lat="49.92423" lon="2.19069">
        <ele>64.8</ele>
        <time>2022-11-09T15:48:56Z</time>
      </trkpt>
      <trkpt lat="49.92423" lon="2.19069">
        <ele>64.8</ele>
        <time>2022-11-09T15:48:57Z</time>
      </trkpt>
      <trkpt lat="49.92423" lon="2.19069">
        <ele>64.8</ele>
        <time>2022-11-09T15:48:58Z</time>
      </trkpt>
      <trkpt lat="49.92423" lon="2.19069">
        <ele>64.8</ele>
        <time>2022-11-09T15:48:59Z</time>
      </trkpt>
      <trkpt lat="49.92423" lon="2.19069">
        <ele>64.8</ele>
        <time>2022-11-09T15:49:00Z</time>
      </trkpt>
      <trkpt lat="49.92423" lon="2.19069">
        <ele>64.8</ele>
        <time>2022-11-09T15:49:01Z</time>
      </trkpt>
      <trkpt lat="49.92423" lon="2.19069">
        <ele>64.8</ele>
        <time>2022-11-09T15:49:02Z</time>
      </trkpt>
      <trkpt lat="49.92423" lon="2.19069">
        <ele>64.8</ele>
        <time>2022-11-09T15:49:03Z</time>
      </trkpt>
      <trkpt lat="49.92423" lon="2.19069">
        <ele>64.8</ele>
        <time>2022-11-09T15:49:04Z</time>
      </trkpt>
      <trkpt lat="49.92423" lon="2.19069">
        <ele>64.8</ele>
        <time>2022-11-09T15:49:05Z</time>
      </trkpt>
      <trkpt lat="49.92423" lon="2.19069">
        <ele>64.8</ele>
        <time>2022-11-09T15:49:06Z</time>
      </trkpt>
      <trkpt lat="49.92423" lon="2.19069">
        <ele>64.8</ele>
        <time>2022-11-09T15:49:07Z</time>
      </trkpt>
      <trkpt lat="49.92423" lon="2.19069">
        <ele>64.8</ele>
        <time>2022-11-09T15:49:08Z</time>
      </trkpt>
      <trkpt lat="49.92423" lon="2.19069">
        <ele>64.8</ele>
        <time>2022-11-09T15:49:09Z</time>
      </trkpt>
      <trkpt lat="49.92423" lon="2.19069">
        <ele>64.8</ele>
        <time>2022-11-09T15:49:10Z</time>
      </trkpt>
      <trkpt lat="49.92423" lon="2.19069">
        <ele>64.8</ele>
        <time>2022-11-09T15:49:11Z</time>
      </trkpt>
      <trkpt lat="49.92423" lon="2.19069">
        <ele>64.8</ele>
        <time>2022-11-09T15:49:12Z</time>
      </trkpt>
      <trkpt lat="49.92423" lon="2.19069">
        <ele>64.8</ele>
        <time>2022-11-09T15:49:13Z</time>
      </trkpt>
      <trkpt lat="49.92423" lon="2.19069">
        <ele>64.8</ele>
        <time>2022-11-09T15:49:14Z</time>
      </trkpt>
      <trkpt lat="49.92423" lon="2.19069">
        <ele>64.8</ele>
        <time>2022-11-09T15:49:15Z</time>
      </trkpt>
      <trkpt lat="49.92423" lon="2.19069">
        <ele>64.8</ele>
        <time>2022-11-09T15:49:16Z</time>
      </trkpt>
      <trkpt lat="49.92423" lon="2.19069">
        <ele>64.8</ele>
        <time>2022-11-09T15:49:17Z</time>
      </trkpt>
      <trkpt lat="49.92423" lon="2.19069">
        <ele>64.8</ele>
        <time>2022-11-09T15:49:18Z</time>
      </trkpt>
      <trkpt lat="49.92423" lon="2.19069">
        <ele>64.8</ele>
        <time>2022-11-09T15:49:19Z</time>
      </trkpt>
      <trkpt lat="49.92422" lon="2.19068">
        <ele>64.8</ele>
        <time>2022-11-09T15:49:20Z</time>
      </trkpt>
      <trkpt lat="49.92421" lon="2.19068">
        <ele>64.8</ele>
        <time>2022-11-09T15:49:21Z</time>
      </trkpt>
      <trkpt lat="49.9242" lon="2.19067">
        <ele>64.8</ele>
        <time>2022-11-09T15:49:22Z</time>
      </trkpt>
      <trkpt lat="49.9242" lon="2.19068">
        <ele>64.8</ele>
        <time>2022-11-09T15:49:23Z</time>
      </trkpt>
      <trkpt lat="49.9242" lon="2.19068">
        <ele>64.8</ele>
        <time>2022-11-09T15:49:24Z</time>
      </trkpt>
      <trkpt lat="49.9242" lon="2.19068">
        <ele>64.8</ele>
        <time>2022-11-09T15:49:25Z</time>
      </trkpt>
      <trkpt lat="49.9242" lon="2.19068">
        <ele>64.8</ele>
        <time>2022-11-09T15:49:26Z</time>
      </trkpt>
      <trkpt lat="49.9242" lon="2.19067">
        <ele>64.8</ele>
        <time>2022-11-09T15:49:27Z</time>
      </trkpt>
      <trkpt lat="49.9242" lon="2.19067">
        <ele>64.8</ele>
        <time>2022-11-09T15:49:28Z</time>
      </trkpt>
      <trkpt lat="49.9242" lon="2.19067">
        <ele>64.8</ele>
        <time>2022-11-09T15:49:29Z</time>
      </trkpt>
      <trkpt lat="49.9242" lon="2.19067">
        <ele>64.8</ele>
        <time>2022-11-09T15:49:30Z</time>
      </trkpt>
      <trkpt lat="49.9242" lon="2.19067">
        <ele>64.8</ele>
        <time>2022-11-09T15:49:31Z</time>
      </trkpt>
      <trkpt lat="49.9242" lon="2.19067">
        <ele>64.8</ele>
        <time>2022-11-09T15:49:32Z</time>
      </trkpt>
      <trkpt lat="49.9242" lon="2.19067">
        <ele>64.8</ele>
        <time>2022-11-09T15:49:33Z</time>
      </trkpt>
      <trkpt lat="49.9242" lon="2.19067">
        <ele>64.8</ele>
        <time>2022-11-09T15:49:34Z</time>
      </trkpt>
      <trkpt lat="49.92419" lon="2.19067">
        <ele>64.8</ele>
        <time>2022-11-09T15:49:35Z</time>
      </trkpt>
      <trkpt lat="49.92419" lon="2.19067">
        <ele>64.8</ele>
        <time>2022-11-09T15:49:36Z</time>
      </trkpt>
      <trkpt lat="49.92419" lon="2.19067">
        <ele>64.8</ele>
        <time>2022-11-09T15:49:37Z</time>
      </trkpt>
      <trkpt lat="49.92419" lon="2.19067">
        <ele>64.8</ele>
        <time>2022-11-09T15:49:38Z</time>
      </trkpt>
      <trkpt lat="49.92419" lon="2.19067">
        <ele>64.8</ele>
        <time>2022-11-09T15:49:39Z</time>
      </trkpt>
      <trkpt lat="49.92419" lon="2.19067">
        <ele>64.8</ele>
        <time>2022-11-09T15:49:40Z</time>
      </trkpt>
      <trkpt lat="49.92419" lon="2.19067">
        <ele>64.8</ele>
        <time>2022-11-09T15:49:41Z</time>
      </trkpt>
      <trkpt lat="49.92419" lon="2.19067">
        <ele>64.8</ele>
        <time>2022-11-09T15:49:42Z</time>
      </trkpt>
      <trkpt lat="49.92419" lon="2.19067">
        <ele>64.8</ele>
        <time>2022-11-09T15:49:43Z</time>
      </trkpt>
      <trkpt lat="49.92419" lon="2.19067">
        <ele>64.8</ele>
        <time>2022-11-09T15:49:44Z</time>
      </trkpt>
      <trkpt lat="49.92419" lon="2.19067">
        <ele>64.8</ele>
        <time>2022-11-09T15:49:45Z</time>
      </trkpt>
      <trkpt lat="49.92419" lon="2.19067">
        <ele>64.8</ele>
        <time>2022-11-09T15:49:46Z</time>
      </trkpt>
      <trkpt lat="49.92419" lon="2.19067">
        <ele>64.8</ele>
        <time>2022-11-09T15:49:47Z</time>
      </trkpt>
      <trkpt lat="49.92419" lon="2.19067">
        <ele>64.8</ele>
        <time>2022-11-09T15:49:48Z</time>
      </trkpt>
      <trkpt lat="49.92419" lon="2.19067">
        <ele>64.8</ele>
        <time>2022-11-09T15:49:49Z</time>
      </trkpt>
      <trkpt lat="49.92419" lon="2.19067">
        <ele>64.8</ele>
        <time>2022-11-09T15:49:50Z</time>
      </trkpt>
      <trkpt lat="49.92419" lon="2.19067">
        <ele>64.8</ele>
        <time>2022-11-09T15:49:51Z</time>
      </trkpt>
      <trkpt lat="49.92419" lon="2.19067">
        <ele>64.8</ele>
        <time>2022-11-09T15:49:52Z</time>
      </trkpt>
      <trkpt lat="49.92419" lon="2.19067">
        <ele>64.8</ele>
        <time>2022-11-09T15:49:53Z</time>
      </trkpt>
      <trkpt lat="49.92419" lon="2.19067">
        <ele>64.8</ele>
        <time>2022-11-09T15:49:54Z</time>
      </trkpt>
      <trkpt lat="49.92419" lon="2.19067">
        <ele>64.8</ele>
        <time>2022-11-09T15:49:55Z</time>
      </trkpt>
      <trkpt lat="49.92419" lon="2.19067">
        <ele>64.8</ele>
        <time>2022-11-09T15:49:56Z</time>
      </trkpt>
      <trkpt lat="49.92419" lon="2.19067">
        <ele>64.8</ele>
        <time>2022-11-09T15:49:57Z</time>
      </trkpt>
      <trkpt lat="49.92419" lon="2.19067">
        <ele>64.8</ele>
        <time>2022-11-09T15:49:58Z</time>
      </trkpt>
      <trkpt lat="49.92419" lon="2.19067">
        <ele>64.8</ele>
        <time>2022-11-09T15:49:59Z</time>
      </trkpt>
      <trkpt lat="49.92419" lon="2.19067">
        <ele>64.8</ele>
        <time>2022-11-09T15:50:00Z</time>
      </trkpt>
      <trkpt lat="49.92419" lon="2.19067">
        <ele>64.8</ele>
        <time>2022-11-09T15:50:01Z</time>
      </trkpt>
      <trkpt lat="49.92419" lon="2.19067">
        <ele>64.8</ele>
        <time>2022-11-09T15:50:02Z</time>
      </trkpt>
      <trkpt lat="49.92419" lon="2.19067">
        <ele>64.8</ele>
        <time>2022-11-09T15:50:03Z</time>
      </trkpt>
      <trkpt lat="49.92419" lon="2.19067">
        <ele>64.8</ele>
        <time>2022-11-09T15:50:04Z</time>
      </trkpt>
      <trkpt lat="49.92419" lon="2.19067">
        <ele>64.8</ele>
        <time>2022-11-09T15:50:05Z</time>
      </trkpt>
      <trkpt lat="49.92419" lon="2.19067">
        <ele>64.8</ele>
        <time>2022-11-09T15:50:06Z</time>
      </trkpt>
      <trkpt lat="49.92419" lon="2.19067">
        <ele>64.8</ele>
        <time>2022-11-09T15:50:07Z</time>
      </trkpt>
      <trkpt lat="49.92419" lon="2.19067">
        <ele>64.8</ele>
        <time>2022-11-09T15:50:08Z</time>
      </trkpt>
      <trkpt lat="49.92419" lon="2.19067">
        <ele>64.8</ele>
        <time>2022-11-09T15:50:09Z</time>
      </trkpt>
      <trkpt lat="49.92419" lon="2.19067">
        <ele>64.8</ele>
        <time>2022-11-09T15:50:10Z</time>
      </trkpt>
      <trkpt lat="49.92419" lon="2.19067">
        <ele>64.8</ele>
        <time>2022-11-09T15:50:11Z</time>
      </trkpt>
      <trkpt lat="49.92419" lon="2.19067">
        <ele>64.8</ele>
        <time>2022-11-09T15:50:12Z</time>
      </trkpt>
      <trkpt lat="49.92419" lon="2.19067">
        <ele>64.8</ele>
        <time>2022-11-09T15:50:13Z</time>
      </trkpt>
      <trkpt lat="49.92419" lon="2.19067">
        <ele>64.8</ele>
        <time>2022-11-09T15:50:14Z</time>
      </trkpt>
      <trkpt lat="49.92419" lon="2.19067">
        <ele>64.8</ele>
        <time>2022-11-09T15:50:15Z</time>
      </trkpt>
      <trkpt lat="49.92419" lon="2.19067">
        <ele>64.8</ele>
        <time>2022-11-09T15:50:16Z</time>
      </trkpt>
      <trkpt lat="49.92419" lon="2.19067">
        <ele>64.8</ele>
        <time>2022-11-09T15:50:17Z</time>
      </trkpt>
      <trkpt lat="49.92419" lon="2.19067">
        <ele>64.8</ele>
        <time>2022-11-09T15:50:18Z</time>
      </trkpt>
      <trkpt lat="49.92419" lon="2.19067">
        <ele>64.8</ele>
        <time>2022-11-09T15:50:19Z</time>
      </trkpt>
      <trkpt lat="49.92419" lon="2.19067">
        <ele>64.8</ele>
        <time>2022-11-09T15:50:20Z</time>
      </trkpt>
      <trkpt lat="49.92419" lon="2.19067">
        <ele>64.8</ele>
        <time>2022-11-09T15:50:21Z</time>
      </trkpt>
      <trkpt lat="49.92419" lon="2.19067">
        <ele>64.8</ele>
        <time>2022-11-09T15:50:22Z</time>
      </trkpt>
      <trkpt lat="49.92419" lon="2.19067">
        <ele>64.8</ele>
        <time>2022-11-09T15:50:23Z</time>
      </trkpt>
      <trkpt lat="49.92419" lon="2.19067">
        <ele>64.8</ele>
        <time>2022-11-09T15:50:24Z</time>
      </trkpt>
      <trkpt lat="49.92419" lon="2.19067">
        <ele>64.8</ele>
        <time>2022-11-09T15:50:25Z</time>
      </trkpt>
      <trkpt lat="49.92419" lon="2.19067">
        <ele>64.8</ele>
        <time>2022-11-09T15:50:26Z</time>
      </trkpt>
      <trkpt lat="49.92419" lon="2.19067">
        <ele>64.8</ele>
        <time>2022-11-09T15:50:27Z</time>
      </trkpt>
      <trkpt lat="49.92419" lon="2.19067">
        <ele>64.8</ele>
        <time>2022-11-09T15:50:28Z</time>
      </trkpt>
      <trkpt lat="49.92419" lon="2.19067">
        <ele>64.8</ele>
        <time>2022-11-09T15:50:29Z</time>
      </trkpt>
      <trkpt lat="49.92419" lon="2.19067">
        <ele>64.8</ele>
        <time>2022-11-09T15:50:30Z</time>
      </trkpt>
      <trkpt lat="49.92419" lon="2.19067">
        <ele>64.8</ele>
        <time>2022-11-09T15:50:31Z</time>
      </trkpt>
      <trkpt lat="49.92419" lon="2.19067">
        <ele>64.8</ele>
        <time>2022-11-09T15:50:32Z</time>
      </trkpt>
      <trkpt lat="49.92419" lon="2.19067">
        <ele>64.8</ele>
        <time>2022-11-09T15:50:33Z</time>
      </trkpt>
      <trkpt lat="49.92419" lon="2.19067">
        <ele>64.8</ele>
        <time>2022-11-09T15:50:34Z</time>
      </trkpt>
      <trkpt lat="49.92419" lon="2.19067">
        <ele>64.8</ele>
        <time>2022-11-09T15:50:35Z</time>
      </trkpt>
      <trkpt lat="49.92419" lon="2.19064">
        <ele>64.8</ele>
        <time>2022-11-09T15:50:36Z</time>
      </trkpt>
      <trkpt lat="49.92418" lon="2.19062">
        <ele>64.8</ele>
        <time>2022-11-09T15:50:37Z</time>
      </trkpt>
      <trkpt lat="49.92418" lon="2.19061">
        <ele>64.8</ele>
        <time>2022-11-09T15:50:38Z</time>
      </trkpt>
      <trkpt lat="49.92418" lon="2.19061">
        <ele>64.8</ele>
        <time>2022-11-09T15:50:39Z</time>
      </trkpt>
      <trkpt lat="49.92418" lon="2.1906">
        <ele>64.8</ele>
        <time>2022-11-09T15:50:40Z</time>
      </trkpt>
      <trkpt lat="49.92418" lon="2.1906">
        <ele>64.8</ele>
        <time>2022-11-09T15:50:41Z</time>
      </trkpt>
      <trkpt lat="49.92418" lon="2.19059">
        <ele>64.8</ele>
        <time>2022-11-09T15:50:42Z</time>
      </trkpt>
      <trkpt lat="49.92417" lon="2.19058">
        <ele>64.8</ele>
        <time>2022-11-09T15:50:44Z</time>
      </trkpt>
      <trkpt lat="49.92417" lon="2.19057">
        <ele>64.8</ele>
        <time>2022-11-09T15:50:45Z</time>
      </trkpt>
      <trkpt lat="49.92417" lon="2.19056">
        <ele>64.8</ele>
        <time>2022-11-09T15:50:46Z</time>
      </trkpt>
      <trkpt lat="49.92417" lon="2.19055">
        <ele>64.9</ele>
        <time>2022-11-09T15:50:47Z</time>
      </trkpt>
      <trkpt lat="49.92417" lon="2.19054">
        <ele>64.9</ele>
        <time>2022-11-09T15:50:48Z</time>
      </trkpt>
      <trkpt lat="49.92417" lon="2.19054">
        <ele>64.9</ele>
        <time>2022-11-09T15:50:49Z</time>
      </trkpt>
      <trkpt lat="49.92417" lon="2.19053">
        <ele>64.9</ele>
        <time>2022-11-09T15:50:50Z</time>
      </trkpt>
      <trkpt lat="49.92417" lon="2.19054">
        <ele>64.9</ele>
        <time>2022-11-09T15:50:51Z</time>
      </trkpt>
      <trkpt lat="49.92418" lon="2.19055">
        <ele>64.9</ele>
        <time>2022-11-09T15:50:52Z</time>
      </trkpt>
      <trkpt lat="49.92418" lon="2.19056">
        <ele>64.9</ele>
        <time>2022-11-09T15:50:53Z</time>
      </trkpt>
      <trkpt lat="49.92418" lon="2.19056">
        <ele>64.9</ele>
        <time>2022-11-09T15:50:54Z</time>
      </trkpt>
      <trkpt lat="49.92418" lon="2.19057">
        <ele>64.9</ele>
        <time>2022-11-09T15:50:55Z</time>
      </trkpt>
      <trkpt lat="49.92418" lon="2.19057">
        <ele>64.9</ele>
        <time>2022-11-09T15:50:56Z</time>
      </trkpt>
      <trkpt lat="49.92418" lon="2.19057">
        <ele>64.9</ele>
        <time>2022-11-09T15:50:57Z</time>
      </trkpt>
      <trkpt lat="49.92419" lon="2.19057">
        <ele>64.9</ele>
        <time>2022-11-09T15:50:58Z</time>
      </trkpt>
      <trkpt lat="49.92419" lon="2.19057">
        <ele>64.9</ele>
        <time>2022-11-09T15:50:59Z</time>
      </trkpt>
      <trkpt lat="49.92419" lon="2.19057">
        <ele>64.9</ele>
        <time>2022-11-09T15:51:00Z</time>
      </trkpt>
      <trkpt lat="49.92419" lon="2.19057">
        <ele>64.9</ele>
        <time>2022-11-09T15:51:01Z</time>
      </trkpt>
      <trkpt lat="49.92419" lon="2.19058">
        <ele>64.9</ele>
        <time>2022-11-09T15:51:02Z</time>
      </trkpt>
      <trkpt lat="49.92419" lon="2.19058">
        <ele>64.9</ele>
        <time>2022-11-09T15:51:03Z</time>
      </trkpt>
      <trkpt lat="49.92419" lon="2.19059">
        <ele>64.9</ele>
        <time>2022-11-09T15:51:04Z</time>
      </trkpt>
      <trkpt lat="49.92419" lon="2.19059">
        <ele>64.9</ele>
        <time>2022-11-09T15:51:05Z</time>
      </trkpt>
      <trkpt lat="49.92419" lon="2.19059">
        <ele>64.9</ele>
        <time>2022-11-09T15:51:06Z</time>
      </trkpt>
      <trkpt lat="49.92419" lon="2.19059">
        <ele>64.9</ele>
        <time>2022-11-09T15:51:07Z</time>
      </trkpt>
      <trkpt lat="49.92419" lon="2.19059">
        <ele>64.9</ele>
        <time>2022-11-09T15:51:08Z</time>
      </trkpt>
      <trkpt lat="49.92418" lon="2.1906">
        <ele>64.9</ele>
        <time>2022-11-09T15:51:09Z</time>
      </trkpt>
      <trkpt lat="49.92418" lon="2.1906">
        <ele>64.9</ele>
        <time>2022-11-09T15:51:10Z</time>
      </trkpt>
      <trkpt lat="49.92418" lon="2.1906">
        <ele>64.9</ele>
        <time>2022-11-09T15:51:11Z</time>
      </trkpt>
      <trkpt lat="49.92418" lon="2.1906">
        <ele>64.9</ele>
        <time>2022-11-09T15:51:12Z</time>
      </trkpt>
      <trkpt lat="49.92418" lon="2.1906">
        <ele>64.9</ele>
        <time>2022-11-09T15:51:13Z</time>
      </trkpt>
      <trkpt lat="49.92418" lon="2.19061">
        <ele>64.9</ele>
        <time>2022-11-09T15:51:14Z</time>
      </trkpt>
      <trkpt lat="49.92418" lon="2.19061">
        <ele>64.9</ele>
        <time>2022-11-09T15:51:15Z</time>
      </trkpt>
      <trkpt lat="49.92418" lon="2.19061">
        <ele>64.9</ele>
        <time>2022-11-09T15:51:16Z</time>
      </trkpt>
      <trkpt lat="49.92418" lon="2.19061">
        <ele>64.9</ele>
        <time>2022-11-09T15:51:17Z</time>
      </trkpt>
      <trkpt lat="49.92418" lon="2.19061">
        <ele>64.9</ele>
        <time>2022-11-09T15:51:18Z</time>
      </trkpt>
      <trkpt lat="49.92418" lon="2.19061">
        <ele>64.9</ele>
        <time>2022-11-09T15:51:19Z</time>
      </trkpt>
      <trkpt lat="49.92418" lon="2.19061">
        <ele>64.9</ele>
        <time>2022-11-09T15:51:20Z</time>
      </trkpt>
      <trkpt lat="49.92418" lon="2.19061">
        <ele>64.9</ele>
        <time>2022-11-09T15:51:21Z</time>
      </trkpt>
      <trkpt lat="49.92418" lon="2.19061">
        <ele>64.9</ele>
        <time>2022-11-09T15:51:22Z</time>
      </trkpt>
      <trkpt lat="49.92418" lon="2.19061">
        <ele>64.9</ele>
        <time>2022-11-09T15:51:23Z</time>
      </trkpt>
      <trkpt lat="49.92418" lon="2.19061">
        <ele>64.9</ele>
        <time>2022-11-09T15:51:24Z</time>
      </trkpt>
      <trkpt lat="49.92418" lon="2.19061">
        <ele>64.9</ele>
        <time>2022-11-09T15:51:25Z</time>
      </trkpt>
      <trkpt lat="49.92418" lon="2.19061">
        <ele>64.9</ele>
        <time>2022-11-09T15:51:26Z</time>
      </trkpt>
      <trkpt lat="49.92418" lon="2.19061">
        <ele>64.9</ele>
        <time>2022-11-09T15:51:27Z</time>
      </trkpt>
      <trkpt lat="49.92418" lon="2.19061">
        <ele>64.9</ele>
        <time>2022-11-09T15:51:28Z</time>
      </trkpt>
      <trkpt lat="49.92418" lon="2.19061">
        <ele>64.9</ele>
        <time>2022-11-09T15:51:29Z</time>
      </trkpt>
      <trkpt lat="49.92418" lon="2.19061">
        <ele>64.9</ele>
        <time>2022-11-09T15:51:30Z</time>
      </trkpt>
      <trkpt lat="49.92418" lon="2.19061">
        <ele>64.9</ele>
        <time>2022-11-09T15:51:31Z</time>
      </trkpt>
      <trkpt lat="49.92418" lon="2.19061">
        <ele>64.9</ele>
        <time>2022-11-09T15:51:32Z</time>
      </trkpt>
      <trkpt lat="49.92418" lon="2.19061">
        <ele>64.9</ele>
        <time>2022-11-09T15:51:33Z</time>
      </trkpt>
      <trkpt lat="49.92418" lon="2.19061">
        <ele>64.9</ele>
        <time>2022-11-09T15:51:34Z</time>
      </trkpt>
      <trkpt lat="49.92418" lon="2.19061">
        <ele>64.9</ele>
        <time>2022-11-09T15:51:35Z</time>
      </trkpt>
      <trkpt lat="49.92418" lon="2.19061">
        <ele>64.9</ele>
        <time>2022-11-09T15:51:36Z</time>
      </trkpt>
      <trkpt lat="49.92418" lon="2.19061">
        <ele>64.9</ele>
        <time>2022-11-09T15:51:37Z</time>
      </trkpt>
      <trkpt lat="49.92418" lon="2.19061">
        <ele>64.9</ele>
        <time>2022-11-09T15:51:38Z</time>
      </trkpt>
      <trkpt lat="49.92418" lon="2.19061">
        <ele>64.9</ele>
        <time>2022-11-09T15:51:39Z</time>
      </trkpt>
      <trkpt lat="49.92418" lon="2.19061">
        <ele>64.9</ele>
        <time>2022-11-09T15:51:40Z</time>
      </trkpt>
      <trkpt lat="49.92418" lon="2.19061">
        <ele>64.9</ele>
        <time>2022-11-09T15:51:41Z</time>
      </trkpt>
      <trkpt lat="49.92418" lon="2.19061">
        <ele>64.9</ele>
        <time>2022-11-09T15:51:42Z</time>
      </trkpt>
      <trkpt lat="49.92418" lon="2.19061">
        <ele>64.9</ele>
        <time>2022-11-09T15:51:43Z</time>
      </trkpt>
      <trkpt lat="49.92418" lon="2.1906">
        <ele>64.9</ele>
        <time>2022-11-09T15:51:44Z</time>
      </trkpt>
      <trkpt lat="49.92418" lon="2.1906">
        <ele>64.9</ele>
        <time>2022-11-09T15:51:45Z</time>
      </trkpt>
      <trkpt lat="49.92418" lon="2.1906">
        <ele>64.9</ele>
        <time>2022-11-09T15:51:46Z</time>
      </trkpt>
      <trkpt lat="49.92418" lon="2.1906">
        <ele>64.9</ele>
        <time>2022-11-09T15:51:47Z</time>
      </trkpt>
      <trkpt lat="49.92418" lon="2.1906">
        <ele>64.9</ele>
        <time>2022-11-09T15:51:48Z</time>
      </trkpt>
      <trkpt lat="49.92418" lon="2.1906">
        <ele>64.9</ele>
        <time>2022-11-09T15:51:49Z</time>
      </trkpt>
      <trkpt lat="49.92418" lon="2.1906">
        <ele>64.9</ele>
        <time>2022-11-09T15:51:50Z</time>
      </trkpt>
      <trkpt lat="49.92418" lon="2.1906">
        <ele>64.9</ele>
        <time>2022-11-09T15:51:51Z</time>
      </trkpt>
      <trkpt lat="49.92418" lon="2.1906">
        <ele>64.9</ele>
        <time>2022-11-09T15:51:52Z</time>
      </trkpt>
      <trkpt lat="49.92418" lon="2.1906">
        <ele>64.9</ele>
        <time>2022-11-09T15:51:53Z</time>
      </trkpt>
      <trkpt lat="49.92418" lon="2.1906">
        <ele>64.9</ele>
        <time>2022-11-09T15:51:54Z</time>
      </trkpt>
      <trkpt lat="49.92418" lon="2.1906">
        <ele>64.9</ele>
        <time>2022-11-09T15:51:55Z</time>
      </trkpt>
      <trkpt lat="49.92418" lon="2.1906">
        <ele>64.9</ele>
        <time>2022-11-09T15:51:56Z</time>
      </trkpt>
      <trkpt lat="49.92418" lon="2.1906">
        <ele>64.9</ele>
        <time>2022-11-09T15:51:57Z</time>
      </trkpt>
      <trkpt lat="49.92418" lon="2.1906">
        <ele>64.9</ele>
        <time>2022-11-09T15:51:58Z</time>
      </trkpt>
      <trkpt lat="49.92418" lon="2.1906">
        <ele>64.9</ele>
        <time>2022-11-09T15:51:59Z</time>
      </trkpt>
      <trkpt lat="49.92418" lon="2.1906">
        <ele>64.9</ele>
        <time>2022-11-09T15:52:00Z</time>
      </trkpt>
      <trkpt lat="49.92418" lon="2.1906">
        <ele>64.9</ele>
        <time>2022-11-09T15:52:01Z</time>
      </trkpt>
      <trkpt lat="49.92418" lon="2.1906">
        <ele>64.9</ele>
        <time>2022-11-09T15:52:02Z</time>
      </trkpt>
      <trkpt lat="49.92418" lon="2.1906">
        <ele>64.9</ele>
        <time>2022-11-09T15:52:03Z</time>
      </trkpt>
      <trkpt lat="49.92418" lon="2.1906">
        <ele>64.9</ele>
        <time>2022-11-09T15:52:04Z</time>
      </trkpt>
      <trkpt lat="49.92418" lon="2.1906">
        <ele>64.9</ele>
        <time>2022-11-09T15:52:05Z</time>
      </trkpt>
      <trkpt lat="49.92418" lon="2.1906">
        <ele>64.9</ele>
        <time>2022-11-09T15:52:06Z</time>
      </trkpt>
      <trkpt lat="49.92418" lon="2.1906">
        <ele>64.9</ele>
        <time>2022-11-09T15:52:07Z</time>
      </trkpt>
      <trkpt lat="49.92418" lon="2.1906">
        <ele>64.9</ele>
        <time>2022-11-09T15:52:08Z</time>
      </trkpt>
      <trkpt lat="49.92418" lon="2.1906">
        <ele>64.9</ele>
        <time>2022-11-09T15:52:09Z</time>
      </trkpt>
      <trkpt lat="49.92418" lon="2.1906">
        <ele>64.9</ele>
        <time>2022-11-09T15:52:10Z</time>
      </trkpt>
      <trkpt lat="49.92418" lon="2.1906">
        <ele>64.9</ele>
        <time>2022-11-09T15:52:11Z</time>
      </trkpt>
      <trkpt lat="49.92418" lon="2.1906">
        <ele>64.9</ele>
        <time>2022-11-09T15:52:12Z</time>
      </trkpt>
      <trkpt lat="49.92418" lon="2.1906">
        <ele>64.9</ele>
        <time>2022-11-09T15:52:13Z</time>
      </trkpt>
      <trkpt lat="49.92418" lon="2.1906">
        <ele>64.9</ele>
        <time>2022-11-09T15:52:14Z</time>
      </trkpt>
      <trkpt lat="49.92418" lon="2.1906">
        <ele>64.9</ele>
        <time>2022-11-09T15:52:15Z</time>
      </trkpt>
      <trkpt lat="49.92418" lon="2.19059">
        <ele>64.9</ele>
        <time>2022-11-09T15:52:17Z</time>
      </trkpt>
      <trkpt lat="49.92418" lon="2.19059">
        <ele>64.9</ele>
        <time>2022-11-09T15:52:18Z</time>
      </trkpt>
      <trkpt lat="49.92418" lon="2.19059">
        <ele>64.9</ele>
        <time>2022-11-09T15:52:19Z</time>
      </trkpt>
      <trkpt lat="49.92418" lon="2.19059">
        <ele>64.9</ele>
        <time>2022-11-09T15:52:20Z</time>
      </trkpt>
      <trkpt lat="49.92418" lon="2.19059">
        <ele>64.9</ele>
        <time>2022-11-09T15:52:21Z</time>
      </trkpt>
      <trkpt lat="49.92418" lon="2.19059">
        <ele>64.9</ele>
        <time>2022-11-09T15:52:22Z</time>
      </trkpt>
      <trkpt lat="49.92419" lon="2.1906">
        <ele>64.9</ele>
        <time>2022-11-09T15:52:23Z</time>
      </trkpt>
      <trkpt lat="49.92419" lon="2.1906">
        <ele>64.9</ele>
        <time>2022-11-09T15:52:24Z</time>
      </trkpt>
      <trkpt lat="49.92419" lon="2.1906">
        <ele>64.9</ele>
        <time>2022-11-09T15:52:25Z</time>
      </trkpt>
      <trkpt lat="49.9242" lon="2.19059">
        <ele>64.9</ele>
        <time>2022-11-09T15:52:26Z</time>
      </trkpt>
      <trkpt lat="49.92421" lon="2.19059">
        <ele>64.9</ele>
        <time>2022-11-09T15:52:27Z</time>
      </trkpt>
      <trkpt lat="49.92422" lon="2.19058">
        <ele>64.9</ele>
        <time>2022-11-09T15:52:29Z</time>
      </trkpt>
      <trkpt lat="49.92423" lon="2.19057">
        <ele>64.9</ele>
        <time>2022-11-09T15:52:30Z</time>
      </trkpt>
      <trkpt lat="49.92423" lon="2.19056">
        <ele>65</ele>
        <time>2022-11-09T15:52:31Z</time>
      </trkpt>
      <trkpt lat="49.92424" lon="2.19056">
        <ele>65</ele>
        <time>2022-11-09T15:52:32Z</time>
      </trkpt>
      <trkpt lat="49.92425" lon="2.19055">
        <ele>65</ele>
        <time>2022-11-09T15:52:33Z</time>
      </trkpt>
      <trkpt lat="49.92426" lon="2.19055">
        <ele>65</ele>
        <time>2022-11-09T15:52:34Z</time>
      </trkpt>
      <trkpt lat="49.92427" lon="2.19055">
        <ele>65</ele>
        <time>2022-11-09T15:52:35Z</time>
      </trkpt>
      <trkpt lat="49.92428" lon="2.19055">
        <ele>65</ele>
        <time>2022-11-09T15:52:36Z</time>
      </trkpt>
      <trkpt lat="49.92429" lon="2.19054">
        <ele>65</ele>
        <time>2022-11-09T15:52:37Z</time>
      </trkpt>
      <trkpt lat="49.9243" lon="2.19052">
        <ele>65</ele>
        <time>2022-11-09T15:52:38Z</time>
      </trkpt>
      <trkpt lat="49.9243" lon="2.19051">
        <ele>65</ele>
        <time>2022-11-09T15:52:40Z</time>
      </trkpt>
      <trkpt lat="49.92431" lon="2.19049">
        <ele>65</ele>
        <time>2022-11-09T15:52:41Z</time>
      </trkpt>
      <trkpt lat="49.92431" lon="2.19048">
        <ele>65</ele>
        <time>2022-11-09T15:52:42Z</time>
      </trkpt>
    </trkseg>
  </trk>
</gpx>